<?xml version='1.0' encoding='UTF-8'?><gpx version="1.1" creator="JPX - https://github.com/jenetics/jpx" xmlns="http://www.topografix.com/GPX/1/1"><trk><trkseg><trkpt lat="44.7947192343115" lon="11.562628991628834"><ele>10.0</ele><time>2026-04-10T08:22:53Z</time></trkpt><trkpt lat="44.79474508395573" lon="11.562779646606353"><ele>10.0</ele><time>2026-04-10T08:22:55Z</time></trkpt><trkpt lat="44.79475677286305" lon="11.56287362014704"><ele>10.0</ele><time>2026-04-10T08:22:56Z</time></trkpt><trkpt lat="44.794766250099464" lon="11.56304608500321"><ele>10.0</ele><time>2026-04-10T08:22:58Z</time></trkpt><trkpt lat="44.794768324529336" lon="11.563221763480568"><ele>10.0</ele><time>2026-04-10T08:23:00Z</time></trkpt><trkpt lat="44.794766793768346" lon="11.563325452093876"><ele>10.0</ele><time>2026-04-10T08:23:01Z</time></trkpt><trkpt lat="44.794782248104724" lon="11.563443085090913"><ele>10.0</ele><time>2026-04-10T08:23:02Z</time></trkpt><trkpt lat="44.794750769131646" lon="11.56357822438687"><ele>10.0</ele><time>2026-04-10T08:23:03Z</time></trkpt><trkpt lat="44.79473810561008" lon="11.563730036783175"><ele>10.0</ele><time>2026-04-10T08:23:04Z</time></trkpt><trkpt lat="44.794727384917344" lon="11.563894858155061"><ele>10.0</ele><time>2026-04-10T08:23:05Z</time></trkpt><trkpt lat="44.794724406570595" lon="11.564068856991886"><ele>10.0</ele><time>2026-04-10T08:23:06Z</time></trkpt><trkpt lat="44.794727537470564" lon="11.564256853605404"><ele>10.0</ele><time>2026-04-10T08:23:07Z</time></trkpt><trkpt lat="44.79473164826547" lon="11.564455104475355"><ele>10.0</ele><time>2026-04-10T08:23:08Z</time></trkpt><trkpt lat="44.79473776650582" lon="11.564666279342553"><ele>10.0</ele><time>2026-04-10T08:23:09Z</time></trkpt><trkpt lat="44.79474618741516" lon="11.564906439435417"><ele>10.0</ele><time>2026-04-10T08:23:10Z</time></trkpt><trkpt lat="44.79475464246237" lon="11.565174663625791"><ele>10.0</ele><time>2026-04-10T08:23:11Z</time></trkpt><trkpt lat="44.7947597874921" lon="11.565436816300213"><ele>10.0</ele><time>2026-04-10T08:23:12Z</time></trkpt><trkpt lat="44.79476560547392" lon="11.56569009725147"><ele>10.0</ele><time>2026-04-10T08:23:13Z</time></trkpt><trkpt lat="44.794772542756476" lon="11.56593668072701"><ele>10.0</ele><time>2026-04-10T08:23:14Z</time></trkpt><trkpt lat="44.794782739945106" lon="11.566182504080832"><ele>10.0</ele><time>2026-04-10T08:23:15Z</time></trkpt><trkpt lat="44.794788358806294" lon="11.56642104329412"><ele>9.666666666666668</ele><time>2026-04-10T08:23:16Z</time></trkpt><trkpt lat="44.79479696720411" lon="11.566655321725943"><ele>9.333333333333334</ele><time>2026-04-10T08:23:17Z</time></trkpt><trkpt lat="44.794803804232615" lon="11.566885892351257"><ele>9.0</ele><time>2026-04-10T08:23:18Z</time></trkpt><trkpt lat="44.79481012795538" lon="11.567111601594698"><ele>9.0</ele><time>2026-04-10T08:23:19Z</time></trkpt><trkpt lat="44.79481243166268" lon="11.567330367848594"><ele>9.0</ele><time>2026-04-10T08:23:20Z</time></trkpt><trkpt lat="44.79480859531775" lon="11.567548139099925"><ele>9.0</ele><time>2026-04-10T08:23:21Z</time></trkpt><trkpt lat="44.7948036162386" lon="11.567767696110407"><ele>9.333333333333334</ele><time>2026-04-10T08:23:22Z</time></trkpt><trkpt lat="44.794790568752724" lon="11.567993769788865"><ele>9.666666666666668</ele><time>2026-04-10T08:23:23Z</time></trkpt><trkpt lat="44.79477340267403" lon="11.568221815711242"><ele>10.0</ele><time>2026-04-10T08:23:24Z</time></trkpt><trkpt lat="44.7947531829431" lon="11.568448559725526"><ele>10.0</ele><time>2026-04-10T08:23:25Z</time></trkpt><trkpt lat="44.794727788187316" lon="11.568666645007061"><ele>10.0</ele><time>2026-04-10T08:23:26Z</time></trkpt><trkpt lat="44.79469788742228" lon="11.568882073952933"><ele>10.0</ele><time>2026-04-10T08:23:27Z</time></trkpt><trkpt lat="44.79466370582303" lon="11.56909733513235"><ele>10.666666666666668</ele><time>2026-04-10T08:23:28Z</time></trkpt><trkpt lat="44.79462668925927" lon="11.569319219771081"><ele>11.333333333333334</ele><time>2026-04-10T08:23:29Z</time></trkpt><trkpt lat="44.79457924900953" lon="11.569540272537294"><ele>12.0</ele><time>2026-04-10T08:23:30Z</time></trkpt><trkpt lat="44.79451893989918" lon="11.569758726794623"><ele>12.333333333333332</ele><time>2026-04-10T08:23:31Z</time></trkpt><trkpt lat="44.794455393741096" lon="11.569974879848514"><ele>12.666666666666666</ele><time>2026-04-10T08:23:32Z</time></trkpt><trkpt lat="44.794396490858354" lon="11.57019002097939"><ele>13.0</ele><time>2026-04-10T08:23:33Z</time></trkpt><trkpt lat="44.79434284584919" lon="11.570396995304995"><ele>12.75</ele><time>2026-04-10T08:23:34Z</time></trkpt><trkpt lat="44.79429331112744" lon="11.570591934031036"><ele>12.5</ele><time>2026-04-10T08:23:35Z</time></trkpt><trkpt lat="44.79424633046396" lon="11.570779088304079"><ele>12.25</ele><time>2026-04-10T08:23:36Z</time></trkpt><trkpt lat="44.794200216098254" lon="11.570956663902273"><ele>12.0</ele><time>2026-04-10T08:23:37Z</time></trkpt><trkpt lat="44.794150514787724" lon="11.571110841797648"><ele>12.2</ele><time>2026-04-10T08:23:38Z</time></trkpt><trkpt lat="44.79408986333867" lon="11.571240854284433"><ele>12.399999999999999</ele><time>2026-04-10T08:23:39Z</time></trkpt><trkpt lat="44.7940239450338" lon="11.571339434989353"><ele>12.600000000000001</ele><time>2026-04-10T08:23:40Z</time></trkpt><trkpt lat="44.79395989863144" lon="11.571403363424164"><ele>12.8</ele><time>2026-04-10T08:23:41Z</time></trkpt><trkpt lat="44.79391358622386" lon="11.571470554282206"><ele>13.0</ele><time>2026-04-10T08:23:42Z</time></trkpt><trkpt lat="44.79380962688488" lon="11.571497409423037"><ele>13.0</ele><time>2026-04-10T08:23:43Z</time></trkpt><trkpt lat="44.79368289815872" lon="11.571503272597935"><ele>13.0</ele><time>2026-04-10T08:23:44Z</time></trkpt><trkpt lat="44.793559589659665" lon="11.571488787676557"><ele>13.0</ele><time>2026-04-10T08:23:45Z</time></trkpt><trkpt lat="44.79342229270266" lon="11.571455888061813"><ele>13.0</ele><time>2026-04-10T08:23:46Z</time></trkpt><trkpt lat="44.793284126931674" lon="11.571420631361145"><ele>12.75</ele><time>2026-04-10T08:23:47Z</time></trkpt><trkpt lat="44.7931419114704" lon="11.571405890865368"><ele>12.5</ele><time>2026-04-10T08:23:48Z</time></trkpt><trkpt lat="44.79299236267918" lon="11.571405243158102"><ele>12.25</ele><time>2026-04-10T08:23:49Z</time></trkpt><trkpt lat="44.79283889046381" lon="11.571421422283"><ele>12.0</ele><time>2026-04-10T08:23:50Z</time></trkpt><trkpt lat="44.79268715332281" lon="11.57146098835246"><ele>12.0</ele><time>2026-04-10T08:23:51Z</time></trkpt><trkpt lat="44.792539255678314" lon="11.571514322970048"><ele>12.0</ele><time>2026-04-10T08:23:52Z</time></trkpt><trkpt lat="44.79238737831232" lon="11.571576642773925"><ele>12.0</ele><time>2026-04-10T08:23:53Z</time></trkpt><trkpt lat="44.792235372845155" lon="11.571646538898047"><ele>12.0</ele><time>2026-04-10T08:23:54Z</time></trkpt><trkpt lat="44.79208237958071" lon="11.57172161277924"><ele>12.0</ele><time>2026-04-10T08:23:55Z</time></trkpt><trkpt lat="44.79192841942679" lon="11.571796630174566"><ele>12.0</ele><time>2026-04-10T08:23:56Z</time></trkpt><trkpt lat="44.7917807519296" lon="11.571866863536583"><ele>12.0</ele><time>2026-04-10T08:23:57Z</time></trkpt><trkpt lat="44.79164061729788" lon="11.57193301927822"><ele>12.0</ele><time>2026-04-10T08:23:58Z</time></trkpt><trkpt lat="44.79150612162807" lon="11.571995352755833"><ele>12.0</ele><time>2026-04-10T08:23:59Z</time></trkpt><trkpt lat="44.791373901306116" lon="11.572056625232062"><ele>12.0</ele><time>2026-04-10T08:24:00Z</time></trkpt><trkpt lat="44.791245117247705" lon="11.572112092778116"><ele>12.25</ele><time>2026-04-10T08:24:01Z</time></trkpt><trkpt lat="44.791119196659785" lon="11.57216403298761"><ele>12.5</ele><time>2026-04-10T08:24:02Z</time></trkpt><trkpt lat="44.790997896854655" lon="11.572217197489655"><ele>12.75</ele><time>2026-04-10T08:24:03Z</time></trkpt><trkpt lat="44.79087659168074" lon="11.572274019320115"><ele>13.0</ele><time>2026-04-10T08:24:04Z</time></trkpt><trkpt lat="44.79074629455746" lon="11.57233307923223"><ele>13.0</ele><time>2026-04-10T08:24:05Z</time></trkpt><trkpt lat="44.79061132396076" lon="11.572398480027841"><ele>13.0</ele><time>2026-04-10T08:24:06Z</time></trkpt><trkpt lat="44.79048796447785" lon="11.572474701795706"><ele>13.0</ele><time>2026-04-10T08:24:07Z</time></trkpt><trkpt lat="44.790372668426315" lon="11.572574363925012"><ele>13.0</ele><time>2026-04-10T08:24:08Z</time></trkpt><trkpt lat="44.79026565938588" lon="11.572701040939071"><ele>12.75</ele><time>2026-04-10T08:24:09Z</time></trkpt><trkpt lat="44.79016576787472" lon="11.572828750657369"><ele>12.5</ele><time>2026-04-10T08:24:10Z</time></trkpt><trkpt lat="44.79006660414383" lon="11.57294187956675"><ele>12.25</ele><time>2026-04-10T08:24:11Z</time></trkpt><trkpt lat="44.78997538540539" lon="11.57303191889425"><ele>12.0</ele><time>2026-04-10T08:24:12Z</time></trkpt><trkpt lat="44.78988473316578" lon="11.57309398953326"><ele>11.75</ele><time>2026-04-10T08:24:13Z</time></trkpt><trkpt lat="44.78978846363135" lon="11.573113790219752"><ele>11.5</ele><time>2026-04-10T08:24:14Z</time></trkpt><trkpt lat="44.78967769022173" lon="11.573132846781627"><ele>11.25</ele><time>2026-04-10T08:24:15Z</time></trkpt><trkpt lat="44.789555416240475" lon="11.57318487194268"><ele>11.0</ele><time>2026-04-10T08:24:16Z</time></trkpt><trkpt lat="44.789446031107474" lon="11.573285088089898"><ele>11.0</ele><time>2026-04-10T08:24:17Z</time></trkpt><trkpt lat="44.78935509308882" lon="11.573406897869026"><ele>11.0</ele><time>2026-04-10T08:24:18Z</time></trkpt><trkpt lat="44.789240849740246" lon="11.573486402241901"><ele>11.0</ele><time>2026-04-10T08:24:19Z</time></trkpt><trkpt lat="44.789109612927064" lon="11.573509677018873"><ele>11.0</ele><time>2026-04-10T08:24:20Z</time></trkpt><trkpt lat="44.78896860769773" lon="11.57353450032244"><ele>11.333333333333332</ele><time>2026-04-10T08:24:21Z</time></trkpt><trkpt lat="44.78882019626381" lon="11.57357924205481"><ele>11.666666666666666</ele><time>2026-04-10T08:24:22Z</time></trkpt><trkpt lat="44.78867022398004" lon="11.573643960203354"><ele>12.0</ele><time>2026-04-10T08:24:23Z</time></trkpt><trkpt lat="44.78852209866429" lon="11.57373485130726"><ele>11.666666666666666</ele><time>2026-04-10T08:24:24Z</time></trkpt><trkpt lat="44.788377521809494" lon="11.573852431995736"><ele>11.333333333333332</ele><time>2026-04-10T08:24:25Z</time></trkpt><trkpt lat="44.78823566251791" lon="11.57398898216396"><ele>11.0</ele><time>2026-04-10T08:24:26Z</time></trkpt><trkpt lat="44.78809532797078" lon="11.574135317843137"><ele>11.0</ele><time>2026-04-10T08:24:27Z</time></trkpt><trkpt lat="44.78794699045877" lon="11.574277891722785"><ele>11.0</ele><time>2026-04-10T08:24:28Z</time></trkpt><trkpt lat="44.78779902566099" lon="11.574405610955333"><ele>11.0</ele><time>2026-04-10T08:24:29Z</time></trkpt><trkpt lat="44.78763470774406" lon="11.574520700883815"><ele>10.666666666666666</ele><time>2026-04-10T08:24:30Z</time></trkpt><trkpt lat="44.78745471227462" lon="11.574593664614328"><ele>10.333333333333334</ele><time>2026-04-10T08:24:31Z</time></trkpt><trkpt lat="44.78728330788991" lon="11.574626690663827"><ele>10.0</ele><time>2026-04-10T08:24:32Z</time></trkpt><trkpt lat="44.78710775986309" lon="11.574627756366317"><ele>10.0</ele><time>2026-04-10T08:24:33Z</time></trkpt><trkpt lat="44.786936883856754" lon="11.574617896484126"><ele>10.0</ele><time>2026-04-10T08:24:34Z</time></trkpt><trkpt lat="44.786762355001585" lon="11.574606006136873"><ele>10.0</ele><time>2026-04-10T08:24:35Z</time></trkpt><trkpt lat="44.78658400265585" lon="11.574586959722073"><ele>10.0</ele><time>2026-04-10T08:24:36Z</time></trkpt><trkpt lat="44.786402110124776" lon="11.574563824047924"><ele>10.0</ele><time>2026-04-10T08:24:37Z</time></trkpt><trkpt lat="44.786219635925136" lon="11.574548283724198"><ele>10.0</ele><time>2026-04-10T08:24:38Z</time></trkpt><trkpt lat="44.78603116499878" lon="11.574532114641528"><ele>10.0</ele><time>2026-04-10T08:24:39Z</time></trkpt><trkpt lat="44.78583944479909" lon="11.574512566218699"><ele>10.0</ele><time>2026-04-10T08:24:40Z</time></trkpt><trkpt lat="44.78564525349065" lon="11.574501228763806"><ele>10.0</ele><time>2026-04-10T08:24:41Z</time></trkpt><trkpt lat="44.785449682047734" lon="11.574512988179869"><ele>10.333333333333334</ele><time>2026-04-10T08:24:42Z</time></trkpt><trkpt lat="44.78525225670709" lon="11.574550740412777"><ele>10.666666666666666</ele><time>2026-04-10T08:24:43Z</time></trkpt><trkpt lat="44.78505245410301" lon="11.57460793471053"><ele>11.0</ele><time>2026-04-10T08:24:44Z</time></trkpt><trkpt lat="44.78485462052234" lon="11.574671886459127"><ele>11.333333333333332</ele><time>2026-04-10T08:24:45Z</time></trkpt><trkpt lat="44.784655063639065" lon="11.574724151872049"><ele>11.666666666666666</ele><time>2026-04-10T08:24:46Z</time></trkpt><trkpt lat="44.78445402990433" lon="11.574765150611062"><ele>12.0</ele><time>2026-04-10T08:24:47Z</time></trkpt><trkpt lat="44.7842556444644" lon="11.574806216636686"><ele>12.0</ele><time>2026-04-10T08:24:48Z</time></trkpt><trkpt lat="44.78405784388631" lon="11.574854589765852"><ele>12.0</ele><time>2026-04-10T08:24:49Z</time></trkpt><trkpt lat="44.78386132343436" lon="11.574912514998772"><ele>12.0</ele><time>2026-04-10T08:24:50Z</time></trkpt><trkpt lat="44.78366518321539" lon="11.574973169439843"><ele>11.333333333333334</ele><time>2026-04-10T08:24:51Z</time></trkpt><trkpt lat="44.78346924780217" lon="11.575044965983928"><ele>10.666666666666668</ele><time>2026-04-10T08:24:52Z</time></trkpt><trkpt lat="44.78328166908569" lon="11.575114099376611"><ele>10.0</ele><time>2026-04-10T08:24:53Z</time></trkpt><trkpt lat="44.783098176599374" lon="11.575182932331934"><ele>10.0</ele><time>2026-04-10T08:24:54Z</time></trkpt><trkpt lat="44.78291446854159" lon="11.575257149777231"><ele>10.0</ele><time>2026-04-10T08:24:55Z</time></trkpt><trkpt lat="44.78272981259548" lon="11.575332801025526"><ele>10.0</ele><time>2026-04-10T08:24:55.999Z</time></trkpt><trkpt lat="44.782545964186106" lon="11.57540496812809"><ele>10.333333333333334</ele><time>2026-04-10T08:24:56.999Z</time></trkpt><trkpt lat="44.78236102532008" lon="11.57547721309412"><ele>10.666666666666666</ele><time>2026-04-10T08:24:57.999Z</time></trkpt><trkpt lat="44.78217414103541" lon="11.575542467568015"><ele>11.0</ele><time>2026-04-10T08:24:58.999Z</time></trkpt><trkpt lat="44.78198724695424" lon="11.575599375621726"><ele>11.0</ele><time>2026-04-10T08:24:59.999Z</time></trkpt><trkpt lat="44.78179805730266" lon="11.57564895725899"><ele>11.0</ele><time>2026-04-10T08:25:00.999Z</time></trkpt><trkpt lat="44.78160590657541" lon="11.575695404779111"><ele>11.0</ele><time>2026-04-10T08:25:01.999Z</time></trkpt><trkpt lat="44.78141233917471" lon="11.575741414721003"><ele>11.0</ele><time>2026-04-10T08:25:02.999Z</time></trkpt><trkpt lat="44.78121708195726" lon="11.575788076650168"><ele>11.0</ele><time>2026-04-10T08:25:03.999Z</time></trkpt><trkpt lat="44.781021229354366" lon="11.575841726497355"><ele>11.0</ele><time>2026-04-10T08:25:04.999Z</time></trkpt><trkpt lat="44.780827556263894" lon="11.575902878425666"><ele>11.333333333333332</ele><time>2026-04-10T08:25:05.999Z</time></trkpt><trkpt lat="44.78063246908327" lon="11.575965439323054"><ele>11.666666666666666</ele><time>2026-04-10T08:25:06.999Z</time></trkpt><trkpt lat="44.78044623787542" lon="11.57602707707283"><ele>12.0</ele><time>2026-04-10T08:25:07.999Z</time></trkpt><trkpt lat="44.78026573735404" lon="11.576091392480693"><ele>11.666666666666666</ele><time>2026-04-10T08:25:08.999Z</time></trkpt><trkpt lat="44.7800834629998" lon="11.576153365630425"><ele>11.333333333333332</ele><time>2026-04-10T08:25:09.999Z</time></trkpt><trkpt lat="44.779900795697486" lon="11.576219835864231"><ele>11.0</ele><time>2026-04-10T08:25:10.999Z</time></trkpt><trkpt lat="44.77972003301996" lon="11.576285060179115"><ele>11.0</ele><time>2026-04-10T08:25:11.999Z</time></trkpt><trkpt lat="44.77954588533137" lon="11.57634737087178"><ele>11.0</ele><time>2026-04-10T08:25:12.999Z</time></trkpt><trkpt lat="44.77937470966833" lon="11.576410981051186"><ele>11.0</ele><time>2026-04-10T08:25:14Z</time></trkpt><trkpt lat="44.77920177980147" lon="11.576473579064187"><ele>11.0</ele><time>2026-04-10T08:25:15Z</time></trkpt><trkpt lat="44.77902761276991" lon="11.57653128797883"><ele>11.0</ele><time>2026-04-10T08:25:16Z</time></trkpt><trkpt lat="44.7788549847576" lon="11.57658363929011"><ele>11.0</ele><time>2026-04-10T08:25:17Z</time></trkpt><trkpt lat="44.77868259821626" lon="11.576631751237"><ele>11.333333333333332</ele><time>2026-04-10T08:25:18Z</time></trkpt><trkpt lat="44.77850663550736" lon="11.57667798091724"><ele>11.666666666666666</ele><time>2026-04-10T08:25:19Z</time></trkpt><trkpt lat="44.77832837620712" lon="11.576725982439337"><ele>12.0</ele><time>2026-04-10T08:25:20Z</time></trkpt><trkpt lat="44.778148976425776" lon="11.57677587719445"><ele>12.0</ele><time>2026-04-10T08:25:21Z</time></trkpt><trkpt lat="44.77796895819204" lon="11.576833843081523"><ele>12.0</ele><time>2026-04-10T08:25:22Z</time></trkpt><trkpt lat="44.77778749909134" lon="11.576892518058694"><ele>12.0</ele><time>2026-04-10T08:25:23Z</time></trkpt><trkpt lat="44.777604098524414" lon="11.576955932218766"><ele>11.666666666666666</ele><time>2026-04-10T08:25:24Z</time></trkpt><trkpt lat="44.777422451107206" lon="11.57702338312423"><ele>11.333333333333332</ele><time>2026-04-10T08:25:25Z</time></trkpt><trkpt lat="44.77724529068571" lon="11.577089231865367"><ele>11.0</ele><time>2026-04-10T08:25:26Z</time></trkpt><trkpt lat="44.77707629750104" lon="11.577151488006352"><ele>11.0</ele><time>2026-04-10T08:25:27Z</time></trkpt><trkpt lat="44.776907247016084" lon="11.577213003525044"><ele>11.0</ele><time>2026-04-10T08:25:28Z</time></trkpt><trkpt lat="44.776743533082936" lon="11.577273576140131"><ele>11.0</ele><time>2026-04-10T08:25:29Z</time></trkpt><trkpt lat="44.776584685436966" lon="11.577328413816497"><ele>11.333333333333332</ele><time>2026-04-10T08:25:30Z</time></trkpt><trkpt lat="44.77642775661528" lon="11.577383844058897"><ele>11.666666666666666</ele><time>2026-04-10T08:25:31Z</time></trkpt><trkpt lat="44.776278396893" lon="11.577436445910415"><ele>12.0</ele><time>2026-04-10T08:25:32Z</time></trkpt><trkpt lat="44.77613276669558" lon="11.577482290917745"><ele>11.5</ele><time>2026-04-10T08:25:33Z</time></trkpt><trkpt lat="44.77599014571689" lon="11.577525419482177"><ele>11.0</ele><time>2026-04-10T08:25:34Z</time></trkpt><trkpt lat="44.77584679550491" lon="11.577563755164988"><ele>10.5</ele><time>2026-04-10T08:25:35Z</time></trkpt><trkpt lat="44.7757109678478" lon="11.577605900246692"><ele>10.0</ele><time>2026-04-10T08:25:36Z</time></trkpt><trkpt lat="44.775574715896305" lon="11.577647958219003"><ele>10.0</ele><time>2026-04-10T08:25:37Z</time></trkpt><trkpt lat="44.77544521322247" lon="11.577684950935405"><ele>10.0</ele><time>2026-04-10T08:25:38Z</time></trkpt><trkpt lat="44.77531810128728" lon="11.57772125746818"><ele>10.0</ele><time>2026-04-10T08:25:39Z</time></trkpt><trkpt lat="44.77519684842077" lon="11.577758776822366"><ele>10.0</ele><time>2026-04-10T08:25:40Z</time></trkpt><trkpt lat="44.77507934223744" lon="11.577795058167668"><ele>10.0</ele><time>2026-04-10T08:25:41Z</time></trkpt><trkpt lat="44.77496283336556" lon="11.577829191118548"><ele>10.0</ele><time>2026-04-10T08:25:42Z</time></trkpt><trkpt lat="44.774843828295886" lon="11.577862375085793"><ele>10.0</ele><time>2026-04-10T08:25:43Z</time></trkpt><trkpt lat="44.77471916150867" lon="11.577898466958825"><ele>10.0</ele><time>2026-04-10T08:25:44Z</time></trkpt><trkpt lat="44.774589590464295" lon="11.577931355228946"><ele>9.75</ele><time>2026-04-10T08:25:45Z</time></trkpt><trkpt lat="44.774457378238395" lon="11.577966527986245"><ele>9.5</ele><time>2026-04-10T08:25:46Z</time></trkpt><trkpt lat="44.774327404164325" lon="11.578000316970545"><ele>9.25</ele><time>2026-04-10T08:25:47Z</time></trkpt><trkpt lat="44.77419794508308" lon="11.578030690607834"><ele>9.0</ele><time>2026-04-10T08:25:48Z</time></trkpt><trkpt lat="44.77407401660798" lon="11.578060503729633"><ele>9.0</ele><time>2026-04-10T08:25:49Z</time></trkpt><trkpt lat="44.77394989872819" lon="11.57809046514745"><ele>9.0</ele><time>2026-04-10T08:25:50Z</time></trkpt><trkpt lat="44.77383080016972" lon="11.578120950862813"><ele>9.0</ele><time>2026-04-10T08:25:51Z</time></trkpt><trkpt lat="44.773716902657156" lon="11.578148162570159"><ele>9.0</ele><time>2026-04-10T08:25:52Z</time></trkpt><trkpt lat="44.77361396410977" lon="11.57817074004346"><ele>9.5</ele><time>2026-04-10T08:25:53Z</time></trkpt><trkpt lat="44.773521815916986" lon="11.578192788903142"><ele>10.0</ele><time>2026-04-10T08:25:54Z</time></trkpt><trkpt lat="44.773432747793194" lon="11.578210819535377"><ele>10.5</ele><time>2026-04-10T08:25:55Z</time></trkpt><trkpt lat="44.77335039848286" lon="11.578232766689338"><ele>11.0</ele><time>2026-04-10T08:25:56Z</time></trkpt><trkpt lat="44.7732696241925" lon="11.578251648081014"><ele>11.5</ele><time>2026-04-10T08:25:57Z</time></trkpt><trkpt lat="44.77319673497645" lon="11.578268831587021"><ele>12.0</ele><time>2026-04-10T08:25:58Z</time></trkpt><trkpt lat="44.77312673231756" lon="11.578284385047557"><ele>12.0</ele><time>2026-04-10T08:25:59Z</time></trkpt><trkpt lat="44.773043442068236" lon="11.57830765138527"><ele>12.0</ele><time>2026-04-10T08:26:00Z</time></trkpt><trkpt lat="44.77292057474536" lon="11.578329140267515"><ele>12.0</ele><time>2026-04-10T08:26:01Z</time></trkpt><trkpt lat="44.77280367482259" lon="11.578353228878601"><ele>12.0</ele><time>2026-04-10T08:26:02Z</time></trkpt><trkpt lat="44.772691337554996" lon="11.578376594149695"><ele>12.0</ele><time>2026-04-10T08:26:03Z</time></trkpt><trkpt lat="44.7725715596094" lon="11.578400144428807"><ele>11.75</ele><time>2026-04-10T08:26:04Z</time></trkpt><trkpt lat="44.77245054272831" lon="11.578424272965334"><ele>11.5</ele><time>2026-04-10T08:26:05Z</time></trkpt><trkpt lat="44.772325930615764" lon="11.578452208848436"><ele>11.25</ele><time>2026-04-10T08:26:06Z</time></trkpt><trkpt lat="44.7721939504619" lon="11.578480832122754"><ele>11.0</ele><time>2026-04-10T08:26:07Z</time></trkpt><trkpt lat="44.772055784126294" lon="11.578508515100442"><ele>11.0</ele><time>2026-04-10T08:26:08Z</time></trkpt><trkpt lat="44.77190895211533" lon="11.578533809897223"><ele>11.0</ele><time>2026-04-10T08:26:09Z</time></trkpt><trkpt lat="44.77175333890565" lon="11.578559867136873"><ele>11.0</ele><time>2026-04-10T08:26:10Z</time></trkpt><trkpt lat="44.771593527677645" lon="11.578587244699257"><ele>11.666666666666666</ele><time>2026-04-10T08:26:11Z</time></trkpt><trkpt lat="44.771428847910464" lon="11.578615332345885"><ele>12.333333333333332</ele><time>2026-04-10T08:26:12Z</time></trkpt><trkpt lat="44.77125752398262" lon="11.57863679984983"><ele>13.0</ele><time>2026-04-10T08:26:13Z</time></trkpt><trkpt lat="44.77108457989015" lon="11.578653543661268"><ele>13.0</ele><time>2026-04-10T08:26:14Z</time></trkpt><trkpt lat="44.77090922403278" lon="11.57867173492801"><ele>13.0</ele><time>2026-04-10T08:26:15Z</time></trkpt><trkpt lat="44.77073117512187" lon="11.578687513782077"><ele>13.0</ele><time>2026-04-10T08:26:16Z</time></trkpt><trkpt lat="44.770546476141746" lon="11.578700326043359"><ele>12.333333333333332</ele><time>2026-04-10T08:26:17Z</time></trkpt><trkpt lat="44.770356812668275" lon="11.578708861019585"><ele>11.666666666666666</ele><time>2026-04-10T08:26:18Z</time></trkpt><trkpt lat="44.770163080609684" lon="11.578713909427359"><ele>11.0</ele><time>2026-04-10T08:26:19Z</time></trkpt><trkpt lat="44.7699697172022" lon="11.578716460504026"><ele>11.0</ele><time>2026-04-10T08:26:20Z</time></trkpt><trkpt lat="44.76977436733386" lon="11.578713365018537"><ele>11.0</ele><time>2026-04-10T08:26:21Z</time></trkpt><trkpt lat="44.769589412554915" lon="11.57871113742983"><ele>11.0</ele><time>2026-04-10T08:26:22Z</time></trkpt><trkpt lat="44.769407480970166" lon="11.57870490285944"><ele>10.666666666666666</ele><time>2026-04-10T08:26:23Z</time></trkpt><trkpt lat="44.76923572286053" lon="11.578696794937501"><ele>10.333333333333334</ele><time>2026-04-10T08:26:24Z</time></trkpt><trkpt lat="44.769066975506234" lon="11.57868358682638"><ele>10.0</ele><time>2026-04-10T08:26:25Z</time></trkpt><trkpt lat="44.76890143435518" lon="11.57866422790547"><ele>10.0</ele><time>2026-04-10T08:26:26Z</time></trkpt><trkpt lat="44.76873739977006" lon="11.578644808149093"><ele>10.0</ele><time>2026-04-10T08:26:27Z</time></trkpt><trkpt lat="44.76857060175162" lon="11.578630053354265"><ele>10.0</ele><time>2026-04-10T08:26:28Z</time></trkpt><trkpt lat="44.768402406299735" lon="11.578619513663817"><ele>10.0</ele><time>2026-04-10T08:26:29Z</time></trkpt><trkpt lat="44.76823058781665" lon="11.578612622930763"><ele>10.0</ele><time>2026-04-10T08:26:30Z</time></trkpt><trkpt lat="44.76806575958291" lon="11.578614867704704"><ele>10.0</ele><time>2026-04-10T08:26:31Z</time></trkpt><trkpt lat="44.76790619652228" lon="11.578618261289598"><ele>10.0</ele><time>2026-04-10T08:26:32Z</time></trkpt><trkpt lat="44.76774917919784" lon="11.57862443805704"><ele>10.0</ele><time>2026-04-10T08:26:33Z</time></trkpt><trkpt lat="44.76759180711749" lon="11.5786379477344"><ele>10.0</ele><time>2026-04-10T08:26:34Z</time></trkpt><trkpt lat="44.767429572830814" lon="11.578653269384668"><ele>10.0</ele><time>2026-04-10T08:26:35Z</time></trkpt><trkpt lat="44.7672652192139" lon="11.578667120608928"><ele>10.0</ele><time>2026-04-10T08:26:36Z</time></trkpt><trkpt lat="44.767108474284406" lon="11.578675887097088"><ele>10.0</ele><time>2026-04-10T08:26:37Z</time></trkpt><trkpt lat="44.7669759578072" lon="11.578678049465193"><ele>10.0</ele><time>2026-04-10T08:26:38Z</time></trkpt><trkpt lat="44.76686138541319" lon="11.57868199762038"><ele>10.0</ele><time>2026-04-10T08:26:39Z</time></trkpt><trkpt lat="44.766764422237245" lon="11.578681037486303"><ele>10.0</ele><time>2026-04-10T08:26:40Z</time></trkpt><trkpt lat="44.76666870949486" lon="11.578677494186893"><ele>10.0</ele><time>2026-04-10T08:26:41Z</time></trkpt><trkpt lat="44.766576805901174" lon="11.578674278776226"><ele>10.0</ele><time>2026-04-10T08:26:42Z</time></trkpt><trkpt lat="44.766485943380935" lon="11.57867199707522"><ele>9.75</ele><time>2026-04-10T08:26:43Z</time></trkpt><trkpt lat="44.766389037377266" lon="11.578667932949038"><ele>9.5</ele><time>2026-04-10T08:26:44Z</time></trkpt><trkpt lat="44.766282256890605" lon="11.578651092368231"><ele>9.25</ele><time>2026-04-10T08:26:45Z</time></trkpt><trkpt lat="44.76616445559034" lon="11.578627338794306"><ele>9.0</ele><time>2026-04-10T08:26:46Z</time></trkpt><trkpt lat="44.76603473420552" lon="11.578593297465082"><ele>9.5</ele><time>2026-04-10T08:26:47Z</time></trkpt><trkpt lat="44.7658975693911" lon="11.578551672077733"><ele>10.0</ele><time>2026-04-10T08:26:48Z</time></trkpt><trkpt lat="44.765754418021665" lon="11.578502932908881"><ele>10.5</ele><time>2026-04-10T08:26:49Z</time></trkpt><trkpt lat="44.7656055660961" lon="11.578437296594304"><ele>11.0</ele><time>2026-04-10T08:26:50Z</time></trkpt><trkpt lat="44.76545493436921" lon="11.578347092284758"><ele>11.0</ele><time>2026-04-10T08:26:51Z</time></trkpt><trkpt lat="44.7653126042782" lon="11.578223661293734"><ele>11.0</ele><time>2026-04-10T08:26:52Z</time></trkpt><trkpt lat="44.76518161933758" lon="11.578059236173942"><ele>11.0</ele><time>2026-04-10T08:26:53Z</time></trkpt><trkpt lat="44.76504744154649" lon="11.577891928919579"><ele>10.666666666666666</ele><time>2026-04-10T08:26:54Z</time></trkpt><trkpt lat="44.764910947225" lon="11.57772478600764"><ele>10.333333333333334</ele><time>2026-04-10T08:26:55Z</time></trkpt><trkpt lat="44.764770379321725" lon="11.577573909262192"><ele>10.0</ele><time>2026-04-10T08:26:56Z</time></trkpt><trkpt lat="44.76462506035475" lon="11.577432385237898"><ele>10.0</ele><time>2026-04-10T08:26:57Z</time></trkpt><trkpt lat="44.76447250635994" lon="11.577298368131753"><ele>10.0</ele><time>2026-04-10T08:26:58Z</time></trkpt><trkpt lat="44.764316724851085" lon="11.57717293981889"><ele>10.0</ele><time>2026-04-10T08:26:59Z</time></trkpt><trkpt lat="44.76416142926927" lon="11.577049304588659"><ele>10.333333333333334</ele><time>2026-04-10T08:27:00Z</time></trkpt><trkpt lat="44.76400946290798" lon="11.57692518517299"><ele>10.666666666666666</ele><time>2026-04-10T08:27:01Z</time></trkpt><trkpt lat="44.763854603165605" lon="11.576814885914889"><ele>11.0</ele><time>2026-04-10T08:27:01.999Z</time></trkpt><trkpt lat="44.76368431501462" lon="11.576749089011669"><ele>11.0</ele><time>2026-04-10T08:27:02.999Z</time></trkpt><trkpt lat="44.7635047025056" lon="11.576709594983042"><ele>11.0</ele><time>2026-04-10T08:27:03.999Z</time></trkpt><trkpt lat="44.76332832253454" lon="11.576682294843431"><ele>11.0</ele><time>2026-04-10T08:27:04.999Z</time></trkpt><trkpt lat="44.763156951446064" lon="11.576652507762676"><ele>11.0</ele><time>2026-04-10T08:27:05.999Z</time></trkpt><trkpt lat="44.76298860328841" lon="11.576572615632886"><ele>11.0</ele><time>2026-04-10T08:27:06.999Z</time></trkpt><trkpt lat="44.76283141253694" lon="11.576469144097253"><ele>11.0</ele><time>2026-04-10T08:27:07.999Z</time></trkpt><trkpt lat="44.762679807780714" lon="11.576354195868793"><ele>10.666666666666666</ele><time>2026-04-10T08:27:08.999Z</time></trkpt><trkpt lat="44.762535032566866" lon="11.576218534726152"><ele>10.333333333333334</ele><time>2026-04-10T08:27:09.999Z</time></trkpt><trkpt lat="44.76238013040128" lon="11.576103080723621"><ele>10.0</ele><time>2026-04-10T08:27:10.999Z</time></trkpt><trkpt lat="44.76221644079495" lon="11.576008296754688"><ele>10.0</ele><time>2026-04-10T08:27:11.999Z</time></trkpt><trkpt lat="44.762044686875676" lon="11.575931913879005"><ele>10.0</ele><time>2026-04-10T08:27:13Z</time></trkpt><trkpt lat="44.76186472906841" lon="11.57587656576216"><ele>10.0</ele><time>2026-04-10T08:27:14Z</time></trkpt><trkpt lat="44.76167694710076" lon="11.575840149595312"><ele>10.0</ele><time>2026-04-10T08:27:15Z</time></trkpt><trkpt lat="44.76148839569605" lon="11.575816518516755"><ele>10.0</ele><time>2026-04-10T08:27:16Z</time></trkpt><trkpt lat="44.76130057392537" lon="11.575790658102024"><ele>10.0</ele><time>2026-04-10T08:27:17Z</time></trkpt><trkpt lat="44.76111458476375" lon="11.575744586215032"><ele>9.666666666666668</ele><time>2026-04-10T08:27:18Z</time></trkpt><trkpt lat="44.760925872900586" lon="11.575686079310413"><ele>9.333333333333334</ele><time>2026-04-10T08:27:19Z</time></trkpt><trkpt lat="44.760735731348284" lon="11.575620519490055"><ele>9.0</ele><time>2026-04-10T08:27:20Z</time></trkpt><trkpt lat="44.76054325325539" lon="11.57555367946502"><ele>9.0</ele><time>2026-04-10T08:27:21Z</time></trkpt><trkpt lat="44.7603540273762" lon="11.575490146156348"><ele>9.0</ele><time>2026-04-10T08:27:22Z</time></trkpt><trkpt lat="44.76016495288106" lon="11.575453252511892"><ele>9.0</ele><time>2026-04-10T08:27:23Z</time></trkpt><trkpt lat="44.75997607971314" lon="11.575459748789278"><ele>9.666666666666666</ele><time>2026-04-10T08:27:24Z</time></trkpt><trkpt lat="44.75978877440123" lon="11.575480253918602"><ele>10.333333333333332</ele><time>2026-04-10T08:27:25Z</time></trkpt><trkpt lat="44.75960186421258" lon="11.575474663235687"><ele>11.0</ele><time>2026-04-10T08:27:26Z</time></trkpt><trkpt lat="44.7594195135437" lon="11.575446581894283"><ele>11.0</ele><time>2026-04-10T08:27:27Z</time></trkpt><trkpt lat="44.7592406408815" lon="11.575407062225523"><ele>11.0</ele><time>2026-04-10T08:27:28Z</time></trkpt><trkpt lat="44.75906398247372" lon="11.575364477802683"><ele>11.0</ele><time>2026-04-10T08:27:29Z</time></trkpt><trkpt lat="44.75888476688879" lon="11.575320755671916"><ele>11.0</ele><time>2026-04-10T08:27:30Z</time></trkpt><trkpt lat="44.75870320656993" lon="11.575281466617081"><ele>11.0</ele><time>2026-04-10T08:27:31Z</time></trkpt><trkpt lat="44.7585219436036" lon="11.5752506022651"><ele>11.0</ele><time>2026-04-10T08:27:32Z</time></trkpt><trkpt lat="44.758343915218745" lon="11.575231598563205"><ele>11.333333333333332</ele><time>2026-04-10T08:27:33Z</time></trkpt><trkpt lat="44.75816659887349" lon="11.575222658963973"><ele>11.666666666666666</ele><time>2026-04-10T08:27:34Z</time></trkpt><trkpt lat="44.75798936552208" lon="11.575225754084386"><ele>12.0</ele><time>2026-04-10T08:27:35Z</time></trkpt><trkpt lat="44.75781379605227" lon="11.575240218961252"><ele>11.666666666666666</ele><time>2026-04-10T08:27:36Z</time></trkpt><trkpt lat="44.757640929283" lon="11.575259173304444"><ele>11.333333333333332</ele><time>2026-04-10T08:27:37Z</time></trkpt><trkpt lat="44.757470440633554" lon="11.57527672165021"><ele>11.0</ele><time>2026-04-10T08:27:38Z</time></trkpt><trkpt lat="44.75730125731845" lon="11.575290074620838"><ele>11.0</ele><time>2026-04-10T08:27:39Z</time></trkpt><trkpt lat="44.757139351108705" lon="11.575300269106814"><ele>11.0</ele><time>2026-04-10T08:27:40Z</time></trkpt><trkpt lat="44.75698509284581" lon="11.575309835729664"><ele>11.0</ele><time>2026-04-10T08:27:41Z</time></trkpt><trkpt lat="44.75683402211362" lon="11.575318496653415"><ele>10.75</ele><time>2026-04-10T08:27:42Z</time></trkpt><trkpt lat="44.7566871749585" lon="11.575325621325558"><ele>10.5</ele><time>2026-04-10T08:27:43Z</time></trkpt><trkpt lat="44.75654351756571" lon="11.57533027801264"><ele>10.25</ele><time>2026-04-10T08:27:44Z</time></trkpt><trkpt lat="44.756396611190354" lon="11.575329395492057"><ele>10.0</ele><time>2026-04-10T08:27:45Z</time></trkpt><trkpt lat="44.75624995746133" lon="11.57531841428684"><ele>10.0</ele><time>2026-04-10T08:27:46Z</time></trkpt><trkpt lat="44.75610364037151" lon="11.57529742889248"><ele>10.0</ele><time>2026-04-10T08:27:47Z</time></trkpt><trkpt lat="44.755954067883735" lon="11.57526686003668"><ele>10.0</ele><time>2026-04-10T08:27:48Z</time></trkpt><trkpt lat="44.75579288469266" lon="11.575232788598877"><ele>10.666666666666668</ele><time>2026-04-10T08:27:49Z</time></trkpt><trkpt lat="44.75563009713268" lon="11.575197272796743"><ele>11.333333333333334</ele><time>2026-04-10T08:27:50Z</time></trkpt><trkpt lat="44.755469455537614" lon="11.575159400072026"><ele>12.0</ele><time>2026-04-10T08:27:51Z</time></trkpt><trkpt lat="44.7553081415511" lon="11.575119512613743"><ele>11.666666666666666</ele><time>2026-04-10T08:27:52Z</time></trkpt><trkpt lat="44.755146729580915" lon="11.575078595045614"><ele>11.333333333333332</ele><time>2026-04-10T08:27:53Z</time></trkpt><trkpt lat="44.754980390172584" lon="11.575046435550167"><ele>11.0</ele><time>2026-04-10T08:27:54Z</time></trkpt><trkpt lat="44.75481883095652" lon="11.575024317878428"><ele>11.0</ele><time>2026-04-10T08:27:55Z</time></trkpt><trkpt lat="44.7546563504452" lon="11.575016756272994"><ele>11.0</ele><time>2026-04-10T08:27:56Z</time></trkpt><trkpt lat="44.75449390885492" lon="11.57502005144044"><ele>11.0</ele><time>2026-04-10T08:27:57Z</time></trkpt><trkpt lat="44.75432901841143" lon="11.575021811181653"><ele>11.0</ele><time>2026-04-10T08:27:58Z</time></trkpt><trkpt lat="44.754162494237576" lon="11.575026531413123"><ele>11.0</ele><time>2026-04-10T08:27:59Z</time></trkpt><trkpt lat="44.75399253856891" lon="11.575030173421402"><ele>11.0</ele><time>2026-04-10T08:28:00Z</time></trkpt><trkpt lat="44.753815868405326" lon="11.575029550643023"><ele>11.0</ele><time>2026-04-10T08:28:01Z</time></trkpt><trkpt lat="44.75364361026387" lon="11.575025129093959"><ele>11.0</ele><time>2026-04-10T08:28:02Z</time></trkpt><trkpt lat="44.753454942534006" lon="11.575057576837024"><ele>11.0</ele><time>2026-04-10T08:28:03Z</time></trkpt><trkpt lat="44.75328044166177" lon="11.575104173393061"><ele>11.0</ele><time>2026-04-10T08:28:04Z</time></trkpt><trkpt lat="44.753108596257405" lon="11.575168111567171"><ele>11.0</ele><time>2026-04-10T08:28:05Z</time></trkpt><trkpt lat="44.7529410370314" lon="11.575237924856411"><ele>11.0</ele><time>2026-04-10T08:28:06Z</time></trkpt><trkpt lat="44.752778822697195" lon="11.575317440892931"><ele>10.666666666666666</ele><time>2026-04-10T08:28:07Z</time></trkpt><trkpt lat="44.752616529330794" lon="11.575409124706027"><ele>10.333333333333334</ele><time>2026-04-10T08:28:08Z</time></trkpt><trkpt lat="44.75245560825157" lon="11.57550970360221"><ele>10.0</ele><time>2026-04-10T08:28:09Z</time></trkpt><trkpt lat="44.75229476564503" lon="11.57561485811862"><ele>10.0</ele><time>2026-04-10T08:28:10Z</time></trkpt><trkpt lat="44.752134037594665" lon="11.575726092103542"><ele>10.0</ele><time>2026-04-10T08:28:11Z</time></trkpt><trkpt lat="44.75197287827145" lon="11.575828402268865"><ele>10.0</ele><time>2026-04-10T08:28:12Z</time></trkpt><trkpt lat="44.75181037539928" lon="11.575922819150383"><ele>10.0</ele><time>2026-04-10T08:28:13Z</time></trkpt><trkpt lat="44.75164130405165" lon="11.576009959814828"><ele>10.0</ele><time>2026-04-10T08:28:14Z</time></trkpt><trkpt lat="44.75146655457727" lon="11.57608051806974"><ele>10.0</ele><time>2026-04-10T08:28:15Z</time></trkpt><trkpt lat="44.75128468832165" lon="11.576114355200943"><ele>10.0</ele><time>2026-04-10T08:28:16Z</time></trkpt><trkpt lat="44.75110113212697" lon="11.576120883204263"><ele>10.0</ele><time>2026-04-10T08:28:17Z</time></trkpt><trkpt lat="44.75091504364865" lon="11.576091160684385"><ele>10.0</ele><time>2026-04-10T08:28:18Z</time></trkpt><trkpt lat="44.75072901264323" lon="11.576035238123492"><ele>10.0</ele><time>2026-04-10T08:28:19Z</time></trkpt><trkpt lat="44.75054247016941" lon="11.575960073924955"><ele>10.0</ele><time>2026-04-10T08:28:20Z</time></trkpt><trkpt lat="44.75035621681306" lon="11.575872365485127"><ele>10.0</ele><time>2026-04-10T08:28:21Z</time></trkpt><trkpt lat="44.75017024429155" lon="11.575779503668699"><ele>10.0</ele><time>2026-04-10T08:28:22Z</time></trkpt><trkpt lat="44.74998191583727" lon="11.575690188792676"><ele>10.0</ele><time>2026-04-10T08:28:23Z</time></trkpt><trkpt lat="44.74979283870654" lon="11.575604489777561"><ele>10.0</ele><time>2026-04-10T08:28:24Z</time></trkpt><trkpt lat="44.749602135458424" lon="11.575519376583708"><ele>10.0</ele><time>2026-04-10T08:28:25Z</time></trkpt><trkpt lat="44.7494098989357" lon="11.575437422955714"><ele>10.0</ele><time>2026-04-10T08:28:26Z</time></trkpt><trkpt lat="44.749219950329476" lon="11.57535638453413"><ele>10.0</ele><time>2026-04-10T08:28:27Z</time></trkpt><trkpt lat="44.74903072596066" lon="11.575273940621772"><ele>10.0</ele><time>2026-04-10T08:28:28Z</time></trkpt><trkpt lat="44.74884036998053" lon="11.575191941837911"><ele>10.0</ele><time>2026-04-10T08:28:29Z</time></trkpt><trkpt lat="44.74864970778783" lon="11.575109568258428"><ele>10.0</ele><time>2026-04-10T08:28:30Z</time></trkpt><trkpt lat="44.748458139928395" lon="11.57502288370228"><ele>10.0</ele><time>2026-04-10T08:28:31Z</time></trkpt><trkpt lat="44.74826699481688" lon="11.574926833865801"><ele>10.0</ele><time>2026-04-10T08:28:32Z</time></trkpt><trkpt lat="44.74807847752748" lon="11.574825280392826"><ele>10.0</ele><time>2026-04-10T08:28:33Z</time></trkpt><trkpt lat="44.747894666537185" lon="11.574716689596613"><ele>10.0</ele><time>2026-04-10T08:28:34Z</time></trkpt><trkpt lat="44.74771684557242" lon="11.574606041324177"><ele>10.0</ele><time>2026-04-10T08:28:35Z</time></trkpt><trkpt lat="44.74754434874371" lon="11.574492629801167"><ele>10.0</ele><time>2026-04-10T08:28:36Z</time></trkpt><trkpt lat="44.747375028585054" lon="11.574364314183942"><ele>10.0</ele><time>2026-04-10T08:28:37Z</time></trkpt><trkpt lat="44.747206036502725" lon="11.574226855074246"><ele>10.0</ele><time>2026-04-10T08:28:38Z</time></trkpt><trkpt lat="44.747033613974146" lon="11.57408674523579"><ele>10.0</ele><time>2026-04-10T08:28:39Z</time></trkpt><trkpt lat="44.74686151761541" lon="11.573964603596023"><ele>10.0</ele><time>2026-04-10T08:28:40Z</time></trkpt><trkpt lat="44.7466948369044" lon="11.573867093234352"><ele>10.0</ele><time>2026-04-10T08:28:41Z</time></trkpt><trkpt lat="44.746528050624654" lon="11.573784862232845"><ele>10.0</ele><time>2026-04-10T08:28:42Z</time></trkpt><trkpt lat="44.74635638304302" lon="11.573711432984958"><ele>9.666666666666668</ele><time>2026-04-10T08:28:43Z</time></trkpt><trkpt lat="44.74617779707564" lon="11.573642923486576"><ele>9.333333333333334</ele><time>2026-04-10T08:28:44Z</time></trkpt><trkpt lat="44.745991364524485" lon="11.573581240578266"><ele>9.0</ele><time>2026-04-10T08:28:45Z</time></trkpt><trkpt lat="44.74579649541385" lon="11.573532852410073"><ele>9.0</ele><time>2026-04-10T08:28:46Z</time></trkpt><trkpt lat="44.74559955637512" lon="11.57349671453122"><ele>9.0</ele><time>2026-04-10T08:28:47Z</time></trkpt><trkpt lat="44.74541225045875" lon="11.573471056935611"><ele>9.0</ele><time>2026-04-10T08:28:48Z</time></trkpt><trkpt lat="44.745235121023356" lon="11.57344879165498"><ele>9.333333333333334</ele><time>2026-04-10T08:28:49Z</time></trkpt><trkpt lat="44.74505598238338" lon="11.57342623113965"><ele>9.666666666666668</ele><time>2026-04-10T08:28:50Z</time></trkpt><trkpt lat="44.744874354823885" lon="11.573407419941796"><ele>10.0</ele><time>2026-04-10T08:28:51Z</time></trkpt><trkpt lat="44.744689722905676" lon="11.573394773299748"><ele>10.0</ele><time>2026-04-10T08:28:52Z</time></trkpt><trkpt lat="44.74450260109735" lon="11.57337211463082"><ele>10.0</ele><time>2026-04-10T08:28:53Z</time></trkpt><trkpt lat="44.744320898026444" lon="11.573322212385026"><ele>10.0</ele><time>2026-04-10T08:28:54Z</time></trkpt><trkpt lat="44.74415184575408" lon="11.573242101035422"><ele>10.0</ele><time>2026-04-10T08:28:55Z</time></trkpt><trkpt lat="44.74399130939786" lon="11.573129887964354"><ele>10.0</ele><time>2026-04-10T08:28:56Z</time></trkpt><trkpt lat="44.74385189830611" lon="11.572971231940516"><ele>10.0</ele><time>2026-04-10T08:28:57Z</time></trkpt><trkpt lat="44.7437122363824" lon="11.572812403663628"><ele>10.0</ele><time>2026-04-10T08:28:58Z</time></trkpt><trkpt lat="44.74358038873893" lon="11.572637077223263"><ele>10.0</ele><time>2026-04-10T08:28:59Z</time></trkpt><trkpt lat="44.74345098362951" lon="11.572454227024444"><ele>10.0</ele><time>2026-04-10T08:29:00Z</time></trkpt><trkpt lat="44.7433092755382" lon="11.572283228823878"><ele>9.666666666666668</ele><time>2026-04-10T08:29:01Z</time></trkpt><trkpt lat="44.74317722540815" lon="11.572094649976085"><ele>9.333333333333334</ele><time>2026-04-10T08:29:02Z</time></trkpt><trkpt lat="44.74304248847524" lon="11.571903464831543"><ele>9.0</ele><time>2026-04-10T08:29:03Z</time></trkpt><trkpt lat="44.74290691280598" lon="11.571711730626653"><ele>8.666666666666666</ele><time>2026-04-10T08:29:04Z</time></trkpt><trkpt lat="44.7427684275599" lon="11.571515654004243"><ele>8.333333333333332</ele><time>2026-04-10T08:29:05Z</time></trkpt><trkpt lat="44.7426286373449" lon="11.57131804402682"><ele>8.0</ele><time>2026-04-10T08:29:06Z</time></trkpt><trkpt lat="44.74248731552512" lon="11.571119165381845"><ele>8.666666666666666</ele><time>2026-04-10T08:29:07Z</time></trkpt><trkpt lat="44.742338960585116" lon="11.57092240285786"><ele>9.333333333333334</ele><time>2026-04-10T08:29:08Z</time></trkpt><trkpt lat="44.74220188770777" lon="11.570710131639693"><ele>10.0</ele><time>2026-04-10T08:29:09Z</time></trkpt><trkpt lat="44.74204402794213" lon="11.570539302979476"><ele>10.0</ele><time>2026-04-10T08:29:10Z</time></trkpt><trkpt lat="44.74191088961212" lon="11.570354761159253"><ele>10.0</ele><time>2026-04-10T08:29:11Z</time></trkpt><trkpt lat="44.74177991962356" lon="11.570169139844548"><ele>10.0</ele><time>2026-04-10T08:29:12Z</time></trkpt><trkpt lat="44.74164991559521" lon="11.56998464842937"><ele>9.333333333333334</ele><time>2026-04-10T08:29:13Z</time></trkpt><trkpt lat="44.74152038740668" lon="11.5697958591004"><ele>8.666666666666666</ele><time>2026-04-10T08:29:14Z</time></trkpt><trkpt lat="44.74139104079491" lon="11.569598701346262"><ele>8.0</ele><time>2026-04-10T08:29:15Z</time></trkpt><trkpt lat="44.74126397634273" lon="11.569396187444934"><ele>8.0</ele><time>2026-04-10T08:29:16Z</time></trkpt><trkpt lat="44.74113348248075" lon="11.569191982132633"><ele>8.0</ele><time>2026-04-10T08:29:17Z</time></trkpt><trkpt lat="44.74100104244462" lon="11.568988296716906"><ele>8.0</ele><time>2026-04-10T08:29:18Z</time></trkpt><trkpt lat="44.7408629923313" lon="11.56878183192218"><ele>8.333333333333332</ele><time>2026-04-10T08:29:19Z</time></trkpt><trkpt lat="44.74072625954026" lon="11.568577719855009"><ele>8.666666666666666</ele><time>2026-04-10T08:29:20Z</time></trkpt><trkpt lat="44.740597115129894" lon="11.568384566251673"><ele>9.0</ele><time>2026-04-10T08:29:21Z</time></trkpt><trkpt lat="44.74046852462008" lon="11.56819415392984"><ele>9.0</ele><time>2026-04-10T08:29:22Z</time></trkpt><trkpt lat="44.74034365888022" lon="11.568008923118217"><ele>9.0</ele><time>2026-04-10T08:29:23Z</time></trkpt><trkpt lat="44.74021838391868" lon="11.567821927174482"><ele>9.0</ele><time>2026-04-10T08:29:24Z</time></trkpt><trkpt lat="44.74009961313201" lon="11.567641556911822"><ele>9.0</ele><time>2026-04-10T08:29:25Z</time></trkpt><trkpt lat="44.739983344562205" lon="11.567463568409082"><ele>9.0</ele><time>2026-04-10T08:29:26Z</time></trkpt><trkpt lat="44.739868011724106" lon="11.567291668735002"><ele>9.0</ele><time>2026-04-10T08:29:27Z</time></trkpt><trkpt lat="44.73975641179612" lon="11.567126602390521"><ele>8.666666666666666</ele><time>2026-04-10T08:29:28Z</time></trkpt><trkpt lat="44.73965071815668" lon="11.56696471931341"><ele>8.333333333333332</ele><time>2026-04-10T08:29:29Z</time></trkpt><trkpt lat="44.73954989517507" lon="11.56679551604278"><ele>8.0</ele><time>2026-04-10T08:29:30Z</time></trkpt><trkpt lat="44.739456885010625" lon="11.566610962631353"><ele>8.0</ele><time>2026-04-10T08:29:31Z</time></trkpt><trkpt lat="44.73937802893096" lon="11.566398295969003"><ele>8.0</ele><time>2026-04-10T08:29:32Z</time></trkpt><trkpt lat="44.739337396652616" lon="11.566177936557287"><ele>8.0</ele><time>2026-04-10T08:29:33Z</time></trkpt><trkpt lat="44.73927772021673" lon="11.565968810877393"><ele>8.25</ele><time>2026-04-10T08:29:34Z</time></trkpt><trkpt lat="44.73923852292668" lon="11.565762160094902"><ele>8.5</ele><time>2026-04-10T08:29:35Z</time></trkpt><trkpt lat="44.73920305196388" lon="11.565580332922886"><ele>8.75</ele><time>2026-04-10T08:29:36Z</time></trkpt><trkpt lat="44.73917171326981" lon="11.565432238209468"><ele>9.0</ele><time>2026-04-10T08:29:37Z</time></trkpt><trkpt lat="44.73914612663806" lon="11.56531505777597"><ele>9.25</ele><time>2026-04-10T08:29:38Z</time></trkpt><trkpt lat="44.73912859341175" lon="11.565228428867952"><ele>9.5</ele><time>2026-04-10T08:29:39Z</time></trkpt><trkpt lat="44.73911066813586" lon="11.56508393077434"><ele>9.75</ele><time>2026-04-10T08:29:41Z</time></trkpt><trkpt lat="44.738874778563144" lon="11.565152452149523"><ele>10.0</ele><time>2026-04-10T08:29:44Z</time></trkpt><trkpt lat="44.73879835032028" lon="11.565269097120828"><ele>10.0</ele><time>2026-04-10T08:29:45Z</time></trkpt><trkpt lat="44.738717248165976" lon="11.565407118024607"><ele>10.0</ele><time>2026-04-10T08:29:46Z</time></trkpt><trkpt lat="44.73861827004624" lon="11.565540877123084"><ele>10.0</ele><time>2026-04-10T08:29:47Z</time></trkpt><trkpt lat="44.738497477070375" lon="11.565663609640817"><ele>10.0</ele><time>2026-04-10T08:29:48Z</time></trkpt><trkpt lat="44.738371962907415" lon="11.565798101875483"><ele>10.0</ele><time>2026-04-10T08:29:49Z</time></trkpt><trkpt lat="44.73824061120045" lon="11.565936392087997"><ele>10.0</ele><time>2026-04-10T08:29:50Z</time></trkpt><trkpt lat="44.738098838382065" lon="11.566087139382912"><ele>10.0</ele><time>2026-04-10T08:29:51Z</time></trkpt><trkpt lat="44.73795348477638" lon="11.56624352008345"><ele>10.0</ele><time>2026-04-10T08:29:52Z</time></trkpt><trkpt lat="44.73780904548405" lon="11.566394151013203"><ele>10.0</ele><time>2026-04-10T08:29:53Z</time></trkpt><trkpt lat="44.737671765146985" lon="11.566537745032914"><ele>10.0</ele><time>2026-04-10T08:29:54Z</time></trkpt><trkpt lat="44.73754204537507" lon="11.566673715871216"><ele>10.0</ele><time>2026-04-10T08:29:55Z</time></trkpt><trkpt lat="44.73742045737887" lon="11.566807439945103"><ele>10.0</ele><time>2026-04-10T08:29:56Z</time></trkpt><trkpt lat="44.73730139408014" lon="11.566940461447215"><ele>10.0</ele><time>2026-04-10T08:29:57Z</time></trkpt><trkpt lat="44.73718511774076" lon="11.56706434695708"><ele>10.2</ele><time>2026-04-10T08:29:58Z</time></trkpt><trkpt lat="44.737089364720866" lon="11.56716764729806"><ele>10.4</ele><time>2026-04-10T08:29:59Z</time></trkpt><trkpt lat="44.73700368328284" lon="11.567262681661383"><ele>10.600000000000001</ele><time>2026-04-10T08:30:00Z</time></trkpt><trkpt lat="44.73691835418899" lon="11.567361357911585"><ele>10.8</ele><time>2026-04-10T08:30:01Z</time></trkpt><trkpt lat="44.73683471252094" lon="11.567460522896269"><ele>11.0</ele><time>2026-04-10T08:30:02Z</time></trkpt><trkpt lat="44.736749926355856" lon="11.56755810806854"><ele>11.0</ele><time>2026-04-10T08:30:03Z</time></trkpt><trkpt lat="44.73665926381186" lon="11.567656979124742"><ele>11.0</ele><time>2026-04-10T08:30:04Z</time></trkpt><trkpt lat="44.736560249168036" lon="11.567765828237139"><ele>11.0</ele><time>2026-04-10T08:30:05Z</time></trkpt><trkpt lat="44.73645381594214" lon="11.567883295480305"><ele>11.0</ele><time>2026-04-10T08:30:06Z</time></trkpt><trkpt lat="44.73635554009361" lon="11.56799616393494"><ele>11.0</ele><time>2026-04-10T08:30:07Z</time></trkpt><trkpt lat="44.736260369553975" lon="11.568103399453436"><ele>11.0</ele><time>2026-04-10T08:30:08Z</time></trkpt><trkpt lat="44.73617059241704" lon="11.5682000990258"><ele>11.0</ele><time>2026-04-10T08:30:09Z</time></trkpt><trkpt lat="44.73608139376509" lon="11.568291369680395"><ele>11.0</ele><time>2026-04-10T08:30:10Z</time></trkpt><trkpt lat="44.735991723338316" lon="11.56838547274782"><ele>11.0</ele><time>2026-04-10T08:30:11Z</time></trkpt><trkpt lat="44.73589147937518" lon="11.568490675966796"><ele>11.0</ele><time>2026-04-10T08:30:12Z</time></trkpt><trkpt lat="44.73578433255455" lon="11.568607629181267"><ele>11.0</ele><time>2026-04-10T08:30:13Z</time></trkpt><trkpt lat="44.73567114074347" lon="11.568733801714783"><ele>11.0</ele><time>2026-04-10T08:30:14Z</time></trkpt><trkpt lat="44.73554809332073" lon="11.568879655968066"><ele>10.333333333333332</ele><time>2026-04-10T08:30:15Z</time></trkpt><trkpt lat="44.73540289726948" lon="11.569012555585827"><ele>9.666666666666666</ele><time>2026-04-10T08:30:16Z</time></trkpt><trkpt lat="44.7352616416131" lon="11.569162335618842"><ele>9.0</ele><time>2026-04-10T08:30:17Z</time></trkpt><trkpt lat="44.73511949327078" lon="11.569313062194311"><ele>9.0</ele><time>2026-04-10T08:30:18Z</time></trkpt><trkpt lat="44.734974748145625" lon="11.569466604293352"><ele>9.0</ele><time>2026-04-10T08:30:19Z</time></trkpt><trkpt lat="44.734833562308154" lon="11.569630164299136"><ele>9.0</ele><time>2026-04-10T08:30:20Z</time></trkpt><trkpt lat="44.734677315356095" lon="11.569779197484287"><ele>9.333333333333334</ele><time>2026-04-10T08:30:21Z</time></trkpt><trkpt lat="44.73452928569721" lon="11.569934017977886"><ele>9.666666666666668</ele><time>2026-04-10T08:30:22Z</time></trkpt><trkpt lat="44.73437513205398" lon="11.57010423345859"><ele>10.0</ele><time>2026-04-10T08:30:23Z</time></trkpt><trkpt lat="44.734217042394924" lon="11.570275015796986"><ele>10.333333333333334</ele><time>2026-04-10T08:30:24Z</time></trkpt><trkpt lat="44.734052667972676" lon="11.5704476369533"><ele>10.666666666666666</ele><time>2026-04-10T08:30:25Z</time></trkpt><trkpt lat="44.7338871362752" lon="11.570620632013373"><ele>11.0</ele><time>2026-04-10T08:30:26Z</time></trkpt><trkpt lat="44.73371893199713" lon="11.570802885754727"><ele>10.333333333333332</ele><time>2026-04-10T08:30:27Z</time></trkpt><trkpt lat="44.73354678372108" lon="11.570987186992197"><ele>9.666666666666666</ele><time>2026-04-10T08:30:28Z</time></trkpt><trkpt lat="44.73337129328038" lon="11.571170759451851"><ele>9.0</ele><time>2026-04-10T08:30:29Z</time></trkpt><trkpt lat="44.733193284222786" lon="11.57135872703338"><ele>9.0</ele><time>2026-04-10T08:30:30Z</time></trkpt><trkpt lat="44.73300978663326" lon="11.571549400261484"><ele>9.0</ele><time>2026-04-10T08:30:31Z</time></trkpt><trkpt lat="44.73282878196657" lon="11.571744053051175"><ele>9.0</ele><time>2026-04-10T08:30:32Z</time></trkpt><trkpt lat="44.732649427371285" lon="11.571945295147312"><ele>9.0</ele><time>2026-04-10T08:30:33Z</time></trkpt><trkpt lat="44.73246746710593" lon="11.572147319280388"><ele>9.0</ele><time>2026-04-10T08:30:34Z</time></trkpt><trkpt lat="44.73228628335774" lon="11.572351057187625"><ele>9.0</ele><time>2026-04-10T08:30:35Z</time></trkpt><trkpt lat="44.732105141628814" lon="11.572560088869826"><ele>9.0</ele><time>2026-04-10T08:30:36Z</time></trkpt><trkpt lat="44.7319225539307" lon="11.572767621917412"><ele>9.0</ele><time>2026-04-10T08:30:37Z</time></trkpt><trkpt lat="44.73173621700788" lon="11.572967034636106"><ele>8.5</ele><time>2026-04-10T08:30:38Z</time></trkpt><trkpt lat="44.731544719012774" lon="11.573164387829811"><ele>8.0</ele><time>2026-04-10T08:30:39Z</time></trkpt><trkpt lat="44.73134852936695" lon="11.573348500262309"><ele>8.0</ele><time>2026-04-10T08:30:40Z</time></trkpt><trkpt lat="44.73114454137578" lon="11.573523561611733"><ele>8.0</ele><time>2026-04-10T08:30:41Z</time></trkpt><trkpt lat="44.73093852045811" lon="11.573696844256206"><ele>8.0</ele><time>2026-04-10T08:30:42Z</time></trkpt><trkpt lat="44.730731027419814" lon="11.573871982230592"><ele>8.0</ele><time>2026-04-10T08:30:43Z</time></trkpt><trkpt lat="44.730522216599724" lon="11.574055774971297"><ele>8.0</ele><time>2026-04-10T08:30:44Z</time></trkpt><trkpt lat="44.73031923422892" lon="11.57425196973139"><ele>8.0</ele><time>2026-04-10T08:30:45Z</time></trkpt><trkpt lat="44.73012505934997" lon="11.574464857656464"><ele>8.0</ele><time>2026-04-10T08:30:46Z</time></trkpt><trkpt lat="44.72993426408283" lon="11.574683793894298"><ele>8.0</ele><time>2026-04-10T08:30:47Z</time></trkpt><trkpt lat="44.729741700090344" lon="11.574905158262021"><ele>8.0</ele><time>2026-04-10T08:30:48Z</time></trkpt><trkpt lat="44.72955046580538" lon="11.575126434378493"><ele>8.0</ele><time>2026-04-10T08:30:49Z</time></trkpt><trkpt lat="44.729361030135124" lon="11.575342016105491"><ele>7.5</ele><time>2026-04-10T08:30:50Z</time></trkpt><trkpt lat="44.72917290627378" lon="11.575548830233833"><ele>7.0</ele><time>2026-04-10T08:30:51Z</time></trkpt><trkpt lat="44.72898612720939" lon="11.57575128031439"><ele>7.0</ele><time>2026-04-10T08:30:52Z</time></trkpt><trkpt lat="44.728798454176854" lon="11.575948164069954"><ele>7.0</ele><time>2026-04-10T08:30:53Z</time></trkpt><trkpt lat="44.72860838042005" lon="11.576137177280208"><ele>8.0</ele><time>2026-04-10T08:30:54Z</time></trkpt><trkpt lat="44.72841508387084" lon="11.576315492360235"><ele>9.0</ele><time>2026-04-10T08:30:55Z</time></trkpt><trkpt lat="44.72821760768967" lon="11.576481710754996"><ele>9.0</ele><time>2026-04-10T08:30:56Z</time></trkpt><trkpt lat="44.728018152974556" lon="11.576637491774418"><ele>9.0</ele><time>2026-04-10T08:30:57Z</time></trkpt><trkpt lat="44.72781832567212" lon="11.576784081289201"><ele>9.0</ele><time>2026-04-10T08:30:58Z</time></trkpt><trkpt lat="44.72762122707048" lon="11.576929439943257"><ele>9.0</ele><time>2026-04-10T08:30:59Z</time></trkpt><trkpt lat="44.727424311099135" lon="11.577069329108747"><ele>9.0</ele><time>2026-04-10T08:31:00Z</time></trkpt><trkpt lat="44.7272289064088" lon="11.577214998920844"><ele>9.0</ele><time>2026-04-10T08:31:01Z</time></trkpt><trkpt lat="44.727040968492446" lon="11.577381259496576"><ele>9.0</ele><time>2026-04-10T08:31:02Z</time></trkpt><trkpt lat="44.72685549234159" lon="11.577557636842945"><ele>9.0</ele><time>2026-04-10T08:31:03Z</time></trkpt><trkpt lat="44.72667078086461" lon="11.577741471507878"><ele>9.0</ele><time>2026-04-10T08:31:04Z</time></trkpt><trkpt lat="44.72647242813843" lon="11.57790074825951"><ele>9.0</ele><time>2026-04-10T08:31:05Z</time></trkpt><trkpt lat="44.72630284192522" lon="11.578122879675533"><ele>9.0</ele><time>2026-04-10T08:31:06Z</time></trkpt><trkpt lat="44.726117491529955" lon="11.578312445148953"><ele>9.0</ele><time>2026-04-10T08:31:07Z</time></trkpt><trkpt lat="44.72593245421994" lon="11.578503689410748"><ele>9.0</ele><time>2026-04-10T08:31:08Z</time></trkpt><trkpt lat="44.72574675682186" lon="11.578693831622205"><ele>9.0</ele><time>2026-04-10T08:31:09Z</time></trkpt><trkpt lat="44.72555565436425" lon="11.578886425496641"><ele>9.0</ele><time>2026-04-10T08:31:10Z</time></trkpt><trkpt lat="44.725364278386195" lon="11.579082258800522"><ele>9.0</ele><time>2026-04-10T08:31:11Z</time></trkpt><trkpt lat="44.7251690788898" lon="11.579281174359833"><ele>9.0</ele><time>2026-04-10T08:31:12Z</time></trkpt><trkpt lat="44.724973337734866" lon="11.579480884501598"><ele>9.0</ele><time>2026-04-10T08:31:13Z</time></trkpt><trkpt lat="44.72477729889421" lon="11.579681312971307"><ele>9.0</ele><time>2026-04-10T08:31:14Z</time></trkpt><trkpt lat="44.72458199499644" lon="11.579879833093102"><ele>9.0</ele><time>2026-04-10T08:31:15Z</time></trkpt><trkpt lat="44.724386816186886" lon="11.580076329955261"><ele>8.0</ele><time>2026-04-10T08:31:16Z</time></trkpt><trkpt lat="44.7241912545688" lon="11.580275192411806"><ele>7.0</ele><time>2026-04-10T08:31:17Z</time></trkpt><trkpt lat="44.72399513574757" lon="11.58047416687947"><ele>7.0</ele><time>2026-04-10T08:31:18Z</time></trkpt><trkpt lat="44.723796884317586" lon="11.58067237381147"><ele>7.0</ele><time>2026-04-10T08:31:19Z</time></trkpt><trkpt lat="44.72359972866928" lon="11.580869785492844"><ele>7.0</ele><time>2026-04-10T08:31:20Z</time></trkpt><trkpt lat="44.723403480854024" lon="11.5810678249624"><ele>7.0</ele><time>2026-04-10T08:31:21Z</time></trkpt><trkpt lat="44.72320882027425" lon="11.581265673681761"><ele>7.0</ele><time>2026-04-10T08:31:22Z</time></trkpt><trkpt lat="44.723014301351235" lon="11.581463515531107"><ele>7.0</ele><time>2026-04-10T08:31:23Z</time></trkpt><trkpt lat="44.72282146983984" lon="11.581663841842602"><ele>7.5</ele><time>2026-04-10T08:31:24Z</time></trkpt><trkpt lat="44.72262908206066" lon="11.581863605416256"><ele>8.0</ele><time>2026-04-10T08:31:25Z</time></trkpt><trkpt lat="44.722435838379475" lon="11.582061303342968"><ele>8.0</ele><time>2026-04-10T08:31:26Z</time></trkpt><trkpt lat="44.72224298853817" lon="11.582260043727885"><ele>8.0</ele><time>2026-04-10T08:31:27Z</time></trkpt><trkpt lat="44.722050040701674" lon="11.582458874043807"><ele>8.0</ele><time>2026-04-10T08:31:28Z</time></trkpt><trkpt lat="44.72185816544474" lon="11.582656588760896"><ele>8.0</ele><time>2026-04-10T08:31:29Z</time></trkpt><trkpt lat="44.721665101090416" lon="11.582849643745512"><ele>8.0</ele><time>2026-04-10T08:31:30Z</time></trkpt><trkpt lat="44.72147344287201" lon="11.583043021559345"><ele>8.0</ele><time>2026-04-10T08:31:31Z</time></trkpt><trkpt lat="44.72128085557516" lon="11.583233264270966"><ele>8.0</ele><time>2026-04-10T08:31:32Z</time></trkpt><trkpt lat="44.721087990701356" lon="11.583424592150996"><ele>8.0</ele><time>2026-04-10T08:31:33Z</time></trkpt><trkpt lat="44.72089834943989" lon="11.583619096916548"><ele>7.5</ele><time>2026-04-10T08:31:34Z</time></trkpt><trkpt lat="44.72070970349722" lon="11.583815762451561"><ele>7.0</ele><time>2026-04-10T08:31:35Z</time></trkpt><trkpt lat="44.72052010578048" lon="11.5840128117746"><ele>7.0</ele><time>2026-04-10T08:31:36Z</time></trkpt><trkpt lat="44.72033031092146" lon="11.584209612998956"><ele>7.0</ele><time>2026-04-10T08:31:37Z</time></trkpt><trkpt lat="44.720139812626655" lon="11.584405842191886"><ele>7.0</ele><time>2026-04-10T08:31:38Z</time></trkpt><trkpt lat="44.719948396643055" lon="11.584603239291479"><ele>7.0</ele><time>2026-04-10T08:31:39Z</time></trkpt><trkpt lat="44.71975591286365" lon="11.58480138927574"><ele>7.0</ele><time>2026-04-10T08:31:40Z</time></trkpt><trkpt lat="44.71956204495628" lon="11.584999200483633"><ele>7.0</ele><time>2026-04-10T08:31:41Z</time></trkpt><trkpt lat="44.71936767538028" lon="11.585196978452245"><ele>6.5</ele><time>2026-04-10T08:31:42Z</time></trkpt><trkpt lat="44.7191737464161" lon="11.585394187126774"><ele>6.0</ele><time>2026-04-10T08:31:43Z</time></trkpt><trkpt lat="44.71898199046148" lon="11.585588815505835"><ele>6.0</ele><time>2026-04-10T08:31:44Z</time></trkpt><trkpt lat="44.71878802009583" lon="11.585784254909353"><ele>6.0</ele><time>2026-04-10T08:31:45Z</time></trkpt><trkpt lat="44.71859364986709" lon="11.585981723624919"><ele>6.5</ele><time>2026-04-10T08:31:46Z</time></trkpt><trkpt lat="44.71839969695848" lon="11.586181246660262"><ele>7.0</ele><time>2026-04-10T08:31:47Z</time></trkpt><trkpt lat="44.71820673672025" lon="11.58638143737204"><ele>7.0</ele><time>2026-04-10T08:31:48Z</time></trkpt><trkpt lat="44.71801411706697" lon="11.586581381532524"><ele>7.0</ele><time>2026-04-10T08:31:49Z</time></trkpt><trkpt lat="44.717818951441366" lon="11.586779460446241"><ele>7.0</ele><time>2026-04-10T08:31:50Z</time></trkpt><trkpt lat="44.71762279665866" lon="11.586979039270577"><ele>7.0</ele><time>2026-04-10T08:31:51Z</time></trkpt><trkpt lat="44.71742586494674" lon="11.587178746884165"><ele>7.0</ele><time>2026-04-10T08:31:52Z</time></trkpt><trkpt lat="44.71722851435875" lon="11.587378228207202"><ele>7.0</ele><time>2026-04-10T08:31:53Z</time></trkpt><trkpt lat="44.71703083486008" lon="11.587576572740057"><ele>6.5</ele><time>2026-04-10T08:31:54Z</time></trkpt><trkpt lat="44.71683221202641" lon="11.587778409815996"><ele>6.0</ele><time>2026-04-10T08:31:55Z</time></trkpt><trkpt lat="44.71663602427593" lon="11.587981166447355"><ele>6.0</ele><time>2026-04-10T08:31:56Z</time></trkpt><trkpt lat="44.7164388658276" lon="11.588183001186927"><ele>6.0</ele><time>2026-04-10T08:31:57Z</time></trkpt><trkpt lat="44.716241897835" lon="11.588384228967962"><ele>6.0</ele><time>2026-04-10T08:31:58Z</time></trkpt><trkpt lat="44.71604453841205" lon="11.588585770777506"><ele>6.0</ele><time>2026-04-10T08:31:59Z</time></trkpt><trkpt lat="44.715847687775444" lon="11.58878670032778"><ele>6.5</ele><time>2026-04-10T08:32:00Z</time></trkpt><trkpt lat="44.71565027316142" lon="11.588989697421558"><ele>7.0</ele><time>2026-04-10T08:32:01Z</time></trkpt><trkpt lat="44.715453251031356" lon="11.589192528637291"><ele>7.0</ele><time>2026-04-10T08:32:02Z</time></trkpt><trkpt lat="44.71525757193521" lon="11.589393189672492"><ele>7.0</ele><time>2026-04-10T08:32:03Z</time></trkpt><trkpt lat="44.71506181440433" lon="11.589592612480194"><ele>6.0</ele><time>2026-04-10T08:32:04Z</time></trkpt><trkpt lat="44.714866647062834" lon="11.589793283251497"><ele>5.0</ele><time>2026-04-10T08:32:05Z</time></trkpt><trkpt lat="44.71467265907501" lon="11.589991356390716"><ele>5.0</ele><time>2026-04-10T08:32:06Z</time></trkpt><trkpt lat="44.71448013306165" lon="11.590188441965793"><ele>5.0</ele><time>2026-04-10T08:32:07Z</time></trkpt><trkpt lat="44.714288851254096" lon="11.590382592632372"><ele>5.0</ele><time>2026-04-10T08:32:08Z</time></trkpt><trkpt lat="44.71409644934403" lon="11.590576173484845"><ele>5.0</ele><time>2026-04-10T08:32:09Z</time></trkpt><trkpt lat="44.71390668868243" lon="11.590768956151097"><ele>5.0</ele><time>2026-04-10T08:32:10Z</time></trkpt><trkpt lat="44.713717963314764" lon="11.590963777616182"><ele>5.0</ele><time>2026-04-10T08:32:11Z</time></trkpt><trkpt lat="44.7135299903045" lon="11.591156236911091"><ele>5.5</ele><time>2026-04-10T08:32:12Z</time></trkpt><trkpt lat="44.71334350796886" lon="11.591347599114709"><ele>6.0</ele><time>2026-04-10T08:32:13Z</time></trkpt><trkpt lat="44.713158196441356" lon="11.591537411867712"><ele>6.0</ele><time>2026-04-10T08:32:14Z</time></trkpt><trkpt lat="44.71297175013556" lon="11.59172458718215"><ele>6.0</ele><time>2026-04-10T08:32:15Z</time></trkpt><trkpt lat="44.71278766082486" lon="11.59190703578303"><ele>5.5</ele><time>2026-04-10T08:32:16Z</time></trkpt><trkpt lat="44.71260330491278" lon="11.592092872533831"><ele>5.0</ele><time>2026-04-10T08:32:17Z</time></trkpt><trkpt lat="44.71242135759418" lon="11.592281373797675"><ele>5.0</ele><time>2026-04-10T08:32:18Z</time></trkpt><trkpt lat="44.712239098914026" lon="11.592471112075465"><ele>5.0</ele><time>2026-04-10T08:32:19Z</time></trkpt><trkpt lat="44.712055223839116" lon="11.592657318354572"><ele>5.0</ele><time>2026-04-10T08:32:20Z</time></trkpt><trkpt lat="44.71186811056371" lon="11.592843570208627"><ele>5.0</ele><time>2026-04-10T08:32:21Z</time></trkpt><trkpt lat="44.71168085590139" lon="11.593035354482248"><ele>5.0</ele><time>2026-04-10T08:32:22Z</time></trkpt><trkpt lat="44.71149172969519" lon="11.593230708021855"><ele>5.0</ele><time>2026-04-10T08:32:23Z</time></trkpt><trkpt lat="44.71130048080442" lon="11.593423733746851"><ele>5.0</ele><time>2026-04-10T08:32:24Z</time></trkpt><trkpt lat="44.71110648502915" lon="11.593619493246909"><ele>5.0</ele><time>2026-04-10T08:32:25Z</time></trkpt><trkpt lat="44.71091186177367" lon="11.593815295470497"><ele>5.5</ele><time>2026-04-10T08:32:26Z</time></trkpt><trkpt lat="44.7107167920627" lon="11.594011727454031"><ele>6.0</ele><time>2026-04-10T08:32:27Z</time></trkpt><trkpt lat="44.71052271848836" lon="11.594208616416097"><ele>6.0</ele><time>2026-04-10T08:32:28Z</time></trkpt><trkpt lat="44.710328191461976" lon="11.594404839356853"><ele>6.0</ele><time>2026-04-10T08:32:29Z</time></trkpt><trkpt lat="44.71013321772386" lon="11.594602305229285"><ele>6.0</ele><time>2026-04-10T08:32:30Z</time></trkpt><trkpt lat="44.709936577768865" lon="11.594801003751808"><ele>6.0</ele><time>2026-04-10T08:32:31Z</time></trkpt><trkpt lat="44.70973962786308" lon="11.595000770635192"><ele>6.0</ele><time>2026-04-10T08:32:32Z</time></trkpt><trkpt lat="44.70954321743545" lon="11.59520057153551"><ele>6.0</ele><time>2026-04-10T08:32:33Z</time></trkpt><trkpt lat="44.70934658923326" lon="11.595400358436136"><ele>5.5</ele><time>2026-04-10T08:32:34Z</time></trkpt><trkpt lat="44.709149704507404" lon="11.595601166224911"><ele>5.0</ele><time>2026-04-10T08:32:35Z</time></trkpt><trkpt lat="44.70895269691424" lon="11.595800437213121"><ele>5.0</ele><time>2026-04-10T08:32:36Z</time></trkpt><trkpt lat="44.708755454615805" lon="11.59599916458448"><ele>5.0</ele><time>2026-04-10T08:32:37Z</time></trkpt><trkpt lat="44.70855837321474" lon="11.596196861167286"><ele>6.0</ele><time>2026-04-10T08:32:38Z</time></trkpt><trkpt lat="44.70836233159017" lon="11.596391788613404"><ele>7.0</ele><time>2026-04-10T08:32:39Z</time></trkpt><trkpt lat="44.70816954371061" lon="11.59658783791926"><ele>7.0</ele><time>2026-04-10T08:32:40Z</time></trkpt><trkpt lat="44.7079784804215" lon="11.59678010330449"><ele>7.0</ele><time>2026-04-10T08:32:41Z</time></trkpt><trkpt lat="44.707789146536605" lon="11.596968828186258"><ele>7.0</ele><time>2026-04-10T08:32:42Z</time></trkpt><trkpt lat="44.70760436055158" lon="11.597160491360977"><ele>7.0</ele><time>2026-04-10T08:32:43Z</time></trkpt><trkpt lat="44.70742107078716" lon="11.597350091637889"><ele>7.0</ele><time>2026-04-10T08:32:44Z</time></trkpt><trkpt lat="44.70723951212422" lon="11.597535582757837"><ele>7.0</ele><time>2026-04-10T08:32:45Z</time></trkpt><trkpt lat="44.707058998812606" lon="11.597725201576402"><ele>6.5</ele><time>2026-04-10T08:32:46Z</time></trkpt><trkpt lat="44.70687478646428" lon="11.59791454262802"><ele>6.0</ele><time>2026-04-10T08:32:47Z</time></trkpt><trkpt lat="44.70668946164569" lon="11.598107152217684"><ele>6.0</ele><time>2026-04-10T08:32:48Z</time></trkpt><trkpt lat="44.70650135501304" lon="11.59830036094799"><ele>6.0</ele><time>2026-04-10T08:32:49Z</time></trkpt><trkpt lat="44.70631337340058" lon="11.59849579703043"><ele>5.5</ele><time>2026-04-10T08:32:50Z</time></trkpt><trkpt lat="44.706125564864415" lon="11.598693074115916"><ele>5.0</ele><time>2026-04-10T08:32:51Z</time></trkpt><trkpt lat="44.7059382115251" lon="11.598889149536324"><ele>5.0</ele><time>2026-04-10T08:32:52Z</time></trkpt><trkpt lat="44.70574996003754" lon="11.59908127506366"><ele>5.0</ele><time>2026-04-10T08:32:53Z</time></trkpt><trkpt lat="44.705561771940665" lon="11.599269915982049"><ele>5.0</ele><time>2026-04-10T08:32:54Z</time></trkpt><trkpt lat="44.70537642287416" lon="11.59945760212949"><ele>5.0</ele><time>2026-04-10T08:32:55Z</time></trkpt><trkpt lat="44.70519337728407" lon="11.599642853503745"><ele>5.333333333333334</ele><time>2026-04-10T08:32:56Z</time></trkpt><trkpt lat="44.70501211954291" lon="11.599825675618943"><ele>5.666666666666667</ele><time>2026-04-10T08:32:57Z</time></trkpt><trkpt lat="44.704832904692545" lon="11.600007863766459"><ele>6.0</ele><time>2026-04-10T08:32:58Z</time></trkpt><trkpt lat="44.704655117495" lon="11.600192357744339"><ele>6.0</ele><time>2026-04-10T08:32:59Z</time></trkpt><trkpt lat="44.704476071135325" lon="11.60037295445818"><ele>6.0</ele><time>2026-04-10T08:33:00Z</time></trkpt><trkpt lat="44.704295541658986" lon="11.600552752294766"><ele>6.0</ele><time>2026-04-10T08:33:01Z</time></trkpt><trkpt lat="44.704114680175124" lon="11.600738735168655"><ele>5.5</ele><time>2026-04-10T08:33:02Z</time></trkpt><trkpt lat="44.703934513747306" lon="11.600926936911353"><ele>5.0</ele><time>2026-04-10T08:33:03Z</time></trkpt><trkpt lat="44.70375182718131" lon="11.6011150938649"><ele>5.0</ele><time>2026-04-10T08:33:04Z</time></trkpt><trkpt lat="44.703570160891786" lon="11.601302979781982"><ele>5.0</ele><time>2026-04-10T08:33:05Z</time></trkpt><trkpt lat="44.703387258174324" lon="11.601490126695667"><ele>5.0</ele><time>2026-04-10T08:33:06Z</time></trkpt><trkpt lat="44.70320256350149" lon="11.601677774193693"><ele>5.0</ele><time>2026-04-10T08:33:07Z</time></trkpt><trkpt lat="44.703014111686215" lon="11.60186829124918"><ele>5.5</ele><time>2026-04-10T08:33:08Z</time></trkpt><trkpt lat="44.70282252062895" lon="11.602061756622424"><ele>6.0</ele><time>2026-04-10T08:33:09Z</time></trkpt><trkpt lat="44.70262921082806" lon="11.602258704358828"><ele>6.0</ele><time>2026-04-10T08:33:10Z</time></trkpt><trkpt lat="44.70243386666406" lon="11.602454192780657"><ele>6.0</ele><time>2026-04-10T08:33:11Z</time></trkpt><trkpt lat="44.70223640943176" lon="11.60265197321261"><ele>6.0</ele><time>2026-04-10T08:33:12Z</time></trkpt><trkpt lat="44.702037234279665" lon="11.60285578584543"><ele>6.0</ele><time>2026-04-10T08:33:13Z</time></trkpt><trkpt lat="44.70183609562109" lon="11.603061956981149"><ele>7.0</ele><time>2026-04-10T08:33:14Z</time></trkpt><trkpt lat="44.70163401724161" lon="11.603268404177818"><ele>8.0</ele><time>2026-04-10T08:33:15Z</time></trkpt><trkpt lat="44.70143060145417" lon="11.603471397111518"><ele>8.0</ele><time>2026-04-10T08:33:16Z</time></trkpt><trkpt lat="44.70122704217702" lon="11.603675456081131"><ele>8.0</ele><time>2026-04-10T08:33:17Z</time></trkpt><trkpt lat="44.70102287987181" lon="11.603878574237761"><ele>7.5</ele><time>2026-04-10T08:33:18Z</time></trkpt><trkpt lat="44.70082161080436" lon="11.60408399053532"><ele>7.0</ele><time>2026-04-10T08:33:19Z</time></trkpt><trkpt lat="44.700621303929445" lon="11.604291244263022"><ele>7.0</ele><time>2026-04-10T08:33:20Z</time></trkpt><trkpt lat="44.70042275784466" lon="11.604494567870246"><ele>7.0</ele><time>2026-04-10T08:33:21Z</time></trkpt><trkpt lat="44.700227273916575" lon="11.60469470872604"><ele>6.0</ele><time>2026-04-10T08:33:22Z</time></trkpt><trkpt lat="44.70003356580844" lon="11.604891456467781"><ele>5.0</ele><time>2026-04-10T08:33:23Z</time></trkpt><trkpt lat="44.69983902936718" lon="11.60508783617093"><ele>5.0</ele><time>2026-04-10T08:33:24Z</time></trkpt><trkpt lat="44.69964432556533" lon="11.605284488761868"><ele>5.0</ele><time>2026-04-10T08:33:25Z</time></trkpt><trkpt lat="44.69945024104972" lon="11.605476366257225"><ele>5.5</ele><time>2026-04-10T08:33:26Z</time></trkpt><trkpt lat="44.699254645748454" lon="11.605664931357426"><ele>6.0</ele><time>2026-04-10T08:33:27Z</time></trkpt><trkpt lat="44.69905725352371" lon="11.605854602098"><ele>6.0</ele><time>2026-04-10T08:33:28Z</time></trkpt><trkpt lat="44.698858266208475" lon="11.606047515982665"><ele>6.0</ele><time>2026-04-10T08:33:29Z</time></trkpt><trkpt lat="44.69866039304255" lon="11.606243788569655"><ele>8.0</ele><time>2026-04-10T08:33:30Z</time></trkpt><trkpt lat="44.69846306008822" lon="11.606439992023065"><ele>10.0</ele><time>2026-04-10T08:33:31Z</time></trkpt><trkpt lat="44.69826717935098" lon="11.60663857010418"><ele>10.0</ele><time>2026-04-10T08:33:32Z</time></trkpt><trkpt lat="44.69807050324412" lon="11.606839058008498"><ele>10.0</ele><time>2026-04-10T08:33:33Z</time></trkpt><trkpt lat="44.69787491854654" lon="11.607038683335052"><ele>9.0</ele><time>2026-04-10T08:33:34Z</time></trkpt><trkpt lat="44.697680953842614" lon="11.607238930222483"><ele>8.0</ele><time>2026-04-10T08:33:35Z</time></trkpt><trkpt lat="44.697487724377304" lon="11.6074365282783"><ele>8.0</ele><time>2026-04-10T08:33:36Z</time></trkpt><trkpt lat="44.69729717414662" lon="11.607632640584436"><ele>8.0</ele><time>2026-04-10T08:33:37Z</time></trkpt><trkpt lat="44.697107734134605" lon="11.607826271165393"><ele>7.5</ele><time>2026-04-10T08:33:38Z</time></trkpt><trkpt lat="44.69692055310656" lon="11.608022579076476"><ele>7.0</ele><time>2026-04-10T08:33:39Z</time></trkpt><trkpt lat="44.69673259095693" lon="11.608216699935944"><ele>7.0</ele><time>2026-04-10T08:33:40Z</time></trkpt><trkpt lat="44.696545728369294" lon="11.608407703648153"><ele>7.0</ele><time>2026-04-10T08:33:41Z</time></trkpt><trkpt lat="44.69635873591507" lon="11.608598241457786"><ele>7.0</ele><time>2026-04-10T08:33:42Z</time></trkpt><trkpt lat="44.696174746511" lon="11.608788056383965"><ele>7.0</ele><time>2026-04-10T08:33:43Z</time></trkpt><trkpt lat="44.69599246586735" lon="11.608974254309446"><ele>7.0</ele><time>2026-04-10T08:33:44Z</time></trkpt><trkpt lat="44.69581299883309" lon="11.609157343354697"><ele>7.0</ele><time>2026-04-10T08:33:45Z</time></trkpt><trkpt lat="44.695630943467954" lon="11.609339129633685"><ele>7.0</ele><time>2026-04-10T08:33:46Z</time></trkpt><trkpt lat="44.69544656556177" lon="11.609520098544841"><ele>8.0</ele><time>2026-04-10T08:33:47Z</time></trkpt><trkpt lat="44.69526531301308" lon="11.609704320259892"><ele>9.0</ele><time>2026-04-10T08:33:48Z</time></trkpt><trkpt lat="44.695083917877746" lon="11.609887229754213"><ele>10.0</ele><time>2026-04-10T08:33:49Z</time></trkpt><trkpt lat="44.69490466105907" lon="11.610067743448063"><ele>10.0</ele><time>2026-04-10T08:33:50Z</time></trkpt><trkpt lat="44.694725785059575" lon="11.610248777854348"><ele>10.0</ele><time>2026-04-10T08:33:51Z</time></trkpt><trkpt lat="44.69454913109342" lon="11.610427543720581"><ele>10.0</ele><time>2026-04-10T08:33:52Z</time></trkpt><trkpt lat="44.69437028606375" lon="11.610608920978226"><ele>8.666666666666668</ele><time>2026-04-10T08:33:53Z</time></trkpt><trkpt lat="44.6941955680432" lon="11.610789050034878"><ele>7.333333333333334</ele><time>2026-04-10T08:33:54Z</time></trkpt><trkpt lat="44.69401981652819" lon="11.610968801535233"><ele>6.0</ele><time>2026-04-10T08:33:55Z</time></trkpt><trkpt lat="44.69384534630704" lon="11.61114714395105"><ele>6.0</ele><time>2026-04-10T08:33:56Z</time></trkpt><trkpt lat="44.693670944662536" lon="11.611324568584728"><ele>6.0</ele><time>2026-04-10T08:33:57Z</time></trkpt><trkpt lat="44.69349794927449" lon="11.611498005099097"><ele>6.0</ele><time>2026-04-10T08:33:58Z</time></trkpt><trkpt lat="44.693326563995974" lon="11.611671877678438"><ele>6.0</ele><time>2026-04-10T08:33:59Z</time></trkpt><trkpt lat="44.693154670436186" lon="11.611853677846728"><ele>6.0</ele><time>2026-04-10T08:34:00Z</time></trkpt><trkpt lat="44.69298333581268" lon="11.61202827823201"><ele>6.0</ele><time>2026-04-10T08:34:01Z</time></trkpt><trkpt lat="44.692817497604274" lon="11.61219537768109"><ele>5.666666666666667</ele><time>2026-04-10T08:34:02Z</time></trkpt><trkpt lat="44.69265376104715" lon="11.612356044019585"><ele>5.333333333333334</ele><time>2026-04-10T08:34:03Z</time></trkpt><trkpt lat="44.69249852366872" lon="11.612515116907963"><ele>5.0</ele><time>2026-04-10T08:34:04Z</time></trkpt><trkpt lat="44.69234600463812" lon="11.612665347208104"><ele>5.0</ele><time>2026-04-10T08:34:05Z</time></trkpt><trkpt lat="44.69219454325543" lon="11.612812298784918"><ele>5.0</ele><time>2026-04-10T08:34:06Z</time></trkpt><trkpt lat="44.69204867760673" lon="11.612962679462207"><ele>5.0</ele><time>2026-04-10T08:34:07Z</time></trkpt><trkpt lat="44.691899577556555" lon="11.613109440138443"><ele>5.0</ele><time>2026-04-10T08:34:08Z</time></trkpt><trkpt lat="44.6917485320361" lon="11.613261200294112"><ele>5.0</ele><time>2026-04-10T08:34:09Z</time></trkpt><trkpt lat="44.69159399001239" lon="11.613414828051253"><ele>5.0</ele><time>2026-04-10T08:34:10Z</time></trkpt><trkpt lat="44.69144040159341" lon="11.61357617228445"><ele>5.0</ele><time>2026-04-10T08:34:11Z</time></trkpt><trkpt lat="44.691280113545304" lon="11.613728908590659"><ele>5.0</ele><time>2026-04-10T08:34:12Z</time></trkpt><trkpt lat="44.69112376261163" lon="11.613891213413151"><ele>5.0</ele><time>2026-04-10T08:34:13Z</time></trkpt><trkpt lat="44.69096468301602" lon="11.614051598195303"><ele>5.0</ele><time>2026-04-10T08:34:14Z</time></trkpt><trkpt lat="44.690802375983665" lon="11.614215708988644"><ele>5.0</ele><time>2026-04-10T08:34:15Z</time></trkpt><trkpt lat="44.69063867325001" lon="11.614384610968253"><ele>5.0</ele><time>2026-04-10T08:34:16Z</time></trkpt><trkpt lat="44.69047929222046" lon="11.61455163332613"><ele>5.0</ele><time>2026-04-10T08:34:17Z</time></trkpt><trkpt lat="44.69032308502376" lon="11.614714259789997"><ele>5.0</ele><time>2026-04-10T08:34:18Z</time></trkpt><trkpt lat="44.69016402123671" lon="11.614875316590876"><ele>5.0</ele><time>2026-04-10T08:34:19Z</time></trkpt><trkpt lat="44.690004339158" lon="11.615036268709854"><ele>5.0</ele><time>2026-04-10T08:34:20Z</time></trkpt><trkpt lat="44.68984361093045" lon="11.615201128335114"><ele>5.0</ele><time>2026-04-10T08:34:21Z</time></trkpt><trkpt lat="44.689683288596356" lon="11.615360703607475"><ele>5.0</ele><time>2026-04-10T08:34:22Z</time></trkpt><trkpt lat="44.68952212732961" lon="11.615522709705223"><ele>4.666666666666667</ele><time>2026-04-10T08:34:23Z</time></trkpt><trkpt lat="44.68936198257676" lon="11.615684986241531"><ele>4.333333333333333</ele><time>2026-04-10T08:34:24Z</time></trkpt><trkpt lat="44.68920132586136" lon="11.615848821864294"><ele>4.0</ele><time>2026-04-10T08:34:25Z</time></trkpt><trkpt lat="44.68903732441622" lon="11.61601519306779"><ele>4.0</ele><time>2026-04-10T08:34:26Z</time></trkpt><trkpt lat="44.6888708526255" lon="11.616181571081874"><ele>4.0</ele><time>2026-04-10T08:34:27Z</time></trkpt><trkpt lat="44.68870359367524" lon="11.61635356376152"><ele>4.0</ele><time>2026-04-10T08:34:28Z</time></trkpt><trkpt lat="44.68853187085658" lon="11.616528394707153"><ele>4.333333333333333</ele><time>2026-04-10T08:34:29Z</time></trkpt><trkpt lat="44.68835543807866" lon="11.616701867865125"><ele>4.666666666666667</ele><time>2026-04-10T08:34:30Z</time></trkpt><trkpt lat="44.688174300897714" lon="11.61688211558345"><ele>5.0</ele><time>2026-04-10T08:34:31Z</time></trkpt><trkpt lat="44.68798935756952" lon="11.617066777649926"><ele>5.0</ele><time>2026-04-10T08:34:32Z</time></trkpt><trkpt lat="44.68780226128185" lon="11.61725778763544"><ele>5.0</ele><time>2026-04-10T08:34:33Z</time></trkpt><trkpt lat="44.68761372069246" lon="11.617443046886644"><ele>5.0</ele><time>2026-04-10T08:34:34Z</time></trkpt><trkpt lat="44.687427243364304" lon="11.617639122326127"><ele>5.0</ele><time>2026-04-10T08:34:35Z</time></trkpt><trkpt lat="44.68724287395899" lon="11.617829429369488"><ele>5.5</ele><time>2026-04-10T08:34:36Z</time></trkpt><trkpt lat="44.68706015030679" lon="11.61801869093507"><ele>6.0</ele><time>2026-04-10T08:34:37Z</time></trkpt><trkpt lat="44.68687775664349" lon="11.61820541512148"><ele>6.333333333333334</ele><time>2026-04-10T08:34:38Z</time></trkpt><trkpt lat="44.686696538186716" lon="11.618392110168216"><ele>6.666666666666667</ele><time>2026-04-10T08:34:39Z</time></trkpt><trkpt lat="44.68651724149916" lon="11.618576169758207"><ele>7.0</ele><time>2026-04-10T08:34:40Z</time></trkpt><trkpt lat="44.68633995756105" lon="11.618757782041554"><ele>7.0</ele><time>2026-04-10T08:34:41Z</time></trkpt><trkpt lat="44.686165161353586" lon="11.618937773313618"><ele>7.0</ele><time>2026-04-10T08:34:42Z</time></trkpt><trkpt lat="44.68599016767334" lon="11.619118148662388"><ele>7.0</ele><time>2026-04-10T08:34:43Z</time></trkpt><trkpt lat="44.68581546564815" lon="11.619295150367922"><ele>7.0</ele><time>2026-04-10T08:34:44Z</time></trkpt><trkpt lat="44.685643106339874" lon="11.61947140619191"><ele>7.0</ele><time>2026-04-10T08:34:45Z</time></trkpt><trkpt lat="44.68547115708231" lon="11.619648878185075"><ele>7.0</ele><time>2026-04-10T08:34:46Z</time></trkpt><trkpt lat="44.68529957835977" lon="11.619818290545414"><ele>6.666666666666667</ele><time>2026-04-10T08:34:47Z</time></trkpt><trkpt lat="44.685123773160505" lon="11.619989616368443"><ele>6.333333333333334</ele><time>2026-04-10T08:34:48Z</time></trkpt><trkpt lat="44.68494514651043" lon="11.620166959803788"><ele>6.0</ele><time>2026-04-10T08:34:49Z</time></trkpt><trkpt lat="44.68477027315947" lon="11.620348392764473"><ele>5.666666666666667</ele><time>2026-04-10T08:34:50Z</time></trkpt><trkpt lat="44.6845948110383" lon="11.620527606825469"><ele>5.333333333333334</ele><time>2026-04-10T08:34:51Z</time></trkpt><trkpt lat="44.68441870391997" lon="11.620704503301013"><ele>5.0</ele><time>2026-04-10T08:34:52Z</time></trkpt><trkpt lat="44.68424267597514" lon="11.620883199205982"><ele>5.0</ele><time>2026-04-10T08:34:53Z</time></trkpt><trkpt lat="44.68406904529677" lon="11.621064097018383"><ele>5.0</ele><time>2026-04-10T08:34:54Z</time></trkpt><trkpt lat="44.683894556968546" lon="11.62124537508382"><ele>5.0</ele><time>2026-04-10T08:34:55Z</time></trkpt><trkpt lat="44.68371851297361" lon="11.621424339994617"><ele>5.0</ele><time>2026-04-10T08:34:56Z</time></trkpt><trkpt lat="44.68354321174647" lon="11.621601565734318"><ele>5.0</ele><time>2026-04-10T08:34:57Z</time></trkpt><trkpt lat="44.68336864808848" lon="11.62177755148345"><ele>5.0</ele><time>2026-04-10T08:34:58Z</time></trkpt><trkpt lat="44.68319433412777" lon="11.621952413816484"><ele>4.666666666666667</ele><time>2026-04-10T08:34:59Z</time></trkpt><trkpt lat="44.68301902146206" lon="11.622128494535842"><ele>4.333333333333333</ele><time>2026-04-10T08:35:00Z</time></trkpt><trkpt lat="44.682841903190784" lon="11.622306716587591"><ele>4.0</ele><time>2026-04-10T08:35:01Z</time></trkpt><trkpt lat="44.68266562567818" lon="11.622489689237558"><ele>4.0</ele><time>2026-04-10T08:35:02Z</time></trkpt><trkpt lat="44.68249134562512" lon="11.622673972635726"><ele>4.0</ele><time>2026-04-10T08:35:03Z</time></trkpt><trkpt lat="44.68231683982639" lon="11.622855626747304"><ele>4.0</ele><time>2026-04-10T08:35:04Z</time></trkpt><trkpt lat="44.6821408943701" lon="11.623038208479107"><ele>3.6666666666666665</ele><time>2026-04-10T08:35:05Z</time></trkpt><trkpt lat="44.6819647926652" lon="11.623217280893362"><ele>3.333333333333333</ele><time>2026-04-10T08:35:06Z</time></trkpt><trkpt lat="44.681784122221956" lon="11.623398997823651"><ele>3.0</ele><time>2026-04-10T08:35:07Z</time></trkpt><trkpt lat="44.681602191478554" lon="11.623576804340583"><ele>3.0</ele><time>2026-04-10T08:35:08Z</time></trkpt><trkpt lat="44.68142056682824" lon="11.623758342967447"><ele>3.0</ele><time>2026-04-10T08:35:09Z</time></trkpt><trkpt lat="44.68123987403489" lon="11.623942823185624"><ele>3.0</ele><time>2026-04-10T08:35:10Z</time></trkpt><trkpt lat="44.6810567053266" lon="11.624128052916742"><ele>3.0</ele><time>2026-04-10T08:35:11Z</time></trkpt><trkpt lat="44.68087165354377" lon="11.624313313423642"><ele>3.0</ele><time>2026-04-10T08:35:12Z</time></trkpt><trkpt lat="44.6806856515469" lon="11.62449952377219"><ele>3.0</ele><time>2026-04-10T08:35:13Z</time></trkpt><trkpt lat="44.680500705788305" lon="11.624685500975266"><ele>3.0</ele><time>2026-04-10T08:35:14Z</time></trkpt><trkpt lat="44.680314877668465" lon="11.624874972830142"><ele>4.0</ele><time>2026-04-10T08:35:15Z</time></trkpt><trkpt lat="44.680129592724306" lon="11.625062732593399"><ele>5.0</ele><time>2026-04-10T08:35:16Z</time></trkpt><trkpt lat="44.67994719030814" lon="11.625252988447771"><ele>5.0</ele><time>2026-04-10T08:35:17Z</time></trkpt><trkpt lat="44.679765608365564" lon="11.625440493832816"><ele>5.0</ele><time>2026-04-10T08:35:18Z</time></trkpt><trkpt lat="44.67958572547666" lon="11.625629150565175"><ele>4.666666666666667</ele><time>2026-04-10T08:35:19Z</time></trkpt><trkpt lat="44.679404936654116" lon="11.625814268585387"><ele>4.333333333333333</ele><time>2026-04-10T08:35:20Z</time></trkpt><trkpt lat="44.67922374641271" lon="11.625995356494446"><ele>4.0</ele><time>2026-04-10T08:35:21Z</time></trkpt><trkpt lat="44.679042569780165" lon="11.626174409001838"><ele>4.0</ele><time>2026-04-10T08:35:22Z</time></trkpt><trkpt lat="44.67886031384597" lon="11.626355154620674"><ele>4.0</ele><time>2026-04-10T08:35:23Z</time></trkpt><trkpt lat="44.67868045574346" lon="11.626535236921224"><ele>4.0</ele><time>2026-04-10T08:35:24.001Z</time></trkpt><trkpt lat="44.678503458476335" lon="11.62671592159619"><ele>4.333333333333333</ele><time>2026-04-10T08:35:25.001Z</time></trkpt><trkpt lat="44.67832593208936" lon="11.626896990150975"><ele>4.666666666666667</ele><time>2026-04-10T08:35:26Z</time></trkpt><trkpt lat="44.678151847508744" lon="11.627075189492906"><ele>5.0</ele><time>2026-04-10T08:35:27Z</time></trkpt><trkpt lat="44.67797589738832" lon="11.627254558861535"><ele>5.0</ele><time>2026-04-10T08:35:28Z</time></trkpt><trkpt lat="44.677800165998725" lon="11.627435072306195"><ele>5.0</ele><time>2026-04-10T08:35:29Z</time></trkpt><trkpt lat="44.6776222951744" lon="11.627617373944314"><ele>5.0</ele><time>2026-04-10T08:35:30Z</time></trkpt><trkpt lat="44.677444892799244" lon="11.627800752431451"><ele>5.0</ele><time>2026-04-10T08:35:31Z</time></trkpt><trkpt lat="44.677266859694804" lon="11.627984916475677"><ele>5.0</ele><time>2026-04-10T08:35:32Z</time></trkpt><trkpt lat="44.67708795913219" lon="11.628167359526465"><ele>5.0</ele><time>2026-04-10T08:35:33Z</time></trkpt><trkpt lat="44.67690765241166" lon="11.62835129819392"><ele>5.0</ele><time>2026-04-10T08:35:34Z</time></trkpt><trkpt lat="44.67672694550279" lon="11.62853646586493"><ele>5.0</ele><time>2026-04-10T08:35:35Z</time></trkpt><trkpt lat="44.67654576010357" lon="11.62872237861564"><ele>5.0</ele><time>2026-04-10T08:35:36Z</time></trkpt><trkpt lat="44.67636309368513" lon="11.628909343548548"><ele>5.5</ele><time>2026-04-10T08:35:37Z</time></trkpt><trkpt lat="44.67618096859367" lon="11.62909775797136"><ele>6.0</ele><time>2026-04-10T08:35:38Z</time></trkpt><trkpt lat="44.67599874064356" lon="11.629285218874362"><ele>6.0</ele><time>2026-04-10T08:35:39Z</time></trkpt><trkpt lat="44.67581418561937" lon="11.629473870890772"><ele>6.0</ele><time>2026-04-10T08:35:40Z</time></trkpt><trkpt lat="44.67563117954322" lon="11.629661517896217"><ele>6.0</ele><time>2026-04-10T08:35:41Z</time></trkpt><trkpt lat="44.675449325346555" lon="11.62985033685982"><ele>6.0</ele><time>2026-04-10T08:35:42Z</time></trkpt><trkpt lat="44.675267532134086" lon="11.630038326173159"><ele>6.5</ele><time>2026-04-10T08:35:43Z</time></trkpt><trkpt lat="44.67508542775496" lon="11.63022874091323"><ele>7.0</ele><time>2026-04-10T08:35:44Z</time></trkpt><trkpt lat="44.67490415552155" lon="11.630418335758025"><ele>7.0</ele><time>2026-04-10T08:35:45Z</time></trkpt><trkpt lat="44.67472507554606" lon="11.630609714361754"><ele>7.0</ele><time>2026-04-10T08:35:46Z</time></trkpt><trkpt lat="44.6745465082719" lon="11.630802048079937"><ele>6.5</ele><time>2026-04-10T08:35:47Z</time></trkpt><trkpt lat="44.6743662488858" lon="11.630993988318844"><ele>6.0</ele><time>2026-04-10T08:35:48Z</time></trkpt><trkpt lat="44.6741851817703" lon="11.631185186028157"><ele>5.5</ele><time>2026-04-10T08:35:49Z</time></trkpt><trkpt lat="44.67400322963014" lon="11.631372542099061"><ele>5.0</ele><time>2026-04-10T08:35:50Z</time></trkpt><trkpt lat="44.6738213874412" lon="11.6315598781453"><ele>5.0</ele><time>2026-04-10T08:35:51Z</time></trkpt><trkpt lat="44.673637502978806" lon="11.631745727175652"><ele>5.0</ele><time>2026-04-10T08:35:52Z</time></trkpt><trkpt lat="44.673452591958686" lon="11.631935357928239"><ele>5.0</ele><time>2026-04-10T08:35:53Z</time></trkpt><trkpt lat="44.67326816786472" lon="11.632124212833425"><ele>5.0</ele><time>2026-04-10T08:35:54Z</time></trkpt><trkpt lat="44.67308352231354" lon="11.632315414073007"><ele>5.0</ele><time>2026-04-10T08:35:55Z</time></trkpt><trkpt lat="44.672897661013145" lon="11.632507308583012"><ele>5.0</ele><time>2026-04-10T08:35:56Z</time></trkpt><trkpt lat="44.67271018826084" lon="11.632698457311712"><ele>5.0</ele><time>2026-04-10T08:35:57Z</time></trkpt><trkpt lat="44.67252174147636" lon="11.63288989039298"><ele>5.0</ele><time>2026-04-10T08:35:58Z</time></trkpt><trkpt lat="44.672330741792024" lon="11.633082005951085"><ele>5.0</ele><time>2026-04-10T08:35:59Z</time></trkpt><trkpt lat="44.672138877305805" lon="11.633273250361967"><ele>5.0</ele><time>2026-04-10T08:36:00Z</time></trkpt><trkpt lat="44.671947945354255" lon="11.633466230170335"><ele>5.0</ele><time>2026-04-10T08:36:01Z</time></trkpt><trkpt lat="44.67175870338963" lon="11.633658465738616"><ele>5.0</ele><time>2026-04-10T08:36:02Z</time></trkpt><trkpt lat="44.671568827901886" lon="11.633853002081729"><ele>5.0</ele><time>2026-04-10T08:36:03Z</time></trkpt><trkpt lat="44.671378770236366" lon="11.634045833162267"><ele>5.0</ele><time>2026-04-10T08:36:04Z</time></trkpt><trkpt lat="44.671187396882125" lon="11.634241261014338"><ele>5.0</ele><time>2026-04-10T08:36:05Z</time></trkpt><trkpt lat="44.670982884164225" lon="11.634455603234613"><ele>5.0</ele><time>2026-04-10T08:36:06Z</time></trkpt><trkpt lat="44.67076094674486" lon="11.63465025851577"><ele>5.0</ele><time>2026-04-10T08:36:07Z</time></trkpt><trkpt lat="44.670555212448996" lon="11.634865647537403"><ele>5.0</ele><time>2026-04-10T08:36:08Z</time></trkpt><trkpt lat="44.67034948298292" lon="11.635073386601917"><ele>5.5</ele><time>2026-04-10T08:36:09Z</time></trkpt><trkpt lat="44.670143864927596" lon="11.635281013170445"><ele>6.0</ele><time>2026-04-10T08:36:10Z</time></trkpt><trkpt lat="44.669945045792815" lon="11.635481774398752"><ele>6.0</ele><time>2026-04-10T08:36:11Z</time></trkpt><trkpt lat="44.66975561553631" lon="11.635673150988357"><ele>6.0</ele><time>2026-04-10T08:36:12Z</time></trkpt><trkpt lat="44.669575866781464" lon="11.635854922306489"><ele>6.0</ele><time>2026-04-10T08:36:13Z</time></trkpt><trkpt lat="44.669398794599196" lon="11.636033986924861"><ele>6.0</ele><time>2026-04-10T08:36:14Z</time></trkpt><trkpt lat="44.669235067391966" lon="11.636222464613661"><ele>6.0</ele><time>2026-04-10T08:36:15Z</time></trkpt><trkpt lat="44.66906688748257" lon="11.636383633808034"><ele>6.0</ele><time>2026-04-10T08:36:16Z</time></trkpt><trkpt lat="44.66890888152628" lon="11.636538239493285"><ele>6.0</ele><time>2026-04-10T08:36:17Z</time></trkpt><trkpt lat="44.668770041969125" lon="11.63667720475154"><ele>6.0</ele><time>2026-04-10T08:36:18Z</time></trkpt><trkpt lat="44.66863624767785" lon="11.636812584501653"><ele>6.333333333333334</ele><time>2026-04-10T08:36:19Z</time></trkpt><trkpt lat="44.66850668905183" lon="11.636939380007824"><ele>6.666666666666667</ele><time>2026-04-10T08:36:20Z</time></trkpt><trkpt lat="44.66838015143757" lon="11.637065118537205"><ele>7.0</ele><time>2026-04-10T08:36:21Z</time></trkpt><trkpt lat="44.66825113196269" lon="11.637197791241908"><ele>7.0</ele><time>2026-04-10T08:36:22Z</time></trkpt><trkpt lat="44.66812071295743" lon="11.637330775995965"><ele>7.0</ele><time>2026-04-10T08:36:23Z</time></trkpt><trkpt lat="44.66799116265136" lon="11.63746663431805"><ele>7.0</ele><time>2026-04-10T08:36:24Z</time></trkpt><trkpt lat="44.66786449305552" lon="11.63760732606393"><ele>7.0</ele><time>2026-04-10T08:36:25Z</time></trkpt><trkpt lat="44.66772310078984" lon="11.637726111467073"><ele>7.0</ele><time>2026-04-10T08:36:26Z</time></trkpt><trkpt lat="44.66758331169324" lon="11.63786791347572"><ele>7.0</ele><time>2026-04-10T08:36:27Z</time></trkpt><trkpt lat="44.667435072791264" lon="11.638018286972411"><ele>7.0</ele><time>2026-04-10T08:36:28Z</time></trkpt><trkpt lat="44.667285137116345" lon="11.638170381669942"><ele>7.0</ele><time>2026-04-10T08:36:29Z</time></trkpt><trkpt lat="44.66713953557358" lon="11.638317896214723"><ele>7.0</ele><time>2026-04-10T08:36:30Z</time></trkpt><trkpt lat="44.66699268958953" lon="11.638465820689047"><ele>7.0</ele><time>2026-04-10T08:36:31Z</time></trkpt><trkpt lat="44.66685163959562" lon="11.638626621549715"><ele>7.0</ele><time>2026-04-10T08:36:32Z</time></trkpt><trkpt lat="44.66670685777366" lon="11.638773280042907"><ele>7.0</ele><time>2026-04-10T08:36:33Z</time></trkpt><trkpt lat="44.66656658593413" lon="11.63891353837595"><ele>7.666666666666667</ele><time>2026-04-10T08:36:34Z</time></trkpt><trkpt lat="44.666424907128665" lon="11.639053366959127"><ele>8.333333333333334</ele><time>2026-04-10T08:36:35Z</time></trkpt><trkpt lat="44.66628136780643" lon="11.639194193318065"><ele>9.0</ele><time>2026-04-10T08:36:36Z</time></trkpt><trkpt lat="44.66614135494264" lon="11.63933647729675"><ele>8.0</ele><time>2026-04-10T08:36:37Z</time></trkpt><trkpt lat="44.66600457980239" lon="11.639476664941924"><ele>7.0</ele><time>2026-04-10T08:36:38Z</time></trkpt><trkpt lat="44.665868153287214" lon="11.639616027451154"><ele>6.0</ele><time>2026-04-10T08:36:39Z</time></trkpt><trkpt lat="44.66572844320945" lon="11.63975830447709"><ele>6.0</ele><time>2026-04-10T08:36:40Z</time></trkpt><trkpt lat="44.66559046745018" lon="11.639903306547389"><ele>6.0</ele><time>2026-04-10T08:36:41Z</time></trkpt><trkpt lat="44.665450344636454" lon="11.640048185796747"><ele>6.0</ele><time>2026-04-10T08:36:42Z</time></trkpt><trkpt lat="44.66530716833678" lon="11.640193552461794"><ele>6.666666666666666</ele><time>2026-04-10T08:36:43Z</time></trkpt><trkpt lat="44.665161951447026" lon="11.64033974850495"><ele>7.333333333333333</ele><time>2026-04-10T08:36:44Z</time></trkpt><trkpt lat="44.66501418370107" lon="11.64049161188491"><ele>8.0</ele><time>2026-04-10T08:36:45Z</time></trkpt><trkpt lat="44.664863017200744" lon="11.640646516514709"><ele>8.0</ele><time>2026-04-10T08:36:46Z</time></trkpt><trkpt lat="44.66470650286872" lon="11.640804587084846"><ele>8.0</ele><time>2026-04-10T08:36:47Z</time></trkpt><trkpt lat="44.66454735264389" lon="11.640965519002025"><ele>8.0</ele><time>2026-04-10T08:36:48Z</time></trkpt><trkpt lat="44.66439031910375" lon="11.64112672386672"><ele>8.333333333333332</ele><time>2026-04-10T08:36:49Z</time></trkpt><trkpt lat="44.66423248289398" lon="11.641284757120705"><ele>8.666666666666666</ele><time>2026-04-10T08:36:50Z</time></trkpt><trkpt lat="44.664075236918364" lon="11.64144148773937"><ele>9.0</ele><time>2026-04-10T08:36:51Z</time></trkpt><trkpt lat="44.66391969769918" lon="11.641601133621965"><ele>9.0</ele><time>2026-04-10T08:36:52Z</time></trkpt><trkpt lat="44.66376457376755" lon="11.641760419460716"><ele>9.0</ele><time>2026-04-10T08:36:53Z</time></trkpt><trkpt lat="44.66361304188939" lon="11.641916107051571"><ele>9.0</ele><time>2026-04-10T08:36:54Z</time></trkpt><trkpt lat="44.66346468722092" lon="11.642070271320506"><ele>8.666666666666666</ele><time>2026-04-10T08:36:55Z</time></trkpt><trkpt lat="44.663317653264976" lon="11.642224057530008"><ele>8.333333333333332</ele><time>2026-04-10T08:36:56Z</time></trkpt><trkpt lat="44.66317092833569" lon="11.642374776688394"><ele>8.0</ele><time>2026-04-10T08:36:57Z</time></trkpt><trkpt lat="44.66302857405305" lon="11.642519573283797"><ele>8.0</ele><time>2026-04-10T08:36:58Z</time></trkpt><trkpt lat="44.66288870797069" lon="11.642655652630914"><ele>8.0</ele><time>2026-04-10T08:36:59Z</time></trkpt><trkpt lat="44.662750884316544" lon="11.642790596619548"><ele>8.0</ele><time>2026-04-10T08:37:00Z</time></trkpt><trkpt lat="44.662614412245816" lon="11.64292860816609"><ele>8.0</ele><time>2026-04-10T08:37:01Z</time></trkpt><trkpt lat="44.662481701058454" lon="11.643068440045175"><ele>8.0</ele><time>2026-04-10T08:37:02Z</time></trkpt><trkpt lat="44.66235037513955" lon="11.643203396011158"><ele>8.0</ele><time>2026-04-10T08:37:03Z</time></trkpt><trkpt lat="44.6622219067337" lon="11.643335541489641"><ele>8.0</ele><time>2026-04-10T08:37:04Z</time></trkpt><trkpt lat="44.66209702976744" lon="11.643461509369327"><ele>8.0</ele><time>2026-04-10T08:37:05Z</time></trkpt><trkpt lat="44.66197633929362" lon="11.643583823660226"><ele>8.0</ele><time>2026-04-10T08:37:06Z</time></trkpt><trkpt lat="44.66186111929997" lon="11.643702527047383"><ele>8.0</ele><time>2026-04-10T08:37:07Z</time></trkpt><trkpt lat="44.66175719009122" lon="11.64380624420841"><ele>8.200000000000001</ele><time>2026-04-10T08:37:08Z</time></trkpt><trkpt lat="44.6616711471525" lon="11.643890936435696"><ele>8.4</ele><time>2026-04-10T08:37:09Z</time></trkpt><trkpt lat="44.66158913471322" lon="11.643973369056173"><ele>8.600000000000001</ele><time>2026-04-10T08:37:10Z</time></trkpt><trkpt lat="44.661516064840804" lon="11.644043343497586"><ele>8.8</ele><time>2026-04-10T08:37:11Z</time></trkpt><trkpt lat="44.66144444821578" lon="11.644108569387997"><ele>9.0</ele><time>2026-04-10T08:37:12Z</time></trkpt><trkpt lat="44.66137254325408" lon="11.644173547220971"><ele>9.0</ele><time>2026-04-10T08:37:13Z</time></trkpt><trkpt lat="44.661299591135865" lon="11.6442480839498"><ele>9.0</ele><time>2026-04-10T08:37:14Z</time></trkpt><trkpt lat="44.66123278832381" lon="11.644322606418998"><ele>9.0</ele><time>2026-04-10T08:37:15Z</time></trkpt><trkpt lat="44.661158484107894" lon="11.644398518185838"><ele>9.0</ele><time>2026-04-10T08:37:16Z</time></trkpt><trkpt lat="44.66108592995844" lon="11.64447342952938"><ele>9.0</ele><time>2026-04-10T08:37:17Z</time></trkpt><trkpt lat="44.66101089212093" lon="11.644546206975845"><ele>9.0</ele><time>2026-04-10T08:37:18Z</time></trkpt><trkpt lat="44.660927858011775" lon="11.644618298239656"><ele>8.8</ele><time>2026-04-10T08:37:19Z</time></trkpt><trkpt lat="44.66084550789391" lon="11.644690067502722"><ele>8.600000000000001</ele><time>2026-04-10T08:37:20Z</time></trkpt><trkpt lat="44.66076205457105" lon="11.644768892784711"><ele>8.4</ele><time>2026-04-10T08:37:21Z</time></trkpt><trkpt lat="44.660685706294444" lon="11.644861126685003"><ele>8.200000000000001</ele><time>2026-04-10T08:37:22Z</time></trkpt><trkpt lat="44.66060444761053" lon="11.644953352569035"><ele>8.0</ele><time>2026-04-10T08:37:23Z</time></trkpt><trkpt lat="44.66052153878955" lon="11.645040061722513"><ele>8.0</ele><time>2026-04-10T08:37:24Z</time></trkpt><trkpt lat="44.66043120096765" lon="11.64512140176912"><ele>8.0</ele><time>2026-04-10T08:37:25Z</time></trkpt><trkpt lat="44.66035667239391" lon="11.64520201752866"><ele>8.0</ele><time>2026-04-10T08:37:26Z</time></trkpt><trkpt lat="44.660272976258426" lon="11.645282203011577"><ele>8.0</ele><time>2026-04-10T08:37:27Z</time></trkpt><trkpt lat="44.660181045548924" lon="11.645370911988413"><ele>8.0</ele><time>2026-04-10T08:37:28Z</time></trkpt><trkpt lat="44.66008170236575" lon="11.645465387391482"><ele>8.0</ele><time>2026-04-10T08:37:29Z</time></trkpt><trkpt lat="44.65999106068849" lon="11.645552507101744"><ele>8.0</ele><time>2026-04-10T08:37:30Z</time></trkpt><trkpt lat="44.659903983127705" lon="11.645642779397015"><ele>8.0</ele><time>2026-04-10T08:37:31Z</time></trkpt><trkpt lat="44.65981425531546" lon="11.645734248879444"><ele>8.0</ele><time>2026-04-10T08:37:32Z</time></trkpt><trkpt lat="44.65972120229373" lon="11.64582869464509"><ele>8.0</ele><time>2026-04-10T08:37:33Z</time></trkpt><trkpt lat="44.659628127746295" lon="11.645924862299296"><ele>8.0</ele><time>2026-04-10T08:37:34Z</time></trkpt><trkpt lat="44.659539694255336" lon="11.64601735944459"><ele>8.0</ele><time>2026-04-10T08:37:35Z</time></trkpt><trkpt lat="44.65945098465052" lon="11.646104780307317"><ele>8.0</ele><time>2026-04-10T08:37:36Z</time></trkpt><trkpt lat="44.659367804815304" lon="11.646192086959596"><ele>8.0</ele><time>2026-04-10T08:37:37Z</time></trkpt><trkpt lat="44.659300943864224" lon="11.646261160697424"><ele>8.0</ele><time>2026-04-10T08:37:38Z</time></trkpt><trkpt lat="44.65924311945609" lon="11.646320613648747"><ele>8.166666666666666</ele><time>2026-04-10T08:37:39Z</time></trkpt><trkpt lat="44.65918843136252" lon="11.64637320046248"><ele>8.333333333333332</ele><time>2026-04-10T08:37:40Z</time></trkpt><trkpt lat="44.6591354777432" lon="11.646424114676794"><ele>8.5</ele><time>2026-04-10T08:37:41Z</time></trkpt><trkpt lat="44.65907952715032" lon="11.646482140716948"><ele>8.666666666666666</ele><time>2026-04-10T08:37:42Z</time></trkpt><trkpt lat="44.65901306204496" lon="11.646553449267055"><ele>8.833333333333334</ele><time>2026-04-10T08:37:43Z</time></trkpt><trkpt lat="44.65893278932334" lon="11.646639488652434"><ele>9.0</ele><time>2026-04-10T08:37:44Z</time></trkpt><trkpt lat="44.65885173635413" lon="11.646721124821218"><ele>9.0</ele><time>2026-04-10T08:37:45Z</time></trkpt><trkpt lat="44.658761068090605" lon="11.646787472027116"><ele>9.0</ele><time>2026-04-10T08:37:46Z</time></trkpt><trkpt lat="44.658666137798534" lon="11.646883107561283"><ele>9.0</ele><time>2026-04-10T08:37:47Z</time></trkpt><trkpt lat="44.65855745680391" lon="11.646992359602057"><ele>9.0</ele><time>2026-04-10T08:37:48Z</time></trkpt><trkpt lat="44.65843974501593" lon="11.647110689887848"><ele>8.333333333333334</ele><time>2026-04-10T08:37:49Z</time></trkpt><trkpt lat="44.658312459606535" lon="11.647239016498405"><ele>7.666666666666667</ele><time>2026-04-10T08:37:50Z</time></trkpt><trkpt lat="44.65816722018923" lon="11.647385804961216"><ele>7.0</ele><time>2026-04-10T08:37:51Z</time></trkpt><trkpt lat="44.65802083798026" lon="11.64753375000064"><ele>7.0</ele><time>2026-04-10T08:37:52Z</time></trkpt><trkpt lat="44.65788324919927" lon="11.647672561994604"><ele>7.0</ele><time>2026-04-10T08:37:53Z</time></trkpt><trkpt lat="44.65775326056949" lon="11.647803461481725"><ele>7.0</ele><time>2026-04-10T08:37:54Z</time></trkpt><trkpt lat="44.65762567965783" lon="11.647931936387144"><ele>8.333333333333334</ele><time>2026-04-10T08:37:55Z</time></trkpt><trkpt lat="44.65750338621289" lon="11.648055086753974"><ele>9.666666666666666</ele><time>2026-04-10T08:37:56Z</time></trkpt><trkpt lat="44.65737773876262" lon="11.648181614611898"><ele>11.0</ele><time>2026-04-10T08:37:57Z</time></trkpt><trkpt lat="44.65725511050531" lon="11.648326209760734"><ele>11.0</ele><time>2026-04-10T08:37:58Z</time></trkpt><trkpt lat="44.657129335565806" lon="11.648448855779604"><ele>11.0</ele><time>2026-04-10T08:37:59Z</time></trkpt><trkpt lat="44.65701286335094" lon="11.648582819198767"><ele>11.0</ele><time>2026-04-10T08:38:00Z</time></trkpt><trkpt lat="44.65689769914576" lon="11.648729461506223"><ele>10.666666666666666</ele><time>2026-04-10T08:38:01Z</time></trkpt><trkpt lat="44.65678787101586" lon="11.64890271387419"><ele>10.333333333333334</ele><time>2026-04-10T08:38:02Z</time></trkpt><trkpt lat="44.65668309086255" lon="11.649094468284513"><ele>10.0</ele><time>2026-04-10T08:38:03Z</time></trkpt><trkpt lat="44.65658061568343" lon="11.649289382919187"><ele>9.333333333333334</ele><time>2026-04-10T08:38:04Z</time></trkpt><trkpt lat="44.656472721681496" lon="11.649481204960157"><ele>8.666666666666666</ele><time>2026-04-10T08:38:05Z</time></trkpt><trkpt lat="44.65636582587203" lon="11.649676061958676"><ele>8.0</ele><time>2026-04-10T08:38:06Z</time></trkpt><trkpt lat="44.65625593959554" lon="11.64987159665366"><ele>8.0</ele><time>2026-04-10T08:38:07Z</time></trkpt><trkpt lat="44.65614772737421" lon="11.650075225362995"><ele>8.0</ele><time>2026-04-10T08:38:08Z</time></trkpt><trkpt lat="44.65604353346886" lon="11.650275112253588"><ele>8.0</ele><time>2026-04-10T08:38:09Z</time></trkpt><trkpt lat="44.65593237661145" lon="11.650473014417644"><ele>8.0</ele><time>2026-04-10T08:38:10Z</time></trkpt><trkpt lat="44.65581953262326" lon="11.65067180959759"><ele>8.0</ele><time>2026-04-10T08:38:11Z</time></trkpt><trkpt lat="44.65570178517455" lon="11.650865577611318"><ele>8.0</ele><time>2026-04-10T08:38:12Z</time></trkpt><trkpt lat="44.65559007246985" lon="11.651064659427798"><ele>7.666666666666666</ele><time>2026-04-10T08:38:13Z</time></trkpt><trkpt lat="44.655488473047086" lon="11.65125737323539"><ele>7.333333333333334</ele><time>2026-04-10T08:38:14Z</time></trkpt><trkpt lat="44.655390283285044" lon="11.651447862050627"><ele>7.0</ele><time>2026-04-10T08:38:15Z</time></trkpt><trkpt lat="44.65529537345068" lon="11.651641515959314"><ele>7.666666666666667</ele><time>2026-04-10T08:38:16Z</time></trkpt><trkpt lat="44.655202647061984" lon="11.651845141670421"><ele>8.333333333333334</ele><time>2026-04-10T08:38:17Z</time></trkpt><trkpt lat="44.65510953219865" lon="11.65205580329208"><ele>9.0</ele><time>2026-04-10T08:38:18Z</time></trkpt><trkpt lat="44.655014260748935" lon="11.65226775704482"><ele>9.333333333333334</ele><time>2026-04-10T08:38:19Z</time></trkpt><trkpt lat="44.65491523654986" lon="11.652489142869046"><ele>9.666666666666668</ele><time>2026-04-10T08:38:20Z</time></trkpt><trkpt lat="44.65481508074469" lon="11.652710766532184"><ele>10.0</ele><time>2026-04-10T08:38:21Z</time></trkpt><trkpt lat="44.65470989040313" lon="11.652934523719752"><ele>10.0</ele><time>2026-04-10T08:38:22Z</time></trkpt><trkpt lat="44.65458697129715" lon="11.653139324289082"><ele>10.0</ele><time>2026-04-10T08:38:23Z</time></trkpt><trkpt lat="44.6544495137481" lon="11.653332604955494"><ele>10.0</ele><time>2026-04-10T08:38:24Z</time></trkpt><trkpt lat="44.65431105714731" lon="11.653526575398377"><ele>9.333333333333334</ele><time>2026-04-10T08:38:25Z</time></trkpt><trkpt lat="44.654174345310054" lon="11.653720451291607"><ele>8.666666666666666</ele><time>2026-04-10T08:38:26Z</time></trkpt><trkpt lat="44.65404335781623" lon="11.65390153210505"><ele>8.0</ele><time>2026-04-10T08:38:27Z</time></trkpt><trkpt lat="44.65391488815465" lon="11.65406480122581"><ele>8.0</ele><time>2026-04-10T08:38:28Z</time></trkpt><trkpt lat="44.65379236724398" lon="11.654215231969847"><ele>8.0</ele><time>2026-04-10T08:38:29Z</time></trkpt><trkpt lat="44.65367508354599" lon="11.654353753308198"><ele>8.0</ele><time>2026-04-10T08:38:30Z</time></trkpt><trkpt lat="44.653558349081436" lon="11.65448817104841"><ele>7.666666666666666</ele><time>2026-04-10T08:38:31Z</time></trkpt><trkpt lat="44.65343301337945" lon="11.654645495569211"><ele>7.333333333333334</ele><time>2026-04-10T08:38:32Z</time></trkpt><trkpt lat="44.65330684672476" lon="11.654832407612336"><ele>7.0</ele><time>2026-04-10T08:38:33Z</time></trkpt><trkpt lat="44.653175640259846" lon="11.655037951035037"><ele>7.0</ele><time>2026-04-10T08:38:34Z</time></trkpt><trkpt lat="44.653042325514065" lon="11.655260551172187"><ele>7.0</ele><time>2026-04-10T08:38:35Z</time></trkpt><trkpt lat="44.65290339626477" lon="11.65549868648794"><ele>7.0</ele><time>2026-04-10T08:38:36Z</time></trkpt><trkpt lat="44.652763512084256" lon="11.6557327420889"><ele>7.333333333333334</ele><time>2026-04-10T08:38:37Z</time></trkpt><trkpt lat="44.652623124418554" lon="11.655962711533274"><ele>7.666666666666666</ele><time>2026-04-10T08:38:38Z</time></trkpt><trkpt lat="44.652483067960084" lon="11.656196395547843"><ele>8.0</ele><time>2026-04-10T08:38:39Z</time></trkpt><trkpt lat="44.652343746075815" lon="11.656430836375321"><ele>8.0</ele><time>2026-04-10T08:38:40Z</time></trkpt><trkpt lat="44.6522030976016" lon="11.656664594314142"><ele>8.0</ele><time>2026-04-10T08:38:41Z</time></trkpt><trkpt lat="44.65205957681851" lon="11.656898158891831"><ele>8.0</ele><time>2026-04-10T08:38:42Z</time></trkpt><trkpt lat="44.65191411963477" lon="11.657134821556994"><ele>8.5</ele><time>2026-04-10T08:38:43Z</time></trkpt><trkpt lat="44.65176703989856" lon="11.657375573435154"><ele>9.0</ele><time>2026-04-10T08:38:44Z</time></trkpt><trkpt lat="44.65161988195113" lon="11.657617995536665"><ele>9.0</ele><time>2026-04-10T08:38:45Z</time></trkpt><trkpt lat="44.65147175316265" lon="11.657864384848223"><ele>9.0</ele><time>2026-04-10T08:38:46Z</time></trkpt><trkpt lat="44.651324737441165" lon="11.658112010611335"><ele>9.0</ele><time>2026-04-10T08:38:47Z</time></trkpt><trkpt lat="44.65117952109208" lon="11.65835371929849"><ele>9.0</ele><time>2026-04-10T08:38:48Z</time></trkpt><trkpt lat="44.651036713809944" lon="11.658592702726088"><ele>9.0</ele><time>2026-04-10T08:38:49Z</time></trkpt><trkpt lat="44.65089233969633" lon="11.658829851839384"><ele>8.666666666666666</ele><time>2026-04-10T08:38:50Z</time></trkpt><trkpt lat="44.650746966671115" lon="11.659064666427666"><ele>8.333333333333332</ele><time>2026-04-10T08:38:51Z</time></trkpt><trkpt lat="44.65060359185241" lon="11.659299318445349"><ele>8.0</ele><time>2026-04-10T08:38:52Z</time></trkpt><trkpt lat="44.65046241148606" lon="11.659536740108411"><ele>8.666666666666666</ele><time>2026-04-10T08:38:53Z</time></trkpt><trkpt lat="44.65032149929215" lon="11.65977409295538"><ele>9.333333333333334</ele><time>2026-04-10T08:38:54Z</time></trkpt><trkpt lat="44.65017993788537" lon="11.660009852549654"><ele>10.0</ele><time>2026-04-10T08:38:55Z</time></trkpt><trkpt lat="44.65003698408978" lon="11.660244736977937"><ele>10.333333333333334</ele><time>2026-04-10T08:38:56Z</time></trkpt><trkpt lat="44.64989291161538" lon="11.660478903998063"><ele>10.666666666666666</ele><time>2026-04-10T08:38:57Z</time></trkpt><trkpt lat="44.649750186361736" lon="11.660711142898741"><ele>11.0</ele><time>2026-04-10T08:38:58Z</time></trkpt><trkpt lat="44.64960877243366" lon="11.660943454282918"><ele>10.666666666666666</ele><time>2026-04-10T08:38:59Z</time></trkpt><trkpt lat="44.649468371162044" lon="11.661178004101656"><ele>10.333333333333334</ele><time>2026-04-10T08:39:00Z</time></trkpt><trkpt lat="44.64932932091669" lon="11.661410877382224"><ele>10.0</ele><time>2026-04-10T08:39:01Z</time></trkpt><trkpt lat="44.64919110013768" lon="11.661645327024239"><ele>10.0</ele><time>2026-04-10T08:39:02Z</time></trkpt><trkpt lat="44.64905140190657" lon="11.661878623044114"><ele>10.0</ele><time>2026-04-10T08:39:03Z</time></trkpt><trkpt lat="44.648907883935806" lon="11.662112106124185"><ele>10.0</ele><time>2026-04-10T08:39:04Z</time></trkpt><trkpt lat="44.64876173601536" lon="11.662343978776539"><ele>9.0</ele><time>2026-04-10T08:39:05Z</time></trkpt><trkpt lat="44.648616465405354" lon="11.662579200190377"><ele>8.0</ele><time>2026-04-10T08:39:06Z</time></trkpt><trkpt lat="44.64847380825224" lon="11.66281915400194"><ele>7.0</ele><time>2026-04-10T08:39:07Z</time></trkpt><trkpt lat="44.64832972331802" lon="11.663062979592091"><ele>6.5</ele><time>2026-04-10T08:39:08Z</time></trkpt><trkpt lat="44.648183022758715" lon="11.663305088551317"><ele>6.0</ele><time>2026-04-10T08:39:09Z</time></trkpt><trkpt lat="44.648034050390756" lon="11.663550143443798"><ele>6.0</ele><time>2026-04-10T08:39:10Z</time></trkpt><trkpt lat="44.64788485537763" lon="11.663794834559093"><ele>6.0</ele><time>2026-04-10T08:39:11Z</time></trkpt><trkpt lat="44.64773462138698" lon="11.664040630239096"><ele>7.0</ele><time>2026-04-10T08:39:12Z</time></trkpt><trkpt lat="44.64758329646852" lon="11.664287611299306"><ele>8.0</ele><time>2026-04-10T08:39:13Z</time></trkpt><trkpt lat="44.647432424336785" lon="11.664533818817096"><ele>8.0</ele><time>2026-04-10T08:39:14Z</time></trkpt><trkpt lat="44.64728341516742" lon="11.664781590713952"><ele>8.0</ele><time>2026-04-10T08:39:15Z</time></trkpt><trkpt lat="44.6471329591479" lon="11.665029978872289"><ele>8.0</ele><time>2026-04-10T08:39:16Z</time></trkpt><trkpt lat="44.6469808981026" lon="11.665278728005902"><ele>8.0</ele><time>2026-04-10T08:39:17Z</time></trkpt><trkpt lat="44.64682925138991" lon="11.665527023114134"><ele>8.5</ele><time>2026-04-10T08:39:18Z</time></trkpt><trkpt lat="44.646676156770006" lon="11.665780622988448"><ele>9.0</ele><time>2026-04-10T08:39:19Z</time></trkpt><trkpt lat="44.64652270062755" lon="11.666034779255673"><ele>9.0</ele><time>2026-04-10T08:39:20Z</time></trkpt><trkpt lat="44.64637006321188" lon="11.666289413861506"><ele>9.0</ele><time>2026-04-10T08:39:21Z</time></trkpt><trkpt lat="44.64621727055171" lon="11.666546501031743"><ele>9.0</ele><time>2026-04-10T08:39:22Z</time></trkpt><trkpt lat="44.64606305827609" lon="11.666802415366144"><ele>9.0</ele><time>2026-04-10T08:39:23Z</time></trkpt><trkpt lat="44.64590983912907" lon="11.667061286040273"><ele>9.0</ele><time>2026-04-10T08:39:24Z</time></trkpt><trkpt lat="44.645758261653405" lon="11.667319561544227"><ele>9.0</ele><time>2026-04-10T08:39:25Z</time></trkpt><trkpt lat="44.64560603242985" lon="11.667574449938632"><ele>8.0</ele><time>2026-04-10T08:39:26Z</time></trkpt><trkpt lat="44.645454235922465" lon="11.667820335977652"><ele>7.0</ele><time>2026-04-10T08:39:27Z</time></trkpt><trkpt lat="44.645303108219565" lon="11.668067026028153"><ele>7.0</ele><time>2026-04-10T08:39:28Z</time></trkpt><trkpt lat="44.64515223028019" lon="11.668309827841632"><ele>7.0</ele><time>2026-04-10T08:39:29Z</time></trkpt><trkpt lat="44.645004185477106" lon="11.668554530927581"><ele>6.5</ele><time>2026-04-10T08:39:30Z</time></trkpt><trkpt lat="44.64485870776068" lon="11.668800436142401"><ele>6.0</ele><time>2026-04-10T08:39:31Z</time></trkpt><trkpt lat="44.64471756895205" lon="11.669045647765543"><ele>6.0</ele><time>2026-04-10T08:39:32Z</time></trkpt><trkpt lat="44.64458123934406" lon="11.669292368936189"><ele>6.0</ele><time>2026-04-10T08:39:33Z</time></trkpt><trkpt lat="44.64445135537547" lon="11.669545380844177"><ele>6.0</ele><time>2026-04-10T08:39:34Z</time></trkpt><trkpt lat="44.64432830606278" lon="11.669801869910458"><ele>6.0</ele><time>2026-04-10T08:39:35Z</time></trkpt><trkpt lat="44.644207566618434" lon="11.670059683615989"><ele>6.0</ele><time>2026-04-10T08:39:36Z</time></trkpt><trkpt lat="44.64408840701729" lon="11.670317572977954"><ele>6.0</ele><time>2026-04-10T08:39:37Z</time></trkpt><trkpt lat="44.64397122502725" lon="11.670577757412458"><ele>6.0</ele><time>2026-04-10T08:39:38Z</time></trkpt><trkpt lat="44.64385429287741" lon="11.670837384922919"><ele>6.0</ele><time>2026-04-10T08:39:39Z</time></trkpt><trkpt lat="44.643737317863994" lon="11.67109461783304"><ele>6.0</ele><time>2026-04-10T08:39:40Z</time></trkpt><trkpt lat="44.64362322588592" lon="11.671357140977827"><ele>6.0</ele><time>2026-04-10T08:39:41Z</time></trkpt><trkpt lat="44.64351213803738" lon="11.67162279801853"><ele>6.0</ele><time>2026-04-10T08:39:42Z</time></trkpt><trkpt lat="44.643405988362865" lon="11.671895770622843"><ele>6.0</ele><time>2026-04-10T08:39:43Z</time></trkpt><trkpt lat="44.64330254495332" lon="11.672171013218522"><ele>6.333333333333334</ele><time>2026-04-10T08:39:44Z</time></trkpt><trkpt lat="44.64320163228098" lon="11.672445815734292"><ele>6.666666666666667</ele><time>2026-04-10T08:39:45Z</time></trkpt><trkpt lat="44.64309648877653" lon="11.6727234211252"><ele>7.0</ele><time>2026-04-10T08:39:46Z</time></trkpt><trkpt lat="44.642989084767" lon="11.67299873602197"><ele>7.0</ele><time>2026-04-10T08:39:47Z</time></trkpt><trkpt lat="44.64288237444885" lon="11.673277277326207"><ele>7.0</ele><time>2026-04-10T08:39:48Z</time></trkpt><trkpt lat="44.64277895416861" lon="11.67356304014674"><ele>8.0</ele><time>2026-04-10T08:39:49Z</time></trkpt><trkpt lat="44.64267990324826" lon="11.673850669442846"><ele>9.0</ele><time>2026-04-10T08:39:50Z</time></trkpt><trkpt lat="44.64258370636473" lon="11.67414279429937"><ele>9.0</ele><time>2026-04-10T08:39:51Z</time></trkpt><trkpt lat="44.64249029956574" lon="11.674432407512079"><ele>9.0</ele><time>2026-04-10T08:39:52Z</time></trkpt><trkpt lat="44.64239628196721" lon="11.674713974268858"><ele>9.0</ele><time>2026-04-10T08:39:53Z</time></trkpt><trkpt lat="44.64230182566983" lon="11.674993197877544"><ele>8.666666666666666</ele><time>2026-04-10T08:39:54Z</time></trkpt><trkpt lat="44.64220493706383" lon="11.67527178016123"><ele>8.333333333333332</ele><time>2026-04-10T08:39:55Z</time></trkpt><trkpt lat="44.642112036327326" lon="11.675554189818845"><ele>8.0</ele><time>2026-04-10T08:39:56Z</time></trkpt><trkpt lat="44.64202083267134" lon="11.675839199246681"><ele>8.666666666666666</ele><time>2026-04-10T08:39:57Z</time></trkpt><trkpt lat="44.64192694575764" lon="11.67611816874529"><ele>9.333333333333334</ele><time>2026-04-10T08:39:58Z</time></trkpt><trkpt lat="44.64183325510359" lon="11.676399764204906"><ele>10.0</ele><time>2026-04-10T08:39:59Z</time></trkpt><trkpt lat="44.64173682870398" lon="11.676683146666623"><ele>9.0</ele><time>2026-04-10T08:40:00Z</time></trkpt><trkpt lat="44.6416420143453" lon="11.676968735049973"><ele>8.0</ele><time>2026-04-10T08:40:01Z</time></trkpt><trkpt lat="44.64154857677079" lon="11.677258516509498"><ele>8.0</ele><time>2026-04-10T08:40:02Z</time></trkpt><trkpt lat="44.64145199768712" lon="11.677550964586567"><ele>8.0</ele><time>2026-04-10T08:40:03Z</time></trkpt><trkpt lat="44.641356304015986" lon="11.677842028969298"><ele>6.0</ele><time>2026-04-10T08:40:04Z</time></trkpt><trkpt lat="44.64126024371396" lon="11.678132731620503"><ele>4.0</ele><time>2026-04-10T08:40:05Z</time></trkpt><trkpt lat="44.64116450263116" lon="11.678421890423262"><ele>5.5</ele><time>2026-04-10T08:40:06Z</time></trkpt><trkpt lat="44.64106849591396" lon="11.67871109045416"><ele>7.0</ele><time>2026-04-10T08:40:07Z</time></trkpt><trkpt lat="44.64097406556073" lon="11.678999022214247"><ele>7.0</ele><time>2026-04-10T08:40:08Z</time></trkpt><trkpt lat="44.640878687987104" lon="11.679287798789678"><ele>7.0</ele><time>2026-04-10T08:40:09Z</time></trkpt><trkpt lat="44.64078484434193" lon="11.679576400459833"><ele>6.666666666666667</ele><time>2026-04-10T08:40:10Z</time></trkpt><trkpt lat="44.64068887815651" lon="11.679862186925162"><ele>6.333333333333334</ele><time>2026-04-10T08:40:11Z</time></trkpt><trkpt lat="44.64059554091175" lon="11.680148974698577"><ele>6.0</ele><time>2026-04-10T08:40:12Z</time></trkpt><trkpt lat="44.64050057667993" lon="11.680430785286966"><ele>5.666666666666667</ele><time>2026-04-10T08:40:13Z</time></trkpt><trkpt lat="44.64040930038859" lon="11.680704133346286"><ele>5.333333333333334</ele><time>2026-04-10T08:40:14Z</time></trkpt><trkpt lat="44.64032009407085" lon="11.680978747849176"><ele>5.0</ele><time>2026-04-10T08:40:15Z</time></trkpt><trkpt lat="44.64023400416501" lon="11.681252327519307"><ele>5.666666666666667</ele><time>2026-04-10T08:40:16Z</time></trkpt><trkpt lat="44.64014894506432" lon="11.681522381173384"><ele>6.333333333333334</ele><time>2026-04-10T08:40:17Z</time></trkpt><trkpt lat="44.64006353736572" lon="11.681786454687172"><ele>7.0</ele><time>2026-04-10T08:40:18Z</time></trkpt><trkpt lat="44.63997668087657" lon="11.682041387386617"><ele>7.666666666666667</ele><time>2026-04-10T08:40:19Z</time></trkpt><trkpt lat="44.63989000832921" lon="11.6822936568477"><ele>8.333333333333334</ele><time>2026-04-10T08:40:20Z</time></trkpt><trkpt lat="44.63980675248031" lon="11.682546518957716"><ele>9.0</ele><time>2026-04-10T08:40:21Z</time></trkpt><trkpt lat="44.639722868524274" lon="11.682799475246687"><ele>9.0</ele><time>2026-04-10T08:40:22Z</time></trkpt><trkpt lat="44.63964362056825" lon="11.683053208604164"><ele>9.0</ele><time>2026-04-10T08:40:23Z</time></trkpt><trkpt lat="44.6395646343423" lon="11.683299732668326"><ele>9.0</ele><time>2026-04-10T08:40:24Z</time></trkpt><trkpt lat="44.63948229295554" lon="11.683543785381033"><ele>7.666666666666667</ele><time>2026-04-10T08:40:25Z</time></trkpt><trkpt lat="44.63940381121785" lon="11.683781779126939"><ele>6.333333333333334</ele><time>2026-04-10T08:40:26Z</time></trkpt><trkpt lat="44.63932660612014" lon="11.684014742835702"><ele>5.0</ele><time>2026-04-10T08:40:27Z</time></trkpt><trkpt lat="44.63925760753284" lon="11.684236421964922"><ele>5.0</ele><time>2026-04-10T08:40:28Z</time></trkpt><trkpt lat="44.63919280362854" lon="11.684434091740753"><ele>5.0</ele><time>2026-04-10T08:40:29Z</time></trkpt><trkpt lat="44.63913541043703" lon="11.684613959233928"><ele>5.0</ele><time>2026-04-10T08:40:30Z</time></trkpt><trkpt lat="44.63908480129724" lon="11.684773180601894"><ele>5.0</ele><time>2026-04-10T08:40:31Z</time></trkpt><trkpt lat="44.63903990383677" lon="11.684910844468584"><ele>5.0</ele><time>2026-04-10T08:40:32Z</time></trkpt><trkpt lat="44.639005486062764" lon="11.68502069672035"><ele>5.0</ele><time>2026-04-10T08:40:33Z</time></trkpt><trkpt lat="44.63897903666968" lon="11.685106059050796"><ele>5.0</ele><time>2026-04-10T08:40:34Z</time></trkpt><trkpt lat="44.638945721941354" lon="11.685213300953391"><ele>5.0</ele><time>2026-04-10T08:40:36Z</time></trkpt><trkpt lat="44.63883348380429" lon="11.685068489139947"><ele>5.0</ele><time>2026-04-10T08:40:38Z</time></trkpt><trkpt lat="44.63876353697717" lon="11.684995793704152"><ele>5.0</ele><time>2026-04-10T08:40:39Z</time></trkpt><trkpt lat="44.63869459411387" lon="11.684890098381695"><ele>5.0</ele><time>2026-04-10T08:40:40Z</time></trkpt><trkpt lat="44.6386172366924" lon="11.684778851471174"><ele>5.0</ele><time>2026-04-10T08:40:41Z</time></trkpt><trkpt lat="44.63853483327779" lon="11.684657184031057"><ele>5.0</ele><time>2026-04-10T08:40:42Z</time></trkpt><trkpt lat="44.63844862947876" lon="11.684524512860936"><ele>5.75</ele><time>2026-04-10T08:40:43Z</time></trkpt><trkpt lat="44.63835881883811" lon="11.684388066736297"><ele>6.5</ele><time>2026-04-10T08:40:44Z</time></trkpt><trkpt lat="44.63826458185262" lon="11.684245282464893"><ele>7.25</ele><time>2026-04-10T08:40:45Z</time></trkpt><trkpt lat="44.63817008945725" lon="11.684104712494003"><ele>8.0</ele><time>2026-04-10T08:40:46Z</time></trkpt><trkpt lat="44.63807063105629" lon="11.683955671971226"><ele>8.0</ele><time>2026-04-10T08:40:47Z</time></trkpt><trkpt lat="44.63796495614347" lon="11.683795902920735"><ele>8.0</ele><time>2026-04-10T08:40:48Z</time></trkpt><trkpt lat="44.637853394899594" lon="11.683631359497564"><ele>8.0</ele><time>2026-04-10T08:40:49Z</time></trkpt><trkpt lat="44.63773234417771" lon="11.683456164422484"><ele>9.0</ele><time>2026-04-10T08:40:50Z</time></trkpt><trkpt lat="44.63760535703189" lon="11.68327564007304"><ele>10.0</ele><time>2026-04-10T08:40:51Z</time></trkpt><trkpt lat="44.63747422818988" lon="11.68309068294223"><ele>11.0</ele><time>2026-04-10T08:40:52Z</time></trkpt><trkpt lat="44.637337844894304" lon="11.682896869523965"><ele>11.0</ele><time>2026-04-10T08:40:53Z</time></trkpt><trkpt lat="44.63719706020194" lon="11.682699490690709"><ele>11.0</ele><time>2026-04-10T08:40:54Z</time></trkpt><trkpt lat="44.637059562230085" lon="11.682507928076976"><ele>11.0</ele><time>2026-04-10T08:40:55Z</time></trkpt><trkpt lat="44.63692807594203" lon="11.682324634881967"><ele>11.0</ele><time>2026-04-10T08:40:56Z</time></trkpt><trkpt lat="44.63679921403151" lon="11.682146914250149"><ele>11.0</ele><time>2026-04-10T08:40:57Z</time></trkpt><trkpt lat="44.63667550146045" lon="11.681967273418064"><ele>11.0</ele><time>2026-04-10T08:40:58Z</time></trkpt><trkpt lat="44.63655845024195" lon="11.681783866065679"><ele>10.5</ele><time>2026-04-10T08:40:59Z</time></trkpt><trkpt lat="44.63632604926663" lon="11.68140647307065"><ele>10.0</ele><time>2026-04-10T08:41:01Z</time></trkpt><trkpt lat="44.636216138233394" lon="11.681221492419086"><ele>8.666666666666668</ele><time>2026-04-10T08:41:02Z</time></trkpt><trkpt lat="44.636105052574905" lon="11.681029251819535"><ele>7.333333333333334</ele><time>2026-04-10T08:41:03Z</time></trkpt><trkpt lat="44.63599834177123" lon="11.680832008616111"><ele>6.0</ele><time>2026-04-10T08:41:04Z</time></trkpt><trkpt lat="44.6358911690481" lon="11.680634194391555"><ele>6.0</ele><time>2026-04-10T08:41:05Z</time></trkpt><trkpt lat="44.635776118085744" lon="11.680427635767632"><ele>6.0</ele><time>2026-04-10T08:41:06Z</time></trkpt><trkpt lat="44.63565444170335" lon="11.680212752834763"><ele>6.0</ele><time>2026-04-10T08:41:07Z</time></trkpt><trkpt lat="44.635536602418476" lon="11.679997627527202"><ele>5.666666666666667</ele><time>2026-04-10T08:41:08Z</time></trkpt><trkpt lat="44.63542162393775" lon="11.679791315270487"><ele>5.333333333333334</ele><time>2026-04-10T08:41:09Z</time></trkpt><trkpt lat="44.63530292781186" lon="11.679582328322546"><ele>5.0</ele><time>2026-04-10T08:41:10Z</time></trkpt><trkpt lat="44.63518651144367" lon="11.679374311351907"><ele>4.666666666666667</ele><time>2026-04-10T08:41:11Z</time></trkpt><trkpt lat="44.635068916591905" lon="11.679163328272072"><ele>4.333333333333333</ele><time>2026-04-10T08:41:12Z</time></trkpt><trkpt lat="44.63495031282254" lon="11.678950008400468"><ele>4.0</ele><time>2026-04-10T08:41:13Z</time></trkpt><trkpt lat="44.63482985290276" lon="11.678734332672088"><ele>4.0</ele><time>2026-04-10T08:41:14Z</time></trkpt><trkpt lat="44.634710354085364" lon="11.678518019942633"><ele>4.0</ele><time>2026-04-10T08:41:15Z</time></trkpt><trkpt lat="44.634594597923666" lon="11.67830754523228"><ele>4.0</ele><time>2026-04-10T08:41:16Z</time></trkpt><trkpt lat="44.634476295121914" lon="11.67809807713857"><ele>4.333333333333333</ele><time>2026-04-10T08:41:17Z</time></trkpt><trkpt lat="44.63435781351591" lon="11.67788749313128"><ele>4.666666666666667</ele><time>2026-04-10T08:41:18Z</time></trkpt><trkpt lat="44.63424060638009" lon="11.677678100797161"><ele>5.0</ele><time>2026-04-10T08:41:19Z</time></trkpt><trkpt lat="44.63412611365019" lon="11.677472490054704"><ele>5.0</ele><time>2026-04-10T08:41:20Z</time></trkpt><trkpt lat="44.63401185378428" lon="11.677267334488734"><ele>5.0</ele><time>2026-04-10T08:41:21Z</time></trkpt><trkpt lat="44.63389703800338" lon="11.6770638658514"><ele>5.0</ele><time>2026-04-10T08:41:22Z</time></trkpt><trkpt lat="44.63378275522086" lon="11.676863566655594"><ele>5.0</ele><time>2026-04-10T08:41:23Z</time></trkpt><trkpt lat="44.63366991326495" lon="11.676664392804188"><ele>5.0</ele><time>2026-04-10T08:41:24Z</time></trkpt><trkpt lat="44.63355736636879" lon="11.676464912014021"><ele>5.0</ele><time>2026-04-10T08:41:25Z</time></trkpt><trkpt lat="44.633445153712586" lon="11.676266537084448"><ele>5.0</ele><time>2026-04-10T08:41:26Z</time></trkpt><trkpt lat="44.63333587311481" lon="11.676067246168396"><ele>5.0</ele><time>2026-04-10T08:41:27Z</time></trkpt><trkpt lat="44.63322436927249" lon="11.675867497654325"><ele>5.0</ele><time>2026-04-10T08:41:28Z</time></trkpt><trkpt lat="44.633112652686194" lon="11.675666619468936"><ele>5.0</ele><time>2026-04-10T08:41:29Z</time></trkpt><trkpt lat="44.633000469017" lon="11.675467427884126"><ele>5.0</ele><time>2026-04-10T08:41:30Z</time></trkpt><trkpt lat="44.63289519437761" lon="11.675275755573422"><ele>5.0</ele><time>2026-04-10T08:41:31Z</time></trkpt><trkpt lat="44.63279231619761" lon="11.675091208853528"><ele>6.0</ele><time>2026-04-10T08:41:32Z</time></trkpt><trkpt lat="44.632696314754746" lon="11.674922198386138"><ele>7.0</ele><time>2026-04-10T08:41:33Z</time></trkpt><trkpt lat="44.632610362961394" lon="11.674766683496976"><ele>8.0</ele><time>2026-04-10T08:41:34Z</time></trkpt><trkpt lat="44.63253408938634" lon="11.674623173779796"><ele>9.0</ele><time>2026-04-10T08:41:35Z</time></trkpt><trkpt lat="44.63246976668744" lon="11.674491036394691"><ele>9.2</ele><time>2026-04-10T08:41:36Z</time></trkpt><trkpt lat="44.632426358881865" lon="11.674371505901693"><ele>9.4</ele><time>2026-04-10T08:41:37Z</time></trkpt><trkpt lat="44.63239369777939" lon="11.67425875320663"><ele>9.6</ele><time>2026-04-10T08:41:38Z</time></trkpt><trkpt lat="44.63237442684381" lon="11.674155934612314"><ele>9.8</ele><time>2026-04-10T08:41:39Z</time></trkpt><trkpt lat="44.63240106705783" lon="11.674029132581456"><ele>10.0</ele><time>2026-04-10T08:41:41Z</time></trkpt><trkpt lat="44.63223560980206" lon="11.673990520634527"><ele>10.0</ele><time>2026-04-10T08:41:43Z</time></trkpt><trkpt lat="44.63216716872561" lon="11.674061473443547"><ele>10.0</ele><time>2026-04-10T08:41:44Z</time></trkpt><trkpt lat="44.63209896573778" lon="11.67416139172861"><ele>10.0</ele><time>2026-04-10T08:41:45Z</time></trkpt><trkpt lat="44.63201852180998" lon="11.674279514548237"><ele>10.0</ele><time>2026-04-10T08:41:46Z</time></trkpt><trkpt lat="44.63192188170245" lon="11.674406959211755"><ele>10.0</ele><time>2026-04-10T08:41:47Z</time></trkpt><trkpt lat="44.63180659086815" lon="11.674540694939244"><ele>10.333333333333334</ele><time>2026-04-10T08:41:48Z</time></trkpt><trkpt lat="44.63168068621374" lon="11.67467681773381"><ele>10.666666666666666</ele><time>2026-04-10T08:41:49Z</time></trkpt><trkpt lat="44.631555730256885" lon="11.674824072538259"><ele>11.0</ele><time>2026-04-10T08:41:50Z</time></trkpt><trkpt lat="44.631430320804384" lon="11.674983140036009"><ele>11.0</ele><time>2026-04-10T08:41:51Z</time></trkpt><trkpt lat="44.63130990764412" lon="11.67513426287929"><ele>11.0</ele><time>2026-04-10T08:41:52Z</time></trkpt><trkpt lat="44.63118739224231" lon="11.675282377733456"><ele>11.0</ele><time>2026-04-10T08:41:53Z</time></trkpt><trkpt lat="44.631060384916054" lon="11.67542964738728"><ele>10.75</ele><time>2026-04-10T08:41:54Z</time></trkpt><trkpt lat="44.630944467735944" lon="11.675570713701838"><ele>10.5</ele><time>2026-04-10T08:41:55Z</time></trkpt><trkpt lat="44.630835381675354" lon="11.675699295923508"><ele>10.25</ele><time>2026-04-10T08:41:56Z</time></trkpt><trkpt lat="44.63073049185985" lon="11.675820560961764"><ele>10.0</ele><time>2026-04-10T08:41:57Z</time></trkpt><trkpt lat="44.63062773898052" lon="11.675929531153482"><ele>10.0</ele><time>2026-04-10T08:41:58Z</time></trkpt><trkpt lat="44.63053131110378" lon="11.676030072332503"><ele>10.0</ele><time>2026-04-10T08:41:59Z</time></trkpt><trkpt lat="44.63043792534291" lon="11.676120551505017"><ele>10.0</ele><time>2026-04-10T08:42:00Z</time></trkpt><trkpt lat="44.63034069530902" lon="11.676210581705185"><ele>10.0</ele><time>2026-04-10T08:42:01Z</time></trkpt><trkpt lat="44.63024596109869" lon="11.676296486529399"><ele>10.0</ele><time>2026-04-10T08:42:02Z</time></trkpt><trkpt lat="44.63015306676289" lon="11.676378336553016"><ele>10.0</ele><time>2026-04-10T08:42:03Z</time></trkpt><trkpt lat="44.630063369635025" lon="11.676462433679136"><ele>10.0</ele><time>2026-04-10T08:42:04Z</time></trkpt><trkpt lat="44.62997268286873" lon="11.676549656802013"><ele>10.0</ele><time>2026-04-10T08:42:05Z</time></trkpt><trkpt lat="44.62988125884087" lon="11.676644732500497"><ele>10.0</ele><time>2026-04-10T08:42:06Z</time></trkpt><trkpt lat="44.62980000514771" lon="11.676741331690433"><ele>10.0</ele><time>2026-04-10T08:42:07Z</time></trkpt><trkpt lat="44.629719891521106" lon="11.676840916656184"><ele>10.0</ele><time>2026-04-10T08:42:08Z</time></trkpt><trkpt lat="44.62964791536007" lon="11.676944188805834"><ele>10.0</ele><time>2026-04-10T08:42:09Z</time></trkpt><trkpt lat="44.629584890988035" lon="11.677054130054804"><ele>10.0</ele><time>2026-04-10T08:42:10Z</time></trkpt><trkpt lat="44.6295197526436" lon="11.677168693290728"><ele>10.0</ele><time>2026-04-10T08:42:11Z</time></trkpt><trkpt lat="44.62945828727207" lon="11.677279952999159"><ele>9.8</ele><time>2026-04-10T08:42:12Z</time></trkpt><trkpt lat="44.62940673726115" lon="11.677389029675458"><ele>9.6</ele><time>2026-04-10T08:42:13Z</time></trkpt><trkpt lat="44.62935986466163" lon="11.67750128642477"><ele>9.4</ele><time>2026-04-10T08:42:14Z</time></trkpt><trkpt lat="44.62931673808454" lon="11.677626851833477"><ele>9.2</ele><time>2026-04-10T08:42:15Z</time></trkpt><trkpt lat="44.62926763298129" lon="11.677757231514208"><ele>9.0</ele><time>2026-04-10T08:42:16Z</time></trkpt><trkpt lat="44.62922090132181" lon="11.677896559736226"><ele>8.5</ele><time>2026-04-10T08:42:17Z</time></trkpt><trkpt lat="44.62917431295957" lon="11.678038789765578"><ele>8.0</ele><time>2026-04-10T08:42:18Z</time></trkpt><trkpt lat="44.62912533197544" lon="11.678194225381452"><ele>7.5</ele><time>2026-04-10T08:42:19Z</time></trkpt><trkpt lat="44.629076693449846" lon="11.678359825245295"><ele>7.0</ele><time>2026-04-10T08:42:20Z</time></trkpt><trkpt lat="44.62902079951546" lon="11.678539786611971"><ele>6.666666666666667</ele><time>2026-04-10T08:42:21Z</time></trkpt><trkpt lat="44.628953412534315" lon="11.67873168500376"><ele>6.333333333333334</ele><time>2026-04-10T08:42:22Z</time></trkpt><trkpt lat="44.62887313169017" lon="11.678922756734872"><ele>6.0</ele><time>2026-04-10T08:42:23Z</time></trkpt><trkpt lat="44.628780603917185" lon="11.67911174391264"><ele>6.0</ele><time>2026-04-10T08:42:24Z</time></trkpt><trkpt lat="44.62868292021337" lon="11.679302564109701"><ele>6.0</ele><time>2026-04-10T08:42:25Z</time></trkpt><trkpt lat="44.62857576476444" lon="11.679494720056244"><ele>6.0</ele><time>2026-04-10T08:42:26Z</time></trkpt><trkpt lat="44.62846388617259" lon="11.679689534521886"><ele>6.0</ele><time>2026-04-10T08:42:27Z</time></trkpt><trkpt lat="44.62835357179409" lon="11.679885222198275"><ele>6.0</ele><time>2026-04-10T08:42:28Z</time></trkpt><trkpt lat="44.62824354360609" lon="11.680080886908442"><ele>6.0</ele><time>2026-04-10T08:42:29Z</time></trkpt><trkpt lat="44.62813189771546" lon="11.680277100853141"><ele>6.0</ele><time>2026-04-10T08:42:30Z</time></trkpt><trkpt lat="44.62802026751659" lon="11.680473915637304"><ele>6.0</ele><time>2026-04-10T08:42:31Z</time></trkpt><trkpt lat="44.62791260177183" lon="11.680662546554185"><ele>6.0</ele><time>2026-04-10T08:42:32Z</time></trkpt><trkpt lat="44.627810002180006" lon="11.680844817260974"><ele>6.0</ele><time>2026-04-10T08:42:33Z</time></trkpt><trkpt lat="44.62770877339747" lon="11.681032555686487"><ele>6.0</ele><time>2026-04-10T08:42:34Z</time></trkpt><trkpt lat="44.62760388842886" lon="11.681245578248376"><ele>6.0</ele><time>2026-04-10T08:42:35Z</time></trkpt><trkpt lat="44.62750068708903" lon="11.681486242328292"><ele>6.0</ele><time>2026-04-10T08:42:36Z</time></trkpt><trkpt lat="44.62737757156865" lon="11.681726746085284"><ele>6.0</ele><time>2026-04-10T08:42:37Z</time></trkpt><trkpt lat="44.62726433434252" lon="11.681988298254067"><ele>6.0</ele><time>2026-04-10T08:42:38Z</time></trkpt><trkpt lat="44.62715341587517" lon="11.682246577854395"><ele>6.0</ele><time>2026-04-10T08:42:39Z</time></trkpt><trkpt lat="44.62704297233977" lon="11.682503751541887"><ele>6.0</ele><time>2026-04-10T08:42:40Z</time></trkpt><trkpt lat="44.62693200614196" lon="11.682756993441648"><ele>6.0</ele><time>2026-04-10T08:42:41Z</time></trkpt><trkpt lat="44.62683565039461" lon="11.68302563862662"><ele>6.0</ele><time>2026-04-10T08:42:42Z</time></trkpt><trkpt lat="44.62671581840731" lon="11.683277068741038"><ele>6.0</ele><time>2026-04-10T08:42:43Z</time></trkpt><trkpt lat="44.626597577405136" lon="11.683531445207668"><ele>6.0</ele><time>2026-04-10T08:42:44Z</time></trkpt><trkpt lat="44.62647500948201" lon="11.68378118098241"><ele>6.0</ele><time>2026-04-10T08:42:45Z</time></trkpt><trkpt lat="44.62635040394011" lon="11.684022829937291"><ele>6.0</ele><time>2026-04-10T08:42:46Z</time></trkpt><trkpt lat="44.626228413507924" lon="11.684259441261558"><ele>6.0</ele><time>2026-04-10T08:42:47Z</time></trkpt><trkpt lat="44.626107835308005" lon="11.684497557601519"><ele>5.333333333333333</ele><time>2026-04-10T08:42:48Z</time></trkpt><trkpt lat="44.625988125418175" lon="11.684737513060847"><ele>4.666666666666666</ele><time>2026-04-10T08:42:49Z</time></trkpt><trkpt lat="44.62587435842773" lon="11.68498312284704"><ele>4.0</ele><time>2026-04-10T08:42:50Z</time></trkpt><trkpt lat="44.625767289915935" lon="11.685236161598326"><ele>4.666666666666666</ele><time>2026-04-10T08:42:51Z</time></trkpt><trkpt lat="44.625663889218565" lon="11.685499406482466"><ele>5.333333333333333</ele><time>2026-04-10T08:42:52Z</time></trkpt><trkpt lat="44.625564235026445" lon="11.68576639067911"><ele>6.0</ele><time>2026-04-10T08:42:53Z</time></trkpt><trkpt lat="44.625464772542884" lon="11.686027304733091"><ele>6.0</ele><time>2026-04-10T08:42:54Z</time></trkpt><trkpt lat="44.62535815950544" lon="11.686277221561843"><ele>6.0</ele><time>2026-04-10T08:42:55Z</time></trkpt><trkpt lat="44.625245156677046" lon="11.686511394856227"><ele>6.0</ele><time>2026-04-10T08:42:56Z</time></trkpt><trkpt lat="44.62513701953338" lon="11.686722303548972"><ele>6.0</ele><time>2026-04-10T08:42:57Z</time></trkpt><trkpt lat="44.62503011930731" lon="11.686921703574717"><ele>6.0</ele><time>2026-04-10T08:42:58Z</time></trkpt><trkpt lat="44.62492900773163" lon="11.68710186535049"><ele>6.0</ele><time>2026-04-10T08:42:59Z</time></trkpt><trkpt lat="44.62483928792302" lon="11.687252589023588"><ele>5.75</ele><time>2026-04-10T08:43:00Z</time></trkpt><trkpt lat="44.62476533798881" lon="11.687371031294646"><ele>5.5</ele><time>2026-04-10T08:43:01Z</time></trkpt><trkpt lat="44.62470503155726" lon="11.687454335968221"><ele>5.25</ele><time>2026-04-10T08:43:02Z</time></trkpt><trkpt lat="44.62463807120688" lon="11.687502301637256"><ele>5.0</ele><time>2026-04-10T08:43:03Z</time></trkpt><trkpt lat="44.624463685659585" lon="11.687419965342727"><ele>4.666666666666667</ele><time>2026-04-10T08:43:05Z</time></trkpt><trkpt lat="44.6243351431956" lon="11.687290657116508"><ele>4.333333333333333</ele><time>2026-04-10T08:43:06Z</time></trkpt><trkpt lat="44.62418187790929" lon="11.687205393284264"><ele>4.0</ele><time>2026-04-10T08:43:07Z</time></trkpt><trkpt lat="44.62400914768419" lon="11.68711011353428"><ele>4.0</ele><time>2026-04-10T08:43:08Z</time></trkpt><trkpt lat="44.62381871445448" lon="11.68700644337672"><ele>4.0</ele><time>2026-04-10T08:43:09Z</time></trkpt><trkpt lat="44.6236229446874" lon="11.686896476571818"><ele>4.0</ele><time>2026-04-10T08:43:10Z</time></trkpt><trkpt lat="44.62343148654362" lon="11.686787715364442"><ele>4.0</ele><time>2026-04-10T08:43:11Z</time></trkpt><trkpt lat="44.623242331925155" lon="11.686679733141126"><ele>4.0</ele><time>2026-04-10T08:43:12Z</time></trkpt><trkpt lat="44.623049900736845" lon="11.686574155194204"><ele>4.0</ele><time>2026-04-10T08:43:13Z</time></trkpt><trkpt lat="44.62285540160527" lon="11.686472542328007"><ele>4.333333333333333</ele><time>2026-04-10T08:43:14Z</time></trkpt><trkpt lat="44.62265962425377" lon="11.686366051870657"><ele>4.666666666666667</ele><time>2026-04-10T08:43:15Z</time></trkpt><trkpt lat="44.622458571803435" lon="11.686252927972422"><ele>5.0</ele><time>2026-04-10T08:43:16Z</time></trkpt><trkpt lat="44.6222591215038" lon="11.686139190978473"><ele>4.333333333333334</ele><time>2026-04-10T08:43:17Z</time></trkpt><trkpt lat="44.622058903896544" lon="11.686028816299624"><ele>3.666666666666667</ele><time>2026-04-10T08:43:18Z</time></trkpt><trkpt lat="44.62185861595305" lon="11.685919689706228"><ele>3.0</ele><time>2026-04-10T08:43:19Z</time></trkpt><trkpt lat="44.62165913054858" lon="11.685811254656624"><ele>3.0</ele><time>2026-04-10T08:43:20Z</time></trkpt><trkpt lat="44.6214636394664" lon="11.685703055013366"><ele>3.0</ele><time>2026-04-10T08:43:21Z</time></trkpt><trkpt lat="44.62126996968985" lon="11.685597060775905"><ele>3.0</ele><time>2026-04-10T08:43:22Z</time></trkpt><trkpt lat="44.621084379746414" lon="11.685492407425869"><ele>2.6666666666666665</ele><time>2026-04-10T08:43:23Z</time></trkpt><trkpt lat="44.62089091977681" lon="11.685390273743703"><ele>2.333333333333333</ele><time>2026-04-10T08:43:24Z</time></trkpt><trkpt lat="44.620698276425955" lon="11.685281855384494"><ele>2.0</ele><time>2026-04-10T08:43:25Z</time></trkpt><trkpt lat="44.620505681135874" lon="11.685171971269716"><ele>2.333333333333333</ele><time>2026-04-10T08:43:26Z</time></trkpt><trkpt lat="44.62031052959818" lon="11.685061102881031"><ele>2.6666666666666665</ele><time>2026-04-10T08:43:27Z</time></trkpt><trkpt lat="44.62011034201179" lon="11.684949868742905"><ele>3.0</ele><time>2026-04-10T08:43:28Z</time></trkpt><trkpt lat="44.619906518221654" lon="11.684840604593132"><ele>3.0</ele><time>2026-04-10T08:43:29Z</time></trkpt><trkpt lat="44.619702663442375" lon="11.684730890485957"><ele>3.0</ele><time>2026-04-10T08:43:30Z</time></trkpt><trkpt lat="44.61949820304507" lon="11.684619545323445"><ele>3.0</ele><time>2026-04-10T08:43:31Z</time></trkpt><trkpt lat="44.6192950650523" lon="11.684508682759436"><ele>3.666666666666667</ele><time>2026-04-10T08:43:32Z</time></trkpt><trkpt lat="44.61909596921211" lon="11.684397700747212"><ele>4.333333333333334</ele><time>2026-04-10T08:43:33Z</time></trkpt><trkpt lat="44.618903128501486" lon="11.684288231336966"><ele>5.0</ele><time>2026-04-10T08:43:34Z</time></trkpt><trkpt lat="44.61871186556955" lon="11.684182377575887"><ele>5.666666666666667</ele><time>2026-04-10T08:43:35Z</time></trkpt><trkpt lat="44.61853108299794" lon="11.684086714793429"><ele>6.333333333333334</ele><time>2026-04-10T08:43:36Z</time></trkpt><trkpt lat="44.61834898303211" lon="11.68399049310789"><ele>7.0</ele><time>2026-04-10T08:43:37Z</time></trkpt><trkpt lat="44.61817177123231" lon="11.683893348655912"><ele>7.0</ele><time>2026-04-10T08:43:38Z</time></trkpt><trkpt lat="44.618001571633705" lon="11.683798592402274"><ele>7.0</ele><time>2026-04-10T08:43:39Z</time></trkpt><trkpt lat="44.61784191242183" lon="11.68370314868214"><ele>7.0</ele><time>2026-04-10T08:43:40Z</time></trkpt><trkpt lat="44.617691218838544" lon="11.683600819834357"><ele>6.333333333333334</ele><time>2026-04-10T08:43:41Z</time></trkpt><trkpt lat="44.617550425355184" lon="11.683484211655964"><ele>5.666666666666667</ele><time>2026-04-10T08:43:42Z</time></trkpt><trkpt lat="44.61742793507857" lon="11.68336636113029"><ele>5.0</ele><time>2026-04-10T08:43:43Z</time></trkpt><trkpt lat="44.61731290952768" lon="11.68324866011896"><ele>5.0</ele><time>2026-04-10T08:43:44Z</time></trkpt><trkpt lat="44.61719393624575" lon="11.68313011629037"><ele>5.0</ele><time>2026-04-10T08:43:45Z</time></trkpt><trkpt lat="44.61706836816535" lon="11.683025917721714"><ele>5.0</ele><time>2026-04-10T08:43:46Z</time></trkpt><trkpt lat="44.61692268871409" lon="11.682943562617105"><ele>5.0</ele><time>2026-04-10T08:43:47Z</time></trkpt><trkpt lat="44.616765065950375" lon="11.68288410801991"><ele>5.666666666666667</ele><time>2026-04-10T08:43:48Z</time></trkpt><trkpt lat="44.616598995261626" lon="11.682828407065502"><ele>6.333333333333334</ele><time>2026-04-10T08:43:49Z</time></trkpt><trkpt lat="44.61642641141491" lon="11.682769241087374"><ele>7.0</ele><time>2026-04-10T08:43:50Z</time></trkpt><trkpt lat="44.616254314294075" lon="11.682706334241445"><ele>6.666666666666667</ele><time>2026-04-10T08:43:51Z</time></trkpt><trkpt lat="44.61608716051198" lon="11.682631043117793"><ele>6.333333333333334</ele><time>2026-04-10T08:43:52Z</time></trkpt><trkpt lat="44.61592240644565" lon="11.682539468794003"><ele>6.0</ele><time>2026-04-10T08:43:53Z</time></trkpt><trkpt lat="44.61575619338492" lon="11.682439664771142"><ele>6.0</ele><time>2026-04-10T08:43:54Z</time></trkpt><trkpt lat="44.61558819669159" lon="11.682340695919136"><ele>6.0</ele><time>2026-04-10T08:43:55Z</time></trkpt><trkpt lat="44.61541979513111" lon="11.682242322319757"><ele>6.0</ele><time>2026-04-10T08:43:56Z</time></trkpt><trkpt lat="44.61525176839104" lon="11.682146715088379"><ele>6.0</ele><time>2026-04-10T08:43:57Z</time></trkpt><trkpt lat="44.61508472847718" lon="11.682054410173098"><ele>6.0</ele><time>2026-04-10T08:43:58Z</time></trkpt><trkpt lat="44.61492296612061" lon="11.681965790728134"><ele>6.0</ele><time>2026-04-10T08:43:59Z</time></trkpt><trkpt lat="44.61476938241127" lon="11.681873970239728"><ele>6.0</ele><time>2026-04-10T08:44:00Z</time></trkpt><trkpt lat="44.61461467406188" lon="11.681786678890676"><ele>6.0</ele><time>2026-04-10T08:44:01Z</time></trkpt><trkpt lat="44.61445631888291" lon="11.681701774414567"><ele>6.0</ele><time>2026-04-10T08:44:02Z</time></trkpt><trkpt lat="44.6142984227086" lon="11.681610004541998"><ele>5.333333333333333</ele><time>2026-04-10T08:44:03Z</time></trkpt><trkpt lat="44.61414546382242" lon="11.68151578537448"><ele>4.666666666666666</ele><time>2026-04-10T08:44:04Z</time></trkpt><trkpt lat="44.613998368665705" lon="11.68143188700357"><ele>4.0</ele><time>2026-04-10T08:44:05Z</time></trkpt><trkpt lat="44.613854346991296" lon="11.681352376628757"><ele>4.0</ele><time>2026-04-10T08:44:06Z</time></trkpt><trkpt lat="44.613714230615" lon="11.681275451345854"><ele>4.0</ele><time>2026-04-10T08:44:07Z</time></trkpt><trkpt lat="44.613581671333456" lon="11.681189135992867"><ele>4.0</ele><time>2026-04-10T08:44:08Z</time></trkpt><trkpt lat="44.61347215400315" lon="11.681078757330285"><ele>4.0</ele><time>2026-04-10T08:44:09Z</time></trkpt><trkpt lat="44.61339124657777" lon="11.680940470616132"><ele>4.0</ele><time>2026-04-10T08:44:10Z</time></trkpt><trkpt lat="44.6133406386101" lon="11.68077999599804"><ele>4.0</ele><time>2026-04-10T08:44:11Z</time></trkpt><trkpt lat="44.61332058962137" lon="11.680606957729397"><ele>4.0</ele><time>2026-04-10T08:44:12Z</time></trkpt><trkpt lat="44.61332742411636" lon="11.680419865722529"><ele>4.0</ele><time>2026-04-10T08:44:13Z</time></trkpt><trkpt lat="44.61334581802679" lon="11.680229616060878"><ele>4.0</ele><time>2026-04-10T08:44:14Z</time></trkpt><trkpt lat="44.61336600699319" lon="11.680033510334267"><ele>4.0</ele><time>2026-04-10T08:44:15Z</time></trkpt><trkpt lat="44.61338716354601" lon="11.67983391114379"><ele>4.0</ele><time>2026-04-10T08:44:16Z</time></trkpt><trkpt lat="44.613400269658236" lon="11.679649097500816"><ele>4.0</ele><time>2026-04-10T08:44:17Z</time></trkpt><trkpt lat="44.613410500832885" lon="11.679473075920706"><ele>4.0</ele><time>2026-04-10T08:44:18Z</time></trkpt><trkpt lat="44.6134212988405" lon="11.679303656501192"><ele>4.0</ele><time>2026-04-10T08:44:19Z</time></trkpt><trkpt lat="44.613432186529295" lon="11.679141516985213"><ele>4.0</ele><time>2026-04-10T08:44:20Z</time></trkpt><trkpt lat="44.61344072866676" lon="11.678984556196495"><ele>4.0</ele><time>2026-04-10T08:44:21Z</time></trkpt><trkpt lat="44.613454516797404" lon="11.67883153288625"><ele>4.0</ele><time>2026-04-10T08:44:22Z</time></trkpt><trkpt lat="44.61347091721273" lon="11.67869091186366"><ele>4.0</ele><time>2026-04-10T08:44:23Z</time></trkpt><trkpt lat="44.61348284293204" lon="11.678564992505931"><ele>4.0</ele><time>2026-04-10T08:44:24Z</time></trkpt><trkpt lat="44.61348655334183" lon="11.678442852417435"><ele>4.0</ele><time>2026-04-10T08:44:25Z</time></trkpt><trkpt lat="44.613486432557174" lon="11.67832547745177"><ele>4.0</ele><time>2026-04-10T08:44:26Z</time></trkpt><trkpt lat="44.61349308652954" lon="11.678200518265674"><ele>4.5</ele><time>2026-04-10T08:44:27Z</time></trkpt><trkpt lat="44.613505289138466" lon="11.678063929997345"><ele>5.0</ele><time>2026-04-10T08:44:28Z</time></trkpt><trkpt lat="44.61351833017623" lon="11.677896442338312"><ele>5.5</ele><time>2026-04-10T08:44:29Z</time></trkpt><trkpt lat="44.61353388515285" lon="11.6777039770966"><ele>6.0</ele><time>2026-04-10T08:44:30Z</time></trkpt><trkpt lat="44.61355465759213" lon="11.677503371400858"><ele>6.0</ele><time>2026-04-10T08:44:31Z</time></trkpt><trkpt lat="44.61357305695992" lon="11.677304662453755"><ele>6.0</ele><time>2026-04-10T08:44:32Z</time></trkpt><trkpt lat="44.613589979616485" lon="11.677102564311097"><ele>6.0</ele><time>2026-04-10T08:44:33Z</time></trkpt><trkpt lat="44.61360664842872" lon="11.6768929907882"><ele>6.0</ele><time>2026-04-10T08:44:34Z</time></trkpt><trkpt lat="44.61362347381384" lon="11.676676222671903"><ele>6.0</ele><time>2026-04-10T08:44:35Z</time></trkpt><trkpt lat="44.613641189516294" lon="11.67645361614985"><ele>6.0</ele><time>2026-04-10T08:44:36Z</time></trkpt><trkpt lat="44.613663681796154" lon="11.676228493463315"><ele>6.0</ele><time>2026-04-10T08:44:37Z</time></trkpt><trkpt lat="44.613685017490276" lon="11.67600083163552"><ele>6.333333333333334</ele><time>2026-04-10T08:44:38Z</time></trkpt><trkpt lat="44.61370382457511" lon="11.675768363208581"><ele>6.666666666666667</ele><time>2026-04-10T08:44:39Z</time></trkpt><trkpt lat="44.613719846927104" lon="11.675535000492957"><ele>7.0</ele><time>2026-04-10T08:44:40Z</time></trkpt><trkpt lat="44.61373690380547" lon="11.675304380446669"><ele>6.333333333333334</ele><time>2026-04-10T08:44:41Z</time></trkpt><trkpt lat="44.613755986687025" lon="11.675072758342477"><ele>5.666666666666667</ele><time>2026-04-10T08:44:42Z</time></trkpt><trkpt lat="44.61377364244158" lon="11.67484256505545"><ele>5.0</ele><time>2026-04-10T08:44:43Z</time></trkpt><trkpt lat="44.613792883145955" lon="11.67461645118601"><ele>5.333333333333334</ele><time>2026-04-10T08:44:44Z</time></trkpt><trkpt lat="44.61380965344011" lon="11.674387716267834"><ele>5.666666666666667</ele><time>2026-04-10T08:44:45Z</time></trkpt><trkpt lat="44.613821149140435" lon="11.674160299827017"><ele>6.0</ele><time>2026-04-10T08:44:46Z</time></trkpt><trkpt lat="44.613839050187465" lon="11.673939189729422"><ele>6.0</ele><time>2026-04-10T08:44:47Z</time></trkpt><trkpt lat="44.61386210822448" lon="11.673713815653013"><ele>6.0</ele><time>2026-04-10T08:44:48Z</time></trkpt><trkpt lat="44.6138797909564" lon="11.673496610536686"><ele>6.0</ele><time>2026-04-10T08:44:49Z</time></trkpt><trkpt lat="44.61389710846354" lon="11.67329110143529"><ele>6.0</ele><time>2026-04-10T08:44:50Z</time></trkpt><trkpt lat="44.61391224160145" lon="11.673093067662519"><ele>6.0</ele><time>2026-04-10T08:44:51Z</time></trkpt><trkpt lat="44.61392634702635" lon="11.672892126652636"><ele>6.0</ele><time>2026-04-10T08:44:52Z</time></trkpt><trkpt lat="44.61393999085131" lon="11.672698764506054"><ele>6.0</ele><time>2026-04-10T08:44:53Z</time></trkpt><trkpt lat="44.61395377263613" lon="11.672508601956245"><ele>6.0</ele><time>2026-04-10T08:44:54Z</time></trkpt><trkpt lat="44.61396855831013" lon="11.672314902397266"><ele>6.0</ele><time>2026-04-10T08:44:55Z</time></trkpt><trkpt lat="44.613985213620424" lon="11.672112133460995"><ele>6.0</ele><time>2026-04-10T08:44:56Z</time></trkpt><trkpt lat="44.61400226253219" lon="11.671901429848765"><ele>6.0</ele><time>2026-04-10T08:44:57Z</time></trkpt><trkpt lat="44.61401524292898" lon="11.67168411438759"><ele>5.666666666666667</ele><time>2026-04-10T08:44:58Z</time></trkpt><trkpt lat="44.614032973177956" lon="11.671459549440915"><ele>5.333333333333334</ele><time>2026-04-10T08:44:59Z</time></trkpt><trkpt lat="44.6140522313857" lon="11.6712297435045"><ele>5.0</ele><time>2026-04-10T08:45:00Z</time></trkpt><trkpt lat="44.61406678680666" lon="11.670997669132253"><ele>5.0</ele><time>2026-04-10T08:45:01Z</time></trkpt><trkpt lat="44.61408415569651" lon="11.670761208533653"><ele>5.0</ele><time>2026-04-10T08:45:02Z</time></trkpt><trkpt lat="44.61410493795361" lon="11.670539060010501"><ele>5.0</ele><time>2026-04-10T08:45:03Z</time></trkpt><trkpt lat="44.614122081706824" lon="11.670321029858258"><ele>4.5</ele><time>2026-04-10T08:45:04Z</time></trkpt><trkpt lat="44.61414279366041" lon="11.670107082174582"><ele>4.0</ele><time>2026-04-10T08:45:05Z</time></trkpt><trkpt lat="44.6141614288428" lon="11.669900508212079"><ele>3.5</ele><time>2026-04-10T08:45:06Z</time></trkpt><trkpt lat="44.614173407653816" lon="11.669704540420197"><ele>3.0</ele><time>2026-04-10T08:45:07Z</time></trkpt><trkpt lat="44.614194868265" lon="11.669522453435663"><ele>3.2</ele><time>2026-04-10T08:45:08Z</time></trkpt><trkpt lat="44.614161717355074" lon="11.669345113257451"><ele>3.4</ele><time>2026-04-10T08:45:09Z</time></trkpt><trkpt lat="44.61413410229251" lon="11.669190122373072"><ele>3.6000000000000005</ele><time>2026-04-10T08:45:10Z</time></trkpt><trkpt lat="44.61411310548503" lon="11.669056972227438"><ele>3.8000000000000003</ele><time>2026-04-10T08:45:11Z</time></trkpt><trkpt lat="44.61410378957663" lon="11.668943398687082"><ele>4.0</ele><time>2026-04-10T08:45:12Z</time></trkpt><trkpt lat="44.61409865975616" lon="11.668842719336315"><ele>4.0</ele><time>2026-04-10T08:45:13Z</time></trkpt><trkpt lat="44.61410104493921" lon="11.668688121285442"><ele>4.0</ele><time>2026-04-10T08:45:15Z</time></trkpt><trkpt lat="44.61410966501282" lon="11.66857111867856"><ele>4.0</ele><time>2026-04-10T08:45:17Z</time></trkpt><trkpt lat="44.61414175772195" lon="11.668436936515333"><ele>4.0</ele><time>2026-04-10T08:45:19Z</time></trkpt><trkpt lat="44.61415371490944" lon="11.66829077428199"><ele>4.0</ele><time>2026-04-10T08:45:21Z</time></trkpt><trkpt lat="44.61404055885956" lon="11.668214091519497"><ele>4.0</ele><time>2026-04-10T08:45:23Z</time></trkpt><trkpt lat="44.61396502307676" lon="11.66826485422683"><ele>4.0</ele><time>2026-04-10T08:45:24Z</time></trkpt><trkpt lat="44.61389942511429" lon="11.668348617405197"><ele>4.0</ele><time>2026-04-10T08:45:25Z</time></trkpt><trkpt lat="44.61381146587897" lon="11.668425686459688"><ele>4.0</ele><time>2026-04-10T08:45:26Z</time></trkpt><trkpt lat="44.61370895108347" lon="11.668444348575678"><ele>4.0</ele><time>2026-04-10T08:45:27Z</time></trkpt><trkpt lat="44.613586179416224" lon="11.668417492006622"><ele>4.0</ele><time>2026-04-10T08:45:28Z</time></trkpt><trkpt lat="44.613443738717734" lon="11.668369566104861"><ele>4.0</ele><time>2026-04-10T08:45:29Z</time></trkpt><trkpt lat="44.61328073300497" lon="11.668332463605845"><ele>4.0</ele><time>2026-04-10T08:45:30Z</time></trkpt><trkpt lat="44.61310366529244" lon="11.668299213691634"><ele>4.0</ele><time>2026-04-10T08:45:31Z</time></trkpt><trkpt lat="44.61292819791173" lon="11.66826122598725"><ele>4.0</ele><time>2026-04-10T08:45:32Z</time></trkpt><trkpt lat="44.612757487401225" lon="11.668220461011892"><ele>4.0</ele><time>2026-04-10T08:45:33Z</time></trkpt><trkpt lat="44.612589378128995" lon="11.668178610464567"><ele>4.0</ele><time>2026-04-10T08:45:34Z</time></trkpt><trkpt lat="44.61241672030625" lon="11.66813465036942"><ele>4.0</ele><time>2026-04-10T08:45:35Z</time></trkpt><trkpt lat="44.6122405688763" lon="11.668090860627482"><ele>4.0</ele><time>2026-04-10T08:45:36Z</time></trkpt><trkpt lat="44.61206157954261" lon="11.668049462840788"><ele>4.333333333333333</ele><time>2026-04-10T08:45:37Z</time></trkpt><trkpt lat="44.611882002278996" lon="11.668013462567776"><ele>4.666666666666667</ele><time>2026-04-10T08:45:38Z</time></trkpt><trkpt lat="44.611701490892315" lon="11.667978610599402"><ele>5.0</ele><time>2026-04-10T08:45:39Z</time></trkpt><trkpt lat="44.6115200978742" lon="11.667941443820828"><ele>5.0</ele><time>2026-04-10T08:45:40Z</time></trkpt><trkpt lat="44.61133634416676" lon="11.667901953461355"><ele>5.0</ele><time>2026-04-10T08:45:41Z</time></trkpt><trkpt lat="44.61115471603197" lon="11.667856234107392"><ele>5.0</ele><time>2026-04-10T08:45:42Z</time></trkpt><trkpt lat="44.610973936090716" lon="11.66781262998416"><ele>5.0</ele><time>2026-04-10T08:45:43Z</time></trkpt><trkpt lat="44.61079899414695" lon="11.667775248691717"><ele>5.0</ele><time>2026-04-10T08:45:44Z</time></trkpt><trkpt lat="44.6106192764678" lon="11.667736624346825"><ele>5.0</ele><time>2026-04-10T08:45:45Z</time></trkpt><trkpt lat="44.61043900881069" lon="11.667693769651967"><ele>5.666666666666667</ele><time>2026-04-10T08:45:46Z</time></trkpt><trkpt lat="44.61025550320926" lon="11.667650603811863"><ele>6.333333333333334</ele><time>2026-04-10T08:45:47Z</time></trkpt><trkpt lat="44.61006849565588" lon="11.667609653951953"><ele>7.0</ele><time>2026-04-10T08:45:48Z</time></trkpt><trkpt lat="44.609887822418486" lon="11.667569627614508"><ele>7.0</ele><time>2026-04-10T08:45:49Z</time></trkpt><trkpt lat="44.609713411355216" lon="11.667532148954205"><ele>7.0</ele><time>2026-04-10T08:45:50Z</time></trkpt><trkpt lat="44.60953468807826" lon="11.66749160161608"><ele>7.0</ele><time>2026-04-10T08:45:51Z</time></trkpt><trkpt lat="44.60935427066695" lon="11.667448651900006"><ele>7.0</ele><time>2026-04-10T08:45:52Z</time></trkpt><trkpt lat="44.60917186729202" lon="11.66740376196583"><ele>7.0</ele><time>2026-04-10T08:45:53Z</time></trkpt><trkpt lat="44.60899196684636" lon="11.667360045325806"><ele>7.0</ele><time>2026-04-10T08:45:54Z</time></trkpt><trkpt lat="44.60881016104815" lon="11.66732081016105"><ele>5.666666666666667</ele><time>2026-04-10T08:45:55Z</time></trkpt><trkpt lat="44.608630266581955" lon="11.667281558535747"><ele>4.333333333333334</ele><time>2026-04-10T08:45:56Z</time></trkpt><trkpt lat="44.60845167973375" lon="11.667243638785836"><ele>3.0</ele><time>2026-04-10T08:45:57Z</time></trkpt><trkpt lat="44.60827697837622" lon="11.667212313509495"><ele>3.0</ele><time>2026-04-10T08:45:58Z</time></trkpt><trkpt lat="44.60810327940751" lon="11.667182532744482"><ele>3.0</ele><time>2026-04-10T08:45:59Z</time></trkpt><trkpt lat="44.60793220934313" lon="11.667153100374382"><ele>3.0</ele><time>2026-04-10T08:46:00Z</time></trkpt><trkpt lat="44.60775953488252" lon="11.66712570768783"><ele>3.0</ele><time>2026-04-10T08:46:01Z</time></trkpt><trkpt lat="44.607586704119" lon="11.667099273803766"><ele>3.0</ele><time>2026-04-10T08:46:02Z</time></trkpt><trkpt lat="44.60741917885653" lon="11.667072288359762"><ele>3.0</ele><time>2026-04-10T08:46:03Z</time></trkpt><trkpt lat="44.60725881180021" lon="11.667048879127982"><ele>3.0</ele><time>2026-04-10T08:46:04Z</time></trkpt><trkpt lat="44.607101961459456" lon="11.66703364761276"><ele>3.0</ele><time>2026-04-10T08:46:05Z</time></trkpt><trkpt lat="44.60694235938417" lon="11.667032885187126"><ele>3.0</ele><time>2026-04-10T08:46:06Z</time></trkpt><trkpt lat="44.60678012525987" lon="11.667045107980881"><ele>3.0</ele><time>2026-04-10T08:46:07Z</time></trkpt><trkpt lat="44.606612094405186" lon="11.667078946539489"><ele>3.0</ele><time>2026-04-10T08:46:08Z</time></trkpt><trkpt lat="44.606439959018324" lon="11.667120565001744"><ele>3.0</ele><time>2026-04-10T08:46:09Z</time></trkpt><trkpt lat="44.60626121924873" lon="11.667170949785891"><ele>3.0</ele><time>2026-04-10T08:46:10Z</time></trkpt><trkpt lat="44.6060801306447" lon="11.667229205918986"><ele>3.0</ele><time>2026-04-10T08:46:11Z</time></trkpt><trkpt lat="44.60589366020338" lon="11.667291084219201"><ele>3.0</ele><time>2026-04-10T08:46:12Z</time></trkpt><trkpt lat="44.60571437454269" lon="11.66735335501538"><ele>3.0</ele><time>2026-04-10T08:46:13Z</time></trkpt><trkpt lat="44.605551055732086" lon="11.667408575810995"><ele>3.0</ele><time>2026-04-10T08:46:14Z</time></trkpt><trkpt lat="44.60539904637129" lon="11.667458755857297"><ele>3.0</ele><time>2026-04-10T08:46:15Z</time></trkpt><trkpt lat="44.60524002999615" lon="11.667510623428873"><ele>3.666666666666667</ele><time>2026-04-10T08:46:16Z</time></trkpt><trkpt lat="44.60506732045998" lon="11.667570068302695"><ele>4.333333333333334</ele><time>2026-04-10T08:46:17Z</time></trkpt><trkpt lat="44.60488946248859" lon="11.667631873100344"><ele>5.0</ele><time>2026-04-10T08:46:18Z</time></trkpt><trkpt lat="44.604703475421296" lon="11.66769668324498"><ele>5.0</ele><time>2026-04-10T08:46:19Z</time></trkpt><trkpt lat="44.604517754158394" lon="11.667757298533049"><ele>5.0</ele><time>2026-04-10T08:46:20Z</time></trkpt><trkpt lat="44.604329890827294" lon="11.667820860361228"><ele>5.0</ele><time>2026-04-10T08:46:21Z</time></trkpt><trkpt lat="44.60414234206769" lon="11.667885938251974"><ele>5.0</ele><time>2026-04-10T08:46:22Z</time></trkpt><trkpt lat="44.60395004018462" lon="11.66795185124114"><ele>5.0</ele><time>2026-04-10T08:46:23Z</time></trkpt><trkpt lat="44.603759215501285" lon="11.668015757030012"><ele>5.0</ele><time>2026-04-10T08:46:24Z</time></trkpt><trkpt lat="44.60356913816112" lon="11.668078571729206"><ele>5.0</ele><time>2026-04-10T08:46:25Z</time></trkpt><trkpt lat="44.60338078984704" lon="11.668139857955598"><ele>5.0</ele><time>2026-04-10T08:46:26Z</time></trkpt><trkpt lat="44.60319567416388" lon="11.668203663600243"><ele>5.0</ele><time>2026-04-10T08:46:27Z</time></trkpt><trkpt lat="44.603008915153815" lon="11.668270058328782"><ele>5.333333333333334</ele><time>2026-04-10T08:46:28Z</time></trkpt><trkpt lat="44.60282131933743" lon="11.668337527170015"><ele>5.666666666666667</ele><time>2026-04-10T08:46:29Z</time></trkpt><trkpt lat="44.602628495477234" lon="11.668378828099044"><ele>6.0</ele><time>2026-04-10T08:46:30Z</time></trkpt><trkpt lat="44.60243723718172" lon="11.668442707851801"><ele>6.0</ele><time>2026-04-10T08:46:31Z</time></trkpt><trkpt lat="44.6022453852272" lon="11.668506785884217"><ele>6.0</ele><time>2026-04-10T08:46:32Z</time></trkpt><trkpt lat="44.60205282773864" lon="11.668571099568387"><ele>6.0</ele><time>2026-04-10T08:46:33Z</time></trkpt><trkpt lat="44.601859745561384" lon="11.668635588490739"><ele>6.333333333333334</ele><time>2026-04-10T08:46:34Z</time></trkpt><trkpt lat="44.60166707912259" lon="11.66869990264478"><ele>6.666666666666667</ele><time>2026-04-10T08:46:35Z</time></trkpt><trkpt lat="44.60148427215278" lon="11.668783915042843"><ele>7.0</ele><time>2026-04-10T08:46:36Z</time></trkpt><trkpt lat="44.60130107735681" lon="11.668840451101175"><ele>6.333333333333334</ele><time>2026-04-10T08:46:37Z</time></trkpt><trkpt lat="44.60112198018722" lon="11.668900974807716"><ele>5.666666666666667</ele><time>2026-04-10T08:46:38Z</time></trkpt><trkpt lat="44.600951281331795" lon="11.668958558759126"><ele>5.0</ele><time>2026-04-10T08:46:39Z</time></trkpt><trkpt lat="44.600791815903214" lon="11.669011063786806"><ele>5.0</ele><time>2026-04-10T08:46:40Z</time></trkpt><trkpt lat="44.60065498560211" lon="11.66905370470852"><ele>5.0</ele><time>2026-04-10T08:46:41Z</time></trkpt><trkpt lat="44.600537118527875" lon="11.669091707481435"><ele>5.0</ele><time>2026-04-10T08:46:42Z</time></trkpt><trkpt lat="44.60042397794989" lon="11.669131801255832"><ele>5.0</ele><time>2026-04-10T08:46:43Z</time></trkpt><trkpt lat="44.60031285767066" lon="11.669173542740776"><ele>5.25</ele><time>2026-04-10T08:46:44Z</time></trkpt><trkpt lat="44.60018627598867" lon="11.669218257755434"><ele>5.5</ele><time>2026-04-10T08:46:45Z</time></trkpt><trkpt lat="44.60004494766787" lon="11.669264886352797"><ele>5.75</ele><time>2026-04-10T08:46:46Z</time></trkpt><trkpt lat="44.599893345799295" lon="11.669313131882342"><ele>6.0</ele><time>2026-04-10T08:46:47Z</time></trkpt><trkpt lat="44.59973656104679" lon="11.669358573898025"><ele>6.0</ele><time>2026-04-10T08:46:48Z</time></trkpt><trkpt lat="44.59958906381597" lon="11.669400373486923"><ele>6.0</ele><time>2026-04-10T08:46:49Z</time></trkpt><trkpt lat="44.59944392266782" lon="11.669440901338472"><ele>6.0</ele><time>2026-04-10T08:46:50Z</time></trkpt><trkpt lat="44.59930292010623" lon="11.669480599042432"><ele>6.0</ele><time>2026-04-10T08:46:51Z</time></trkpt><trkpt lat="44.59916519986247" lon="11.669517391964346"><ele>6.25</ele><time>2026-04-10T08:46:52Z</time></trkpt><trkpt lat="44.59902327749451" lon="11.669542507218853"><ele>6.5</ele><time>2026-04-10T08:46:53Z</time></trkpt><trkpt lat="44.598880354077274" lon="11.66954135145423"><ele>6.75</ele><time>2026-04-10T08:46:54Z</time></trkpt><trkpt lat="44.59873127074547" lon="11.669528756254394"><ele>7.0</ele><time>2026-04-10T08:46:55Z</time></trkpt><trkpt lat="44.59857517092559" lon="11.669506815205855"><ele>7.0</ele><time>2026-04-10T08:46:56Z</time></trkpt><trkpt lat="44.59841110339192" lon="11.669466483076269"><ele>7.0</ele><time>2026-04-10T08:46:57Z</time></trkpt><trkpt lat="44.59824239240489" lon="11.66941186354977"><ele>7.0</ele><time>2026-04-10T08:46:58Z</time></trkpt><trkpt lat="44.59806977622116" lon="11.669344479022842"><ele>7.0</ele><time>2026-04-10T08:46:59Z</time></trkpt><trkpt lat="44.59789920063335" lon="11.66927771206179"><ele>7.0</ele><time>2026-04-10T08:47:00Z</time></trkpt><trkpt lat="44.597725571202226" lon="11.669211316062553"><ele>7.0</ele><time>2026-04-10T08:47:01Z</time></trkpt><trkpt lat="44.597549358050045" lon="11.669140540138242"><ele>6.666666666666667</ele><time>2026-04-10T08:47:02Z</time></trkpt><trkpt lat="44.597361382231355" lon="11.669069364446404"><ele>6.333333333333334</ele><time>2026-04-10T08:47:03Z</time></trkpt><trkpt lat="44.59717348137095" lon="11.668999012372861"><ele>6.0</ele><time>2026-04-10T08:47:04Z</time></trkpt><trkpt lat="44.59699790503636" lon="11.668927740235631"><ele>6.0</ele><time>2026-04-10T08:47:05Z</time></trkpt><trkpt lat="44.59683054299888" lon="11.668861567916652"><ele>6.0</ele><time>2026-04-10T08:47:06Z</time></trkpt><trkpt lat="44.59666812149645" lon="11.668800024371912"><ele>6.0</ele><time>2026-04-10T08:47:07Z</time></trkpt><trkpt lat="44.596511417947234" lon="11.668739027001475"><ele>6.0</ele><time>2026-04-10T08:47:08Z</time></trkpt><trkpt lat="44.5963624430425" lon="11.6686766838228"><ele>6.0</ele><time>2026-04-10T08:47:09Z</time></trkpt><trkpt lat="44.59621187699016" lon="11.668616012278283"><ele>6.0</ele><time>2026-04-10T08:47:10Z</time></trkpt><trkpt lat="44.59606291340262" lon="11.668556298415012"><ele>6.333333333333334</ele><time>2026-04-10T08:47:11Z</time></trkpt><trkpt lat="44.59591986050511" lon="11.668503325238555"><ele>6.666666666666667</ele><time>2026-04-10T08:47:12Z</time></trkpt><trkpt lat="44.59577452983904" lon="11.668450921128391"><ele>7.0</ele><time>2026-04-10T08:47:13Z</time></trkpt><trkpt lat="44.59562807172518" lon="11.668369839412083"><ele>7.0</ele><time>2026-04-10T08:47:14Z</time></trkpt><trkpt lat="44.59547388069634" lon="11.668310546430822"><ele>7.0</ele><time>2026-04-10T08:47:15Z</time></trkpt><trkpt lat="44.595312897371606" lon="11.668273211303415"><ele>7.0</ele><time>2026-04-10T08:47:16Z</time></trkpt><trkpt lat="44.59515594363373" lon="11.668213596651606"><ele>6.666666666666667</ele><time>2026-04-10T08:47:17Z</time></trkpt><trkpt lat="44.59499595626096" lon="11.668129766856666"><ele>6.333333333333334</ele><time>2026-04-10T08:47:18Z</time></trkpt><trkpt lat="44.59481763172843" lon="11.668061195527027"><ele>6.0</ele><time>2026-04-10T08:47:19Z</time></trkpt><trkpt lat="44.5946218398603" lon="11.667985380881811"><ele>6.333333333333334</ele><time>2026-04-10T08:47:20Z</time></trkpt><trkpt lat="44.59441711267689" lon="11.667906106590927"><ele>6.666666666666667</ele><time>2026-04-10T08:47:21Z</time></trkpt><trkpt lat="44.594209779813916" lon="11.667825106026843"><ele>7.0</ele><time>2026-04-10T08:47:22Z</time></trkpt><trkpt lat="44.59399804969964" lon="11.667742432836816"><ele>8.0</ele><time>2026-04-10T08:47:23Z</time></trkpt><trkpt lat="44.59377772175633" lon="11.667656402533801"><ele>9.0</ele><time>2026-04-10T08:47:24Z</time></trkpt><trkpt lat="44.59355715227452" lon="11.667571551371966"><ele>9.0</ele><time>2026-04-10T08:47:25Z</time></trkpt><trkpt lat="44.593338330876925" lon="11.667487501381954"><ele>9.0</ele><time>2026-04-10T08:47:26Z</time></trkpt><trkpt lat="44.59312175492706" lon="11.66740355008502"><ele>9.0</ele><time>2026-04-10T08:47:27Z</time></trkpt><trkpt lat="44.592907919566336" lon="11.667320247642461"><ele>9.0</ele><time>2026-04-10T08:47:28Z</time></trkpt><trkpt lat="44.59269705119149" lon="11.667238101025763"><ele>9.0</ele><time>2026-04-10T08:47:29Z</time></trkpt><trkpt lat="44.592488601926284" lon="11.667158637523823"><ele>8.666666666666666</ele><time>2026-04-10T08:47:30Z</time></trkpt><trkpt lat="44.592281483932574" lon="11.667080155585408"><ele>8.333333333333332</ele><time>2026-04-10T08:47:31Z</time></trkpt><trkpt lat="44.5920756307318" lon="11.66700267886493"><ele>8.0</ele><time>2026-04-10T08:47:32Z</time></trkpt><trkpt lat="44.59187229687196" lon="11.666925215216477"><ele>8.0</ele><time>2026-04-10T08:47:33Z</time></trkpt><trkpt lat="44.591667057075426" lon="11.666845610532908"><ele>8.0</ele><time>2026-04-10T08:47:34Z</time></trkpt><trkpt lat="44.591461226375536" lon="11.666764470053204"><ele>8.0</ele><time>2026-04-10T08:47:35Z</time></trkpt><trkpt lat="44.591253671845145" lon="11.666681319981954"><ele>8.0</ele><time>2026-04-10T08:47:36Z</time></trkpt><trkpt lat="44.5910490735257" lon="11.66659542794779"><ele>8.0</ele><time>2026-04-10T08:47:37Z</time></trkpt><trkpt lat="44.59084554583328" lon="11.666503135032912"><ele>8.0</ele><time>2026-04-10T08:47:38Z</time></trkpt><trkpt lat="44.59064360433437" lon="11.666408885841557"><ele>8.0</ele><time>2026-04-10T08:47:39Z</time></trkpt><trkpt lat="44.590439524224436" lon="11.666313737155068"><ele>8.0</ele><time>2026-04-10T08:47:40Z</time></trkpt><trkpt lat="44.59023728232634" lon="11.666220042500285"><ele>8.0</ele><time>2026-04-10T08:47:41Z</time></trkpt><trkpt lat="44.59003563664196" lon="11.666126624055048"><ele>8.0</ele><time>2026-04-10T08:47:42Z</time></trkpt><trkpt lat="44.58983408823215" lon="11.666033250670774"><ele>8.0</ele><time>2026-04-10T08:47:43Z</time></trkpt><trkpt lat="44.58962973911202" lon="11.665938579787008"><ele>8.0</ele><time>2026-04-10T08:47:44Z</time></trkpt><trkpt lat="44.589420706635906" lon="11.665841596462116"><ele>8.0</ele><time>2026-04-10T08:47:45Z</time></trkpt><trkpt lat="44.589208167012" lon="11.665741470146807"><ele>8.0</ele><time>2026-04-10T08:47:46Z</time></trkpt><trkpt lat="44.588994306305246" lon="11.665640721479264"><ele>8.0</ele><time>2026-04-10T08:47:47Z</time></trkpt><trkpt lat="44.58877515563188" lon="11.665537847592974"><ele>8.0</ele><time>2026-04-10T08:47:48Z</time></trkpt><trkpt lat="44.58855439679801" lon="11.665435196377135"><ele>8.5</ele><time>2026-04-10T08:47:49Z</time></trkpt><trkpt lat="44.5883337659886" lon="11.665332604675914"><ele>9.0</ele><time>2026-04-10T08:47:50Z</time></trkpt><trkpt lat="44.58810945970003" lon="11.665228303917385"><ele>9.0</ele><time>2026-04-10T08:47:51Z</time></trkpt><trkpt lat="44.587885931330504" lon="11.665124364898645"><ele>9.0</ele><time>2026-04-10T08:47:52Z</time></trkpt><trkpt lat="44.587663521991296" lon="11.665020946187159"><ele>9.0</ele><time>2026-04-10T08:47:53Z</time></trkpt><trkpt lat="44.58743864974796" lon="11.664916382257132"><ele>9.0</ele><time>2026-04-10T08:47:54Z</time></trkpt><trkpt lat="44.58721406788878" lon="11.664811914228217"><ele>9.0</ele><time>2026-04-10T08:47:55Z</time></trkpt><trkpt lat="44.58698817641205" lon="11.664706811254854"><ele>9.0</ele><time>2026-04-10T08:47:56Z</time></trkpt><trkpt lat="44.58676914035405" lon="11.664604897997656"><ele>9.0</ele><time>2026-04-10T08:47:57Z</time></trkpt><trkpt lat="44.58654804588723" lon="11.664502026974397"><ele>9.0</ele><time>2026-04-10T08:47:58Z</time></trkpt><trkpt lat="44.58632413776165" lon="11.664420931709069"><ele>8.666666666666666</ele><time>2026-04-10T08:47:59Z</time></trkpt><trkpt lat="44.586114193965116" lon="11.664318262427788"><ele>8.333333333333332</ele><time>2026-04-10T08:48:00Z</time></trkpt><trkpt lat="44.58590735791443" lon="11.6642213689978"><ele>8.0</ele><time>2026-04-10T08:48:01Z</time></trkpt><trkpt lat="44.585709840910894" lon="11.664128967457762"><ele>8.0</ele><time>2026-04-10T08:48:02Z</time></trkpt><trkpt lat="44.58552565534597" lon="11.664047143929302"><ele>8.0</ele><time>2026-04-10T08:48:03Z</time></trkpt><trkpt lat="44.58535461807685" lon="11.663967756333236"><ele>8.0</ele><time>2026-04-10T08:48:04Z</time></trkpt><trkpt lat="44.58520429391734" lon="11.663896266568639"><ele>8.200000000000001</ele><time>2026-04-10T08:48:05Z</time></trkpt><trkpt lat="44.58507647776829" lon="11.663837198518644"><ele>8.4</ele><time>2026-04-10T08:48:06Z</time></trkpt><trkpt lat="44.58497120097829" lon="11.663782276710508"><ele>8.600000000000001</ele><time>2026-04-10T08:48:07Z</time></trkpt><trkpt lat="44.584872677511335" lon="11.663741961408029"><ele>8.8</ele><time>2026-04-10T08:48:08Z</time></trkpt><trkpt lat="44.5847899387782" lon="11.663698636821412"><ele>9.0</ele><time>2026-04-10T08:48:09Z</time></trkpt><trkpt lat="44.584724779385176" lon="11.663669688691716"><ele>9.0</ele><time>2026-04-10T08:48:10Z</time></trkpt><trkpt lat="44.584668373665" lon="11.663622755871092"><ele>9.0</ele><time>2026-04-10T08:48:12Z</time></trkpt><trkpt lat="44.58460257120078" lon="11.663816497038782"><ele>9.0</ele><time>2026-04-10T08:48:13Z</time></trkpt><trkpt lat="44.58457392039" lon="11.663948753446618"><ele>9.0</ele><time>2026-04-10T08:48:14Z</time></trkpt><trkpt lat="44.58454416548096" lon="11.664112748702717"><ele>9.0</ele><time>2026-04-10T08:48:15Z</time></trkpt><trkpt lat="44.5844996495774" lon="11.664316770394647"><ele>8.666666666666666</ele><time>2026-04-10T08:48:16Z</time></trkpt><trkpt lat="44.58444901808713" lon="11.664541421806803"><ele>8.333333333333332</ele><time>2026-04-10T08:48:17Z</time></trkpt><trkpt lat="44.584398958279266" lon="11.664762240067782"><ele>8.0</ele><time>2026-04-10T08:48:18Z</time></trkpt><trkpt lat="44.58435338726204" lon="11.664987969870976"><ele>8.0</ele><time>2026-04-10T08:48:19Z</time></trkpt><trkpt lat="44.58430141735214" lon="11.665214285547139"><ele>8.0</ele><time>2026-04-10T08:48:20Z</time></trkpt><trkpt lat="44.58425086249438" lon="11.665437226657225"><ele>8.0</ele><time>2026-04-10T08:48:21Z</time></trkpt><trkpt lat="44.584201988845805" lon="11.665650997129365"><ele>8.0</ele><time>2026-04-10T08:48:22Z</time></trkpt><trkpt lat="44.58415573344451" lon="11.665844390732293"><ele>8.0</ele><time>2026-04-10T08:48:23Z</time></trkpt><trkpt lat="44.58411454991041" lon="11.66600880907719"><ele>8.0</ele><time>2026-04-10T08:48:24Z</time></trkpt><trkpt lat="44.584079661904624" lon="11.666135089648956"><ele>8.0</ele><time>2026-04-10T08:48:25Z</time></trkpt><trkpt lat="44.58403454227848" lon="11.666225396009342"><ele>8.0</ele><time>2026-04-10T08:48:26Z</time></trkpt><trkpt lat="44.583863656458625" lon="11.666277971144503"><ele>8.0</ele><time>2026-04-10T08:48:28Z</time></trkpt><trkpt lat="44.58378468679698" lon="11.666182916687347"><ele>8.0</ele><time>2026-04-10T08:48:29Z</time></trkpt><trkpt lat="44.58367960074518" lon="11.666087508081556"><ele>8.0</ele><time>2026-04-10T08:48:30Z</time></trkpt><trkpt lat="44.583555706327964" lon="11.665974751123256"><ele>8.0</ele><time>2026-04-10T08:48:31Z</time></trkpt><trkpt lat="44.58341940621076" lon="11.665844611618484"><ele>8.333333333333332</ele><time>2026-04-10T08:48:32Z</time></trkpt><trkpt lat="44.58326665649019" lon="11.665701830062423"><ele>8.666666666666666</ele><time>2026-04-10T08:48:33Z</time></trkpt><trkpt lat="44.58309584711072" lon="11.665565569561329"><ele>9.0</ele><time>2026-04-10T08:48:34Z</time></trkpt><trkpt lat="44.582934929592675" lon="11.665411733863085"><ele>8.333333333333334</ele><time>2026-04-10T08:48:35Z</time></trkpt><trkpt lat="44.58277262752687" lon="11.665260078783978"><ele>7.666666666666667</ele><time>2026-04-10T08:48:36Z</time></trkpt><trkpt lat="44.582609030967184" lon="11.665109470145199"><ele>7.0</ele><time>2026-04-10T08:48:37Z</time></trkpt><trkpt lat="44.58244691044674" lon="11.66495844943868"><ele>7.0</ele><time>2026-04-10T08:48:38Z</time></trkpt><trkpt lat="44.582283009484044" lon="11.664801797826346"><ele>7.0</ele><time>2026-04-10T08:48:39Z</time></trkpt><trkpt lat="44.58211681801963" lon="11.66464438928193"><ele>7.0</ele><time>2026-04-10T08:48:40Z</time></trkpt><trkpt lat="44.58194593246216" lon="11.664484921743748"><ele>7.666666666666667</ele><time>2026-04-10T08:48:41Z</time></trkpt><trkpt lat="44.58177319067473" lon="11.66432384785386"><ele>8.333333333333334</ele><time>2026-04-10T08:48:42Z</time></trkpt><trkpt lat="44.58159601103028" lon="11.664158527081183"><ele>9.0</ele><time>2026-04-10T08:48:43Z</time></trkpt><trkpt lat="44.5814129417761" lon="11.663987606506401"><ele>9.0</ele><time>2026-04-10T08:48:44Z</time></trkpt><trkpt lat="44.58123499956888" lon="11.663816972895763"><ele>9.0</ele><time>2026-04-10T08:48:45Z</time></trkpt><trkpt lat="44.58105595364875" lon="11.663655066133652"><ele>9.0</ele><time>2026-04-10T08:48:46Z</time></trkpt><trkpt lat="44.58087458773979" lon="11.663488568599565"><ele>9.0</ele><time>2026-04-10T08:48:47Z</time></trkpt><trkpt lat="44.58069476861247" lon="11.663319366829061"><ele>9.0</ele><time>2026-04-10T08:48:48Z</time></trkpt><trkpt lat="44.5805128697487" lon="11.663149850229567"><ele>9.0</ele><time>2026-04-10T08:48:49Z</time></trkpt><trkpt lat="44.5803315885561" lon="11.662981815937624"><ele>9.0</ele><time>2026-04-10T08:48:50Z</time></trkpt><trkpt lat="44.58015227679243" lon="11.662813959577207"><ele>9.0</ele><time>2026-04-10T08:48:51Z</time></trkpt><trkpt lat="44.57997245037025" lon="11.662646858126099"><ele>9.0</ele><time>2026-04-10T08:48:52Z</time></trkpt><trkpt lat="44.579794736483365" lon="11.662479538540103"><ele>8.666666666666666</ele><time>2026-04-10T08:48:53Z</time></trkpt><trkpt lat="44.5796203692934" lon="11.662307943072602"><ele>8.333333333333332</ele><time>2026-04-10T08:48:54Z</time></trkpt><trkpt lat="44.579443429121575" lon="11.662140570017193"><ele>8.0</ele><time>2026-04-10T08:48:55Z</time></trkpt><trkpt lat="44.579264752672074" lon="11.661974730052913"><ele>8.0</ele><time>2026-04-10T08:48:56Z</time></trkpt><trkpt lat="44.57908675298949" lon="11.661807740128136"><ele>8.0</ele><time>2026-04-10T08:48:57Z</time></trkpt><trkpt lat="44.57890735445604" lon="11.661641964309196"><ele>8.0</ele><time>2026-04-10T08:48:58Z</time></trkpt><trkpt lat="44.57872813940894" lon="11.661474864988305"><ele>8.0</ele><time>2026-04-10T08:48:59Z</time></trkpt><trkpt lat="44.578545008488966" lon="11.661305438110867"><ele>8.0</ele><time>2026-04-10T08:49:00Z</time></trkpt><trkpt lat="44.578360455477" lon="11.661132938862334"><ele>8.0</ele><time>2026-04-10T08:49:01Z</time></trkpt><trkpt lat="44.57817810324795" lon="11.660962904419378"><ele>8.0</ele><time>2026-04-10T08:49:02Z</time></trkpt><trkpt lat="44.57799677131978" lon="11.660795455861402"><ele>8.0</ele><time>2026-04-10T08:49:03Z</time></trkpt><trkpt lat="44.57781756824722" lon="11.660629241388149"><ele>8.0</ele><time>2026-04-10T08:49:04Z</time></trkpt><trkpt lat="44.5776428911197" lon="11.660467334947214"><ele>8.333333333333332</ele><time>2026-04-10T08:49:05Z</time></trkpt><trkpt lat="44.577479168205805" lon="11.660310816986383"><ele>8.666666666666666</ele><time>2026-04-10T08:49:06Z</time></trkpt><trkpt lat="44.577315496269144" lon="11.660154892070643"><ele>9.0</ele><time>2026-04-10T08:49:07Z</time></trkpt><trkpt lat="44.57715052212425" lon="11.65999720402194"><ele>9.333333333333334</ele><time>2026-04-10T08:49:08Z</time></trkpt><trkpt lat="44.57698492955844" lon="11.659833768068738"><ele>9.666666666666668</ele><time>2026-04-10T08:49:09Z</time></trkpt><trkpt lat="44.57682006550688" lon="11.659666078282065"><ele>10.0</ele><time>2026-04-10T08:49:10Z</time></trkpt><trkpt lat="44.57665093700932" lon="11.65949507128054"><ele>9.666666666666668</ele><time>2026-04-10T08:49:11Z</time></trkpt><trkpt lat="44.57648055714854" lon="11.659320741305455"><ele>9.333333333333334</ele><time>2026-04-10T08:49:12Z</time></trkpt><trkpt lat="44.57631310804708" lon="11.659146258374825"><ele>9.0</ele><time>2026-04-10T08:49:13Z</time></trkpt><trkpt lat="44.57614965088585" lon="11.658975397298061"><ele>9.0</ele><time>2026-04-10T08:49:14Z</time></trkpt><trkpt lat="44.57599745878489" lon="11.65881638058844"><ele>9.0</ele><time>2026-04-10T08:49:15Z</time></trkpt><trkpt lat="44.575853726729605" lon="11.658668368768751"><ele>9.0</ele><time>2026-04-10T08:49:16Z</time></trkpt><trkpt lat="44.57572875277643" lon="11.658510155902862"><ele>9.0</ele><time>2026-04-10T08:49:17Z</time></trkpt><trkpt lat="44.57561603413906" lon="11.658392246239226"><ele>9.0</ele><time>2026-04-10T08:49:18Z</time></trkpt><trkpt lat="44.575529378857446" lon="11.658301010578532"><ele>9.0</ele><time>2026-04-10T08:49:19Z</time></trkpt><trkpt lat="44.575468623813244" lon="11.658237894253734"><ele>9.0</ele><time>2026-04-10T08:49:20Z</time></trkpt><trkpt lat="44.57539142456023" lon="11.65818305539887"><ele>9.0</ele><time>2026-04-10T08:49:22Z</time></trkpt><trkpt lat="44.575321071562065" lon="11.658087104857017"><ele>9.0</ele><time>2026-04-10T08:50:55Z</time></trkpt><trkpt lat="44.57522690115883" lon="11.657990868452842"><ele>9.0</ele><time>2026-04-10T08:50:57Z</time></trkpt><trkpt lat="44.57517274084464" lon="11.657935519906003"><ele>9.0</ele><time>2026-04-10T08:50:58Z</time></trkpt><trkpt lat="44.575105580208636" lon="11.65786589096755"><ele>9.0</ele><time>2026-04-10T08:50:59Z</time></trkpt><trkpt lat="44.575021896212945" lon="11.657778806039099"><ele>9.0</ele><time>2026-04-10T08:51:00Z</time></trkpt><trkpt lat="44.5749267741424" lon="11.657679818160485"><ele>9.0</ele><time>2026-04-10T08:51:01Z</time></trkpt><trkpt lat="44.574827761940334" lon="11.657578446431165"><ele>9.0</ele><time>2026-04-10T08:51:02Z</time></trkpt><trkpt lat="44.57473266634969" lon="11.657481067941207"><ele>9.0</ele><time>2026-04-10T08:51:03Z</time></trkpt><trkpt lat="44.57463757194083" lon="11.657383690648734"><ele>9.0</ele><time>2026-04-10T08:51:04Z</time></trkpt><trkpt lat="44.57453712455401" lon="11.657286038484544"><ele>9.75</ele><time>2026-04-10T08:51:05Z</time></trkpt><trkpt lat="44.57442280050272" lon="11.657197155280455"><ele>10.5</ele><time>2026-04-10T08:51:06Z</time></trkpt><trkpt lat="44.57429492136841" lon="11.657123080865347"><ele>11.25</ele><time>2026-04-10T08:51:07Z</time></trkpt><trkpt lat="44.574148040831" lon="11.657069141013583"><ele>12.0</ele><time>2026-04-10T08:51:08Z</time></trkpt><trkpt lat="44.57399956349495" lon="11.657031359850667"><ele>12.0</ele><time>2026-04-10T08:51:09Z</time></trkpt><trkpt lat="44.57385002638723" lon="11.656994320537809"><ele>12.0</ele><time>2026-04-10T08:51:10Z</time></trkpt><trkpt lat="44.57369837069142" lon="11.656956202537536"><ele>12.0</ele><time>2026-04-10T08:51:11Z</time></trkpt><trkpt lat="44.57354804496407" lon="11.6569170450676"><ele>12.0</ele><time>2026-04-10T08:51:12Z</time></trkpt><trkpt lat="44.573397196273525" lon="11.656875932424398"><ele>12.0</ele><time>2026-04-10T08:51:13Z</time></trkpt><trkpt lat="44.57323910898185" lon="11.656827020178872"><ele>12.0</ele><time>2026-04-10T08:51:14Z</time></trkpt><trkpt lat="44.573080012047484" lon="11.656777795541473"><ele>12.0</ele><time>2026-04-10T08:51:15Z</time></trkpt><trkpt lat="44.572927429564345" lon="11.656727593359955"><ele>12.0</ele><time>2026-04-10T08:51:16Z</time></trkpt><trkpt lat="44.57277587531975" lon="11.656677185823616"><ele>12.0</ele><time>2026-04-10T08:51:17Z</time></trkpt><trkpt lat="44.57262686648763" lon="11.65662762490536"><ele>12.25</ele><time>2026-04-10T08:51:18Z</time></trkpt><trkpt lat="44.57247904129859" lon="11.656578400224038"><ele>12.5</ele><time>2026-04-10T08:51:19Z</time></trkpt><trkpt lat="44.57234444291316" lon="11.656533366881808"><ele>12.75</ele><time>2026-04-10T08:51:20Z</time></trkpt><trkpt lat="44.572227613170355" lon="11.656494278504612"><ele>13.0</ele><time>2026-04-10T08:51:21Z</time></trkpt><trkpt lat="44.57212669774097" lon="11.656460412361197"><ele>13.0</ele><time>2026-04-10T08:51:22Z</time></trkpt><trkpt lat="44.57204180995291" lon="11.656431745389824"><ele>13.0</ele><time>2026-04-10T08:51:23Z</time></trkpt><trkpt lat="44.57196802378878" lon="11.656406827517632"><ele>13.0</ele><time>2026-04-10T08:51:24Z</time></trkpt><trkpt lat="44.57188378230619" lon="11.656378378815475"><ele>13.0</ele><time>2026-04-10T08:51:25Z</time></trkpt><trkpt lat="44.57178732690505" lon="11.656345805423518"><ele>13.0</ele><time>2026-04-10T08:51:26Z</time></trkpt><trkpt lat="44.57167488111973" lon="11.656330918289164"><ele>12.5</ele><time>2026-04-10T08:51:27Z</time></trkpt><trkpt lat="44.57155431120972" lon="11.656288811879001"><ele>12.0</ele><time>2026-04-10T08:51:28Z</time></trkpt><trkpt lat="44.571416312868024" lon="11.656243667953378"><ele>11.5</ele><time>2026-04-10T08:51:29Z</time></trkpt><trkpt lat="44.571274214862086" lon="11.656172527274501"><ele>11.0</ele><time>2026-04-10T08:51:30Z</time></trkpt><trkpt lat="44.571122199289725" lon="11.65612119116679"><ele>11.333333333333332</ele><time>2026-04-10T08:51:31Z</time></trkpt><trkpt lat="44.5709689969036" lon="11.656069453884065"><ele>11.666666666666666</ele><time>2026-04-10T08:51:32Z</time></trkpt><trkpt lat="44.57081055334758" lon="11.656015305275123"><ele>12.0</ele><time>2026-04-10T08:51:33Z</time></trkpt><trkpt lat="44.57065276302082" lon="11.655961061978736"><ele>12.0</ele><time>2026-04-10T08:51:34Z</time></trkpt><trkpt lat="44.57050017294992" lon="11.65590824436898"><ele>12.0</ele><time>2026-04-10T08:51:35Z</time></trkpt><trkpt lat="44.570352040543995" lon="11.655856657784415"><ele>12.0</ele><time>2026-04-10T08:51:36Z</time></trkpt><trkpt lat="44.57020670587491" lon="11.655806159918956"><ele>12.0</ele><time>2026-04-10T08:51:37Z</time></trkpt><trkpt lat="44.570061697685624" lon="11.655757024906007"><ele>12.0</ele><time>2026-04-10T08:51:38Z</time></trkpt><trkpt lat="44.56992187921393" lon="11.655712293791845"><ele>12.0</ele><time>2026-04-10T08:51:39Z</time></trkpt><trkpt lat="44.56978392049819" lon="11.655677134806414"><ele>12.0</ele><time>2026-04-10T08:51:40Z</time></trkpt><trkpt lat="44.569646832906585" lon="11.655665911294179"><ele>11.0</ele><time>2026-04-10T08:51:41Z</time></trkpt><trkpt lat="44.56951014523701" lon="11.65568246334263"><ele>10.0</ele><time>2026-04-10T08:51:42Z</time></trkpt><trkpt lat="44.569367923774095" lon="11.655720818784404"><ele>9.0</ele><time>2026-04-10T08:51:43Z</time></trkpt><trkpt lat="44.5692126029991" lon="11.65578586797356"><ele>8.0</ele><time>2026-04-10T08:51:44Z</time></trkpt><trkpt lat="44.56905925620039" lon="11.655875576870388"><ele>8.0</ele><time>2026-04-10T08:51:45Z</time></trkpt><trkpt lat="44.56890309989066" lon="11.65595614712323"><ele>8.0</ele><time>2026-04-10T08:51:46Z</time></trkpt><trkpt lat="44.56874330802255" lon="11.656034593346105"><ele>8.0</ele><time>2026-04-10T08:51:47Z</time></trkpt><trkpt lat="44.56857444466872" lon="11.656115534360168"><ele>8.0</ele><time>2026-04-10T08:51:48Z</time></trkpt><trkpt lat="44.568404980489376" lon="11.656194503437419"><ele>8.0</ele><time>2026-04-10T08:51:49Z</time></trkpt><trkpt lat="44.56824360933373" lon="11.656268207748008"><ele>8.0</ele><time>2026-04-10T08:51:50Z</time></trkpt><trkpt lat="44.56808223537448" lon="11.656364351934776"><ele>8.0</ele><time>2026-04-10T08:51:51Z</time></trkpt><trkpt lat="44.567916005626316" lon="11.656441609955795"><ele>8.0</ele><time>2026-04-10T08:51:52Z</time></trkpt><trkpt lat="44.567754223607366" lon="11.656513440103133"><ele>8.0</ele><time>2026-04-10T08:51:53Z</time></trkpt><trkpt lat="44.56759136665562" lon="11.65658747524403"><ele>8.333333333333332</ele><time>2026-04-10T08:51:54Z</time></trkpt><trkpt lat="44.56742594111695" lon="11.656664202020766"><ele>8.666666666666666</ele><time>2026-04-10T08:51:55Z</time></trkpt><trkpt lat="44.56725308433698" lon="11.656742346492852"><ele>9.0</ele><time>2026-04-10T08:51:56Z</time></trkpt><trkpt lat="44.56707667698018" lon="11.656820989412358"><ele>8.666666666666666</ele><time>2026-04-10T08:51:57Z</time></trkpt><trkpt lat="44.566899993311615" lon="11.656901035814908"><ele>8.333333333333332</ele><time>2026-04-10T08:51:58Z</time></trkpt><trkpt lat="44.56672799430542" lon="11.656979665254951"><ele>8.0</ele><time>2026-04-10T08:51:59Z</time></trkpt><trkpt lat="44.56656648622368" lon="11.657055866914376"><ele>9.0</ele><time>2026-04-10T08:52:00Z</time></trkpt><trkpt lat="44.5664073427851" lon="11.657129145337658"><ele>10.0</ele><time>2026-04-10T08:52:01Z</time></trkpt><trkpt lat="44.56625064065579" lon="11.65720010483207"><ele>11.0</ele><time>2026-04-10T08:52:02Z</time></trkpt><trkpt lat="44.56610021438164" lon="11.657269976256599"><ele>11.0</ele><time>2026-04-10T08:52:03Z</time></trkpt><trkpt lat="44.56596864582334" lon="11.657307794643428"><ele>11.0</ele><time>2026-04-10T08:52:04Z</time></trkpt><trkpt lat="44.56586208498832" lon="11.65738015553951"><ele>11.0</ele><time>2026-04-10T08:52:05Z</time></trkpt><trkpt lat="44.56576246981792" lon="11.657415862425173"><ele>11.0</ele><time>2026-04-10T08:52:06Z</time></trkpt><trkpt lat="44.56567204708499" lon="11.657435974187017"><ele>11.0</ele><time>2026-04-10T08:52:07Z</time></trkpt><trkpt lat="44.56558854632775" lon="11.657421805987324"><ele>11.0</ele><time>2026-04-10T08:52:08Z</time></trkpt><trkpt lat="44.56551479346139" lon="11.6573601940757"><ele>11.0</ele><time>2026-04-10T08:52:09Z</time></trkpt><trkpt lat="44.56545705188604" lon="11.657244212159183"><ele>11.0</ele><time>2026-04-10T08:52:10Z</time></trkpt><trkpt lat="44.56542734198968" lon="11.657083980071954"><ele>11.0</ele><time>2026-04-10T08:52:11Z</time></trkpt><trkpt lat="44.565379524150536" lon="11.656893530555058"><ele>11.0</ele><time>2026-04-10T08:52:12Z</time></trkpt><trkpt lat="44.565317766971766" lon="11.656658421914871"><ele>10.0</ele><time>2026-04-10T08:52:13Z</time></trkpt><trkpt lat="44.5652473764293" lon="11.656392898735584"><ele>9.0</ele><time>2026-04-10T08:52:14Z</time></trkpt><trkpt lat="44.56517063977123" lon="11.656105197710081"><ele>8.0</ele><time>2026-04-10T08:52:15Z</time></trkpt><trkpt lat="44.565079072252786" lon="11.655807811788026"><ele>8.0</ele><time>2026-04-10T08:52:16Z</time></trkpt><trkpt lat="44.564993339593585" lon="11.655494352556495"><ele>8.0</ele><time>2026-04-10T08:52:17Z</time></trkpt><trkpt lat="44.564910591097934" lon="11.655171603615083"><ele>10.0</ele><time>2026-04-10T08:52:18Z</time></trkpt><trkpt lat="44.56482688858053" lon="11.65484650256091"><ele>12.0</ele><time>2026-04-10T08:52:19Z</time></trkpt><trkpt lat="44.5647404405147" lon="11.654519914350605"><ele>9.5</ele><time>2026-04-10T08:52:20Z</time></trkpt><trkpt lat="44.564650047576684" lon="11.654196552307482"><ele>7.0</ele><time>2026-04-10T08:52:21Z</time></trkpt><trkpt lat="44.5645616895429" lon="11.653872996088117"><ele>7.0</ele><time>2026-04-10T08:52:22Z</time></trkpt><trkpt lat="44.564474390687096" lon="11.653547089001885"><ele>7.0</ele><time>2026-04-10T08:52:23Z</time></trkpt><trkpt lat="44.56438768493849" lon="11.653221188483908"><ele>7.0</ele><time>2026-04-10T08:52:24Z</time></trkpt><trkpt lat="44.56430156740457" lon="11.652896839860793"><ele>7.0</ele><time>2026-04-10T08:52:25Z</time></trkpt><trkpt lat="44.56421436488896" lon="11.652569495426166"><ele>7.5</ele><time>2026-04-10T08:52:26Z</time></trkpt><trkpt lat="44.56412559608588" lon="11.652241982856218"><ele>8.0</ele><time>2026-04-10T08:52:27Z</time></trkpt><trkpt lat="44.564038083442796" lon="11.651914454565121"><ele>6.5</ele><time>2026-04-10T08:52:28Z</time></trkpt><trkpt lat="44.56395116703488" lon="11.651586039621687"><ele>5.0</ele><time>2026-04-10T08:52:29Z</time></trkpt><trkpt lat="44.5638640886074" lon="11.651257145088291"><ele>4.5</ele><time>2026-04-10T08:52:30Z</time></trkpt><trkpt lat="44.56377714970047" lon="11.650930559628824"><ele>4.0</ele><time>2026-04-10T08:52:31Z</time></trkpt><trkpt lat="44.5636903964169" lon="11.650606685383414"><ele>4.5</ele><time>2026-04-10T08:52:32Z</time></trkpt><trkpt lat="44.56360377820095" lon="11.650283358485915"><ele>5.0</ele><time>2026-04-10T08:52:33Z</time></trkpt><trkpt lat="44.563517088043255" lon="11.649960669571552"><ele>5.0</ele><time>2026-04-10T08:52:34Z</time></trkpt><trkpt lat="44.56342904413112" lon="11.649636413992981"><ele>5.0</ele><time>2026-04-10T08:52:35Z</time></trkpt><trkpt lat="44.5633428078721" lon="11.64931408531484"><ele>5.5</ele><time>2026-04-10T08:52:36Z</time></trkpt><trkpt lat="44.56325462083687" lon="11.648990564828514"><ele>6.0</ele><time>2026-04-10T08:52:37Z</time></trkpt><trkpt lat="44.563166461426505" lon="11.648665681218837"><ele>6.5</ele><time>2026-04-10T08:52:38Z</time></trkpt><trkpt lat="44.563080498204094" lon="11.648337613930586"><ele>7.0</ele><time>2026-04-10T08:52:39Z</time></trkpt><trkpt lat="44.56299361566726" lon="11.648005076643454"><ele>6.5</ele><time>2026-04-10T08:52:40Z</time></trkpt><trkpt lat="44.56290491287269" lon="11.6476723409219"><ele>6.0</ele><time>2026-04-10T08:52:41Z</time></trkpt><trkpt lat="44.562815396116264" lon="11.647339014583274"><ele>6.0</ele><time>2026-04-10T08:52:42Z</time></trkpt><trkpt lat="44.56272493842369" lon="11.64700786186778"><ele>6.0</ele><time>2026-04-10T08:52:43Z</time></trkpt><trkpt lat="44.56263339470883" lon="11.64667412810731"><ele>6.0</ele><time>2026-04-10T08:52:44Z</time></trkpt><trkpt lat="44.562543517005736" lon="11.646345536110584"><ele>6.0</ele><time>2026-04-10T08:52:45Z</time></trkpt><trkpt lat="44.56245541098666" lon="11.646018552301095"><ele>6.0</ele><time>2026-04-10T08:52:46Z</time></trkpt><trkpt lat="44.56236836321795" lon="11.645697864205093"><ele>6.0</ele><time>2026-04-10T08:52:47Z</time></trkpt><trkpt lat="44.56229707119588" lon="11.645385454260206"><ele>6.0</ele><time>2026-04-10T08:52:48Z</time></trkpt><trkpt lat="44.56221435857619" lon="11.645081814154118"><ele>6.0</ele><time>2026-04-10T08:52:49Z</time></trkpt><trkpt lat="44.56213088310292" lon="11.644777170720618"><ele>6.0</ele><time>2026-04-10T08:52:50Z</time></trkpt><trkpt lat="44.562032739971535" lon="11.644482199798862"><ele>6.0</ele><time>2026-04-10T08:52:51Z</time></trkpt><trkpt lat="44.56195164667468" lon="11.644179159406567"><ele>6.5</ele><time>2026-04-10T08:52:52Z</time></trkpt><trkpt lat="44.56188396504004" lon="11.643868574415944"><ele>7.0</ele><time>2026-04-10T08:52:53Z</time></trkpt><trkpt lat="44.56180353440461" lon="11.643566740264076"><ele>7.0</ele><time>2026-04-10T08:52:54Z</time></trkpt><trkpt lat="44.56172349462819" lon="11.643266315200236"><ele>7.0</ele><time>2026-04-10T08:52:55Z</time></trkpt><trkpt lat="44.561642804464036" lon="11.642967312958337"><ele>7.0</ele><time>2026-04-10T08:52:56Z</time></trkpt><trkpt lat="44.561543628336935" lon="11.642676365074031"><ele>7.0</ele><time>2026-04-10T08:52:57Z</time></trkpt><trkpt lat="44.561463430985825" lon="11.642376617876597"><ele>7.0</ele><time>2026-04-10T08:52:58Z</time></trkpt><trkpt lat="44.56138429973614" lon="11.642075373901358"><ele>7.0</ele><time>2026-04-10T08:52:59Z</time></trkpt><trkpt lat="44.56130479341295" lon="11.641774050303411"><ele>7.0</ele><time>2026-04-10T08:53:00Z</time></trkpt><trkpt lat="44.561224111464085" lon="11.641473301386053"><ele>7.0</ele><time>2026-04-10T08:53:01Z</time></trkpt><trkpt lat="44.56114267832236" lon="11.641173511046585"><ele>7.0</ele><time>2026-04-10T08:53:02Z</time></trkpt><trkpt lat="44.56106377869753" lon="11.64087497222125"><ele>7.0</ele><time>2026-04-10T08:53:03Z</time></trkpt><trkpt lat="44.56098526112969" lon="11.640582846228462"><ele>7.0</ele><time>2026-04-10T08:53:04Z</time></trkpt><trkpt lat="44.560905904203985" lon="11.640294678109417"><ele>7.666666666666667</ele><time>2026-04-10T08:53:05Z</time></trkpt><trkpt lat="44.5608292649238" lon="11.640012551563693"><ele>8.333333333333334</ele><time>2026-04-10T08:53:06Z</time></trkpt><trkpt lat="44.5607541296368" lon="11.639735184441973"><ele>9.0</ele><time>2026-04-10T08:53:07Z</time></trkpt><trkpt lat="44.56068057511656" lon="11.639464090463825"><ele>9.0</ele><time>2026-04-10T08:53:08Z</time></trkpt><trkpt lat="44.56061071187099" lon="11.639205432536972"><ele>9.0</ele><time>2026-04-10T08:53:09Z</time></trkpt><trkpt lat="44.560538865492596" lon="11.638945101218937"><ele>9.0</ele><time>2026-04-10T08:53:10Z</time></trkpt><trkpt lat="44.56047093112085" lon="11.638692508568944"><ele>9.333333333333334</ele><time>2026-04-10T08:53:11Z</time></trkpt><trkpt lat="44.56040822572974" lon="11.638449131435845"><ele>9.666666666666668</ele><time>2026-04-10T08:53:12Z</time></trkpt><trkpt lat="44.56034834082777" lon="11.638211561384109"><ele>10.0</ele><time>2026-04-10T08:53:13Z</time></trkpt><trkpt lat="44.560289902195194" lon="11.637986342207142"><ele>10.0</ele><time>2026-04-10T08:53:14Z</time></trkpt><trkpt lat="44.560231841294495" lon="11.637769541965392"><ele>10.0</ele><time>2026-04-10T08:53:15Z</time></trkpt><trkpt lat="44.56017734559212" lon="11.637556460229977"><ele>10.0</ele><time>2026-04-10T08:53:16Z</time></trkpt><trkpt lat="44.56012241853579" lon="11.637352322148491"><ele>10.0</ele><time>2026-04-10T08:53:17Z</time></trkpt><trkpt lat="44.560069415583094" lon="11.637153628478003"><ele>10.0</ele><time>2026-04-10T08:53:18Z</time></trkpt><trkpt lat="44.56001941180905" lon="11.636963993174055"><ele>10.0</ele><time>2026-04-10T08:53:19Z</time></trkpt><trkpt lat="44.559971234751664" lon="11.636780220768731"><ele>10.0</ele><time>2026-04-10T08:53:20Z</time></trkpt><trkpt lat="44.55992526215407" lon="11.636595896558108"><ele>9.666666666666668</ele><time>2026-04-10T08:53:21Z</time></trkpt><trkpt lat="44.55987527983961" lon="11.636399607955537"><ele>9.333333333333334</ele><time>2026-04-10T08:53:22Z</time></trkpt><trkpt lat="44.55982177289007" lon="11.636186804170787"><ele>9.0</ele><time>2026-04-10T08:53:23Z</time></trkpt><trkpt lat="44.559761089751014" lon="11.635964903394104"><ele>9.0</ele><time>2026-04-10T08:53:24Z</time></trkpt><trkpt lat="44.55970002667479" lon="11.635743703575601"><ele>9.0</ele><time>2026-04-10T08:53:25Z</time></trkpt><trkpt lat="44.55963823102342" lon="11.63552563603781"><ele>9.0</ele><time>2026-04-10T08:53:26Z</time></trkpt><trkpt lat="44.55957980888264" lon="11.635308997578493"><ele>9.0</ele><time>2026-04-10T08:53:27Z</time></trkpt><trkpt lat="44.55952556777641" lon="11.635099780829488"><ele>9.0</ele><time>2026-04-10T08:53:28Z</time></trkpt><trkpt lat="44.55946898625931" lon="11.634899938095392"><ele>9.0</ele><time>2026-04-10T08:53:29Z</time></trkpt><trkpt lat="44.559414478569025" lon="11.634705156435826"><ele>9.0</ele><time>2026-04-10T08:53:30Z</time></trkpt><trkpt lat="44.55936160191928" lon="11.634513478849465"><ele>9.0</ele><time>2026-04-10T08:53:31Z</time></trkpt><trkpt lat="44.55931012567" lon="11.634328265609327"><ele>9.0</ele><time>2026-04-10T08:53:32Z</time></trkpt><trkpt lat="44.55925801294121" lon="11.634151533289177"><ele>9.0</ele><time>2026-04-10T08:53:33Z</time></trkpt><trkpt lat="44.55920920306087" lon="11.633981197838322"><ele>9.5</ele><time>2026-04-10T08:53:34Z</time></trkpt><trkpt lat="44.55916148624341" lon="11.63381870322451"><ele>10.0</ele><time>2026-04-10T08:53:35Z</time></trkpt><trkpt lat="44.55911344478287" lon="11.633659574724904"><ele>10.5</ele><time>2026-04-10T08:53:36Z</time></trkpt><trkpt lat="44.55906765125021" lon="11.63350670354463"><ele>11.0</ele><time>2026-04-10T08:53:37Z</time></trkpt><trkpt lat="44.55902410934439" lon="11.633358401731371"><ele>11.25</ele><time>2026-04-10T08:53:38Z</time></trkpt><trkpt lat="44.558981819441826" lon="11.633215750952171"><ele>11.5</ele><time>2026-04-10T08:53:39Z</time></trkpt><trkpt lat="44.55893934927201" lon="11.633059309363041"><ele>11.75</ele><time>2026-04-10T08:53:40Z</time></trkpt><trkpt lat="44.5588933939768" lon="11.632892728227038"><ele>12.0</ele><time>2026-04-10T08:53:41Z</time></trkpt><trkpt lat="44.55884489733748" lon="11.632722339380038"><ele>12.0</ele><time>2026-04-10T08:53:42Z</time></trkpt><trkpt lat="44.55879383617751" lon="11.63254911998915"><ele>12.0</ele><time>2026-04-10T08:53:43Z</time></trkpt><trkpt lat="44.55874418755755" lon="11.632385368006037"><ele>12.0</ele><time>2026-04-10T08:53:44Z</time></trkpt><trkpt lat="44.558695055739825" lon="11.632232825425907"><ele>12.0</ele><time>2026-04-10T08:53:45Z</time></trkpt><trkpt lat="44.55864898463987" lon="11.63208189573861"><ele>11.75</ele><time>2026-04-10T08:53:46Z</time></trkpt><trkpt lat="44.558606027227285" lon="11.631933835388553"><ele>11.5</ele><time>2026-04-10T08:53:47Z</time></trkpt><trkpt lat="44.55856738080151" lon="11.631777590978489"><ele>11.25</ele><time>2026-04-10T08:53:48Z</time></trkpt><trkpt lat="44.558525744231545" lon="11.631616691033988"><ele>11.0</ele><time>2026-04-10T08:53:49Z</time></trkpt><trkpt lat="44.55847943922977" lon="11.631452241930843"><ele>11.0</ele><time>2026-04-10T08:53:50Z</time></trkpt><trkpt lat="44.55843123872732" lon="11.631299049256507"><ele>11.0</ele><time>2026-04-10T08:53:51Z</time></trkpt><trkpt lat="44.558369289716154" lon="11.631144721059854"><ele>11.0</ele><time>2026-04-10T08:53:52Z</time></trkpt><trkpt lat="44.55828913290702" lon="11.630990195671517"><ele>11.0</ele><time>2026-04-10T08:53:53Z</time></trkpt><trkpt lat="44.558197508985245" lon="11.630832728013287"><ele>10.75</ele><time>2026-04-10T08:53:54Z</time></trkpt><trkpt lat="44.5581000619584" lon="11.630676198861469"><ele>10.5</ele><time>2026-04-10T08:53:55Z</time></trkpt><trkpt lat="44.55800236168004" lon="11.630520960484693"><ele>10.25</ele><time>2026-04-10T08:53:56Z</time></trkpt><trkpt lat="44.557905979364556" lon="11.630370798371642"><ele>10.0</ele><time>2026-04-10T08:53:57Z</time></trkpt><trkpt lat="44.55781293223413" lon="11.630225350618288"><ele>10.5</ele><time>2026-04-10T08:53:58Z</time></trkpt><trkpt lat="44.557717380930626" lon="11.63007740341685"><ele>11.0</ele><time>2026-04-10T08:53:59Z</time></trkpt><trkpt lat="44.55761886341213" lon="11.629930559392319"><ele>11.5</ele><time>2026-04-10T08:54:00Z</time></trkpt><trkpt lat="44.55751814652901" lon="11.62978571519623"><ele>12.0</ele><time>2026-04-10T08:54:01Z</time></trkpt><trkpt lat="44.55743579684246" lon="11.629625808965475"><ele>12.0</ele><time>2026-04-10T08:54:02Z</time></trkpt><trkpt lat="44.557340917277536" lon="11.629489605146212"><ele>12.0</ele><time>2026-04-10T08:54:03Z</time></trkpt><trkpt lat="44.557247088094755" lon="11.629360289914931"><ele>12.0</ele><time>2026-04-10T08:54:04Z</time></trkpt><trkpt lat="44.55715640058347" lon="11.62923530400146"><ele>12.0</ele><time>2026-04-10T08:54:05Z</time></trkpt><trkpt lat="44.55706970154394" lon="11.629115815495336"><ele>12.0</ele><time>2026-04-10T08:54:06Z</time></trkpt><trkpt lat="44.556985432263566" lon="11.62899967766899"><ele>12.0</ele><time>2026-04-10T08:54:07Z</time></trkpt><trkpt lat="44.556903132487726" lon="11.628886259072953"><ele>12.0</ele><time>2026-04-10T08:54:08Z</time></trkpt><trkpt lat="44.55682313947554" lon="11.628776019017653"><ele>12.0</ele><time>2026-04-10T08:54:09Z</time></trkpt><trkpt lat="44.55674470838701" lon="11.628667931386165"><ele>12.0</ele><time>2026-04-10T08:54:10Z</time></trkpt><trkpt lat="44.556665895419826" lon="11.628559319955416"><ele>12.0</ele><time>2026-04-10T08:54:11Z</time></trkpt><trkpt lat="44.556588827501386" lon="11.628454485284923"><ele>12.0</ele><time>2026-04-10T08:54:12Z</time></trkpt><trkpt lat="44.55650200895398" lon="11.628367280096972"><ele>12.0</ele><time>2026-04-10T08:54:13Z</time></trkpt><trkpt lat="44.55643712811021" lon="11.628247201455066"><ele>12.0</ele><time>2026-04-10T08:54:14Z</time></trkpt><trkpt lat="44.55635882063999" lon="11.628140519973586"><ele>12.0</ele><time>2026-04-10T08:54:15Z</time></trkpt><trkpt lat="44.55628455064626" lon="11.628039338989042"><ele>12.0</ele><time>2026-04-10T08:54:16Z</time></trkpt><trkpt lat="44.556200674646576" lon="11.627954716501554"><ele>12.0</ele><time>2026-04-10T08:54:17Z</time></trkpt><trkpt lat="44.55613040737454" lon="11.627857932306943"><ele>12.0</ele><time>2026-04-10T08:54:18Z</time></trkpt><trkpt lat="44.556060634981534" lon="11.627762471657556"><ele>12.0</ele><time>2026-04-10T08:54:19Z</time></trkpt><trkpt lat="44.55598933149574" lon="11.627662181504714"><ele>12.399999999999999</ele><time>2026-04-10T08:54:20Z</time></trkpt><trkpt lat="44.55590806807697" lon="11.627557376192174"><ele>12.799999999999999</ele><time>2026-04-10T08:54:21Z</time></trkpt><trkpt lat="44.55582552432639" lon="11.627447669671183"><ele>13.2</ele><time>2026-04-10T08:54:22Z</time></trkpt><trkpt lat="44.55574507212749" lon="11.627338254476195"><ele>13.6</ele><time>2026-04-10T08:54:23Z</time></trkpt><trkpt lat="44.555666827033285" lon="11.627227982044118"><ele>14.0</ele><time>2026-04-10T08:54:24Z</time></trkpt><trkpt lat="44.55558844621943" lon="11.627120327650054"><ele>14.0</ele><time>2026-04-10T08:54:25Z</time></trkpt><trkpt lat="44.55550893148491" lon="11.62700904924626"><ele>14.0</ele><time>2026-04-10T08:54:26Z</time></trkpt><trkpt lat="44.55542634715484" lon="11.626892657284328"><ele>14.0</ele><time>2026-04-10T08:54:27Z</time></trkpt><trkpt lat="44.55534074087186" lon="11.626770973862222"><ele>14.0</ele><time>2026-04-10T08:54:28Z</time></trkpt><trkpt lat="44.55524903982595" lon="11.626652012957019"><ele>13.25</ele><time>2026-04-10T08:54:29Z</time></trkpt><trkpt lat="44.55515364960334" lon="11.626529114126713"><ele>12.5</ele><time>2026-04-10T08:54:30Z</time></trkpt><trkpt lat="44.55505731370007" lon="11.626401624215344"><ele>11.75</ele><time>2026-04-10T08:54:31Z</time></trkpt><trkpt lat="44.554959310465705" lon="11.626271789918167"><ele>11.0</ele><time>2026-04-10T08:54:32Z</time></trkpt><trkpt lat="44.55485630783582" lon="11.626140838427327"><ele>10.5</ele><time>2026-04-10T08:54:33Z</time></trkpt><trkpt lat="44.554753681644414" lon="11.625996718447558"><ele>10.0</ele><time>2026-04-10T08:54:34Z</time></trkpt><trkpt lat="44.55465053633476" lon="11.625859449237295"><ele>9.5</ele><time>2026-04-10T08:54:35Z</time></trkpt><trkpt lat="44.554547176368814" lon="11.625718990366884"><ele>9.0</ele><time>2026-04-10T08:54:36Z</time></trkpt><trkpt lat="44.554442887952874" lon="11.625579275432811"><ele>9.666666666666666</ele><time>2026-04-10T08:54:37Z</time></trkpt><trkpt lat="44.554337369202116" lon="11.62543435031003"><ele>10.333333333333332</ele><time>2026-04-10T08:54:38Z</time></trkpt><trkpt lat="44.5542283739176" lon="11.62528736781892"><ele>11.0</ele><time>2026-04-10T08:54:39Z</time></trkpt><trkpt lat="44.55411670695007" lon="11.625141081001374"><ele>11.0</ele><time>2026-04-10T08:54:40Z</time></trkpt><trkpt lat="44.554003760602605" lon="11.624996316271753"><ele>11.0</ele><time>2026-04-10T08:54:41Z</time></trkpt><trkpt lat="44.553893143885375" lon="11.624850635329945"><ele>11.0</ele><time>2026-04-10T08:54:42Z</time></trkpt><trkpt lat="44.55378401057866" lon="11.624705938338733"><ele>11.5</ele><time>2026-04-10T08:54:43Z</time></trkpt><trkpt lat="44.5536869901378" lon="11.62455201801108"><ele>12.0</ele><time>2026-04-10T08:54:44Z</time></trkpt><trkpt lat="44.553580549692335" lon="11.624410571095154"><ele>12.5</ele><time>2026-04-10T08:54:45Z</time></trkpt><trkpt lat="44.55347843662603" lon="11.624270596094828"><ele>13.0</ele><time>2026-04-10T08:54:46Z</time></trkpt><trkpt lat="44.55338125282307" lon="11.624138830680662"><ele>13.0</ele><time>2026-04-10T08:54:47Z</time></trkpt><trkpt lat="44.55327985486207" lon="11.62400915501757"><ele>13.0</ele><time>2026-04-10T08:54:48Z</time></trkpt><trkpt lat="44.55318133338331" lon="11.623883115583247"><ele>13.0</ele><time>2026-04-10T08:54:49Z</time></trkpt><trkpt lat="44.55308705519887" lon="11.623761131640478"><ele>13.0</ele><time>2026-04-10T08:54:50Z</time></trkpt><trkpt lat="44.5529929988008" lon="11.623632316920174"><ele>12.5</ele><time>2026-04-10T08:54:51Z</time></trkpt><trkpt lat="44.55290417756956" lon="11.623538266952925"><ele>12.0</ele><time>2026-04-10T08:54:52Z</time></trkpt><trkpt lat="44.552814829678006" lon="11.62341962582626"><ele>11.5</ele><time>2026-04-10T08:54:53Z</time></trkpt><trkpt lat="44.55272088470216" lon="11.623294059160884"><ele>11.0</ele><time>2026-04-10T08:54:54Z</time></trkpt><trkpt lat="44.55262455432671" lon="11.623167120249551"><ele>11.0</ele><time>2026-04-10T08:54:55Z</time></trkpt><trkpt lat="44.552523181026274" lon="11.623033332041658"><ele>11.0</ele><time>2026-04-10T08:54:56Z</time></trkpt><trkpt lat="44.55241791198554" lon="11.622895148896614"><ele>11.0</ele><time>2026-04-10T08:54:57Z</time></trkpt><trkpt lat="44.55230818210482" lon="11.622751643991126"><ele>11.0</ele><time>2026-04-10T08:54:58Z</time></trkpt><trkpt lat="44.55219834186946" lon="11.622596822436442"><ele>11.0</ele><time>2026-04-10T08:54:59Z</time></trkpt><trkpt lat="44.552101356482055" lon="11.622415826247249"><ele>11.0</ele><time>2026-04-10T08:55:00Z</time></trkpt><trkpt lat="44.55197613570976" lon="11.62225900209777"><ele>11.0</ele><time>2026-04-10T08:55:01Z</time></trkpt><trkpt lat="44.5518636225296" lon="11.622083117005522"><ele>10.666666666666666</ele><time>2026-04-10T08:55:02Z</time></trkpt><trkpt lat="44.55174929895974" lon="11.621902655224147"><ele>10.333333333333334</ele><time>2026-04-10T08:55:03Z</time></trkpt><trkpt lat="44.551630376998546" lon="11.621720555637152"><ele>10.0</ele><time>2026-04-10T08:55:04Z</time></trkpt><trkpt lat="44.551510515203795" lon="11.621538682996846"><ele>10.0</ele><time>2026-04-10T08:55:05Z</time></trkpt><trkpt lat="44.551390179595955" lon="11.621351820698191"><ele>10.0</ele><time>2026-04-10T08:55:06Z</time></trkpt><trkpt lat="44.5512682435538" lon="11.621164101080831"><ele>10.0</ele><time>2026-04-10T08:55:07Z</time></trkpt><trkpt lat="44.551142720164165" lon="11.620975246482974"><ele>10.333333333333334</ele><time>2026-04-10T08:55:08Z</time></trkpt><trkpt lat="44.551030928716585" lon="11.620768036450968"><ele>10.666666666666666</ele><time>2026-04-10T08:55:09Z</time></trkpt><trkpt lat="44.550906972142464" lon="11.620572588085691"><ele>11.0</ele><time>2026-04-10T08:55:10Z</time></trkpt><trkpt lat="44.55078271178777" lon="11.620376662783526"><ele>10.666666666666666</ele><time>2026-04-10T08:55:11Z</time></trkpt><trkpt lat="44.550656859970225" lon="11.620177748517483"><ele>10.333333333333334</ele><time>2026-04-10T08:55:12Z</time></trkpt><trkpt lat="44.55052771366057" lon="11.619976292847241"><ele>10.0</ele><time>2026-04-10T08:55:13Z</time></trkpt><trkpt lat="44.5504057622847" lon="11.619786224206964"><ele>10.333333333333334</ele><time>2026-04-10T08:55:14Z</time></trkpt><trkpt lat="44.55028376886953" lon="11.6195962743591"><ele>10.666666666666666</ele><time>2026-04-10T08:55:15Z</time></trkpt><trkpt lat="44.55016126931625" lon="11.619405536349124"><ele>11.0</ele><time>2026-04-10T08:55:16Z</time></trkpt><trkpt lat="44.55003863582724" lon="11.619213424325748"><ele>11.0</ele><time>2026-04-10T08:55:17Z</time></trkpt><trkpt lat="44.54991509497435" lon="11.619018560106777"><ele>11.0</ele><time>2026-04-10T08:55:18Z</time></trkpt><trkpt lat="44.54979158363185" lon="11.61882374243177"><ele>11.0</ele><time>2026-04-10T08:55:19Z</time></trkpt><trkpt lat="44.549667812961076" lon="11.618628515726556"><ele>11.0</ele><time>2026-04-10T08:55:20Z</time></trkpt><trkpt lat="44.54954500871998" lon="11.618434813434789"><ele>11.0</ele><time>2026-04-10T08:55:21Z</time></trkpt><trkpt lat="44.549424843399976" lon="11.618245445170237"><ele>11.0</ele><time>2026-04-10T08:55:22Z</time></trkpt><trkpt lat="44.54930554788443" lon="11.6180579207661"><ele>11.666666666666666</ele><time>2026-04-10T08:55:23Z</time></trkpt><trkpt lat="44.54918568164445" lon="11.617869499198235"><ele>12.333333333333332</ele><time>2026-04-10T08:55:24Z</time></trkpt><trkpt lat="44.54906579340768" lon="11.617681043107844"><ele>13.0</ele><time>2026-04-10T08:55:25Z</time></trkpt><trkpt lat="44.548945514805894" lon="11.617491973384096"><ele>13.0</ele><time>2026-04-10T08:55:26Z</time></trkpt><trkpt lat="44.54882566311239" lon="11.61730357212765"><ele>13.0</ele><time>2026-04-10T08:55:27Z</time></trkpt><trkpt lat="44.54870726588186" lon="11.617115344859853"><ele>13.0</ele><time>2026-04-10T08:55:28Z</time></trkpt><trkpt lat="44.54858693808971" lon="11.616924532335682"><ele>12.0</ele><time>2026-04-10T08:55:29Z</time></trkpt><trkpt lat="44.54846623641983" lon="11.616733126947357"><ele>11.0</ele><time>2026-04-10T08:55:30Z</time></trkpt><trkpt lat="44.54821846027373" lon="11.616340210336144"><ele>11.0</ele><time>2026-04-10T08:55:32Z</time></trkpt><trkpt lat="44.548096233500864" lon="11.616146583665357"><ele>11.0</ele><time>2026-04-10T08:55:33Z</time></trkpt><trkpt lat="44.5479745239313" lon="11.61595390476424"><ele>11.0</ele><time>2026-04-10T08:55:34Z</time></trkpt><trkpt lat="44.54785756422436" lon="11.615768745249108"><ele>11.0</ele><time>2026-04-10T08:55:35Z</time></trkpt><trkpt lat="44.54773954427221" lon="11.615581907566408"><ele>11.0</ele><time>2026-04-10T08:55:36Z</time></trkpt><trkpt lat="44.54762322933051" lon="11.6153977689545"><ele>11.0</ele><time>2026-04-10T08:55:37Z</time></trkpt><trkpt lat="44.54749313966804" lon="11.615227995166743"><ele>11.666666666666666</ele><time>2026-04-10T08:55:38Z</time></trkpt><trkpt lat="44.547386786951186" lon="11.615029769992699"><ele>12.333333333333332</ele><time>2026-04-10T08:55:39Z</time></trkpt><trkpt lat="44.547259855381554" lon="11.614867202640424"><ele>13.0</ele><time>2026-04-10T08:55:40Z</time></trkpt><trkpt lat="44.54714781995645" lon="11.61468853109964"><ele>13.0</ele><time>2026-04-10T08:55:41Z</time></trkpt><trkpt lat="44.54704733993399" lon="11.614497375167552"><ele>13.0</ele><time>2026-04-10T08:55:42Z</time></trkpt><trkpt lat="44.546937858627125" lon="11.614323461441675"><ele>13.0</ele><time>2026-04-10T08:55:43Z</time></trkpt><trkpt lat="44.54682641861326" lon="11.614146436367827"><ele>12.666666666666666</ele><time>2026-04-10T08:55:44Z</time></trkpt><trkpt lat="44.5467090233531" lon="11.613964658352062"><ele>12.333333333333332</ele><time>2026-04-10T08:55:45Z</time></trkpt><trkpt lat="44.546590189327155" lon="11.61378189052328"><ele>12.0</ele><time>2026-04-10T08:55:46Z</time></trkpt><trkpt lat="44.546472465031094" lon="11.6135960013222"><ele>12.0</ele><time>2026-04-10T08:55:47Z</time></trkpt><trkpt lat="44.54635693855948" lon="11.613399159978483"><ele>12.0</ele><time>2026-04-10T08:55:48Z</time></trkpt><trkpt lat="44.546242590523775" lon="11.613188045391189"><ele>12.0</ele><time>2026-04-10T08:55:49Z</time></trkpt><trkpt lat="44.546127090659695" lon="11.612973017180312"><ele>11.666666666666666</ele><time>2026-04-10T08:55:50Z</time></trkpt><trkpt lat="44.54600604818449" lon="11.612756064426891"><ele>11.333333333333332</ele><time>2026-04-10T08:55:51Z</time></trkpt><trkpt lat="44.54588141054021" lon="11.612536200928615"><ele>11.0</ele><time>2026-04-10T08:55:52Z</time></trkpt><trkpt lat="44.54574576405754" lon="11.612318595013882"><ele>11.0</ele><time>2026-04-10T08:55:53Z</time></trkpt><trkpt lat="44.54560561839146" lon="11.612107973019834"><ele>11.0</ele><time>2026-04-10T08:55:54Z</time></trkpt><trkpt lat="44.54546976756867" lon="11.611906457069217"><ele>11.0</ele><time>2026-04-10T08:55:55Z</time></trkpt><trkpt lat="44.54533454983945" lon="11.61170588040189"><ele>11.0</ele><time>2026-04-10T08:55:56Z</time></trkpt><trkpt lat="44.545201559977635" lon="11.611509335492633"><ele>11.0</ele><time>2026-04-10T08:55:57Z</time></trkpt><trkpt lat="44.545072734365526" lon="11.611319478892"><ele>11.0</ele><time>2026-04-10T08:55:58Z</time></trkpt><trkpt lat="44.544950523589094" lon="11.611136720493953"><ele>11.0</ele><time>2026-04-10T08:55:59Z</time></trkpt><trkpt lat="44.544832470751786" lon="11.61095878545704"><ele>11.0</ele><time>2026-04-10T08:56:00Z</time></trkpt><trkpt lat="44.54471766574626" lon="11.610785745572967"><ele>11.0</ele><time>2026-04-10T08:56:01Z</time></trkpt><trkpt lat="44.54460579240923" lon="11.610617785693748"><ele>11.666666666666666</ele><time>2026-04-10T08:56:02Z</time></trkpt><trkpt lat="44.544498435248165" lon="11.610457855658037"><ele>12.333333333333332</ele><time>2026-04-10T08:56:03Z</time></trkpt><trkpt lat="44.5443944375496" lon="11.61030293016147"><ele>13.0</ele><time>2026-04-10T08:56:04Z</time></trkpt><trkpt lat="44.54429090278176" lon="11.61014869422936"><ele>13.0</ele><time>2026-04-10T08:56:05Z</time></trkpt><trkpt lat="44.54418828636368" lon="11.609995826449639"><ele>13.0</ele><time>2026-04-10T08:56:06Z</time></trkpt><trkpt lat="44.54408728255171" lon="11.6098442929343"><ele>13.0</ele><time>2026-04-10T08:56:07Z</time></trkpt><trkpt lat="44.54398800825766" lon="11.609694665578022"><ele>13.0</ele><time>2026-04-10T08:56:08Z</time></trkpt><trkpt lat="44.54389213691961" lon="11.609550167159362"><ele>13.25</ele><time>2026-04-10T08:56:09Z</time></trkpt><trkpt lat="44.54379496611322" lon="11.609403710145466"><ele>13.5</ele><time>2026-04-10T08:56:10Z</time></trkpt><trkpt lat="44.54369642154067" lon="11.609255182589678"><ele>13.75</ele><time>2026-04-10T08:56:11Z</time></trkpt><trkpt lat="44.54360100896264" lon="11.609111375533061"><ele>14.0</ele><time>2026-04-10T08:56:12Z</time></trkpt><trkpt lat="44.543507704105544" lon="11.608970849077311"><ele>14.0</ele><time>2026-04-10T08:56:13Z</time></trkpt><trkpt lat="44.54341614638103" lon="11.608833831609056"><ele>14.0</ele><time>2026-04-10T08:56:14Z</time></trkpt><trkpt lat="44.543321895553234" lon="11.608692784257697"><ele>14.0</ele><time>2026-04-10T08:56:15Z</time></trkpt><trkpt lat="44.54322538191749" lon="11.608548442060405"><ele>14.0</ele><time>2026-04-10T08:56:16Z</time></trkpt><trkpt lat="44.54312856914475" lon="11.608405289878043"><ele>14.0</ele><time>2026-04-10T08:56:17Z</time></trkpt><trkpt lat="44.54302992182961" lon="11.60825942507974"><ele>14.0</ele><time>2026-04-10T08:56:18Z</time></trkpt><trkpt lat="44.54293122427308" lon="11.60811348598081"><ele>14.0</ele><time>2026-04-10T08:56:19Z</time></trkpt><trkpt lat="44.542837426350324" lon="11.60797352780578"><ele>14.0</ele><time>2026-04-10T08:56:20Z</time></trkpt><trkpt lat="44.54274519860187" lon="11.607835874174274"><ele>13.25</ele><time>2026-04-10T08:56:21Z</time></trkpt><trkpt lat="44.54265579408514" lon="11.607702434935876"><ele>12.5</ele><time>2026-04-10T08:56:22Z</time></trkpt><trkpt lat="44.54256772038754" lon="11.607570981449193"><ele>11.75</ele><time>2026-04-10T08:56:23Z</time></trkpt><trkpt lat="44.542480754741774" lon="11.607441181768758"><ele>11.0</ele><time>2026-04-10T08:56:24Z</time></trkpt><trkpt lat="44.54239556085907" lon="11.607314026475008"><ele>11.0</ele><time>2026-04-10T08:56:25Z</time></trkpt><trkpt lat="44.542313421284156" lon="11.607190467036622"><ele>11.0</ele><time>2026-04-10T08:56:26Z</time></trkpt><trkpt lat="44.542233606687375" lon="11.607069646826382"><ele>11.0</ele><time>2026-04-10T08:56:27Z</time></trkpt><trkpt lat="44.54215037135718" lon="11.606943648349224"><ele>11.0</ele><time>2026-04-10T08:56:28Z</time></trkpt><trkpt lat="44.54207442021823" lon="11.606818480146682"><ele>11.75</ele><time>2026-04-10T08:56:29Z</time></trkpt><trkpt lat="44.542002860533145" lon="11.606690854128887"><ele>12.5</ele><time>2026-04-10T08:56:30Z</time></trkpt><trkpt lat="44.54193342365674" lon="11.606563780683343"><ele>13.25</ele><time>2026-04-10T08:56:31Z</time></trkpt><trkpt lat="44.54186530516379" lon="11.60643940671327"><ele>14.0</ele><time>2026-04-10T08:56:32Z</time></trkpt><trkpt lat="44.54179766176545" lon="11.606320434962816"><ele>14.0</ele><time>2026-04-10T08:56:33Z</time></trkpt><trkpt lat="44.54173175721251" lon="11.60620452145736"><ele>13.999999999999998</ele><time>2026-04-10T08:56:34Z</time></trkpt><trkpt lat="44.54167357954975" lon="11.606102198101038"><ele>13.999999999999998</ele><time>2026-04-10T08:56:35Z</time></trkpt><trkpt lat="44.541626281187874" lon="11.606019009306973"><ele>14.0</ele><time>2026-04-10T08:56:36Z</time></trkpt><trkpt lat="44.541580826427236" lon="11.605939062748826"><ele>14.0</ele><time>2026-04-10T08:56:38Z</time></trkpt><trkpt lat="44.54145945679824" lon="11.606074676951417"><ele>14.000000000000002</ele><time>2026-04-10T08:56:40Z</time></trkpt><trkpt lat="44.54143696701554" lon="11.606159507142179"><ele>14.0</ele><time>2026-04-10T08:56:42Z</time></trkpt><trkpt lat="44.541391285086306" lon="11.606267246630408"><ele>14.0</ele><time>2026-04-10T08:56:44Z</time></trkpt><trkpt lat="44.541348399356046" lon="11.60635785215307"><ele>14.0</ele><time>2026-04-10T08:56:45Z</time></trkpt><trkpt lat="44.541302340729835" lon="11.606459866199106"><ele>14.000000000000002</ele><time>2026-04-10T08:56:46Z</time></trkpt><trkpt lat="44.54125763218152" lon="11.606567842084727"><ele>14.0</ele><time>2026-04-10T08:56:47Z</time></trkpt><trkpt lat="44.541200273204915" lon="11.606700694333101"><ele>13.75</ele><time>2026-04-10T08:56:48Z</time></trkpt><trkpt lat="44.54113609379286" lon="11.606846804994671"><ele>13.5</ele><time>2026-04-10T08:56:49Z</time></trkpt><trkpt lat="44.5410666448587" lon="11.607004636546588"><ele>13.25</ele><time>2026-04-10T08:56:50Z</time></trkpt><trkpt lat="44.540996244823056" lon="11.607168840940187"><ele>13.0</ele><time>2026-04-10T08:56:51Z</time></trkpt><trkpt lat="44.54092422346289" lon="11.60733812237769"><ele>12.666666666666666</ele><time>2026-04-10T08:56:52Z</time></trkpt><trkpt lat="44.5408477250095" lon="11.60751274093192"><ele>12.333333333333332</ele><time>2026-04-10T08:56:53Z</time></trkpt><trkpt lat="44.54076734034195" lon="11.607697230594173"><ele>12.0</ele><time>2026-04-10T08:56:54Z</time></trkpt><trkpt lat="44.540685521094204" lon="11.607885924084984"><ele>11.666666666666666</ele><time>2026-04-10T08:56:55Z</time></trkpt><trkpt lat="44.54060258314027" lon="11.608074123548912"><ele>11.333333333333332</ele><time>2026-04-10T08:56:56Z</time></trkpt><trkpt lat="44.54051913779342" lon="11.60826626625892"><ele>11.0</ele><time>2026-04-10T08:56:57Z</time></trkpt><trkpt lat="44.540434569585116" lon="11.60846200175412"><ele>11.0</ele><time>2026-04-10T08:56:58Z</time></trkpt><trkpt lat="44.540347048407895" lon="11.60865885688695"><ele>11.0</ele><time>2026-04-10T08:56:59Z</time></trkpt><trkpt lat="44.54026123048979" lon="11.608858104109995"><ele>11.0</ele><time>2026-04-10T08:57:00Z</time></trkpt><trkpt lat="44.54017660554555" lon="11.60905961698351"><ele>11.0</ele><time>2026-04-10T08:57:01Z</time></trkpt><trkpt lat="44.54008862342112" lon="11.609261618842718"><ele>11.0</ele><time>2026-04-10T08:57:02Z</time></trkpt><trkpt lat="44.539999461517006" lon="11.609466990576554"><ele>11.0</ele><time>2026-04-10T08:57:03Z</time></trkpt><trkpt lat="44.5399112563251" lon="11.609668273554554"><ele>11.333333333333332</ele><time>2026-04-10T08:57:04Z</time></trkpt><trkpt lat="44.539822553567014" lon="11.609870192951979"><ele>11.666666666666666</ele><time>2026-04-10T08:57:05Z</time></trkpt><trkpt lat="44.53973772127551" lon="11.610066093706248"><ele>12.0</ele><time>2026-04-10T08:57:06Z</time></trkpt><trkpt lat="44.539652832661" lon="11.610256479168022"><ele>12.333333333333332</ele><time>2026-04-10T08:57:07Z</time></trkpt><trkpt lat="44.53956736150445" lon="11.61044550964699"><ele>12.666666666666666</ele><time>2026-04-10T08:57:08Z</time></trkpt><trkpt lat="44.539483218360736" lon="11.610621400953818"><ele>13.0</ele><time>2026-04-10T08:57:09Z</time></trkpt><trkpt lat="44.53939091997496" lon="11.610788810405552"><ele>13.0</ele><time>2026-04-10T08:57:10Z</time></trkpt><trkpt lat="44.539282581471085" lon="11.610936895658218"><ele>13.0</ele><time>2026-04-10T08:57:11Z</time></trkpt><trkpt lat="44.53917531334572" lon="11.611071805264642"><ele>13.0</ele><time>2026-04-10T08:57:12Z</time></trkpt><trkpt lat="44.53907745128903" lon="11.611196360362815"><ele>13.0</ele><time>2026-04-10T08:57:13Z</time></trkpt><trkpt lat="44.53898001565557" lon="11.611330052947999"><ele>13.25</ele><time>2026-04-10T08:57:14Z</time></trkpt><trkpt lat="44.53887599086424" lon="11.611465466535021"><ele>13.5</ele><time>2026-04-10T08:57:15Z</time></trkpt><trkpt lat="44.53876910215991" lon="11.611607186225454"><ele>13.75</ele><time>2026-04-10T08:57:16Z</time></trkpt><trkpt lat="44.538668849830756" lon="11.61176451116735"><ele>14.0</ele><time>2026-04-10T08:57:17Z</time></trkpt><trkpt lat="44.5385651446363" lon="11.61192289732724"><ele>14.0</ele><time>2026-04-10T08:57:18Z</time></trkpt><trkpt lat="44.5384642151927" lon="11.612091386415463"><ele>14.0</ele><time>2026-04-10T08:57:19Z</time></trkpt><trkpt lat="44.5383654077244" lon="11.612264969983066"><ele>14.0</ele><time>2026-04-10T08:57:20Z</time></trkpt><trkpt lat="44.53826686334861" lon="11.612445483379433"><ele>14.0</ele><time>2026-04-10T08:57:21Z</time></trkpt><trkpt lat="44.53817566668222" lon="11.612627934850723"><ele>14.0</ele><time>2026-04-10T08:57:22Z</time></trkpt><trkpt lat="44.53808862411856" lon="11.612818204866366"><ele>14.0</ele><time>2026-04-10T08:57:23Z</time></trkpt><trkpt lat="44.538001895690876" lon="11.613015525988123"><ele>14.0</ele><time>2026-04-10T08:57:24Z</time></trkpt><trkpt lat="44.53791652815704" lon="11.613214873037872"><ele>14.0</ele><time>2026-04-10T08:57:25Z</time></trkpt><trkpt lat="44.537832818751" lon="11.613416763747951"><ele>14.0</ele><time>2026-04-10T08:57:26Z</time></trkpt><trkpt lat="44.537751693639436" lon="11.613624499908749"><ele>13.666666666666668</ele><time>2026-04-10T08:57:27Z</time></trkpt><trkpt lat="44.53767213679072" lon="11.61383314004998"><ele>13.333333333333332</ele><time>2026-04-10T08:57:28Z</time></trkpt><trkpt lat="44.53759719409886" lon="11.614027813103444"><ele>13.0</ele><time>2026-04-10T08:57:29Z</time></trkpt><trkpt lat="44.537533338414526" lon="11.614193918096959"><ele>13.0</ele><time>2026-04-10T08:57:30Z</time></trkpt><trkpt lat="44.537479400322525" lon="11.614347344726093"><ele>13.0</ele><time>2026-04-10T08:57:31Z</time></trkpt><trkpt lat="44.53743228421854" lon="11.614489386703264"><ele>13.0</ele><time>2026-04-10T08:57:32Z</time></trkpt><trkpt lat="44.537391837982426" lon="11.614610536041763"><ele>13.0</ele><time>2026-04-10T08:57:33Z</time></trkpt><trkpt lat="44.53736191078604" lon="11.614708287456136"><ele>13.0</ele><time>2026-04-10T08:57:34Z</time></trkpt><trkpt lat="44.537339174740694" lon="11.614792486856729"><ele>13.333333333333332</ele><time>2026-04-10T08:57:35Z</time></trkpt><trkpt lat="44.537306616317046" lon="11.614922914041303"><ele>13.666666666666666</ele><time>2026-04-10T08:57:37Z</time></trkpt><trkpt lat="44.537280352777614" lon="11.615034128789576"><ele>14.0</ele><time>2026-04-10T08:57:40Z</time></trkpt><trkpt lat="44.53726156704966" lon="11.615141898931308"><ele>14.333333333333332</ele><time>2026-04-10T08:57:42Z</time></trkpt><trkpt lat="44.53723996383421" lon="11.615257073759391"><ele>14.666666666666666</ele><time>2026-04-10T08:57:44Z</time></trkpt><trkpt lat="44.537219294147256" lon="11.615363394948446"><ele>15.0</ele><time>2026-04-10T08:57:47Z</time></trkpt><trkpt lat="44.53720410755497" lon="11.615464477793568"><ele>15.0</ele><time>2026-04-10T08:57:51Z</time></trkpt><trkpt lat="44.53718122273631" lon="11.61559952722376"><ele>15.0</ele><time>2026-04-10T08:58:01Z</time></trkpt><trkpt lat="44.53716454229761" lon="11.615765707136344"><ele>15.0</ele><time>2026-04-10T08:58:03Z</time></trkpt><trkpt lat="44.537147858273585" lon="11.61585742304804"><ele>15.0</ele><time>2026-04-10T08:58:04Z</time></trkpt><trkpt lat="44.537124842532826" lon="11.615998552370037"><ele>15.0</ele><time>2026-04-10T08:58:06Z</time></trkpt><trkpt lat="44.537129469741295" lon="11.616088044484927"><ele>14.666666666666666</ele><time>2026-04-10T08:58:09Z</time></trkpt><trkpt lat="44.537142190565824" lon="11.61619543964796"><ele>14.333333333333332</ele><time>2026-04-10T08:58:12Z</time></trkpt><trkpt lat="44.53721616081263" lon="11.616206440708021"><ele>14.0</ele><time>2026-04-10T08:58:13Z</time></trkpt><trkpt lat="44.53728735761483" lon="11.616212086162859"><ele>13.666666666666666</ele><time>2026-04-10T08:58:14Z</time></trkpt><trkpt lat="44.537367633243704" lon="11.61624586527077"><ele>13.333333333333332</ele><time>2026-04-10T08:58:15Z</time></trkpt><trkpt lat="44.537463279916096" lon="11.616255299744696"><ele>13.0</ele><time>2026-04-10T08:58:16Z</time></trkpt><trkpt lat="44.53755940058896" lon="11.616302714963826"><ele>13.0</ele><time>2026-04-10T08:58:17Z</time></trkpt><trkpt lat="44.53765780594201" lon="11.616353430958329"><ele>13.0</ele><time>2026-04-10T08:58:18Z</time></trkpt><trkpt lat="44.53775923921679" lon="11.616410974474645"><ele>13.0</ele><time>2026-04-10T08:58:19Z</time></trkpt><trkpt lat="44.5378599978263" lon="11.616477964326547"><ele>13.0</ele><time>2026-04-10T08:58:20Z</time></trkpt><trkpt lat="44.53795971701922" lon="11.616547937218181"><ele>13.0</ele><time>2026-04-10T08:58:21Z</time></trkpt><trkpt lat="44.53806652052875" lon="11.61662296902397"><ele>13.25</ele><time>2026-04-10T08:58:22Z</time></trkpt><trkpt lat="44.53817208112755" lon="11.616700997191506"><ele>13.5</ele><time>2026-04-10T08:58:23Z</time></trkpt><trkpt lat="44.53827434819534" lon="11.616778747600453"><ele>13.75</ele><time>2026-04-10T08:58:24Z</time></trkpt><trkpt lat="44.5383775200479" lon="11.616861237240919"><ele>14.0</ele><time>2026-04-10T08:58:25Z</time></trkpt><trkpt lat="44.538480627624956" lon="11.61694121728084"><ele>13.75</ele><time>2026-04-10T08:58:26Z</time></trkpt><trkpt lat="44.53858071141029" lon="11.617014826364125"><ele>13.5</ele><time>2026-04-10T08:58:27Z</time></trkpt><trkpt lat="44.53868026418725" lon="11.617089972603534"><ele>13.25</ele><time>2026-04-10T08:58:28Z</time></trkpt><trkpt lat="44.53877973114374" lon="11.617171704946504"><ele>13.0</ele><time>2026-04-10T08:58:29Z</time></trkpt><trkpt lat="44.53888286227329" lon="11.617255811266089"><ele>13.0</ele><time>2026-04-10T08:58:30Z</time></trkpt><trkpt lat="44.538982825824675" lon="11.617336667953781"><ele>13.0</ele><time>2026-04-10T08:58:31Z</time></trkpt><trkpt lat="44.53908092609831" lon="11.617417042983536"><ele>13.0</ele><time>2026-04-10T08:58:32Z</time></trkpt><trkpt lat="44.539166234455564" lon="11.617496189864106"><ele>13.0</ele><time>2026-04-10T08:58:33Z</time></trkpt><trkpt lat="44.539234676116834" lon="11.61757748786634"><ele>13.0</ele><time>2026-04-10T08:58:34Z</time></trkpt><trkpt lat="44.53928098316475" lon="11.617668131622187"><ele>13.0</ele><time>2026-04-10T08:58:35Z</time></trkpt><trkpt lat="44.53929595419026" lon="11.61776679390913"><ele>13.0</ele><time>2026-04-10T08:58:36Z</time></trkpt><trkpt lat="44.539257248719586" lon="11.617861601945181"><ele>13.0</ele><time>2026-04-10T08:58:37Z</time></trkpt><trkpt lat="44.539227291540534" lon="11.61797309467875"><ele>13.0</ele><time>2026-04-10T08:58:38Z</time></trkpt><trkpt lat="44.53918241221577" lon="11.618111202626897"><ele>13.0</ele><time>2026-04-10T08:58:39Z</time></trkpt><trkpt lat="44.53913969604432" lon="11.618280845371059"><ele>12.75</ele><time>2026-04-10T08:58:40Z</time></trkpt><trkpt lat="44.539080825006955" lon="11.61845562817949"><ele>12.5</ele><time>2026-04-10T08:58:41Z</time></trkpt><trkpt lat="44.5390245778587" lon="11.61864168879573"><ele>12.25</ele><time>2026-04-10T08:58:42Z</time></trkpt><trkpt lat="44.5389684480323" lon="11.61883409204836"><ele>12.0</ele><time>2026-04-10T08:58:43Z</time></trkpt><trkpt lat="44.53890726293588" lon="11.619030631313318"><ele>11.333333333333334</ele><time>2026-04-10T08:58:44Z</time></trkpt><trkpt lat="44.538841674410676" lon="11.619236297528436"><ele>10.666666666666668</ele><time>2026-04-10T08:58:45Z</time></trkpt><trkpt lat="44.53877254428863" lon="11.619451437312877"><ele>10.0</ele><time>2026-04-10T08:58:46Z</time></trkpt><trkpt lat="44.53869967206787" lon="11.61967679138308"><ele>10.0</ele><time>2026-04-10T08:58:47Z</time></trkpt><trkpt lat="44.538624174242116" lon="11.619903922020743"><ele>10.0</ele><time>2026-04-10T08:58:48Z</time></trkpt><trkpt lat="44.53854786053291" lon="11.620133732258388"><ele>10.0</ele><time>2026-04-10T08:58:49Z</time></trkpt><trkpt lat="44.53847264490301" lon="11.620362798144125"><ele>10.0</ele><time>2026-04-10T08:58:50Z</time></trkpt><trkpt lat="44.53839785542862" lon="11.620597254122604"><ele>10.0</ele><time>2026-04-10T08:58:51Z</time></trkpt><trkpt lat="44.53831974465739" lon="11.62083569646331"><ele>10.0</ele><time>2026-04-10T08:58:52Z</time></trkpt><trkpt lat="44.53823819567269" lon="11.621073864568832"><ele>9.666666666666668</ele><time>2026-04-10T08:58:53Z</time></trkpt><trkpt lat="44.53815736038449" lon="11.621311813954167"><ele>9.333333333333334</ele><time>2026-04-10T08:58:54Z</time></trkpt><trkpt lat="44.5380767060584" lon="11.621551597374419"><ele>9.0</ele><time>2026-04-10T08:58:55Z</time></trkpt><trkpt lat="44.537996683385934" lon="11.621782731953076"><ele>9.0</ele><time>2026-04-10T08:58:56Z</time></trkpt><trkpt lat="44.53791732206601" lon="11.622003714030486"><ele>9.0</ele><time>2026-04-10T08:58:57Z</time></trkpt><trkpt lat="44.537836577790515" lon="11.622226400221555"><ele>9.0</ele><time>2026-04-10T08:58:58Z</time></trkpt><trkpt lat="44.537756626394135" lon="11.622442875654237"><ele>9.0</ele><time>2026-04-10T08:58:59Z</time></trkpt><trkpt lat="44.53767769896368" lon="11.62265949087337"><ele>9.0</ele><time>2026-04-10T08:59:00Z</time></trkpt><trkpt lat="44.537597494773834" lon="11.622870930830803"><ele>9.0</ele><time>2026-04-10T08:59:01Z</time></trkpt><trkpt lat="44.53751500519424" lon="11.623083006854877"><ele>9.0</ele><time>2026-04-10T08:59:02Z</time></trkpt><trkpt lat="44.53743275181233" lon="11.623298132237409"><ele>9.0</ele><time>2026-04-10T08:59:03Z</time></trkpt><trkpt lat="44.53734658182174" lon="11.623514497738926"><ele>9.0</ele><time>2026-04-10T08:59:04Z</time></trkpt><trkpt lat="44.53726571501904" lon="11.623722888657847"><ele>9.0</ele><time>2026-04-10T08:59:05Z</time></trkpt><trkpt lat="44.53718044305246" lon="11.62394136408837"><ele>9.0</ele><time>2026-04-10T08:59:06Z</time></trkpt><trkpt lat="44.53709553651532" lon="11.624157804561023"><ele>9.0</ele><time>2026-04-10T08:59:07Z</time></trkpt><trkpt lat="44.53701186512817" lon="11.624366619016914"><ele>9.0</ele><time>2026-04-10T08:59:08Z</time></trkpt><trkpt lat="44.536928663749165" lon="11.624575953075425"><ele>9.0</ele><time>2026-04-10T08:59:09Z</time></trkpt><trkpt lat="44.5368454783936" lon="11.624786313988098"><ele>9.0</ele><time>2026-04-10T08:59:10Z</time></trkpt><trkpt lat="44.53676564836626" lon="11.624994129454587"><ele>9.0</ele><time>2026-04-10T08:59:11Z</time></trkpt><trkpt lat="44.53668394036903" lon="11.625201840395482"><ele>9.0</ele><time>2026-04-10T08:59:12Z</time></trkpt><trkpt lat="44.536602231173156" lon="11.625407766801041"><ele>9.0</ele><time>2026-04-10T08:59:13Z</time></trkpt><trkpt lat="44.53652317979658" lon="11.625604860807787"><ele>9.0</ele><time>2026-04-10T08:59:14Z</time></trkpt><trkpt lat="44.53644723146705" lon="11.6257940736008"><ele>9.0</ele><time>2026-04-10T08:59:15Z</time></trkpt><trkpt lat="44.53637691801313" lon="11.625976903299094"><ele>9.0</ele><time>2026-04-10T08:59:16Z</time></trkpt><trkpt lat="44.53631043786735" lon="11.626151642102618"><ele>9.0</ele><time>2026-04-10T08:59:17Z</time></trkpt><trkpt lat="44.53625482449881" lon="11.626296090831785"><ele>9.0</ele><time>2026-04-10T08:59:18Z</time></trkpt><trkpt lat="44.53621721409085" lon="11.62640083058955"><ele>9.0</ele><time>2026-04-10T08:59:19Z</time></trkpt><trkpt lat="44.53619018647445" lon="11.626486749610894"><ele>9.0</ele><time>2026-04-10T08:59:20Z</time></trkpt><trkpt lat="44.53615153775137" lon="11.626561012062421"><ele>9.0</ele><time>2026-04-10T08:59:23Z</time></trkpt><trkpt lat="44.536084472607335" lon="11.626520204895296"><ele>9.0</ele><time>2026-04-10T08:59:24Z</time></trkpt><trkpt lat="44.53599640114597" lon="11.626475345797745"><ele>9.0</ele><time>2026-04-10T08:59:25Z</time></trkpt><trkpt lat="44.53589010520427" lon="11.626453530359948"><ele>9.0</ele><time>2026-04-10T08:59:26Z</time></trkpt><trkpt lat="44.535775777903694" lon="11.626398614039276"><ele>9.0</ele><time>2026-04-10T08:59:27Z</time></trkpt><trkpt lat="44.535648345284514" lon="11.626346890337578"><ele>9.0</ele><time>2026-04-10T08:59:28Z</time></trkpt><trkpt lat="44.5355088541093" lon="11.626295534679706"><ele>9.0</ele><time>2026-04-10T08:59:29Z</time></trkpt><trkpt lat="44.535373012406936" lon="11.626241801645042"><ele>9.25</ele><time>2026-04-10T08:59:30Z</time></trkpt><trkpt lat="44.53524674509217" lon="11.626191216467205"><ele>9.5</ele><time>2026-04-10T08:59:31Z</time></trkpt><trkpt lat="44.5351159861884" lon="11.626140380528149"><ele>9.75</ele><time>2026-04-10T08:59:32Z</time></trkpt><trkpt lat="44.53497716249759" lon="11.626084878647653"><ele>10.0</ele><time>2026-04-10T08:59:33Z</time></trkpt><trkpt lat="44.534830643804675" lon="11.626026236076124"><ele>10.0</ele><time>2026-04-10T08:59:34Z</time></trkpt><trkpt lat="44.53467884993678" lon="11.62595499196012"><ele>10.0</ele><time>2026-04-10T08:59:35Z</time></trkpt><trkpt lat="44.53452417014703" lon="11.62587522767793"><ele>10.0</ele><time>2026-04-10T08:59:36Z</time></trkpt><trkpt lat="44.53436410234392" lon="11.62579313576271"><ele>10.0</ele><time>2026-04-10T08:59:37Z</time></trkpt><trkpt lat="44.53420877133689" lon="11.625688835511422"><ele>10.0</ele><time>2026-04-10T08:59:38Z</time></trkpt><trkpt lat="44.53404967906177" lon="11.62560770834368"><ele>10.0</ele><time>2026-04-10T08:59:39Z</time></trkpt><trkpt lat="44.53389199663279" lon="11.625537736699915"><ele>10.0</ele><time>2026-04-10T08:59:40Z</time></trkpt><trkpt lat="44.533728867563134" lon="11.625508992809436"><ele>10.0</ele><time>2026-04-10T08:59:41Z</time></trkpt><trkpt lat="44.533573909534766" lon="11.625466931122848"><ele>10.0</ele><time>2026-04-10T08:59:42Z</time></trkpt><trkpt lat="44.533423985426005" lon="11.625415628623266"><ele>10.25</ele><time>2026-04-10T08:59:43Z</time></trkpt><trkpt lat="44.53327293802905" lon="11.625384369543761"><ele>10.5</ele><time>2026-04-10T08:59:44Z</time></trkpt><trkpt lat="44.5331289981498" lon="11.625355763512822"><ele>10.75</ele><time>2026-04-10T08:59:45Z</time></trkpt><trkpt lat="44.53298814811186" lon="11.625327771527353"><ele>11.0</ele><time>2026-04-10T08:59:46Z</time></trkpt><trkpt lat="44.53285222024479" lon="11.62530149431258"><ele>11.0</ele><time>2026-04-10T08:59:47Z</time></trkpt><trkpt lat="44.53271570731462" lon="11.625301621828118"><ele>11.0</ele><time>2026-04-10T08:59:48Z</time></trkpt><trkpt lat="44.532585910536696" lon="11.625279540335008"><ele>11.0</ele><time>2026-04-10T08:59:49Z</time></trkpt><trkpt lat="44.532462319367575" lon="11.625260221776903"><ele>11.0</ele><time>2026-04-10T08:59:50Z</time></trkpt><trkpt lat="44.53233987772302" lon="11.625220647962724"><ele>11.0</ele><time>2026-04-10T08:59:51Z</time></trkpt><trkpt lat="44.532214648799055" lon="11.625167639638459"><ele>11.0</ele><time>2026-04-10T08:59:52Z</time></trkpt><trkpt lat="44.532084873836936" lon="11.625124742840393"><ele>11.0</ele><time>2026-04-10T08:59:53Z</time></trkpt><trkpt lat="44.53195645480295" lon="11.625057698629718"><ele>11.0</ele><time>2026-04-10T08:59:54Z</time></trkpt><trkpt lat="44.53182269919026" lon="11.624994113547409"><ele>11.5</ele><time>2026-04-10T08:59:55Z</time></trkpt><trkpt lat="44.531695008998334" lon="11.624934002014408"><ele>12.0</ele><time>2026-04-10T08:59:56Z</time></trkpt><trkpt lat="44.53156617578982" lon="11.624871190485774"><ele>12.5</ele><time>2026-04-10T08:59:57Z</time></trkpt><trkpt lat="44.531441783963" lon="11.624812841558775"><ele>13.0</ele><time>2026-04-10T08:59:58Z</time></trkpt><trkpt lat="44.531320387401216" lon="11.624762595640343"><ele>13.0</ele><time>2026-04-10T08:59:59Z</time></trkpt><trkpt lat="44.53120045309204" lon="11.624704920630029"><ele>13.0</ele><time>2026-04-10T09:00:00Z</time></trkpt><trkpt lat="44.53108644142468" lon="11.624615743675612"><ele>13.0</ele><time>2026-04-10T09:00:01Z</time></trkpt><trkpt lat="44.53096748742833" lon="11.624523295166187"><ele>13.0</ele><time>2026-04-10T09:00:02Z</time></trkpt><trkpt lat="44.53084775773066" lon="11.62442758991646"><ele>12.75</ele><time>2026-04-10T09:00:03Z</time></trkpt><trkpt lat="44.530727785390354" lon="11.624332166914975"><ele>12.5</ele><time>2026-04-10T09:00:04Z</time></trkpt><trkpt lat="44.53060262634524" lon="11.624241089903112"><ele>12.25</ele><time>2026-04-10T09:00:05Z</time></trkpt><trkpt lat="44.53046901330209" lon="11.62417998029681"><ele>12.0</ele><time>2026-04-10T09:00:06Z</time></trkpt><trkpt lat="44.53033943933937" lon="11.624117196641162"><ele>12.0</ele><time>2026-04-10T09:00:07Z</time></trkpt><trkpt lat="44.5302068952379" lon="11.624082966569759"><ele>12.0</ele><time>2026-04-10T09:00:08Z</time></trkpt><trkpt lat="44.53006999270224" lon="11.624039369992403"><ele>12.0</ele><time>2026-04-10T09:00:09Z</time></trkpt><trkpt lat="44.52992487042193" lon="11.624013713105096"><ele>12.0</ele><time>2026-04-10T09:00:10Z</time></trkpt><trkpt lat="44.52978373815499" lon="11.623993566746236"><ele>12.0</ele><time>2026-04-10T09:00:11Z</time></trkpt><trkpt lat="44.52963239939943" lon="11.62398465444544"><ele>12.0</ele><time>2026-04-10T09:00:12Z</time></trkpt><trkpt lat="44.52947867345984" lon="11.62398573485051"><ele>12.0</ele><time>2026-04-10T09:00:13Z</time></trkpt><trkpt lat="44.529324383932696" lon="11.624020309498466"><ele>11.0</ele><time>2026-04-10T09:00:14Z</time></trkpt><trkpt lat="44.52917008031919" lon="11.624010895965274"><ele>10.0</ele><time>2026-04-10T09:00:15Z</time></trkpt><trkpt lat="44.52902210528355" lon="11.624022391296384"><ele>9.0</ele><time>2026-04-10T09:00:16Z</time></trkpt><trkpt lat="44.52886994424493" lon="11.624041230829661"><ele>9.333333333333334</ele><time>2026-04-10T09:00:17Z</time></trkpt><trkpt lat="44.52871396677523" lon="11.623992899340177"><ele>9.666666666666668</ele><time>2026-04-10T09:00:18Z</time></trkpt><trkpt lat="44.52854669032808" lon="11.623962189537897"><ele>10.0</ele><time>2026-04-10T09:00:19Z</time></trkpt><trkpt lat="44.52837137025747" lon="11.62395012025957"><ele>10.0</ele><time>2026-04-10T09:00:20Z</time></trkpt><trkpt lat="44.52819374232949" lon="11.623910392650098"><ele>10.0</ele><time>2026-04-10T09:00:21Z</time></trkpt><trkpt lat="44.52801689178519" lon="11.6238633520406"><ele>10.0</ele><time>2026-04-10T09:00:22Z</time></trkpt><trkpt lat="44.52783851186852" lon="11.623803734119159"><ele>10.333333333333334</ele><time>2026-04-10T09:00:23Z</time></trkpt><trkpt lat="44.527660244818016" lon="11.623738180448063"><ele>10.666666666666666</ele><time>2026-04-10T09:00:24Z</time></trkpt><trkpt lat="44.52748034204401" lon="11.623667842345107"><ele>11.0</ele><time>2026-04-10T09:00:25Z</time></trkpt><trkpt lat="44.52729785963954" lon="11.623596769625177"><ele>11.0</ele><time>2026-04-10T09:00:26Z</time></trkpt><trkpt lat="44.52711080111198" lon="11.623525434274999"><ele>11.0</ele><time>2026-04-10T09:00:27Z</time></trkpt><trkpt lat="44.52692572113005" lon="11.623450524461884"><ele>11.0</ele><time>2026-04-10T09:00:28Z</time></trkpt><trkpt lat="44.52674011891942" lon="11.623371332592244"><ele>11.0</ele><time>2026-04-10T09:00:29Z</time></trkpt><trkpt lat="44.52655291842111" lon="11.623294855498596"><ele>11.0</ele><time>2026-04-10T09:00:30Z</time></trkpt><trkpt lat="44.52636296882144" lon="11.62322008434427"><ele>11.0</ele><time>2026-04-10T09:00:31Z</time></trkpt><trkpt lat="44.526175844991194" lon="11.623149582419623"><ele>11.0</ele><time>2026-04-10T09:00:32Z</time></trkpt><trkpt lat="44.52599331145131" lon="11.62305713767586"><ele>11.0</ele><time>2026-04-10T09:00:33Z</time></trkpt><trkpt lat="44.52580655925272" lon="11.622984459653933"><ele>11.0</ele><time>2026-04-10T09:00:34Z</time></trkpt><trkpt lat="44.525618543733145" lon="11.622911291979594"><ele>11.0</ele><time>2026-04-10T09:00:35Z</time></trkpt><trkpt lat="44.52542524259479" lon="11.622859237962944"><ele>11.0</ele><time>2026-04-10T09:00:36Z</time></trkpt><trkpt lat="44.525235937517856" lon="11.622783787509947"><ele>11.0</ele><time>2026-04-10T09:00:37Z</time></trkpt><trkpt lat="44.52505050251894" lon="11.622709033383458"><ele>11.333333333333332</ele><time>2026-04-10T09:00:38Z</time></trkpt><trkpt lat="44.52487212545281" lon="11.622640139839318"><ele>11.666666666666666</ele><time>2026-04-10T09:00:39Z</time></trkpt><trkpt lat="44.524700637896146" lon="11.62255005303429"><ele>12.0</ele><time>2026-04-10T09:00:40Z</time></trkpt><trkpt lat="44.52452405549579" lon="11.622486274715607"><ele>12.0</ele><time>2026-04-10T09:00:41Z</time></trkpt><trkpt lat="44.524340959091624" lon="11.622443737984753"><ele>12.0</ele><time>2026-04-10T09:00:42Z</time></trkpt><trkpt lat="44.524158213099156" lon="11.622378335451435"><ele>12.0</ele><time>2026-04-10T09:00:43Z</time></trkpt><trkpt lat="44.52397086172826" lon="11.622316861253307"><ele>12.0</ele><time>2026-04-10T09:00:44Z</time></trkpt><trkpt lat="44.52377974311401" lon="11.622259546557963"><ele>12.0</ele><time>2026-04-10T09:00:45Z</time></trkpt><trkpt lat="44.52358858265742" lon="11.622203769653945"><ele>12.0</ele><time>2026-04-10T09:00:46Z</time></trkpt><trkpt lat="44.523400323636764" lon="11.622147678225582"><ele>12.0</ele><time>2026-04-10T09:00:47Z</time></trkpt><trkpt lat="44.52321218334931" lon="11.622090610297663"><ele>12.0</ele><time>2026-04-10T09:00:48Z</time></trkpt><trkpt lat="44.5230236159627" lon="11.622034708504504"><ele>12.0</ele><time>2026-04-10T09:00:49Z</time></trkpt><trkpt lat="44.522835647304845" lon="11.621984966397832"><ele>12.0</ele><time>2026-04-10T09:00:50Z</time></trkpt><trkpt lat="44.52264632736152" lon="11.621943203623587"><ele>12.0</ele><time>2026-04-10T09:00:51Z</time></trkpt><trkpt lat="44.52246028891128" lon="11.621875855213116"><ele>12.0</ele><time>2026-04-10T09:00:52Z</time></trkpt><trkpt lat="44.522267819535614" lon="11.62183802985943"><ele>12.0</ele><time>2026-04-10T09:00:53Z</time></trkpt><trkpt lat="44.52207247516777" lon="11.62182587114552"><ele>12.0</ele><time>2026-04-10T09:00:54Z</time></trkpt><trkpt lat="44.52187778519177" lon="11.621790663458942"><ele>12.0</ele><time>2026-04-10T09:00:55Z</time></trkpt><trkpt lat="44.521683795253495" lon="11.62176664289895"><ele>12.333333333333332</ele><time>2026-04-10T09:00:56Z</time></trkpt><trkpt lat="44.52148711694101" lon="11.621749155370445"><ele>12.666666666666666</ele><time>2026-04-10T09:00:57Z</time></trkpt><trkpt lat="44.52128982714566" lon="11.621739199085601"><ele>13.0</ele><time>2026-04-10T09:00:58Z</time></trkpt><trkpt lat="44.52109241332355" lon="11.621730300954837"><ele>13.0</ele><time>2026-04-10T09:00:59Z</time></trkpt><trkpt lat="44.52089537100708" lon="11.62172105283542"><ele>13.0</ele><time>2026-04-10T09:01:00Z</time></trkpt><trkpt lat="44.5206961759992" lon="11.621706825726436"><ele>13.0</ele><time>2026-04-10T09:01:01Z</time></trkpt><trkpt lat="44.5204991792877" lon="11.621679703100524"><ele>12.666666666666666</ele><time>2026-04-10T09:01:02Z</time></trkpt><trkpt lat="44.520302956519274" lon="11.621638110003452"><ele>12.333333333333332</ele><time>2026-04-10T09:01:03Z</time></trkpt><trkpt lat="44.52011094506858" lon="11.621583646777417"><ele>12.0</ele><time>2026-04-10T09:01:04Z</time></trkpt><trkpt lat="44.519920388115324" lon="11.6215170264463"><ele>12.0</ele><time>2026-04-10T09:01:05Z</time></trkpt><trkpt lat="44.51972809484861" lon="11.621443242851088"><ele>12.0</ele><time>2026-04-10T09:01:06Z</time></trkpt><trkpt lat="44.519542193786144" lon="11.621365473638656"><ele>12.0</ele><time>2026-04-10T09:01:07Z</time></trkpt><trkpt lat="44.51935810996714" lon="11.621282258600358"><ele>12.333333333333332</ele><time>2026-04-10T09:01:08Z</time></trkpt><trkpt lat="44.51917327224513" lon="11.621185932958221"><ele>12.666666666666666</ele><time>2026-04-10T09:01:09Z</time></trkpt><trkpt lat="44.51899019071922" lon="11.621078567135683"><ele>13.0</ele><time>2026-04-10T09:01:10Z</time></trkpt><trkpt lat="44.51880513000711" lon="11.620964240963449"><ele>12.333333333333332</ele><time>2026-04-10T09:01:11Z</time></trkpt><trkpt lat="44.51862018924438" lon="11.62084911847685"><ele>11.666666666666666</ele><time>2026-04-10T09:01:12Z</time></trkpt><trkpt lat="44.51844212146795" lon="11.620712921832995"><ele>11.0</ele><time>2026-04-10T09:01:13Z</time></trkpt><trkpt lat="44.51825674892658" lon="11.620595989459815"><ele>11.0</ele><time>2026-04-10T09:01:14Z</time></trkpt><trkpt lat="44.51807225544159" lon="11.620479549133428"><ele>11.0</ele><time>2026-04-10T09:01:15Z</time></trkpt><trkpt lat="44.51789152505944" lon="11.620365483829405"><ele>11.0</ele><time>2026-04-10T09:01:16Z</time></trkpt><trkpt lat="44.51771460675042" lon="11.620249709293512"><ele>11.0</ele><time>2026-04-10T09:01:17Z</time></trkpt><trkpt lat="44.51754487113624" lon="11.620128354422938"><ele>11.0</ele><time>2026-04-10T09:01:18Z</time></trkpt><trkpt lat="44.517376517155306" lon="11.6200088143732"><ele>11.0</ele><time>2026-04-10T09:01:19Z</time></trkpt><trkpt lat="44.517202622208586" lon="11.61989721780638"><ele>11.666666666666666</ele><time>2026-04-10T09:01:20Z</time></trkpt><trkpt lat="44.51702246270269" lon="11.619806958553719"><ele>12.333333333333332</ele><time>2026-04-10T09:01:21Z</time></trkpt><trkpt lat="44.5168416289517" lon="11.619714572387672"><ele>13.0</ele><time>2026-04-10T09:01:22Z</time></trkpt><trkpt lat="44.516664660841144" lon="11.61961483297555"><ele>13.0</ele><time>2026-04-10T09:01:23Z</time></trkpt><trkpt lat="44.51649273594585" lon="11.619500376052375"><ele>13.0</ele><time>2026-04-10T09:01:24Z</time></trkpt><trkpt lat="44.516325553981495" lon="11.61937536207881"><ele>13.0</ele><time>2026-04-10T09:01:25Z</time></trkpt><trkpt lat="44.51616595790936" lon="11.619242960335729"><ele>12.666666666666666</ele><time>2026-04-10T09:01:26Z</time></trkpt><trkpt lat="44.51600927094061" lon="11.619110147249197"><ele>12.333333333333332</ele><time>2026-04-10T09:01:27Z</time></trkpt><trkpt lat="44.51585839830994" lon="11.618986083324199"><ele>12.0</ele><time>2026-04-10T09:01:28Z</time></trkpt><trkpt lat="44.515709184739336" lon="11.618876316851704"><ele>12.0</ele><time>2026-04-10T09:01:29Z</time></trkpt><trkpt lat="44.51556067834153" lon="11.618780813464555"><ele>12.0</ele><time>2026-04-10T09:01:30Z</time></trkpt><trkpt lat="44.515408784762684" lon="11.61869083220063"><ele>12.0</ele><time>2026-04-10T09:01:31Z</time></trkpt><trkpt lat="44.51525501648588" lon="11.618607401589998"><ele>13.0</ele><time>2026-04-10T09:01:32Z</time></trkpt><trkpt lat="44.51510123214923" lon="11.618537385028615"><ele>14.0</ele><time>2026-04-10T09:01:33Z</time></trkpt><trkpt lat="44.51494834373827" lon="11.6184943899626"><ele>15.0</ele><time>2026-04-10T09:01:34Z</time></trkpt><trkpt lat="44.51479575308389" lon="11.618422330662579"><ele>15.0</ele><time>2026-04-10T09:01:35Z</time></trkpt><trkpt lat="44.51464031519417" lon="11.618384685433218"><ele>15.0</ele><time>2026-04-10T09:01:36Z</time></trkpt><trkpt lat="44.51447503223033" lon="11.618343945487798"><ele>15.0</ele><time>2026-04-10T09:01:37Z</time></trkpt><trkpt lat="44.51430776204866" lon="11.618300810148781"><ele>14.666666666666668</ele><time>2026-04-10T09:01:38Z</time></trkpt><trkpt lat="44.514140777876854" lon="11.61824280616274"><ele>14.333333333333334</ele><time>2026-04-10T09:01:39Z</time></trkpt><trkpt lat="44.513975718690055" lon="11.618170911032927"><ele>14.0</ele><time>2026-04-10T09:01:40Z</time></trkpt><trkpt lat="44.51381455217879" lon="11.618094068372432"><ele>13.666666666666668</ele><time>2026-04-10T09:01:41Z</time></trkpt><trkpt lat="44.51366243889511" lon="11.618015469993802"><ele>13.333333333333332</ele><time>2026-04-10T09:01:42Z</time></trkpt><trkpt lat="44.51350919877308" lon="11.617933511437332"><ele>13.0</ele><time>2026-04-10T09:01:43Z</time></trkpt><trkpt lat="44.513354757140675" lon="11.617841197938812"><ele>13.666666666666666</ele><time>2026-04-10T09:01:44Z</time></trkpt><trkpt lat="44.51319882446452" lon="11.617746730352073"><ele>14.333333333333332</ele><time>2026-04-10T09:01:45Z</time></trkpt><trkpt lat="44.513047634844014" lon="11.61765371024074"><ele>15.0</ele><time>2026-04-10T09:01:46Z</time></trkpt><trkpt lat="44.51289217624042" lon="11.617561241613732"><ele>15.333333333333332</ele><time>2026-04-10T09:01:47Z</time></trkpt><trkpt lat="44.512736286065426" lon="11.617479859950055"><ele>15.666666666666666</ele><time>2026-04-10T09:01:48Z</time></trkpt><trkpt lat="44.512570181181964" lon="11.617431292870215"><ele>16.0</ele><time>2026-04-10T09:01:49Z</time></trkpt><trkpt lat="44.5124139418309" lon="11.617349239863872"><ele>16.0</ele><time>2026-04-10T09:01:50Z</time></trkpt><trkpt lat="44.512252999258784" lon="11.617309144615067"><ele>16.0</ele><time>2026-04-10T09:01:51Z</time></trkpt><trkpt lat="44.51209000877206" lon="11.617283617898039"><ele>16.0</ele><time>2026-04-10T09:01:52Z</time></trkpt><trkpt lat="44.51192638968803" lon="11.617262720491873"><ele>16.333333333333332</ele><time>2026-04-10T09:01:53Z</time></trkpt><trkpt lat="44.511763440331194" lon="11.617272669797302"><ele>16.666666666666668</ele><time>2026-04-10T09:01:54Z</time></trkpt><trkpt lat="44.51159368014402" lon="11.617275366202769"><ele>17.0</ele><time>2026-04-10T09:01:55Z</time></trkpt><trkpt lat="44.51141927151968" lon="11.61729815205263"><ele>17.0</ele><time>2026-04-10T09:01:56Z</time></trkpt><trkpt lat="44.51124359957524" lon="11.617336381341088"><ele>17.0</ele><time>2026-04-10T09:01:57Z</time></trkpt><trkpt lat="44.51107310330021" lon="11.617390657314456"><ele>17.0</ele><time>2026-04-10T09:01:58Z</time></trkpt><trkpt lat="44.51090480607251" lon="11.61745852976449"><ele>16.666666666666668</ele><time>2026-04-10T09:01:59Z</time></trkpt><trkpt lat="44.51074313802373" lon="11.617532059199123"><ele>16.333333333333332</ele><time>2026-04-10T09:02:00Z</time></trkpt><trkpt lat="44.510587549637556" lon="11.617608798396102"><ele>16.0</ele><time>2026-04-10T09:02:01Z</time></trkpt><trkpt lat="44.51043130066607" lon="11.617685126082298"><ele>16.0</ele><time>2026-04-10T09:02:02Z</time></trkpt><trkpt lat="44.51027215109396" lon="11.617749651116196"><ele>16.0</ele><time>2026-04-10T09:02:03Z</time></trkpt><trkpt lat="44.51010650600014" lon="11.617789816755037"><ele>16.0</ele><time>2026-04-10T09:02:04Z</time></trkpt><trkpt lat="44.50994111855472" lon="11.617817977577172"><ele>15.666666666666666</ele><time>2026-04-10T09:02:05Z</time></trkpt><trkpt lat="44.50977918451583" lon="11.617833101637268"><ele>15.333333333333332</ele><time>2026-04-10T09:02:06Z</time></trkpt><trkpt lat="44.50961225587185" lon="11.617838425509857"><ele>15.0</ele><time>2026-04-10T09:02:07Z</time></trkpt><trkpt lat="44.50944410000129" lon="11.617814275762681"><ele>15.0</ele><time>2026-04-10T09:02:08Z</time></trkpt><trkpt lat="44.50927671233569" lon="11.617798953744272"><ele>15.0</ele><time>2026-04-10T09:02:09Z</time></trkpt><trkpt lat="44.50910566664686" lon="11.617789918943679"><ele>15.0</ele><time>2026-04-10T09:02:10Z</time></trkpt><trkpt lat="44.5089369481091" lon="11.617741155473016"><ele>15.0</ele><time>2026-04-10T09:02:11Z</time></trkpt><trkpt lat="44.508771142910724" lon="11.617671833243136"><ele>15.0</ele><time>2026-04-10T09:02:12Z</time></trkpt><trkpt lat="44.50860859668819" lon="11.617586982062852"><ele>15.0</ele><time>2026-04-10T09:02:13Z</time></trkpt><trkpt lat="44.50844387823027" lon="11.617497159400918"><ele>15.666666666666668</ele><time>2026-04-10T09:02:14Z</time></trkpt><trkpt lat="44.50827357812715" lon="11.617410790026948"><ele>16.333333333333336</ele><time>2026-04-10T09:02:15Z</time></trkpt><trkpt lat="44.50810545652046" lon="11.61732126081823"><ele>17.0</ele><time>2026-04-10T09:02:16Z</time></trkpt><trkpt lat="44.50793539146982" lon="11.617227243997718"><ele>16.666666666666668</ele><time>2026-04-10T09:02:17Z</time></trkpt><trkpt lat="44.50777340865235" lon="11.6171131459911"><ele>16.333333333333332</ele><time>2026-04-10T09:02:18Z</time></trkpt><trkpt lat="44.50760597794416" lon="11.617020011427508"><ele>16.0</ele><time>2026-04-10T09:02:19Z</time></trkpt><trkpt lat="44.50743873374718" lon="11.616928749643407"><ele>16.0</ele><time>2026-04-10T09:02:20Z</time></trkpt><trkpt lat="44.50727382087936" lon="11.616838165509707"><ele>16.0</ele><time>2026-04-10T09:02:21Z</time></trkpt><trkpt lat="44.50711034079986" lon="11.616749385957892"><ele>16.0</ele><time>2026-04-10T09:02:22Z</time></trkpt><trkpt lat="44.50694730167668" lon="11.616661504394795"><ele>16.0</ele><time>2026-04-10T09:02:23Z</time></trkpt><trkpt lat="44.50677954487269" lon="11.616595724199122"><ele>16.0</ele><time>2026-04-10T09:02:24Z</time></trkpt><trkpt lat="44.50662405405779" lon="11.616483600574437"><ele>16.0</ele><time>2026-04-10T09:02:25Z</time></trkpt><trkpt lat="44.50646227084296" lon="11.616395897601828"><ele>16.0</ele><time>2026-04-10T09:02:26Z</time></trkpt><trkpt lat="44.50629833709646" lon="11.616311143757303"><ele>16.0</ele><time>2026-04-10T09:02:27Z</time></trkpt><trkpt lat="44.50613662448475" lon="11.616232807572185"><ele>16.0</ele><time>2026-04-10T09:02:28Z</time></trkpt><trkpt lat="44.505976476476555" lon="11.616158745098383"><ele>16.333333333333332</ele><time>2026-04-10T09:02:29Z</time></trkpt><trkpt lat="44.50581625165663" lon="11.61608562382657"><ele>16.666666666666668</ele><time>2026-04-10T09:02:30Z</time></trkpt><trkpt lat="44.50566428659517" lon="11.616015147888925"><ele>17.0</ele><time>2026-04-10T09:02:31Z</time></trkpt><trkpt lat="44.50551214377229" lon="11.615940230287615"><ele>17.0</ele><time>2026-04-10T09:02:32Z</time></trkpt><trkpt lat="44.50536766490723" lon="11.615864852823131"><ele>17.0</ele><time>2026-04-10T09:02:33Z</time></trkpt><trkpt lat="44.50522727653513" lon="11.615795748057716"><ele>17.0</ele><time>2026-04-10T09:02:34Z</time></trkpt><trkpt lat="44.505093458100205" lon="11.615733201183863"><ele>17.0</ele><time>2026-04-10T09:02:35Z</time></trkpt><trkpt lat="44.50498229439872" lon="11.61568124314471"><ele>17.0</ele><time>2026-04-10T09:02:36Z</time></trkpt><trkpt lat="44.50488025028083" lon="11.615633547618618"><ele>17.0</ele><time>2026-04-10T09:02:37Z</time></trkpt><trkpt lat="44.504781442953416" lon="11.61558641299558"><ele>17.0</ele><time>2026-04-10T09:02:38Z</time></trkpt><trkpt lat="44.50468729300972" lon="11.615534792527614"><ele>17.0</ele><time>2026-04-10T09:02:39Z</time></trkpt><trkpt lat="44.5045986536433" lon="11.615477085004404"><ele>17.0</ele><time>2026-04-10T09:02:40Z</time></trkpt><trkpt lat="44.504511780433724" lon="11.615417118876666"><ele>17.0</ele><time>2026-04-10T09:02:41Z</time></trkpt><trkpt lat="44.504419884471126" lon="11.615352113781869"><ele>17.0</ele><time>2026-04-10T09:02:42.001Z</time></trkpt><trkpt lat="44.50433035201483" lon="11.615288579768386"><ele>17.0</ele><time>2026-04-10T09:02:43.001Z</time></trkpt><trkpt lat="44.504236661310486" lon="11.615221288510575"><ele>17.0</ele><time>2026-04-10T09:02:44Z</time></trkpt><trkpt lat="44.504142243992966" lon="11.61515007882157"><ele>17.0</ele><time>2026-04-10T09:02:45Z</time></trkpt><trkpt lat="44.50405040879325" lon="11.61507867338167"><ele>17.0</ele><time>2026-04-10T09:02:46Z</time></trkpt><trkpt lat="44.5039649671369" lon="11.615002979366082"><ele>17.0</ele><time>2026-04-10T09:02:47Z</time></trkpt><trkpt lat="44.50387934049195" lon="11.614915738121756"><ele>17.0</ele><time>2026-04-10T09:02:48Z</time></trkpt><trkpt lat="44.50380148046049" lon="11.614811302407436"><ele>17.0</ele><time>2026-04-10T09:02:49Z</time></trkpt><trkpt lat="44.50373015427519" lon="11.614682364515053"><ele>17.0</ele><time>2026-04-10T09:02:50Z</time></trkpt><trkpt lat="44.50365721042062" lon="11.614527428854386"><ele>17.333333333333336</ele><time>2026-04-10T09:02:51Z</time></trkpt><trkpt lat="44.50357550952654" lon="11.614349273964377"><ele>17.666666666666668</ele><time>2026-04-10T09:02:52Z</time></trkpt><trkpt lat="44.50349104608432" lon="11.614163262446489"><ele>18.0</ele><time>2026-04-10T09:02:53Z</time></trkpt><trkpt lat="44.503399825956656" lon="11.613970910068895"><ele>18.0</ele><time>2026-04-10T09:02:54Z</time></trkpt><trkpt lat="44.50330094340174" lon="11.613775314998131"><ele>18.0</ele><time>2026-04-10T09:02:55Z</time></trkpt><trkpt lat="44.50319561380455" lon="11.61357104629835"><ele>18.0</ele><time>2026-04-10T09:02:56Z</time></trkpt><trkpt lat="44.50308434424954" lon="11.613353929602498"><ele>18.333333333333332</ele><time>2026-04-10T09:02:57Z</time></trkpt><trkpt lat="44.502973446443555" lon="11.613131924463975"><ele>18.666666666666664</ele><time>2026-04-10T09:02:58Z</time></trkpt><trkpt lat="44.50286271903682" lon="11.612914072272453"><ele>19.0</ele><time>2026-04-10T09:02:59Z</time></trkpt><trkpt lat="44.50275244871041" lon="11.612715435535893"><ele>18.0</ele><time>2026-04-10T09:03:00Z</time></trkpt><trkpt lat="44.50264676109055" lon="11.61253264250636"><ele>17.0</ele><time>2026-04-10T09:03:01Z</time></trkpt><trkpt lat="44.50253996072538" lon="11.612355673992042"><ele>16.0</ele><time>2026-04-10T09:03:02Z</time></trkpt><trkpt lat="44.50243673112916" lon="11.612184568063865"><ele>16.0</ele><time>2026-04-10T09:03:03Z</time></trkpt><trkpt lat="44.50233467671071" lon="11.61201794503117"><ele>16.0</ele><time>2026-04-10T09:03:04Z</time></trkpt><trkpt lat="44.50223656451608" lon="11.6118600223873"><ele>16.0</ele><time>2026-04-10T09:03:05Z</time></trkpt><trkpt lat="44.50214078307587" lon="11.611706188641016"><ele>16.5</ele><time>2026-04-10T09:03:06Z</time></trkpt><trkpt lat="44.50204963360364" lon="11.611557368447619"><ele>17.0</ele><time>2026-04-10T09:03:07Z</time></trkpt><trkpt lat="44.50196795655963" lon="11.611413405333238"><ele>17.5</ele><time>2026-04-10T09:03:08Z</time></trkpt><trkpt lat="44.50188862777112" lon="11.61126502562821"><ele>18.0</ele><time>2026-04-10T09:03:09Z</time></trkpt><trkpt lat="44.50181167861225" lon="11.611118396909312"><ele>18.0</ele><time>2026-04-10T09:03:10Z</time></trkpt><trkpt lat="44.501731505344715" lon="11.610975791743659"><ele>18.0</ele><time>2026-04-10T09:03:11Z</time></trkpt><trkpt lat="44.501645021921256" lon="11.610845144930808"><ele>18.0</ele><time>2026-04-10T09:03:12Z</time></trkpt><trkpt lat="44.50155713835893" lon="11.610732966080512"><ele>18.0</ele><time>2026-04-10T09:03:13Z</time></trkpt><trkpt lat="44.501465892898466" lon="11.610626743577786"><ele>18.0</ele><time>2026-04-10T09:03:14Z</time></trkpt><trkpt lat="44.501382503446585" lon="11.61053531475245"><ele>18.0</ele><time>2026-04-10T09:03:15Z</time></trkpt><trkpt lat="44.501305671674615" lon="11.610451178757097"><ele>18.0</ele><time>2026-04-10T09:03:16Z</time></trkpt><trkpt lat="44.501238814191176" lon="11.610359831351868"><ele>18.0</ele><time>2026-04-10T09:03:17Z</time></trkpt><trkpt lat="44.501191048164614" lon="11.610230667595307"><ele>18.0</ele><time>2026-04-10T09:03:18Z</time></trkpt><trkpt lat="44.5011477780663" lon="11.610095078031241"><ele>17.5</ele><time>2026-04-10T09:03:19Z</time></trkpt><trkpt lat="44.50110186337305" lon="11.609948235285922"><ele>17.0</ele><time>2026-04-10T09:03:20Z</time></trkpt><trkpt lat="44.501052393346136" lon="11.609800199414984"><ele>16.5</ele><time>2026-04-10T09:03:21Z</time></trkpt><trkpt lat="44.50098618885807" lon="11.609668811945726"><ele>16.0</ele><time>2026-04-10T09:03:22Z</time></trkpt><trkpt lat="44.50090679159465" lon="11.609563643863984"><ele>16.0</ele><time>2026-04-10T09:03:23Z</time></trkpt><trkpt lat="44.50080834534787" lon="11.609504503217265"><ele>16.0</ele><time>2026-04-10T09:03:24Z</time></trkpt><trkpt lat="44.5007049011051" lon="11.609482213618676"><ele>16.0</ele><time>2026-04-10T09:03:25Z</time></trkpt><trkpt lat="44.50060729797088" lon="11.609495498362579"><ele>16.0</ele><time>2026-04-10T09:03:26Z</time></trkpt><trkpt lat="44.500518715686255" lon="11.60955204591581"><ele>16.0</ele><time>2026-04-10T09:03:27Z</time></trkpt><trkpt lat="44.500449440834316" lon="11.609647975040742"><ele>16.2</ele><time>2026-04-10T09:03:28Z</time></trkpt><trkpt lat="44.50040347783487" lon="11.609775916551333"><ele>16.400000000000002</ele><time>2026-04-10T09:03:29Z</time></trkpt><trkpt lat="44.5003816108136" lon="11.609920750764633"><ele>16.6</ele><time>2026-04-10T09:03:30Z</time></trkpt><trkpt lat="44.50037789479518" lon="11.610077515208118"><ele>16.8</ele><time>2026-04-10T09:03:31Z</time></trkpt><trkpt lat="44.500394323415506" lon="11.610247727313162"><ele>17.0</ele><time>2026-04-10T09:03:32Z</time></trkpt><trkpt lat="44.500409028931344" lon="11.610425189919823"><ele>17.25</ele><time>2026-04-10T09:03:33Z</time></trkpt><trkpt lat="44.50040252504582" lon="11.61060813438702"><ele>17.5</ele><time>2026-04-10T09:03:34Z</time></trkpt><trkpt lat="44.500359554299656" lon="11.610784377651218"><ele>17.75</ele><time>2026-04-10T09:03:35Z</time></trkpt><trkpt lat="44.50029864186173" lon="11.610947831561555"><ele>18.0</ele><time>2026-04-10T09:03:36Z</time></trkpt><trkpt lat="44.50023355966667" lon="11.611118991225423"><ele>18.0</ele><time>2026-04-10T09:03:37Z</time></trkpt><trkpt lat="44.500169708581204" lon="11.611290336854788"><ele>18.0</ele><time>2026-04-10T09:03:38Z</time></trkpt><trkpt lat="44.500105478908104" lon="11.611465820176761"><ele>18.0</ele><time>2026-04-10T09:03:39Z</time></trkpt><trkpt lat="44.50003848672119" lon="11.611644424127398"><ele>18.0</ele><time>2026-04-10T09:03:40Z</time></trkpt><trkpt lat="44.499971661430834" lon="11.611824967788117"><ele>18.0</ele><time>2026-04-10T09:03:41Z</time></trkpt><trkpt lat="44.49990235985463" lon="11.61201307797167"><ele>18.0</ele><time>2026-04-10T09:03:42Z</time></trkpt><trkpt lat="44.49983000729195" lon="11.612207614491911"><ele>18.0</ele><time>2026-04-10T09:03:43Z</time></trkpt><trkpt lat="44.49975303885324" lon="11.612410952094303"><ele>18.0</ele><time>2026-04-10T09:03:44Z</time></trkpt><trkpt lat="44.49967237879973" lon="11.612617144743377"><ele>18.0</ele><time>2026-04-10T09:03:45Z</time></trkpt><trkpt lat="44.49958924385898" lon="11.612829007996261"><ele>18.0</ele><time>2026-04-10T09:03:46Z</time></trkpt><trkpt lat="44.499504148359165" lon="11.613045584679595"><ele>18.0</ele><time>2026-04-10T09:03:47Z</time></trkpt><trkpt lat="44.49941605875582" lon="11.613264740661933"><ele>18.0</ele><time>2026-04-10T09:03:48Z</time></trkpt><trkpt lat="44.499328441762685" lon="11.613487347282275"><ele>18.0</ele><time>2026-04-10T09:03:49Z</time></trkpt><trkpt lat="44.499240379696154" lon="11.613710830986792"><ele>18.0</ele><time>2026-04-10T09:03:50Z</time></trkpt><trkpt lat="44.49915285836803" lon="11.613935414828987"><ele>18.0</ele><time>2026-04-10T09:03:51Z</time></trkpt><trkpt lat="44.49906711710243" lon="11.614160501676752"><ele>18.0</ele><time>2026-04-10T09:03:52Z</time></trkpt><trkpt lat="44.498979264945184" lon="11.614386620712464"><ele>18.0</ele><time>2026-04-10T09:03:53Z</time></trkpt><trkpt lat="44.498889859814646" lon="11.614614519728157"><ele>18.0</ele><time>2026-04-10T09:03:54Z</time></trkpt><trkpt lat="44.49879863657719" lon="11.614847131425623"><ele>18.0</ele><time>2026-04-10T09:03:55Z</time></trkpt><trkpt lat="44.49870594451735" lon="11.615082285160963"><ele>17.666666666666668</ele><time>2026-04-10T09:03:56Z</time></trkpt><trkpt lat="44.49861410977852" lon="11.615321917572576"><ele>17.333333333333336</ele><time>2026-04-10T09:03:57Z</time></trkpt><trkpt lat="44.498521243450156" lon="11.615566799504483"><ele>17.0</ele><time>2026-04-10T09:03:58Z</time></trkpt><trkpt lat="44.498423404073975" lon="11.615814444496266"><ele>17.0</ele><time>2026-04-10T09:03:59Z</time></trkpt><trkpt lat="44.49832069550633" lon="11.616068550373354"><ele>17.0</ele><time>2026-04-10T09:04:00Z</time></trkpt><trkpt lat="44.49821725101926" lon="11.616333424547703"><ele>17.0</ele><time>2026-04-10T09:04:01Z</time></trkpt><trkpt lat="44.49811336479615" lon="11.616606522597644"><ele>17.0</ele><time>2026-04-10T09:04:02Z</time></trkpt><trkpt lat="44.49800688424081" lon="11.61687350697161"><ele>17.0</ele><time>2026-04-10T09:04:03Z</time></trkpt><trkpt lat="44.49790133919518" lon="11.617136291151676"><ele>17.0</ele><time>2026-04-10T09:04:04Z</time></trkpt><trkpt lat="44.49779812260293" lon="11.617402061068832"><ele>17.0</ele><time>2026-04-10T09:04:05Z</time></trkpt><trkpt lat="44.49769653422949" lon="11.61766672140596"><ele>17.0</ele><time>2026-04-10T09:04:06Z</time></trkpt><trkpt lat="44.49759784814638" lon="11.617924596289198"><ele>17.0</ele><time>2026-04-10T09:04:07Z</time></trkpt><trkpt lat="44.49750038761893" lon="11.618180930211059"><ele>16.666666666666668</ele><time>2026-04-10T09:04:08Z</time></trkpt><trkpt lat="44.49740104650036" lon="11.618432651167252"><ele>16.333333333333332</ele><time>2026-04-10T09:04:09Z</time></trkpt><trkpt lat="44.49730151264158" lon="11.618683011077023"><ele>16.0</ele><time>2026-04-10T09:04:10Z</time></trkpt><trkpt lat="44.49720169325526" lon="11.618935488738135"><ele>16.0</ele><time>2026-04-10T09:04:11Z</time></trkpt><trkpt lat="44.497102951393934" lon="11.61918791159891"><ele>16.0</ele><time>2026-04-10T09:04:12Z</time></trkpt><trkpt lat="44.49700345687118" lon="11.619443877969989"><ele>16.0</ele><time>2026-04-10T09:04:13Z</time></trkpt><trkpt lat="44.496904027477335" lon="11.619700161401544"><ele>16.0</ele><time>2026-04-10T09:04:14Z</time></trkpt><trkpt lat="44.4968029664753" lon="11.619954892528492"><ele>16.0</ele><time>2026-04-10T09:04:15Z</time></trkpt><trkpt lat="44.49670121533743" lon="11.62020965487951"><ele>16.0</ele><time>2026-04-10T09:04:16Z</time></trkpt><trkpt lat="44.49659644855828" lon="11.620466620570891"><ele>16.0</ele><time>2026-04-10T09:04:17Z</time></trkpt><trkpt lat="44.496496453045225" lon="11.620725667038952"><ele>16.0</ele><time>2026-04-10T09:04:18Z</time></trkpt><trkpt lat="44.49639932469839" lon="11.6209814347748"><ele>16.0</ele><time>2026-04-10T09:04:19Z</time></trkpt><trkpt lat="44.49630130642895" lon="11.621236562940693"><ele>16.0</ele><time>2026-04-10T09:04:20Z</time></trkpt><trkpt lat="44.49620310147848" lon="11.621486836896114"><ele>16.0</ele><time>2026-04-10T09:04:21Z</time></trkpt><trkpt lat="44.49610457272314" lon="11.621735627374118"><ele>16.0</ele><time>2026-04-10T09:04:22Z</time></trkpt><trkpt lat="44.49600618008673" lon="11.621985275659888"><ele>16.0</ele><time>2026-04-10T09:04:23Z</time></trkpt><trkpt lat="44.49590894332551" lon="11.622232463400788"><ele>16.0</ele><time>2026-04-10T09:04:24Z</time></trkpt><trkpt lat="44.49581261699052" lon="11.622479355607455"><ele>16.0</ele><time>2026-04-10T09:04:25Z</time></trkpt><trkpt lat="44.49571626650132" lon="11.622726813072552"><ele>15.666666666666666</ele><time>2026-04-10T09:04:26Z</time></trkpt><trkpt lat="44.49562067635415" lon="11.622975372223737"><ele>15.333333333333332</ele><time>2026-04-10T09:04:27Z</time></trkpt><trkpt lat="44.49552401754201" lon="11.623222158721953"><ele>15.0</ele><time>2026-04-10T09:04:28Z</time></trkpt><trkpt lat="44.4954273524382" lon="11.62346546492182"><ele>15.0</ele><time>2026-04-10T09:04:29Z</time></trkpt><trkpt lat="44.49533059513503" lon="11.62370295236387"><ele>15.0</ele><time>2026-04-10T09:04:30Z</time></trkpt><trkpt lat="44.49523650683447" lon="11.623937466323191"><ele>15.0</ele><time>2026-04-10T09:04:31Z</time></trkpt><trkpt lat="44.49514528209831" lon="11.62417012337592"><ele>15.0</ele><time>2026-04-10T09:04:32Z</time></trkpt><trkpt lat="44.49505320978981" lon="11.624405383233078"><ele>15.0</ele><time>2026-04-10T09:04:33Z</time></trkpt><trkpt lat="44.49496323765354" lon="11.624637885265061"><ele>15.0</ele><time>2026-04-10T09:04:34Z</time></trkpt><trkpt lat="44.49487563937485" lon="11.624868799061257"><ele>15.666666666666668</ele><time>2026-04-10T09:04:35Z</time></trkpt><trkpt lat="44.494786492061486" lon="11.625094600530593"><ele>16.333333333333336</ele><time>2026-04-10T09:04:36Z</time></trkpt><trkpt lat="44.49470348894082" lon="11.62530665063532"><ele>17.0</ele><time>2026-04-10T09:04:37Z</time></trkpt><trkpt lat="44.49462014852771" lon="11.62551848117855"><ele>16.0</ele><time>2026-04-10T09:04:38Z</time></trkpt><trkpt lat="44.49454011379522" lon="11.625722505227891"><ele>15.0</ele><time>2026-04-10T09:04:39Z</time></trkpt><trkpt lat="44.4944636244921" lon="11.62592213752832"><ele>14.0</ele><time>2026-04-10T09:04:40Z</time></trkpt><trkpt lat="44.49438606889254" lon="11.62612247878814"><ele>14.666666666666668</ele><time>2026-04-10T09:04:41Z</time></trkpt><trkpt lat="44.49431297959255" lon="11.626314459233024"><ele>15.333333333333332</ele><time>2026-04-10T09:04:42Z</time></trkpt><trkpt lat="44.49424264073676" lon="11.626500974581923"><ele>16.0</ele><time>2026-04-10T09:04:43Z</time></trkpt><trkpt lat="44.49416998369071" lon="11.626680846113791"><ele>16.0</ele><time>2026-04-10T09:04:44Z</time></trkpt><trkpt lat="44.494092113618294" lon="11.626847667028592"><ele>16.0</ele><time>2026-04-10T09:04:45Z</time></trkpt><trkpt lat="44.494000683850494" lon="11.626992414749276"><ele>16.0</ele><time>2026-04-10T09:04:46Z</time></trkpt><trkpt lat="44.49389116257543" lon="11.627117119196797"><ele>16.0</ele><time>2026-04-10T09:04:47Z</time></trkpt><trkpt lat="44.493769071586705" lon="11.627210533347"><ele>16.0</ele><time>2026-04-10T09:04:48Z</time></trkpt><trkpt lat="44.493635204697" lon="11.627277690184837"><ele>16.0</ele><time>2026-04-10T09:04:49Z</time></trkpt><trkpt lat="44.493494613596496" lon="11.627312066274454"><ele>16.0</ele><time>2026-04-10T09:04:50Z</time></trkpt><trkpt lat="44.49334932579632" lon="11.627306099494374"><ele>16.0</ele><time>2026-04-10T09:04:51Z</time></trkpt><trkpt lat="44.49320045572045" lon="11.627268575943058"><ele>16.0</ele><time>2026-04-10T09:04:52Z</time></trkpt><trkpt lat="44.4930543862273" lon="11.627207408186997"><ele>16.0</ele><time>2026-04-10T09:04:53Z</time></trkpt><trkpt lat="44.49291027422572" lon="11.627140975680447"><ele>16.0</ele><time>2026-04-10T09:04:54Z</time></trkpt><trkpt lat="44.49276352231852" lon="11.627076284142671"><ele>16.0</ele><time>2026-04-10T09:04:55Z</time></trkpt><trkpt lat="44.49261894310401" lon="11.627013425194647"><ele>16.0</ele><time>2026-04-10T09:04:56Z</time></trkpt><trkpt lat="44.49247663999213" lon="11.626977603918819"><ele>16.0</ele><time>2026-04-10T09:04:57Z</time></trkpt><trkpt lat="44.49232673916722" lon="11.626884961799387"><ele>16.0</ele><time>2026-04-10T09:04:58Z</time></trkpt><trkpt lat="44.49216191088467" lon="11.626807531248081"><ele>16.0</ele><time>2026-04-10T09:04:59Z</time></trkpt><trkpt lat="44.4919874712252" lon="11.626720513308216"><ele>16.0</ele><time>2026-04-10T09:05:00Z</time></trkpt><trkpt lat="44.491811055036905" lon="11.62662127911109"><ele>16.666666666666664</ele><time>2026-04-10T09:05:01Z</time></trkpt><trkpt lat="44.4916284502647" lon="11.62651372124433"><ele>17.333333333333332</ele><time>2026-04-10T09:05:02Z</time></trkpt><trkpt lat="44.49144246585526" lon="11.626400826858378"><ele>18.0</ele><time>2026-04-10T09:05:03Z</time></trkpt><trkpt lat="44.491250705126426" lon="11.626281282690341"><ele>18.333333333333332</ele><time>2026-04-10T09:05:04Z</time></trkpt><trkpt lat="44.491057915866264" lon="11.626159986291325"><ele>18.666666666666664</ele><time>2026-04-10T09:05:05Z</time></trkpt><trkpt lat="44.49086185753761" lon="11.626036555712348"><ele>19.0</ele><time>2026-04-10T09:05:06Z</time></trkpt><trkpt lat="44.49066540064169" lon="11.625907779950722"><ele>19.333333333333332</ele><time>2026-04-10T09:05:07Z</time></trkpt><trkpt lat="44.49047180076113" lon="11.625778438264653"><ele>19.666666666666668</ele><time>2026-04-10T09:05:08Z</time></trkpt><trkpt lat="44.49027681535625" lon="11.625648689964244"><ele>20.0</ele><time>2026-04-10T09:05:09Z</time></trkpt><trkpt lat="44.490085107184456" lon="11.625518732481254"><ele>19.666666666666668</ele><time>2026-04-10T09:05:10Z</time></trkpt><trkpt lat="44.4898952566084" lon="11.625389163696164"><ele>19.333333333333332</ele><time>2026-04-10T09:05:11Z</time></trkpt><trkpt lat="44.489705485959036" lon="11.625259851045518"><ele>19.0</ele><time>2026-04-10T09:05:12Z</time></trkpt><trkpt lat="44.48951611114343" lon="11.62513337144187"><ele>19.0</ele><time>2026-04-10T09:05:13Z</time></trkpt><trkpt lat="44.48932805697369" lon="11.6250025428379"><ele>19.0</ele><time>2026-04-10T09:05:14Z</time></trkpt><trkpt lat="44.48913974046866" lon="11.624870693051868"><ele>19.0</ele><time>2026-04-10T09:05:15Z</time></trkpt><trkpt lat="44.48895319750089" lon="11.624741246790348"><ele>19.0</ele><time>2026-04-10T09:05:16Z</time></trkpt><trkpt lat="44.48876753642341" lon="11.624613705686684"><ele>19.0</ele><time>2026-04-10T09:05:17Z</time></trkpt><trkpt lat="44.488579614732494" lon="11.624488724360054"><ele>19.0</ele><time>2026-04-10T09:05:18Z</time></trkpt><trkpt lat="44.48839187127144" lon="11.624363253318323"><ele>19.333333333333332</ele><time>2026-04-10T09:05:19Z</time></trkpt><trkpt lat="44.488206266070044" lon="11.624237250388202"><ele>19.666666666666668</ele><time>2026-04-10T09:05:20Z</time></trkpt><trkpt lat="44.48801898142378" lon="11.624108943557134"><ele>20.0</ele><time>2026-04-10T09:05:21Z</time></trkpt><trkpt lat="44.48783342327561" lon="11.623982268050518"><ele>20.333333333333336</ele><time>2026-04-10T09:05:22Z</time></trkpt><trkpt lat="44.48765000316016" lon="11.623862422386503"><ele>20.666666666666668</ele><time>2026-04-10T09:05:23Z</time></trkpt><trkpt lat="44.4874684832712" lon="11.623714062696157"><ele>21.0</ele><time>2026-04-10T09:05:24Z</time></trkpt><trkpt lat="44.48727646806474" lon="11.623583674289831"><ele>22.333333333333336</ele><time>2026-04-10T09:05:25Z</time></trkpt><trkpt lat="44.48708363841884" lon="11.623453664380834"><ele>23.666666666666668</ele><time>2026-04-10T09:05:26Z</time></trkpt><trkpt lat="44.486886373847284" lon="11.623321566591237"><ele>25.0</ele><time>2026-04-10T09:05:27Z</time></trkpt><trkpt lat="44.48668822252008" lon="11.623192610143931"><ele>25.0</ele><time>2026-04-10T09:05:28Z</time></trkpt><trkpt lat="44.48648670926584" lon="11.623063860552525"><ele>25.0</ele><time>2026-04-10T09:05:29Z</time></trkpt><trkpt lat="44.486284915239814" lon="11.622936968737582"><ele>25.0</ele><time>2026-04-10T09:05:30Z</time></trkpt><trkpt lat="44.48608421019543" lon="11.622810761701315"><ele>23.333333333333336</ele><time>2026-04-10T09:05:31Z</time></trkpt><trkpt lat="44.485883851662145" lon="11.622687090378115"><ele>21.666666666666668</ele><time>2026-04-10T09:05:32Z</time></trkpt><trkpt lat="44.48568457128792" lon="11.622562985320927"><ele>20.0</ele><time>2026-04-10T09:05:33Z</time></trkpt><trkpt lat="44.48549172141414" lon="11.622442510015699"><ele>20.0</ele><time>2026-04-10T09:05:34Z</time></trkpt><trkpt lat="44.48528921436672" lon="11.622349984514118"><ele>20.0</ele><time>2026-04-10T09:05:35Z</time></trkpt><trkpt lat="44.48509982806636" lon="11.62222648625565"><ele>20.0</ele><time>2026-04-10T09:05:36Z</time></trkpt><trkpt lat="44.48491165457544" lon="11.622103089409528"><ele>20.0</ele><time>2026-04-10T09:05:37Z</time></trkpt><trkpt lat="44.484717704783165" lon="11.621982258101328"><ele>20.0</ele><time>2026-04-10T09:05:38Z</time></trkpt><trkpt lat="44.484524152415034" lon="11.62185901260188"><ele>20.0</ele><time>2026-04-10T09:05:39Z</time></trkpt><trkpt lat="44.484326493275496" lon="11.621731416774022"><ele>21.0</ele><time>2026-04-10T09:05:40Z</time></trkpt><trkpt lat="44.48412617386698" lon="11.62160241547679"><ele>22.0</ele><time>2026-04-10T09:05:41Z</time></trkpt><trkpt lat="44.48392969607274" lon="11.621450500274737"><ele>23.0</ele><time>2026-04-10T09:05:42Z</time></trkpt><trkpt lat="44.48371716317078" lon="11.621340905543384"><ele>23.0</ele><time>2026-04-10T09:05:43Z</time></trkpt><trkpt lat="44.4835230478565" lon="11.621191831885648"><ele>23.0</ele><time>2026-04-10T09:05:44Z</time></trkpt><trkpt lat="44.483320298674705" lon="11.621055667782247"><ele>23.0</ele><time>2026-04-10T09:05:45Z</time></trkpt><trkpt lat="44.48311623291946" lon="11.620911471274638"><ele>22.5</ele><time>2026-04-10T09:05:46Z</time></trkpt><trkpt lat="44.48290291587679" lon="11.620784535520222"><ele>22.0</ele><time>2026-04-10T09:05:47Z</time></trkpt><trkpt lat="44.482700021944446" lon="11.62062495413601"><ele>22.0</ele><time>2026-04-10T09:05:48Z</time></trkpt><trkpt lat="44.48249205720124" lon="11.62046485236109"><ele>22.0</ele><time>2026-04-10T09:05:49Z</time></trkpt><trkpt lat="44.48228622455375" lon="11.620310729746949"><ele>21.0</ele><time>2026-04-10T09:05:50Z</time></trkpt><trkpt lat="44.48207707110555" lon="11.620158309877368"><ele>20.0</ele><time>2026-04-10T09:05:51Z</time></trkpt><trkpt lat="44.48187080363558" lon="11.620006445735632"><ele>20.0</ele><time>2026-04-10T09:05:52Z</time></trkpt><trkpt lat="44.4816682163564" lon="11.619853114308414"><ele>20.0</ele><time>2026-04-10T09:05:53Z</time></trkpt><trkpt lat="44.481468415074616" lon="11.619700452191822"><ele>20.0</ele><time>2026-04-10T09:05:54Z</time></trkpt><trkpt lat="44.48127073901489" lon="11.61955025489167"><ele>20.0</ele><time>2026-04-10T09:05:55Z</time></trkpt><trkpt lat="44.48107438790244" lon="11.619403011626293"><ele>20.0</ele><time>2026-04-10T09:05:56Z</time></trkpt><trkpt lat="44.48087792727485" lon="11.619253423931974"><ele>21.333333333333336</ele><time>2026-04-10T09:05:57Z</time></trkpt><trkpt lat="44.480684412958546" lon="11.619106796317737"><ele>22.666666666666668</ele><time>2026-04-10T09:05:58Z</time></trkpt><trkpt lat="44.48049010821294" lon="11.618956772104934"><ele>24.0</ele><time>2026-04-10T09:05:59Z</time></trkpt><trkpt lat="44.48029148946428" lon="11.618807356785581"><ele>24.333333333333336</ele><time>2026-04-10T09:06:00Z</time></trkpt><trkpt lat="44.48009613902696" lon="11.618664210464454"><ele>24.666666666666668</ele><time>2026-04-10T09:06:01Z</time></trkpt><trkpt lat="44.479901285138055" lon="11.618520699132652"><ele>25.0</ele><time>2026-04-10T09:06:02Z</time></trkpt><trkpt lat="44.47970628703208" lon="11.618373379235894"><ele>24.666666666666668</ele><time>2026-04-10T09:06:03Z</time></trkpt><trkpt lat="44.479514413135746" lon="11.618225844586226"><ele>24.333333333333336</ele><time>2026-04-10T09:06:04Z</time></trkpt><trkpt lat="44.479319218168676" lon="11.61807623135639"><ele>24.0</ele><time>2026-04-10T09:06:05Z</time></trkpt><trkpt lat="44.479124181071406" lon="11.617924819001852"><ele>24.666666666666664</ele><time>2026-04-10T09:06:06Z</time></trkpt><trkpt lat="44.47893246584778" lon="11.617780177935778"><ele>25.333333333333332</ele><time>2026-04-10T09:06:07Z</time></trkpt><trkpt lat="44.47874079086159" lon="11.617639934710464"><ele>26.0</ele><time>2026-04-10T09:06:08Z</time></trkpt><trkpt lat="44.478548323831454" lon="11.617501079631763"><ele>26.0</ele><time>2026-04-10T09:06:09Z</time></trkpt><trkpt lat="44.47835940013653" lon="11.617362554811056"><ele>26.0</ele><time>2026-04-10T09:06:10Z</time></trkpt><trkpt lat="44.47816866614274" lon="11.617218657606891"><ele>26.0</ele><time>2026-04-10T09:06:11Z</time></trkpt><trkpt lat="44.4779809827289" lon="11.617074626146936"><ele>25.0</ele><time>2026-04-10T09:06:12Z</time></trkpt><trkpt lat="44.47778640219683" lon="11.616924700430436"><ele>24.0</ele><time>2026-04-10T09:06:13Z</time></trkpt><trkpt lat="44.47759129747904" lon="11.616776700030478"><ele>23.0</ele><time>2026-04-10T09:06:14Z</time></trkpt><trkpt lat="44.47739147935334" lon="11.616635209003721"><ele>23.0</ele><time>2026-04-10T09:06:15Z</time></trkpt><trkpt lat="44.4771879411826" lon="11.616501037411187"><ele>23.0</ele><time>2026-04-10T09:06:16Z</time></trkpt><trkpt lat="44.476979331225444" lon="11.616376721614548"><ele>23.0</ele><time>2026-04-10T09:06:17Z</time></trkpt><trkpt lat="44.476767329432754" lon="11.616264851429401"><ele>23.0</ele><time>2026-04-10T09:06:18Z</time></trkpt><trkpt lat="44.47655661215973" lon="11.616168098713246"><ele>23.0</ele><time>2026-04-10T09:06:19Z</time></trkpt><trkpt lat="44.476346186492954" lon="11.616087519513874"><ele>23.333333333333336</ele><time>2026-04-10T09:06:20Z</time></trkpt><trkpt lat="44.47613544172875" lon="11.616016802091274"><ele>23.666666666666668</ele><time>2026-04-10T09:06:21Z</time></trkpt><trkpt lat="44.47592391059003" lon="11.61595861888377"><ele>24.0</ele><time>2026-04-10T09:06:22Z</time></trkpt><trkpt lat="44.47571575967045" lon="11.615910830763731"><ele>24.0</ele><time>2026-04-10T09:06:23Z</time></trkpt><trkpt lat="44.47550608782501" lon="11.615864141357847"><ele>24.0</ele><time>2026-04-10T09:06:24Z</time></trkpt><trkpt lat="44.47529708080346" lon="11.615818870870653"><ele>24.0</ele><time>2026-04-10T09:06:25Z</time></trkpt><trkpt lat="44.475088803852266" lon="11.615771186459726"><ele>24.0</ele><time>2026-04-10T09:06:26Z</time></trkpt><trkpt lat="44.474882246927024" lon="11.615718453555601"><ele>24.0</ele><time>2026-04-10T09:06:27Z</time></trkpt><trkpt lat="44.47467460617785" lon="11.615667701291544"><ele>24.0</ele><time>2026-04-10T09:06:28Z</time></trkpt><trkpt lat="44.4744655613797" lon="11.61561732909544"><ele>24.333333333333336</ele><time>2026-04-10T09:06:29Z</time></trkpt><trkpt lat="44.47425413336667" lon="11.61557039787412"><ele>24.666666666666668</ele><time>2026-04-10T09:06:30Z</time></trkpt><trkpt lat="44.474038301484406" lon="11.615516659043896"><ele>25.0</ele><time>2026-04-10T09:06:31Z</time></trkpt><trkpt lat="44.47382052081906" lon="11.615464572531282"><ele>25.666666666666668</ele><time>2026-04-10T09:06:32Z</time></trkpt><trkpt lat="44.473600858845195" lon="11.615414427000543"><ele>26.333333333333336</ele><time>2026-04-10T09:06:33Z</time></trkpt><trkpt lat="44.47338204730343" lon="11.615368014350516"><ele>27.0</ele><time>2026-04-10T09:06:34Z</time></trkpt><trkpt lat="44.4731595690165" lon="11.615326352581382"><ele>26.666666666666664</ele><time>2026-04-10T09:06:35Z</time></trkpt><trkpt lat="44.472937465688794" lon="11.615296417593903"><ele>26.333333333333332</ele><time>2026-04-10T09:06:36Z</time></trkpt><trkpt lat="44.47271889581757" lon="11.61528251612451"><ele>26.0</ele><time>2026-04-10T09:06:37Z</time></trkpt><trkpt lat="44.472500610952935" lon="11.615283639537854"><ele>26.0</ele><time>2026-04-10T09:06:38Z</time></trkpt><trkpt lat="44.472284636853026" lon="11.61530282923711"><ele>26.0</ele><time>2026-04-10T09:06:39Z</time></trkpt><trkpt lat="44.47207221584281" lon="11.615333400492633"><ele>26.0</ele><time>2026-04-10T09:06:40Z</time></trkpt><trkpt lat="44.471863683939475" lon="11.615374626514079"><ele>26.0</ele><time>2026-04-10T09:06:41Z</time></trkpt><trkpt lat="44.471653569387335" lon="11.615424328677676"><ele>26.0</ele><time>2026-04-10T09:06:42Z</time></trkpt><trkpt lat="44.47144005890488" lon="11.615476403028353"><ele>26.0</ele><time>2026-04-10T09:06:43Z</time></trkpt><trkpt lat="44.47122372379469" lon="11.615519251181558"><ele>26.0</ele><time>2026-04-10T09:06:44Z</time></trkpt><trkpt lat="44.47100392315696" lon="11.615557438815634"><ele>26.0</ele><time>2026-04-10T09:06:45Z</time></trkpt><trkpt lat="44.47078310662794" lon="11.61559409201508"><ele>26.0</ele><time>2026-04-10T09:06:46Z</time></trkpt><trkpt lat="44.470560887323174" lon="11.615636899654508"><ele>26.5</ele><time>2026-04-10T09:06:47Z</time></trkpt><trkpt lat="44.47033663662528" lon="11.615681631992414"><ele>27.0</ele><time>2026-04-10T09:06:48Z</time></trkpt><trkpt lat="44.470113387373246" lon="11.615727490770636"><ele>27.0</ele><time>2026-04-10T09:06:49Z</time></trkpt><trkpt lat="44.46989069534114" lon="11.615769014357392"><ele>27.0</ele><time>2026-04-10T09:06:50Z</time></trkpt><trkpt lat="44.46966929426243" lon="11.615812856225181"><ele>27.0</ele><time>2026-04-10T09:06:51Z</time></trkpt><trkpt lat="44.46945055608162" lon="11.615856480127771"><ele>27.333333333333336</ele><time>2026-04-10T09:06:52Z</time></trkpt><trkpt lat="44.46923371065522" lon="11.615898344743352"><ele>27.666666666666668</ele><time>2026-04-10T09:06:53Z</time></trkpt><trkpt lat="44.46901900812062" lon="11.615939504054166"><ele>28.0</ele><time>2026-04-10T09:06:54Z</time></trkpt><trkpt lat="44.468805124490096" lon="11.615976904145258"><ele>28.0</ele><time>2026-04-10T09:06:55Z</time></trkpt><trkpt lat="44.46859445903312" lon="11.616016705536122"><ele>28.0</ele><time>2026-04-10T09:06:56Z</time></trkpt><trkpt lat="44.4683827998221" lon="11.616059222104068"><ele>28.0</ele><time>2026-04-10T09:06:57Z</time></trkpt><trkpt lat="44.468169045610786" lon="11.61610554430877"><ele>28.0</ele><time>2026-04-10T09:06:58Z</time></trkpt><trkpt lat="44.467957515094334" lon="11.616149795175982"><ele>28.0</ele><time>2026-04-10T09:06:59Z</time></trkpt><trkpt lat="44.4677443219508" lon="11.616192968275563"><ele>28.0</ele><time>2026-04-10T09:07:00Z</time></trkpt><trkpt lat="44.46753310877456" lon="11.616232156519917"><ele>28.0</ele><time>2026-04-10T09:07:01Z</time></trkpt><trkpt lat="44.467319309602686" lon="11.616260546205318"><ele>28.0</ele><time>2026-04-10T09:07:02Z</time></trkpt><trkpt lat="44.467102478199784" lon="11.616280113815248"><ele>28.0</ele><time>2026-04-10T09:07:03Z</time></trkpt><trkpt lat="44.46688635106487" lon="11.616282687760433"><ele>28.333333333333336</ele><time>2026-04-10T09:07:04Z</time></trkpt><trkpt lat="44.46667001535352" lon="11.616266644205815"><ele>28.666666666666664</ele><time>2026-04-10T09:07:05Z</time></trkpt><trkpt lat="44.46645535056832" lon="11.616224257196851"><ele>29.0</ele><time>2026-04-10T09:07:06Z</time></trkpt><trkpt lat="44.46624721613641" lon="11.616136215814425"><ele>29.0</ele><time>2026-04-10T09:07:07Z</time></trkpt><trkpt lat="44.46603269078432" lon="11.616081458221768"><ele>29.0</ele><time>2026-04-10T09:07:08Z</time></trkpt><trkpt lat="44.46583123711849" lon="11.615982021241276"><ele>29.0</ele><time>2026-04-10T09:07:09Z</time></trkpt><trkpt lat="44.46563579730325" lon="11.615865000214724"><ele>29.0</ele><time>2026-04-10T09:07:10Z</time></trkpt><trkpt lat="44.46544443407311" lon="11.615736359926467"><ele>29.0</ele><time>2026-04-10T09:07:11Z</time></trkpt><trkpt lat="44.465257363172704" lon="11.61559494327843"><ele>29.0</ele><time>2026-04-10T09:07:12Z</time></trkpt><trkpt lat="44.46508000966201" lon="11.61544476513078"><ele>29.333333333333332</ele><time>2026-04-10T09:07:13Z</time></trkpt><trkpt lat="44.464901606214895" lon="11.615289410186342"><ele>29.666666666666664</ele><time>2026-04-10T09:07:14Z</time></trkpt><trkpt lat="44.46473130902619" lon="11.61511470053102"><ele>30.0</ele><time>2026-04-10T09:07:15Z</time></trkpt><trkpt lat="44.46454881042177" lon="11.614954518644076"><ele>30.333333333333336</ele><time>2026-04-10T09:07:16Z</time></trkpt><trkpt lat="44.4643621095102" lon="11.614790648290253"><ele>30.666666666666668</ele><time>2026-04-10T09:07:17Z</time></trkpt><trkpt lat="44.46417370092495" lon="11.614625279129292"><ele>31.0</ele><time>2026-04-10T09:07:18Z</time></trkpt><trkpt lat="44.463976599146626" lon="11.614478709950006"><ele>31.0</ele><time>2026-04-10T09:07:19Z</time></trkpt><trkpt lat="44.463788773474676" lon="11.614313032491927"><ele>31.0</ele><time>2026-04-10T09:07:20Z</time></trkpt><trkpt lat="44.463607550378654" lon="11.61412494295529"><ele>31.0</ele><time>2026-04-10T09:07:21Z</time></trkpt><trkpt lat="44.463416879988635" lon="11.613956538582503"><ele>31.0</ele><time>2026-04-10T09:07:22Z</time></trkpt><trkpt lat="44.46321867007504" lon="11.613805135587214"><ele>31.0</ele><time>2026-04-10T09:07:23Z</time></trkpt><trkpt lat="44.46302787779497" lon="11.61363541704841"><ele>30.5</ele><time>2026-04-10T09:07:24Z</time></trkpt><trkpt lat="44.46283289817012" lon="11.613469316308983"><ele>30.0</ele><time>2026-04-10T09:07:25Z</time></trkpt><trkpt lat="44.46263976692472" lon="11.613302352572282"><ele>30.0</ele><time>2026-04-10T09:07:26Z</time></trkpt><trkpt lat="44.46244756485772" lon="11.61313352745395"><ele>30.0</ele><time>2026-04-10T09:07:27Z</time></trkpt><trkpt lat="44.462255704482835" lon="11.612966388391206"><ele>31.5</ele><time>2026-04-10T09:07:28Z</time></trkpt><trkpt lat="44.46207008214033" lon="11.612780159716412"><ele>33.0</ele><time>2026-04-10T09:07:29Z</time></trkpt><trkpt lat="44.46188100934251" lon="11.612611677509909"><ele>33.0</ele><time>2026-04-10T09:07:30Z</time></trkpt><trkpt lat="44.461687894294336" lon="11.612439847939182"><ele>33.0</ele><time>2026-04-10T09:07:31Z</time></trkpt><trkpt lat="44.46149482399414" lon="11.612268291859571"><ele>33.0</ele><time>2026-04-10T09:07:32Z</time></trkpt><trkpt lat="44.4613019711759" lon="11.612096928864945"><ele>33.0</ele><time>2026-04-10T09:07:33Z</time></trkpt><trkpt lat="44.46110892687168" lon="11.61192663482719"><ele>32.333333333333336</ele><time>2026-04-10T09:07:34Z</time></trkpt><trkpt lat="44.46091853476597" lon="11.611760057866793"><ele>31.666666666666668</ele><time>2026-04-10T09:07:35Z</time></trkpt><trkpt lat="44.460731086062225" lon="11.61159622990493"><ele>31.0</ele><time>2026-04-10T09:07:36Z</time></trkpt><trkpt lat="44.460542557119204" lon="11.611432744108184"><ele>31.666666666666668</ele><time>2026-04-10T09:07:37Z</time></trkpt><trkpt lat="44.46035669540412" lon="11.611271571286657"><ele>32.333333333333336</ele><time>2026-04-10T09:07:38Z</time></trkpt><trkpt lat="44.46016822735923" lon="11.611112614116163"><ele>33.0</ele><time>2026-04-10T09:07:39Z</time></trkpt><trkpt lat="44.45997699300311" lon="11.610958179171485"><ele>33.0</ele><time>2026-04-10T09:07:40Z</time></trkpt><trkpt lat="44.45978358920561" lon="11.610813015541416"><ele>33.0</ele><time>2026-04-10T09:07:41Z</time></trkpt><trkpt lat="44.45958799842818" lon="11.610665823017065"><ele>33.0</ele><time>2026-04-10T09:07:42Z</time></trkpt><trkpt lat="44.45939068965659" lon="11.610517337759166"><ele>33.0</ele><time>2026-04-10T09:07:43Z</time></trkpt><trkpt lat="44.459193723392254" lon="11.610369110196034"><ele>33.0</ele><time>2026-04-10T09:07:44Z</time></trkpt><trkpt lat="44.45899553057656" lon="11.610221658816116"><ele>33.0</ele><time>2026-04-10T09:07:45Z</time></trkpt><trkpt lat="44.4587989463951" lon="11.610075610857681"><ele>33.0</ele><time>2026-04-10T09:07:46Z</time></trkpt><trkpt lat="44.458605639354225" lon="11.609931997996187"><ele>33.0</ele><time>2026-04-10T09:07:47Z</time></trkpt><trkpt lat="44.45840440910926" lon="11.609808310335369"><ele>33.0</ele><time>2026-04-10T09:07:48Z</time></trkpt><trkpt lat="44.458221113149314" lon="11.609646322908276"><ele>33.0</ele><time>2026-04-10T09:07:49Z</time></trkpt><trkpt lat="44.45803130477765" lon="11.609505309136049"><ele>33.0</ele><time>2026-04-10T09:07:50Z</time></trkpt><trkpt lat="44.45783884933952" lon="11.6093623286665"><ele>33.0</ele><time>2026-04-10T09:07:51Z</time></trkpt><trkpt lat="44.45764793529923" lon="11.609219609243283"><ele>33.0</ele><time>2026-04-10T09:07:52Z</time></trkpt><trkpt lat="44.457455229550064" lon="11.609074732469873"><ele>33.0</ele><time>2026-04-10T09:07:53Z</time></trkpt><trkpt lat="44.45726527252621" lon="11.608931921390688"><ele>33.0</ele><time>2026-04-10T09:07:54Z</time></trkpt><trkpt lat="44.45707416699053" lon="11.608788244426256"><ele>33.333333333333336</ele><time>2026-04-10T09:07:55Z</time></trkpt><trkpt lat="44.45688079239807" lon="11.608642861538842"><ele>33.66666666666667</ele><time>2026-04-10T09:07:56Z</time></trkpt><trkpt lat="44.45668440131777" lon="11.608497129528372"><ele>34.0</ele><time>2026-04-10T09:07:57Z</time></trkpt><trkpt lat="44.45647981577035" lon="11.608378885437372"><ele>34.0</ele><time>2026-04-10T09:07:58Z</time></trkpt><trkpt lat="44.45628115651577" lon="11.608232455849274"><ele>34.0</ele><time>2026-04-10T09:07:59Z</time></trkpt><trkpt lat="44.45608732005704" lon="11.608089112070553"><ele>34.0</ele><time>2026-04-10T09:08:00Z</time></trkpt><trkpt lat="44.45588906353892" lon="11.607946563916318"><ele>34.0</ele><time>2026-04-10T09:08:01Z</time></trkpt><trkpt lat="44.455692852995654" lon="11.607804388195985"><ele>34.0</ele><time>2026-04-10T09:08:02Z</time></trkpt><trkpt lat="44.45549466411558" lon="11.607654208083297"><ele>34.0</ele><time>2026-04-10T09:08:03Z</time></trkpt><trkpt lat="44.45529509359209" lon="11.607501710784259"><ele>34.5</ele><time>2026-04-10T09:08:04Z</time></trkpt><trkpt lat="44.45509562876195" lon="11.607348710691307"><ele>35.0</ele><time>2026-04-10T09:08:05Z</time></trkpt><trkpt lat="44.454897953723574" lon="11.60719494014362"><ele>35.0</ele><time>2026-04-10T09:08:06Z</time></trkpt><trkpt lat="44.45470144195733" lon="11.607043783223027"><ele>35.0</ele><time>2026-04-10T09:08:07Z</time></trkpt><trkpt lat="44.4545033759844" lon="11.606898624993292"><ele>35.0</ele><time>2026-04-10T09:08:08Z</time></trkpt><trkpt lat="44.454303572818475" lon="11.60676101039319"><ele>36.0</ele><time>2026-04-10T09:08:09Z</time></trkpt><trkpt lat="44.45409806929413" lon="11.6066322719818"><ele>37.0</ele><time>2026-04-10T09:08:10Z</time></trkpt><trkpt lat="44.45388987985648" lon="11.606510376016772"><ele>37.0</ele><time>2026-04-10T09:08:11Z</time></trkpt><trkpt lat="44.45368131119045" lon="11.606400151429508"><ele>37.0</ele><time>2026-04-10T09:08:12Z</time></trkpt><trkpt lat="44.45346878926948" lon="11.606303076542408"><ele>37.0</ele><time>2026-04-10T09:08:13Z</time></trkpt><trkpt lat="44.45325343943184" lon="11.606219274565493"><ele>36.333333333333336</ele><time>2026-04-10T09:08:14Z</time></trkpt><trkpt lat="44.45303486494343" lon="11.606147533135864"><ele>35.666666666666664</ele><time>2026-04-10T09:08:15Z</time></trkpt><trkpt lat="44.45281541595127" lon="11.606083945167617"><ele>35.0</ele><time>2026-04-10T09:08:16Z</time></trkpt><trkpt lat="44.45259607327067" lon="11.606030589906283"><ele>35.0</ele><time>2026-04-10T09:08:17Z</time></trkpt><trkpt lat="44.45237496613831" lon="11.605990182469757"><ele>35.0</ele><time>2026-04-10T09:08:18Z</time></trkpt><trkpt lat="44.45214967137749" lon="11.605971545368424"><ele>35.0</ele><time>2026-04-10T09:08:19Z</time></trkpt><trkpt lat="44.45192757256701" lon="11.605960856572727"><ele>35.0</ele><time>2026-04-10T09:08:20Z</time></trkpt><trkpt lat="44.45170079522101" lon="11.605959796864152"><ele>35.0</ele><time>2026-04-10T09:08:21Z</time></trkpt><trkpt lat="44.45148026699951" lon="11.605978608540912"><ele>35.0</ele><time>2026-04-10T09:08:22Z</time></trkpt><trkpt lat="44.451259692316626" lon="11.606011737553589"><ele>35.0</ele><time>2026-04-10T09:08:23Z</time></trkpt><trkpt lat="44.45104196833362" lon="11.606047766335134"><ele>35.0</ele><time>2026-04-10T09:08:24Z</time></trkpt><trkpt lat="44.45082100142714" lon="11.606082378635298"><ele>35.0</ele><time>2026-04-10T09:08:25Z</time></trkpt><trkpt lat="44.45060097704345" lon="11.60612008116397"><ele>36.5</ele><time>2026-04-10T09:08:26Z</time></trkpt><trkpt lat="44.450379500626205" lon="11.606160142776943"><ele>38.0</ele><time>2026-04-10T09:08:27Z</time></trkpt><trkpt lat="44.45015355781119" lon="11.606204969416824"><ele>38.0</ele><time>2026-04-10T09:08:28Z</time></trkpt><trkpt lat="44.449928669056824" lon="11.606249642484345"><ele>38.0</ele><time>2026-04-10T09:08:29Z</time></trkpt><trkpt lat="44.44971002819451" lon="11.606296729539208"><ele>38.0</ele><time>2026-04-10T09:08:30Z</time></trkpt><trkpt lat="44.44949285412395" lon="11.60634501020585"><ele>38.33333333333333</ele><time>2026-04-10T09:08:31Z</time></trkpt><trkpt lat="44.44927678136897" lon="11.60639168301855"><ele>38.666666666666664</ele><time>2026-04-10T09:08:32Z</time></trkpt><trkpt lat="44.44906071654264" lon="11.606436961843194"><ele>39.0</ele><time>2026-04-10T09:08:33Z</time></trkpt><trkpt lat="44.44884416262197" lon="11.606487009951461"><ele>38.666666666666664</ele><time>2026-04-10T09:08:34Z</time></trkpt><trkpt lat="44.44862909686617" lon="11.606537184913265"><ele>38.33333333333333</ele><time>2026-04-10T09:08:35Z</time></trkpt><trkpt lat="44.44841627124649" lon="11.606587330595158"><ele>38.0</ele><time>2026-04-10T09:08:36Z</time></trkpt><trkpt lat="44.44820225429336" lon="11.60663145662655"><ele>38.0</ele><time>2026-04-10T09:08:37Z</time></trkpt><trkpt lat="44.447990073987555" lon="11.606674868220528"><ele>38.0</ele><time>2026-04-10T09:08:38Z</time></trkpt><trkpt lat="44.44777658970201" lon="11.606721416965918"><ele>38.0</ele><time>2026-04-10T09:08:39Z</time></trkpt><trkpt lat="44.447565412463035" lon="11.606760399494439"><ele>38.33333333333333</ele><time>2026-04-10T09:08:40Z</time></trkpt><trkpt lat="44.44735436170986" lon="11.606797267588538"><ele>38.666666666666664</ele><time>2026-04-10T09:08:41Z</time></trkpt><trkpt lat="44.4471466785295" lon="11.606838702363383"><ele>39.0</ele><time>2026-04-10T09:08:42Z</time></trkpt><trkpt lat="44.44693489789803" lon="11.606887796421677"><ele>39.0</ele><time>2026-04-10T09:08:43Z</time></trkpt><trkpt lat="44.446724459432524" lon="11.606936823423466"><ele>39.0</ele><time>2026-04-10T09:08:44Z</time></trkpt><trkpt lat="44.446515186186026" lon="11.606983109986745"><ele>39.0</ele><time>2026-04-10T09:08:45Z</time></trkpt><trkpt lat="44.4463006280192" lon="11.607028508724682"><ele>39.0</ele><time>2026-04-10T09:08:46Z</time></trkpt><trkpt lat="44.446085910744316" lon="11.60706967468125"><ele>39.0</ele><time>2026-04-10T09:08:47Z</time></trkpt><trkpt lat="44.44587174124454" lon="11.60711486049648"><ele>39.0</ele><time>2026-04-10T09:08:48Z</time></trkpt><trkpt lat="44.445658717011646" lon="11.607161775806958"><ele>39.666666666666664</ele><time>2026-04-10T09:08:49Z</time></trkpt><trkpt lat="44.445447165934965" lon="11.60721313777092"><ele>40.33333333333333</ele><time>2026-04-10T09:08:50Z</time></trkpt><trkpt lat="44.44523503995686" lon="11.607263317000685"><ele>41.0</ele><time>2026-04-10T09:08:51Z</time></trkpt><trkpt lat="44.445023213587696" lon="11.607316403381999"><ele>41.0</ele><time>2026-04-10T09:08:52Z</time></trkpt><trkpt lat="44.44481126690757" lon="11.607359011784768"><ele>41.0</ele><time>2026-04-10T09:08:53Z</time></trkpt><trkpt lat="44.44460106529091" lon="11.607402682303412"><ele>41.0</ele><time>2026-04-10T09:08:54Z</time></trkpt><trkpt lat="44.44439295018798" lon="11.607447094944261"><ele>40.666666666666664</ele><time>2026-04-10T09:08:55Z</time></trkpt><trkpt lat="44.44419162347045" lon="11.607491480847228"><ele>40.333333333333336</ele><time>2026-04-10T09:08:56Z</time></trkpt><trkpt lat="44.44399448784094" lon="11.607537550803436"><ele>40.0</ele><time>2026-04-10T09:08:57Z</time></trkpt><trkpt lat="44.44380209611854" lon="11.607581470305218"><ele>40.333333333333336</ele><time>2026-04-10T09:08:58Z</time></trkpt><trkpt lat="44.443613062548025" lon="11.607625462717989"><ele>40.666666666666664</ele><time>2026-04-10T09:08:59Z</time></trkpt><trkpt lat="44.443421407798446" lon="11.60765708316082"><ele>41.0</ele><time>2026-04-10T09:09:00Z</time></trkpt><trkpt lat="44.44322992817608" lon="11.607661613450563"><ele>41.0</ele><time>2026-04-10T09:09:01Z</time></trkpt><trkpt lat="44.44303305903348" lon="11.607652326057519"><ele>41.0</ele><time>2026-04-10T09:09:02Z</time></trkpt><trkpt lat="44.44283588034317" lon="11.607633307938494"><ele>41.0</ele><time>2026-04-10T09:09:03Z</time></trkpt><trkpt lat="44.44264222428417" lon="11.607595557219371"><ele>41.0</ele><time>2026-04-10T09:09:04Z</time></trkpt><trkpt lat="44.44244782037423" lon="11.607538072741058"><ele>41.0</ele><time>2026-04-10T09:09:05Z</time></trkpt><trkpt lat="44.442262163366166" lon="11.607441462206017"><ele>41.0</ele><time>2026-04-10T09:09:06Z</time></trkpt><trkpt lat="44.442077711531724" lon="11.607347512149742"><ele>41.0</ele><time>2026-04-10T09:09:07Z</time></trkpt><trkpt lat="44.44189588244516" lon="11.607238222549158"><ele>41.0</ele><time>2026-04-10T09:09:08Z</time></trkpt><trkpt lat="44.44171440735852" lon="11.607122070966247"><ele>41.0</ele><time>2026-04-10T09:09:09Z</time></trkpt><trkpt lat="44.44153898547509" lon="11.60700893515214"><ele>41.0</ele><time>2026-04-10T09:09:10Z</time></trkpt><trkpt lat="44.44137209230071" lon="11.606898632488775"><ele>41.0</ele><time>2026-04-10T09:09:11Z</time></trkpt><trkpt lat="44.44121251710593" lon="11.606794219264351"><ele>41.0</ele><time>2026-04-10T09:09:12Z</time></trkpt><trkpt lat="44.44105786797444" lon="11.60669530063913"><ele>41.0</ele><time>2026-04-10T09:09:13Z</time></trkpt><trkpt lat="44.440906162594274" lon="11.60660237971953"><ele>41.0</ele><time>2026-04-10T09:09:14Z</time></trkpt><trkpt lat="44.4407531628386" lon="11.606515423986169"><ele>41.0</ele><time>2026-04-10T09:09:15Z</time></trkpt><trkpt lat="44.440590715379415" lon="11.606458264610557"><ele>41.33333333333333</ele><time>2026-04-10T09:09:16Z</time></trkpt><trkpt lat="44.44043043844111" lon="11.606394153673573"><ele>41.666666666666664</ele><time>2026-04-10T09:09:17Z</time></trkpt><trkpt lat="44.44027015316182" lon="11.606330867928735"><ele>42.0</ele><time>2026-04-10T09:09:18Z</time></trkpt><trkpt lat="44.44010271120427" lon="11.606298383981942"><ele>42.0</ele><time>2026-04-10T09:09:19Z</time></trkpt><trkpt lat="44.43993133260275" lon="11.606279963202189"><ele>42.0</ele><time>2026-04-10T09:09:20Z</time></trkpt><trkpt lat="44.439751909323874" lon="11.606276518034937"><ele>42.0</ele><time>2026-04-10T09:09:21Z</time></trkpt><trkpt lat="44.43957059546948" lon="11.606289583775107"><ele>42.0</ele><time>2026-04-10T09:09:22Z</time></trkpt><trkpt lat="44.4393837993646" lon="11.60630626389337"><ele>42.0</ele><time>2026-04-10T09:09:23Z</time></trkpt><trkpt lat="44.43919148657426" lon="11.606325430200432"><ele>42.0</ele><time>2026-04-10T09:09:24Z</time></trkpt><trkpt lat="44.438994582152574" lon="11.60634534756832"><ele>42.666666666666664</ele><time>2026-04-10T09:09:25Z</time></trkpt><trkpt lat="44.4387990781991" lon="11.606365159889126"><ele>43.33333333333333</ele><time>2026-04-10T09:09:26Z</time></trkpt><trkpt lat="44.43860006319173" lon="11.606385329905748"><ele>44.0</ele><time>2026-04-10T09:09:27Z</time></trkpt><trkpt lat="44.43840189464533" lon="11.606404541876728"><ele>44.0</ele><time>2026-04-10T09:09:28Z</time></trkpt><trkpt lat="44.43820163602031" lon="11.606423896031133"><ele>44.0</ele><time>2026-04-10T09:09:29Z</time></trkpt><trkpt lat="44.43800219889959" lon="11.606442933832934"><ele>44.0</ele><time>2026-04-10T09:09:30Z</time></trkpt><trkpt lat="44.43780195901167" lon="11.606461460620814"><ele>44.0</ele><time>2026-04-10T09:09:31Z</time></trkpt><trkpt lat="44.43760252769703" lon="11.606479912603568"><ele>44.0</ele><time>2026-04-10T09:09:32Z</time></trkpt><trkpt lat="44.437404869662686" lon="11.606499951226787"><ele>44.0</ele><time>2026-04-10T09:09:33Z</time></trkpt><trkpt lat="44.43720705781096" lon="11.606520221383992"><ele>44.33333333333333</ele><time>2026-04-10T09:09:34Z</time></trkpt><trkpt lat="44.43701280141558" lon="11.60656013703407"><ele>44.666666666666664</ele><time>2026-04-10T09:09:35Z</time></trkpt><trkpt lat="44.43682053451855" lon="11.606573153282252"><ele>45.0</ele><time>2026-04-10T09:09:36Z</time></trkpt><trkpt lat="44.436630422717066" lon="11.606583744418211"><ele>45.0</ele><time>2026-04-10T09:09:37Z</time></trkpt><trkpt lat="44.43644497744035" lon="11.606583105300093"><ele>45.0</ele><time>2026-04-10T09:09:38Z</time></trkpt><trkpt lat="44.43626345861656" lon="11.606565435478107"><ele>45.0</ele><time>2026-04-10T09:09:39Z</time></trkpt><trkpt lat="44.43608341444076" lon="11.606526655432562"><ele>45.0</ele><time>2026-04-10T09:09:40Z</time></trkpt><trkpt lat="44.435905291223555" lon="11.60647041505697"><ele>45.0</ele><time>2026-04-10T09:09:41Z</time></trkpt><trkpt lat="44.43573018586942" lon="11.60639929869819"><ele>45.0</ele><time>2026-04-10T09:09:42Z</time></trkpt><trkpt lat="44.43555643879926" lon="11.606315128943523"><ele>44.666666666666664</ele><time>2026-04-10T09:09:43Z</time></trkpt><trkpt lat="44.43538620276927" lon="11.606224151542134"><ele>44.33333333333333</ele><time>2026-04-10T09:09:44Z</time></trkpt><trkpt lat="44.43521789094756" lon="11.606124064255665"><ele>44.0</ele><time>2026-04-10T09:09:45Z</time></trkpt><trkpt lat="44.43504729340084" lon="11.606020905957003"><ele>43.666666666666664</ele><time>2026-04-10T09:09:46Z</time></trkpt><trkpt lat="44.434873618700564" lon="11.605922753086618"><ele>43.333333333333336</ele><time>2026-04-10T09:09:47Z</time></trkpt><trkpt lat="44.43470341713972" lon="11.605798732510735"><ele>43.0</ele><time>2026-04-10T09:09:48Z</time></trkpt><trkpt lat="44.434519376476" lon="11.605712478304776"><ele>44.0</ele><time>2026-04-10T09:09:49Z</time></trkpt><trkpt lat="44.43433900884427" lon="11.605604054971637"><ele>45.0</ele><time>2026-04-10T09:09:50Z</time></trkpt><trkpt lat="44.434161016998374" lon="11.605478783356018"><ele>46.0</ele><time>2026-04-10T09:09:51Z</time></trkpt><trkpt lat="44.433972734366314" lon="11.605386021975018"><ele>46.66666666666667</ele><time>2026-04-10T09:09:52Z</time></trkpt><trkpt lat="44.433780031354196" lon="11.605308909634132"><ele>47.333333333333336</ele><time>2026-04-10T09:09:53Z</time></trkpt><trkpt lat="44.43358287316188" lon="11.60527478202007"><ele>48.0</ele><time>2026-04-10T09:09:54Z</time></trkpt><trkpt lat="44.43338686010314" lon="11.605236397738528"><ele>48.0</ele><time>2026-04-10T09:09:55Z</time></trkpt><trkpt lat="44.43319047693325" lon="11.605206170267845"><ele>48.0</ele><time>2026-04-10T09:09:56Z</time></trkpt><trkpt lat="44.432995940634555" lon="11.605172027380425"><ele>48.0</ele><time>2026-04-10T09:09:57Z</time></trkpt><trkpt lat="44.432800483256564" lon="11.605137093151097"><ele>47.0</ele><time>2026-04-10T09:09:58Z</time></trkpt><trkpt lat="44.43260322098214" lon="11.605101646652903"><ele>46.0</ele><time>2026-04-10T09:09:59Z</time></trkpt><trkpt lat="44.43240968756609" lon="11.6050702019108"><ele>45.0</ele><time>2026-04-10T09:10:00Z</time></trkpt><trkpt lat="44.432215946652185" lon="11.605040133018518"><ele>44.666666666666664</ele><time>2026-04-10T09:10:01Z</time></trkpt><trkpt lat="44.43202533764111" lon="11.605012844275779"><ele>44.33333333333333</ele><time>2026-04-10T09:10:02Z</time></trkpt><trkpt lat="44.43183536040645" lon="11.604983323094867"><ele>44.0</ele><time>2026-04-10T09:10:03Z</time></trkpt><trkpt lat="44.431651096948606" lon="11.604917908123848"><ele>44.0</ele><time>2026-04-10T09:10:04Z</time></trkpt><trkpt lat="44.431461115730706" lon="11.604882898031947"><ele>44.0</ele><time>2026-04-10T09:10:05Z</time></trkpt><trkpt lat="44.43127330591654" lon="11.604848544593931"><ele>44.0</ele><time>2026-04-10T09:10:06Z</time></trkpt><trkpt lat="44.431079117470205" lon="11.6048137715137"><ele>44.666666666666664</ele><time>2026-04-10T09:10:07Z</time></trkpt><trkpt lat="44.43088168692429" lon="11.60477883242691"><ele>45.333333333333336</ele><time>2026-04-10T09:10:08Z</time></trkpt><trkpt lat="44.43068280638374" lon="11.604744223381267"><ele>46.0</ele><time>2026-04-10T09:10:09Z</time></trkpt><trkpt lat="44.43047826127224" lon="11.604731247876678"><ele>47.0</ele><time>2026-04-10T09:10:10Z</time></trkpt><trkpt lat="44.43027055088948" lon="11.604695143558693"><ele>48.0</ele><time>2026-04-10T09:10:11Z</time></trkpt><trkpt lat="44.43006449260445" lon="11.604661510327418"><ele>49.0</ele><time>2026-04-10T09:10:12Z</time></trkpt><trkpt lat="44.42985461472155" lon="11.604626221573008"><ele>49.0</ele><time>2026-04-10T09:10:13Z</time></trkpt><trkpt lat="44.42965019353917" lon="11.60458892146023"><ele>49.0</ele><time>2026-04-10T09:10:14Z</time></trkpt><trkpt lat="44.429445585058986" lon="11.604552984849498"><ele>49.0</ele><time>2026-04-10T09:10:15Z</time></trkpt><trkpt lat="44.429244796574025" lon="11.604520165430648"><ele>49.0</ele><time>2026-04-10T09:10:16Z</time></trkpt><trkpt lat="44.42904710657691" lon="11.604486660607199"><ele>49.0</ele><time>2026-04-10T09:10:17Z</time></trkpt><trkpt lat="44.428852102891064" lon="11.604451950947546"><ele>49.0</ele><time>2026-04-10T09:10:18Z</time></trkpt><trkpt lat="44.428656003374364" lon="11.604413915060972"><ele>49.0</ele><time>2026-04-10T09:10:19Z</time></trkpt><trkpt lat="44.42846418424357" lon="11.604372089805297"><ele>49.0</ele><time>2026-04-10T09:10:20Z</time></trkpt><trkpt lat="44.42827917259367" lon="11.604329086149605"><ele>49.0</ele><time>2026-04-10T09:10:21Z</time></trkpt><trkpt lat="44.428099418688355" lon="11.60428807553778"><ele>50.33333333333333</ele><time>2026-04-10T09:10:22Z</time></trkpt><trkpt lat="44.427925615751356" lon="11.60424455661411"><ele>51.66666666666667</ele><time>2026-04-10T09:10:23Z</time></trkpt><trkpt lat="44.42775525841409" lon="11.604196120254711"><ele>53.0</ele><time>2026-04-10T09:10:24Z</time></trkpt><trkpt lat="44.42758812905876" lon="11.604138184750521"><ele>53.0</ele><time>2026-04-10T09:10:25Z</time></trkpt><trkpt lat="44.427425796153486" lon="11.604062469582994"><ele>53.0</ele><time>2026-04-10T09:10:26Z</time></trkpt><trkpt lat="44.42726803101631" lon="11.60396691927572"><ele>53.0</ele><time>2026-04-10T09:10:27Z</time></trkpt><trkpt lat="44.42711681459963" lon="11.6038727069427"><ele>53.0</ele><time>2026-04-10T09:10:28Z</time></trkpt><trkpt lat="44.42696765291442" lon="11.603788343879515"><ele>53.0</ele><time>2026-04-10T09:10:29Z</time></trkpt><trkpt lat="44.426826556198314" lon="11.603706756744671"><ele>53.0</ele><time>2026-04-10T09:10:30Z</time></trkpt><trkpt lat="44.4266776839384" lon="11.603622449591695"><ele>53.0</ele><time>2026-04-10T09:10:31Z</time></trkpt><trkpt lat="44.42653014043162" lon="11.603542554464015"><ele>53.0</ele><time>2026-04-10T09:10:32Z</time></trkpt><trkpt lat="44.42637828473707" lon="11.60346106049989"><ele>53.0</ele><time>2026-04-10T09:10:33Z</time></trkpt><trkpt lat="44.42622530712302" lon="11.603376540612333"><ele>52.333333333333336</ele><time>2026-04-10T09:10:34Z</time></trkpt><trkpt lat="44.426072680588796" lon="11.603290820587782"><ele>51.66666666666667</ele><time>2026-04-10T09:10:35Z</time></trkpt><trkpt lat="44.42592145825884" lon="11.603201594316547"><ele>51.0</ele><time>2026-04-10T09:10:36Z</time></trkpt><trkpt lat="44.425763341933596" lon="11.603108217190385"><ele>51.0</ele><time>2026-04-10T09:10:37Z</time></trkpt><trkpt lat="44.425604198386516" lon="11.603018972303653"><ele>51.0</ele><time>2026-04-10T09:10:38Z</time></trkpt><trkpt lat="44.4254411399421" lon="11.602929821296657"><ele>51.0</ele><time>2026-04-10T09:10:39Z</time></trkpt><trkpt lat="44.42527895010465" lon="11.602843797438643"><ele>51.66666666666667</ele><time>2026-04-10T09:10:40Z</time></trkpt><trkpt lat="44.42511656478982" lon="11.602748638784583"><ele>52.333333333333336</ele><time>2026-04-10T09:10:41Z</time></trkpt><trkpt lat="44.42494940034407" lon="11.602652259639015"><ele>53.0</ele><time>2026-04-10T09:10:42Z</time></trkpt><trkpt lat="44.42478089176811" lon="11.602552001477264"><ele>53.333333333333336</ele><time>2026-04-10T09:10:43Z</time></trkpt><trkpt lat="44.42461114911894" lon="11.602453310988631"><ele>53.66666666666667</ele><time>2026-04-10T09:10:44Z</time></trkpt><trkpt lat="44.42443912166173" lon="11.60235541683549"><ele>54.0</ele><time>2026-04-10T09:10:45Z</time></trkpt><trkpt lat="44.424265035811814" lon="11.602255622398822"><ele>54.0</ele><time>2026-04-10T09:10:46Z</time></trkpt><trkpt lat="44.42409106970142" lon="11.60215866810694"><ele>54.0</ele><time>2026-04-10T09:10:47Z</time></trkpt><trkpt lat="44.42391658711421" lon="11.602062390971799"><ele>54.0</ele><time>2026-04-10T09:10:48Z</time></trkpt><trkpt lat="44.42373670189241" lon="11.601964435986368"><ele>53.0</ele><time>2026-04-10T09:10:49Z</time></trkpt><trkpt lat="44.42355587718007" lon="11.601861430241604"><ele>52.0</ele><time>2026-04-10T09:10:50Z</time></trkpt><trkpt lat="44.42337327001256" lon="11.60176375111556"><ele>51.0</ele><time>2026-04-10T09:10:51Z</time></trkpt><trkpt lat="44.423187741194255" lon="11.601671211190425"><ele>51.0</ele><time>2026-04-10T09:10:52Z</time></trkpt><trkpt lat="44.422999049266444" lon="11.601582506084625"><ele>51.0</ele><time>2026-04-10T09:10:53Z</time></trkpt><trkpt lat="44.422811407235784" lon="11.601498603888993"><ele>51.0</ele><time>2026-04-10T09:10:54Z</time></trkpt><trkpt lat="44.42263053585549" lon="11.601386170479856"><ele>51.33333333333333</ele><time>2026-04-10T09:10:55Z</time></trkpt><trkpt lat="44.42244181705475" lon="11.601295682405333"><ele>51.666666666666664</ele><time>2026-04-10T09:10:56Z</time></trkpt><trkpt lat="44.42225065112122" lon="11.601211977099366"><ele>52.0</ele><time>2026-04-10T09:10:57Z</time></trkpt><trkpt lat="44.42206048820754" lon="11.601129900079092"><ele>52.0</ele><time>2026-04-10T09:10:58Z</time></trkpt><trkpt lat="44.42186789894329" lon="11.60104964354853"><ele>52.0</ele><time>2026-04-10T09:10:59Z</time></trkpt><trkpt lat="44.42167477881542" lon="11.600969165798679"><ele>52.0</ele><time>2026-04-10T09:11:00Z</time></trkpt><trkpt lat="44.42148572976365" lon="11.60088876784101"><ele>53.0</ele><time>2026-04-10T09:11:01Z</time></trkpt><trkpt lat="44.42130208861435" lon="11.600808649086265"><ele>54.0</ele><time>2026-04-10T09:11:02Z</time></trkpt><trkpt lat="44.42111953995605" lon="11.600722304377085"><ele>55.0</ele><time>2026-04-10T09:11:03Z</time></trkpt><trkpt lat="44.420939511232014" lon="11.600629934742612"><ele>55.0</ele><time>2026-04-10T09:11:04Z</time></trkpt><trkpt lat="44.42076291121862" lon="11.600523839029172"><ele>55.0</ele><time>2026-04-10T09:11:05Z</time></trkpt><trkpt lat="44.420583230996314" lon="11.600430784962978"><ele>55.0</ele><time>2026-04-10T09:11:06Z</time></trkpt><trkpt lat="44.42041410954957" lon="11.600303550763277"><ele>54.33333333333333</ele><time>2026-04-10T09:11:07Z</time></trkpt><trkpt lat="44.42024735331142" lon="11.600172670067353"><ele>53.66666666666667</ele><time>2026-04-10T09:11:08Z</time></trkpt><trkpt lat="44.420080928312295" lon="11.600040510511578"><ele>53.0</ele><time>2026-04-10T09:11:09Z</time></trkpt><trkpt lat="44.419909041938155" lon="11.599907599974438"><ele>53.0</ele><time>2026-04-10T09:11:10Z</time></trkpt><trkpt lat="44.419732362876424" lon="11.599774646094653"><ele>53.0</ele><time>2026-04-10T09:11:11Z</time></trkpt><trkpt lat="44.419552824446704" lon="11.599646110735463"><ele>53.0</ele><time>2026-04-10T09:11:12Z</time></trkpt><trkpt lat="44.41937791662441" lon="11.599502286347487"><ele>53.0</ele><time>2026-04-10T09:11:13Z</time></trkpt><trkpt lat="44.41918445751351" lon="11.599410948563504"><ele>53.0</ele><time>2026-04-10T09:11:14Z</time></trkpt><trkpt lat="44.41898808599251" lon="11.599312507561462"><ele>53.0</ele><time>2026-04-10T09:11:15Z</time></trkpt><trkpt lat="44.418796760078294" lon="11.599225221730306"><ele>53.66666666666667</ele><time>2026-04-10T09:11:16Z</time></trkpt><trkpt lat="44.418603221865" lon="11.599147635151391"><ele>54.33333333333333</ele><time>2026-04-10T09:11:17Z</time></trkpt><trkpt lat="44.41840715510131" lon="11.59907860464468"><ele>55.0</ele><time>2026-04-10T09:11:18Z</time></trkpt><trkpt lat="44.41821118875374" lon="11.59901562505633"><ele>55.0</ele><time>2026-04-10T09:11:19Z</time></trkpt><trkpt lat="44.4180151971081" lon="11.598957918390926"><ele>55.0</ele><time>2026-04-10T09:11:20Z</time></trkpt><trkpt lat="44.41782018719333" lon="11.598899901551023"><ele>55.0</ele><time>2026-04-10T09:11:21Z</time></trkpt><trkpt lat="44.417627847996776" lon="11.598817762143948"><ele>55.666666666666664</ele><time>2026-04-10T09:11:22Z</time></trkpt><trkpt lat="44.417434200330824" lon="11.598751327633162"><ele>56.33333333333333</ele><time>2026-04-10T09:11:23Z</time></trkpt><trkpt lat="44.41724250977994" lon="11.598672898498203"><ele>57.0</ele><time>2026-04-10T09:11:24Z</time></trkpt><trkpt lat="44.417053651691845" lon="11.598580628041125"><ele>57.0</ele><time>2026-04-10T09:11:25Z</time></trkpt><trkpt lat="44.41687223674329" lon="11.598461325011144"><ele>57.0</ele><time>2026-04-10T09:11:26Z</time></trkpt><trkpt lat="44.416696771356094" lon="11.59832193513286"><ele>57.0</ele><time>2026-04-10T09:11:27Z</time></trkpt><trkpt lat="44.41653032497222" lon="11.598161174435866"><ele>57.0</ele><time>2026-04-10T09:11:28Z</time></trkpt><trkpt lat="44.41637247083766" lon="11.597979537278393"><ele>57.0</ele><time>2026-04-10T09:11:29Z</time></trkpt><trkpt lat="44.41622406651229" lon="11.597778858508535"><ele>57.0</ele><time>2026-04-10T09:11:30Z</time></trkpt><trkpt lat="44.41609567164228" lon="11.59755022211648"><ele>56.66666666666667</ele><time>2026-04-10T09:11:31Z</time></trkpt><trkpt lat="44.41597716204748" lon="11.597312573842121"><ele>56.333333333333336</ele><time>2026-04-10T09:11:32Z</time></trkpt><trkpt lat="44.41586204294752" lon="11.597068657434091"><ele>56.0</ele><time>2026-04-10T09:11:33Z</time></trkpt><trkpt lat="44.415748623694014" lon="11.596825785643015"><ele>56.0</ele><time>2026-04-10T09:11:34Z</time></trkpt><trkpt lat="44.41563564812117" lon="11.596583775414338"><ele>56.0</ele><time>2026-04-10T09:11:35Z</time></trkpt><trkpt lat="44.4155247791744" lon="11.596347207550467"><ele>56.0</ele><time>2026-04-10T09:11:36Z</time></trkpt><trkpt lat="44.41541892021803" lon="11.596126155112133"><ele>55.66666666666667</ele><time>2026-04-10T09:11:37Z</time></trkpt><trkpt lat="44.41531102952846" lon="11.595904031283807"><ele>55.33333333333333</ele><time>2026-04-10T09:11:38Z</time></trkpt><trkpt lat="44.4152015288286" lon="11.5956916426757"><ele>55.0</ele><time>2026-04-10T09:11:39Z</time></trkpt><trkpt lat="44.41508858498887" lon="11.595489001778137"><ele>55.0</ele><time>2026-04-10T09:11:40Z</time></trkpt><trkpt lat="44.41495943322722" lon="11.595313158353804"><ele>55.0</ele><time>2026-04-10T09:11:41Z</time></trkpt><trkpt lat="44.41485341048396" lon="11.595115761948659"><ele>55.0</ele><time>2026-04-10T09:11:42Z</time></trkpt><trkpt lat="44.41473391022575" lon="11.594936616946912"><ele>56.0</ele><time>2026-04-10T09:11:43Z</time></trkpt><trkpt lat="44.41461265490086" lon="11.594758061380958"><ele>57.0</ele><time>2026-04-10T09:11:44Z</time></trkpt><trkpt lat="44.41448893444147" lon="11.594584055374758"><ele>58.0</ele><time>2026-04-10T09:11:45Z</time></trkpt><trkpt lat="44.41436238084782" lon="11.594406062150085"><ele>58.0</ele><time>2026-04-10T09:11:46Z</time></trkpt><trkpt lat="44.4142326094639" lon="11.594227038294322"><ele>58.0</ele><time>2026-04-10T09:11:47Z</time></trkpt><trkpt lat="44.41410072503563" lon="11.594039245143259"><ele>58.0</ele><time>2026-04-10T09:11:48Z</time></trkpt><trkpt lat="44.413966288493185" lon="11.593847956298557"><ele>57.666666666666664</ele><time>2026-04-10T09:11:49Z</time></trkpt><trkpt lat="44.41382635816473" lon="11.593649016813783"><ele>57.33333333333333</ele><time>2026-04-10T09:11:50Z</time></trkpt><trkpt lat="44.41367579444249" lon="11.593434959233548"><ele>57.0</ele><time>2026-04-10T09:11:51Z</time></trkpt><trkpt lat="44.41352014917499" lon="11.593214811629249"><ele>56.66666666666667</ele><time>2026-04-10T09:11:52Z</time></trkpt><trkpt lat="44.413364180095705" lon="11.592995460105854"><ele>56.333333333333336</ele><time>2026-04-10T09:11:53Z</time></trkpt><trkpt lat="44.413212694381755" lon="11.592782413910328"><ele>56.0</ele><time>2026-04-10T09:11:54Z</time></trkpt><trkpt lat="44.413062463374345" lon="11.592571432869978"><ele>56.0</ele><time>2026-04-10T09:11:55Z</time></trkpt><trkpt lat="44.41291237357366" lon="11.592360733096085"><ele>56.0</ele><time>2026-04-10T09:11:56Z</time></trkpt><trkpt lat="44.41276335569904" lon="11.592150461520356"><ele>56.0</ele><time>2026-04-10T09:11:57Z</time></trkpt><trkpt lat="44.41259595167245" lon="11.591977919325796"><ele>56.66666666666667</ele><time>2026-04-10T09:11:58Z</time></trkpt><trkpt lat="44.412458408691236" lon="11.59178208187688"><ele>57.33333333333333</ele><time>2026-04-10T09:11:59Z</time></trkpt><trkpt lat="44.41232983243484" lon="11.591590860867823"><ele>58.0</ele><time>2026-04-10T09:12:00Z</time></trkpt><trkpt lat="44.41220331886633" lon="11.591410533532692"><ele>58.0</ele><time>2026-04-10T09:12:01Z</time></trkpt><trkpt lat="44.412077565564154" lon="11.59123307442479"><ele>58.0</ele><time>2026-04-10T09:12:02Z</time></trkpt><trkpt lat="44.41196623772879" lon="11.59102470836799"><ele>58.0</ele><time>2026-04-10T09:12:03Z</time></trkpt><trkpt lat="44.41183331458148" lon="11.590848876076578"><ele>58.33333333333333</ele><time>2026-04-10T09:12:04Z</time></trkpt><trkpt lat="44.4116902689917" lon="11.590681840054817"><ele>58.66666666666667</ele><time>2026-04-10T09:12:05Z</time></trkpt><trkpt lat="44.41153626637936" lon="11.59053589403396"><ele>59.0</ele><time>2026-04-10T09:12:06Z</time></trkpt><trkpt lat="44.41137371551986" lon="11.590406064395884"><ele>58.66666666666667</ele><time>2026-04-10T09:12:07Z</time></trkpt><trkpt lat="44.411218016844764" lon="11.590288585389478"><ele>58.33333333333333</ele><time>2026-04-10T09:12:08Z</time></trkpt><trkpt lat="44.41107230039189" lon="11.59017767178995"><ele>58.0</ele><time>2026-04-10T09:12:09Z</time></trkpt><trkpt lat="44.41092848894896" lon="11.590067943506602"><ele>58.0</ele><time>2026-04-10T09:12:10Z</time></trkpt><trkpt lat="44.41078046708567" lon="11.589954201199985"><ele>58.0</ele><time>2026-04-10T09:12:11Z</time></trkpt><trkpt lat="44.410635017528016" lon="11.589842298195741"><ele>58.0</ele><time>2026-04-10T09:12:12Z</time></trkpt><trkpt lat="44.41049277066587" lon="11.589735450512407"><ele>58.0</ele><time>2026-04-10T09:12:13Z</time></trkpt><trkpt lat="44.410356108740444" lon="11.589632388706278"><ele>58.0</ele><time>2026-04-10T09:12:14Z</time></trkpt><trkpt lat="44.41022378090346" lon="11.589533731068975"><ele>58.0</ele><time>2026-04-10T09:12:15Z</time></trkpt><trkpt lat="44.41009492486391" lon="11.589435760251222"><ele>58.0</ele><time>2026-04-10T09:12:16Z</time></trkpt><trkpt lat="44.409960299903204" lon="11.589335744551578"><ele>58.0</ele><time>2026-04-10T09:12:17Z</time></trkpt><trkpt lat="44.409810079752816" lon="11.589232025089608"><ele>58.0</ele><time>2026-04-10T09:12:18Z</time></trkpt><trkpt lat="44.40964626349149" lon="11.589127283237593"><ele>57.666666666666664</ele><time>2026-04-10T09:12:19Z</time></trkpt><trkpt lat="44.409463168562404" lon="11.58901637976363"><ele>57.33333333333333</ele><time>2026-04-10T09:12:20Z</time></trkpt><trkpt lat="44.40927697449661" lon="11.588921027075331"><ele>57.0</ele><time>2026-04-10T09:12:21Z</time></trkpt><trkpt lat="44.40910272708131" lon="11.588842600720882"><ele>57.0</ele><time>2026-04-10T09:12:22Z</time></trkpt><trkpt lat="44.40895686482546" lon="11.58878381176408"><ele>57.0</ele><time>2026-04-10T09:12:23Z</time></trkpt><trkpt lat="44.408828875678694" lon="11.588734776698852"><ele>57.0</ele><time>2026-04-10T09:12:24Z</time></trkpt><trkpt lat="44.40871294452245" lon="11.588717161550676"><ele>57.0</ele><time>2026-04-10T09:12:25Z</time></trkpt><trkpt lat="44.40861677372022" lon="11.588681237829707"><ele>57.6</ele><time>2026-04-10T09:12:26Z</time></trkpt><trkpt lat="44.4085316538524" lon="11.588646222133715"><ele>58.2</ele><time>2026-04-10T09:12:27Z</time></trkpt><trkpt lat="44.40844023290091" lon="11.588617871281892"><ele>58.8</ele><time>2026-04-10T09:12:28Z</time></trkpt><trkpt lat="44.40834464629867" lon="11.588580641711436"><ele>59.4</ele><time>2026-04-10T09:12:29Z</time></trkpt><trkpt lat="44.40825332979343" lon="11.588549242542811"><ele>60.0</ele><time>2026-04-10T09:12:30Z</time></trkpt><trkpt lat="44.40816082917544" lon="11.588519721542319"><ele>60.0</ele><time>2026-04-10T09:12:31Z</time></trkpt><trkpt lat="44.4080686776815" lon="11.588489383165927"><ele>60.0</ele><time>2026-04-10T09:12:32Z</time></trkpt><trkpt lat="44.407978154821414" lon="11.588459210998302"><ele>60.0</ele><time>2026-04-10T09:12:33Z</time></trkpt><trkpt lat="44.4078890986898" lon="11.588432498891681"><ele>60.0</ele><time>2026-04-10T09:12:34Z</time></trkpt><trkpt lat="44.40780349753827" lon="11.58840953513879"><ele>60.0</ele><time>2026-04-10T09:12:35Z</time></trkpt><trkpt lat="44.40771626524652" lon="11.588386305808399"><ele>59.8</ele><time>2026-04-10T09:12:36Z</time></trkpt><trkpt lat="44.407627671761674" lon="11.588360696179434"><ele>59.6</ele><time>2026-04-10T09:12:37Z</time></trkpt><trkpt lat="44.407540369008075" lon="11.588337923572226"><ele>59.400000000000006</ele><time>2026-04-10T09:12:38Z</time></trkpt><trkpt lat="44.407449981267334" lon="11.588310691891222"><ele>59.2</ele><time>2026-04-10T09:12:39Z</time></trkpt><trkpt lat="44.407379204613164" lon="11.588164627534253"><ele>59.0</ele><time>2026-04-10T09:12:40Z</time></trkpt><trkpt lat="44.40725194338121" lon="11.588255154235283"><ele>59.0</ele><time>2026-04-10T09:12:41Z</time></trkpt><trkpt lat="44.40714426877505" lon="11.588225589789754"><ele>59.0</ele><time>2026-04-10T09:12:42Z</time></trkpt><trkpt lat="44.407032148178864" lon="11.588195674803"><ele>59.0</ele><time>2026-04-10T09:12:43Z</time></trkpt><trkpt lat="44.406913945741806" lon="11.588167417321944"><ele>59.0</ele><time>2026-04-10T09:12:44Z</time></trkpt><trkpt lat="44.40678632824432" lon="11.58814061351739"><ele>59.0</ele><time>2026-04-10T09:12:45Z</time></trkpt><trkpt lat="44.40665513491865" lon="11.588113384977268"><ele>59.0</ele><time>2026-04-10T09:12:46Z</time></trkpt><trkpt lat="44.40652393891228" lon="11.5880812829509"><ele>59.0</ele><time>2026-04-10T09:12:47Z</time></trkpt><trkpt lat="44.40639172511356" lon="11.588048050465785"><ele>59.0</ele><time>2026-04-10T09:12:48Z</time></trkpt><trkpt lat="44.406262011667074" lon="11.588012874647065"><ele>59.25</ele><time>2026-04-10T09:12:49Z</time></trkpt><trkpt lat="44.406128659079364" lon="11.587977504468281"><ele>59.5</ele><time>2026-04-10T09:12:50Z</time></trkpt><trkpt lat="44.40599723310217" lon="11.58794014285773"><ele>59.75</ele><time>2026-04-10T09:12:51Z</time></trkpt><trkpt lat="44.40586777184609" lon="11.587902571202017"><ele>60.0</ele><time>2026-04-10T09:12:52Z</time></trkpt><trkpt lat="44.40573681701734" lon="11.58786304391001"><ele>60.5</ele><time>2026-04-10T09:12:53Z</time></trkpt><trkpt lat="44.40560688277868" lon="11.587821398852048"><ele>61.0</ele><time>2026-04-10T09:12:54Z</time></trkpt><trkpt lat="44.405475463899904" lon="11.587776678830494"><ele>61.5</ele><time>2026-04-10T09:12:55Z</time></trkpt><trkpt lat="44.405345311171885" lon="11.587728729553822"><ele>62.0</ele><time>2026-04-10T09:12:56Z</time></trkpt><trkpt lat="44.40521516469833" lon="11.587679045814077"><ele>62.0</ele><time>2026-04-10T09:12:57Z</time></trkpt><trkpt lat="44.40508412244215" lon="11.587630042005971"><ele>62.0</ele><time>2026-04-10T09:12:58Z</time></trkpt><trkpt lat="44.40495267857363" lon="11.587582342059594"><ele>62.0</ele><time>2026-04-10T09:12:59Z</time></trkpt><trkpt lat="44.404821290777036" lon="11.587533299554526"><ele>62.0</ele><time>2026-04-10T09:13:00Z</time></trkpt><trkpt lat="44.404692403607356" lon="11.587486393742166"><ele>62.25</ele><time>2026-04-10T09:13:01Z</time></trkpt><trkpt lat="44.404564002575995" lon="11.587438360426294"><ele>62.5</ele><time>2026-04-10T09:13:02Z</time></trkpt><trkpt lat="44.40443915365333" lon="11.587392595958617"><ele>62.75</ele><time>2026-04-10T09:13:03Z</time></trkpt><trkpt lat="44.404320265929336" lon="11.587348531138975"><ele>63.0</ele><time>2026-04-10T09:13:04Z</time></trkpt><trkpt lat="44.40420804700761" lon="11.587308308502836"><ele>63.0</ele><time>2026-04-10T09:13:05Z</time></trkpt><trkpt lat="44.40410194015118" lon="11.587270170069809"><ele>63.0</ele><time>2026-04-10T09:13:06Z</time></trkpt><trkpt lat="44.404005905779904" lon="11.587235682028174"><ele>63.0</ele><time>2026-04-10T09:13:07Z</time></trkpt><trkpt lat="44.40392006470628" lon="11.5872022197791"><ele>63.0</ele><time>2026-04-10T09:13:08Z</time></trkpt><trkpt lat="44.403824829746" lon="11.58718499568587"><ele>63.0</ele><time>2026-04-10T09:13:09Z</time></trkpt><trkpt lat="44.40371588767078" lon="11.587169294162239"><ele>63.599999999999994</ele><time>2026-04-10T09:13:10Z</time></trkpt><trkpt lat="44.40360935363268" lon="11.587136244545595"><ele>64.19999999999999</ele><time>2026-04-10T09:13:11Z</time></trkpt><trkpt lat="44.40351103961498" lon="11.587088673244358"><ele>64.8</ele><time>2026-04-10T09:13:12Z</time></trkpt><trkpt lat="44.40342117860869" lon="11.587035814024459"><ele>65.39999999999999</ele><time>2026-04-10T09:13:13Z</time></trkpt><trkpt lat="44.40334500394948" lon="11.586978505135953"><ele>66.0</ele><time>2026-04-10T09:13:14Z</time></trkpt><trkpt lat="44.40328311575722" lon="11.586918310533244"><ele>66.16666666666667</ele><time>2026-04-10T09:13:15Z</time></trkpt><trkpt lat="44.403226666782395" lon="11.586851263759689"><ele>66.33333333333333</ele><time>2026-04-10T09:13:16Z</time></trkpt><trkpt lat="44.403171565025794" lon="11.586779706440604"><ele>66.5</ele><time>2026-04-10T09:13:17Z</time></trkpt><trkpt lat="44.403110117857196" lon="11.586714164108258"><ele>66.66666666666666</ele><time>2026-04-10T09:13:18Z</time></trkpt><trkpt lat="44.403036046267324" lon="11.586661348891909"><ele>66.83333333333333</ele><time>2026-04-10T09:13:19Z</time></trkpt><trkpt lat="44.40295738922535" lon="11.586642767942708"><ele>67.0</ele><time>2026-04-10T09:13:20Z</time></trkpt><trkpt lat="44.40287677587979" lon="11.58665645634026"><ele>67.6</ele><time>2026-04-10T09:13:21Z</time></trkpt><trkpt lat="44.40279293869701" lon="11.586700608858349"><ele>68.2</ele><time>2026-04-10T09:13:22Z</time></trkpt><trkpt lat="44.40270713336732" lon="11.586765273454342"><ele>68.8</ele><time>2026-04-10T09:13:23Z</time></trkpt><trkpt lat="44.40261292164938" lon="11.586835078363652"><ele>69.4</ele><time>2026-04-10T09:13:24Z</time></trkpt><trkpt lat="44.402508162227676" lon="11.586874413656364"><ele>70.0</ele><time>2026-04-10T09:13:25Z</time></trkpt><trkpt lat="44.402398970745224" lon="11.58690823436196"><ele>70.0</ele><time>2026-04-10T09:13:26Z</time></trkpt><trkpt lat="44.402288374227105" lon="11.58695605460963"><ele>70.0</ele><time>2026-04-10T09:13:27Z</time></trkpt><trkpt lat="44.402176295914856" lon="11.5870174690509"><ele>70.0</ele><time>2026-04-10T09:13:28Z</time></trkpt><trkpt lat="44.402062280476606" lon="11.587075945849445"><ele>70.0</ele><time>2026-04-10T09:13:29Z</time></trkpt><trkpt lat="44.40194426996096" lon="11.587133617973475"><ele>70.75</ele><time>2026-04-10T09:13:30Z</time></trkpt><trkpt lat="44.401828185606554" lon="11.587192645623926"><ele>71.5</ele><time>2026-04-10T09:13:31Z</time></trkpt><trkpt lat="44.401717753368466" lon="11.587247432565189"><ele>72.25</ele><time>2026-04-10T09:13:32Z</time></trkpt><trkpt lat="44.4016129324018" lon="11.58729997083953"><ele>73.0</ele><time>2026-04-10T09:13:33Z</time></trkpt><trkpt lat="44.401512545952926" lon="11.587353882717139"><ele>73.0</ele><time>2026-04-10T09:13:34Z</time></trkpt><trkpt lat="44.401414186799286" lon="11.587400159218014"><ele>73.0</ele><time>2026-04-10T09:13:35Z</time></trkpt><trkpt lat="44.401319200347295" lon="11.587450931951782"><ele>73.0</ele><time>2026-04-10T09:13:36Z</time></trkpt><trkpt lat="44.401229149741994" lon="11.587500013349626"><ele>73.0</ele><time>2026-04-10T09:13:37Z</time></trkpt><trkpt lat="44.40114084763666" lon="11.587544542114266"><ele>73.0</ele><time>2026-04-10T09:13:38Z</time></trkpt><trkpt lat="44.401063325912425" lon="11.587578944546859"><ele>73.2</ele><time>2026-04-10T09:13:39Z</time></trkpt><trkpt lat="44.40100243661888" lon="11.587609983463745"><ele>73.4</ele><time>2026-04-10T09:13:40Z</time></trkpt><trkpt lat="44.40088429278155" lon="11.587668453522275"><ele>73.60000000000001</ele><time>2026-04-10T09:13:42Z</time></trkpt><trkpt lat="44.40080332720167" lon="11.587705440621008"><ele>73.8</ele><time>2026-04-10T09:13:43Z</time></trkpt><trkpt lat="44.40071053552625" lon="11.587755879221554"><ele>74.0</ele><time>2026-04-10T09:13:44Z</time></trkpt><trkpt lat="44.400602067551695" lon="11.587820272184285"><ele>74.4</ele><time>2026-04-10T09:13:45Z</time></trkpt><trkpt lat="44.40049753872182" lon="11.587883987646533"><ele>74.80000000000001</ele><time>2026-04-10T09:13:46Z</time></trkpt><trkpt lat="44.40040381018303" lon="11.587944655019218"><ele>75.19999999999999</ele><time>2026-04-10T09:13:47Z</time></trkpt><trkpt lat="44.40031908731638" lon="11.588017351780042"><ele>75.6</ele><time>2026-04-10T09:13:48Z</time></trkpt><trkpt lat="44.400238620793736" lon="11.588094359981316"><ele>76.0</ele><time>2026-04-10T09:13:49Z</time></trkpt><trkpt lat="44.40015741705003" lon="11.588180849919233"><ele>76.0</ele><time>2026-04-10T09:13:50Z</time></trkpt><trkpt lat="44.400078958761846" lon="11.588277082727709"><ele>76.0</ele><time>2026-04-10T09:13:51Z</time></trkpt><trkpt lat="44.400003442874834" lon="11.588378373375457"><ele>76.0</ele><time>2026-04-10T09:13:52Z</time></trkpt><trkpt lat="44.39993106748368" lon="11.588486360945877"><ele>76.0</ele><time>2026-04-10T09:13:53Z</time></trkpt><trkpt lat="44.39986539339973" lon="11.588598572536098"><ele>76.0</ele><time>2026-04-10T09:13:54Z</time></trkpt><trkpt lat="44.3998130943043" lon="11.58869712184425"><ele>76.16666666666666</ele><time>2026-04-10T09:13:55Z</time></trkpt><trkpt lat="44.39977287392707" lon="11.588783052263055"><ele>76.33333333333333</ele><time>2026-04-10T09:13:56Z</time></trkpt><trkpt lat="44.39973097607878" lon="11.588862929843753"><ele>76.5</ele><time>2026-04-10T09:13:57Z</time></trkpt><trkpt lat="44.39969172519543" lon="11.588943290106457"><ele>76.66666666666667</ele><time>2026-04-10T09:13:58Z</time></trkpt><trkpt lat="44.39961096773115" lon="11.589070692955028"><ele>76.83333333333334</ele><time>2026-04-10T09:14:00Z</time></trkpt><trkpt lat="44.399505502529344" lon="11.589114822034453"><ele>77.0</ele><time>2026-04-10T09:14:02Z</time></trkpt><trkpt lat="44.39937587454167" lon="11.589059646728852"><ele>77.0</ele><time>2026-04-10T09:14:04Z</time></trkpt><trkpt lat="44.3993023243371" lon="11.589013976774508"><ele>77.0</ele><time>2026-04-10T09:14:05Z</time></trkpt><trkpt lat="44.399227810788155" lon="11.58896622963291"><ele>77.0</ele><time>2026-04-10T09:14:06Z</time></trkpt><trkpt lat="44.39915744136264" lon="11.58892410878031"><ele>77.0</ele><time>2026-04-10T09:14:07Z</time></trkpt><trkpt lat="44.39908948233999" lon="11.588880285491188"><ele>77.0</ele><time>2026-04-10T09:14:08Z</time></trkpt><trkpt lat="44.39902737964499" lon="11.588840939336473"><ele>77.0</ele><time>2026-04-10T09:14:09Z</time></trkpt><trkpt lat="44.39893614666197" lon="11.588768494272912"><ele>77.0</ele><time>2026-04-10T09:14:11Z</time></trkpt><trkpt lat="44.39886615968476" lon="11.588721393942862"><ele>77.0</ele><time>2026-04-10T09:14:13Z</time></trkpt><trkpt lat="44.398782886003374" lon="11.58869666135704"><ele>77.0</ele><time>2026-04-10T09:15:08Z</time></trkpt><trkpt lat="44.398715989234844" lon="11.588648133233443"><ele>77.0</ele><time>2026-04-10T09:15:10Z</time></trkpt><trkpt lat="44.39861276150542" lon="11.58858091223444"><ele>77.0</ele><time>2026-04-10T09:15:12Z</time></trkpt><trkpt lat="44.39851305160611" lon="11.588514304388875"><ele>77.2</ele><time>2026-04-10T09:15:14Z</time></trkpt><trkpt lat="44.39840920258397" lon="11.588444611889173"><ele>77.4</ele><time>2026-04-10T09:15:16Z</time></trkpt><trkpt lat="44.39829209753899" lon="11.588363373269882"><ele>77.6</ele><time>2026-04-10T09:15:18Z</time></trkpt><trkpt lat="44.398230968718494" lon="11.588314738093283"><ele>77.8</ele><time>2026-04-10T09:15:19Z</time></trkpt><trkpt lat="44.398162492697764" lon="11.588274783235342"><ele>78.0</ele><time>2026-04-10T09:15:20Z</time></trkpt><trkpt lat="44.398092231971404" lon="11.588237555160328"><ele>78.0</ele><time>2026-04-10T09:15:21Z</time></trkpt><trkpt lat="44.39802091146985" lon="11.588197859270322"><ele>78.0</ele><time>2026-04-10T09:15:22Z</time></trkpt><trkpt lat="44.397947849199205" lon="11.588155491725823"><ele>78.0</ele><time>2026-04-10T09:15:23Z</time></trkpt><trkpt lat="44.39787900064823" lon="11.588112247163075"><ele>78.0</ele><time>2026-04-10T09:15:24Z</time></trkpt><trkpt lat="44.39781498677412" lon="11.588071092826885"><ele>78.0</ele><time>2026-04-10T09:15:25Z</time></trkpt><trkpt lat="44.39775447981731" lon="11.588029670211151"><ele>78.0</ele><time>2026-04-10T09:15:26Z</time></trkpt><trkpt lat="44.397644402221715" lon="11.587965668329984"><ele>78.8</ele><time>2026-04-10T09:15:28Z</time></trkpt><trkpt lat="44.397578201696334" lon="11.587904099737118"><ele>79.6</ele><time>2026-04-10T09:15:29Z</time></trkpt><trkpt lat="44.39748463304552" lon="11.58784473574075"><ele>80.39999999999999</ele><time>2026-04-10T09:15:30Z</time></trkpt><trkpt lat="44.397383442391536" lon="11.587780535883063"><ele>81.19999999999999</ele><time>2026-04-10T09:15:31Z</time></trkpt><trkpt lat="44.39728080188317" lon="11.587727016131243"><ele>82.0</ele><time>2026-04-10T09:15:32Z</time></trkpt><trkpt lat="44.397178753756265" lon="11.587663759413877"><ele>82.6</ele><time>2026-04-10T09:15:33Z</time></trkpt><trkpt lat="44.39707835930692" lon="11.58760359987186"><ele>83.19999999999999</ele><time>2026-04-10T09:15:34Z</time></trkpt><trkpt lat="44.39697929140968" lon="11.58756423798569"><ele>83.8</ele><time>2026-04-10T09:15:35Z</time></trkpt><trkpt lat="44.396879089756496" lon="11.587538146080009"><ele>84.4</ele><time>2026-04-10T09:15:36Z</time></trkpt><trkpt lat="44.39678424541429" lon="11.587528837380141"><ele>85.0</ele><time>2026-04-10T09:15:37Z</time></trkpt><trkpt lat="44.3966947848325" lon="11.58754773956646"><ele>85.0</ele><time>2026-04-10T09:15:38Z</time></trkpt><trkpt lat="44.3966154580463" lon="11.587595317997826"><ele>85.0</ele><time>2026-04-10T09:15:39Z</time></trkpt><trkpt lat="44.39654143297082" lon="11.587663550429305"><ele>85.0</ele><time>2026-04-10T09:15:40Z</time></trkpt><trkpt lat="44.39647528082634" lon="11.587746052625212"><ele>85.0</ele><time>2026-04-10T09:15:41Z</time></trkpt><trkpt lat="44.39641900279517" lon="11.58781968280455"><ele>85.0</ele><time>2026-04-10T09:15:42Z</time></trkpt><trkpt lat="44.39635739674203" lon="11.587875444256753"><ele>85.0</ele><time>2026-04-10T09:15:43Z</time></trkpt><trkpt lat="44.39627463543259" lon="11.587893410387963"><ele>84.8</ele><time>2026-04-10T09:15:44Z</time></trkpt><trkpt lat="44.39619909155194" lon="11.587914517855983"><ele>84.6</ele><time>2026-04-10T09:15:45Z</time></trkpt><trkpt lat="44.3960986700678" lon="11.58782613409349"><ele>84.4</ele><time>2026-04-10T09:15:46Z</time></trkpt><trkpt lat="44.39600641179294" lon="11.587784018303587"><ele>84.2</ele><time>2026-04-10T09:15:47Z</time></trkpt><trkpt lat="44.395913638456626" lon="11.587741406694136"><ele>84.0</ele><time>2026-04-10T09:15:48Z</time></trkpt><trkpt lat="44.39581742558443" lon="11.587693860188008"><ele>84.0</ele><time>2026-04-10T09:15:49Z</time></trkpt><trkpt lat="44.39572831995068" lon="11.587642483055788"><ele>84.0</ele><time>2026-04-10T09:15:50Z</time></trkpt><trkpt lat="44.39563538198467" lon="11.587591967721012"><ele>84.0</ele><time>2026-04-10T09:15:51Z</time></trkpt><trkpt lat="44.39553682757539" lon="11.587540276667347"><ele>84.0</ele><time>2026-04-10T09:15:52Z</time></trkpt><trkpt lat="44.39543544532445" lon="11.587484519872293"><ele>84.0</ele><time>2026-04-10T09:15:53Z</time></trkpt><trkpt lat="44.39533674426835" lon="11.587429617376458"><ele>84.2</ele><time>2026-04-10T09:15:54Z</time></trkpt><trkpt lat="44.39523778235118" lon="11.587372443452127"><ele>84.4</ele><time>2026-04-10T09:15:55Z</time></trkpt><trkpt lat="44.39513985520042" lon="11.587315936230869"><ele>84.6</ele><time>2026-04-10T09:15:56Z</time></trkpt><trkpt lat="44.395043183797846" lon="11.587260071458532"><ele>84.8</ele><time>2026-04-10T09:15:57Z</time></trkpt><trkpt lat="44.394949490203366" lon="11.587210194743193"><ele>85.0</ele><time>2026-04-10T09:15:58Z</time></trkpt><trkpt lat="44.394859587006984" lon="11.587160542351375"><ele>85.0</ele><time>2026-04-10T09:15:59Z</time></trkpt><trkpt lat="44.39477512095791" lon="11.587116916886494"><ele>85.0</ele><time>2026-04-10T09:16:00Z</time></trkpt><trkpt lat="44.39468698069174" lon="11.58706604822241"><ele>85.0</ele><time>2026-04-10T09:16:01Z</time></trkpt><trkpt lat="44.39459742810946" lon="11.587010327954594"><ele>85.0</ele><time>2026-04-10T09:16:02Z</time></trkpt><trkpt lat="44.39450383934983" lon="11.586957930151533"><ele>85.0</ele><time>2026-04-10T09:16:03Z</time></trkpt><trkpt lat="44.394407025479346" lon="11.586895260220674"><ele>85.5</ele><time>2026-04-10T09:16:04Z</time></trkpt><trkpt lat="44.39430447485236" lon="11.586818693791958"><ele>86.0</ele><time>2026-04-10T09:16:05Z</time></trkpt><trkpt lat="44.39418627520953" lon="11.586727030974357"><ele>86.5</ele><time>2026-04-10T09:16:06Z</time></trkpt><trkpt lat="44.39406422181445" lon="11.586625375736274"><ele>87.0</ele><time>2026-04-10T09:16:07Z</time></trkpt><trkpt lat="44.39395044949827" lon="11.58651660353904"><ele>87.0</ele><time>2026-04-10T09:16:08Z</time></trkpt><trkpt lat="44.393836327378516" lon="11.586412790552773"><ele>87.0</ele><time>2026-04-10T09:16:09Z</time></trkpt><trkpt lat="44.393728667919774" lon="11.586324199750374"><ele>87.0</ele><time>2026-04-10T09:16:10Z</time></trkpt><trkpt lat="44.39361479832581" lon="11.58623644821788"><ele>87.0</ele><time>2026-04-10T09:16:11Z</time></trkpt><trkpt lat="44.39350948071523" lon="11.586132604302891"><ele>86.75</ele><time>2026-04-10T09:16:12Z</time></trkpt><trkpt lat="44.393404092782866" lon="11.58604418181325"><ele>86.5</ele><time>2026-04-10T09:16:13Z</time></trkpt><trkpt lat="44.39330513427883" lon="11.585958218143023"><ele>86.25</ele><time>2026-04-10T09:16:14Z</time></trkpt><trkpt lat="44.39320378697283" lon="11.585883868309711"><ele>86.0</ele><time>2026-04-10T09:16:15Z</time></trkpt><trkpt lat="44.39310769966868" lon="11.58581048294849"><ele>86.0</ele><time>2026-04-10T09:16:16Z</time></trkpt><trkpt lat="44.39301259202922" lon="11.585745368537248"><ele>86.0</ele><time>2026-04-10T09:16:17Z</time></trkpt><trkpt lat="44.39291942907393" lon="11.585684668898876"><ele>86.0</ele><time>2026-04-10T09:16:18Z</time></trkpt><trkpt lat="44.392825552901385" lon="11.585625020534426"><ele>86.0</ele><time>2026-04-10T09:16:19Z</time></trkpt><trkpt lat="44.39273751555475" lon="11.58556155785593"><ele>86.0</ele><time>2026-04-10T09:16:20Z</time></trkpt><trkpt lat="44.392645083438616" lon="11.585512111217168"><ele>86.6</ele><time>2026-04-10T09:16:21Z</time></trkpt><trkpt lat="44.39255214032351" lon="11.585466053648194"><ele>87.19999999999999</ele><time>2026-04-10T09:16:22Z</time></trkpt><trkpt lat="44.39246416389965" lon="11.585417736079187"><ele>87.80000000000001</ele><time>2026-04-10T09:16:23Z</time></trkpt><trkpt lat="44.39237078048568" lon="11.585371053349037"><ele>88.4</ele><time>2026-04-10T09:16:24Z</time></trkpt><trkpt lat="44.39227410008256" lon="11.585315447473432"><ele>89.0</ele><time>2026-04-10T09:16:25Z</time></trkpt><trkpt lat="44.39218440482109" lon="11.585267286340867"><ele>89.4</ele><time>2026-04-10T09:16:26Z</time></trkpt><trkpt lat="44.392099497158725" lon="11.585207960714058"><ele>89.80000000000001</ele><time>2026-04-10T09:16:27Z</time></trkpt><trkpt lat="44.39202847021772" lon="11.585129429341272"><ele>90.19999999999999</ele><time>2026-04-10T09:16:28Z</time></trkpt><trkpt lat="44.391972002184964" lon="11.585029700830047"><ele>90.6</ele><time>2026-04-10T09:16:29Z</time></trkpt><trkpt lat="44.39191759134744" lon="11.584921508344458"><ele>91.0</ele><time>2026-04-10T09:16:30Z</time></trkpt><trkpt lat="44.39185870210263" lon="11.584817545410917"><ele>91.0</ele><time>2026-04-10T09:16:31Z</time></trkpt><trkpt lat="44.3917878879252" lon="11.584748367726597"><ele>91.0</ele><time>2026-04-10T09:16:32Z</time></trkpt><trkpt lat="44.391702715277255" lon="11.584715775803131"><ele>91.0</ele><time>2026-04-10T09:16:33Z</time></trkpt><trkpt lat="44.39160767563655" lon="11.584721737236407"><ele>91.0</ele><time>2026-04-10T09:16:34Z</time></trkpt><trkpt lat="44.391512477369744" lon="11.584762457645931"><ele>91.0</ele><time>2026-04-10T09:16:35Z</time></trkpt><trkpt lat="44.39141281521689" lon="11.584821329584118"><ele>91.5</ele><time>2026-04-10T09:16:36Z</time></trkpt><trkpt lat="44.39130430883254" lon="11.58486831602049"><ele>92.0</ele><time>2026-04-10T09:16:37Z</time></trkpt><trkpt lat="44.39119259968695" lon="11.584884502612711"><ele>92.5</ele><time>2026-04-10T09:16:38Z</time></trkpt><trkpt lat="44.391080029019264" lon="11.584874266699071"><ele>93.0</ele><time>2026-04-10T09:16:39Z</time></trkpt><trkpt lat="44.390967912635794" lon="11.584837751609708"><ele>93.0</ele><time>2026-04-10T09:16:40Z</time></trkpt><trkpt lat="44.390865512503744" lon="11.584756237739974"><ele>93.0</ele><time>2026-04-10T09:16:41Z</time></trkpt><trkpt lat="44.39074790287062" lon="11.584690805381992"><ele>93.0</ele><time>2026-04-10T09:16:42Z</time></trkpt><trkpt lat="44.39064027633501" lon="11.584596527609476"><ele>93.0</ele><time>2026-04-10T09:16:43Z</time></trkpt><trkpt lat="44.39053372415348" lon="11.584497429321738"><ele>93.5</ele><time>2026-04-10T09:16:44Z</time></trkpt><trkpt lat="44.39042760470438" lon="11.58440138954307"><ele>94.0</ele><time>2026-04-10T09:16:45Z</time></trkpt><trkpt lat="44.39031706489976" lon="11.584305025486357"><ele>94.5</ele><time>2026-04-10T09:16:46Z</time></trkpt><trkpt lat="44.39020677076106" lon="11.584198644230053"><ele>95.0</ele><time>2026-04-10T09:16:47Z</time></trkpt><trkpt lat="44.390101184419144" lon="11.584086698871166"><ele>95.0</ele><time>2026-04-10T09:16:48Z</time></trkpt><trkpt lat="44.38999791396337" lon="11.583974400465761"><ele>95.0</ele><time>2026-04-10T09:16:49Z</time></trkpt><trkpt lat="44.38989477510109" lon="11.58385158818805"><ele>95.0</ele><time>2026-04-10T09:16:50Z</time></trkpt><trkpt lat="44.38978313583007" lon="11.583727470843451"><ele>95.0</ele><time>2026-04-10T09:16:51Z</time></trkpt><trkpt lat="44.38965228813988" lon="11.583609532164592"><ele>95.33333333333334</ele><time>2026-04-10T09:16:52Z</time></trkpt><trkpt lat="44.389508156497" lon="11.583466837628249"><ele>95.66666666666667</ele><time>2026-04-10T09:16:53Z</time></trkpt><trkpt lat="44.38933227592076" lon="11.583343585349235"><ele>96.0</ele><time>2026-04-10T09:16:54Z</time></trkpt><trkpt lat="44.389143890441694" lon="11.583216468842286"><ele>96.0</ele><time>2026-04-10T09:16:55Z</time></trkpt><trkpt lat="44.38893248409319" lon="11.583073873863492"><ele>96.0</ele><time>2026-04-10T09:16:56Z</time></trkpt><trkpt lat="44.38870083911258" lon="11.58291131839958"><ele>97.0</ele><time>2026-04-10T09:16:57Z</time></trkpt><trkpt lat="44.38846995001895" lon="11.582745752617523"><ele>98.0</ele><time>2026-04-10T09:16:58Z</time></trkpt><trkpt lat="44.38825075470485" lon="11.582588572165418"><ele>98.0</ele><time>2026-04-10T09:16:59Z</time></trkpt><trkpt lat="44.388045792550464" lon="11.582441598102877"><ele>98.0</ele><time>2026-04-10T09:17:00Z</time></trkpt><trkpt lat="44.387852842854386" lon="11.582302049360615"><ele>98.0</ele><time>2026-04-10T09:17:01Z</time></trkpt><trkpt lat="44.38766589510045" lon="11.582166519742346"><ele>98.33333333333333</ele><time>2026-04-10T09:17:02Z</time></trkpt><trkpt lat="44.38748208143049" lon="11.582033202506944"><ele>98.66666666666666</ele><time>2026-04-10T09:17:03Z</time></trkpt><trkpt lat="44.38730022494242" lon="11.581900776302923"><ele>99.0</ele><time>2026-04-10T09:17:04Z</time></trkpt><trkpt lat="44.387129031036324" lon="11.581776114167143"><ele>100.33333333333334</ele><time>2026-04-10T09:17:05Z</time></trkpt><trkpt lat="44.38695681884471" lon="11.581650710830258"><ele>101.66666666666667</ele><time>2026-04-10T09:17:06Z</time></trkpt><trkpt lat="44.386791619943246" lon="11.581530414372539"><ele>103.0</ele><time>2026-04-10T09:17:07Z</time></trkpt><trkpt lat="44.38663210878668" lon="11.581415002999087"><ele>103.0</ele><time>2026-04-10T09:17:08Z</time></trkpt><trkpt lat="44.38646910837979" lon="11.581320828649456"><ele>103.0</ele><time>2026-04-10T09:17:09Z</time></trkpt><trkpt lat="44.38632476268344" lon="11.581188654586077"><ele>103.0</ele><time>2026-04-10T09:17:10Z</time></trkpt><trkpt lat="44.38617531845507" lon="11.581093393487633"><ele>103.0</ele><time>2026-04-10T09:17:11Z</time></trkpt><trkpt lat="44.38602233834765" lon="11.581025542323015"><ele>103.0</ele><time>2026-04-10T09:17:12Z</time></trkpt><trkpt lat="44.38585358108499" lon="11.581008063338054"><ele>103.0</ele><time>2026-04-10T09:17:13Z</time></trkpt><trkpt lat="44.385678824704186" lon="11.58099501929388"><ele>101.66666666666667</ele><time>2026-04-10T09:17:14Z</time></trkpt><trkpt lat="44.38549983717905" lon="11.581007678011687"><ele>100.33333333333334</ele><time>2026-04-10T09:17:15Z</time></trkpt><trkpt lat="44.38532501153658" lon="11.580998524984388"><ele>99.0</ele><time>2026-04-10T09:17:16Z</time></trkpt><trkpt lat="44.38515189325686" lon="11.581012057446866"><ele>99.0</ele><time>2026-04-10T09:17:17Z</time></trkpt><trkpt lat="44.38498025181854" lon="11.581022117129919"><ele>99.0</ele><time>2026-04-10T09:17:18Z</time></trkpt><trkpt lat="44.38480365963693" lon="11.581029626588865"><ele>99.0</ele><time>2026-04-10T09:17:19Z</time></trkpt><trkpt lat="44.38462378895621" lon="11.580955127185746"><ele>95.66666666666667</ele><time>2026-04-10T09:17:20Z</time></trkpt><trkpt lat="44.384438288822174" lon="11.580897647264967"><ele>92.33333333333334</ele><time>2026-04-10T09:17:21Z</time></trkpt><trkpt lat="44.384257417706834" lon="11.580817038009824"><ele>89.0</ele><time>2026-04-10T09:17:22Z</time></trkpt><trkpt lat="44.38406428145584" lon="11.580777582933385"><ele>89.0</ele><time>2026-04-10T09:17:23Z</time></trkpt><trkpt lat="44.38386519727208" lon="11.580773198656274"><ele>89.0</ele><time>2026-04-10T09:17:24Z</time></trkpt><trkpt lat="44.38367026808829" lon="11.58078879769331"><ele>89.0</ele><time>2026-04-10T09:17:25Z</time></trkpt><trkpt lat="44.38348350050334" lon="11.580781818717758"><ele>87.66666666666667</ele><time>2026-04-10T09:17:26Z</time></trkpt><trkpt lat="44.38329916157278" lon="11.580793174502826"><ele>86.33333333333333</ele><time>2026-04-10T09:17:27Z</time></trkpt><trkpt lat="44.38310969974955" lon="11.580800654984246"><ele>85.0</ele><time>2026-04-10T09:17:28Z</time></trkpt><trkpt lat="44.382914193422884" lon="11.58079872676015"><ele>85.0</ele><time>2026-04-10T09:17:29Z</time></trkpt><trkpt lat="44.382719248358384" lon="11.58078255081382"><ele>85.0</ele><time>2026-04-10T09:17:30Z</time></trkpt><trkpt lat="44.38253516559328" lon="11.580727469811432"><ele>85.0</ele><time>2026-04-10T09:17:31Z</time></trkpt><trkpt lat="44.38234335443433" lon="11.580655724387743"><ele>85.33333333333333</ele><time>2026-04-10T09:17:32Z</time></trkpt><trkpt lat="44.38214922344763" lon="11.580583278068156"><ele>85.66666666666667</ele><time>2026-04-10T09:17:33Z</time></trkpt><trkpt lat="44.38195076297392" lon="11.580513524922768"><ele>86.0</ele><time>2026-04-10T09:17:34Z</time></trkpt><trkpt lat="44.38174910970526" lon="11.580441198132505"><ele>86.0</ele><time>2026-04-10T09:17:35Z</time></trkpt><trkpt lat="44.38154920357036" lon="11.580369882313043"><ele>86.0</ele><time>2026-04-10T09:17:36Z</time></trkpt><trkpt lat="44.381348088288284" lon="11.580297681096225"><ele>86.0</ele><time>2026-04-10T09:17:37Z</time></trkpt><trkpt lat="44.38114654280095" lon="11.58023134857605"><ele>86.33333333333334</ele><time>2026-04-10T09:17:38Z</time></trkpt><trkpt lat="44.380946362396166" lon="11.580162620157177"><ele>86.66666666666667</ele><time>2026-04-10T09:17:39Z</time></trkpt><trkpt lat="44.380745874445545" lon="11.580099086854363"><ele>87.0</ele><time>2026-04-10T09:17:40Z</time></trkpt><trkpt lat="44.380544725465256" lon="11.580035564181646"><ele>87.0</ele><time>2026-04-10T09:17:41Z</time></trkpt><trkpt lat="44.3803452022577" lon="11.579971222323332"><ele>87.0</ele><time>2026-04-10T09:17:42Z</time></trkpt><trkpt lat="44.38014704884549" lon="11.579908855186611"><ele>87.0</ele><time>2026-04-10T09:17:43Z</time></trkpt><trkpt lat="44.37994972899883" lon="11.579850655511486"><ele>87.0</ele><time>2026-04-10T09:17:44Z</time></trkpt><trkpt lat="44.3797562144336" lon="11.579795141231816"><ele>87.0</ele><time>2026-04-10T09:17:45Z</time></trkpt><trkpt lat="44.37956476845435" lon="11.579734529292452"><ele>87.0</ele><time>2026-04-10T09:17:46Z</time></trkpt><trkpt lat="44.37937529756444" lon="11.579673549854235"><ele>87.33333333333333</ele><time>2026-04-10T09:17:47Z</time></trkpt><trkpt lat="44.37919218776536" lon="11.579605228908315"><ele>87.66666666666666</ele><time>2026-04-10T09:17:48Z</time></trkpt><trkpt lat="44.37901186830647" lon="11.579534671550036"><ele>88.0</ele><time>2026-04-10T09:17:49Z</time></trkpt><trkpt lat="44.37883793512938" lon="11.579468136838438"><ele>88.33333333333333</ele><time>2026-04-10T09:17:50Z</time></trkpt><trkpt lat="44.378667198094405" lon="11.57940352630578"><ele>88.66666666666667</ele><time>2026-04-10T09:17:51Z</time></trkpt><trkpt lat="44.37849886289395" lon="11.579344188798755"><ele>89.0</ele><time>2026-04-10T09:17:52Z</time></trkpt><trkpt lat="44.378328426866005" lon="11.579286675357514"><ele>89.0</ele><time>2026-04-10T09:17:53Z</time></trkpt><trkpt lat="44.378153410430954" lon="11.579225884078843"><ele>89.0</ele><time>2026-04-10T09:17:54Z</time></trkpt><trkpt lat="44.37797285764943" lon="11.57916203057134"><ele>89.0</ele><time>2026-04-10T09:17:55Z</time></trkpt><trkpt lat="44.37779221232317" lon="11.579103003942196"><ele>89.0</ele><time>2026-04-10T09:17:56Z</time></trkpt><trkpt lat="44.377614657635164" lon="11.579048888846593"><ele>89.0</ele><time>2026-04-10T09:17:57Z</time></trkpt><trkpt lat="44.377437537726074" lon="11.578994474596838"><ele>89.0</ele><time>2026-04-10T09:17:58Z</time></trkpt><trkpt lat="44.37725979244256" lon="11.578938006078623"><ele>89.33333333333334</ele><time>2026-04-10T09:17:59Z</time></trkpt><trkpt lat="44.37708157778733" lon="11.578882886079048"><ele>89.66666666666667</ele><time>2026-04-10T09:18:00Z</time></trkpt><trkpt lat="44.37690612224787" lon="11.578826816163698"><ele>90.0</ele><time>2026-04-10T09:18:01Z</time></trkpt><trkpt lat="44.37673504037589" lon="11.578770261473275"><ele>90.0</ele><time>2026-04-10T09:18:02Z</time></trkpt><trkpt lat="44.37656044007456" lon="11.578713840665056"><ele>90.0</ele><time>2026-04-10T09:18:03Z</time></trkpt><trkpt lat="44.37638223503811" lon="11.578653642059754"><ele>90.0</ele><time>2026-04-10T09:18:04Z</time></trkpt><trkpt lat="44.37620451931382" lon="11.57859386164253"><ele>91.66666666666667</ele><time>2026-04-10T09:18:05Z</time></trkpt><trkpt lat="44.37602351716521" lon="11.578538450353774"><ele>93.33333333333334</ele><time>2026-04-10T09:18:06Z</time></trkpt><trkpt lat="44.37584221448243" lon="11.578479440664097"><ele>95.0</ele><time>2026-04-10T09:18:07Z</time></trkpt><trkpt lat="44.37566467389624" lon="11.578413230383296"><ele>95.33333333333334</ele><time>2026-04-10T09:18:08Z</time></trkpt><trkpt lat="44.37549130745621" lon="11.578328889981229"><ele>95.66666666666667</ele><time>2026-04-10T09:18:09Z</time></trkpt><trkpt lat="44.37531985053792" lon="11.578232377818182"><ele>96.0</ele><time>2026-04-10T09:18:10Z</time></trkpt><trkpt lat="44.37514254362645" lon="11.578132953959855"><ele>96.0</ele><time>2026-04-10T09:18:11Z</time></trkpt><trkpt lat="44.37496015817306" lon="11.578031266959579"><ele>96.0</ele><time>2026-04-10T09:18:12Z</time></trkpt><trkpt lat="44.374777674988465" lon="11.577929169366026"><ele>96.0</ele><time>2026-04-10T09:18:13Z</time></trkpt><trkpt lat="44.374604775967" lon="11.577832560818617"><ele>96.0</ele><time>2026-04-10T09:18:14Z</time></trkpt><trkpt lat="44.37443777790579" lon="11.577740069944738"><ele>96.0</ele><time>2026-04-10T09:18:15Z</time></trkpt><trkpt lat="44.374276866394595" lon="11.577652153286012"><ele>96.0</ele><time>2026-04-10T09:18:16Z</time></trkpt><trkpt lat="44.37412204616177" lon="11.57756543767014"><ele>96.0</ele><time>2026-04-10T09:18:17Z</time></trkpt><trkpt lat="44.37397214846711" lon="11.577479576063997"><ele>96.0</ele><time>2026-04-10T09:18:18Z</time></trkpt><trkpt lat="44.373826689807544" lon="11.577396787104224"><ele>96.0</ele><time>2026-04-10T09:18:19Z</time></trkpt><trkpt lat="44.37368409873511" lon="11.577316986432916"><ele>96.5</ele><time>2026-04-10T09:18:20Z</time></trkpt><trkpt lat="44.37354756170446" lon="11.577239741216358"><ele>97.0</ele><time>2026-04-10T09:18:21Z</time></trkpt><trkpt lat="44.37341655935344" lon="11.577155815795098"><ele>97.5</ele><time>2026-04-10T09:18:22Z</time></trkpt><trkpt lat="44.37329149352474" lon="11.577076457934934"><ele>98.0</ele><time>2026-04-10T09:18:23Z</time></trkpt><trkpt lat="44.37317118485757" lon="11.57699809170558"><ele>98.0</ele><time>2026-04-10T09:18:24Z</time></trkpt><trkpt lat="44.37305249902873" lon="11.576922625425151"><ele>98.0</ele><time>2026-04-10T09:18:25Z</time></trkpt><trkpt lat="44.372920979625235" lon="11.57685113650616"><ele>98.0</ele><time>2026-04-10T09:18:26Z</time></trkpt><trkpt lat="44.372780564423486" lon="11.576793822261152"><ele>98.0</ele><time>2026-04-10T09:18:27Z</time></trkpt><trkpt lat="44.37264497741281" lon="11.576757380430605"><ele>97.75</ele><time>2026-04-10T09:18:28Z</time></trkpt><trkpt lat="44.37251331077947" lon="11.57673504017882"><ele>97.5</ele><time>2026-04-10T09:18:29Z</time></trkpt><trkpt lat="44.372380279239586" lon="11.5767113914765"><ele>97.25</ele><time>2026-04-10T09:18:30Z</time></trkpt><trkpt lat="44.37224609356736" lon="11.576692094842965"><ele>97.0</ele><time>2026-04-10T09:18:31Z</time></trkpt><trkpt lat="44.37211252042729" lon="11.576669434348455"><ele>97.0</ele><time>2026-04-10T09:18:32Z</time></trkpt><trkpt lat="44.371977097044834" lon="11.57664619629811"><ele>97.0</ele><time>2026-04-10T09:18:33Z</time></trkpt><trkpt lat="44.37184589190555" lon="11.576621433934598"><ele>97.0</ele><time>2026-04-10T09:18:34Z</time></trkpt><trkpt lat="44.371721439542526" lon="11.576600917262281"><ele>97.0</ele><time>2026-04-10T09:18:35Z</time></trkpt><trkpt lat="44.371605558469106" lon="11.57658493380991"><ele>97.0</ele><time>2026-04-10T09:18:36Z</time></trkpt><trkpt lat="44.37149945604363" lon="11.576567686368222"><ele>97.0</ele><time>2026-04-10T09:18:37Z</time></trkpt><trkpt lat="44.37139567994509" lon="11.576546852893447"><ele>97.0</ele><time>2026-04-10T09:18:38Z</time></trkpt><trkpt lat="44.3712865968907" lon="11.5765006300865"><ele>97.0</ele><time>2026-04-10T09:18:39Z</time></trkpt><trkpt lat="44.371174371623184" lon="11.576474857283818"><ele>97.0</ele><time>2026-04-10T09:18:40Z</time></trkpt><trkpt lat="44.37106806139212" lon="11.576455012562002"><ele>97.19999999999999</ele><time>2026-04-10T09:18:41Z</time></trkpt><trkpt lat="44.370964690627765" lon="11.576436647874143"><ele>97.4</ele><time>2026-04-10T09:18:42Z</time></trkpt><trkpt lat="44.37086062017962" lon="11.576421210142827"><ele>97.6</ele><time>2026-04-10T09:18:43Z</time></trkpt><trkpt lat="44.37075148305015" lon="11.576426690723833"><ele>97.80000000000001</ele><time>2026-04-10T09:18:44Z</time></trkpt><trkpt lat="44.37064474578769" lon="11.576411711496489"><ele>98.0</ele><time>2026-04-10T09:18:45Z</time></trkpt><trkpt lat="44.37053930548215" lon="11.57637583993616"><ele>97.5</ele><time>2026-04-10T09:18:46Z</time></trkpt><trkpt lat="44.370430392790674" lon="11.576366854762743"><ele>97.0</ele><time>2026-04-10T09:18:47Z</time></trkpt><trkpt lat="44.37031071301888" lon="11.576367035523438"><ele>96.5</ele><time>2026-04-10T09:18:48Z</time></trkpt><trkpt lat="44.370180518902316" lon="11.576378995782635"><ele>96.0</ele><time>2026-04-10T09:18:49Z</time></trkpt><trkpt lat="44.37004907227046" lon="11.576415457716507"><ele>96.0</ele><time>2026-04-10T09:18:50Z</time></trkpt><trkpt lat="44.369921304716804" lon="11.576416238766534"><ele>96.0</ele><time>2026-04-10T09:18:51Z</time></trkpt><trkpt lat="44.369776738691314" lon="11.576387093892285"><ele>96.0</ele><time>2026-04-10T09:18:52Z</time></trkpt><trkpt lat="44.36963410510515" lon="11.5763250024921"><ele>96.0</ele><time>2026-04-10T09:18:53Z</time></trkpt><trkpt lat="44.36948729066969" lon="11.576239751792633"><ele>94.66666666666667</ele><time>2026-04-10T09:18:54Z</time></trkpt><trkpt lat="44.36934004306073" lon="11.576139428614432"><ele>93.33333333333334</ele><time>2026-04-10T09:18:55Z</time></trkpt><trkpt lat="44.36920339721285" lon="11.576009592715716"><ele>92.0</ele><time>2026-04-10T09:18:56Z</time></trkpt><trkpt lat="44.369065119875316" lon="11.575901681359971"><ele>92.0</ele><time>2026-04-10T09:18:57Z</time></trkpt><trkpt lat="44.36893548555414" lon="11.575800514926467"><ele>92.0</ele><time>2026-04-10T09:18:58Z</time></trkpt><trkpt lat="44.36880802341361" lon="11.575701043346049"><ele>92.0</ele><time>2026-04-10T09:18:59Z</time></trkpt><trkpt lat="44.3686896149184" lon="11.575608145599801"><ele>92.0</ele><time>2026-04-10T09:19:00Z</time></trkpt><trkpt lat="44.368573194296864" lon="11.575516940627985"><ele>93.25</ele><time>2026-04-10T09:19:01Z</time></trkpt><trkpt lat="44.36846220610933" lon="11.575430372306611"><ele>94.5</ele><time>2026-04-10T09:19:02Z</time></trkpt><trkpt lat="44.368351246220186" lon="11.575346093610989"><ele>95.75</ele><time>2026-04-10T09:19:03Z</time></trkpt><trkpt lat="44.36823566725089" lon="11.575280623940383"><ele>97.0</ele><time>2026-04-10T09:19:04Z</time></trkpt><trkpt lat="44.3681285611595" lon="11.575199208985099"><ele>97.25</ele><time>2026-04-10T09:19:05Z</time></trkpt><trkpt lat="44.368019995450155" lon="11.575142113755591"><ele>97.5</ele><time>2026-04-10T09:19:06Z</time></trkpt><trkpt lat="44.367911554162056" lon="11.575097504138322"><ele>97.75</ele><time>2026-04-10T09:19:07Z</time></trkpt><trkpt lat="44.367799789382566" lon="11.575062389350574"><ele>98.0</ele><time>2026-04-10T09:19:08Z</time></trkpt><trkpt lat="44.36769539720374" lon="11.575011860683876"><ele>98.0</ele><time>2026-04-10T09:19:09Z</time></trkpt><trkpt lat="44.367577098833245" lon="11.575002499030353"><ele>98.0</ele><time>2026-04-10T09:19:10Z</time></trkpt><trkpt lat="44.367458931534365" lon="11.574937087942898"><ele>98.0</ele><time>2026-04-10T09:19:11Z</time></trkpt><trkpt lat="44.36734112614787" lon="11.574875545816742"><ele>98.0</ele><time>2026-04-10T09:19:12Z</time></trkpt><trkpt lat="44.36722826552426" lon="11.574796403247655"><ele>98.0</ele><time>2026-04-10T09:19:13Z</time></trkpt><trkpt lat="44.36710006113637" lon="11.574682500235701"><ele>98.0</ele><time>2026-04-10T09:19:14Z</time></trkpt><trkpt lat="44.366965105873746" lon="11.574537281622499"><ele>98.0</ele><time>2026-04-10T09:19:15Z</time></trkpt><trkpt lat="44.36683468405434" lon="11.574386807244329"><ele>99.0</ele><time>2026-04-10T09:19:16Z</time></trkpt><trkpt lat="44.36671153696997" lon="11.574247859848136"><ele>100.0</ele><time>2026-04-10T09:19:17Z</time></trkpt><trkpt lat="44.3665907384538" lon="11.574112356312828"><ele>101.0</ele><time>2026-04-10T09:19:18Z</time></trkpt><trkpt lat="44.3664732627985" lon="11.573982396483679"><ele>101.25</ele><time>2026-04-10T09:19:19Z</time></trkpt><trkpt lat="44.36635503571733" lon="11.573857641585994"><ele>101.5</ele><time>2026-04-10T09:19:20Z</time></trkpt><trkpt lat="44.36622722990676" lon="11.57376097731628"><ele>101.75</ele><time>2026-04-10T09:19:21Z</time></trkpt><trkpt lat="44.36610987341733" lon="11.573646516720284"><ele>102.0</ele><time>2026-04-10T09:19:22Z</time></trkpt><trkpt lat="44.36597735853249" lon="11.573566999541518"><ele>102.75</ele><time>2026-04-10T09:19:23Z</time></trkpt><trkpt lat="44.36584095949387" lon="11.573516840228939"><ele>103.5</ele><time>2026-04-10T09:19:24Z</time></trkpt><trkpt lat="44.36570349711299" lon="11.573490652035895"><ele>104.25</ele><time>2026-04-10T09:19:25Z</time></trkpt><trkpt lat="44.36556405777953" lon="11.573497674077872"><ele>105.0</ele><time>2026-04-10T09:19:26Z</time></trkpt><trkpt lat="44.36542320982795" lon="11.573478589410755"><ele>105.5</ele><time>2026-04-10T09:19:27Z</time></trkpt><trkpt lat="44.36528349244315" lon="11.573462287729459"><ele>106.0</ele><time>2026-04-10T09:19:28Z</time></trkpt><trkpt lat="44.36513903166964" lon="11.573444346307358"><ele>106.5</ele><time>2026-04-10T09:19:29Z</time></trkpt><trkpt lat="44.36499514087671" lon="11.573422541013512"><ele>107.0</ele><time>2026-04-10T09:19:30Z</time></trkpt><trkpt lat="44.3648537698503" lon="11.573399979551539"><ele>107.0</ele><time>2026-04-10T09:19:31Z</time></trkpt><trkpt lat="44.36471913905281" lon="11.573376210630625"><ele>107.0</ele><time>2026-04-10T09:19:32Z</time></trkpt><trkpt lat="44.36458829042341" lon="11.573350536826652"><ele>107.0</ele><time>2026-04-10T09:19:33Z</time></trkpt><trkpt lat="44.364461594514424" lon="11.573326445874761"><ele>107.0</ele><time>2026-04-10T09:19:34Z</time></trkpt><trkpt lat="44.364342177192" lon="11.573283848688568"><ele>107.25</ele><time>2026-04-10T09:19:35Z</time></trkpt><trkpt lat="44.36422682252957" lon="11.573266849487114"><ele>107.5</ele><time>2026-04-10T09:19:36Z</time></trkpt><trkpt lat="44.36410958216008" lon="11.573277872654636"><ele>107.75</ele><time>2026-04-10T09:19:37Z</time></trkpt><trkpt lat="44.363992442077695" lon="11.573270557425534"><ele>108.0</ele><time>2026-04-10T09:19:38Z</time></trkpt><trkpt lat="44.36387252370607" lon="11.573267563250335"><ele>106.5</ele><time>2026-04-10T09:19:39Z</time></trkpt><trkpt lat="44.363753979966894" lon="11.573267330700657"><ele>105.0</ele><time>2026-04-10T09:19:40Z</time></trkpt><trkpt lat="44.36363719580407" lon="11.573255032414483"><ele>103.5</ele><time>2026-04-10T09:19:41Z</time></trkpt><trkpt lat="44.363520457448445" lon="11.573216851971225"><ele>102.0</ele><time>2026-04-10T09:19:42Z</time></trkpt><trkpt lat="44.363419635946876" lon="11.573134178832959"><ele>102.0</ele><time>2026-04-10T09:19:43Z</time></trkpt><trkpt lat="44.36333792926173" lon="11.573025475729102"><ele>102.0</ele><time>2026-04-10T09:19:44Z</time></trkpt><trkpt lat="44.363290707534134" lon="11.572886243123458"><ele>102.0</ele><time>2026-04-10T09:19:45Z</time></trkpt><trkpt lat="44.363227664696716" lon="11.57275314292432"><ele>102.0</ele><time>2026-04-10T09:19:46Z</time></trkpt><trkpt lat="44.36317720319802" lon="11.572593938541027"><ele>101.25</ele><time>2026-04-10T09:19:47Z</time></trkpt><trkpt lat="44.36312657741" lon="11.572429378697663"><ele>100.5</ele><time>2026-04-10T09:19:48Z</time></trkpt><trkpt lat="44.36307987693089" lon="11.572275281908633"><ele>99.75</ele><time>2026-04-10T09:19:49Z</time></trkpt><trkpt lat="44.363031232128634" lon="11.572124947949947"><ele>99.0</ele><time>2026-04-10T09:19:50Z</time></trkpt><trkpt lat="44.36298352283787" lon="11.571982307911577"><ele>99.0</ele><time>2026-04-10T09:19:51Z</time></trkpt><trkpt lat="44.36295343370571" lon="11.571834296248149"><ele>99.0</ele><time>2026-04-10T09:19:52Z</time></trkpt><trkpt lat="44.362909185811965" lon="11.57169643891137"><ele>99.0</ele><time>2026-04-10T09:19:53Z</time></trkpt><trkpt lat="44.36286150837141" lon="11.571547896722956"><ele>99.0</ele><time>2026-04-10T09:19:54Z</time></trkpt><trkpt lat="44.36281322709621" lon="11.571397473467627"><ele>99.0</ele><time>2026-04-10T09:19:55Z</time></trkpt><trkpt lat="44.362767970386976" lon="11.571256473090331"><ele>99.0</ele><time>2026-04-10T09:19:56Z</time></trkpt><trkpt lat="44.36270476072463" lon="11.571113943418196"><ele>99.0</ele><time>2026-04-10T09:19:57Z</time></trkpt><trkpt lat="44.36265734402101" lon="11.570955736028601"><ele>99.0</ele><time>2026-04-10T09:19:58Z</time></trkpt><trkpt lat="44.36260470130684" lon="11.570809887124234"><ele>101.0</ele><time>2026-04-10T09:19:59Z</time></trkpt><trkpt lat="44.362542362692" lon="11.570672880530667"><ele>103.0</ele><time>2026-04-10T09:20:00Z</time></trkpt><trkpt lat="44.36246908651315" lon="11.570553907817413"><ele>105.0</ele><time>2026-04-10T09:20:01Z</time></trkpt><trkpt lat="44.36238042354461" lon="11.570444338748803"><ele>107.0</ele><time>2026-04-10T09:20:02Z</time></trkpt><trkpt lat="44.36228836175603" lon="11.570349372144376"><ele>106.6</ele><time>2026-04-10T09:20:03Z</time></trkpt><trkpt lat="44.36219720289352" lon="11.570268905888863"><ele>106.19999999999999</ele><time>2026-04-10T09:20:04Z</time></trkpt><trkpt lat="44.36210583917073" lon="11.570193913898846"><ele>105.8</ele><time>2026-04-10T09:20:05Z</time></trkpt><trkpt lat="44.36201913325976" lon="11.570124874618017"><ele>105.4</ele><time>2026-04-10T09:20:06Z</time></trkpt><trkpt lat="44.36194730393093" lon="11.57007158137767"><ele>105.0</ele><time>2026-04-10T09:20:07Z</time></trkpt><trkpt lat="44.361882803141526" lon="11.570030817983957"><ele>105.0</ele><time>2026-04-10T09:20:08Z</time></trkpt><trkpt lat="44.36182136900545" lon="11.569986955483536"><ele>105.0</ele><time>2026-04-10T09:20:09Z</time></trkpt><trkpt lat="44.36176494907494" lon="11.569943034227279"><ele>105.0</ele><time>2026-04-10T09:20:10Z</time></trkpt><trkpt lat="44.36170666581126" lon="11.56989264322015"><ele>105.0</ele><time>2026-04-10T09:20:11Z</time></trkpt><trkpt lat="44.36165089302573" lon="11.569824548368114"><ele>105.0</ele><time>2026-04-10T09:20:12Z</time></trkpt><trkpt lat="44.36159758207616" lon="11.56973971338211"><ele>105.0</ele><time>2026-04-10T09:20:13Z</time></trkpt><trkpt lat="44.361550019032606" lon="11.569626608493072"><ele>107.0</ele><time>2026-04-10T09:20:14Z</time></trkpt><trkpt lat="44.36150690407838" lon="11.569491684726286"><ele>109.0</ele><time>2026-04-10T09:20:15Z</time></trkpt><trkpt lat="44.36146619990436" lon="11.569332915504082"><ele>111.0</ele><time>2026-04-10T09:20:16Z</time></trkpt><trkpt lat="44.361425335660655" lon="11.569159760419552"><ele>113.0</ele><time>2026-04-10T09:20:17Z</time></trkpt><trkpt lat="44.36137736927261" lon="11.568991955032118"><ele>110.25</ele><time>2026-04-10T09:20:18Z</time></trkpt><trkpt lat="44.36132479385904" lon="11.568819780544365"><ele>107.5</ele><time>2026-04-10T09:20:19Z</time></trkpt><trkpt lat="44.36124913298284" lon="11.568664736817622"><ele>104.75</ele><time>2026-04-10T09:20:20Z</time></trkpt><trkpt lat="44.361177846688655" lon="11.568520574306357"><ele>102.0</ele><time>2026-04-10T09:20:21Z</time></trkpt><trkpt lat="44.36110757230128" lon="11.568382745237928"><ele>102.0</ele><time>2026-04-10T09:20:22Z</time></trkpt><trkpt lat="44.36103125411402" lon="11.56824914340705"><ele>102.0</ele><time>2026-04-10T09:20:23Z</time></trkpt><trkpt lat="44.36094734942819" lon="11.568117630436925"><ele>102.0</ele><time>2026-04-10T09:20:24Z</time></trkpt><trkpt lat="44.36086089719259" lon="11.567985668772133"><ele>102.0</ele><time>2026-04-10T09:20:25Z</time></trkpt><trkpt lat="44.36077300376413" lon="11.56785226727235"><ele>101.8</ele><time>2026-04-10T09:20:26Z</time></trkpt><trkpt lat="44.36068438799322" lon="11.567721438945135"><ele>101.6</ele><time>2026-04-10T09:20:27Z</time></trkpt><trkpt lat="44.36061016798367" lon="11.567612447096097"><ele>101.39999999999999</ele><time>2026-04-10T09:20:28Z</time></trkpt><trkpt lat="44.360542142690235" lon="11.567517305568826"><ele>101.19999999999999</ele><time>2026-04-10T09:20:29Z</time></trkpt><trkpt lat="44.360464136727536" lon="11.567429979060195"><ele>101.0</ele><time>2026-04-10T09:20:30Z</time></trkpt><trkpt lat="44.360381629403875" lon="11.567353224621257"><ele>100.0</ele><time>2026-04-10T09:20:31Z</time></trkpt><trkpt lat="44.36028090045646" lon="11.56728096360947"><ele>99.0</ele><time>2026-04-10T09:20:32Z</time></trkpt><trkpt lat="44.36017616470603" lon="11.567228935077246"><ele>98.0</ele><time>2026-04-10T09:20:33Z</time></trkpt><trkpt lat="44.36006752700461" lon="11.567181233367501"><ele>97.0</ele><time>2026-04-10T09:20:34Z</time></trkpt><trkpt lat="44.359958382829866" lon="11.567140825824833"><ele>97.0</ele><time>2026-04-10T09:20:35Z</time></trkpt><trkpt lat="44.359848996671616" lon="11.567102717252977"><ele>97.0</ele><time>2026-04-10T09:20:36Z</time></trkpt><trkpt lat="44.35973667768933" lon="11.567066616285258"><ele>97.0</ele><time>2026-04-10T09:20:37Z</time></trkpt><trkpt lat="44.359620016246744" lon="11.567029236225652"><ele>97.0</ele><time>2026-04-10T09:20:38Z</time></trkpt><trkpt lat="44.359498670888605" lon="11.566990249229143"><ele>97.5</ele><time>2026-04-10T09:20:39Z</time></trkpt><trkpt lat="44.359371155055506" lon="11.566952296464159"><ele>98.0</ele><time>2026-04-10T09:20:40Z</time></trkpt><trkpt lat="44.359238080113485" lon="11.566915884527354"><ele>98.5</ele><time>2026-04-10T09:20:41Z</time></trkpt><trkpt lat="44.35910865287892" lon="11.566866774254768"><ele>99.0</ele><time>2026-04-10T09:20:42Z</time></trkpt><trkpt lat="44.35897563672346" lon="11.56685778264361"><ele>98.25</ele><time>2026-04-10T09:20:43Z</time></trkpt><trkpt lat="44.35884715020717" lon="11.566855641129205"><ele>97.5</ele><time>2026-04-10T09:20:44Z</time></trkpt><trkpt lat="44.35872203325966" lon="11.56688032668526"><ele>96.75</ele><time>2026-04-10T09:20:45Z</time></trkpt><trkpt lat="44.3586017262384" lon="11.566876950118964"><ele>96.0</ele><time>2026-04-10T09:20:46Z</time></trkpt><trkpt lat="44.358477565466224" lon="11.566878003398852"><ele>96.0</ele><time>2026-04-10T09:20:47Z</time></trkpt><trkpt lat="44.35834469663901" lon="11.566879142937394"><ele>96.0</ele><time>2026-04-10T09:20:48Z</time></trkpt><trkpt lat="44.358202895334934" lon="11.566881136302321"><ele>96.0</ele><time>2026-04-10T09:20:49Z</time></trkpt><trkpt lat="44.35806709718523" lon="11.566867973979758"><ele>96.0</ele><time>2026-04-10T09:20:50Z</time></trkpt><trkpt lat="44.357938385179914" lon="11.56683492668889"><ele>96.25</ele><time>2026-04-10T09:20:51Z</time></trkpt><trkpt lat="44.3578181038381" lon="11.566776658569461"><ele>96.5</ele><time>2026-04-10T09:20:52Z</time></trkpt><trkpt lat="44.357707481712666" lon="11.566696816303622"><ele>96.75</ele><time>2026-04-10T09:20:53Z</time></trkpt><trkpt lat="44.357605910293984" lon="11.566578324299819"><ele>97.0</ele><time>2026-04-10T09:20:54Z</time></trkpt><trkpt lat="44.35749319603428" lon="11.56645256265629"><ele>97.0</ele><time>2026-04-10T09:20:55Z</time></trkpt><trkpt lat="44.357369843119876" lon="11.566309524748732"><ele>97.0</ele><time>2026-04-10T09:20:56Z</time></trkpt><trkpt lat="44.35722190945784" lon="11.566138210736327"><ele>97.0</ele><time>2026-04-10T09:20:57Z</time></trkpt><trkpt lat="44.35706515193736" lon="11.565958106548042"><ele>96.0</ele><time>2026-04-10T09:20:58Z</time></trkpt><trkpt lat="44.35688151244082" lon="11.565747027547065"><ele>95.0</ele><time>2026-04-10T09:20:59Z</time></trkpt><trkpt lat="44.35667730604215" lon="11.56551283513117"><ele>95.33333333333334</ele><time>2026-04-10T09:21:00Z</time></trkpt><trkpt lat="44.35649599762278" lon="11.565306241541435"><ele>95.66666666666667</ele><time>2026-04-10T09:21:01Z</time></trkpt><trkpt lat="44.35632226017416" lon="11.565136527004276"><ele>96.0</ele><time>2026-04-10T09:21:02Z</time></trkpt><trkpt lat="44.35617148973081" lon="11.564940972210916"><ele>96.0</ele><time>2026-04-10T09:21:03Z</time></trkpt><trkpt lat="44.35603384589288" lon="11.5647501806895"><ele>96.0</ele><time>2026-04-10T09:21:04Z</time></trkpt><trkpt lat="44.35592280538803" lon="11.564551222828324"><ele>96.0</ele><time>2026-04-10T09:21:05Z</time></trkpt><trkpt lat="44.35580332507313" lon="11.564393437941115"><ele>96.33333333333334</ele><time>2026-04-10T09:21:06Z</time></trkpt><trkpt lat="44.35569790535067" lon="11.564222417827569"><ele>96.66666666666667</ele><time>2026-04-10T09:21:07Z</time></trkpt><trkpt lat="44.35558685772733" lon="11.5640755360377"><ele>97.0</ele><time>2026-04-10T09:21:08Z</time></trkpt><trkpt lat="44.355465292991845" lon="11.563962452102896"><ele>97.0</ele><time>2026-04-10T09:21:09Z</time></trkpt><trkpt lat="44.35534555695337" lon="11.563868785635176"><ele>97.0</ele><time>2026-04-10T09:21:10Z</time></trkpt><trkpt lat="44.3552187334454" lon="11.563808338088515"><ele>97.0</ele><time>2026-04-10T09:21:11.001Z</time></trkpt><trkpt lat="44.35509304795508" lon="11.563772358871464"><ele>97.0</ele><time>2026-04-10T09:21:12.001Z</time></trkpt><trkpt lat="44.354979067695716" lon="11.563764521634614"><ele>97.0</ele><time>2026-04-10T09:21:13.001Z</time></trkpt><trkpt lat="44.354869133361525" lon="11.563758901308754"><ele>97.0</ele><time>2026-04-10T09:21:14.001Z</time></trkpt><trkpt lat="44.354756373913624" lon="11.563752620055284"><ele>97.0</ele><time>2026-04-10T09:21:15.001Z</time></trkpt><trkpt lat="44.354645465004474" lon="11.563712404686184"><ele>97.0</ele><time>2026-04-10T09:21:16.001Z</time></trkpt><trkpt lat="44.35452672941725" lon="11.563709138716296"><ele>97.25</ele><time>2026-04-10T09:21:17.001Z</time></trkpt><trkpt lat="44.354410431003686" lon="11.56367739824423"><ele>97.5</ele><time>2026-04-10T09:21:18.001Z</time></trkpt><trkpt lat="44.35429189310582" lon="11.563643940244578"><ele>97.75</ele><time>2026-04-10T09:21:19.001Z</time></trkpt><trkpt lat="44.35417457406673" lon="11.563618132921153"><ele>98.0</ele><time>2026-04-10T09:21:20.001Z</time></trkpt><trkpt lat="44.354062242949695" lon="11.563595833015576"><ele>98.0</ele><time>2026-04-10T09:21:21.001Z</time></trkpt><trkpt lat="44.35395454320162" lon="11.563569927917985"><ele>98.0</ele><time>2026-04-10T09:21:22.001Z</time></trkpt><trkpt lat="44.35384863136016" lon="11.563528142166513"><ele>98.0</ele><time>2026-04-10T09:21:23.001Z</time></trkpt><trkpt lat="44.35374855120685" lon="11.563448984272322"><ele>98.0</ele><time>2026-04-10T09:21:24.001Z</time></trkpt><trkpt lat="44.35365484793132" lon="11.563338515729308"><ele>99.0</ele><time>2026-04-10T09:21:25.001Z</time></trkpt><trkpt lat="44.353569516228596" lon="11.563210120603424"><ele>100.0</ele><time>2026-04-10T09:21:26.001Z</time></trkpt><trkpt lat="44.35348493238158" lon="11.563074100078806"><ele>101.0</ele><time>2026-04-10T09:21:27.001Z</time></trkpt><trkpt lat="44.353408254388235" lon="11.562940402490069"><ele>102.0</ele><time>2026-04-10T09:21:28.001Z</time></trkpt><trkpt lat="44.35333677923819" lon="11.562810060768355"><ele>101.5</ele><time>2026-04-10T09:21:29.001Z</time></trkpt><trkpt lat="44.3532664493396" lon="11.562684886393743"><ele>101.0</ele><time>2026-04-10T09:21:30.001Z</time></trkpt><trkpt lat="44.353189285592826" lon="11.562554456443088"><ele>100.5</ele><time>2026-04-10T09:21:31.001Z</time></trkpt><trkpt lat="44.35310983704476" lon="11.562413984230474"><ele>100.0</ele><time>2026-04-10T09:21:32.001Z</time></trkpt><trkpt lat="44.35302846313668" lon="11.562265495053829"><ele>100.0</ele><time>2026-04-10T09:21:33.001Z</time></trkpt><trkpt lat="44.3529468985635" lon="11.562110102070225"><ele>100.0</ele><time>2026-04-10T09:21:34.001Z</time></trkpt><trkpt lat="44.352857159638305" lon="11.561955923567108"><ele>100.0</ele><time>2026-04-10T09:21:35.001Z</time></trkpt><trkpt lat="44.35276974524252" lon="11.561794325730224"><ele>100.0</ele><time>2026-04-10T09:21:36.001Z</time></trkpt><trkpt lat="44.35268142827927" lon="11.561629165942023"><ele>101.0</ele><time>2026-04-10T09:21:37Z</time></trkpt><trkpt lat="44.352595255338194" lon="11.56146597043822"><ele>102.0</ele><time>2026-04-10T09:21:38Z</time></trkpt><trkpt lat="44.352504444196896" lon="11.561306955808725"><ele>103.0</ele><time>2026-04-10T09:21:39Z</time></trkpt><trkpt lat="44.35241982887465" lon="11.561148759382922"><ele>104.0</ele><time>2026-04-10T09:21:40Z</time></trkpt><trkpt lat="44.352336804144414" lon="11.560996090349704"><ele>104.0</ele><time>2026-04-10T09:21:41Z</time></trkpt><trkpt lat="44.3522570293012" lon="11.560848713603747"><ele>104.0</ele><time>2026-04-10T09:21:42Z</time></trkpt><trkpt lat="44.352178328435166" lon="11.560700781949002"><ele>104.0</ele><time>2026-04-10T09:21:43Z</time></trkpt><trkpt lat="44.35209705031851" lon="11.56054973167553"><ele>104.0</ele><time>2026-04-10T09:21:44Z</time></trkpt><trkpt lat="44.352008860260796" lon="11.560402409468471"><ele>103.33333333333333</ele><time>2026-04-10T09:21:45Z</time></trkpt><trkpt lat="44.351903846362156" lon="11.560267330757645"><ele>102.66666666666666</ele><time>2026-04-10T09:21:46Z</time></trkpt><trkpt lat="44.35177855882246" lon="11.560147577974558"><ele>102.0</ele><time>2026-04-10T09:21:47Z</time></trkpt><trkpt lat="44.35164101558243" lon="11.560038077865624"><ele>102.0</ele><time>2026-04-10T09:21:48Z</time></trkpt><trkpt lat="44.351503400977855" lon="11.559926295878858"><ele>102.0</ele><time>2026-04-10T09:21:49Z</time></trkpt><trkpt lat="44.35136331840796" lon="11.559813024170667"><ele>102.0</ele><time>2026-04-10T09:21:50Z</time></trkpt><trkpt lat="44.35121928390291" lon="11.55970027740662"><ele>101.33333333333334</ele><time>2026-04-10T09:21:51Z</time></trkpt><trkpt lat="44.35107084542429" lon="11.559584687949974"><ele>100.66666666666667</ele><time>2026-04-10T09:21:52Z</time></trkpt><trkpt lat="44.35091961217158" lon="11.559467257956834"><ele>100.0</ele><time>2026-04-10T09:21:53Z</time></trkpt><trkpt lat="44.35076719180148" lon="11.559349303579559"><ele>100.0</ele><time>2026-04-10T09:21:54Z</time></trkpt><trkpt lat="44.35061283771251" lon="11.5592303855135"><ele>100.0</ele><time>2026-04-10T09:21:55Z</time></trkpt><trkpt lat="44.35045546840464" lon="11.559108092447637"><ele>100.0</ele><time>2026-04-10T09:21:56Z</time></trkpt><trkpt lat="44.35029840664897" lon="11.55898203666367"><ele>100.0</ele><time>2026-04-10T09:21:57Z</time></trkpt><trkpt lat="44.35013942050683" lon="11.558852137303523"><ele>100.0</ele><time>2026-04-10T09:21:58Z</time></trkpt><trkpt lat="44.34997860133576" lon="11.558717644464684"><ele>100.0</ele><time>2026-04-10T09:21:59Z</time></trkpt><trkpt lat="44.34981333747875" lon="11.55858858186607"><ele>100.33333333333334</ele><time>2026-04-10T09:22:00Z</time></trkpt><trkpt lat="44.34964643468509" lon="11.558456485421422"><ele>100.66666666666666</ele><time>2026-04-10T09:22:01Z</time></trkpt><trkpt lat="44.349480701649895" lon="11.558325956375162"><ele>101.0</ele><time>2026-04-10T09:22:02Z</time></trkpt><trkpt lat="44.34931044985679" lon="11.558194522461527"><ele>101.0</ele><time>2026-04-10T09:22:03Z</time></trkpt><trkpt lat="44.34914078320901" lon="11.558061187043378"><ele>101.0</ele><time>2026-04-10T09:22:04Z</time></trkpt><trkpt lat="44.34897458035486" lon="11.557928379674724"><ele>101.0</ele><time>2026-04-10T09:22:05Z</time></trkpt><trkpt lat="44.348813627984626" lon="11.557799748852421"><ele>101.33333333333333</ele><time>2026-04-10T09:22:06Z</time></trkpt><trkpt lat="44.34865078989363" lon="11.557671058866017"><ele>101.66666666666666</ele><time>2026-04-10T09:22:07Z</time></trkpt><trkpt lat="44.34849096621678" lon="11.557541438252406"><ele>102.0</ele><time>2026-04-10T09:22:08Z</time></trkpt><trkpt lat="44.34833401557289" lon="11.557417554136862"><ele>102.0</ele><time>2026-04-10T09:22:09Z</time></trkpt><trkpt lat="44.348172272461234" lon="11.557307431353552"><ele>102.0</ele><time>2026-04-10T09:22:10Z</time></trkpt><trkpt lat="44.34800243493714" lon="11.557218892577275"><ele>102.0</ele><time>2026-04-10T09:22:11Z</time></trkpt><trkpt lat="44.347824398876845" lon="11.557143411614787"><ele>102.33333333333334</ele><time>2026-04-10T09:22:12Z</time></trkpt><trkpt lat="44.34764078658078" lon="11.557074651644546"><ele>102.66666666666667</ele><time>2026-04-10T09:22:13Z</time></trkpt><trkpt lat="44.34745451856355" lon="11.557004975832353"><ele>103.0</ele><time>2026-04-10T09:22:14Z</time></trkpt><trkpt lat="44.347273616191075" lon="11.55694578743303"><ele>103.33333333333334</ele><time>2026-04-10T09:22:15Z</time></trkpt><trkpt lat="44.347092745277294" lon="11.556881861573146"><ele>103.66666666666666</ele><time>2026-04-10T09:22:16Z</time></trkpt><trkpt lat="44.346919494242776" lon="11.556787803406346"><ele>104.0</ele><time>2026-04-10T09:22:17Z</time></trkpt><trkpt lat="44.34676415809507" lon="11.556648532792861"><ele>104.0</ele><time>2026-04-10T09:22:18Z</time></trkpt><trkpt lat="44.3466384903625" lon="11.556450455806495"><ele>104.0</ele><time>2026-04-10T09:22:19Z</time></trkpt><trkpt lat="44.34649156839899" lon="11.556272666094243"><ele>104.0</ele><time>2026-04-10T09:22:20Z</time></trkpt><trkpt lat="44.34635400991987" lon="11.556080602576426"><ele>104.0</ele><time>2026-04-10T09:22:21Z</time></trkpt><trkpt lat="44.34621511978489" lon="11.55588899119305"><ele>104.0</ele><time>2026-04-10T09:22:22Z</time></trkpt><trkpt lat="44.34607402305214" lon="11.555696069792235"><ele>104.0</ele><time>2026-04-10T09:22:23Z</time></trkpt><trkpt lat="44.345934896082504" lon="11.555502548277316"><ele>104.0</ele><time>2026-04-10T09:22:24Z</time></trkpt><trkpt lat="44.345792011150216" lon="11.55530949826384"><ele>104.0</ele><time>2026-04-10T09:22:25Z</time></trkpt><trkpt lat="44.34564515052141" lon="11.555117806556128"><ele>104.0</ele><time>2026-04-10T09:22:26Z</time></trkpt><trkpt lat="44.34549837330027" lon="11.554922178882832"><ele>104.0</ele><time>2026-04-10T09:22:27Z</time></trkpt><trkpt lat="44.3453513930811" lon="11.554724830102492"><ele>104.0</ele><time>2026-04-10T09:22:28Z</time></trkpt><trkpt lat="44.345202638380144" lon="11.554527564484587"><ele>104.0</ele><time>2026-04-10T09:22:29Z</time></trkpt><trkpt lat="44.34505459239457" lon="11.554327445183816"><ele>104.66666666666666</ele><time>2026-04-10T09:22:30Z</time></trkpt><trkpt lat="44.34490821676704" lon="11.55412362969203"><ele>105.33333333333334</ele><time>2026-04-10T09:22:31Z</time></trkpt><trkpt lat="44.34476199797462" lon="11.553921212955686"><ele>106.0</ele><time>2026-04-10T09:22:32Z</time></trkpt><trkpt lat="44.34461541495713" lon="11.553721381851012"><ele>106.66666666666667</ele><time>2026-04-10T09:22:33Z</time></trkpt><trkpt lat="44.34447005779505" lon="11.553524129137472"><ele>107.33333333333334</ele><time>2026-04-10T09:22:34Z</time></trkpt><trkpt lat="44.344326251062846" lon="11.55332593482808"><ele>108.0</ele><time>2026-04-10T09:22:35Z</time></trkpt><trkpt lat="44.34418573272808" lon="11.553128117564247"><ele>108.0</ele><time>2026-04-10T09:22:36Z</time></trkpt><trkpt lat="44.34404823958335" lon="11.552940174922194"><ele>108.0</ele><time>2026-04-10T09:22:37Z</time></trkpt><trkpt lat="44.343925301011126" lon="11.552753901540235"><ele>108.0</ele><time>2026-04-10T09:22:38Z</time></trkpt><trkpt lat="44.34382919967924" lon="11.55255846679807"><ele>108.33333333333334</ele><time>2026-04-10T09:22:39Z</time></trkpt><trkpt lat="44.34371320485831" lon="11.5523871289222"><ele>108.66666666666667</ele><time>2026-04-10T09:22:40Z</time></trkpt><trkpt lat="44.34373935276022" lon="11.55208866713818"><ele>109.0</ele><time>2026-04-10T09:22:41Z</time></trkpt><trkpt lat="44.34371650961774" lon="11.551832632036186"><ele>109.66666666666667</ele><time>2026-04-10T09:22:42Z</time></trkpt><trkpt lat="44.34369859850414" lon="11.551566703207515"><ele>110.33333333333334</ele><time>2026-04-10T09:22:43Z</time></trkpt><trkpt lat="44.34367509280742" lon="11.551293211042442"><ele>111.0</ele><time>2026-04-10T09:22:44Z</time></trkpt><trkpt lat="44.343670272503616" lon="11.551014868461042"><ele>111.0</ele><time>2026-04-10T09:22:45Z</time></trkpt><trkpt lat="44.343692984673254" lon="11.550734121077726"><ele>111.0</ele><time>2026-04-10T09:22:46Z</time></trkpt><trkpt lat="44.34370908916662" lon="11.550452560066393"><ele>111.0</ele><time>2026-04-10T09:22:47Z</time></trkpt><trkpt lat="44.343731587628604" lon="11.550171250396184"><ele>112.0</ele><time>2026-04-10T09:22:48Z</time></trkpt><trkpt lat="44.34376146301046" lon="11.549888441999617"><ele>113.0</ele><time>2026-04-10T09:22:49Z</time></trkpt><trkpt lat="44.343797397666464" lon="11.549617359015029"><ele>114.0</ele><time>2026-04-10T09:22:50Z</time></trkpt><trkpt lat="44.343831640779435" lon="11.54934564778196"><ele>115.66666666666666</ele><time>2026-04-10T09:22:51Z</time></trkpt><trkpt lat="44.343894128193874" lon="11.549082662821009"><ele>117.33333333333333</ele><time>2026-04-10T09:22:52Z</time></trkpt><trkpt lat="44.34394070078822" lon="11.548813591258568"><ele>119.0</ele><time>2026-04-10T09:22:53Z</time></trkpt><trkpt lat="44.34397184132007" lon="11.548537573771403"><ele>119.0</ele><time>2026-04-10T09:22:54Z</time></trkpt><trkpt lat="44.34397253747434" lon="11.548256582018073"><ele>119.0</ele><time>2026-04-10T09:22:55Z</time></trkpt><trkpt lat="44.3439614668173" lon="11.547975013271959"><ele>119.0</ele><time>2026-04-10T09:22:56Z</time></trkpt><trkpt lat="44.34394916301774" lon="11.547693648504548"><ele>119.0</ele><time>2026-04-10T09:22:57Z</time></trkpt><trkpt lat="44.343936324761266" lon="11.547430994226843"><ele>119.0</ele><time>2026-04-10T09:22:58Z</time></trkpt><trkpt lat="44.343925215418686" lon="11.547177153386984"><ele>119.0</ele><time>2026-04-10T09:22:59Z</time></trkpt><trkpt lat="44.343928677267634" lon="11.546942743167975"><ele>121.66666666666666</ele><time>2026-04-10T09:23:00Z</time></trkpt><trkpt lat="44.34396215709582" lon="11.546720761444195"><ele>124.33333333333334</ele><time>2026-04-10T09:23:01Z</time></trkpt><trkpt lat="44.34403240547382" lon="11.546516683785681"><ele>127.0</ele><time>2026-04-10T09:23:02Z</time></trkpt><trkpt lat="44.34410142987939" lon="11.546320324483823"><ele>127.0</ele><time>2026-04-10T09:23:03Z</time></trkpt><trkpt lat="44.34417693539484" lon="11.546139002960265"><ele>127.0</ele><time>2026-04-10T09:23:04Z</time></trkpt><trkpt lat="44.34424040454627" lon="11.545945424457276"><ele>127.0</ele><time>2026-04-10T09:23:05Z</time></trkpt><trkpt lat="44.34422480386333" lon="11.54573420425927"><ele>127.0</ele><time>2026-04-10T09:23:06Z</time></trkpt><trkpt lat="44.34415530406435" lon="11.545562254758751"><ele>127.0</ele><time>2026-04-10T09:23:07.001Z</time></trkpt><trkpt lat="44.34407081909706" lon="11.545405606401715"><ele>127.0</ele><time>2026-04-10T09:23:08.001Z</time></trkpt><trkpt lat="44.34394204073197" lon="11.545299721357102"><ele>127.0</ele><time>2026-04-10T09:23:09.001Z</time></trkpt><trkpt lat="44.34378528985323" lon="11.54521404010542"><ele>126.33333333333334</ele><time>2026-04-10T09:23:10.001Z</time></trkpt><trkpt lat="44.3436287739516" lon="11.545094579155911"><ele>125.66666666666666</ele><time>2026-04-10T09:23:11.001Z</time></trkpt><trkpt lat="44.34344897330003" lon="11.544998402241628"><ele>125.0</ele><time>2026-04-10T09:23:12.001Z</time></trkpt><trkpt lat="44.34327810386749" lon="11.54486609996686"><ele>125.0</ele><time>2026-04-10T09:23:13.001Z</time></trkpt><trkpt lat="44.34312875497735" lon="11.544681530716428"><ele>125.0</ele><time>2026-04-10T09:23:14.001Z</time></trkpt><trkpt lat="44.342972872507985" lon="11.544500855907986"><ele>125.0</ele><time>2026-04-10T09:23:15.001Z</time></trkpt><trkpt lat="44.34281268354605" lon="11.544313485928127"><ele>128.33333333333331</ele><time>2026-04-10T09:23:16.001Z</time></trkpt><trkpt lat="44.34264427495338" lon="11.544143274030743"><ele>131.66666666666666</ele><time>2026-04-10T09:23:17.001Z</time></trkpt><trkpt lat="44.34248692999486" lon="11.543949594532195"><ele>135.0</ele><time>2026-04-10T09:23:18.001Z</time></trkpt><trkpt lat="44.34233080878039" lon="11.54375231554349"><ele>135.0</ele><time>2026-04-10T09:23:19.001Z</time></trkpt><trkpt lat="44.3421720073091" lon="11.543557967119815"><ele>135.0</ele><time>2026-04-10T09:23:20.001Z</time></trkpt><trkpt lat="44.34201451915193" lon="11.543369480413997"><ele>135.0</ele><time>2026-04-10T09:23:21.001Z</time></trkpt><trkpt lat="44.341859302082504" lon="11.543182621294585"><ele>135.0</ele><time>2026-04-10T09:23:22.001Z</time></trkpt><trkpt lat="44.34170355462368" lon="11.543000623020498"><ele>135.0</ele><time>2026-04-10T09:23:23.001Z</time></trkpt><trkpt lat="44.34155004178319" lon="11.542814282267184"><ele>135.0</ele><time>2026-04-10T09:23:24.001Z</time></trkpt><trkpt lat="44.3413982017539" lon="11.542633433219113"><ele>134.66666666666666</ele><time>2026-04-10T09:23:25.001Z</time></trkpt><trkpt lat="44.34124626951565" lon="11.54245621357888"><ele>134.33333333333331</ele><time>2026-04-10T09:23:26.001Z</time></trkpt><trkpt lat="44.34109400499425" lon="11.542278874408701"><ele>134.0</ele><time>2026-04-10T09:23:27.001Z</time></trkpt><trkpt lat="44.340941756248725" lon="11.54211056738697"><ele>135.66666666666666</ele><time>2026-04-10T09:23:28.001Z</time></trkpt><trkpt lat="44.34079634918186" lon="11.541926600702606"><ele>137.33333333333334</ele><time>2026-04-10T09:23:29.001Z</time></trkpt><trkpt lat="44.3406381227109" lon="11.541766291940679"><ele>139.0</ele><time>2026-04-10T09:23:30.001Z</time></trkpt><trkpt lat="44.3404676175579" lon="11.541632412777089"><ele>139.0</ele><time>2026-04-10T09:23:31.001Z</time></trkpt><trkpt lat="44.340309180090976" lon="11.541482469526093"><ele>139.0</ele><time>2026-04-10T09:23:32.001Z</time></trkpt><trkpt lat="44.340157505842654" lon="11.54134006986657"><ele>139.0</ele><time>2026-04-10T09:23:33.001Z</time></trkpt><trkpt lat="44.34000996446793" lon="11.54120027709781"><ele>140.66666666666669</ele><time>2026-04-10T09:23:34.001Z</time></trkpt><trkpt lat="44.33986143306862" lon="11.541059191835522"><ele>142.33333333333334</ele><time>2026-04-10T09:23:35.001Z</time></trkpt><trkpt lat="44.339720785941566" lon="11.540924314256436"><ele>144.0</ele><time>2026-04-10T09:23:36.001Z</time></trkpt><trkpt lat="44.33958904039385" lon="11.540796624001443"><ele>144.0</ele><time>2026-04-10T09:23:37.001Z</time></trkpt><trkpt lat="44.33946063660853" lon="11.540682628475913"><ele>144.0</ele><time>2026-04-10T09:23:38.001Z</time></trkpt><trkpt lat="44.33932453069981" lon="11.540605283093344"><ele>144.0</ele><time>2026-04-10T09:23:39.001Z</time></trkpt><trkpt lat="44.33917926170482" lon="11.540581311722459"><ele>144.0</ele><time>2026-04-10T09:23:40.001Z</time></trkpt><trkpt lat="44.33903249793425" lon="11.54060382401323"><ele>144.0</ele><time>2026-04-10T09:23:41.001Z</time></trkpt><trkpt lat="44.33889441375107" lon="11.54065118076702"><ele>144.0</ele><time>2026-04-10T09:23:42.001Z</time></trkpt><trkpt lat="44.33875666920055" lon="11.540695084900817"><ele>144.0</ele><time>2026-04-10T09:23:43Z</time></trkpt><trkpt lat="44.33861772395851" lon="11.540724254246545"><ele>144.0</ele><time>2026-04-10T09:23:44Z</time></trkpt><trkpt lat="44.33847801586107" lon="11.54073240984603"><ele>144.0</ele><time>2026-04-10T09:23:45Z</time></trkpt><trkpt lat="44.33833971186537" lon="11.54070909307369"><ele>144.0</ele><time>2026-04-10T09:23:46Z</time></trkpt><trkpt lat="44.33820447628903" lon="11.540655369424815"><ele>144.0</ele><time>2026-04-10T09:23:47Z</time></trkpt><trkpt lat="44.33807694302917" lon="11.540584268749607"><ele>144.0</ele><time>2026-04-10T09:23:48Z</time></trkpt><trkpt lat="44.33795225337807" lon="11.540509358072546"><ele>144.25</ele><time>2026-04-10T09:23:49Z</time></trkpt><trkpt lat="44.33782770282177" lon="11.540441934652511"><ele>144.5</ele><time>2026-04-10T09:23:50Z</time></trkpt><trkpt lat="44.33770506428873" lon="11.54037808249047"><ele>144.75</ele><time>2026-04-10T09:23:51Z</time></trkpt><trkpt lat="44.337585902215395" lon="11.540313180016055"><ele>145.0</ele><time>2026-04-10T09:23:52Z</time></trkpt><trkpt lat="44.337468698301784" lon="11.540238256946948"><ele>145.0</ele><time>2026-04-10T09:23:53Z</time></trkpt><trkpt lat="44.33734915160619" lon="11.540150962598805"><ele>145.0</ele><time>2026-04-10T09:23:54Z</time></trkpt><trkpt lat="44.33723342132968" lon="11.540062789447896"><ele>145.0</ele><time>2026-04-10T09:23:55Z</time></trkpt><trkpt lat="44.33711918265286" lon="11.539972851483192"><ele>145.0</ele><time>2026-04-10T09:23:56Z</time></trkpt><trkpt lat="44.337004644220066" lon="11.53988547515879"><ele>142.75</ele><time>2026-04-10T09:23:57Z</time></trkpt><trkpt lat="44.336901537365684" lon="11.539770963629888"><ele>140.5</ele><time>2026-04-10T09:23:58Z</time></trkpt><trkpt lat="44.3367935693306" lon="11.539670621113624"><ele>138.25</ele><time>2026-04-10T09:23:59Z</time></trkpt><trkpt lat="44.336681394590975" lon="11.539580107309787"><ele>136.0</ele><time>2026-04-10T09:24:00Z</time></trkpt><trkpt lat="44.336596997333906" lon="11.539445896748479"><ele>136.0</ele><time>2026-04-10T09:24:01Z</time></trkpt><trkpt lat="44.33653079556489" lon="11.539295516035551"><ele>136.0</ele><time>2026-04-10T09:24:02Z</time></trkpt><trkpt lat="44.336480584801116" lon="11.53912191037097"><ele>136.0</ele><time>2026-04-10T09:24:03Z</time></trkpt><trkpt lat="44.33645082019077" lon="11.538918843558584"><ele>136.0</ele><time>2026-04-10T09:24:04Z</time></trkpt><trkpt lat="44.336441579619546" lon="11.538692224342627"><ele>135.66666666666669</ele><time>2026-04-10T09:24:05Z</time></trkpt><trkpt lat="44.336456246071634" lon="11.538433461568276"><ele>135.33333333333334</ele><time>2026-04-10T09:24:06Z</time></trkpt><trkpt lat="44.33646347736956" lon="11.53812508471523"><ele>135.0</ele><time>2026-04-10T09:24:07Z</time></trkpt><trkpt lat="44.33646995321026" lon="11.537819684922532"><ele>134.66666666666666</ele><time>2026-04-10T09:24:08Z</time></trkpt><trkpt lat="44.33647467098995" lon="11.537546712030352"><ele>134.33333333333331</ele><time>2026-04-10T09:24:09Z</time></trkpt><trkpt lat="44.33646793784219" lon="11.537285386145294"><ele>134.0</ele><time>2026-04-10T09:24:10Z</time></trkpt><trkpt lat="44.336476683925774" lon="11.537041264579958"><ele>135.0</ele><time>2026-04-10T09:24:11Z</time></trkpt><trkpt lat="44.33648428316292" lon="11.536810494498102"><ele>136.0</ele><time>2026-04-10T09:24:12Z</time></trkpt><trkpt lat="44.33648814877645" lon="11.53658640982777"><ele>137.0</ele><time>2026-04-10T09:24:13Z</time></trkpt><trkpt lat="44.3364784243684" lon="11.53637182607979"><ele>136.66666666666666</ele><time>2026-04-10T09:24:14Z</time></trkpt><trkpt lat="44.33644222726008" lon="11.536162638140421"><ele>136.33333333333334</ele><time>2026-04-10T09:24:15Z</time></trkpt><trkpt lat="44.33638057441007" lon="11.535957385914353"><ele>136.0</ele><time>2026-04-10T09:24:16Z</time></trkpt><trkpt lat="44.336291253721186" lon="11.535764399439078"><ele>135.0</ele><time>2026-04-10T09:24:17Z</time></trkpt><trkpt lat="44.33617194627879" lon="11.535582686815895"><ele>134.0</ele><time>2026-04-10T09:24:18Z</time></trkpt><trkpt lat="44.33603626846925" lon="11.535410176057256"><ele>133.0</ele><time>2026-04-10T09:24:19Z</time></trkpt><trkpt lat="44.335887036358635" lon="11.535247328485443"><ele>133.0</ele><time>2026-04-10T09:24:20Z</time></trkpt><trkpt lat="44.335734270881126" lon="11.535083076886737"><ele>133.0</ele><time>2026-04-10T09:24:21Z</time></trkpt><trkpt lat="44.335582496711574" lon="11.534916251106187"><ele>133.0</ele><time>2026-04-10T09:24:22Z</time></trkpt><trkpt lat="44.335426114620226" lon="11.534750745346328"><ele>132.33333333333334</ele><time>2026-04-10T09:24:23Z</time></trkpt><trkpt lat="44.335271429338206" lon="11.534587226514647"><ele>131.66666666666666</ele><time>2026-04-10T09:24:24Z</time></trkpt><trkpt lat="44.33511660843659" lon="11.534426554034901"><ele>131.0</ele><time>2026-04-10T09:24:25Z</time></trkpt><trkpt lat="44.33496137258367" lon="11.534268100607088"><ele>131.0</ele><time>2026-04-10T09:24:26Z</time></trkpt><trkpt lat="44.33480697287284" lon="11.534119235174503"><ele>131.0</ele><time>2026-04-10T09:24:27Z</time></trkpt><trkpt lat="44.33466063381616" lon="11.53397268096659"><ele>131.0</ele><time>2026-04-10T09:24:28Z</time></trkpt><trkpt lat="44.33451839234054" lon="11.533826863391418"><ele>131.66666666666666</ele><time>2026-04-10T09:24:29Z</time></trkpt><trkpt lat="44.33438190038935" lon="11.53368614048183"><ele>132.33333333333334</ele><time>2026-04-10T09:24:30Z</time></trkpt><trkpt lat="44.33424912353738" lon="11.53355663752875"><ele>133.0</ele><time>2026-04-10T09:24:31Z</time></trkpt><trkpt lat="44.334107381070076" lon="11.533441146919941"><ele>133.0</ele><time>2026-04-10T09:24:32Z</time></trkpt><trkpt lat="44.333951495633904" lon="11.533350822467371"><ele>133.0</ele><time>2026-04-10T09:24:33Z</time></trkpt><trkpt lat="44.33378680514787" lon="11.533272656517155"><ele>133.0</ele><time>2026-04-10T09:24:34Z</time></trkpt><trkpt lat="44.33361890560293" lon="11.533201070970245"><ele>131.0</ele><time>2026-04-10T09:24:35Z</time></trkpt><trkpt lat="44.33345451943521" lon="11.533138064691023"><ele>129.0</ele><time>2026-04-10T09:24:36Z</time></trkpt><trkpt lat="44.33329429644707" lon="11.533091675646656"><ele>127.0</ele><time>2026-04-10T09:24:37Z</time></trkpt><trkpt lat="44.33313575132537" lon="11.533086419912697"><ele>127.66666666666667</ele><time>2026-04-10T09:24:38Z</time></trkpt><trkpt lat="44.332984346335934" lon="11.533121274993736"><ele>128.33333333333334</ele><time>2026-04-10T09:24:39Z</time></trkpt><trkpt lat="44.33283581009432" lon="11.5331500716295"><ele>129.0</ele><time>2026-04-10T09:24:40Z</time></trkpt><trkpt lat="44.332683716906125" lon="11.533144255655337"><ele>129.0</ele><time>2026-04-10T09:24:41Z</time></trkpt><trkpt lat="44.332531634721974" lon="11.533085950279945"><ele>129.0</ele><time>2026-04-10T09:24:42Z</time></trkpt><trkpt lat="44.33238589833498" lon="11.532992393647092"><ele>129.0</ele><time>2026-04-10T09:24:43Z</time></trkpt><trkpt lat="44.33224589131848" lon="11.532879968221469"><ele>129.0</ele><time>2026-04-10T09:24:44Z</time></trkpt><trkpt lat="44.332123791272984" lon="11.532733817010886"><ele>129.0</ele><time>2026-04-10T09:24:45Z</time></trkpt><trkpt lat="44.331991757693714" lon="11.532603714656231"><ele>129.0</ele><time>2026-04-10T09:24:46Z</time></trkpt><trkpt lat="44.33187539066587" lon="11.532466491496018"><ele>129.0</ele><time>2026-04-10T09:24:47Z</time></trkpt><trkpt lat="44.33175857893362" lon="11.532333743283962"><ele>129.0</ele><time>2026-04-10T09:24:48Z</time></trkpt><trkpt lat="44.33165188211853" lon="11.532204534132417"><ele>129.0</ele><time>2026-04-10T09:24:49Z</time></trkpt><trkpt lat="44.331567098850584" lon="11.532059401536335"><ele>129.0</ele><time>2026-04-10T09:24:50Z</time></trkpt><trkpt lat="44.331518771238116" lon="11.531890578736052"><ele>129.5</ele><time>2026-04-10T09:24:51Z</time></trkpt><trkpt lat="44.33151484843634" lon="11.531706028204571"><ele>130.0</ele><time>2026-04-10T09:24:52Z</time></trkpt><trkpt lat="44.331521843626625" lon="11.531505073390854"><ele>130.5</ele><time>2026-04-10T09:24:53Z</time></trkpt><trkpt lat="44.33152329868232" lon="11.531287859868929"><ele>131.0</ele><time>2026-04-10T09:24:54Z</time></trkpt><trkpt lat="44.33152079546461" lon="11.531061037996274"><ele>131.33333333333331</ele><time>2026-04-10T09:24:55Z</time></trkpt><trkpt lat="44.33152063884853" lon="11.530824319309048"><ele>131.66666666666666</ele><time>2026-04-10T09:24:56Z</time></trkpt><trkpt lat="44.331522422298015" lon="11.530595132786521"><ele>132.0</ele><time>2026-04-10T09:24:57Z</time></trkpt><trkpt lat="44.33152481781635" lon="11.530375980089559"><ele>132.0</ele><time>2026-04-10T09:24:58Z</time></trkpt><trkpt lat="44.331531737950996" lon="11.530157044701323"><ele>132.0</ele><time>2026-04-10T09:24:59Z</time></trkpt><trkpt lat="44.33153654592078" lon="11.529935298358138"><ele>132.0</ele><time>2026-04-10T09:25:00Z</time></trkpt><trkpt lat="44.33153905728591" lon="11.529709009680015"><ele>132.33333333333334</ele><time>2026-04-10T09:25:01Z</time></trkpt><trkpt lat="44.33154025262057" lon="11.529477291149595"><ele>132.66666666666669</ele><time>2026-04-10T09:25:02Z</time></trkpt><trkpt lat="44.33153566908378" lon="11.529240075453849"><ele>133.0</ele><time>2026-04-10T09:25:03Z</time></trkpt><trkpt lat="44.33151426986608" lon="11.529006001977562"><ele>133.0</ele><time>2026-04-10T09:25:04Z</time></trkpt><trkpt lat="44.3314706020392" lon="11.528778724211357"><ele>133.0</ele><time>2026-04-10T09:25:05Z</time></trkpt><trkpt lat="44.33141488038962" lon="11.528551535940052"><ele>133.0</ele><time>2026-04-10T09:25:06Z</time></trkpt><trkpt lat="44.33134891373833" lon="11.52832286313486"><ele>132.0</ele><time>2026-04-10T09:25:07Z</time></trkpt><trkpt lat="44.33126956348849" lon="11.528094467262994"><ele>131.0</ele><time>2026-04-10T09:25:08Z</time></trkpt><trkpt lat="44.33117428964945" lon="11.527877361270257"><ele>130.0</ele><time>2026-04-10T09:25:09Z</time></trkpt><trkpt lat="44.33106016833367" lon="11.527673279903823"><ele>130.0</ele><time>2026-04-10T09:25:10Z</time></trkpt><trkpt lat="44.33093164297122" lon="11.527479138382967"><ele>130.0</ele><time>2026-04-10T09:25:11Z</time></trkpt><trkpt lat="44.33079336098843" lon="11.527298514848633"><ele>130.0</ele><time>2026-04-10T09:25:12Z</time></trkpt><trkpt lat="44.33066098567857" lon="11.527106450907416"><ele>130.0</ele><time>2026-04-10T09:25:13Z</time></trkpt><trkpt lat="44.3305190033745" lon="11.526935763788755"><ele>130.0</ele><time>2026-04-10T09:25:14Z</time></trkpt><trkpt lat="44.33037882512021" lon="11.526771468813402"><ele>130.0</ele><time>2026-04-10T09:25:15Z</time></trkpt><trkpt lat="44.33024168952195" lon="11.526611851160176"><ele>130.0</ele><time>2026-04-10T09:25:16Z</time></trkpt><trkpt lat="44.330097177212956" lon="11.526469078183593"><ele>130.0</ele><time>2026-04-10T09:25:17.001Z</time></trkpt><trkpt lat="44.329983099744325" lon="11.526286794364633"><ele>130.0</ele><time>2026-04-10T09:25:18.001Z</time></trkpt><trkpt lat="44.329857844177155" lon="11.526132946706722"><ele>131.0</ele><time>2026-04-10T09:25:19.001Z</time></trkpt><trkpt lat="44.32977699279166" lon="11.525931676345044"><ele>132.0</ele><time>2026-04-10T09:25:20.001Z</time></trkpt><trkpt lat="44.32970749520726" lon="11.525737460956334"><ele>133.0</ele><time>2026-04-10T09:25:21.001Z</time></trkpt><trkpt lat="44.32964075507521" lon="11.525556159268586"><ele>133.5</ele><time>2026-04-10T09:25:22.001Z</time></trkpt><trkpt lat="44.32959156631086" lon="11.525377021276512"><ele>134.0</ele><time>2026-04-10T09:25:23.001Z</time></trkpt><trkpt lat="44.329540261153376" lon="11.525215346788807"><ele>134.5</ele><time>2026-04-10T09:25:24.001Z</time></trkpt><trkpt lat="44.329487817022255" lon="11.525066602898328"><ele>135.0</ele><time>2026-04-10T09:25:25.001Z</time></trkpt><trkpt lat="44.32937010770979" lon="11.524982117960025"><ele>135.0</ele><time>2026-04-10T09:25:26.001Z</time></trkpt><trkpt lat="44.329255787733175" lon="11.524919584046021"><ele>135.0</ele><time>2026-04-10T09:25:27.001Z</time></trkpt><trkpt lat="44.32912973514183" lon="11.524871855841566"><ele>135.0</ele><time>2026-04-10T09:25:28.001Z</time></trkpt><trkpt lat="44.32899324077857" lon="11.524815992098814"><ele>135.0</ele><time>2026-04-10T09:25:29.001Z</time></trkpt><trkpt lat="44.32884708296256" lon="11.524774472516448"><ele>135.75</ele><time>2026-04-10T09:25:30.001Z</time></trkpt><trkpt lat="44.3286940191001" lon="11.524761490065567"><ele>136.5</ele><time>2026-04-10T09:25:31.001Z</time></trkpt><trkpt lat="44.32854566105369" lon="11.524761214672013"><ele>137.25</ele><time>2026-04-10T09:25:32.001Z</time></trkpt><trkpt lat="44.328399535445676" lon="11.524740985460857"><ele>138.0</ele><time>2026-04-10T09:25:33.001Z</time></trkpt><trkpt lat="44.3282528760815" lon="11.524670958151038"><ele>138.0</ele><time>2026-04-10T09:25:34.001Z</time></trkpt><trkpt lat="44.32810876695188" lon="11.524570848365979"><ele>138.0</ele><time>2026-04-10T09:25:35.001Z</time></trkpt><trkpt lat="44.32796159257265" lon="11.524479292122995"><ele>138.0</ele><time>2026-04-10T09:25:36.001Z</time></trkpt><trkpt lat="44.3278028596397" lon="11.524422222481666"><ele>141.66666666666666</ele><time>2026-04-10T09:25:37.001Z</time></trkpt><trkpt lat="44.327634860048256" lon="11.524399578936798"><ele>145.33333333333331</ele><time>2026-04-10T09:25:38.001Z</time></trkpt><trkpt lat="44.32746762848532" lon="11.52438157495742"><ele>149.0</ele><time>2026-04-10T09:25:39.001Z</time></trkpt><trkpt lat="44.327302322638474" lon="11.524362287749044"><ele>149.0</ele><time>2026-04-10T09:25:40.001Z</time></trkpt><trkpt lat="44.32714429739173" lon="11.524337943782845"><ele>149.0</ele><time>2026-04-10T09:25:41.001Z</time></trkpt><trkpt lat="44.32699605633683" lon="11.524317920126055"><ele>149.0</ele><time>2026-04-10T09:25:42.001Z</time></trkpt><trkpt lat="44.32684944156651" lon="11.524308600110183"><ele>149.0</ele><time>2026-04-10T09:25:43.001Z</time></trkpt><trkpt lat="44.326700993428844" lon="11.524313583506354"><ele>149.0</ele><time>2026-04-10T09:25:44.001Z</time></trkpt><trkpt lat="44.32655169150989" lon="11.52433746929927"><ele>149.0</ele><time>2026-04-10T09:25:45.001Z</time></trkpt><trkpt lat="44.32641204770039" lon="11.524369258888209"><ele>149.0</ele><time>2026-04-10T09:25:46.001Z</time></trkpt><trkpt lat="44.326277875874" lon="11.524397630968423"><ele>147.75</ele><time>2026-04-10T09:25:47.001Z</time></trkpt><trkpt lat="44.32614931534673" lon="11.524419493264231"><ele>146.5</ele><time>2026-04-10T09:25:48.001Z</time></trkpt><trkpt lat="44.32602683867865" lon="11.524435523846991"><ele>145.25</ele><time>2026-04-10T09:25:49Z</time></trkpt><trkpt lat="44.325909859044806" lon="11.524408014185056"><ele>144.0</ele><time>2026-04-10T09:25:50Z</time></trkpt><trkpt lat="44.325817580854824" lon="11.524308474322414"><ele>144.0</ele><time>2026-04-10T09:25:51Z</time></trkpt><trkpt lat="44.32577850899457" lon="11.524161364673708"><ele>144.0</ele><time>2026-04-10T09:25:52Z</time></trkpt><trkpt lat="44.32579888345976" lon="11.524014663475356"><ele>144.0</ele><time>2026-04-10T09:25:53Z</time></trkpt><trkpt lat="44.325880035272284" lon="11.523883621441547"><ele>144.0</ele><time>2026-04-10T09:25:54Z</time></trkpt><trkpt lat="44.32597325215051" lon="11.523722836169004"><ele>143.0</ele><time>2026-04-10T09:25:55Z</time></trkpt><trkpt lat="44.32606823106869" lon="11.523531727392937"><ele>142.0</ele><time>2026-04-10T09:25:56Z</time></trkpt><trkpt lat="44.326184504512035" lon="11.523389799386987"><ele>141.0</ele><time>2026-04-10T09:25:57Z</time></trkpt><trkpt lat="44.326290498224786" lon="11.523261157736696"><ele>141.0</ele><time>2026-04-10T09:25:58Z</time></trkpt><trkpt lat="44.32638668245182" lon="11.52312856679172"><ele>141.0</ele><time>2026-04-10T09:25:59Z</time></trkpt><trkpt lat="44.32648535807327" lon="11.523007995539729"><ele>141.0</ele><time>2026-04-10T09:26:00Z</time></trkpt><trkpt lat="44.32651873060975" lon="11.522826858437224"><ele>141.0</ele><time>2026-04-10T09:26:01Z</time></trkpt><trkpt lat="44.32652884024817" lon="11.522650382926253"><ele>141.0</ele><time>2026-04-10T09:26:02Z</time></trkpt><trkpt lat="44.32649661570092" lon="11.522472250182824"><ele>141.0</ele><time>2026-04-10T09:26:03Z</time></trkpt><trkpt lat="44.326432786499005" lon="11.522295830108247"><ele>141.0</ele><time>2026-04-10T09:26:04Z</time></trkpt><trkpt lat="44.32635525288005" lon="11.522117005728"><ele>141.0</ele><time>2026-04-10T09:26:05Z</time></trkpt><trkpt lat="44.32625829367801" lon="11.521944525956846"><ele>142.33333333333334</ele><time>2026-04-10T09:26:06Z</time></trkpt><trkpt lat="44.32613802848226" lon="11.52179405667597"><ele>143.66666666666669</ele><time>2026-04-10T09:26:07Z</time></trkpt><trkpt lat="44.32600609059641" lon="11.521657757825782"><ele>145.0</ele><time>2026-04-10T09:26:08Z</time></trkpt><trkpt lat="44.325896743338625" lon="11.52149433405087"><ele>145.0</ele><time>2026-04-10T09:26:09Z</time></trkpt><trkpt lat="44.32579895406832" lon="11.521317457118483"><ele>145.0</ele><time>2026-04-10T09:26:10Z</time></trkpt><trkpt lat="44.325702922127746" lon="11.521126248535495"><ele>145.0</ele><time>2026-04-10T09:26:11Z</time></trkpt><trkpt lat="44.32559501050594" lon="11.52094487818782"><ele>145.33333333333334</ele><time>2026-04-10T09:26:12Z</time></trkpt><trkpt lat="44.325518554752804" lon="11.520752914069192"><ele>145.66666666666666</ele><time>2026-04-10T09:26:13Z</time></trkpt><trkpt lat="44.32543870203569" lon="11.52057029168446"><ele>146.0</ele><time>2026-04-10T09:26:14Z</time></trkpt><trkpt lat="44.32537333549709" lon="11.520374858485287"><ele>146.0</ele><time>2026-04-10T09:26:15Z</time></trkpt><trkpt lat="44.32532414265979" lon="11.520180549118738"><ele>146.0</ele><time>2026-04-10T09:26:16Z</time></trkpt><trkpt lat="44.32527416697808" lon="11.51999111876679"><ele>146.0</ele><time>2026-04-10T09:26:17Z</time></trkpt><trkpt lat="44.325237808543" lon="11.519795531986803"><ele>146.0</ele><time>2026-04-10T09:26:18Z</time></trkpt><trkpt lat="44.325172476011375" lon="11.519611610753062"><ele>146.75</ele><time>2026-04-10T09:26:19Z</time></trkpt><trkpt lat="44.32508605211183" lon="11.519445917466573"><ele>147.5</ele><time>2026-04-10T09:26:20Z</time></trkpt><trkpt lat="44.32498610924753" lon="11.519293762018131"><ele>148.25</ele><time>2026-04-10T09:26:21Z</time></trkpt><trkpt lat="44.324862462360336" lon="11.519166274456747"><ele>149.0</ele><time>2026-04-10T09:26:22Z</time></trkpt><trkpt lat="44.32472209063483" lon="11.519056109850126"><ele>149.0</ele><time>2026-04-10T09:26:23Z</time></trkpt><trkpt lat="44.32457046820603" lon="11.518944841018037"><ele>149.0</ele><time>2026-04-10T09:26:24Z</time></trkpt><trkpt lat="44.32442339071473" lon="11.518817800404099"><ele>149.0</ele><time>2026-04-10T09:26:25Z</time></trkpt><trkpt lat="44.32428066647115" lon="11.518703310141538"><ele>151.0</ele><time>2026-04-10T09:26:26Z</time></trkpt><trkpt lat="44.324134179447285" lon="11.518609971025116"><ele>153.0</ele><time>2026-04-10T09:26:27Z</time></trkpt><trkpt lat="44.323986934686815" lon="11.518547252957044"><ele>155.0</ele><time>2026-04-10T09:26:28Z</time></trkpt><trkpt lat="44.32383938655479" lon="11.518513564877049"><ele>156.0</ele><time>2026-04-10T09:26:29Z</time></trkpt><trkpt lat="44.323693056951306" lon="11.518507890941319"><ele>157.0</ele><time>2026-04-10T09:26:30Z</time></trkpt><trkpt lat="44.32355491598558" lon="11.518530913588439"><ele>158.0</ele><time>2026-04-10T09:26:31Z</time></trkpt><trkpt lat="44.32342448928181" lon="11.518550640421472"><ele>159.0</ele><time>2026-04-10T09:26:32Z</time></trkpt><trkpt lat="44.3232903423432" lon="11.518533499103132"><ele>159.0</ele><time>2026-04-10T09:26:33Z</time></trkpt><trkpt lat="44.32315820164058" lon="11.51845953591427"><ele>159.0</ele><time>2026-04-10T09:26:34Z</time></trkpt><trkpt lat="44.32303268721514" lon="11.518338008961969"><ele>159.0</ele><time>2026-04-10T09:26:35Z</time></trkpt><trkpt lat="44.32291383220135" lon="11.518236093834055"><ele>159.0</ele><time>2026-04-10T09:26:36Z</time></trkpt><trkpt lat="44.32278601409098" lon="11.518184128369468"><ele>159.0</ele><time>2026-04-10T09:26:37Z</time></trkpt><trkpt lat="44.322651791570166" lon="11.518178941822978"><ele>159.0</ele><time>2026-04-10T09:26:38Z</time></trkpt><trkpt lat="44.32252249595832" lon="11.51819940426863"><ele>159.0</ele><time>2026-04-10T09:26:39Z</time></trkpt><trkpt lat="44.322406378684896" lon="11.518220017516954"><ele>159.0</ele><time>2026-04-10T09:26:40Z</time></trkpt><trkpt lat="44.32229420246014" lon="11.518199413001504"><ele>158.75</ele><time>2026-04-10T09:26:41Z</time></trkpt><trkpt lat="44.32218906441474" lon="11.51813108312348"><ele>158.5</ele><time>2026-04-10T09:26:42Z</time></trkpt><trkpt lat="44.3221001756933" lon="11.518016556357294"><ele>158.25</ele><time>2026-04-10T09:26:43Z</time></trkpt><trkpt lat="44.3220332004545" lon="11.517850740029077"><ele>158.0</ele><time>2026-04-10T09:26:44Z</time></trkpt><trkpt lat="44.32196297629477" lon="11.517671484302719"><ele>158.0</ele><time>2026-04-10T09:26:45Z</time></trkpt><trkpt lat="44.32188519874186" lon="11.517477998816156"><ele>158.0</ele><time>2026-04-10T09:26:46Z</time></trkpt><trkpt lat="44.321800439983555" lon="11.517280588928465"><ele>158.0</ele><time>2026-04-10T09:26:47Z</time></trkpt><trkpt lat="44.321712918351864" lon="11.517090474153534"><ele>159.33333333333331</ele><time>2026-04-10T09:26:48Z</time></trkpt><trkpt lat="44.32162947442901" lon="11.516910420150133"><ele>160.66666666666666</ele><time>2026-04-10T09:26:49Z</time></trkpt><trkpt lat="44.32158187757512" lon="11.516713791117104"><ele>162.0</ele><time>2026-04-10T09:26:50Z</time></trkpt><trkpt lat="44.32154571225557" lon="11.51651199597527"><ele>162.0</ele><time>2026-04-10T09:26:51Z</time></trkpt><trkpt lat="44.32151608684674" lon="11.5163066021471"><ele>162.0</ele><time>2026-04-10T09:26:52Z</time></trkpt><trkpt lat="44.32147664274227" lon="11.516103158722936"><ele>162.0</ele><time>2026-04-10T09:26:53Z</time></trkpt><trkpt lat="44.321455582625205" lon="11.515894397030404"><ele>162.33333333333334</ele><time>2026-04-10T09:26:54Z</time></trkpt><trkpt lat="44.321463813259385" lon="11.515679586898838"><ele>162.66666666666669</ele><time>2026-04-10T09:26:55Z</time></trkpt><trkpt lat="44.32144093318235" lon="11.515452337960992"><ele>163.0</ele><time>2026-04-10T09:26:56Z</time></trkpt><trkpt lat="44.32145524845352" lon="11.515217960840351"><ele>163.0</ele><time>2026-04-10T09:26:57Z</time></trkpt><trkpt lat="44.3214778902205" lon="11.5149966712477"><ele>163.0</ele><time>2026-04-10T09:26:58Z</time></trkpt><trkpt lat="44.32150583290267" lon="11.514769283721412"><ele>163.0</ele><time>2026-04-10T09:26:59Z</time></trkpt><trkpt lat="44.32152226807474" lon="11.514538148762044"><ele>162.33333333333334</ele><time>2026-04-10T09:27:00Z</time></trkpt><trkpt lat="44.32153841665861" lon="11.514323501905759"><ele>161.66666666666666</ele><time>2026-04-10T09:27:01Z</time></trkpt><trkpt lat="44.32155582701056" lon="11.514106970670863"><ele>161.0</ele><time>2026-04-10T09:27:02Z</time></trkpt><trkpt lat="44.32156419402308" lon="11.513902298914525"><ele>160.5</ele><time>2026-04-10T09:27:03Z</time></trkpt><trkpt lat="44.32156597350428" lon="11.513699811725484"><ele>160.0</ele><time>2026-04-10T09:27:04Z</time></trkpt><trkpt lat="44.32155913963616" lon="11.513504749700129"><ele>159.5</ele><time>2026-04-10T09:27:05Z</time></trkpt><trkpt lat="44.32155910481501" lon="11.513309865557346"><ele>159.0</ele><time>2026-04-10T09:27:06Z</time></trkpt><trkpt lat="44.32163723138366" lon="11.513127731545973"><ele>159.0</ele><time>2026-04-10T09:27:07Z</time></trkpt><trkpt lat="44.32169066396001" lon="11.512936404421577"><ele>159.0</ele><time>2026-04-10T09:27:08Z</time></trkpt><trkpt lat="44.32174790358134" lon="11.512748194056972"><ele>159.0</ele><time>2026-04-10T09:27:09Z</time></trkpt><trkpt lat="44.32179106293587" lon="11.512558192849381"><ele>159.0</ele><time>2026-04-10T09:27:10Z</time></trkpt><trkpt lat="44.32182125857679" lon="11.51237410479613"><ele>158.75</ele><time>2026-04-10T09:27:11Z</time></trkpt><trkpt lat="44.32182542315136" lon="11.512182810038713"><ele>158.5</ele><time>2026-04-10T09:27:12Z</time></trkpt><trkpt lat="44.321792295841355" lon="11.511996554247435"><ele>158.25</ele><time>2026-04-10T09:27:13Z</time></trkpt><trkpt lat="44.32172165086421" lon="11.51182626683527"><ele>158.0</ele><time>2026-04-10T09:27:14Z</time></trkpt><trkpt lat="44.32160726624942" lon="11.511671333199104"><ele>158.66666666666666</ele><time>2026-04-10T09:27:15Z</time></trkpt><trkpt lat="44.32147802072207" lon="11.511511373572938"><ele>159.33333333333334</ele><time>2026-04-10T09:27:16Z</time></trkpt><trkpt lat="44.32134418969819" lon="11.511352100965524"><ele>160.0</ele><time>2026-04-10T09:27:17Z</time></trkpt><trkpt lat="44.321228817713916" lon="11.511184849814168"><ele>158.33333333333334</ele><time>2026-04-10T09:27:18Z</time></trkpt><trkpt lat="44.32109193317186" lon="11.511060025368474"><ele>156.66666666666666</ele><time>2026-04-10T09:27:19Z</time></trkpt><trkpt lat="44.3209493869822" lon="11.510973993613062"><ele>155.0</ele><time>2026-04-10T09:27:20Z</time></trkpt><trkpt lat="44.32082159696416" lon="11.510849237173389"><ele>155.0</ele><time>2026-04-10T09:27:21Z</time></trkpt><trkpt lat="44.32070821148806" lon="11.510694021695265"><ele>155.0</ele><time>2026-04-10T09:27:22Z</time></trkpt><trkpt lat="44.3205995375345" lon="11.510525370905393"><ele>155.0</ele><time>2026-04-10T09:27:23Z</time></trkpt><trkpt lat="44.32048949867562" lon="11.510372765885377"><ele>154.0</ele><time>2026-04-10T09:27:24Z</time></trkpt><trkpt lat="44.320386387361324" lon="11.510215813205244"><ele>153.0</ele><time>2026-04-10T09:27:25.001Z</time></trkpt><trkpt lat="44.32027204863686" lon="11.510088201585116"><ele>152.0</ele><time>2026-04-10T09:27:26.001Z</time></trkpt><trkpt lat="44.32016463385139" lon="11.509962057096699"><ele>151.0</ele><time>2026-04-10T09:27:27.001Z</time></trkpt><trkpt lat="44.320061780603794" lon="11.509831490256042"><ele>151.0</ele><time>2026-04-10T09:27:28.001Z</time></trkpt><trkpt lat="44.31999691772321" lon="11.509657722415902"><ele>151.0</ele><time>2026-04-10T09:27:29.001Z</time></trkpt><trkpt lat="44.31997404610323" lon="11.50946127660789"><ele>151.0</ele><time>2026-04-10T09:27:30.001Z</time></trkpt><trkpt lat="44.32001099907218" lon="11.509268202165961"><ele>151.0</ele><time>2026-04-10T09:27:31.001Z</time></trkpt><trkpt lat="44.3200688898502" lon="11.509067643494037"><ele>151.5</ele><time>2026-04-10T09:27:32.001Z</time></trkpt><trkpt lat="44.320094324267714" lon="11.508869296258927"><ele>152.0</ele><time>2026-04-10T09:27:33.001Z</time></trkpt><trkpt lat="44.32008612576605" lon="11.508670595568478"><ele>152.5</ele><time>2026-04-10T09:27:34.001Z</time></trkpt><trkpt lat="44.32004275723929" lon="11.508478417179855"><ele>153.0</ele><time>2026-04-10T09:27:35.001Z</time></trkpt><trkpt lat="44.31999531881765" lon="11.50828016030408"><ele>153.0</ele><time>2026-04-10T09:27:36.001Z</time></trkpt><trkpt lat="44.31995656106223" lon="11.508073740244276"><ele>153.0</ele><time>2026-04-10T09:27:37.001Z</time></trkpt><trkpt lat="44.31992432540316" lon="11.507853987401777"><ele>153.0</ele><time>2026-04-10T09:27:38.001Z</time></trkpt><trkpt lat="44.31988625290323" lon="11.5076253852253"><ele>154.33333333333334</ele><time>2026-04-10T09:27:39.001Z</time></trkpt><trkpt lat="44.31986435794446" lon="11.507383062599706"><ele>155.66666666666669</ele><time>2026-04-10T09:27:40.001Z</time></trkpt><trkpt lat="44.31982386788484" lon="11.507138614006536"><ele>157.0</ele><time>2026-04-10T09:27:41.001Z</time></trkpt><trkpt lat="44.31978350667899" lon="11.506894943476624"><ele>159.33333333333334</ele><time>2026-04-10T09:27:42.001Z</time></trkpt><trkpt lat="44.31974260898969" lon="11.506648034001397"><ele>161.66666666666666</ele><time>2026-04-10T09:27:43.001Z</time></trkpt><trkpt lat="44.31970075755177" lon="11.506394195072122"><ele>164.0</ele><time>2026-04-10T09:27:44.001Z</time></trkpt><trkpt lat="44.31965835571407" lon="11.506134724051503"><ele>159.66666666666666</ele><time>2026-04-10T09:27:45.001Z</time></trkpt><trkpt lat="44.319615223816974" lon="11.505871781920659"><ele>155.33333333333334</ele><time>2026-04-10T09:27:46.001Z</time></trkpt><trkpt lat="44.31957238787262" lon="11.505610924506943"><ele>151.0</ele><time>2026-04-10T09:27:47.001Z</time></trkpt><trkpt lat="44.31951556150112" lon="11.505357804510183"><ele>151.0</ele><time>2026-04-10T09:27:48.001Z</time></trkpt><trkpt lat="44.31947365968091" lon="11.505096987537538"><ele>151.0</ele><time>2026-04-10T09:27:49.001Z</time></trkpt><trkpt lat="44.319436072349795" lon="11.50483628595934"><ele>151.0</ele><time>2026-04-10T09:27:50.001Z</time></trkpt><trkpt lat="44.31940061292221" lon="11.504574026872463"><ele>151.33333333333334</ele><time>2026-04-10T09:27:51.001Z</time></trkpt><trkpt lat="44.319370376549294" lon="11.504314447024969"><ele>151.66666666666666</ele><time>2026-04-10T09:27:52.001Z</time></trkpt><trkpt lat="44.319343206752045" lon="11.504051473658512"><ele>152.0</ele><time>2026-04-10T09:27:53.001Z</time></trkpt><trkpt lat="44.319329704634285" lon="11.50378797527192"><ele>153.33333333333331</ele><time>2026-04-10T09:27:54.001Z</time></trkpt><trkpt lat="44.31934673028886" lon="11.503532920043966"><ele>154.66666666666666</ele><time>2026-04-10T09:27:55Z</time></trkpt><trkpt lat="44.319388225743225" lon="11.50328989131857"><ele>156.0</ele><time>2026-04-10T09:27:56Z</time></trkpt><trkpt lat="44.31945122596712" lon="11.503066950381667"><ele>155.33333333333334</ele><time>2026-04-10T09:27:57Z</time></trkpt><trkpt lat="44.3195241030755" lon="11.50286049148471"><ele>154.66666666666669</ele><time>2026-04-10T09:27:58Z</time></trkpt><trkpt lat="44.31960171303739" lon="11.502673955411408"><ele>154.0</ele><time>2026-04-10T09:27:59Z</time></trkpt><trkpt lat="44.319671645211606" lon="11.502499508845522"><ele>154.0</ele><time>2026-04-10T09:28:00Z</time></trkpt><trkpt lat="44.31972896610124" lon="11.50232690317877"><ele>154.0</ele><time>2026-04-10T09:28:01Z</time></trkpt><trkpt lat="44.31976713074678" lon="11.502148561112028"><ele>154.0</ele><time>2026-04-10T09:28:02Z</time></trkpt><trkpt lat="44.31978513677299" lon="11.501952004267766"><ele>154.0</ele><time>2026-04-10T09:28:03Z</time></trkpt><trkpt lat="44.31978843277742" lon="11.501759685590859"><ele>155.5</ele><time>2026-04-10T09:28:04Z</time></trkpt><trkpt lat="44.31977830080598" lon="11.501581130353713"><ele>157.0</ele><time>2026-04-10T09:28:05Z</time></trkpt><trkpt lat="44.319780735151" lon="11.501410032733114"><ele>158.5</ele><time>2026-04-10T09:28:06Z</time></trkpt><trkpt lat="44.31975465842774" lon="11.501246763032091"><ele>160.0</ele><time>2026-04-10T09:28:07Z</time></trkpt><trkpt lat="44.3197606243473" lon="11.501073611081411"><ele>160.75</ele><time>2026-04-10T09:28:08Z</time></trkpt><trkpt lat="44.31978056130606" lon="11.500893359298985"><ele>161.5</ele><time>2026-04-10T09:28:09Z</time></trkpt><trkpt lat="44.31979531980033" lon="11.500712702542472"><ele>162.25</ele><time>2026-04-10T09:28:10Z</time></trkpt><trkpt lat="44.31980120938473" lon="11.500526610888544"><ele>163.0</ele><time>2026-04-10T09:28:11Z</time></trkpt><trkpt lat="44.31976249680906" lon="11.500335506537471"><ele>161.75</ele><time>2026-04-10T09:28:12Z</time></trkpt><trkpt lat="44.319729517357565" lon="11.50013020847773"><ele>160.5</ele><time>2026-04-10T09:28:13Z</time></trkpt><trkpt lat="44.31971989614491" lon="11.499924406120101"><ele>159.25</ele><time>2026-04-10T09:28:14Z</time></trkpt><trkpt lat="44.319700442436" lon="11.499729820719821"><ele>158.0</ele><time>2026-04-10T09:28:15Z</time></trkpt><trkpt lat="44.31965916511938" lon="11.499541468774872"><ele>158.0</ele><time>2026-04-10T09:28:16Z</time></trkpt><trkpt lat="44.31963068256837" lon="11.499343169250936"><ele>158.0</ele><time>2026-04-10T09:28:17Z</time></trkpt><trkpt lat="44.3195618795539" lon="11.499156019067588"><ele>158.0</ele><time>2026-04-10T09:28:18Z</time></trkpt><trkpt lat="44.319471888753334" lon="11.498981533487708"><ele>158.0</ele><time>2026-04-10T09:28:19Z</time></trkpt><trkpt lat="44.31938882530436" lon="11.498816031433853"><ele>158.5</ele><time>2026-04-10T09:28:20Z</time></trkpt><trkpt lat="44.3193228676798" lon="11.498646544374429"><ele>159.0</ele><time>2026-04-10T09:28:21Z</time></trkpt><trkpt lat="44.31928022200573" lon="11.498462792438946"><ele>159.5</ele><time>2026-04-10T09:28:22Z</time></trkpt><trkpt lat="44.3192644680913" lon="11.498259955033697"><ele>160.0</ele><time>2026-04-10T09:28:23Z</time></trkpt><trkpt lat="44.319259472578615" lon="11.498041535041171"><ele>159.66666666666669</ele><time>2026-04-10T09:28:24Z</time></trkpt><trkpt lat="44.319280068579964" lon="11.497820343133691"><ele>159.33333333333334</ele><time>2026-04-10T09:28:25Z</time></trkpt><trkpt lat="44.319309534301546" lon="11.49759040766272"><ele>159.0</ele><time>2026-04-10T09:28:26Z</time></trkpt><trkpt lat="44.31935162011374" lon="11.497362721758712"><ele>159.0</ele><time>2026-04-10T09:28:27Z</time></trkpt><trkpt lat="44.31940226367437" lon="11.497137318443981"><ele>159.0</ele><time>2026-04-10T09:28:28Z</time></trkpt><trkpt lat="44.319454792636115" lon="11.496921694719152"><ele>159.0</ele><time>2026-04-10T09:28:29Z</time></trkpt><trkpt lat="44.3195074745014" lon="11.496705981468635"><ele>159.0</ele><time>2026-04-10T09:28:30Z</time></trkpt><trkpt lat="44.31954899532255" lon="11.496495970400881"><ele>159.0</ele><time>2026-04-10T09:28:31Z</time></trkpt><trkpt lat="44.31957078141478" lon="11.496281617989096"><ele>159.0</ele><time>2026-04-10T09:28:32Z</time></trkpt><trkpt lat="44.31957444846524" lon="11.496070282486524"><ele>159.25</ele><time>2026-04-10T09:28:33Z</time></trkpt><trkpt lat="44.31956080753241" lon="11.495862764419863"><ele>159.5</ele><time>2026-04-10T09:28:34Z</time></trkpt><trkpt lat="44.31954331411411" lon="11.49566908010117"><ele>159.75</ele><time>2026-04-10T09:28:35Z</time></trkpt><trkpt lat="44.31953354583415" lon="11.495480091814883"><ele>160.0</ele><time>2026-04-10T09:28:36Z</time></trkpt><trkpt lat="44.31953239412635" lon="11.495281278879965"><ele>160.25</ele><time>2026-04-10T09:28:37Z</time></trkpt><trkpt lat="44.319566836287116" lon="11.495085813513398"><ele>160.5</ele><time>2026-04-10T09:28:38Z</time></trkpt><trkpt lat="44.31960809156366" lon="11.494884751849522"><ele>160.75</ele><time>2026-04-10T09:28:39Z</time></trkpt><trkpt lat="44.31966054918792" lon="11.494681591839983"><ele>161.0</ele><time>2026-04-10T09:28:40Z</time></trkpt><trkpt lat="44.3197168702288" lon="11.494483301218677"><ele>163.0</ele><time>2026-04-10T09:28:41Z</time></trkpt><trkpt lat="44.31976488266174" lon="11.49429753027665"><ele>165.0</ele><time>2026-04-10T09:28:42Z</time></trkpt><trkpt lat="44.319817323010945" lon="11.494115035602508"><ele>167.0</ele><time>2026-04-10T09:28:43Z</time></trkpt><trkpt lat="44.31983359416742" lon="11.493910357830455"><ele>169.0</ele><time>2026-04-10T09:28:44Z</time></trkpt><trkpt lat="44.3198232040687" lon="11.49370351630354"><ele>168.5</ele><time>2026-04-10T09:28:45Z</time></trkpt><trkpt lat="44.319788481231775" lon="11.49351143910732"><ele>168.0</ele><time>2026-04-10T09:28:46Z</time></trkpt><trkpt lat="44.31972630622243" lon="11.493336341195654"><ele>167.5</ele><time>2026-04-10T09:28:47Z</time></trkpt><trkpt lat="44.31964971129491" lon="11.493171902156647"><ele>167.0</ele><time>2026-04-10T09:28:48Z</time></trkpt><trkpt lat="44.319583446781756" lon="11.493004197501076"><ele>168.75</ele><time>2026-04-10T09:28:49Z</time></trkpt><trkpt lat="44.31952145514047" lon="11.492827797673556"><ele>170.5</ele><time>2026-04-10T09:28:50Z</time></trkpt><trkpt lat="44.319471042479" lon="11.492633371900524"><ele>172.25</ele><time>2026-04-10T09:28:51Z</time></trkpt><trkpt lat="44.319426256138755" lon="11.4924341596447"><ele>174.0</ele><time>2026-04-10T09:28:52Z</time></trkpt><trkpt lat="44.31937357717247" lon="11.492249876539177"><ele>173.0</ele><time>2026-04-10T09:28:53Z</time></trkpt><trkpt lat="44.319353391976136" lon="11.492046145127157"><ele>172.0</ele><time>2026-04-10T09:28:54Z</time></trkpt><trkpt lat="44.31934068940012" lon="11.491829033282317"><ele>171.0</ele><time>2026-04-10T09:28:55Z</time></trkpt><trkpt lat="44.31936217634529" lon="11.491603886565844"><ele>171.0</ele><time>2026-04-10T09:28:56Z</time></trkpt><trkpt lat="44.31937401435982" lon="11.491375130938698"><ele>171.0</ele><time>2026-04-10T09:28:57Z</time></trkpt><trkpt lat="44.31938274843674" lon="11.491132969723488"><ele>171.0</ele><time>2026-04-10T09:28:58Z</time></trkpt><trkpt lat="44.31942282314136" lon="11.490894127116988"><ele>169.33333333333334</ele><time>2026-04-10T09:28:59Z</time></trkpt><trkpt lat="44.31946482295437" lon="11.490651453333982"><ele>167.66666666666669</ele><time>2026-04-10T09:29:00Z</time></trkpt><trkpt lat="44.319492068120404" lon="11.490401262694139"><ele>166.0</ele><time>2026-04-10T09:29:01Z</time></trkpt><trkpt lat="44.31951493688218" lon="11.490145225901694"><ele>166.0</ele><time>2026-04-10T09:29:02Z</time></trkpt><trkpt lat="44.319510394712516" lon="11.489894546772481"><ele>166.0</ele><time>2026-04-10T09:29:03Z</time></trkpt><trkpt lat="44.31950761472997" lon="11.489649926752183"><ele>166.0</ele><time>2026-04-10T09:29:04Z</time></trkpt><trkpt lat="44.319495667922936" lon="11.489408648985483"><ele>166.0</ele><time>2026-04-10T09:29:05Z</time></trkpt><trkpt lat="44.31953386098534" lon="11.489173865926086"><ele>166.0</ele><time>2026-04-10T09:29:06Z</time></trkpt><trkpt lat="44.31959543667525" lon="11.48894699791827"><ele>166.0</ele><time>2026-04-10T09:29:07Z</time></trkpt><trkpt lat="44.319664679521885" lon="11.488719965737577"><ele>170.0</ele><time>2026-04-10T09:29:08Z</time></trkpt><trkpt lat="44.31974079825744" lon="11.488493791014319"><ele>174.0</ele><time>2026-04-10T09:29:09Z</time></trkpt><trkpt lat="44.31976768194034" lon="11.488239094516075"><ele>178.0</ele><time>2026-04-10T09:29:10Z</time></trkpt><trkpt lat="44.319751779916295" lon="11.487988139841146"><ele>178.66666666666669</ele><time>2026-04-10T09:29:11Z</time></trkpt><trkpt lat="44.31974104052577" lon="11.487741581437831"><ele>179.33333333333334</ele><time>2026-04-10T09:29:12Z</time></trkpt><trkpt lat="44.31974764783657" lon="11.487502557468643"><ele>180.0</ele><time>2026-04-10T09:29:13Z</time></trkpt><trkpt lat="44.319743163703606" lon="11.487276844204908"><ele>179.25</ele><time>2026-04-10T09:29:14Z</time></trkpt><trkpt lat="44.31974081567481" lon="11.487064535159343"><ele>178.5</ele><time>2026-04-10T09:29:15Z</time></trkpt><trkpt lat="44.319785249227614" lon="11.486872135537272"><ele>177.75</ele><time>2026-04-10T09:29:16Z</time></trkpt><trkpt lat="44.319862999939005" lon="11.486708050140852"><ele>177.0</ele><time>2026-04-10T09:29:17Z</time></trkpt><trkpt lat="44.3199531389249" lon="11.486564486434608"><ele>177.0</ele><time>2026-04-10T09:29:18Z</time></trkpt><trkpt lat="44.320044502693044" lon="11.48643396596645"><ele>177.0</ele><time>2026-04-10T09:29:19Z</time></trkpt><trkpt lat="44.32011996409865" lon="11.486300813644958"><ele>177.0</ele><time>2026-04-10T09:29:20Z</time></trkpt><trkpt lat="44.32017525114615" lon="11.486149805005432"><ele>177.0</ele><time>2026-04-10T09:29:21Z</time></trkpt><trkpt lat="44.32021210351394" lon="11.485992070655817"><ele>176.25</ele><time>2026-04-10T09:29:22Z</time></trkpt><trkpt lat="44.32022984444206" lon="11.485823086295483"><ele>175.5</ele><time>2026-04-10T09:29:23Z</time></trkpt><trkpt lat="44.32023300095208" lon="11.485642608348655"><ele>174.75</ele><time>2026-04-10T09:29:24.001Z</time></trkpt><trkpt lat="44.32022930823864" lon="11.485461564472565"><ele>174.0</ele><time>2026-04-10T09:29:25.001Z</time></trkpt><trkpt lat="44.3202304640542" lon="11.485280645685453"><ele>173.75</ele><time>2026-04-10T09:29:26.001Z</time></trkpt><trkpt lat="44.32023383810653" lon="11.485096388604948"><ele>173.5</ele><time>2026-04-10T09:29:27.001Z</time></trkpt><trkpt lat="44.3202347493287" lon="11.484927833700258"><ele>173.25</ele><time>2026-04-10T09:29:28.001Z</time></trkpt><trkpt lat="44.32023773069057" lon="11.484775448104903"><ele>173.0</ele><time>2026-04-10T09:29:29.001Z</time></trkpt><trkpt lat="44.32023734960687" lon="11.48464887715227"><ele>173.0</ele><time>2026-04-10T09:29:30.001Z</time></trkpt><trkpt lat="44.320241213027785" lon="11.484556067792234"><ele>173.0</ele><time>2026-04-10T09:29:31.001Z</time></trkpt><trkpt lat="44.32025217275302" lon="11.48446219346377"><ele>173.0</ele><time>2026-04-10T09:29:33.001Z</time></trkpt><trkpt lat="44.32025047049998" lon="11.484365233751053"><ele>173.0</ele><time>2026-04-10T09:29:37.001Z</time></trkpt><trkpt lat="44.320175461687185" lon="11.484468963365893"><ele>173.0</ele><time>2026-04-10T09:29:42.001Z</time></trkpt><trkpt lat="44.32011650171387" lon="11.484618477606217"><ele>173.0</ele><time>2026-04-10T09:29:43.001Z</time></trkpt><trkpt lat="44.32020797104908" lon="11.484730982487413"><ele>173.0</ele><time>2026-04-10T09:29:44.001Z</time></trkpt><trkpt lat="44.32020806753506" lon="11.484840190636953"><ele>173.0</ele><time>2026-04-10T09:29:45.001Z</time></trkpt><trkpt lat="44.32020970921713" lon="11.484934596194567"><ele>173.0</ele><time>2026-04-10T09:29:46.001Z</time></trkpt><trkpt lat="44.32021607782403" lon="11.485091311047634"><ele>173.0</ele><time>2026-04-10T09:29:48.001Z</time></trkpt><trkpt lat="44.32018132496516" lon="11.48516666036925"><ele>173.0</ele><time>2026-04-10T09:29:50.001Z</time></trkpt><trkpt lat="44.32006638529432" lon="11.485133147958052"><ele>173.0</ele><time>2026-04-10T09:29:52.001Z</time></trkpt><trkpt lat="44.31999973213097" lon="11.485136157675042"><ele>173.0</ele><time>2026-04-10T09:29:53.001Z</time></trkpt><trkpt lat="44.319919062404345" lon="11.48514384393336"><ele>173.0</ele><time>2026-04-10T09:29:54.001Z</time></trkpt><trkpt lat="44.31982495314629" lon="11.485158078501039"><ele>173.0</ele><time>2026-04-10T09:29:55.001Z</time></trkpt><trkpt lat="44.31973004357138" lon="11.485181532246223"><ele>173.0</ele><time>2026-04-10T09:29:56.001Z</time></trkpt><trkpt lat="44.319634604091874" lon="11.485215982984599"><ele>173.0</ele><time>2026-04-10T09:29:57.001Z</time></trkpt><trkpt lat="44.31954655699199" lon="11.485253822412455"><ele>172.60000000000002</ele><time>2026-04-10T09:29:58.001Z</time></trkpt><trkpt lat="44.319455782812575" lon="11.48528110173186"><ele>172.20000000000002</ele><time>2026-04-10T09:29:59.001Z</time></trkpt><trkpt lat="44.319365186491446" lon="11.485325226749461"><ele>171.8</ele><time>2026-04-10T09:30:00.001Z</time></trkpt><trkpt lat="44.31926582591114" lon="11.485337857883867"><ele>171.4</ele><time>2026-04-10T09:30:01Z</time></trkpt><trkpt lat="44.31916252879379" lon="11.485347781627286"><ele>171.0</ele><time>2026-04-10T09:30:02Z</time></trkpt><trkpt lat="44.319064354036485" lon="11.48535005598508"><ele>171.0</ele><time>2026-04-10T09:30:03Z</time></trkpt><trkpt lat="44.31897138654811" lon="11.485330159472795"><ele>171.0</ele><time>2026-04-10T09:30:04Z</time></trkpt><trkpt lat="44.31887383162035" lon="11.485329653286396"><ele>171.0</ele><time>2026-04-10T09:30:05Z</time></trkpt><trkpt lat="44.31877509485518" lon="11.485332669717012"><ele>171.0</ele><time>2026-04-10T09:30:06Z</time></trkpt><trkpt lat="44.31868426184999" lon="11.485343562827534"><ele>171.0</ele><time>2026-04-10T09:30:07Z</time></trkpt><trkpt lat="44.31859953154702" lon="11.485376274755073"><ele>170.66666666666666</ele><time>2026-04-10T09:30:08Z</time></trkpt><trkpt lat="44.31851299857664" lon="11.485383475520639"><ele>170.33333333333334</ele><time>2026-04-10T09:30:09Z</time></trkpt><trkpt lat="44.31842963254201" lon="11.485410530350734"><ele>170.0</ele><time>2026-04-10T09:30:10Z</time></trkpt><trkpt lat="44.31834767495257" lon="11.485432729106297"><ele>169.66666666666669</ele><time>2026-04-10T09:30:11Z</time></trkpt><trkpt lat="44.31826823763289" lon="11.485451794673939"><ele>169.33333333333334</ele><time>2026-04-10T09:30:12Z</time></trkpt><trkpt lat="44.31819005899326" lon="11.48547686371235"><ele>169.0</ele><time>2026-04-10T09:30:13Z</time></trkpt><trkpt lat="44.318116570480036" lon="11.485500173716126"><ele>168.83333333333334</ele><time>2026-04-10T09:30:14Z</time></trkpt><trkpt lat="44.31804238390738" lon="11.485520211703562"><ele>168.66666666666669</ele><time>2026-04-10T09:30:15Z</time></trkpt><trkpt lat="44.317973924837986" lon="11.485520531685978"><ele>168.5</ele><time>2026-04-10T09:30:16Z</time></trkpt><trkpt lat="44.31790363539621" lon="11.48553602557874"><ele>168.33333333333334</ele><time>2026-04-10T09:30:17Z</time></trkpt><trkpt lat="44.31784320122467" lon="11.485573121591491"><ele>168.16666666666666</ele><time>2026-04-10T09:30:18Z</time></trkpt><trkpt lat="44.31771249185767" lon="11.48557145583172"><ele>168.0</ele><time>2026-04-10T09:30:20Z</time></trkpt><trkpt lat="44.317629894827014" lon="11.485596721734398"><ele>168.0</ele><time>2026-04-10T09:30:21Z</time></trkpt><trkpt lat="44.31753130342275" lon="11.48559855784804"><ele>168.0</ele><time>2026-04-10T09:30:22Z</time></trkpt><trkpt lat="44.3174268702169" lon="11.48560547635177"><ele>168.0</ele><time>2026-04-10T09:30:23Z</time></trkpt><trkpt lat="44.317312265029" lon="11.485610707805373"><ele>168.0</ele><time>2026-04-10T09:30:24Z</time></trkpt><trkpt lat="44.31719020599008" lon="11.485594637985928"><ele>168.0</ele><time>2026-04-10T09:30:25Z</time></trkpt><trkpt lat="44.31708374944169" lon="11.485602796278968"><ele>167.4</ele><time>2026-04-10T09:30:26Z</time></trkpt><trkpt lat="44.316988729495606" lon="11.485610045186148"><ele>166.8</ele><time>2026-04-10T09:30:27Z</time></trkpt><trkpt lat="44.31689142582675" lon="11.48561746825684"><ele>166.2</ele><time>2026-04-10T09:30:28Z</time></trkpt><trkpt lat="44.31679661020009" lon="11.485624701577157"><ele>165.6</ele><time>2026-04-10T09:30:29Z</time></trkpt><trkpt lat="44.316703582312975" lon="11.485632786533117"><ele>165.0</ele><time>2026-04-10T09:30:30Z</time></trkpt><trkpt lat="44.31661288452991" lon="11.485641374798092"><ele>165.0</ele><time>2026-04-10T09:30:31Z</time></trkpt><trkpt lat="44.31652550299895" lon="11.485651696746428"><ele>165.0</ele><time>2026-04-10T09:30:32Z</time></trkpt><trkpt lat="44.316440265267154" lon="11.485660027719648"><ele>165.0</ele><time>2026-04-10T09:30:33Z</time></trkpt><trkpt lat="44.316365839286696" lon="11.485670602225854"><ele>165.0</ele><time>2026-04-10T09:30:34Z</time></trkpt><trkpt lat="44.31625436816937" lon="11.485732420853118"><ele>165.0</ele><time>2026-04-10T09:30:36Z</time></trkpt><trkpt lat="44.31620407483866" lon="11.485798210675245"><ele>165.0</ele><time>2026-04-10T09:30:37Z</time></trkpt><trkpt lat="44.31616182043844" lon="11.485870567774727"><ele>165.4</ele><time>2026-04-10T09:30:38Z</time></trkpt><trkpt lat="44.31613174138097" lon="11.485975521083438"><ele>165.8</ele><time>2026-04-10T09:30:39Z</time></trkpt><trkpt lat="44.31608716033948" lon="11.486084085445183"><ele>166.2</ele><time>2026-04-10T09:30:40Z</time></trkpt><trkpt lat="44.316042226860034" lon="11.48619912127931"><ele>166.6</ele><time>2026-04-10T09:30:41Z</time></trkpt><trkpt lat="44.31599728439467" lon="11.486317527931716"><ele>167.0</ele><time>2026-04-10T09:30:42Z</time></trkpt><trkpt lat="44.315950989803355" lon="11.486432591474715"><ele>167.6</ele><time>2026-04-10T09:30:43Z</time></trkpt><trkpt lat="44.315903286980706" lon="11.486543351894063"><ele>168.2</ele><time>2026-04-10T09:30:44Z</time></trkpt><trkpt lat="44.31585387522502" lon="11.4866589512892"><ele>168.8</ele><time>2026-04-10T09:30:45Z</time></trkpt><trkpt lat="44.31580743530704" lon="11.486773354158615"><ele>169.4</ele><time>2026-04-10T09:30:46Z</time></trkpt><trkpt lat="44.31575841413968" lon="11.48688299420051"><ele>170.0</ele><time>2026-04-10T09:30:47Z</time></trkpt><trkpt lat="44.315714030987884" lon="11.486989059405074"><ele>170.0</ele><time>2026-04-10T09:30:48Z</time></trkpt><trkpt lat="44.315663542667636" lon="11.487083808564515"><ele>170.0</ele><time>2026-04-10T09:30:49Z</time></trkpt><trkpt lat="44.3156208398664" lon="11.487180803584957"><ele>170.0</ele><time>2026-04-10T09:30:50Z</time></trkpt><trkpt lat="44.315582395410914" lon="11.487278744508155"><ele>170.0</ele><time>2026-04-10T09:30:51Z</time></trkpt><trkpt lat="44.31555500360859" lon="11.487374312161757"><ele>170.0</ele><time>2026-04-10T09:30:52Z</time></trkpt><trkpt lat="44.31554232100011" lon="11.487463541547735"><ele>170.0</ele><time>2026-04-10T09:30:53Z</time></trkpt><trkpt lat="44.3155401915916" lon="11.487560867593182"><ele>170.33333333333331</ele><time>2026-04-10T09:30:54Z</time></trkpt><trkpt lat="44.31554824593696" lon="11.487667531021987"><ele>170.66666666666666</ele><time>2026-04-10T09:30:55Z</time></trkpt><trkpt lat="44.31556175632052" lon="11.487777219972097"><ele>171.0</ele><time>2026-04-10T09:30:56Z</time></trkpt><trkpt lat="44.31558442143094" lon="11.487886785105339"><ele>171.33333333333334</ele><time>2026-04-10T09:30:57Z</time></trkpt><trkpt lat="44.31560892045526" lon="11.48800084562649"><ele>171.66666666666669</ele><time>2026-04-10T09:30:58Z</time></trkpt><trkpt lat="44.31563437256855" lon="11.488117148474759"><ele>172.0</ele><time>2026-04-10T09:30:59Z</time></trkpt><trkpt lat="44.315660378920576" lon="11.488235046382984"><ele>170.39999999999998</ele><time>2026-04-10T09:31:00Z</time></trkpt><trkpt lat="44.31566534627553" lon="11.488345692772324"><ele>168.79999999999998</ele><time>2026-04-10T09:31:01Z</time></trkpt><trkpt lat="44.315675493227815" lon="11.488440584456628"><ele>167.2</ele><time>2026-04-10T09:31:02Z</time></trkpt><trkpt lat="44.315673922075476" lon="11.488618021364998"><ele>165.6</ele><time>2026-04-10T09:31:04Z</time></trkpt><trkpt lat="44.315647821249456" lon="11.488703713157198"><ele>164.0</ele><time>2026-04-10T09:31:05Z</time></trkpt><trkpt lat="44.31557603125811" lon="11.488844021438885"><ele>164.83333333333331</ele><time>2026-04-10T09:31:07Z</time></trkpt><trkpt lat="44.315489829970204" lon="11.488964532124475"><ele>165.66666666666666</ele><time>2026-04-10T09:31:09Z</time></trkpt><trkpt lat="44.31542457992253" lon="11.488977417019509"><ele>166.5</ele><time>2026-04-10T09:31:10Z</time></trkpt><trkpt lat="44.31536004629892" lon="11.488993948368542"><ele>167.33333333333334</ele><time>2026-04-10T09:31:11Z</time></trkpt><trkpt lat="44.31529374851135" lon="11.489032068041379"><ele>168.16666666666669</ele><time>2026-04-10T09:31:12Z</time></trkpt><trkpt lat="44.315188178722394" lon="11.489090217889743"><ele>169.0</ele><time>2026-04-10T09:31:14Z</time></trkpt><trkpt lat="44.31513250599902" lon="11.489208306419737"><ele>169.0</ele><time>2026-04-10T09:31:16Z</time></trkpt><trkpt lat="44.31512190534391" lon="11.489296105952944"><ele>169.0</ele><time>2026-04-10T09:31:17Z</time></trkpt><trkpt lat="44.31512112137409" lon="11.489397353714649"><ele>169.0</ele><time>2026-04-10T09:31:18Z</time></trkpt><trkpt lat="44.315136083228175" lon="11.48950982502334"><ele>169.0</ele><time>2026-04-10T09:31:19Z</time></trkpt><trkpt lat="44.315157341854935" lon="11.489632805517658"><ele>169.0</ele><time>2026-04-10T09:31:20Z</time></trkpt><trkpt lat="44.3151731543793" lon="11.489753530615468"><ele>169.0</ele><time>2026-04-10T09:31:21Z</time></trkpt><trkpt lat="44.31518153926946" lon="11.489885200033742"><ele>169.39999999999998</ele><time>2026-04-10T09:31:22Z</time></trkpt><trkpt lat="44.315192171141675" lon="11.490027352070939"><ele>169.8</ele><time>2026-04-10T09:31:23Z</time></trkpt><trkpt lat="44.31520343280529" lon="11.490176472301123"><ele>170.2</ele><time>2026-04-10T09:31:24Z</time></trkpt><trkpt lat="44.31521250529603" lon="11.49031648029158"><ele>170.60000000000002</ele><time>2026-04-10T09:31:25Z</time></trkpt><trkpt lat="44.31521833989841" lon="11.490457854147808"><ele>171.0</ele><time>2026-04-10T09:31:26Z</time></trkpt><trkpt lat="44.3152234266853" lon="11.490598971205083"><ele>171.0</ele><time>2026-04-10T09:31:27Z</time></trkpt><trkpt lat="44.31522691319796" lon="11.490740692766297"><ele>171.0</ele><time>2026-04-10T09:31:28Z</time></trkpt><trkpt lat="44.31523131505407" lon="11.490889822667118"><ele>171.0</ele><time>2026-04-10T09:31:29Z</time></trkpt><trkpt lat="44.315233088341564" lon="11.49103916744688"><ele>171.0</ele><time>2026-04-10T09:31:30Z</time></trkpt><trkpt lat="44.31523840166764" lon="11.491188862578477"><ele>171.0</ele><time>2026-04-10T09:31:31Z</time></trkpt><trkpt lat="44.315238059366564" lon="11.491341023388275"><ele>170.25</ele><time>2026-04-10T09:31:32Z</time></trkpt><trkpt lat="44.315234890059635" lon="11.491501753564703"><ele>169.5</ele><time>2026-04-10T09:31:33Z</time></trkpt><trkpt lat="44.31523199570113" lon="11.491663648004652"><ele>168.75</ele><time>2026-04-10T09:31:34Z</time></trkpt><trkpt lat="44.315224440396854" lon="11.491828891728083"><ele>168.0</ele><time>2026-04-10T09:31:35Z</time></trkpt><trkpt lat="44.31522132247451" lon="11.491996684861176"><ele>167.75</ele><time>2026-04-10T09:31:36Z</time></trkpt><trkpt lat="44.31521173974237" lon="11.492172620368798"><ele>167.5</ele><time>2026-04-10T09:31:37Z</time></trkpt><trkpt lat="44.31521096459085" lon="11.49233588039458"><ele>167.25</ele><time>2026-04-10T09:31:38Z</time></trkpt><trkpt lat="44.31520965369554" lon="11.492497731477494"><ele>167.0</ele><time>2026-04-10T09:31:39.001Z</time></trkpt><trkpt lat="44.315204616346975" lon="11.492665817036322"><ele>167.0</ele><time>2026-04-10T09:31:40.001Z</time></trkpt><trkpt lat="44.31520645640383" lon="11.492830741608651"><ele>167.0</ele><time>2026-04-10T09:31:41.001Z</time></trkpt><trkpt lat="44.315208339329274" lon="11.49299614102796"><ele>167.0</ele><time>2026-04-10T09:31:42.001Z</time></trkpt><trkpt lat="44.31521184773048" lon="11.493164768174303"><ele>167.0</ele><time>2026-04-10T09:31:43.001Z</time></trkpt><trkpt lat="44.315217917205004" lon="11.493331970346393"><ele>166.5</ele><time>2026-04-10T09:31:44.001Z</time></trkpt><trkpt lat="44.315224281935265" lon="11.49350805270012"><ele>166.0</ele><time>2026-04-10T09:31:45.001Z</time></trkpt><trkpt lat="44.31524032020182" lon="11.49368124109725"><ele>165.5</ele><time>2026-04-10T09:31:46.001Z</time></trkpt><trkpt lat="44.315257740866656" lon="11.493848694378917"><ele>165.0</ele><time>2026-04-10T09:31:47.001Z</time></trkpt><trkpt lat="44.31527690346465" lon="11.494020152237796"><ele>165.0</ele><time>2026-04-10T09:31:48.001Z</time></trkpt><trkpt lat="44.31529390268079" lon="11.49419478240014"><ele>165.0</ele><time>2026-04-10T09:31:49.001Z</time></trkpt><trkpt lat="44.315311274631526" lon="11.494366817784167"><ele>165.0</ele><time>2026-04-10T09:31:50.001Z</time></trkpt><trkpt lat="44.31532800435987" lon="11.494542308731253"><ele>165.0</ele><time>2026-04-10T09:31:51.001Z</time></trkpt><trkpt lat="44.315346695378906" lon="11.494718235102187"><ele>164.75</ele><time>2026-04-10T09:31:52.001Z</time></trkpt><trkpt lat="44.31536445350885" lon="11.494892219124447"><ele>164.5</ele><time>2026-04-10T09:31:53.001Z</time></trkpt><trkpt lat="44.31538651287965" lon="11.495062261220333"><ele>164.25</ele><time>2026-04-10T09:31:54.001Z</time></trkpt><trkpt lat="44.31540582551619" lon="11.495229419846078"><ele>164.0</ele><time>2026-04-10T09:31:55.001Z</time></trkpt><trkpt lat="44.315419830822115" lon="11.495400248025652"><ele>163.75</ele><time>2026-04-10T09:31:56.001Z</time></trkpt><trkpt lat="44.31544009999174" lon="11.495567811682111"><ele>163.5</ele><time>2026-04-10T09:31:57.001Z</time></trkpt><trkpt lat="44.31545576814977" lon="11.495738082173006"><ele>163.25</ele><time>2026-04-10T09:31:58.001Z</time></trkpt><trkpt lat="44.31547223178186" lon="11.495901603873717"><ele>163.0</ele><time>2026-04-10T09:31:59.001Z</time></trkpt><trkpt lat="44.31548675987861" lon="11.496059558427417"><ele>163.0</ele><time>2026-04-10T09:32:00.001Z</time></trkpt><trkpt lat="44.315503555938115" lon="11.496217666462519"><ele>163.0</ele><time>2026-04-10T09:32:01.001Z</time></trkpt><trkpt lat="44.31551703462738" lon="11.496373360086588"><ele>163.0</ele><time>2026-04-10T09:32:02.001Z</time></trkpt><trkpt lat="44.31553119299065" lon="11.496526187550474"><ele>163.0</ele><time>2026-04-10T09:32:03.001Z</time></trkpt><trkpt lat="44.31554304607012" lon="11.496675816712413"><ele>163.0</ele><time>2026-04-10T09:32:04.001Z</time></trkpt><trkpt lat="44.31555402552071" lon="11.49682701168455"><ele>163.0</ele><time>2026-04-10T09:32:05.001Z</time></trkpt><trkpt lat="44.315556435932265" lon="11.496987624553267"><ele>163.0</ele><time>2026-04-10T09:32:06.001Z</time></trkpt><trkpt lat="44.31554860427257" lon="11.497139896551149"><ele>163.0</ele><time>2026-04-10T09:32:07Z</time></trkpt><trkpt lat="44.31553020990019" lon="11.497295201408088"><ele>163.0</ele><time>2026-04-10T09:32:08Z</time></trkpt><trkpt lat="44.31550219273612" lon="11.497461302172901"><ele>163.0</ele><time>2026-04-10T09:32:09Z</time></trkpt><trkpt lat="44.31547008762925" lon="11.497626522230988"><ele>163.0</ele><time>2026-04-10T09:32:10Z</time></trkpt><trkpt lat="44.315431013500124" lon="11.497795647871987"><ele>163.0</ele><time>2026-04-10T09:32:11Z</time></trkpt><trkpt lat="44.31539236059427" lon="11.497964373354325"><ele>163.0</ele><time>2026-04-10T09:32:12Z</time></trkpt><trkpt lat="44.31535558371588" lon="11.498130588603415"><ele>163.25</ele><time>2026-04-10T09:32:13Z</time></trkpt><trkpt lat="44.31531784021404" lon="11.498296228411338"><ele>163.5</ele><time>2026-04-10T09:32:14Z</time></trkpt><trkpt lat="44.31527873120598" lon="11.498460359880506"><ele>163.75</ele><time>2026-04-10T09:32:15Z</time></trkpt><trkpt lat="44.315242484101205" lon="11.498617252997928"><ele>164.0</ele><time>2026-04-10T09:32:16Z</time></trkpt><trkpt lat="44.31520675529575" lon="11.498768265228305"><ele>163.0</ele><time>2026-04-10T09:32:17Z</time></trkpt><trkpt lat="44.31517716991627" lon="11.498903032202985"><ele>162.0</ele><time>2026-04-10T09:32:18Z</time></trkpt><trkpt lat="44.315146940358666" lon="11.499048090141335"><ele>161.0</ele><time>2026-04-10T09:32:19Z</time></trkpt><trkpt lat="44.31512335873251" lon="11.499179547987955"><ele>160.0</ele><time>2026-04-10T09:32:20Z</time></trkpt><trkpt lat="44.315104190612345" lon="11.499308371564904"><ele>159.0</ele><time>2026-04-10T09:32:21Z</time></trkpt><trkpt lat="44.31510153251193" lon="11.49943751085295"><ele>159.0</ele><time>2026-04-10T09:32:22Z</time></trkpt><trkpt lat="44.31510723061746" lon="11.499577015008974"><ele>159.0</ele><time>2026-04-10T09:32:23Z</time></trkpt><trkpt lat="44.31512252265817" lon="11.499715108726793"><ele>159.0</ele><time>2026-04-10T09:32:24Z</time></trkpt><trkpt lat="44.31514294905941" lon="11.499853615665407"><ele>159.0</ele><time>2026-04-10T09:32:25Z</time></trkpt><trkpt lat="44.31517023054424" lon="11.500005648444327"><ele>159.0</ele><time>2026-04-10T09:32:26Z</time></trkpt><trkpt lat="44.31520248179698" lon="11.500160998229184"><ele>159.2</ele><time>2026-04-10T09:32:27Z</time></trkpt><trkpt lat="44.31523783078068" lon="11.500319277378594"><ele>159.4</ele><time>2026-04-10T09:32:28Z</time></trkpt><trkpt lat="44.31527446021753" lon="11.500468902760762"><ele>159.6</ele><time>2026-04-10T09:32:29Z</time></trkpt><trkpt lat="44.3153072880342" lon="11.500613461801022"><ele>159.8</ele><time>2026-04-10T09:32:30Z</time></trkpt><trkpt lat="44.31533990057014" lon="11.500753249787058"><ele>160.0</ele><time>2026-04-10T09:32:31Z</time></trkpt><trkpt lat="44.31536991871454" lon="11.500883022134062"><ele>159.5</ele><time>2026-04-10T09:32:32Z</time></trkpt><trkpt lat="44.315397310659634" lon="11.501000213544279"><ele>159.0</ele><time>2026-04-10T09:32:33Z</time></trkpt><trkpt lat="44.315428602498606" lon="11.501113110876119"><ele>158.5</ele><time>2026-04-10T09:32:34Z</time></trkpt><trkpt lat="44.31545295970164" lon="11.501224561876501"><ele>158.0</ele><time>2026-04-10T09:32:35Z</time></trkpt><trkpt lat="44.31547388199506" lon="11.501327537477652"><ele>157.5</ele><time>2026-04-10T09:32:36Z</time></trkpt><trkpt lat="44.31549322308582" lon="11.50142725564936"><ele>157.0</ele><time>2026-04-10T09:32:37Z</time></trkpt><trkpt lat="44.31551168450524" lon="11.50151202374907"><ele>156.6</ele><time>2026-04-10T09:32:38Z</time></trkpt><trkpt lat="44.315546103218665" lon="11.50167023682433"><ele>156.2</ele><time>2026-04-10T09:32:40Z</time></trkpt><trkpt lat="44.315568129738324" lon="11.50182046687685"><ele>155.8</ele><time>2026-04-10T09:32:42Z</time></trkpt><trkpt lat="44.31556343059966" lon="11.501915144751717"><ele>155.4</ele><time>2026-04-10T09:32:44Z</time></trkpt><trkpt lat="44.31547223683093" lon="11.501934405112394"><ele>155.0</ele><time>2026-04-10T09:32:46Z</time></trkpt><trkpt lat="44.3153652966078" lon="11.50193110808153"><ele>155.0</ele><time>2026-04-10T09:32:48Z</time></trkpt><trkpt lat="44.315281119489114" lon="11.501930011294549"><ele>155.0</ele><time>2026-04-10T09:32:49Z</time></trkpt><trkpt lat="44.315201141739806" lon="11.501953135674075"><ele>155.0</ele><time>2026-04-10T09:32:50Z</time></trkpt><trkpt lat="44.31510842641768" lon="11.501930011294935"><ele>155.0</ele><time>2026-04-10T09:32:51Z</time></trkpt><trkpt lat="44.31500959856491" lon="11.501930011295194"><ele>155.0</ele><time>2026-04-10T09:32:52Z</time></trkpt><trkpt lat="44.314907956419596" lon="11.50193001129714"><ele>155.0</ele><time>2026-04-10T09:32:53Z</time></trkpt><trkpt lat="44.31479960296424" lon="11.501951219817096"><ele>155.0</ele><time>2026-04-10T09:32:54Z</time></trkpt><trkpt lat="44.31468886944355" lon="11.50195446062064"><ele>155.0</ele><time>2026-04-10T09:32:55Z</time></trkpt><trkpt lat="44.31457106000644" lon="11.501935727812894"><ele>155.0</ele><time>2026-04-10T09:32:56Z</time></trkpt><trkpt lat="44.314460598567706" lon="11.501940899597699"><ele>155.0</ele><time>2026-04-10T09:32:57Z</time></trkpt><trkpt lat="44.314354339552" lon="11.501950505557199"><ele>155.0</ele><time>2026-04-10T09:32:58Z</time></trkpt><trkpt lat="44.31425216694844" lon="11.50199331522177"><ele>155.0</ele><time>2026-04-10T09:32:59Z</time></trkpt><trkpt lat="44.31414714760353" lon="11.502019768053707"><ele>155.0</ele><time>2026-04-10T09:33:00Z</time></trkpt><trkpt lat="44.314041651423985" lon="11.502049542111427"><ele>155.0</ele><time>2026-04-10T09:33:01Z</time></trkpt><trkpt lat="44.313936475859116" lon="11.50208485715891"><ele>155.0</ele><time>2026-04-10T09:33:02Z</time></trkpt><trkpt lat="44.31382428677867" lon="11.502102001677049"><ele>156.0</ele><time>2026-04-10T09:33:03Z</time></trkpt><trkpt lat="44.31371410000715" lon="11.502163047933948"><ele>157.0</ele><time>2026-04-10T09:33:04Z</time></trkpt><trkpt lat="44.313596725376506" lon="11.50221015481277"><ele>158.0</ele><time>2026-04-10T09:33:05Z</time></trkpt><trkpt lat="44.31347880344636" lon="11.50226750967843"><ele>159.0</ele><time>2026-04-10T09:33:06Z</time></trkpt><trkpt lat="44.31336347508888" lon="11.502329137645535"><ele>159.0</ele><time>2026-04-10T09:33:07Z</time></trkpt><trkpt lat="44.3132495137149" lon="11.502395184282534"><ele>159.0</ele><time>2026-04-10T09:33:08Z</time></trkpt><trkpt lat="44.31313649221889" lon="11.50246463508147"><ele>159.0</ele><time>2026-04-10T09:33:09Z</time></trkpt><trkpt lat="44.31302229681126" lon="11.50253631056562"><ele>159.0</ele><time>2026-04-10T09:33:10Z</time></trkpt><trkpt lat="44.31290330551712" lon="11.502609407239511"><ele>159.0</ele><time>2026-04-10T09:33:11Z</time></trkpt><trkpt lat="44.31277911865837" lon="11.502684096648936"><ele>159.0</ele><time>2026-04-10T09:33:12Z</time></trkpt><trkpt lat="44.312649892176005" lon="11.502764052871308"><ele>159.0</ele><time>2026-04-10T09:33:13Z</time></trkpt><trkpt lat="44.31251331036923" lon="11.502847630977916"><ele>159.0</ele><time>2026-04-10T09:33:14Z</time></trkpt><trkpt lat="44.31237135309298" lon="11.502935876289277"><ele>159.66666666666666</ele><time>2026-04-10T09:33:15Z</time></trkpt><trkpt lat="44.312229458675304" lon="11.503024286075904"><ele>160.33333333333331</ele><time>2026-04-10T09:33:16Z</time></trkpt><trkpt lat="44.31209065038025" lon="11.503109238004537"><ele>161.0</ele><time>2026-04-10T09:33:17Z</time></trkpt><trkpt lat="44.311953972464" lon="11.503187095739312"><ele>161.0</ele><time>2026-04-10T09:33:18Z</time></trkpt><trkpt lat="44.311823123424766" lon="11.503268371687733"><ele>161.0</ele><time>2026-04-10T09:33:19Z</time></trkpt><trkpt lat="44.31168868743507" lon="11.503343828986713"><ele>161.0</ele><time>2026-04-10T09:33:20Z</time></trkpt><trkpt lat="44.311553865877634" lon="11.503410424225821"><ele>161.0</ele><time>2026-04-10T09:33:21Z</time></trkpt><trkpt lat="44.311413963519115" lon="11.50346797508252"><ele>161.33333333333331</ele><time>2026-04-10T09:33:22Z</time></trkpt><trkpt lat="44.31126846320353" lon="11.503520401020518"><ele>161.66666666666666</ele><time>2026-04-10T09:33:23Z</time></trkpt><trkpt lat="44.31111678682709" lon="11.503561922911338"><ele>162.0</ele><time>2026-04-10T09:33:24Z</time></trkpt><trkpt lat="44.31096029288486" lon="11.50359663535696"><ele>162.0</ele><time>2026-04-10T09:33:25Z</time></trkpt><trkpt lat="44.31079955293285" lon="11.503629780612721"><ele>162.0</ele><time>2026-04-10T09:33:26Z</time></trkpt><trkpt lat="44.310638170927284" lon="11.503659660718858"><ele>162.0</ele><time>2026-04-10T09:33:27Z</time></trkpt><trkpt lat="44.31047392987659" lon="11.503665434071117"><ele>162.66666666666666</ele><time>2026-04-10T09:33:28Z</time></trkpt><trkpt lat="44.310311875014946" lon="11.503718404551869"><ele>163.33333333333331</ele><time>2026-04-10T09:33:29Z</time></trkpt><trkpt lat="44.310148116585495" lon="11.503747908592539"><ele>164.0</ele><time>2026-04-10T09:33:30Z</time></trkpt><trkpt lat="44.30997848852337" lon="11.503779735720547"><ele>164.66666666666666</ele><time>2026-04-10T09:33:31Z</time></trkpt><trkpt lat="44.309806618459774" lon="11.503813132301028"><ele>165.33333333333334</ele><time>2026-04-10T09:33:32Z</time></trkpt><trkpt lat="44.30963366058931" lon="11.503846147989075"><ele>166.0</ele><time>2026-04-10T09:33:33Z</time></trkpt><trkpt lat="44.30946353196829" lon="11.503878000233785"><ele>166.33333333333334</ele><time>2026-04-10T09:33:34.001Z</time></trkpt><trkpt lat="44.30929132673447" lon="11.503907888743276"><ele>166.66666666666666</ele><time>2026-04-10T09:33:35.001Z</time></trkpt><trkpt lat="44.309121393965995" lon="11.503934615884445"><ele>167.0</ele><time>2026-04-10T09:33:36.001Z</time></trkpt><trkpt lat="44.308959620499735" lon="11.503960479766517"><ele>167.25</ele><time>2026-04-10T09:33:37.001Z</time></trkpt><trkpt lat="44.308804510145876" lon="11.503990383480463"><ele>167.5</ele><time>2026-04-10T09:33:38.001Z</time></trkpt><trkpt lat="44.308655677012595" lon="11.504022561789062"><ele>167.75</ele><time>2026-04-10T09:33:39.001Z</time></trkpt><trkpt lat="44.30851699026598" lon="11.50406557814832"><ele>168.0</ele><time>2026-04-10T09:33:40.001Z</time></trkpt><trkpt lat="44.30838413455198" lon="11.504126594065669"><ele>168.0</ele><time>2026-04-10T09:33:41.001Z</time></trkpt><trkpt lat="44.30825857949825" lon="11.50420799098056"><ele>168.0</ele><time>2026-04-10T09:33:42.001Z</time></trkpt><trkpt lat="44.30814433170616" lon="11.504351594541324"><ele>168.0</ele><time>2026-04-10T09:33:43.001Z</time></trkpt><trkpt lat="44.3080479231492" lon="11.504528803719001"><ele>168.66666666666666</ele><time>2026-04-10T09:33:44.001Z</time></trkpt><trkpt lat="44.30794006790541" lon="11.504705626514104"><ele>169.33333333333331</ele><time>2026-04-10T09:33:45.001Z</time></trkpt><trkpt lat="44.307827591144274" lon="11.504890833119958"><ele>170.0</ele><time>2026-04-10T09:33:46.001Z</time></trkpt><trkpt lat="44.30771260374029" lon="11.505081894082965"><ele>170.0</ele><time>2026-04-10T09:33:47.001Z</time></trkpt><trkpt lat="44.30759373233927" lon="11.505273378756542"><ele>170.0</ele><time>2026-04-10T09:33:48.001Z</time></trkpt><trkpt lat="44.3074746209369" lon="11.505469656996338"><ele>170.0</ele><time>2026-04-10T09:33:49.001Z</time></trkpt><trkpt lat="44.30734331174558" lon="11.505649647078696"><ele>170.33333333333331</ele><time>2026-04-10T09:33:50.001Z</time></trkpt><trkpt lat="44.30722227388019" lon="11.505845772213725"><ele>170.66666666666666</ele><time>2026-04-10T09:33:51.001Z</time></trkpt><trkpt lat="44.30711084726166" lon="11.506059555660519"><ele>171.0</ele><time>2026-04-10T09:33:52.001Z</time></trkpt><trkpt lat="44.30698715135347" lon="11.506261185110496"><ele>171.33333333333334</ele><time>2026-04-10T09:33:53.001Z</time></trkpt><trkpt lat="44.306850576784626" lon="11.506451587215594"><ele>171.66666666666669</ele><time>2026-04-10T09:33:54.001Z</time></trkpt><trkpt lat="44.30672929877186" lon="11.506663012392984"><ele>172.0</ele><time>2026-04-10T09:33:55.001Z</time></trkpt><trkpt lat="44.30660576789754" lon="11.506866873991214"><ele>172.66666666666669</ele><time>2026-04-10T09:33:56.001Z</time></trkpt><trkpt lat="44.30648484724714" lon="11.507079620119622"><ele>173.33333333333334</ele><time>2026-04-10T09:33:57.001Z</time></trkpt><trkpt lat="44.30636122842269" lon="11.5072848657134"><ele>174.0</ele><time>2026-04-10T09:33:58.001Z</time></trkpt><trkpt lat="44.30623395064713" lon="11.50748941920565"><ele>174.0</ele><time>2026-04-10T09:33:59.001Z</time></trkpt><trkpt lat="44.30610980331635" lon="11.507689125325264"><ele>174.0</ele><time>2026-04-10T09:34:00.001Z</time></trkpt><trkpt lat="44.3059827604194" lon="11.507889895185428"><ele>174.0</ele><time>2026-04-10T09:34:01.001Z</time></trkpt><trkpt lat="44.305859397874734" lon="11.508086724212044"><ele>173.66666666666666</ele><time>2026-04-10T09:34:02.001Z</time></trkpt><trkpt lat="44.30573525877201" lon="11.508287572681445"><ele>173.33333333333331</ele><time>2026-04-10T09:34:03.001Z</time></trkpt><trkpt lat="44.30560959841988" lon="11.50848874626119"><ele>173.0</ele><time>2026-04-10T09:34:04.001Z</time></trkpt><trkpt lat="44.30548784803065" lon="11.508684112460625"><ele>173.66666666666666</ele><time>2026-04-10T09:34:05.001Z</time></trkpt><trkpt lat="44.30536186986618" lon="11.508887902479298"><ele>174.33333333333334</ele><time>2026-04-10T09:34:06.001Z</time></trkpt><trkpt lat="44.30523889450716" lon="11.509091497341803"><ele>175.0</ele><time>2026-04-10T09:34:07.001Z</time></trkpt><trkpt lat="44.305117401804836" lon="11.50929241063002"><ele>175.0</ele><time>2026-04-10T09:34:08.001Z</time></trkpt><trkpt lat="44.30499393682861" lon="11.509492372497848"><ele>175.0</ele><time>2026-04-10T09:34:09.001Z</time></trkpt><trkpt lat="44.30485857536339" lon="11.509679552537794"><ele>175.0</ele><time>2026-04-10T09:34:10.001Z</time></trkpt><trkpt lat="44.30473273012414" lon="11.50988557571796"><ele>175.66666666666669</ele><time>2026-04-10T09:34:11.001Z</time></trkpt><trkpt lat="44.304615669769525" lon="11.51010294111668"><ele>176.33333333333334</ele><time>2026-04-10T09:34:12.001Z</time></trkpt><trkpt lat="44.304482359431326" lon="11.510311997222354"><ele>177.0</ele><time>2026-04-10T09:34:13Z</time></trkpt><trkpt lat="44.3043516078412" lon="11.510521986123823"><ele>177.33333333333334</ele><time>2026-04-10T09:34:14Z</time></trkpt><trkpt lat="44.30421966750512" lon="11.510736104644003"><ele>177.66666666666669</ele><time>2026-04-10T09:34:15Z</time></trkpt><trkpt lat="44.30407661258209" lon="11.510930239376783"><ele>178.0</ele><time>2026-04-10T09:34:16Z</time></trkpt><trkpt lat="44.30394283498779" lon="11.511144808538678"><ele>179.33333333333334</ele><time>2026-04-10T09:34:17Z</time></trkpt><trkpt lat="44.30383533556819" lon="11.511376084970324"><ele>180.66666666666666</ele><time>2026-04-10T09:34:18Z</time></trkpt><trkpt lat="44.30370675363263" lon="11.511588654677793"><ele>182.0</ele><time>2026-04-10T09:34:19Z</time></trkpt><trkpt lat="44.30358225812943" lon="11.51179456620599"><ele>182.0</ele><time>2026-04-10T09:34:20Z</time></trkpt><trkpt lat="44.30345681190588" lon="11.511999352156312"><ele>182.0</ele><time>2026-04-10T09:34:21Z</time></trkpt><trkpt lat="44.303329270196116" lon="11.512203940232"><ele>182.0</ele><time>2026-04-10T09:34:22Z</time></trkpt><trkpt lat="44.30321090397571" lon="11.512398168744884"><ele>182.0</ele><time>2026-04-10T09:34:23Z</time></trkpt><trkpt lat="44.30309661532576" lon="11.51258744598357"><ele>182.0</ele><time>2026-04-10T09:34:24Z</time></trkpt><trkpt lat="44.30298481311892" lon="11.512771814460065"><ele>182.0</ele><time>2026-04-10T09:34:25Z</time></trkpt><trkpt lat="44.30287058288066" lon="11.512945318023425"><ele>183.33333333333331</ele><time>2026-04-10T09:34:26Z</time></trkpt><trkpt lat="44.3027556453441" lon="11.513100739727847"><ele>184.66666666666666</ele><time>2026-04-10T09:34:27Z</time></trkpt><trkpt lat="44.302633723595555" lon="11.513232899807802"><ele>186.0</ele><time>2026-04-10T09:34:28Z</time></trkpt><trkpt lat="44.30250668405508" lon="11.513330745204618"><ele>186.0</ele><time>2026-04-10T09:34:29Z</time></trkpt><trkpt lat="44.30238192426141" lon="11.513411295896708"><ele>186.0</ele><time>2026-04-10T09:34:30Z</time></trkpt><trkpt lat="44.30224300243709" lon="11.51342771989476"><ele>186.0</ele><time>2026-04-10T09:34:31Z</time></trkpt><trkpt lat="44.302092224241214" lon="11.513427602356023"><ele>186.0</ele><time>2026-04-10T09:34:32Z</time></trkpt><trkpt lat="44.30194178638162" lon="11.513403872082483"><ele>186.33333333333334</ele><time>2026-04-10T09:34:33Z</time></trkpt><trkpt lat="44.3017883601412" lon="11.51336318831092"><ele>186.66666666666669</ele><time>2026-04-10T09:34:34Z</time></trkpt><trkpt lat="44.30162955345954" lon="11.513327976882005"><ele>187.0</ele><time>2026-04-10T09:34:35Z</time></trkpt><trkpt lat="44.301470129175684" lon="11.513290306268274"><ele>188.0</ele><time>2026-04-10T09:34:36Z</time></trkpt><trkpt lat="44.301308662751204" lon="11.513245626882622"><ele>189.0</ele><time>2026-04-10T09:34:37Z</time></trkpt><trkpt lat="44.30114311872103" lon="11.513198185335474"><ele>190.0</ele><time>2026-04-10T09:34:38Z</time></trkpt><trkpt lat="44.3009749144931" lon="11.51315194228706"><ele>190.0</ele><time>2026-04-10T09:34:39Z</time></trkpt><trkpt lat="44.30080415281548" lon="11.513101024535016"><ele>190.0</ele><time>2026-04-10T09:34:40Z</time></trkpt><trkpt lat="44.30063791660377" lon="11.513047203773784"><ele>190.0</ele><time>2026-04-10T09:34:41Z</time></trkpt><trkpt lat="44.30047968318004" lon="11.513000717747731"><ele>189.75</ele><time>2026-04-10T09:34:42Z</time></trkpt><trkpt lat="44.300329454413315" lon="11.512961278740248"><ele>189.5</ele><time>2026-04-10T09:34:43Z</time></trkpt><trkpt lat="44.30018440128178" lon="11.512921576071035"><ele>189.25</ele><time>2026-04-10T09:34:44Z</time></trkpt><trkpt lat="44.3000469209543" lon="11.51288081671355"><ele>189.0</ele><time>2026-04-10T09:34:45Z</time></trkpt><trkpt lat="44.2999100293578" lon="11.512843565453348"><ele>189.0</ele><time>2026-04-10T09:34:46Z</time></trkpt><trkpt lat="44.29976797226499" lon="11.512809869960497"><ele>189.0</ele><time>2026-04-10T09:34:47Z</time></trkpt><trkpt lat="44.299621170760865" lon="11.512773441754437"><ele>189.0</ele><time>2026-04-10T09:34:48Z</time></trkpt><trkpt lat="44.29947112145974" lon="11.512735342086385"><ele>189.0</ele><time>2026-04-10T09:34:49Z</time></trkpt><trkpt lat="44.29932185956085" lon="11.512693606757246"><ele>190.0</ele><time>2026-04-10T09:34:50Z</time></trkpt><trkpt lat="44.29917461255066" lon="11.512650480260124"><ele>191.0</ele><time>2026-04-10T09:34:51Z</time></trkpt><trkpt lat="44.29903528527086" lon="11.51261154972672"><ele>192.0</ele><time>2026-04-10T09:34:52Z</time></trkpt><trkpt lat="44.298899801465716" lon="11.512576180387635"><ele>193.0</ele><time>2026-04-10T09:34:53Z</time></trkpt><trkpt lat="44.29877246167794" lon="11.512553744672005"><ele>193.8</ele><time>2026-04-10T09:34:54Z</time></trkpt><trkpt lat="44.29865973216226" lon="11.512554822346837"><ele>194.60000000000002</ele><time>2026-04-10T09:34:55Z</time></trkpt><trkpt lat="44.29855959249833" lon="11.512596171990053"><ele>195.39999999999998</ele><time>2026-04-10T09:34:56Z</time></trkpt><trkpt lat="44.29846391725927" lon="11.512673062246861"><ele>196.2</ele><time>2026-04-10T09:34:57Z</time></trkpt><trkpt lat="44.2983656311738" lon="11.51276309613449"><ele>197.0</ele><time>2026-04-10T09:34:58Z</time></trkpt><trkpt lat="44.29827874627943" lon="11.512855647561533"><ele>196.75</ele><time>2026-04-10T09:34:59Z</time></trkpt><trkpt lat="44.29818248557625" lon="11.512910866572023"><ele>196.5</ele><time>2026-04-10T09:35:00Z</time></trkpt><trkpt lat="44.298076774521185" lon="11.512915287069044"><ele>196.25</ele><time>2026-04-10T09:35:01Z</time></trkpt><trkpt lat="44.29795909995075" lon="11.512889339344133"><ele>196.0</ele><time>2026-04-10T09:35:02Z</time></trkpt><trkpt lat="44.297839401374176" lon="11.512833186371376"><ele>196.0</ele><time>2026-04-10T09:35:03Z</time></trkpt><trkpt lat="44.29771219519747" lon="11.512760794257856"><ele>196.0</ele><time>2026-04-10T09:35:04Z</time></trkpt><trkpt lat="44.29758938085604" lon="11.512707246515696"><ele>196.0</ele><time>2026-04-10T09:35:05Z</time></trkpt><trkpt lat="44.29747343794907" lon="11.51268590335568"><ele>196.0</ele><time>2026-04-10T09:35:06Z</time></trkpt><trkpt lat="44.29734869771407" lon="11.51269628560121"><ele>196.25</ele><time>2026-04-10T09:35:07Z</time></trkpt><trkpt lat="44.297217190510764" lon="11.51273617492836"><ele>196.5</ele><time>2026-04-10T09:35:08Z</time></trkpt><trkpt lat="44.29707863112516" lon="11.512799165760017"><ele>196.75</ele><time>2026-04-10T09:35:09Z</time></trkpt><trkpt lat="44.29693109559731" lon="11.512877845154469"><ele>197.0</ele><time>2026-04-10T09:35:10Z</time></trkpt><trkpt lat="44.29676821994517" lon="11.512964400981952"><ele>198.33333333333334</ele><time>2026-04-10T09:35:11Z</time></trkpt><trkpt lat="44.296594816985355" lon="11.51305329620393"><ele>199.66666666666669</ele><time>2026-04-10T09:35:12Z</time></trkpt><trkpt lat="44.29641876302337" lon="11.513144254767342"><ele>201.0</ele><time>2026-04-10T09:35:13Z</time></trkpt><trkpt lat="44.296240768576574" lon="11.51323399773845"><ele>202.0</ele><time>2026-04-10T09:35:14Z</time></trkpt><trkpt lat="44.29607053509352" lon="11.51331999505373"><ele>203.0</ele><time>2026-04-10T09:35:15Z</time></trkpt><trkpt lat="44.29590837065587" lon="11.513403539951483"><ele>204.0</ele><time>2026-04-10T09:35:16Z</time></trkpt><trkpt lat="44.29575491964293" lon="11.513482398625417"><ele>204.0</ele><time>2026-04-10T09:35:17Z</time></trkpt><trkpt lat="44.29560318109249" lon="11.51355916217519"><ele>204.0</ele><time>2026-04-10T09:35:18Z</time></trkpt><trkpt lat="44.29545088535079" lon="11.513638492907589"><ele>204.0</ele><time>2026-04-10T09:35:19Z</time></trkpt><trkpt lat="44.295301836999364" lon="11.51371448251197"><ele>205.75</ele><time>2026-04-10T09:35:20Z</time></trkpt><trkpt lat="44.29516648567195" lon="11.51378184747546"><ele>207.5</ele><time>2026-04-10T09:35:21Z</time></trkpt><trkpt lat="44.295037279815745" lon="11.513851690168542"><ele>209.25</ele><time>2026-04-10T09:35:22Z</time></trkpt><trkpt lat="44.29490980435906" lon="11.513927460374495"><ele>211.0</ele><time>2026-04-10T09:35:23Z</time></trkpt><trkpt lat="44.29478554563363" lon="11.513996074102904"><ele>210.75</ele><time>2026-04-10T09:35:24Z</time></trkpt><trkpt lat="44.29466869183164" lon="11.514058789938028"><ele>210.5</ele><time>2026-04-10T09:35:25Z</time></trkpt><trkpt lat="44.294557162246996" lon="11.51411529722003"><ele>210.25</ele><time>2026-04-10T09:35:26Z</time></trkpt><trkpt lat="44.29445097235671" lon="11.514162788309015"><ele>210.0</ele><time>2026-04-10T09:35:27Z</time></trkpt><trkpt lat="44.29434471477781" lon="11.514188108686131"><ele>210.0</ele><time>2026-04-10T09:35:28Z</time></trkpt><trkpt lat="44.29424109671329" lon="11.514180072296497"><ele>210.0</ele><time>2026-04-10T09:35:29Z</time></trkpt><trkpt lat="44.29413901657101" lon="11.514135691436332"><ele>210.0</ele><time>2026-04-10T09:35:30Z</time></trkpt><trkpt lat="44.29405853588588" lon="11.514046118966544"><ele>210.0</ele><time>2026-04-10T09:35:31Z</time></trkpt><trkpt lat="44.29400196891904" lon="11.513926436589031"><ele>210.0</ele><time>2026-04-10T09:35:32Z</time></trkpt><trkpt lat="44.29394376929747" lon="11.51380194117439"><ele>211.0</ele><time>2026-04-10T09:35:33Z</time></trkpt><trkpt lat="44.29388168784186" lon="11.513692566587238"><ele>212.0</ele><time>2026-04-10T09:35:34Z</time></trkpt><trkpt lat="44.29380347268976" lon="11.513610169228448"><ele>213.0</ele><time>2026-04-10T09:35:35.001Z</time></trkpt><trkpt lat="44.29369421246009" lon="11.513560395162788"><ele>214.0</ele><time>2026-04-10T09:35:36.001Z</time></trkpt><trkpt lat="44.293568462260225" lon="11.513524188549543"><ele>215.0</ele><time>2026-04-10T09:35:37.001Z</time></trkpt><trkpt lat="44.29343975821475" lon="11.513495156957527"><ele>215.0</ele><time>2026-04-10T09:35:38.001Z</time></trkpt><trkpt lat="44.29331107984007" lon="11.513494324673353"><ele>215.0</ele><time>2026-04-10T09:35:39.001Z</time></trkpt><trkpt lat="44.29317890911159" lon="11.513510405449438"><ele>215.0</ele><time>2026-04-10T09:35:40.001Z</time></trkpt><trkpt lat="44.2930543540996" lon="11.51353969135175"><ele>215.0</ele><time>2026-04-10T09:35:41.001Z</time></trkpt><trkpt lat="44.292941374896515" lon="11.513567047942402"><ele>218.75</ele><time>2026-04-10T09:35:42.001Z</time></trkpt><trkpt lat="44.29282653636697" lon="11.513576229765402"><ele>222.5</ele><time>2026-04-10T09:35:43.001Z</time></trkpt><trkpt lat="44.29272035722494" lon="11.513515831952146"><ele>226.25</ele><time>2026-04-10T09:35:44.001Z</time></trkpt><trkpt lat="44.29261012462872" lon="11.513457724916279"><ele>230.0</ele><time>2026-04-10T09:35:45.001Z</time></trkpt><trkpt lat="44.292496803479956" lon="11.513401937383845"><ele>230.00000000000003</ele><time>2026-04-10T09:35:46.001Z</time></trkpt><trkpt lat="44.292432445666314" lon="11.513286423457897"><ele>230.0</ele><time>2026-04-10T09:35:47.001Z</time></trkpt><trkpt lat="44.29236721953783" lon="11.513205083309767"><ele>230.0</ele><time>2026-04-10T09:35:48.001Z</time></trkpt><trkpt lat="44.29233159609355" lon="11.513095436965143"><ele>230.0</ele><time>2026-04-10T09:35:49.001Z</time></trkpt><trkpt lat="44.29228035585278" lon="11.51300238206285"><ele>230.00000000000003</ele><time>2026-04-10T09:35:50.001Z</time></trkpt><trkpt lat="44.29220628079134" lon="11.51294222889303"><ele>230.0</ele><time>2026-04-10T09:35:51.001Z</time></trkpt><trkpt lat="44.292109740510796" lon="11.51292709432489"><ele>230.50000000000003</ele><time>2026-04-10T09:35:52.001Z</time></trkpt><trkpt lat="44.29200997450224" lon="11.512956413299428"><ele>231.0</ele><time>2026-04-10T09:35:53.001Z</time></trkpt><trkpt lat="44.29190885728987" lon="11.51295400664609"><ele>231.5</ele><time>2026-04-10T09:35:54.001Z</time></trkpt><trkpt lat="44.29183114018842" lon="11.512929787890673"><ele>232.0</ele><time>2026-04-10T09:35:55.001Z</time></trkpt><trkpt lat="44.291776555138654" lon="11.5128704232919"><ele>232.50000000000003</ele><time>2026-04-10T09:35:56.001Z</time></trkpt><trkpt lat="44.29171422559861" lon="11.512826749542722"><ele>233.0</ele><time>2026-04-10T09:35:57.001Z</time></trkpt><trkpt lat="44.29164363196283" lon="11.51280258730924"><ele>233.00000000000003</ele><time>2026-04-10T09:35:58.001Z</time></trkpt><trkpt lat="44.29158123305647" lon="11.512855845145257"><ele>233.0</ele><time>2026-04-10T09:35:59.001Z</time></trkpt><trkpt lat="44.291556643343355" lon="11.51296742116571"><ele>233.0</ele><time>2026-04-10T09:36:00.001Z</time></trkpt><trkpt lat="44.29156990610459" lon="11.513074855224039"><ele>233.0</ele><time>2026-04-10T09:36:01.001Z</time></trkpt><trkpt lat="44.291616980505054" lon="11.51315512362097"><ele>233.00000000000003</ele><time>2026-04-10T09:36:02.001Z</time></trkpt><trkpt lat="44.29168784902809" lon="11.513216759989621"><ele>233.0</ele><time>2026-04-10T09:36:03.001Z</time></trkpt><trkpt lat="44.291765633813014" lon="11.513286331329143"><ele>235.5</ele><time>2026-04-10T09:36:04.001Z</time></trkpt><trkpt lat="44.29183466561665" lon="11.513394314742538"><ele>238.0</ele><time>2026-04-10T09:36:05.001Z</time></trkpt><trkpt lat="44.29188947132644" lon="11.513548303778807"><ele>240.5</ele><time>2026-04-10T09:36:06.001Z</time></trkpt><trkpt lat="44.29192895147151" lon="11.513742998855685"><ele>243.0</ele><time>2026-04-10T09:36:07.001Z</time></trkpt><trkpt lat="44.29196991987403" lon="11.513954959153217"><ele>245.75</ele><time>2026-04-10T09:36:08.001Z</time></trkpt><trkpt lat="44.29201383163828" lon="11.514144138141786"><ele>248.5</ele><time>2026-04-10T09:36:09.001Z</time></trkpt><trkpt lat="44.292051515339764" lon="11.514307553127802"><ele>251.25</ele><time>2026-04-10T09:36:10.001Z</time></trkpt><trkpt lat="44.29205487551565" lon="11.514442277499429"><ele>254.0</ele><time>2026-04-10T09:36:11.001Z</time></trkpt><trkpt lat="44.29200867031385" lon="11.514574145831572"><ele>255.75</ele><time>2026-04-10T09:36:12.001Z</time></trkpt><trkpt lat="44.29193043923018" lon="11.514692316608587"><ele>257.5</ele><time>2026-04-10T09:36:13.001Z</time></trkpt><trkpt lat="44.29183470109503" lon="11.514810519287831"><ele>259.25</ele><time>2026-04-10T09:36:14.001Z</time></trkpt><trkpt lat="44.291733874590996" lon="11.51494506049801"><ele>261.0</ele><time>2026-04-10T09:36:15.001Z</time></trkpt><trkpt lat="44.29164111731671" lon="11.515090251077336"><ele>261.0</ele><time>2026-04-10T09:36:16.001Z</time></trkpt><trkpt lat="44.29154188330707" lon="11.515211493232677"><ele>261.0</ele><time>2026-04-10T09:36:17.001Z</time></trkpt><trkpt lat="44.29143620929384" lon="11.515327200314992"><ele>261.0</ele><time>2026-04-10T09:36:18.001Z</time></trkpt><trkpt lat="44.29135024969488" lon="11.515437486652853"><ele>261.0</ele><time>2026-04-10T09:36:19Z</time></trkpt><trkpt lat="44.29128786085377" lon="11.515566106701847"><ele>264.0</ele><time>2026-04-10T09:36:20Z</time></trkpt><trkpt lat="44.291247763560875" lon="11.515714751387327"><ele>267.0</ele><time>2026-04-10T09:36:21Z</time></trkpt><trkpt lat="44.291226491345256" lon="11.515856106725396"><ele>270.0</ele><time>2026-04-10T09:36:22Z</time></trkpt><trkpt lat="44.29120120957905" lon="11.515977528834318"><ele>273.0</ele><time>2026-04-10T09:36:23Z</time></trkpt><trkpt lat="44.2911489821151" lon="11.516055857383174"><ele>276.0</ele><time>2026-04-10T09:36:24Z</time></trkpt><trkpt lat="44.29108102013024" lon="11.516058817761044"><ele>276.0</ele><time>2026-04-10T09:36:25Z</time></trkpt><trkpt lat="44.29102276649448" lon="11.516007491620885"><ele>276.0</ele><time>2026-04-10T09:36:26Z</time></trkpt><trkpt lat="44.29098944203977" lon="11.515906781706644"><ele>276.0</ele><time>2026-04-10T09:36:27Z</time></trkpt><trkpt lat="44.29104780861439" lon="11.515770338821714"><ele>276.0</ele><time>2026-04-10T09:36:28Z</time></trkpt><trkpt lat="44.29104247342682" lon="11.515607227364274"><ele>276.0</ele><time>2026-04-10T09:36:29Z</time></trkpt><trkpt lat="44.29101469568244" lon="11.515425235843367"><ele>276.6</ele><time>2026-04-10T09:36:30Z</time></trkpt><trkpt lat="44.29099461038564" lon="11.515259168659465"><ele>277.20000000000005</ele><time>2026-04-10T09:36:31Z</time></trkpt><trkpt lat="44.29101071976009" lon="11.515127768105634"><ele>277.79999999999995</ele><time>2026-04-10T09:36:32Z</time></trkpt><trkpt lat="44.29101414822634" lon="11.515016350618257"><ele>278.4</ele><time>2026-04-10T09:36:33Z</time></trkpt><trkpt lat="44.290984136063834" lon="11.51491092823231"><ele>279.0</ele><time>2026-04-10T09:36:34Z</time></trkpt><trkpt lat="44.29093248894801" lon="11.514833648918767"><ele>279.0</ele><time>2026-04-10T09:36:35Z</time></trkpt><trkpt lat="44.29086064584196" lon="11.514810115763684"><ele>279.0</ele><time>2026-04-10T09:36:36Z</time></trkpt><trkpt lat="44.29078577766407" lon="11.514825098832981"><ele>279.0</ele><time>2026-04-10T09:36:37Z</time></trkpt><trkpt lat="44.29073884966727" lon="11.51494433190226"><ele>279.0</ele><time>2026-04-10T09:36:38Z</time></trkpt><trkpt lat="44.29070330333471" lon="11.515057061470834"><ele>279.0</ele><time>2026-04-10T09:36:39Z</time></trkpt><trkpt lat="44.29066223224305" lon="11.515194089956474"><ele>279.0</ele><time>2026-04-10T09:36:40Z</time></trkpt><trkpt lat="44.29061125851091" lon="11.515338862235959"><ele>282.4</ele><time>2026-04-10T09:36:41Z</time></trkpt><trkpt lat="44.290553527564114" lon="11.515487570960168"><ele>285.79999999999995</ele><time>2026-04-10T09:36:42Z</time></trkpt><trkpt lat="44.290501069110505" lon="11.515610553509221"><ele>289.20000000000005</ele><time>2026-04-10T09:36:43Z</time></trkpt><trkpt lat="44.2904383619654" lon="11.515703788287828"><ele>292.6</ele><time>2026-04-10T09:36:44Z</time></trkpt><trkpt lat="44.29036017466486" lon="11.515739004584637"><ele>296.0</ele><time>2026-04-10T09:36:45Z</time></trkpt><trkpt lat="44.290292351182465" lon="11.515701063081645"><ele>296.0</ele><time>2026-04-10T09:36:46Z</time></trkpt><trkpt lat="44.2902854584284" lon="11.515605895842977"><ele>296.0</ele><time>2026-04-10T09:36:47Z</time></trkpt><trkpt lat="44.29035333295147" lon="11.515448697630745"><ele>296.0</ele><time>2026-04-10T09:36:49Z</time></trkpt><trkpt lat="44.290372697526905" lon="11.515343549769117"><ele>296.0</ele><time>2026-04-10T09:36:50Z</time></trkpt><trkpt lat="44.290406715606764" lon="11.515245751600162"><ele>296.0</ele><time>2026-04-10T09:36:51Z</time></trkpt><trkpt lat="44.29036341803919" lon="11.515120832850572"><ele>296.40000000000003</ele><time>2026-04-10T09:36:52Z</time></trkpt><trkpt lat="44.290297186747765" lon="11.515039036886325"><ele>296.8</ele><time>2026-04-10T09:36:53Z</time></trkpt><trkpt lat="44.29019330184989" lon="11.515019417981925"><ele>297.20000000000005</ele><time>2026-04-10T09:36:54Z</time></trkpt><trkpt lat="44.29010268476479" lon="11.5149935880184"><ele>297.6</ele><time>2026-04-10T09:36:55Z</time></trkpt><trkpt lat="44.29003731938098" lon="11.51493061351868"><ele>298.0</ele><time>2026-04-10T09:36:56Z</time></trkpt><trkpt lat="44.28997832626403" lon="11.51483871239959"><ele>298.0</ele><time>2026-04-10T09:36:57Z</time></trkpt><trkpt lat="44.28992561450279" lon="11.51477117640404"><ele>298.0</ele><time>2026-04-10T09:36:58Z</time></trkpt><trkpt lat="44.289854243998676" lon="11.514759723771576"><ele>298.0</ele><time>2026-04-10T09:36:59Z</time></trkpt><trkpt lat="44.2897880417938" lon="11.514805004796731"><ele>298.0</ele><time>2026-04-10T09:37:00Z</time></trkpt><trkpt lat="44.28975990015324" lon="11.514914843096447"><ele>298.0</ele><time>2026-04-10T09:37:01Z</time></trkpt><trkpt lat="44.289798851295764" lon="11.515038940764741"><ele>298.0</ele><time>2026-04-10T09:37:02Z</time></trkpt><trkpt lat="44.28984557372601" lon="11.515131819312264"><ele>298.0</ele><time>2026-04-10T09:37:03Z</time></trkpt><trkpt lat="44.28987610977105" lon="11.515234666605698"><ele>298.0</ele><time>2026-04-10T09:37:04Z</time></trkpt><trkpt lat="44.28987312056859" lon="11.515352080111818"><ele>298.0</ele><time>2026-04-10T09:37:05Z</time></trkpt><trkpt lat="44.28983217075232" lon="11.515461572225382"><ele>298.0</ele><time>2026-04-10T09:37:06Z</time></trkpt><trkpt lat="44.28974067947969" lon="11.515523741612396"><ele>298.0</ele><time>2026-04-10T09:37:07Z</time></trkpt><trkpt lat="44.289620364510924" lon="11.515588956955385"><ele>303.25</ele><time>2026-04-10T09:37:08Z</time></trkpt><trkpt lat="44.28951476905726" lon="11.515706046877806"><ele>308.5</ele><time>2026-04-10T09:37:09Z</time></trkpt><trkpt lat="44.289430744592444" lon="11.515825059272228"><ele>313.75</ele><time>2026-04-10T09:37:10Z</time></trkpt><trkpt lat="44.2893695328836" lon="11.515970252769439"><ele>319.0</ele><time>2026-04-10T09:37:11Z</time></trkpt><trkpt lat="44.289304154860375" lon="11.516115387412853"><ele>317.0</ele><time>2026-04-10T09:37:12Z</time></trkpt><trkpt lat="44.289208143939724" lon="11.51624923274754"><ele>315.0</ele><time>2026-04-10T09:37:13Z</time></trkpt><trkpt lat="44.28909205460439" lon="11.516378129742074"><ele>313.0</ele><time>2026-04-10T09:37:14Z</time></trkpt><trkpt lat="44.288968305077844" lon="11.516500683953511"><ele>311.0</ele><time>2026-04-10T09:37:15Z</time></trkpt><trkpt lat="44.288843867139484" lon="11.516621549402744"><ele>315.5</ele><time>2026-04-10T09:37:16Z</time></trkpt><trkpt lat="44.288723156800785" lon="11.516741242293039"><ele>320.0</ele><time>2026-04-10T09:37:17Z</time></trkpt><trkpt lat="44.288619563059775" lon="11.51684242219124"><ele>324.5</ele><time>2026-04-10T09:37:18Z</time></trkpt><trkpt lat="44.288506008458505" lon="11.516903428705522"><ele>329.0</ele><time>2026-04-10T09:37:19Z</time></trkpt><trkpt lat="44.28838422312134" lon="11.516956216229849"><ele>329.0</ele><time>2026-04-10T09:37:20Z</time></trkpt><trkpt lat="44.28824590130866" lon="11.516983511983222"><ele>329.0</ele><time>2026-04-10T09:37:21Z</time></trkpt><trkpt lat="44.28810407897868" lon="11.516992522117874"><ele>329.0</ele><time>2026-04-10T09:37:22Z</time></trkpt><trkpt lat="44.287975510195565" lon="11.5169756124946"><ele>329.0</ele><time>2026-04-10T09:37:23Z</time></trkpt><trkpt lat="44.28786503730142" lon="11.516940371974838"><ele>330.4</ele><time>2026-04-10T09:37:24Z</time></trkpt><trkpt lat="44.287789783895214" lon="11.516862550737807"><ele>331.79999999999995</ele><time>2026-04-10T09:37:25Z</time></trkpt><trkpt lat="44.28772148752482" lon="11.516733868436374"><ele>333.20000000000005</ele><time>2026-04-10T09:37:26Z</time></trkpt><trkpt lat="44.28764058900178" lon="11.51659839952591"><ele>334.6</ele><time>2026-04-10T09:37:27Z</time></trkpt><trkpt lat="44.28756481159799" lon="11.516497841716168"><ele>336.0</ele><time>2026-04-10T09:37:28Z</time></trkpt><trkpt lat="44.28746549510688" lon="11.516442049490943"><ele>336.0</ele><time>2026-04-10T09:37:29Z</time></trkpt><trkpt lat="44.28735353776132" lon="11.51644410942795"><ele>336.0</ele><time>2026-04-10T09:37:30Z</time></trkpt><trkpt lat="44.287255385145095" lon="11.516512639890685"><ele>336.0</ele><time>2026-04-10T09:37:31Z</time></trkpt><trkpt lat="44.28715470838669" lon="11.516579215594739"><ele>336.0</ele><time>2026-04-10T09:37:32Z</time></trkpt><trkpt lat="44.28704725848314" lon="11.516616024695816"><ele>336.0</ele><time>2026-04-10T09:37:33Z</time></trkpt><trkpt lat="44.28694185123729" lon="11.51656358948328"><ele>338.6</ele><time>2026-04-10T09:37:34Z</time></trkpt><trkpt lat="44.28684028589069" lon="11.516564750655926"><ele>341.20000000000005</ele><time>2026-04-10T09:37:35Z</time></trkpt><trkpt lat="44.28674941818425" lon="11.516596461197889"><ele>343.79999999999995</ele><time>2026-04-10T09:37:36Z</time></trkpt><trkpt lat="44.28665607340486" lon="11.516662028067381"><ele>346.4</ele><time>2026-04-10T09:37:37.001Z</time></trkpt><trkpt lat="44.28656434656124" lon="11.516745345977355"><ele>349.0</ele><time>2026-04-10T09:37:38.001Z</time></trkpt><trkpt lat="44.28646838053079" lon="11.51679991459779"><ele>350.75</ele><time>2026-04-10T09:37:39.001Z</time></trkpt><trkpt lat="44.28635714631698" lon="11.516769713338164"><ele>352.5</ele><time>2026-04-10T09:37:40.001Z</time></trkpt><trkpt lat="44.28622391248284" lon="11.516736972479023"><ele>354.25</ele><time>2026-04-10T09:37:41.001Z</time></trkpt><trkpt lat="44.28607331430604" lon="11.516719219702518"><ele>356.0</ele><time>2026-04-10T09:37:42.001Z</time></trkpt><trkpt lat="44.28594345889904" lon="11.516682733055893"><ele>356.0</ele><time>2026-04-10T09:37:43.001Z</time></trkpt><trkpt lat="44.28582081585987" lon="11.51665967400469"><ele>356.0</ele><time>2026-04-10T09:37:44.001Z</time></trkpt><trkpt lat="44.28569366292144" lon="11.51667249551846"><ele>356.0</ele><time>2026-04-10T09:37:45.001Z</time></trkpt><trkpt lat="44.285578177775335" lon="11.516719938426837"><ele>356.0</ele><time>2026-04-10T09:37:46.001Z</time></trkpt><trkpt lat="44.28548211460522" lon="11.516814972818844"><ele>356.75</ele><time>2026-04-10T09:37:47.001Z</time></trkpt><trkpt lat="44.285405890308596" lon="11.516940967995163"><ele>357.5</ele><time>2026-04-10T09:37:48.001Z</time></trkpt><trkpt lat="44.285332684220336" lon="11.517082883063583"><ele>358.25</ele><time>2026-04-10T09:37:49.001Z</time></trkpt><trkpt lat="44.28525220566919" lon="11.517194963285768"><ele>359.0</ele><time>2026-04-10T09:37:50.001Z</time></trkpt><trkpt lat="44.28515588532902" lon="11.517273198665203"><ele>359.0</ele><time>2026-04-10T09:37:51.001Z</time></trkpt><trkpt lat="44.28504814421705" lon="11.517332968686176"><ele>359.0</ele><time>2026-04-10T09:37:52.001Z</time></trkpt><trkpt lat="44.2849424270746" lon="11.517365837001098"><ele>359.0</ele><time>2026-04-10T09:37:53.001Z</time></trkpt><trkpt lat="44.28484834327603" lon="11.517414637816703"><ele>359.0</ele><time>2026-04-10T09:37:54.001Z</time></trkpt><trkpt lat="44.28477072754849" lon="11.517500215265368"><ele>359.0</ele><time>2026-04-10T09:37:55.001Z</time></trkpt><trkpt lat="44.28471235752434" lon="11.517609087876595"><ele>362.75</ele><time>2026-04-10T09:37:56.001Z</time></trkpt><trkpt lat="44.28466373295722" lon="11.517737356682336"><ele>366.5</ele><time>2026-04-10T09:37:57.001Z</time></trkpt><trkpt lat="44.28462065088093" lon="11.517879344002573"><ele>370.25</ele><time>2026-04-10T09:37:58.001Z</time></trkpt><trkpt lat="44.28457464050999" lon="11.518032413688287"><ele>374.0</ele><time>2026-04-10T09:37:59.001Z</time></trkpt><trkpt lat="44.28452411028419" lon="11.518181157517036"><ele>376.75</ele><time>2026-04-10T09:38:00.001Z</time></trkpt><trkpt lat="44.28447351031497" lon="11.518334819206334"><ele>379.5</ele><time>2026-04-10T09:38:01.001Z</time></trkpt><trkpt lat="44.284451015910264" lon="11.518495082773006"><ele>382.25</ele><time>2026-04-10T09:38:02.001Z</time></trkpt><trkpt lat="44.28445384544868" lon="11.51865627881193"><ele>385.0</ele><time>2026-04-10T09:38:03.001Z</time></trkpt><trkpt lat="44.28448480398334" lon="11.51880443661652"><ele>385.2</ele><time>2026-04-10T09:38:04.001Z</time></trkpt><trkpt lat="44.284528497644146" lon="11.518940363513257"><ele>385.4</ele><time>2026-04-10T09:38:05.001Z</time></trkpt><trkpt lat="44.2845662281208" lon="11.519063957608465"><ele>385.6</ele><time>2026-04-10T09:38:06.001Z</time></trkpt><trkpt lat="44.284594004595036" lon="11.519196961149238"><ele>385.8</ele><time>2026-04-10T09:38:07.001Z</time></trkpt><trkpt lat="44.28461753465229" lon="11.519315968735953"><ele>386.0</ele><time>2026-04-10T09:38:08.001Z</time></trkpt><trkpt lat="44.28464741695225" lon="11.519414509760077"><ele>386.0</ele><time>2026-04-10T09:38:09.001Z</time></trkpt><trkpt lat="44.28465472591598" lon="11.519504416432548"><ele>386.0</ele><time>2026-04-10T09:38:10.001Z</time></trkpt><trkpt lat="44.28463738816906" lon="11.519627621100073"><ele>386.0</ele><time>2026-04-10T09:38:12.001Z</time></trkpt><trkpt lat="44.28449118115619" lon="11.519646659812677"><ele>386.0</ele><time>2026-04-10T09:38:14.001Z</time></trkpt><trkpt lat="44.284409795620036" lon="11.519594798151507"><ele>386.0</ele><time>2026-04-10T09:38:15.001Z</time></trkpt><trkpt lat="44.28431850916575" lon="11.519541032636964"><ele>386.0</ele><time>2026-04-10T09:38:16.001Z</time></trkpt><trkpt lat="44.28420855225692" lon="11.519512112342937"><ele>386.0</ele><time>2026-04-10T09:38:17.001Z</time></trkpt><trkpt lat="44.28409234244401" lon="11.519498434985389"><ele>386.0</ele><time>2026-04-10T09:38:18.001Z</time></trkpt><trkpt lat="44.28397716491398" lon="11.51946416401078"><ele>386.0</ele><time>2026-04-10T09:38:19.001Z</time></trkpt><trkpt lat="44.28387252550786" lon="11.519387905447491"><ele>388.20000000000005</ele><time>2026-04-10T09:38:20.001Z</time></trkpt><trkpt lat="44.28377921134912" lon="11.519285044043828"><ele>390.40000000000003</ele><time>2026-04-10T09:38:21.001Z</time></trkpt><trkpt lat="44.28370035033388" lon="11.51917672572889"><ele>392.6</ele><time>2026-04-10T09:38:22.001Z</time></trkpt><trkpt lat="44.28365667051405" lon="11.519042900532313"><ele>394.8</ele><time>2026-04-10T09:38:23.001Z</time></trkpt><trkpt lat="44.28359509035173" lon="11.518951296536184"><ele>397.0</ele><time>2026-04-10T09:38:24.001Z</time></trkpt><trkpt lat="44.28349833607021" lon="11.518883306103486"><ele>397.0</ele><time>2026-04-10T09:38:25Z</time></trkpt><trkpt lat="44.28335367960009" lon="11.518940188089084"><ele>397.0</ele><time>2026-04-10T09:38:26Z</time></trkpt><trkpt lat="44.28322102632503" lon="11.518979575672319"><ele>397.0</ele><time>2026-04-10T09:38:27Z</time></trkpt><trkpt lat="44.28309933184427" lon="11.518996633712787"><ele>397.0</ele><time>2026-04-10T09:38:28Z</time></trkpt><trkpt lat="44.282998393013784" lon="11.51903105307796"><ele>400.6</ele><time>2026-04-10T09:38:29Z</time></trkpt><trkpt lat="44.28291464179045" lon="11.519086814215708"><ele>404.20000000000005</ele><time>2026-04-10T09:38:30Z</time></trkpt><trkpt lat="44.282842384659155" lon="11.519167023233894"><ele>407.8</ele><time>2026-04-10T09:38:31Z</time></trkpt><trkpt lat="44.282809426664755" lon="11.519296250583674"><ele>411.4</ele><time>2026-04-10T09:38:32Z</time></trkpt><trkpt lat="44.28276699099906" lon="11.519421597327028"><ele>415.0</ele><time>2026-04-10T09:38:33Z</time></trkpt><trkpt lat="44.28271510452885" lon="11.519554831972108"><ele>414.2</ele><time>2026-04-10T09:38:34Z</time></trkpt><trkpt lat="44.28266547702014" lon="11.519689674965285"><ele>413.4</ele><time>2026-04-10T09:38:35Z</time></trkpt><trkpt lat="44.282615621450184" lon="11.519820917574924"><ele>412.6</ele><time>2026-04-10T09:38:36Z</time></trkpt><trkpt lat="44.282572302305894" lon="11.51994065983319"><ele>411.8</ele><time>2026-04-10T09:38:37Z</time></trkpt><trkpt lat="44.282531894601675" lon="11.520041680112062"><ele>411.0</ele><time>2026-04-10T09:38:38Z</time></trkpt><trkpt lat="44.282482960612576" lon="11.520126712369077"><ele>411.0</ele><time>2026-04-10T09:38:39Z</time></trkpt><trkpt lat="44.282419806180165" lon="11.52017659312012"><ele>411.0</ele><time>2026-04-10T09:38:40Z</time></trkpt><trkpt lat="44.28234072276817" lon="11.520186303866696"><ele>411.0</ele><time>2026-04-10T09:38:41Z</time></trkpt><trkpt lat="44.28227754786151" lon="11.520130612797807"><ele>411.0</ele><time>2026-04-10T09:38:42Z</time></trkpt><trkpt lat="44.28227806090664" lon="11.520027672309112"><ele>411.0</ele><time>2026-04-10T09:38:43Z</time></trkpt><trkpt lat="44.28230813619779" lon="11.519933194808067"><ele>411.0</ele><time>2026-04-10T09:38:44Z</time></trkpt><trkpt lat="44.282344358233125" lon="11.519844027312274"><ele>411.0</ele><time>2026-04-10T09:38:45Z</time></trkpt><trkpt lat="44.282368387148416" lon="11.519751105882074"><ele>411.0</ele><time>2026-04-10T09:38:46Z</time></trkpt><trkpt lat="44.28240773967843" lon="11.519673575924116"><ele>411.0</ele><time>2026-04-10T09:38:47Z</time></trkpt><trkpt lat="44.282416551956324" lon="11.519548788652559"><ele>411.0</ele><time>2026-04-10T09:38:48Z</time></trkpt><trkpt lat="44.28239123060315" lon="11.51942693977982"><ele>411.0</ele><time>2026-04-10T09:38:49Z</time></trkpt><trkpt lat="44.28231196778344" lon="11.519327110207783"><ele>411.0</ele><time>2026-04-10T09:38:50Z</time></trkpt><trkpt lat="44.28223218627603" lon="11.519194101212747"><ele>416.5</ele><time>2026-04-10T09:38:51Z</time></trkpt><trkpt lat="44.282134512932465" lon="11.519058100062397"><ele>422.0</ele><time>2026-04-10T09:38:52Z</time></trkpt><trkpt lat="44.28203311599507" lon="11.518905850778195"><ele>427.5</ele><time>2026-04-10T09:38:53Z</time></trkpt><trkpt lat="44.2819269704739" lon="11.518754384037075"><ele>433.0</ele><time>2026-04-10T09:38:54Z</time></trkpt><trkpt lat="44.28182635431475" lon="11.518618056792022"><ele>433.0</ele><time>2026-04-10T09:38:55Z</time></trkpt><trkpt lat="44.28173063519015" lon="11.518492111719004"><ele>433.0</ele><time>2026-04-10T09:38:56Z</time></trkpt><trkpt lat="44.28164728402454" lon="11.51836657848558"><ele>433.0</ele><time>2026-04-10T09:38:57Z</time></trkpt><trkpt lat="44.28158681457815" lon="11.51822651451006"><ele>433.0</ele><time>2026-04-10T09:38:58Z</time></trkpt><trkpt lat="44.28155875654353" lon="11.518077644290084"><ele>433.00000000000006</ele><time>2026-04-10T09:38:59Z</time></trkpt><trkpt lat="44.281550849239586" lon="11.517940070468079"><ele>433.0</ele><time>2026-04-10T09:39:00Z</time></trkpt><trkpt lat="44.28151429053217" lon="11.517835566155277"><ele>433.0</ele><time>2026-04-10T09:39:01Z</time></trkpt><trkpt lat="44.2814836636027" lon="11.517747155105342"><ele>433.0</ele><time>2026-04-10T09:39:02Z</time></trkpt><trkpt lat="44.28142266329341" lon="11.517708921434657"><ele>433.00000000000006</ele><time>2026-04-10T09:39:03Z</time></trkpt><trkpt lat="44.28130755340404" lon="11.51766187714972"><ele>433.0</ele><time>2026-04-10T09:39:05Z</time></trkpt><trkpt lat="44.28123459767056" lon="11.517529704608492"><ele>434.00000000000006</ele><time>2026-04-10T09:39:07Z</time></trkpt><trkpt lat="44.281195170512255" lon="11.517440053812479"><ele>435.0</ele><time>2026-04-10T09:39:09Z</time></trkpt><trkpt lat="44.28111893421027" lon="11.517359125744179"><ele>436.0</ele><time>2026-04-10T09:39:39.001Z</time></trkpt><trkpt lat="44.28106182983529" lon="11.517318895886563"><ele>437.0</ele><time>2026-04-10T09:39:40.001Z</time></trkpt><trkpt lat="44.28099310627859" lon="11.517259354707255"><ele>438.00000000000006</ele><time>2026-04-10T09:39:41.001Z</time></trkpt><trkpt lat="44.28091441026325" lon="11.517198052201575"><ele>439.0</ele><time>2026-04-10T09:39:42.001Z</time></trkpt><trkpt lat="44.28082647700472" lon="11.517128715003624"><ele>437.0</ele><time>2026-04-10T09:39:43.001Z</time></trkpt><trkpt lat="44.280733099193114" lon="11.517053487963254"><ele>435.0</ele><time>2026-04-10T09:39:44.001Z</time></trkpt><trkpt lat="44.280639944011455" lon="11.516978440281408"><ele>433.0</ele><time>2026-04-10T09:39:45.001Z</time></trkpt><trkpt lat="44.28054759001799" lon="11.516904038037898"><ele>431.0</ele><time>2026-04-10T09:39:46.001Z</time></trkpt><trkpt lat="44.2804572245972" lon="11.516831238518453"><ele>429.0</ele><time>2026-04-10T09:39:47.001Z</time></trkpt><trkpt lat="44.28036917288356" lon="11.516760608865734"><ele>428.79999999999995</ele><time>2026-04-10T09:39:48.001Z</time></trkpt><trkpt lat="44.280272695711304" lon="11.516706247974566"><ele>428.59999999999997</ele><time>2026-04-10T09:39:49.001Z</time></trkpt><trkpt lat="44.28018417864835" lon="11.516632467412084"><ele>428.4</ele><time>2026-04-10T09:39:50.001Z</time></trkpt><trkpt lat="44.280095142574126" lon="11.516559008743215"><ele>428.2</ele><time>2026-04-10T09:39:51.001Z</time></trkpt><trkpt lat="44.28000350077046" lon="11.516492631226214"><ele>428.0</ele><time>2026-04-10T09:39:52.001Z</time></trkpt><trkpt lat="44.27990215193107" lon="11.51641486726787"><ele>428.0</ele><time>2026-04-10T09:39:53.001Z</time></trkpt><trkpt lat="44.27977161468184" lon="11.516395407663143"><ele>428.0</ele><time>2026-04-10T09:39:54.001Z</time></trkpt><trkpt lat="44.27964444707872" lon="11.516398152855203"><ele>428.0</ele><time>2026-04-10T09:39:55.001Z</time></trkpt><trkpt lat="44.27952694333144" lon="11.516408567055002"><ele>428.0</ele><time>2026-04-10T09:39:56.001Z</time></trkpt><trkpt lat="44.279407303966714" lon="11.516419408060854"><ele>426.5</ele><time>2026-04-10T09:39:57.001Z</time></trkpt><trkpt lat="44.27928534861277" lon="11.516430458926177"><ele>425.0</ele><time>2026-04-10T09:39:58.001Z</time></trkpt><trkpt lat="44.27916362491913" lon="11.516458658296523"><ele>423.5</ele><time>2026-04-10T09:39:59.001Z</time></trkpt><trkpt lat="44.279037866512816" lon="11.516464663998649"><ele>422.0</ele><time>2026-04-10T09:40:00.001Z</time></trkpt><trkpt lat="44.27891036992861" lon="11.516475604003842"><ele>422.0</ele><time>2026-04-10T09:40:01.001Z</time></trkpt><trkpt lat="44.27878366500278" lon="11.516485828668015"><ele>422.0</ele><time>2026-04-10T09:40:02.001Z</time></trkpt><trkpt lat="44.27865685768955" lon="11.516489281934684"><ele>422.0</ele><time>2026-04-10T09:40:03.001Z</time></trkpt><trkpt lat="44.27852696185424" lon="11.516474247031322"><ele>422.0</ele><time>2026-04-10T09:40:04.001Z</time></trkpt><trkpt lat="44.27839335263904" lon="11.516443230514888"><ele>422.0</ele><time>2026-04-10T09:40:05.001Z</time></trkpt><trkpt lat="44.278259312404906" lon="11.5163930344479"><ele>422.0</ele><time>2026-04-10T09:40:06.001Z</time></trkpt><trkpt lat="44.27813592641668" lon="11.516304656506968"><ele>422.0</ele><time>2026-04-10T09:40:07.001Z</time></trkpt><trkpt lat="44.27802013855468" lon="11.516209878774385"><ele>422.0</ele><time>2026-04-10T09:40:08.001Z</time></trkpt><trkpt lat="44.2779156631112" lon="11.516098985807462"><ele>425.5</ele><time>2026-04-10T09:40:09.001Z</time></trkpt><trkpt lat="44.27782351029826" lon="11.515977225999846"><ele>429.0</ele><time>2026-04-10T09:40:10.001Z</time></trkpt><trkpt lat="44.27773150793529" lon="11.515842430946371"><ele>432.5</ele><time>2026-04-10T09:40:11.001Z</time></trkpt><trkpt lat="44.27764325388931" lon="11.515699179774835"><ele>436.0</ele><time>2026-04-10T09:40:12.001Z</time></trkpt><trkpt lat="44.27755532910536" lon="11.515557872273417"><ele>436.0</ele><time>2026-04-10T09:40:13.001Z</time></trkpt><trkpt lat="44.2774787194175" lon="11.515434749917938"><ele>436.0</ele><time>2026-04-10T09:40:14.001Z</time></trkpt><trkpt lat="44.27741684231748" lon="11.515336793511766"><ele>436.0</ele><time>2026-04-10T09:40:15.001Z</time></trkpt><trkpt lat="44.27737048226304" lon="11.515264560432097"><ele>436.0</ele><time>2026-04-10T09:40:16.001Z</time></trkpt><trkpt lat="44.2773163005169" lon="11.515180140962089"><ele>436.0</ele><time>2026-04-10T09:40:17.001Z</time></trkpt><trkpt lat="44.277250291215964" lon="11.515077293047407"><ele>437.6</ele><time>2026-04-10T09:40:18.001Z</time></trkpt><trkpt lat="44.27717669516088" lon="11.514962624545506"><ele>439.20000000000005</ele><time>2026-04-10T09:40:19.001Z</time></trkpt><trkpt lat="44.27710118430336" lon="11.514844971542141"><ele>440.79999999999995</ele><time>2026-04-10T09:40:20.001Z</time></trkpt><trkpt lat="44.27703492847961" lon="11.51473951521514"><ele>442.4</ele><time>2026-04-10T09:40:21.001Z</time></trkpt><trkpt lat="44.27696171776455" lon="11.514620038998446"><ele>444.0</ele><time>2026-04-10T09:40:22.001Z</time></trkpt><trkpt lat="44.27688320360096" lon="11.514491908550186"><ele>444.0</ele><time>2026-04-10T09:40:23.001Z</time></trkpt><trkpt lat="44.276821624235495" lon="11.514380415977673"><ele>444.0</ele><time>2026-04-10T09:40:24.001Z</time></trkpt><trkpt lat="44.27675827198436" lon="11.514248171948756"><ele>444.0</ele><time>2026-04-10T09:40:25.001Z</time></trkpt><trkpt lat="44.276706681063544" lon="11.514118891650785"><ele>444.0</ele><time>2026-04-10T09:40:26.001Z</time></trkpt><trkpt lat="44.276664025476826" lon="11.513975487232077"><ele>444.0</ele><time>2026-04-10T09:40:27.001Z</time></trkpt><trkpt lat="44.27661606081371" lon="11.513795352273341"><ele>444.3333333333333</ele><time>2026-04-10T09:40:28.001Z</time></trkpt><trkpt lat="44.27659721441941" lon="11.513664923675815"><ele>444.66666666666663</ele><time>2026-04-10T09:40:29.001Z</time></trkpt><trkpt lat="44.27658752861784" lon="11.513535569133381"><ele>445.0</ele><time>2026-04-10T09:40:30.001Z</time></trkpt><trkpt lat="44.2765820321222" lon="11.513397268789646"><ele>445.3333333333333</ele><time>2026-04-10T09:40:31Z</time></trkpt><trkpt lat="44.27658321806424" lon="11.51329448964839"><ele>445.66666666666663</ele><time>2026-04-10T09:40:32Z</time></trkpt><trkpt lat="44.2765686712688" lon="11.513188571171899"><ele>446.0</ele><time>2026-04-10T09:40:33Z</time></trkpt><trkpt lat="44.27652553371342" lon="11.513087147835499"><ele>464.0</ele><time>2026-04-10T09:40:36Z</time></trkpt><trkpt lat="44.27580595004022" lon="11.512902958940789"><ele>463.99999999999994</ele><time>2026-04-10T09:40:37Z</time></trkpt><trkpt lat="44.275746106546876" lon="11.512862359694305"><ele>464.0</ele><time>2026-04-10T09:40:38Z</time></trkpt><trkpt lat="44.27564003580694" lon="11.51278745352327"><ele>464.0</ele><time>2026-04-10T09:40:40Z</time></trkpt><trkpt lat="44.27558215021357" lon="11.51272803976158"><ele>464.0</ele><time>2026-04-10T09:40:41Z</time></trkpt><trkpt lat="44.27552032865062" lon="11.51264154654657"><ele>463.99999999999994</ele><time>2026-04-10T09:40:42Z</time></trkpt><trkpt lat="44.27545670414455" lon="11.512533799807967"><ele>464.0</ele><time>2026-04-10T09:40:43Z</time></trkpt><trkpt lat="44.27539035315227" lon="11.51240510649852"><ele>463.25</ele><time>2026-04-10T09:40:44Z</time></trkpt><trkpt lat="44.275316150876854" lon="11.512261573353994"><ele>462.5</ele><time>2026-04-10T09:40:45Z</time></trkpt><trkpt lat="44.27523837552776" lon="11.512109632351493"><ele>461.75</ele><time>2026-04-10T09:40:46Z</time></trkpt><trkpt lat="44.27515606577627" lon="11.511948428766509"><ele>461.0</ele><time>2026-04-10T09:40:47Z</time></trkpt><trkpt lat="44.27508419496489" lon="11.511770840808348"><ele>461.0</ele><time>2026-04-10T09:40:48Z</time></trkpt><trkpt lat="44.2749961308687" lon="11.51161142794053"><ele>461.0</ele><time>2026-04-10T09:40:49Z</time></trkpt><trkpt lat="44.274907681792584" lon="11.511449804386421"><ele>461.0</ele><time>2026-04-10T09:40:50Z</time></trkpt><trkpt lat="44.274818161882216" lon="11.51128541375678"><ele>461.0</ele><time>2026-04-10T09:40:51Z</time></trkpt><trkpt lat="44.274725466695834" lon="11.51111519224744"><ele>463.0</ele><time>2026-04-10T09:40:52Z</time></trkpt><trkpt lat="44.27462962864339" lon="11.510939199027918"><ele>465.0</ele><time>2026-04-10T09:40:53Z</time></trkpt><trkpt lat="44.274533761056986" lon="11.510765634797593"><ele>467.0</ele><time>2026-04-10T09:40:54Z</time></trkpt><trkpt lat="44.27444276944799" lon="11.510604976308931"><ele>467.0</ele><time>2026-04-10T09:40:55Z</time></trkpt><trkpt lat="44.27435841289023" lon="11.51045603306168"><ele>467.0</ele><time>2026-04-10T09:40:56Z</time></trkpt><trkpt lat="44.27428206375386" lon="11.510316121290321"><ele>467.0</ele><time>2026-04-10T09:40:57Z</time></trkpt><trkpt lat="44.27421117724994" lon="11.510182436357042"><ele>467.0</ele><time>2026-04-10T09:40:58Z</time></trkpt><trkpt lat="44.27415244499595" lon="11.510051930822753"><ele>467.6</ele><time>2026-04-10T09:40:59Z</time></trkpt><trkpt lat="44.27410683029889" lon="11.50992907961216"><ele>468.20000000000005</ele><time>2026-04-10T09:41:00Z</time></trkpt><trkpt lat="44.27405364859544" lon="11.509823788758807"><ele>468.8</ele><time>2026-04-10T09:41:01Z</time></trkpt><trkpt lat="44.2740190226792" lon="11.509708100382996"><ele>469.4</ele><time>2026-04-10T09:41:02Z</time></trkpt><trkpt lat="44.27400877706757" lon="11.50960075150871"><ele>470.0</ele><time>2026-04-10T09:41:03Z</time></trkpt><trkpt lat="44.27397553166378" lon="11.50943281444404"><ele>470.0</ele><time>2026-04-10T09:41:05Z</time></trkpt><trkpt lat="44.273955500652846" lon="11.50932962406123"><ele>470.0</ele><time>2026-04-10T09:41:06Z</time></trkpt><trkpt lat="44.273958971876546" lon="11.50923676681012"><ele>470.0</ele><time>2026-04-10T09:41:07Z</time></trkpt><trkpt lat="44.27382840567282" lon="11.509139389290686"><ele>470.0</ele><time>2026-04-10T09:41:08Z</time></trkpt><trkpt lat="44.27380055241597" lon="11.509021917874529"><ele>470.0</ele><time>2026-04-10T09:41:09Z</time></trkpt><trkpt lat="44.27376186603346" lon="11.50890738007709"><ele>471.0</ele><time>2026-04-10T09:41:10Z</time></trkpt><trkpt lat="44.273709437174716" lon="11.5088065460841"><ele>472.0</ele><time>2026-04-10T09:41:11Z</time></trkpt><trkpt lat="44.27366414505836" lon="11.508695828150278"><ele>473.0</ele><time>2026-04-10T09:41:12Z</time></trkpt><trkpt lat="44.273608999328474" lon="11.508591506672778"><ele>474.0</ele><time>2026-04-10T09:41:13Z</time></trkpt><trkpt lat="44.27356544008561" lon="11.508469456512326"><ele>475.0</ele><time>2026-04-10T09:41:14Z</time></trkpt><trkpt lat="44.27351266725207" lon="11.508338742287371"><ele>477.4</ele><time>2026-04-10T09:41:15Z</time></trkpt><trkpt lat="44.27345597781292" lon="11.508211792365172"><ele>479.8</ele><time>2026-04-10T09:41:16Z</time></trkpt><trkpt lat="44.273403333867556" lon="11.508100305085199"><ele>482.20000000000005</ele><time>2026-04-10T09:41:17Z</time></trkpt><trkpt lat="44.2733653392715" lon="11.507984501204938"><ele>484.6</ele><time>2026-04-10T09:41:18Z</time></trkpt><trkpt lat="44.27333384557031" lon="11.507865806726212"><ele>487.0</ele><time>2026-04-10T09:41:19Z</time></trkpt><trkpt lat="44.273302432181076" lon="11.507761567961259"><ele>487.00000000000006</ele><time>2026-04-10T09:41:20Z</time></trkpt><trkpt lat="44.27326308199503" lon="11.507685292442378"><ele>487.0</ele><time>2026-04-10T09:41:21Z</time></trkpt><trkpt lat="44.2732120728466" lon="11.507628691184502"><ele>487.0</ele><time>2026-04-10T09:41:22Z</time></trkpt><trkpt lat="44.27314239945634" lon="11.507593382812864"><ele>487.0</ele><time>2026-04-10T09:41:23Z</time></trkpt><trkpt lat="44.273050448750936" lon="11.507616185342906"><ele>487.00000000000006</ele><time>2026-04-10T09:41:24Z</time></trkpt><trkpt lat="44.27296391320799" lon="11.507632120593009"><ele>487.0</ele><time>2026-04-10T09:41:25Z</time></trkpt><trkpt lat="44.27287784837447" lon="11.507630641516888"><ele>487.6</ele><time>2026-04-10T09:41:26Z</time></trkpt><trkpt lat="44.27279514208072" lon="11.507592565083934"><ele>488.20000000000005</ele><time>2026-04-10T09:41:27Z</time></trkpt><trkpt lat="44.27271514318855" lon="11.50752158014612"><ele>488.8</ele><time>2026-04-10T09:41:28Z</time></trkpt><trkpt lat="44.27265871114353" lon="11.507413199178382"><ele>489.4</ele><time>2026-04-10T09:41:29Z</time></trkpt><trkpt lat="44.272608301562066" lon="11.507283603732441"><ele>490.0</ele><time>2026-04-10T09:41:30Z</time></trkpt><trkpt lat="44.272562429349236" lon="11.507147676893556"><ele>488.4</ele><time>2026-04-10T09:41:31Z</time></trkpt><trkpt lat="44.272525315092736" lon="11.507010932657055"><ele>486.8</ele><time>2026-04-10T09:41:32Z</time></trkpt><trkpt lat="44.27249316228347" lon="11.506879352136604"><ele>485.20000000000005</ele><time>2026-04-10T09:41:33Z</time></trkpt><trkpt lat="44.27245795747073" lon="11.506753775747335"><ele>483.6</ele><time>2026-04-10T09:41:34Z</time></trkpt><trkpt lat="44.27241475871257" lon="11.50663314587077"><ele>482.0</ele><time>2026-04-10T09:41:35Z</time></trkpt><trkpt lat="44.27235938563067" lon="11.5065216259557"><ele>482.0</ele><time>2026-04-10T09:41:36Z</time></trkpt><trkpt lat="44.27230282142101" lon="11.50641549152614"><ele>482.00000000000006</ele><time>2026-04-10T09:41:37Z</time></trkpt><trkpt lat="44.272252658675626" lon="11.506322596086845"><ele>482.0</ele><time>2026-04-10T09:41:38Z</time></trkpt><trkpt lat="44.272204452884196" lon="11.506243220801322"><ele>482.0</ele><time>2026-04-10T09:41:39Z</time></trkpt><trkpt lat="44.27215849067302" lon="11.506173928832636"><ele>482.00000000000006</ele><time>2026-04-10T09:41:40Z</time></trkpt><trkpt lat="44.27210629904875" lon="11.506118804821229"><ele>482.0</ele><time>2026-04-10T09:41:41Z</time></trkpt><trkpt lat="44.2720495892208" lon="11.506079495194378"><ele>482.0</ele><time>2026-04-10T09:41:42Z</time></trkpt><trkpt lat="44.2719715682667" lon="11.506066113728775"><ele>480.0</ele><time>2026-04-10T09:41:43Z</time></trkpt><trkpt lat="44.27187446958498" lon="11.506086212910086"><ele>478.00000000000006</ele><time>2026-04-10T09:41:44.001Z</time></trkpt><trkpt lat="44.27177444643502" lon="11.506128254583743"><ele>476.00000000000006</ele><time>2026-04-10T09:41:45.001Z</time></trkpt><trkpt lat="44.27167121117031" lon="11.506165497887277"><ele>474.0</ele><time>2026-04-10T09:41:46.001Z</time></trkpt><trkpt lat="44.27156591138479" lon="11.506194887071592"><ele>472.0</ele><time>2026-04-10T09:41:47.001Z</time></trkpt><trkpt lat="44.27146455121809" lon="11.506211505808121"><ele>471.83333333333337</ele><time>2026-04-10T09:41:48.001Z</time></trkpt><trkpt lat="44.27136664508751" lon="11.506222441712142"><ele>471.6666666666667</ele><time>2026-04-10T09:41:49.001Z</time></trkpt><trkpt lat="44.271275684770764" lon="11.50622979787519"><ele>471.5</ele><time>2026-04-10T09:41:50.001Z</time></trkpt><trkpt lat="44.27118842264333" lon="11.506239344414087"><ele>471.33333333333337</ele><time>2026-04-10T09:41:51.001Z</time></trkpt><trkpt lat="44.271111546961066" lon="11.50624991730664"><ele>471.1666666666667</ele><time>2026-04-10T09:41:52.001Z</time></trkpt><trkpt lat="44.271047534746124" lon="11.506256702038893"><ele>471.0</ele><time>2026-04-10T09:41:53.001Z</time></trkpt><trkpt lat="44.27099091750085" lon="11.506191669402078"><ele>471.00000000000006</ele><time>2026-04-10T09:41:54.001Z</time></trkpt><trkpt lat="44.27098443554592" lon="11.506085471974487"><ele>471.0</ele><time>2026-04-10T09:41:55.001Z</time></trkpt><trkpt lat="44.270971133149274" lon="11.505987847187386"><ele>471.00000000000006</ele><time>2026-04-10T09:41:56.001Z</time></trkpt><trkpt lat="44.27095372215918" lon="11.505886806959603"><ele>471.00000000000006</ele><time>2026-04-10T09:41:57.001Z</time></trkpt><trkpt lat="44.270928631703306" lon="11.505792180601002"><ele>471.0</ele><time>2026-04-10T09:41:58.001Z</time></trkpt><trkpt lat="44.27089114124096" lon="11.505698937247944"><ele>471.00000000000006</ele><time>2026-04-10T09:41:59.001Z</time></trkpt><trkpt lat="44.270844412751174" lon="11.505614509851013"><ele>471.00000000000006</ele><time>2026-04-10T09:42:00.001Z</time></trkpt><trkpt lat="44.27076543387768" lon="11.505557033880946"><ele>471.0</ele><time>2026-04-10T09:42:01.001Z</time></trkpt><trkpt lat="44.27066535515307" lon="11.50555573436419"><ele>471.0</ele><time>2026-04-10T09:42:02.001Z</time></trkpt><trkpt lat="44.27055355831478" lon="11.505507241730966"><ele>471.0</ele><time>2026-04-10T09:42:03.001Z</time></trkpt><trkpt lat="44.270438062921905" lon="11.505481369126548"><ele>471.0</ele><time>2026-04-10T09:42:04.001Z</time></trkpt><trkpt lat="44.27032297357033" lon="11.505446285943878"><ele>470.0</ele><time>2026-04-10T09:42:05.001Z</time></trkpt><trkpt lat="44.270212117183846" lon="11.505391589599329"><ele>469.0</ele><time>2026-04-10T09:42:06.001Z</time></trkpt><trkpt lat="44.27010926024633" lon="11.505311805281057"><ele>468.0</ele><time>2026-04-10T09:42:07.001Z</time></trkpt><trkpt lat="44.270010732674045" lon="11.505206672110457"><ele>467.0</ele><time>2026-04-10T09:42:08.001Z</time></trkpt><trkpt lat="44.26991421417102" lon="11.50509110997071"><ele>467.0</ele><time>2026-04-10T09:42:09.001Z</time></trkpt><trkpt lat="44.2698281749814" lon="11.5049772830468"><ele>467.00000000000006</ele><time>2026-04-10T09:42:10.001Z</time></trkpt><trkpt lat="44.26975232501033" lon="11.504866688262021"><ele>467.00000000000006</ele><time>2026-04-10T09:42:11.001Z</time></trkpt><trkpt lat="44.269678665357205" lon="11.504776674637641"><ele>467.0</ele><time>2026-04-10T09:42:12.001Z</time></trkpt><trkpt lat="44.26963070885163" lon="11.504683675262678"><ele>467.0</ele><time>2026-04-10T09:42:13.001Z</time></trkpt><trkpt lat="44.26957161170511" lon="11.504629590295387"><ele>466.8</ele><time>2026-04-10T09:42:14.001Z</time></trkpt><trkpt lat="44.26949148383435" lon="11.50451969261029"><ele>466.6</ele><time>2026-04-10T09:42:16.001Z</time></trkpt><trkpt lat="44.26944697225533" lon="11.504450356726519"><ele>466.40000000000003</ele><time>2026-04-10T09:42:17.001Z</time></trkpt><trkpt lat="44.269373529016804" lon="11.504416312466399"><ele>466.20000000000005</ele><time>2026-04-10T09:42:18.001Z</time></trkpt><trkpt lat="44.26928077073342" lon="11.504424208652345"><ele>466.0</ele><time>2026-04-10T09:42:19.001Z</time></trkpt><trkpt lat="44.26918900912856" lon="11.504485002531055"><ele>466.0</ele><time>2026-04-10T09:42:20.001Z</time></trkpt><trkpt lat="44.269079837619614" lon="11.504509300653918"><ele>466.0</ele><time>2026-04-10T09:42:21.001Z</time></trkpt><trkpt lat="44.26897188470792" lon="11.504554095529027"><ele>466.0</ele><time>2026-04-10T09:42:22.001Z</time></trkpt><trkpt lat="44.26887043409594" lon="11.504592262859076"><ele>466.0</ele><time>2026-04-10T09:42:23.001Z</time></trkpt><trkpt lat="44.26877283994156" lon="11.504635954438255"><ele>466.0</ele><time>2026-04-10T09:42:24.001Z</time></trkpt><trkpt lat="44.2686649345667" lon="11.50462427092943"><ele>465.6</ele><time>2026-04-10T09:42:25.001Z</time></trkpt><trkpt lat="44.26856843958346" lon="11.504554681929681"><ele>465.20000000000005</ele><time>2026-04-10T09:42:26.001Z</time></trkpt><trkpt lat="44.26847642602134" lon="11.50448330781229"><ele>464.79999999999995</ele><time>2026-04-10T09:42:27.001Z</time></trkpt><trkpt lat="44.26838582224062" lon="11.50439169464507"><ele>464.4</ele><time>2026-04-10T09:42:28.001Z</time></trkpt><trkpt lat="44.26829849495393" lon="11.50427798030517"><ele>464.0</ele><time>2026-04-10T09:42:29.001Z</time></trkpt><trkpt lat="44.26821577770325" lon="11.50415784167498"><ele>464.0</ele><time>2026-04-10T09:42:30.001Z</time></trkpt><trkpt lat="44.26815554079306" lon="11.504023512019192"><ele>464.0</ele><time>2026-04-10T09:42:31.001Z</time></trkpt><trkpt lat="44.26808954268935" lon="11.503901658896774"><ele>464.0</ele><time>2026-04-10T09:42:32.001Z</time></trkpt><trkpt lat="44.26802182816693" lon="11.503789256515356"><ele>464.0</ele><time>2026-04-10T09:42:33.001Z</time></trkpt><trkpt lat="44.26795233277492" lon="11.50368720212413"><ele>464.0</ele><time>2026-04-10T09:42:34.001Z</time></trkpt><trkpt lat="44.26787514988371" lon="11.503595979069008"><ele>463.0</ele><time>2026-04-10T09:42:35.001Z</time></trkpt><trkpt lat="44.2677881256845" lon="11.50351047092485"><ele>462.0</ele><time>2026-04-10T09:42:36.001Z</time></trkpt><trkpt lat="44.26768519675094" lon="11.503428068071303"><ele>461.0</ele><time>2026-04-10T09:42:37Z</time></trkpt><trkpt lat="44.267583025595364" lon="11.503342717588428"><ele>460.0</ele><time>2026-04-10T09:42:38Z</time></trkpt><trkpt lat="44.26748425407929" lon="11.50325864390269"><ele>460.0</ele><time>2026-04-10T09:42:39Z</time></trkpt><trkpt lat="44.26738371669629" lon="11.503176824422518"><ele>460.0</ele><time>2026-04-10T09:42:40Z</time></trkpt><trkpt lat="44.2672892476092" lon="11.503101818990283"><ele>460.0</ele><time>2026-04-10T09:42:41Z</time></trkpt><trkpt lat="44.267209773633326" lon="11.50303646645072"><ele>460.0</ele><time>2026-04-10T09:42:42Z</time></trkpt><trkpt lat="44.267145411747435" lon="11.502978246922705"><ele>460.0</ele><time>2026-04-10T09:42:43Z</time></trkpt><trkpt lat="44.26707866796536" lon="11.502942616067077"><ele>459.8</ele><time>2026-04-10T09:42:44Z</time></trkpt><trkpt lat="44.26701840222072" lon="11.502831932921277"><ele>459.6</ele><time>2026-04-10T09:42:46Z</time></trkpt><trkpt lat="44.26710204148929" lon="11.50266285776249"><ele>459.4</ele><time>2026-04-10T09:42:48Z</time></trkpt><trkpt lat="44.26713614343144" lon="11.502571183616364"><ele>459.2</ele><time>2026-04-10T09:42:49Z</time></trkpt><trkpt lat="44.26719009716234" lon="11.50248888229359"><ele>459.0</ele><time>2026-04-10T09:42:50Z</time></trkpt><trkpt lat="44.26725153454627" lon="11.502401533710357"><ele>458.0</ele><time>2026-04-10T09:42:51Z</time></trkpt><trkpt lat="44.267325391291834" lon="11.502321120334148"><ele>457.0</ele><time>2026-04-10T09:42:52Z</time></trkpt><trkpt lat="44.26740947158208" lon="11.50224940697643"><ele>456.0</ele><time>2026-04-10T09:42:53Z</time></trkpt><trkpt lat="44.267492298979" lon="11.502178711878804"><ele>455.0</ele><time>2026-04-10T09:42:54Z</time></trkpt><trkpt lat="44.267569978837116" lon="11.502106573119287"><ele>454.0</ele><time>2026-04-10T09:42:55Z</time></trkpt><trkpt lat="44.26763818293027" lon="11.502030947840614"><ele>452.33333333333337</ele><time>2026-04-10T09:42:56Z</time></trkpt><trkpt lat="44.26769959140844" lon="11.501946463876365"><ele>450.6666666666667</ele><time>2026-04-10T09:42:57Z</time></trkpt><trkpt lat="44.2677653368802" lon="11.501862059017554"><ele>449.0</ele><time>2026-04-10T09:42:58Z</time></trkpt><trkpt lat="44.26782330710366" lon="11.501758114758255"><ele>447.33333333333337</ele><time>2026-04-10T09:42:59Z</time></trkpt><trkpt lat="44.267866370180734" lon="11.501657779195915"><ele>445.6666666666667</ele><time>2026-04-10T09:43:00Z</time></trkpt><trkpt lat="44.26792328630118" lon="11.501591991108523"><ele>444.0</ele><time>2026-04-10T09:43:01Z</time></trkpt><trkpt lat="44.26798609505145" lon="11.50154720975929"><ele>444.0</ele><time>2026-04-10T09:43:02Z</time></trkpt><trkpt lat="44.26805464388557" lon="11.501534812053201"><ele>444.0</ele><time>2026-04-10T09:43:03Z</time></trkpt><trkpt lat="44.268133785312614" lon="11.501546605278392"><ele>444.0</ele><time>2026-04-10T09:43:04Z</time></trkpt><trkpt lat="44.268212448780865" lon="11.501570021769457"><ele>444.0</ele><time>2026-04-10T09:43:05Z</time></trkpt><trkpt lat="44.268288079155674" lon="11.501582560211983"><ele>444.0</ele><time>2026-04-10T09:43:06Z</time></trkpt><trkpt lat="44.2683563014635" lon="11.501568760303813"><ele>444.0</ele><time>2026-04-10T09:43:07Z</time></trkpt><trkpt lat="44.26841978421711" lon="11.501540874144041"><ele>444.0</ele><time>2026-04-10T09:43:08Z</time></trkpt><trkpt lat="44.26847232550633" lon="11.501491014942829"><ele>443.0</ele><time>2026-04-10T09:43:09Z</time></trkpt><trkpt lat="44.268506055962625" lon="11.501344661047309"><ele>442.0</ele><time>2026-04-10T09:43:11Z</time></trkpt><trkpt lat="44.26851021548228" lon="11.501256281067729"><ele>441.0</ele><time>2026-04-10T09:43:12Z</time></trkpt><trkpt lat="44.2684787032748" lon="11.501143067442277"><ele>440.0</ele><time>2026-04-10T09:43:13Z</time></trkpt><trkpt lat="44.268441643563854" lon="11.5010255673039"><ele>439.0</ele><time>2026-04-10T09:43:14Z</time></trkpt><trkpt lat="44.26840332278935" lon="11.5009006636488"><ele>437.0</ele><time>2026-04-10T09:43:15Z</time></trkpt><trkpt lat="44.26836444802563" lon="11.50077140068997"><ele>435.0</ele><time>2026-04-10T09:43:16Z</time></trkpt><trkpt lat="44.26832628515247" lon="11.500644503997195"><ele>433.0</ele><time>2026-04-10T09:43:17Z</time></trkpt><trkpt lat="44.26830810098815" lon="11.500523815338836"><ele>431.0</ele><time>2026-04-10T09:43:18Z</time></trkpt><trkpt lat="44.26830739744563" lon="11.500408521745651"><ele>429.0</ele><time>2026-04-10T09:43:19Z</time></trkpt><trkpt lat="44.268323645605285" lon="11.500286251008992"><ele>427.4</ele><time>2026-04-10T09:43:20Z</time></trkpt><trkpt lat="44.26835098941817" lon="11.500143983469144"><ele>425.79999999999995</ele><time>2026-04-10T09:43:21Z</time></trkpt><trkpt lat="44.268379392600295" lon="11.499997828714777"><ele>424.20000000000005</ele><time>2026-04-10T09:43:22Z</time></trkpt><trkpt lat="44.26840799294509" lon="11.49985065890727"><ele>422.6</ele><time>2026-04-10T09:43:23Z</time></trkpt><trkpt lat="44.26843274831849" lon="11.49972327486255"><ele>421.0</ele><time>2026-04-10T09:43:24Z</time></trkpt><trkpt lat="44.268452777052566" lon="11.499620212563327"><ele>420.0</ele><time>2026-04-10T09:43:25Z</time></trkpt><trkpt lat="44.26846083399177" lon="11.499469843223434"><ele>419.0</ele><time>2026-04-10T09:43:27Z</time></trkpt><trkpt lat="44.2684868770765" lon="11.499323814106086"><ele>418.0</ele><time>2026-04-10T09:43:29Z</time></trkpt><trkpt lat="44.268487532258426" lon="11.499192029281682"><ele>417.0</ele><time>2026-04-10T09:43:32Z</time></trkpt><trkpt lat="44.26843166570085" lon="11.499057494322326"><ele>416.0</ele><time>2026-04-10T09:43:34Z</time></trkpt><trkpt lat="44.26840470930477" lon="11.498970313088618"><ele>415.99999999999994</ele><time>2026-04-10T09:43:36Z</time></trkpt><trkpt lat="44.268451010689866" lon="11.498905355678858"><ele>416.0</ele><time>2026-04-10T09:43:39Z</time></trkpt><trkpt lat="44.268533913438624" lon="11.498998107762674"><ele>416.0</ele><time>2026-04-10T09:43:41Z</time></trkpt><trkpt lat="44.26860041087392" lon="11.499023496074837"><ele>416.0</ele><time>2026-04-10T09:43:42Z</time></trkpt><trkpt lat="44.26867800251385" lon="11.49906260528985"><ele>415.99999999999994</ele><time>2026-04-10T09:43:43Z</time></trkpt><trkpt lat="44.26875336603491" lon="11.49909675304584"><ele>416.0</ele><time>2026-04-10T09:43:44Z</time></trkpt><trkpt lat="44.268828463531065" lon="11.49913689585418"><ele>415.99999999999994</ele><time>2026-04-10T09:43:45Z</time></trkpt><trkpt lat="44.26890601040931" lon="11.499179166764314"><ele>416.0</ele><time>2026-04-10T09:43:46Z</time></trkpt><trkpt lat="44.26897649573759" lon="11.499219308933409"><ele>416.0</ele><time>2026-04-10T09:43:47Z</time></trkpt><trkpt lat="44.2690400961739" lon="11.4992832477581"><ele>416.0</ele><time>2026-04-10T09:43:48Z</time></trkpt><trkpt lat="44.26909613332338" lon="11.499368966635826"><ele>415.99999999999994</ele><time>2026-04-10T09:43:49Z</time></trkpt><trkpt lat="44.26915168942696" lon="11.49946183067356"><ele>416.0</ele><time>2026-04-10T09:43:50Z</time></trkpt><trkpt lat="44.2692051589256" lon="11.499557637857626"><ele>415.99999999999994</ele><time>2026-04-10T09:43:51Z</time></trkpt><trkpt lat="44.269276022697504" lon="11.499632686629853"><ele>416.0</ele><time>2026-04-10T09:43:52Z</time></trkpt><trkpt lat="44.269351559842015" lon="11.499708898230617"><ele>416.0</ele><time>2026-04-10T09:43:53Z</time></trkpt><trkpt lat="44.2694336568069" lon="11.499789044651763"><ele>416.0</ele><time>2026-04-10T09:43:54Z</time></trkpt><trkpt lat="44.2695111361205" lon="11.499855378898008"><ele>415.99999999999994</ele><time>2026-04-10T09:43:55.001Z</time></trkpt><trkpt lat="44.2695723144132" lon="11.499905379638507"><ele>416.0</ele><time>2026-04-10T09:43:56.001Z</time></trkpt><trkpt lat="44.269679597939124" lon="11.4999467869844"><ele>416.0</ele><time>2026-04-10T09:43:58.001Z</time></trkpt><trkpt lat="44.26972279710022" lon="11.499733684523783"><ele>416.0</ele><time>2026-04-10T09:44:01.001Z</time></trkpt><trkpt lat="44.26969607080485" lon="11.4996180545999"><ele>416.0</ele><time>2026-04-10T09:44:02.001Z</time></trkpt><trkpt lat="44.26966292409961" lon="11.499485505288584"><ele>416.0</ele><time>2026-04-10T09:44:03.001Z</time></trkpt><trkpt lat="44.269630344071004" lon="11.499359960748977"><ele>416.0</ele><time>2026-04-10T09:44:04.001Z</time></trkpt><trkpt lat="44.26959415586876" lon="11.499237390119985"><ele>414.20000000000005</ele><time>2026-04-10T09:44:05.001Z</time></trkpt><trkpt lat="44.26954816995628" lon="11.499120390455243"><ele>412.40000000000003</ele><time>2026-04-10T09:44:06.001Z</time></trkpt><trkpt lat="44.2694866685436" lon="11.499012150267896"><ele>410.6</ele><time>2026-04-10T09:44:07.001Z</time></trkpt><trkpt lat="44.269406695788284" lon="11.498906163299504"><ele>408.8</ele><time>2026-04-10T09:44:08.001Z</time></trkpt><trkpt lat="44.269320047371636" lon="11.498804017113631"><ele>407.0</ele><time>2026-04-10T09:44:09.001Z</time></trkpt><trkpt lat="44.2692238896123" lon="11.498689542570796"><ele>406.25</ele><time>2026-04-10T09:44:10.001Z</time></trkpt><trkpt lat="44.26912153323494" lon="11.498568472932671"><ele>405.5</ele><time>2026-04-10T09:44:11.001Z</time></trkpt><trkpt lat="44.26901514116371" lon="11.498441932505973"><ele>404.75</ele><time>2026-04-10T09:44:12.001Z</time></trkpt><trkpt lat="44.26890812943254" lon="11.49831645110343"><ele>404.0</ele><time>2026-04-10T09:44:13.001Z</time></trkpt><trkpt lat="44.2688009197704" lon="11.498187947827217"><ele>404.0</ele><time>2026-04-10T09:44:14.001Z</time></trkpt><trkpt lat="44.26868696814008" lon="11.498059190251398"><ele>404.0</ele><time>2026-04-10T09:44:15.001Z</time></trkpt><trkpt lat="44.2685721805291" lon="11.49792768253363"><ele>404.0</ele><time>2026-04-10T09:44:16.001Z</time></trkpt><trkpt lat="44.268458473258185" lon="11.497796679837764"><ele>404.0</ele><time>2026-04-10T09:44:17.001Z</time></trkpt><trkpt lat="44.268343634514586" lon="11.497663170743676"><ele>398.66666666666663</ele><time>2026-04-10T09:44:18.001Z</time></trkpt><trkpt lat="44.26822951031952" lon="11.497528868772052"><ele>393.33333333333337</ele><time>2026-04-10T09:44:19.001Z</time></trkpt><trkpt lat="44.26812556260578" lon="11.497374919456295"><ele>388.0</ele><time>2026-04-10T09:44:20.001Z</time></trkpt><trkpt lat="44.26801136649045" lon="11.497238650245759"><ele>388.0</ele><time>2026-04-10T09:44:21.001Z</time></trkpt><trkpt lat="44.26788837948416" lon="11.49711389924333"><ele>388.0</ele><time>2026-04-10T09:44:22.001Z</time></trkpt><trkpt lat="44.267779183316776" lon="11.496970626269412"><ele>388.0</ele><time>2026-04-10T09:44:23.001Z</time></trkpt><trkpt lat="44.26766897485024" lon="11.496832921830666"><ele>386.5</ele><time>2026-04-10T09:44:24.001Z</time></trkpt><trkpt lat="44.26755972452059" lon="11.496702113252194"><ele>385.0</ele><time>2026-04-10T09:44:25.001Z</time></trkpt><trkpt lat="44.26746517126275" lon="11.496587380508227"><ele>383.5</ele><time>2026-04-10T09:44:26.001Z</time></trkpt><trkpt lat="44.26737348646232" lon="11.496488793679397"><ele>382.0</ele><time>2026-04-10T09:44:27.001Z</time></trkpt><trkpt lat="44.26727520039619" lon="11.49640843405501"><ele>382.0</ele><time>2026-04-10T09:44:28.001Z</time></trkpt><trkpt lat="44.26716220072594" lon="11.496353618802763"><ele>382.0</ele><time>2026-04-10T09:44:29.001Z</time></trkpt><trkpt lat="44.26704482829069" lon="11.496319204934355"><ele>382.0</ele><time>2026-04-10T09:44:30.001Z</time></trkpt><trkpt lat="44.26692293475605" lon="11.496321518065866"><ele>382.0</ele><time>2026-04-10T09:44:31.001Z</time></trkpt><trkpt lat="44.266807027471046" lon="11.496351897836314"><ele>382.0</ele><time>2026-04-10T09:44:32.001Z</time></trkpt><trkpt lat="44.26669178903592" lon="11.496359565612147"><ele>382.0</ele><time>2026-04-10T09:44:33.001Z</time></trkpt><trkpt lat="44.26657878662427" lon="11.496381062111674"><ele>382.0</ele><time>2026-04-10T09:44:34.001Z</time></trkpt><trkpt lat="44.266470874248256" lon="11.496387729914554"><ele>382.0</ele><time>2026-04-10T09:44:35.001Z</time></trkpt><trkpt lat="44.26637647476513" lon="11.496336498907766"><ele>382.0</ele><time>2026-04-10T09:44:36.001Z</time></trkpt><trkpt lat="44.26630996393415" lon="11.496247517313213"><ele>380.0</ele><time>2026-04-10T09:44:37.001Z</time></trkpt><trkpt lat="44.26627480075391" lon="11.49613284669306"><ele>378.0</ele><time>2026-04-10T09:44:38.001Z</time></trkpt><trkpt lat="44.26626677383695" lon="11.496002896471392"><ele>376.0</ele><time>2026-04-10T09:44:39.001Z</time></trkpt><trkpt lat="44.26630275779235" lon="11.495876612464324"><ele>374.0</ele><time>2026-04-10T09:44:40.001Z</time></trkpt><trkpt lat="44.26636837950384" lon="11.495772339818966"><ele>372.0</ele><time>2026-04-10T09:44:41.001Z</time></trkpt><trkpt lat="44.266478056866596" lon="11.495697957829938"><ele>370.0</ele><time>2026-04-10T09:44:42.001Z</time></trkpt><trkpt lat="44.26659768923217" lon="11.495597469358417"><ele>368.0</ele><time>2026-04-10T09:44:43Z</time></trkpt><trkpt lat="44.26672010342397" lon="11.495466596277414"><ele>366.0</ele><time>2026-04-10T09:44:44Z</time></trkpt><trkpt lat="44.26685122839864" lon="11.49534915729707"><ele>362.6666666666667</ele><time>2026-04-10T09:44:45Z</time></trkpt><trkpt lat="44.26697963703197" lon="11.495231309943351"><ele>359.33333333333337</ele><time>2026-04-10T09:44:46Z</time></trkpt><trkpt lat="44.26710897931385" lon="11.49511583764145"><ele>356.0</ele><time>2026-04-10T09:44:47Z</time></trkpt><trkpt lat="44.26723758545874" lon="11.494998633504402"><ele>358.0</ele><time>2026-04-10T09:44:48Z</time></trkpt><trkpt lat="44.26736513731696" lon="11.494878462206085"><ele>360.0</ele><time>2026-04-10T09:44:49Z</time></trkpt><trkpt lat="44.26749568881164" lon="11.494763114096274"><ele>362.0</ele><time>2026-04-10T09:44:50Z</time></trkpt><trkpt lat="44.267623665999125" lon="11.494647101001895"><ele>359.0</ele><time>2026-04-10T09:44:51Z</time></trkpt><trkpt lat="44.26775086358761" lon="11.494531633250755"><ele>356.0</ele><time>2026-04-10T09:44:52Z</time></trkpt><trkpt lat="44.267877978270995" lon="11.494418776851521"><ele>353.0</ele><time>2026-04-10T09:44:53Z</time></trkpt><trkpt lat="44.268009912341235" lon="11.49430323826912"><ele>354.0</ele><time>2026-04-10T09:44:54Z</time></trkpt><trkpt lat="44.26814068949587" lon="11.49418753761929"><ele>355.0</ele><time>2026-04-10T09:44:55Z</time></trkpt><trkpt lat="44.26827087102511" lon="11.494066317225206"><ele>356.0</ele><time>2026-04-10T09:44:56Z</time></trkpt><trkpt lat="44.26840381330703" lon="11.493939580413521"><ele>356.0</ele><time>2026-04-10T09:44:57Z</time></trkpt><trkpt lat="44.26854030796064" lon="11.493809339703509"><ele>356.0</ele><time>2026-04-10T09:44:58Z</time></trkpt><trkpt lat="44.26866881328288" lon="11.493688834503294"><ele>356.0</ele><time>2026-04-10T09:44:59Z</time></trkpt><trkpt lat="44.26878772243612" lon="11.493587541347614"><ele>357.25</ele><time>2026-04-10T09:45:00Z</time></trkpt><trkpt lat="44.2689031341094" lon="11.493512373311454"><ele>358.5</ele><time>2026-04-10T09:45:01Z</time></trkpt><trkpt lat="44.26902810361541" lon="11.493466538037753"><ele>359.75</ele><time>2026-04-10T09:45:02Z</time></trkpt><trkpt lat="44.26916201340389" lon="11.493447821312134"><ele>361.0</ele><time>2026-04-10T09:45:03Z</time></trkpt><trkpt lat="44.269297946748196" lon="11.493463119446552"><ele>361.75</ele><time>2026-04-10T09:45:04Z</time></trkpt><trkpt lat="44.26942586500523" lon="11.493517519615029"><ele>362.5</ele><time>2026-04-10T09:45:05Z</time></trkpt><trkpt lat="44.26952904648559" lon="11.493597571008104"><ele>363.25</ele><time>2026-04-10T09:45:06Z</time></trkpt><trkpt lat="44.26962407352018" lon="11.493678555127559"><ele>364.0</ele><time>2026-04-10T09:45:07Z</time></trkpt><trkpt lat="44.26971738905669" lon="11.493739674665276"><ele>365.16666666666663</ele><time>2026-04-10T09:45:08Z</time></trkpt><trkpt lat="44.26980655647205" lon="11.493774319878213"><ele>366.3333333333333</ele><time>2026-04-10T09:45:09Z</time></trkpt><trkpt lat="44.26989160802101" lon="11.493767555409601"><ele>367.5</ele><time>2026-04-10T09:45:10Z</time></trkpt><trkpt lat="44.269975138568505" lon="11.493715684247585"><ele>368.6666666666667</ele><time>2026-04-10T09:45:11Z</time></trkpt><trkpt lat="44.2700352349484" lon="11.493625368070095"><ele>369.83333333333337</ele><time>2026-04-10T09:45:12Z</time></trkpt><trkpt lat="44.27006127499965" lon="11.493512511925163"><ele>371.0</ele><time>2026-04-10T09:45:13Z</time></trkpt><trkpt lat="44.27005140747951" lon="11.493384397948784"><ele>371.5</ele><time>2026-04-10T09:45:14Z</time></trkpt><trkpt lat="44.27000630608731" lon="11.493264121778356"><ele>372.0</ele><time>2026-04-10T09:45:15Z</time></trkpt><trkpt lat="44.26993252709045" lon="11.493154710303171"><ele>372.5</ele><time>2026-04-10T09:45:16Z</time></trkpt><trkpt lat="44.269839356341464" lon="11.493034412084606"><ele>373.0</ele><time>2026-04-10T09:45:17Z</time></trkpt><trkpt lat="44.26975518993627" lon="11.492880552064458"><ele>375.3333333333333</ele><time>2026-04-10T09:45:18Z</time></trkpt><trkpt lat="44.26964289846399" lon="11.492745480586462"><ele>377.6666666666667</ele><time>2026-04-10T09:45:19Z</time></trkpt><trkpt lat="44.26953713984935" lon="11.492594803713933"><ele>380.0</ele><time>2026-04-10T09:45:20Z</time></trkpt><trkpt lat="44.26942096147311" lon="11.492453977295211"><ele>380.0</ele><time>2026-04-10T09:45:21Z</time></trkpt><trkpt lat="44.26929664841303" lon="11.492344561889363"><ele>380.0</ele><time>2026-04-10T09:45:22Z</time></trkpt><trkpt lat="44.26915769317275" lon="11.492272368213568"><ele>380.0</ele><time>2026-04-10T09:45:23Z</time></trkpt><trkpt lat="44.269010456312216" lon="11.492225915044802"><ele>380.0</ele><time>2026-04-10T09:45:24Z</time></trkpt><trkpt lat="44.26886404881171" lon="11.49219217146656"><ele>379.0</ele><time>2026-04-10T09:45:25Z</time></trkpt><trkpt lat="44.26873091765686" lon="11.49217743106568"><ele>378.0</ele><time>2026-04-10T09:45:26Z</time></trkpt><trkpt lat="44.26860612881168" lon="11.492147425910993"><ele>377.0</ele><time>2026-04-10T09:45:27Z</time></trkpt><trkpt lat="44.268493016945136" lon="11.492073539214763"><ele>376.0</ele><time>2026-04-10T09:45:28Z</time></trkpt><trkpt lat="44.268397156611485" lon="11.491948260154523"><ele>380.0</ele><time>2026-04-10T09:45:29Z</time></trkpt><trkpt lat="44.26831149245992" lon="11.491793649820062"><ele>384.0</ele><time>2026-04-10T09:45:30Z</time></trkpt><trkpt lat="44.26822610517588" lon="11.491648815671397"><ele>388.0</ele><time>2026-04-10T09:45:31Z</time></trkpt><trkpt lat="44.26813127915004" lon="11.49153826182811"><ele>392.0</ele><time>2026-04-10T09:45:32Z</time></trkpt><trkpt lat="44.268023708234786" lon="11.491470211097106"><ele>392.0</ele><time>2026-04-10T09:45:33Z</time></trkpt><trkpt lat="44.26791042396438" lon="11.491439066302707"><ele>392.0</ele><time>2026-04-10T09:45:34Z</time></trkpt><trkpt lat="44.26778919361023" lon="11.491438569513422"><ele>392.0</ele><time>2026-04-10T09:45:35Z</time></trkpt><trkpt lat="44.26766723887227" lon="11.491456842545704"><ele>392.0</ele><time>2026-04-10T09:45:36Z</time></trkpt><trkpt lat="44.26755126968639" lon="11.491480083403657"><ele>392.0</ele><time>2026-04-10T09:45:37Z</time></trkpt><trkpt lat="44.2674336236563" lon="11.491485096715905"><ele>392.0</ele><time>2026-04-10T09:45:38Z</time></trkpt><trkpt lat="44.26731241649487" lon="11.491428142679318"><ele>392.0</ele><time>2026-04-10T09:45:39Z</time></trkpt><trkpt lat="44.267177962356655" lon="11.49138388728975"><ele>392.0</ele><time>2026-04-10T09:45:40Z</time></trkpt><trkpt lat="44.26704134021292" lon="11.491303009192547"><ele>395.5</ele><time>2026-04-10T09:45:41Z</time></trkpt><trkpt lat="44.2669027472582" lon="11.491219335280624"><ele>399.0</ele><time>2026-04-10T09:45:42Z</time></trkpt><trkpt lat="44.26676905054697" lon="11.491142196037822"><ele>402.5</ele><time>2026-04-10T09:45:43Z</time></trkpt><trkpt lat="44.26663871709332" lon="11.49106717903698"><ele>406.0</ele><time>2026-04-10T09:45:44Z</time></trkpt><trkpt lat="44.26651743283416" lon="11.490987559837336"><ele>401.5</ele><time>2026-04-10T09:45:45Z</time></trkpt><trkpt lat="44.26641924620155" lon="11.490869110977323"><ele>397.0</ele><time>2026-04-10T09:45:46Z</time></trkpt><trkpt lat="44.26631976853089" lon="11.490758052421985"><ele>392.5</ele><time>2026-04-10T09:45:47Z</time></trkpt><trkpt lat="44.26625443741461" lon="11.490609361501322"><ele>388.0</ele><time>2026-04-10T09:45:48Z</time></trkpt><trkpt lat="44.266208114929256" lon="11.490438501396698"><ele>390.25</ele><time>2026-04-10T09:45:49Z</time></trkpt><trkpt lat="44.26617789653817" lon="11.490248449490647"><ele>392.5</ele><time>2026-04-10T09:45:50Z</time></trkpt><trkpt lat="44.26618147711111" lon="11.490044659743393"><ele>394.75</ele><time>2026-04-10T09:45:51Z</time></trkpt><trkpt lat="44.26618151214054" lon="11.48983461714252"><ele>397.0</ele><time>2026-04-10T09:45:52Z</time></trkpt><trkpt lat="44.26615565308837" lon="11.489630261171305"><ele>399.0</ele><time>2026-04-10T09:45:53Z</time></trkpt><trkpt lat="44.26613510041079" lon="11.489429506155858"><ele>401.0</ele><time>2026-04-10T09:45:54Z</time></trkpt><trkpt lat="44.26612135080975" lon="11.48923306240877"><ele>403.0</ele><time>2026-04-10T09:45:55Z</time></trkpt><trkpt lat="44.26607512841971" lon="11.489047476182295"><ele>405.0</ele><time>2026-04-10T09:45:56Z</time></trkpt><trkpt lat="44.26602977595084" lon="11.48885604084617"><ele>410.0</ele><time>2026-04-10T09:45:57Z</time></trkpt><trkpt lat="44.26596279553888" lon="11.488661029670958"><ele>415.0</ele><time>2026-04-10T09:45:58Z</time></trkpt><trkpt lat="44.26587530234841" lon="11.488474324962034"><ele>420.0</ele><time>2026-04-10T09:45:59Z</time></trkpt><trkpt lat="44.26576829622983" lon="11.488306245192847"><ele>420.0</ele><time>2026-04-10T09:46:00Z</time></trkpt><trkpt lat="44.26566962275286" lon="11.488131853253204"><ele>420.0</ele><time>2026-04-10T09:46:01Z</time></trkpt><trkpt lat="44.26556132005594" lon="11.487976917722547"><ele>420.0</ele><time>2026-04-10T09:46:02Z</time></trkpt><trkpt lat="44.265450055747024" lon="11.48783421566685"><ele>420.5</ele><time>2026-04-10T09:46:03Z</time></trkpt><trkpt lat="44.26533292524555" lon="11.487716142061968"><ele>421.0</ele><time>2026-04-10T09:46:04Z</time></trkpt><trkpt lat="44.265224701139445" lon="11.487600057274644"><ele>421.5</ele><time>2026-04-10T09:46:05Z</time></trkpt><trkpt lat="44.26511768065262" lon="11.487479560401011"><ele>422.0</ele><time>2026-04-10T09:46:06Z</time></trkpt><trkpt lat="44.265003523733704" lon="11.487376429015859"><ele>422.0</ele><time>2026-04-10T09:46:07Z</time></trkpt><trkpt lat="44.264908441471896" lon="11.48725750302194"><ele>422.0</ele><time>2026-04-10T09:46:08Z</time></trkpt><trkpt lat="44.26481909818787" lon="11.4871392031039"><ele>422.0</ele><time>2026-04-10T09:46:09.001Z</time></trkpt><trkpt lat="44.26472964240884" lon="11.487026615864073"><ele>422.0</ele><time>2026-04-10T09:46:10.001Z</time></trkpt><trkpt lat="44.264639189090516" lon="11.48691547746653"><ele>422.25</ele><time>2026-04-10T09:46:11.001Z</time></trkpt><trkpt lat="44.264549932841376" lon="11.486800640596108"><ele>422.5</ele><time>2026-04-10T09:46:12.001Z</time></trkpt><trkpt lat="44.264464410765925" lon="11.486681031599886"><ele>422.75</ele><time>2026-04-10T09:46:13.001Z</time></trkpt><trkpt lat="44.26438664855978" lon="11.48656267014153"><ele>423.0</ele><time>2026-04-10T09:46:14.001Z</time></trkpt><trkpt lat="44.264325336891126" lon="11.486448858750274"><ele>423.0</ele><time>2026-04-10T09:46:15.001Z</time></trkpt><trkpt lat="44.26428276742877" lon="11.486340486907958"><ele>423.0</ele><time>2026-04-10T09:46:16.001Z</time></trkpt><trkpt lat="44.26424705952024" lon="11.486239616849582"><ele>423.0</ele><time>2026-04-10T09:46:17.001Z</time></trkpt><trkpt lat="44.26421465134541" lon="11.486149303116218"><ele>423.0</ele><time>2026-04-10T09:46:18.001Z</time></trkpt><trkpt lat="44.26417788205494" lon="11.486024117779422"><ele>423.0</ele><time>2026-04-10T09:46:20.001Z</time></trkpt><trkpt lat="44.263992093215464" lon="11.486040905138621"><ele>424.79999999999995</ele><time>2026-04-10T09:46:22.001Z</time></trkpt><trkpt lat="44.26391057723129" lon="11.485996395066156"><ele>426.6</ele><time>2026-04-10T09:46:23.001Z</time></trkpt><trkpt lat="44.26385502357791" lon="11.485899723248535"><ele>428.40000000000003</ele><time>2026-04-10T09:46:24.001Z</time></trkpt><trkpt lat="44.26383650024829" lon="11.485762109395736"><ele>430.20000000000005</ele><time>2026-04-10T09:46:25.001Z</time></trkpt><trkpt lat="44.26382891036111" lon="11.485602707701442"><ele>432.0</ele><time>2026-04-10T09:46:26.001Z</time></trkpt><trkpt lat="44.26382212461454" lon="11.485423918256654"><ele>432.0</ele><time>2026-04-10T09:46:27.001Z</time></trkpt><trkpt lat="44.26381156084303" lon="11.48523714767396"><ele>432.0</ele><time>2026-04-10T09:46:28.001Z</time></trkpt><trkpt lat="44.26378486898921" lon="11.485050573103509"><ele>432.0</ele><time>2026-04-10T09:46:29.001Z</time></trkpt><trkpt lat="44.26373915299217" lon="11.484853063247083"><ele>432.0</ele><time>2026-04-10T09:46:30.001Z</time></trkpt><trkpt lat="44.2636861889621" lon="11.484671322747767"><ele>430.0</ele><time>2026-04-10T09:46:31.001Z</time></trkpt><trkpt lat="44.26363674756907" lon="11.484510158288385"><ele>428.0</ele><time>2026-04-10T09:46:32.001Z</time></trkpt><trkpt lat="44.26357588679203" lon="11.484368727840732"><ele>426.0</ele><time>2026-04-10T09:46:33.001Z</time></trkpt><trkpt lat="44.26349112404833" lon="11.484251648629467"><ele>424.0</ele><time>2026-04-10T09:46:34.001Z</time></trkpt><trkpt lat="44.26338022059005" lon="11.484157314965946"><ele>424.0</ele><time>2026-04-10T09:46:35.001Z</time></trkpt><trkpt lat="44.26326803909438" lon="11.484084455700899"><ele>424.0</ele><time>2026-04-10T09:46:36.001Z</time></trkpt><trkpt lat="44.263146862526405" lon="11.484037717985002"><ele>424.0</ele><time>2026-04-10T09:46:37.001Z</time></trkpt><trkpt lat="44.26301226452452" lon="11.484017326081242"><ele>424.0</ele><time>2026-04-10T09:46:38.001Z</time></trkpt><trkpt lat="44.26287103956691" lon="11.484012019309459"><ele>426.25</ele><time>2026-04-10T09:46:39.001Z</time></trkpt><trkpt lat="44.26273927298061" lon="11.483998838122833"><ele>428.5</ele><time>2026-04-10T09:46:40.001Z</time></trkpt><trkpt lat="44.26261166497243" lon="11.483967007554943"><ele>430.75</ele><time>2026-04-10T09:46:41.001Z</time></trkpt><trkpt lat="44.26248271305846" lon="11.483912968714725"><ele>433.0</ele><time>2026-04-10T09:46:42.001Z</time></trkpt><trkpt lat="44.26234828476237" lon="11.483842368221566"><ele>432.75</ele><time>2026-04-10T09:46:43.001Z</time></trkpt><trkpt lat="44.262219786849364" lon="11.483768247188962"><ele>432.5</ele><time>2026-04-10T09:46:44.001Z</time></trkpt><trkpt lat="44.26209417731396" lon="11.483686449188813"><ele>432.25</ele><time>2026-04-10T09:46:45.001Z</time></trkpt><trkpt lat="44.26197039646115" lon="11.483604018421522"><ele>432.0</ele><time>2026-04-10T09:46:46.001Z</time></trkpt><trkpt lat="44.261842864607836" lon="11.483524580253915"><ele>432.0</ele><time>2026-04-10T09:46:47.001Z</time></trkpt><trkpt lat="44.261717212382344" lon="11.483441965743603"><ele>432.0</ele><time>2026-04-10T09:46:48.001Z</time></trkpt><trkpt lat="44.26158704532647" lon="11.483358499852589"><ele>432.0</ele><time>2026-04-10T09:46:49Z</time></trkpt><trkpt lat="44.2614533850562" lon="11.483272168229796"><ele>432.0</ele><time>2026-04-10T09:46:50Z</time></trkpt><trkpt lat="44.261318273679684" lon="11.483188439358434"><ele>433.5</ele><time>2026-04-10T09:46:51Z</time></trkpt><trkpt lat="44.26118766339666" lon="11.483104350289747"><ele>435.0</ele><time>2026-04-10T09:46:52Z</time></trkpt><trkpt lat="44.26106452618152" lon="11.48302517301454"><ele>436.5</ele><time>2026-04-10T09:46:53Z</time></trkpt><trkpt lat="44.26095204327119" lon="11.482946861718244"><ele>438.0</ele><time>2026-04-10T09:46:54Z</time></trkpt><trkpt lat="44.26084611918732" lon="11.482872127798508"><ele>438.0</ele><time>2026-04-10T09:46:55Z</time></trkpt><trkpt lat="44.26074762390962" lon="11.482805484713033"><ele>437.99999999999994</ele><time>2026-04-10T09:46:56Z</time></trkpt><trkpt lat="44.260656525931346" lon="11.482749529247629"><ele>437.99999999999994</ele><time>2026-04-10T09:46:57Z</time></trkpt><trkpt lat="44.260571851477586" lon="11.482714628006422"><ele>438.0</ele><time>2026-04-10T09:46:58Z</time></trkpt><trkpt lat="44.26049161630592" lon="11.48274544618759"><ele>438.0</ele><time>2026-04-10T09:46:59Z</time></trkpt><trkpt lat="44.260414778216266" lon="11.482820805007576"><ele>438.4</ele><time>2026-04-10T09:47:00Z</time></trkpt><trkpt lat="44.26033960649663" lon="11.4829244486629"><ele>438.79999999999995</ele><time>2026-04-10T09:47:01Z</time></trkpt><trkpt lat="44.260264362813686" lon="11.483033050600561"><ele>439.2</ele><time>2026-04-10T09:47:02Z</time></trkpt><trkpt lat="44.26019550646452" lon="11.483130564563774"><ele>439.6</ele><time>2026-04-10T09:47:03Z</time></trkpt><trkpt lat="44.260103229706075" lon="11.483202372990867"><ele>440.0</ele><time>2026-04-10T09:47:04Z</time></trkpt><trkpt lat="44.26000863512915" lon="11.48325191986076"><ele>440.0</ele><time>2026-04-10T09:47:05Z</time></trkpt><trkpt lat="44.25990962923532" lon="11.483315304568142"><ele>440.0</ele><time>2026-04-10T09:47:06Z</time></trkpt><trkpt lat="44.259802730373856" lon="11.483401860412874"><ele>440.0</ele><time>2026-04-10T09:47:07Z</time></trkpt><trkpt lat="44.25968606646993" lon="11.483491657092365"><ele>440.0</ele><time>2026-04-10T09:47:08Z</time></trkpt><trkpt lat="44.25956510573654" lon="11.483583860500257"><ele>443.75</ele><time>2026-04-10T09:47:09Z</time></trkpt><trkpt lat="44.25944150647286" lon="11.483669072774864"><ele>447.5</ele><time>2026-04-10T09:47:10Z</time></trkpt><trkpt lat="44.259314876661264" lon="11.483730901163996"><ele>451.25</ele><time>2026-04-10T09:47:11Z</time></trkpt><trkpt lat="44.25917254817196" lon="11.483761358697139"><ele>455.0</ele><time>2026-04-10T09:47:12Z</time></trkpt><trkpt lat="44.25902500087937" lon="11.483732882262755"><ele>458.3333333333333</ele><time>2026-04-10T09:47:13Z</time></trkpt><trkpt lat="44.25886520546535" lon="11.483717340070806"><ele>461.66666666666663</ele><time>2026-04-10T09:47:14Z</time></trkpt><trkpt lat="44.25870027815822" lon="11.483673946830523"><ele>465.0</ele><time>2026-04-10T09:47:15Z</time></trkpt><trkpt lat="44.25852889059171" lon="11.48364755761767"><ele>465.0</ele><time>2026-04-10T09:47:16Z</time></trkpt><trkpt lat="44.25837562566471" lon="11.483665023353444"><ele>465.0</ele><time>2026-04-10T09:47:17Z</time></trkpt><trkpt lat="44.25823276809745" lon="11.483716792290203"><ele>465.0</ele><time>2026-04-10T09:47:18Z</time></trkpt><trkpt lat="44.25810275528919" lon="11.483770474770289"><ele>465.0</ele><time>2026-04-10T09:47:19Z</time></trkpt><trkpt lat="44.25797425654959" lon="11.483772524049758"><ele>463.33333333333337</ele><time>2026-04-10T09:47:20Z</time></trkpt><trkpt lat="44.257834088492956" lon="11.483720655471828"><ele>461.6666666666667</ele><time>2026-04-10T09:47:21Z</time></trkpt><trkpt lat="44.257693190505606" lon="11.48363124182304"><ele>460.0</ele><time>2026-04-10T09:47:22Z</time></trkpt><trkpt lat="44.25754903399837" lon="11.483525517435785"><ele>460.0</ele><time>2026-04-10T09:47:23Z</time></trkpt><trkpt lat="44.25742564382463" lon="11.483377443851927"><ele>460.0</ele><time>2026-04-10T09:47:24Z</time></trkpt><trkpt lat="44.257290019503614" lon="11.48326232735749"><ele>460.0</ele><time>2026-04-10T09:47:25Z</time></trkpt><trkpt lat="44.25717756165632" lon="11.483133034406196"><ele>460.0</ele><time>2026-04-10T09:47:26Z</time></trkpt><trkpt lat="44.25706804756964" lon="11.483018803298007"><ele>460.0</ele><time>2026-04-10T09:47:27Z</time></trkpt><trkpt lat="44.25694484579104" lon="11.482913512311399"><ele>460.0</ele><time>2026-04-10T09:47:28Z</time></trkpt><trkpt lat="44.25680712978424" lon="11.482820587639708"><ele>460.0</ele><time>2026-04-10T09:47:29Z</time></trkpt><trkpt lat="44.25665543327299" lon="11.482734670180077"><ele>459.6666666666667</ele><time>2026-04-10T09:47:30Z</time></trkpt><trkpt lat="44.256506908318066" lon="11.482635851203254"><ele>459.33333333333337</ele><time>2026-04-10T09:47:31Z</time></trkpt><trkpt lat="44.256360361831334" lon="11.482558249465207"><ele>459.0</ele><time>2026-04-10T09:47:32Z</time></trkpt><trkpt lat="44.25621581745105" lon="11.482483280765306"><ele>460.75</ele><time>2026-04-10T09:47:33Z</time></trkpt><trkpt lat="44.25607597375322" lon="11.482407847979795"><ele>462.5</ele><time>2026-04-10T09:47:34Z</time></trkpt><trkpt lat="44.255942251347484" lon="11.482335004267831"><ele>464.25</ele><time>2026-04-10T09:47:35Z</time></trkpt><trkpt lat="44.25581563080547" lon="11.482271152606886"><ele>466.0</ele><time>2026-04-10T09:47:36Z</time></trkpt><trkpt lat="44.25569274037544" lon="11.48225673613906"><ele>465.75</ele><time>2026-04-10T09:47:37Z</time></trkpt><trkpt lat="44.2555766865048" lon="11.482264673029217"><ele>465.5</ele><time>2026-04-10T09:47:38Z</time></trkpt><trkpt lat="44.25546502786749" lon="11.482309722929632"><ele>465.25</ele><time>2026-04-10T09:47:39Z</time></trkpt><trkpt lat="44.255344887528366" lon="11.482379965871363"><ele>465.0</ele><time>2026-04-10T09:47:40Z</time></trkpt><trkpt lat="44.2552150270206" lon="11.482468207597767"><ele>465.0</ele><time>2026-04-10T09:47:41Z</time></trkpt><trkpt lat="44.25507843797622" lon="11.482548462176416"><ele>465.0</ele><time>2026-04-10T09:47:42Z</time></trkpt><trkpt lat="44.25493014326216" lon="11.482621193072866"><ele>465.0</ele><time>2026-04-10T09:47:43Z</time></trkpt><trkpt lat="44.254768883739466" lon="11.482640852502959"><ele>463.33333333333337</ele><time>2026-04-10T09:47:44Z</time></trkpt><trkpt lat="44.25460738256519" lon="11.482670307169162"><ele>461.6666666666667</ele><time>2026-04-10T09:47:45Z</time></trkpt><trkpt lat="44.25444562479205" lon="11.482686388420245"><ele>460.0</ele><time>2026-04-10T09:47:46Z</time></trkpt><trkpt lat="44.25428135807194" lon="11.482695201052977"><ele>460.0</ele><time>2026-04-10T09:47:47Z</time></trkpt><trkpt lat="44.25412037801209" lon="11.48270207319972"><ele>460.0</ele><time>2026-04-10T09:47:48Z</time></trkpt><trkpt lat="44.253962995605214" lon="11.482706941136858"><ele>460.0</ele><time>2026-04-10T09:47:49Z</time></trkpt><trkpt lat="44.253805484032306" lon="11.48273251482297"><ele>460.0</ele><time>2026-04-10T09:47:50Z</time></trkpt><trkpt lat="44.253653818112234" lon="11.482729227163679"><ele>460.0</ele><time>2026-04-10T09:47:51Z</time></trkpt><trkpt lat="44.25350875832723" lon="11.482712970962154"><ele>460.0</ele><time>2026-04-10T09:47:52Z</time></trkpt><trkpt lat="44.25336650831002" lon="11.48267375219661"><ele>460.0</ele><time>2026-04-10T09:47:53Z</time></trkpt><trkpt lat="44.25322960306057" lon="11.482602309354979"><ele>460.0</ele><time>2026-04-10T09:47:54Z</time></trkpt><trkpt lat="44.25310876325763" lon="11.482488392555279"><ele>460.0</ele><time>2026-04-10T09:47:55Z</time></trkpt><trkpt lat="44.252985510843665" lon="11.482387431154345"><ele>460.0</ele><time>2026-04-10T09:47:56Z</time></trkpt><trkpt lat="44.252869892240604" lon="11.482299346985867"><ele>460.0</ele><time>2026-04-10T09:47:57Z</time></trkpt><trkpt lat="44.25275839804718" lon="11.482222852134461"><ele>460.0</ele><time>2026-04-10T09:47:58Z</time></trkpt><trkpt lat="44.252634861876054" lon="11.48217520549981"><ele>460.0</ele><time>2026-04-10T09:47:59Z</time></trkpt><trkpt lat="44.25250935340621" lon="11.48211286897126"><ele>460.0</ele><time>2026-04-10T09:48:00Z</time></trkpt><trkpt lat="44.25237906548163" lon="11.482063931488037"><ele>460.0</ele><time>2026-04-10T09:48:01Z</time></trkpt><trkpt lat="44.252231317666265" lon="11.482045804665685"><ele>459.6666666666667</ele><time>2026-04-10T09:48:02Z</time></trkpt><trkpt lat="44.252068078898155" lon="11.48206848838772"><ele>459.33333333333337</ele><time>2026-04-10T09:48:03Z</time></trkpt><trkpt lat="44.25189422411168" lon="11.482082251594019"><ele>459.0</ele><time>2026-04-10T09:48:04Z</time></trkpt><trkpt lat="44.25171814878568" lon="11.48212249036606"><ele>459.0</ele><time>2026-04-10T09:48:05Z</time></trkpt><trkpt lat="44.251548472513306" lon="11.482161411291568"><ele>459.0</ele><time>2026-04-10T09:48:06Z</time></trkpt><trkpt lat="44.251384392132294" lon="11.482197057189664"><ele>459.0</ele><time>2026-04-10T09:48:07Z</time></trkpt><trkpt lat="44.25122257488527" lon="11.482232211366682"><ele>456.33333333333337</ele><time>2026-04-10T09:48:08Z</time></trkpt><trkpt lat="44.251062977414826" lon="11.482266239148379"><ele>453.6666666666667</ele><time>2026-04-10T09:48:09Z</time></trkpt><trkpt lat="44.25090620538683" lon="11.482289625732081"><ele>451.0</ele><time>2026-04-10T09:48:10Z</time></trkpt><trkpt lat="44.25074984542982" lon="11.482267002881509"><ele>452.0</ele><time>2026-04-10T09:48:11Z</time></trkpt><trkpt lat="44.25060046486484" lon="11.482189560283581"><ele>453.0</ele><time>2026-04-10T09:48:12Z</time></trkpt><trkpt lat="44.25045393804844" lon="11.482080937051643"><ele>454.0</ele><time>2026-04-10T09:48:13Z</time></trkpt><trkpt lat="44.250299740287026" lon="11.481984631529379"><ele>454.0</ele><time>2026-04-10T09:48:14Z</time></trkpt><trkpt lat="44.25016926694496" lon="11.481855288601166"><ele>454.0</ele><time>2026-04-10T09:48:15.001Z</time></trkpt><trkpt lat="44.25003271910038" lon="11.481746414380547"><ele>454.0</ele><time>2026-04-10T09:48:16.001Z</time></trkpt><trkpt lat="44.24988808809064" lon="11.481652001720176"><ele>455.0</ele><time>2026-04-10T09:48:17.001Z</time></trkpt><trkpt lat="44.24972554577595" lon="11.48159217881654"><ele>456.0</ele><time>2026-04-10T09:48:18.001Z</time></trkpt><trkpt lat="44.24954742779865" lon="11.48158793384471"><ele>457.0</ele><time>2026-04-10T09:48:19.001Z</time></trkpt><trkpt lat="44.249366933234406" lon="11.481608257210413"><ele>457.0</ele><time>2026-04-10T09:48:20.001Z</time></trkpt><trkpt lat="44.249183042656895" lon="11.481636744992196"><ele>457.0</ele><time>2026-04-10T09:48:21.001Z</time></trkpt><trkpt lat="44.24899875894885" lon="11.481670677950985"><ele>457.0</ele><time>2026-04-10T09:48:22.001Z</time></trkpt><trkpt lat="44.248819932400366" lon="11.481729782006857"><ele>460.0</ele><time>2026-04-10T09:48:23.001Z</time></trkpt><trkpt lat="44.24863588613398" lon="11.481761631653919"><ele>463.0</ele><time>2026-04-10T09:48:24.001Z</time></trkpt><trkpt lat="44.24845092398172" lon="11.481784208127664"><ele>466.0</ele><time>2026-04-10T09:48:25.001Z</time></trkpt><trkpt lat="44.24826612516004" lon="11.481802739431126"><ele>466.6666666666667</ele><time>2026-04-10T09:48:26.001Z</time></trkpt><trkpt lat="44.24809256493107" lon="11.481792526036218"><ele>467.33333333333337</ele><time>2026-04-10T09:48:27.001Z</time></trkpt><trkpt lat="44.24793399983691" lon="11.481814532627261"><ele>468.0</ele><time>2026-04-10T09:48:28.001Z</time></trkpt><trkpt lat="44.24779101829977" lon="11.4817504343168"><ele>468.0</ele><time>2026-04-10T09:48:29.001Z</time></trkpt><trkpt lat="44.24765043216982" lon="11.481662756163711"><ele>468.0</ele><time>2026-04-10T09:48:30.001Z</time></trkpt><trkpt lat="44.24749264616496" lon="11.481580498666652"><ele>468.0</ele><time>2026-04-10T09:48:31.001Z</time></trkpt><trkpt lat="44.24734478916115" lon="11.4814620541514"><ele>469.0</ele><time>2026-04-10T09:48:32.001Z</time></trkpt><trkpt lat="44.24717211732882" lon="11.481392707053855"><ele>470.0</ele><time>2026-04-10T09:48:33.001Z</time></trkpt><trkpt lat="44.246984988883185" lon="11.481360583058649"><ele>471.0</ele><time>2026-04-10T09:48:34.001Z</time></trkpt><trkpt lat="44.24679167582354" lon="11.481373811371101"><ele>471.0</ele><time>2026-04-10T09:48:35.001Z</time></trkpt><trkpt lat="44.24659659890477" lon="11.481384573728267"><ele>471.0</ele><time>2026-04-10T09:48:36.001Z</time></trkpt><trkpt lat="44.24640199379452" lon="11.481426253046774"><ele>471.0</ele><time>2026-04-10T09:48:37.001Z</time></trkpt><trkpt lat="44.246216344930296" lon="11.481501559952298"><ele>472.0</ele><time>2026-04-10T09:48:38.001Z</time></trkpt><trkpt lat="44.24604937693338" lon="11.481589376870058"><ele>473.0</ele><time>2026-04-10T09:48:39.001Z</time></trkpt><trkpt lat="44.2459009109615" lon="11.481684977383845"><ele>474.0</ele><time>2026-04-10T09:48:40.001Z</time></trkpt><trkpt lat="44.24576653270565" lon="11.48178416456483"><ele>474.0</ele><time>2026-04-10T09:48:41.001Z</time></trkpt><trkpt lat="44.24563164838834" lon="11.481869480617773"><ele>474.0</ele><time>2026-04-10T09:48:42.001Z</time></trkpt><trkpt lat="44.24550359196443" lon="11.481972755380397"><ele>474.0</ele><time>2026-04-10T09:48:43.001Z</time></trkpt><trkpt lat="44.245374273581064" lon="11.482058451679615"><ele>474.0</ele><time>2026-04-10T09:48:44.001Z</time></trkpt><trkpt lat="44.24524730566428" lon="11.482125329009738"><ele>477.75</ele><time>2026-04-10T09:48:45.001Z</time></trkpt><trkpt lat="44.24512392121831" lon="11.482172746525581"><ele>481.5</ele><time>2026-04-10T09:48:46.001Z</time></trkpt><trkpt lat="44.245003355077145" lon="11.482203043148695"><ele>485.25</ele><time>2026-04-10T09:48:47.001Z</time></trkpt><trkpt lat="44.24487985641358" lon="11.482211274616029"><ele>489.0</ele><time>2026-04-10T09:48:48.001Z</time></trkpt><trkpt lat="44.24475317345926" lon="11.482200248975161"><ele>489.5</ele><time>2026-04-10T09:48:49.001Z</time></trkpt><trkpt lat="44.24462506213427" lon="11.482193339387555"><ele>490.0</ele><time>2026-04-10T09:48:50.001Z</time></trkpt><trkpt lat="44.244492774323135" lon="11.48221079580072"><ele>490.5</ele><time>2026-04-10T09:48:51.001Z</time></trkpt><trkpt lat="44.244355889246236" lon="11.482251803101038"><ele>491.0</ele><time>2026-04-10T09:48:52.001Z</time></trkpt><trkpt lat="44.2442131075704" lon="11.482296458092334"><ele>491.0</ele><time>2026-04-10T09:48:53.001Z</time></trkpt><trkpt lat="44.24407412992201" lon="11.482337564817994"><ele>491.0</ele><time>2026-04-10T09:48:54.001Z</time></trkpt><trkpt lat="44.243935306203056" lon="11.482321322032062"><ele>491.0</ele><time>2026-04-10T09:48:55Z</time></trkpt><trkpt lat="44.243798979778504" lon="11.482268672945002"><ele>491.0</ele><time>2026-04-10T09:48:56Z</time></trkpt><trkpt lat="44.243686725192454" lon="11.48215415361614"><ele>488.25</ele><time>2026-04-10T09:48:57Z</time></trkpt><trkpt lat="44.24357454634047" lon="11.482053440342707"><ele>485.5</ele><time>2026-04-10T09:48:58Z</time></trkpt><trkpt lat="44.24345602879857" lon="11.481987806472281"><ele>482.75</ele><time>2026-04-10T09:48:59Z</time></trkpt><trkpt lat="44.24334230639272" lon="11.481909728153179"><ele>480.0</ele><time>2026-04-10T09:49:00Z</time></trkpt><trkpt lat="44.24320550226841" lon="11.481898241363764"><ele>480.0</ele><time>2026-04-10T09:49:01Z</time></trkpt><trkpt lat="44.24306796064906" lon="11.481940362209228"><ele>480.0</ele><time>2026-04-10T09:49:02Z</time></trkpt><trkpt lat="44.24292217563433" lon="11.481949809670674"><ele>480.0</ele><time>2026-04-10T09:49:03Z</time></trkpt><trkpt lat="44.24277906533454" lon="11.481972283503197"><ele>480.0</ele><time>2026-04-10T09:49:04Z</time></trkpt><trkpt lat="44.24264262753145" lon="11.48197472265283"><ele>480.0</ele><time>2026-04-10T09:49:05Z</time></trkpt><trkpt lat="44.24251137591464" lon="11.48197453455178"><ele>480.0</ele><time>2026-04-10T09:49:06Z</time></trkpt><trkpt lat="44.24239352093338" lon="11.481904318107276"><ele>480.0</ele><time>2026-04-10T09:49:07Z</time></trkpt><trkpt lat="44.24227808044991" lon="11.48182726908684"><ele>480.0</ele><time>2026-04-10T09:49:08Z</time></trkpt><trkpt lat="44.24216365566953" lon="11.481740691541772"><ele>481.75</ele><time>2026-04-10T09:49:09Z</time></trkpt><trkpt lat="44.24204694708737" lon="11.481651330777101"><ele>483.5</ele><time>2026-04-10T09:49:10Z</time></trkpt><trkpt lat="44.24192424472816" lon="11.481575174251027"><ele>485.25</ele><time>2026-04-10T09:49:11Z</time></trkpt><trkpt lat="44.24181731577238" lon="11.48148692315246"><ele>487.0</ele><time>2026-04-10T09:49:12Z</time></trkpt><trkpt lat="44.24171471319688" lon="11.481399956304784"><ele>487.0</ele><time>2026-04-10T09:49:13Z</time></trkpt><trkpt lat="44.24161201723552" lon="11.48132900841766"><ele>487.00000000000006</ele><time>2026-04-10T09:49:14Z</time></trkpt><trkpt lat="44.24150703093893" lon="11.48128213358089"><ele>487.00000000000006</ele><time>2026-04-10T09:49:15Z</time></trkpt><trkpt lat="44.24139921746781" lon="11.481265528957616"><ele>487.0</ele><time>2026-04-10T09:49:16Z</time></trkpt><trkpt lat="44.24131106105436" lon="11.481247846160693"><ele>487.0</ele><time>2026-04-10T09:49:17Z</time></trkpt><trkpt lat="44.24123908877618" lon="11.48124690346617"><ele>487.0</ele><time>2026-04-10T09:49:18Z</time></trkpt><trkpt lat="44.24117030741479" lon="11.481250708407536"><ele>487.00000000000006</ele><time>2026-04-10T09:49:19Z</time></trkpt><trkpt lat="44.24106381588549" lon="11.481260037642505"><ele>487.00000000000006</ele><time>2026-04-10T09:49:21Z</time></trkpt><trkpt lat="44.241021038782634" lon="11.48117913242688"><ele>487.0</ele><time>2026-04-10T09:49:23Z</time></trkpt><trkpt lat="44.24089509862268" lon="11.481184288406185"><ele>487.0</ele><time>2026-04-10T09:49:25Z</time></trkpt><trkpt lat="44.24084049140827" lon="11.48106727583962"><ele>487.0</ele><time>2026-04-10T09:49:26Z</time></trkpt><trkpt lat="44.24076772366132" lon="11.480953827406056"><ele>487.0</ele><time>2026-04-10T09:49:27Z</time></trkpt><trkpt lat="44.240685528615316" lon="11.480833763947697"><ele>487.0</ele><time>2026-04-10T09:49:28Z</time></trkpt><trkpt lat="44.240596252774395" lon="11.480709602400648"><ele>487.0</ele><time>2026-04-10T09:49:29Z</time></trkpt><trkpt lat="44.24050153368699" lon="11.480580312678185"><ele>485.25</ele><time>2026-04-10T09:49:30Z</time></trkpt><trkpt lat="44.24040862116113" lon="11.48044994590711"><ele>483.5</ele><time>2026-04-10T09:49:31Z</time></trkpt><trkpt lat="44.24031659419516" lon="11.480319630803036"><ele>481.75</ele><time>2026-04-10T09:49:32Z</time></trkpt><trkpt lat="44.240223690798885" lon="11.480193548558317"><ele>480.0</ele><time>2026-04-10T09:49:33Z</time></trkpt><trkpt lat="44.240137044164044" lon="11.480070184890922"><ele>480.0</ele><time>2026-04-10T09:49:34Z</time></trkpt><trkpt lat="44.24005330132899" lon="11.47994554381288"><ele>480.0</ele><time>2026-04-10T09:49:35Z</time></trkpt><trkpt lat="44.23996761201068" lon="11.479815596645205"><ele>480.0</ele><time>2026-04-10T09:49:36Z</time></trkpt><trkpt lat="44.239880176591754" lon="11.479674979285495"><ele>480.0</ele><time>2026-04-10T09:49:37Z</time></trkpt><trkpt lat="44.23979903436988" lon="11.479513850202807"><ele>480.75</ele><time>2026-04-10T09:49:38Z</time></trkpt><trkpt lat="44.23967971850654" lon="11.479390764905425"><ele>481.5</ele><time>2026-04-10T09:49:39Z</time></trkpt><trkpt lat="44.23955606746544" lon="11.479275605865283"><ele>482.25</ele><time>2026-04-10T09:49:40Z</time></trkpt><trkpt lat="44.23942221996534" lon="11.479174974219495"><ele>483.0</ele><time>2026-04-10T09:49:41Z</time></trkpt><trkpt lat="44.239279220295046" lon="11.479092215235314"><ele>483.0</ele><time>2026-04-10T09:49:42Z</time></trkpt><trkpt lat="44.23914608387336" lon="11.478992765381996"><ele>483.0</ele><time>2026-04-10T09:49:43Z</time></trkpt><trkpt lat="44.23900392238653" lon="11.478906954344774"><ele>483.0</ele><time>2026-04-10T09:49:44Z</time></trkpt><trkpt lat="44.23886278433831" lon="11.4788158963468"><ele>482.25</ele><time>2026-04-10T09:49:45Z</time></trkpt><trkpt lat="44.23873417611459" lon="11.478729202632907"><ele>481.5</ele><time>2026-04-10T09:49:46Z</time></trkpt><trkpt lat="44.23862674476174" lon="11.478653947521964"><ele>480.75</ele><time>2026-04-10T09:49:47Z</time></trkpt><trkpt lat="44.238525105835954" lon="11.478602012890569"><ele>480.0</ele><time>2026-04-10T09:49:48Z</time></trkpt><trkpt lat="44.238449937974984" lon="11.478530093466631"><ele>480.0</ele><time>2026-04-10T09:49:49Z</time></trkpt><trkpt lat="44.2383845476543" lon="11.478467586408028"><ele>480.0</ele><time>2026-04-10T09:49:50Z</time></trkpt><trkpt lat="44.238327425923295" lon="11.478418361136177"><ele>480.0</ele><time>2026-04-10T09:49:51Z</time></trkpt><trkpt lat="44.23823788320907" lon="11.478340028494536"><ele>480.0</ele><time>2026-04-10T09:49:53Z</time></trkpt><trkpt lat="44.238179251526056" lon="11.478291464053063"><ele>480.0</ele><time>2026-04-10T09:49:55Z</time></trkpt><trkpt lat="44.23811660226836" lon="11.478253001145653"><ele>480.0</ele><time>2026-04-10T09:50:47.001Z</time></trkpt><trkpt lat="44.23802016230931" lon="11.478170257934343"><ele>479.8</ele><time>2026-04-10T09:50:49.001Z</time></trkpt><trkpt lat="44.237946499637665" lon="11.47813393893735"><ele>479.6</ele><time>2026-04-10T09:50:50.001Z</time></trkpt><trkpt lat="44.23785310001179" lon="11.478104310999061"><ele>479.4</ele><time>2026-04-10T09:50:51.001Z</time></trkpt><trkpt lat="44.23775811364911" lon="11.47808958041292"><ele>479.2</ele><time>2026-04-10T09:50:52.001Z</time></trkpt><trkpt lat="44.237663604155664" lon="11.478100720295929"><ele>479.0</ele><time>2026-04-10T09:50:53.001Z</time></trkpt><trkpt lat="44.23757691744809" lon="11.478132147286368"><ele>479.0</ele><time>2026-04-10T09:50:54.001Z</time></trkpt><trkpt lat="44.23750024111758" lon="11.4782072002499"><ele>479.0</ele><time>2026-04-10T09:50:55.001Z</time></trkpt><trkpt lat="44.23741275547316" lon="11.478237777490712"><ele>479.0</ele><time>2026-04-10T09:50:56.001Z</time></trkpt><trkpt lat="44.23733139796181" lon="11.478274884256908"><ele>479.0</ele><time>2026-04-10T09:50:57.001Z</time></trkpt><trkpt lat="44.237243782840565" lon="11.478292269719486"><ele>479.0</ele><time>2026-04-10T09:50:58.001Z</time></trkpt><trkpt lat="44.23715107597991" lon="11.478270885392922"><ele>478.6</ele><time>2026-04-10T09:50:59.001Z</time></trkpt><trkpt lat="44.23706597553514" lon="11.478208763032352"><ele>478.2</ele><time>2026-04-10T09:51:00.001Z</time></trkpt><trkpt lat="44.23697848646578" lon="11.47812246865337"><ele>477.80000000000007</ele><time>2026-04-10T09:51:01Z</time></trkpt><trkpt lat="44.236877451792964" lon="11.478036767365296"><ele>477.40000000000003</ele><time>2026-04-10T09:51:02Z</time></trkpt><trkpt lat="44.23676038777873" lon="11.477979862387745"><ele>477.0</ele><time>2026-04-10T09:51:03Z</time></trkpt><trkpt lat="44.236635405355656" lon="11.47794451825491"><ele>477.0</ele><time>2026-04-10T09:51:04Z</time></trkpt><trkpt lat="44.236505528177396" lon="11.477926868842866"><ele>477.0</ele><time>2026-04-10T09:51:05Z</time></trkpt><trkpt lat="44.23636989049875" lon="11.477911616544098"><ele>477.0</ele><time>2026-04-10T09:51:06Z</time></trkpt><trkpt lat="44.23623878369225" lon="11.477896873702928"><ele>477.0</ele><time>2026-04-10T09:51:07Z</time></trkpt><trkpt lat="44.23611382112915" lon="11.477882821784748"><ele>477.25</ele><time>2026-04-10T09:51:08Z</time></trkpt><trkpt lat="44.235989094603" lon="11.477866920658277"><ele>477.5</ele><time>2026-04-10T09:51:09Z</time></trkpt><trkpt lat="44.23587289958703" lon="11.477840001764577"><ele>477.75</ele><time>2026-04-10T09:51:10Z</time></trkpt><trkpt lat="44.235757297061085" lon="11.477801991758861"><ele>478.0</ele><time>2026-04-10T09:51:11Z</time></trkpt><trkpt lat="44.23565873945367" lon="11.477694242634294"><ele>479.25</ele><time>2026-04-10T09:51:12Z</time></trkpt><trkpt lat="44.23557149298251" lon="11.477555009703071"><ele>480.5</ele><time>2026-04-10T09:51:13Z</time></trkpt><trkpt lat="44.235496055711565" lon="11.477400326041204"><ele>481.75</ele><time>2026-04-10T09:51:14Z</time></trkpt><trkpt lat="44.23543132632657" lon="11.477250333967982"><ele>483.0</ele><time>2026-04-10T09:51:15Z</time></trkpt><trkpt lat="44.23536816842866" lon="11.477102316098383"><ele>483.0</ele><time>2026-04-10T09:51:16Z</time></trkpt><trkpt lat="44.23530562844462" lon="11.476960204240905"><ele>483.0</ele><time>2026-04-10T09:51:17Z</time></trkpt><trkpt lat="44.23524483249933" lon="11.47682087021942"><ele>483.0</ele><time>2026-04-10T09:51:18Z</time></trkpt><trkpt lat="44.23516942001848" lon="11.47669473905821"><ele>483.0</ele><time>2026-04-10T09:51:19Z</time></trkpt><trkpt lat="44.23508544545026" lon="11.47658840892172"><ele>483.0</ele><time>2026-04-10T09:51:20Z</time></trkpt><trkpt lat="44.23497696139493" lon="11.476506463783336"><ele>483.0</ele><time>2026-04-10T09:51:21Z</time></trkpt><trkpt lat="44.23485946439455" lon="11.47643792029794"><ele>483.0</ele><time>2026-04-10T09:51:22Z</time></trkpt><trkpt lat="44.234733043596314" lon="11.47637205058968"><ele>483.0</ele><time>2026-04-10T09:51:23Z</time></trkpt><trkpt lat="44.234607139130404" lon="11.476290113258992"><ele>483.25</ele><time>2026-04-10T09:51:24Z</time></trkpt><trkpt lat="44.23449459032425" lon="11.47619948333871"><ele>483.5</ele><time>2026-04-10T09:51:25Z</time></trkpt><trkpt lat="44.2343927411679" lon="11.476086398340273"><ele>483.75</ele><time>2026-04-10T09:51:26Z</time></trkpt><trkpt lat="44.23430014972586" lon="11.475954648977604"><ele>484.0</ele><time>2026-04-10T09:51:27Z</time></trkpt><trkpt lat="44.23422103058104" lon="11.475814777258844"><ele>484.0</ele><time>2026-04-10T09:51:28Z</time></trkpt><trkpt lat="44.23413228213392" lon="11.475695567177526"><ele>484.0</ele><time>2026-04-10T09:51:29Z</time></trkpt><trkpt lat="44.23402617022344" lon="11.475595649867659"><ele>484.0</ele><time>2026-04-10T09:51:30Z</time></trkpt><trkpt lat="44.2339073365568" lon="11.475516364882221"><ele>484.0</ele><time>2026-04-10T09:51:31Z</time></trkpt><trkpt lat="44.23378762479942" lon="11.475452815562877"><ele>483.0</ele><time>2026-04-10T09:51:32Z</time></trkpt><trkpt lat="44.23366881341135" lon="11.475399293673586"><ele>482.0</ele><time>2026-04-10T09:51:33Z</time></trkpt><trkpt lat="44.23355634516894" lon="11.47534301586935"><ele>481.0</ele><time>2026-04-10T09:51:34Z</time></trkpt><trkpt lat="44.23345505438405" lon="11.475265060880318"><ele>480.0</ele><time>2026-04-10T09:51:35Z</time></trkpt><trkpt lat="44.23338961788568" lon="11.475151769858867"><ele>480.0</ele><time>2026-04-10T09:51:36Z</time></trkpt><trkpt lat="44.23334221820762" lon="11.47504743681895"><ele>480.0</ele><time>2026-04-10T09:51:37Z</time></trkpt><trkpt lat="44.23332664253842" lon="11.474909626586316"><ele>480.0</ele><time>2026-04-10T09:51:38Z</time></trkpt><trkpt lat="44.2332988151252" lon="11.474734728470496"><ele>480.0</ele><time>2026-04-10T09:51:39Z</time></trkpt><trkpt lat="44.23329582881582" lon="11.474545055957254"><ele>481.0</ele><time>2026-04-10T09:51:40Z</time></trkpt><trkpt lat="44.23329052901286" lon="11.47435661879802"><ele>482.0</ele><time>2026-04-10T09:51:41Z</time></trkpt><trkpt lat="44.23328166117086" lon="11.474175442984883"><ele>483.0</ele><time>2026-04-10T09:51:42Z</time></trkpt><trkpt lat="44.23327022175713" lon="11.473993166277044"><ele>484.0</ele><time>2026-04-10T09:51:43Z</time></trkpt><trkpt lat="44.23326411286578" lon="11.47382821415874"><ele>482.75</ele><time>2026-04-10T09:51:44Z</time></trkpt><trkpt lat="44.233243171124705" lon="11.4736772822381"><ele>481.5</ele><time>2026-04-10T09:51:45Z</time></trkpt><trkpt lat="44.23318279540222" lon="11.473539492066267"><ele>480.25</ele><time>2026-04-10T09:51:46Z</time></trkpt><trkpt lat="44.23310624438351" lon="11.473419787825632"><ele>479.0</ele><time>2026-04-10T09:51:47Z</time></trkpt><trkpt lat="44.232983981445585" lon="11.473412226232838"><ele>476.79999999999995</ele><time>2026-04-10T09:51:48Z</time></trkpt><trkpt lat="44.232880081383264" lon="11.473433906671625"><ele>474.59999999999997</ele><time>2026-04-10T09:51:49Z</time></trkpt><trkpt lat="44.232780736930515" lon="11.473476706999836"><ele>472.4</ele><time>2026-04-10T09:51:50Z</time></trkpt><trkpt lat="44.23267996582654" lon="11.473501480293601"><ele>470.2</ele><time>2026-04-10T09:51:51Z</time></trkpt><trkpt lat="44.232576783373" lon="11.473486699491941"><ele>468.0</ele><time>2026-04-10T09:51:52Z</time></trkpt><trkpt lat="44.23248116730489" lon="11.473428134508646"><ele>468.0</ele><time>2026-04-10T09:51:53Z</time></trkpt><trkpt lat="44.232408570882136" lon="11.47331974784456"><ele>468.0</ele><time>2026-04-10T09:51:54Z</time></trkpt><trkpt lat="44.23238169318433" lon="11.473176746133134"><ele>468.0</ele><time>2026-04-10T09:51:55Z</time></trkpt><trkpt lat="44.232394697511964" lon="11.47301390540371"><ele>468.0</ele><time>2026-04-10T09:51:56Z</time></trkpt><trkpt lat="44.2324202223489" lon="11.472838617604454"><ele>468.75</ele><time>2026-04-10T09:51:57Z</time></trkpt><trkpt lat="44.23244468455969" lon="11.47266217188703"><ele>469.5</ele><time>2026-04-10T09:51:58Z</time></trkpt><trkpt lat="44.23243815333405" lon="11.472490747674346"><ele>470.25</ele><time>2026-04-10T09:51:59Z</time></trkpt><trkpt lat="44.23239072255129" lon="11.472315398544994"><ele>471.0</ele><time>2026-04-10T09:52:00Z</time></trkpt><trkpt lat="44.23231905226628" lon="11.472153372262655"><ele>465.75</ele><time>2026-04-10T09:52:01Z</time></trkpt><trkpt lat="44.23223640484271" lon="11.47201316028081"><ele>460.5</ele><time>2026-04-10T09:52:02Z</time></trkpt><trkpt lat="44.23215894159593" lon="11.471874592727245"><ele>455.25</ele><time>2026-04-10T09:52:03Z</time></trkpt><trkpt lat="44.232084624546815" lon="11.471738527288965"><ele>450.0</ele><time>2026-04-10T09:52:04Z</time></trkpt><trkpt lat="44.23201274044669" lon="11.471602024300628"><ele>450.0</ele><time>2026-04-10T09:52:05.001Z</time></trkpt><trkpt lat="44.231941094708084" lon="11.471469263243126"><ele>450.0</ele><time>2026-04-10T09:52:06.001Z</time></trkpt><trkpt lat="44.231875813511884" lon="11.471345355339142"><ele>450.0</ele><time>2026-04-10T09:52:07.001Z</time></trkpt><trkpt lat="44.231820850263595" lon="11.471239694025526"><ele>450.0</ele><time>2026-04-10T09:52:08.001Z</time></trkpt><trkpt lat="44.23177222815888" lon="11.471147487201272"><ele>450.0</ele><time>2026-04-10T09:52:09.001Z</time></trkpt><trkpt lat="44.231733362385754" lon="11.471065214710904"><ele>451.3333333333333</ele><time>2026-04-10T09:52:10.001Z</time></trkpt><trkpt lat="44.23169683569474" lon="11.47099030728003"><ele>452.66666666666663</ele><time>2026-04-10T09:52:11.001Z</time></trkpt><trkpt lat="44.23168021863354" lon="11.470869681279918"><ele>454.0</ele><time>2026-04-10T09:52:13.001Z</time></trkpt><trkpt lat="44.231670012617826" lon="11.470776037269966"><ele>455.3333333333333</ele><time>2026-04-10T09:52:15.001Z</time></trkpt><trkpt lat="44.23156773465173" lon="11.470665737149552"><ele>456.66666666666663</ele><time>2026-04-10T09:52:17.001Z</time></trkpt><trkpt lat="44.23149478963683" lon="11.470595934259734"><ele>458.0</ele><time>2026-04-10T09:52:18.001Z</time></trkpt><trkpt lat="44.23142235065369" lon="11.470518302941825"><ele>458.0</ele><time>2026-04-10T09:52:19.001Z</time></trkpt><trkpt lat="44.23133519489834" lon="11.470494813637904"><ele>457.99999999999994</ele><time>2026-04-10T09:52:20.001Z</time></trkpt><trkpt lat="44.23123310680979" lon="11.470520951883834"><ele>457.99999999999994</ele><time>2026-04-10T09:52:21.001Z</time></trkpt><trkpt lat="44.23111988919097" lon="11.470576546026088"><ele>458.0</ele><time>2026-04-10T09:52:22.001Z</time></trkpt><trkpt lat="44.23100885048541" lon="11.470645216775731"><ele>458.0</ele><time>2026-04-10T09:52:23.001Z</time></trkpt><trkpt lat="44.23089429373265" lon="11.470673111172971"><ele>458.0</ele><time>2026-04-10T09:52:24.001Z</time></trkpt><trkpt lat="44.23077920733508" lon="11.470682583803782"><ele>457.99999999999994</ele><time>2026-04-10T09:52:25.001Z</time></trkpt><trkpt lat="44.230663345188674" lon="11.47067160819417"><ele>457.99999999999994</ele><time>2026-04-10T09:52:26.001Z</time></trkpt><trkpt lat="44.230557172988824" lon="11.470653945363294"><ele>458.0</ele><time>2026-04-10T09:52:27.001Z</time></trkpt><trkpt lat="44.230448890715195" lon="11.47063409022489"><ele>458.0</ele><time>2026-04-10T09:52:28.001Z</time></trkpt><trkpt lat="44.23036674585212" lon="11.47053309084824"><ele>458.0</ele><time>2026-04-10T09:52:29.001Z</time></trkpt><trkpt lat="44.23028831558162" lon="11.470430422633987"><ele>458.0</ele><time>2026-04-10T09:52:30.001Z</time></trkpt><trkpt lat="44.23021759987921" lon="11.470298324486313"><ele>458.0</ele><time>2026-04-10T09:52:31.001Z</time></trkpt><trkpt lat="44.230144894582146" lon="11.470161448724834"><ele>458.0</ele><time>2026-04-10T09:52:32.001Z</time></trkpt><trkpt lat="44.23007544580075" lon="11.470023096088198"><ele>458.0</ele><time>2026-04-10T09:52:33.001Z</time></trkpt><trkpt lat="44.229998246962275" lon="11.469894334731627"><ele>458.0</ele><time>2026-04-10T09:52:34.001Z</time></trkpt><trkpt lat="44.229934548086725" lon="11.469751704102935"><ele>458.0</ele><time>2026-04-10T09:52:35.001Z</time></trkpt><trkpt lat="44.22986832001879" lon="11.469615339654569"><ele>458.0</ele><time>2026-04-10T09:52:36.001Z</time></trkpt><trkpt lat="44.22977481112205" lon="11.469511164586073"><ele>458.0</ele><time>2026-04-10T09:52:37.001Z</time></trkpt><trkpt lat="44.22967558654754" lon="11.469424094606095"><ele>458.0</ele><time>2026-04-10T09:52:38.001Z</time></trkpt><trkpt lat="44.229562072929006" lon="11.469359354312736"><ele>458.0</ele><time>2026-04-10T09:52:39.001Z</time></trkpt><trkpt lat="44.229433361024704" lon="11.46930931408999"><ele>458.0</ele><time>2026-04-10T09:52:40.001Z</time></trkpt><trkpt lat="44.22930089821573" lon="11.469273272524154"><ele>458.0</ele><time>2026-04-10T09:52:41.001Z</time></trkpt><trkpt lat="44.229174397733786" lon="11.46924695812846"><ele>458.0</ele><time>2026-04-10T09:52:42.001Z</time></trkpt><trkpt lat="44.22905498900219" lon="11.469225827817112"><ele>458.0</ele><time>2026-04-10T09:52:43.001Z</time></trkpt><trkpt lat="44.22893846710686" lon="11.46919998968847"><ele>458.0</ele><time>2026-04-10T09:52:44.001Z</time></trkpt><trkpt lat="44.22882489307175" lon="11.469167844330178"><ele>459.75</ele><time>2026-04-10T09:52:45.001Z</time></trkpt><trkpt lat="44.22871795362414" lon="11.469162410704655"><ele>461.5</ele><time>2026-04-10T09:52:46.001Z</time></trkpt><trkpt lat="44.228605801029346" lon="11.46919188167022"><ele>463.25</ele><time>2026-04-10T09:52:47.001Z</time></trkpt><trkpt lat="44.228493240674545" lon="11.469246543161988"><ele>465.0</ele><time>2026-04-10T09:52:48.001Z</time></trkpt><trkpt lat="44.2283909611439" lon="11.469319368158674"><ele>465.0</ele><time>2026-04-10T09:52:49.001Z</time></trkpt><trkpt lat="44.22829065462868" lon="11.469372306507108"><ele>465.0</ele><time>2026-04-10T09:52:50.001Z</time></trkpt><trkpt lat="44.2281715103694" lon="11.469386576684895"><ele>465.0</ele><time>2026-04-10T09:52:51.001Z</time></trkpt><trkpt lat="44.22804077017417" lon="11.469370073060375"><ele>465.0</ele><time>2026-04-10T09:52:52.001Z</time></trkpt><trkpt lat="44.22791287473067" lon="11.469333420093664"><ele>465.0</ele><time>2026-04-10T09:52:53.001Z</time></trkpt><trkpt lat="44.2277878259076" lon="11.46928120334629"><ele>465.0</ele><time>2026-04-10T09:52:54.001Z</time></trkpt><trkpt lat="44.22766249678503" lon="11.46922259303379"><ele>465.0</ele><time>2026-04-10T09:52:55.001Z</time></trkpt><trkpt lat="44.227536941025264" lon="11.469162660739011"><ele>465.0</ele><time>2026-04-10T09:52:56.001Z</time></trkpt><trkpt lat="44.22742035424405" lon="11.469067534950586"><ele>464.25</ele><time>2026-04-10T09:52:57.001Z</time></trkpt><trkpt lat="44.227291404865795" lon="11.468995867282603"><ele>463.5</ele><time>2026-04-10T09:52:58.001Z</time></trkpt><trkpt lat="44.227168216105206" lon="11.468893299115638"><ele>462.75</ele><time>2026-04-10T09:52:59.001Z</time></trkpt><trkpt lat="44.22704858478599" lon="11.468777234408439"><ele>462.0</ele><time>2026-04-10T09:53:00.001Z</time></trkpt><trkpt lat="44.22693179029501" lon="11.468646763711197"><ele>466.0</ele><time>2026-04-10T09:53:01.001Z</time></trkpt><trkpt lat="44.22682088903066" lon="11.468497985896857"><ele>470.0</ele><time>2026-04-10T09:53:02.001Z</time></trkpt><trkpt lat="44.226711208267254" lon="11.46833633274805"><ele>474.0</ele><time>2026-04-10T09:53:03.001Z</time></trkpt><trkpt lat="44.22659644361258" lon="11.468169140224443"><ele>474.0</ele><time>2026-04-10T09:53:04.001Z</time></trkpt><trkpt lat="44.226480649983124" lon="11.467995418997937"><ele>474.0</ele><time>2026-04-10T09:53:05.001Z</time></trkpt><trkpt lat="44.226369427668416" lon="11.467818270889497"><ele>474.0</ele><time>2026-04-10T09:53:06.001Z</time></trkpt><trkpt lat="44.22625307799866" lon="11.467644036569972"><ele>474.33333333333337</ele><time>2026-04-10T09:53:07Z</time></trkpt><trkpt lat="44.22613606643954" lon="11.467472457913058"><ele>474.6666666666667</ele><time>2026-04-10T09:53:08Z</time></trkpt><trkpt lat="44.226032032051535" lon="11.467286104161658"><ele>475.0</ele><time>2026-04-10T09:53:09Z</time></trkpt><trkpt lat="44.22591574041923" lon="11.467119716228698"><ele>476.33333333333337</ele><time>2026-04-10T09:53:10Z</time></trkpt><trkpt lat="44.22579808477094" lon="11.46696535236058"><ele>477.66666666666663</ele><time>2026-04-10T09:53:11Z</time></trkpt><trkpt lat="44.22565879632754" lon="11.466852581649949"><ele>479.0</ele><time>2026-04-10T09:53:12Z</time></trkpt><trkpt lat="44.225530211095894" lon="11.46672930736557"><ele>480.66666666666663</ele><time>2026-04-10T09:53:13Z</time></trkpt><trkpt lat="44.22537560795445" lon="11.46666517631303"><ele>482.33333333333337</ele><time>2026-04-10T09:53:14Z</time></trkpt><trkpt lat="44.225229707163734" lon="11.466563885131052"><ele>484.0</ele><time>2026-04-10T09:53:15Z</time></trkpt><trkpt lat="44.22507226154049" lon="11.466496353324619"><ele>484.0</ele><time>2026-04-10T09:53:16Z</time></trkpt><trkpt lat="44.224909000360775" lon="11.46644956675991"><ele>484.0</ele><time>2026-04-10T09:53:17Z</time></trkpt><trkpt lat="44.22475188081982" lon="11.46642227630056"><ele>484.0</ele><time>2026-04-10T09:53:18Z</time></trkpt><trkpt lat="44.224602326029434" lon="11.466393435573861"><ele>484.6666666666667</ele><time>2026-04-10T09:53:19Z</time></trkpt><trkpt lat="44.224460237916595" lon="11.46633184536967"><ele>485.33333333333337</ele><time>2026-04-10T09:53:20Z</time></trkpt><trkpt lat="44.224323003112765" lon="11.46623149849071"><ele>486.0</ele><time>2026-04-10T09:53:21Z</time></trkpt><trkpt lat="44.22418980623566" lon="11.466105148748113"><ele>488.66666666666663</ele><time>2026-04-10T09:53:22Z</time></trkpt><trkpt lat="44.22405829087237" lon="11.46596403777805"><ele>491.3333333333333</ele><time>2026-04-10T09:53:23Z</time></trkpt><trkpt lat="44.22393085207184" lon="11.46584107626331"><ele>494.0</ele><time>2026-04-10T09:53:24Z</time></trkpt><trkpt lat="44.22381744237414" lon="11.465706373428908"><ele>495.3333333333333</ele><time>2026-04-10T09:53:25Z</time></trkpt><trkpt lat="44.22369184522982" lon="11.46557897473724"><ele>496.66666666666663</ele><time>2026-04-10T09:53:26Z</time></trkpt><trkpt lat="44.223549232922764" lon="11.465463058034809"><ele>498.0</ele><time>2026-04-10T09:53:27Z</time></trkpt><trkpt lat="44.22340058509904" lon="11.465347170278992"><ele>498.0</ele><time>2026-04-10T09:53:28Z</time></trkpt><trkpt lat="44.22325642039407" lon="11.465227280204592"><ele>498.0</ele><time>2026-04-10T09:53:29Z</time></trkpt><trkpt lat="44.22311691882236" lon="11.465109404357486"><ele>498.0</ele><time>2026-04-10T09:53:30Z</time></trkpt><trkpt lat="44.22298148096677" lon="11.464992964644129"><ele>500.0</ele><time>2026-04-10T09:53:31Z</time></trkpt><trkpt lat="44.22285274084979" lon="11.464862941224592"><ele>502.0</ele><time>2026-04-10T09:53:32Z</time></trkpt><trkpt lat="44.22274024975701" lon="11.46469761146006"><ele>504.0</ele><time>2026-04-10T09:53:33Z</time></trkpt><trkpt lat="44.22262032625901" lon="11.464538987873773"><ele>504.0</ele><time>2026-04-10T09:53:34Z</time></trkpt><trkpt lat="44.22251155939432" lon="11.464382742401117"><ele>504.0</ele><time>2026-04-10T09:53:35Z</time></trkpt><trkpt lat="44.22239526551381" lon="11.464235723788569"><ele>504.0</ele><time>2026-04-10T09:53:36Z</time></trkpt><trkpt lat="44.22229989866539" lon="11.464076415470112"><ele>509.5</ele><time>2026-04-10T09:53:37Z</time></trkpt><trkpt lat="44.22223678118169" lon="11.463902438879314"><ele>515.0</ele><time>2026-04-10T09:53:38Z</time></trkpt><trkpt lat="44.222179990227815" lon="11.463732890357988"><ele>520.5</ele><time>2026-04-10T09:53:39Z</time></trkpt><trkpt lat="44.222139906147326" lon="11.463571786163698"><ele>526.0</ele><time>2026-04-10T09:53:40Z</time></trkpt><trkpt lat="44.22211298053205" lon="11.46340818610099"><ele>526.0</ele><time>2026-04-10T09:53:41Z</time></trkpt><trkpt lat="44.222106947833495" lon="11.463252305998884"><ele>526.0</ele><time>2026-04-10T09:53:42Z</time></trkpt><trkpt lat="44.222116982341205" lon="11.463092051521825"><ele>526.0</ele><time>2026-04-10T09:53:43Z</time></trkpt><trkpt lat="44.22218511250194" lon="11.462962166862082"><ele>526.0</ele><time>2026-04-10T09:53:44Z</time></trkpt><trkpt lat="44.222283455302836" lon="11.462867346837008"><ele>524.0</ele><time>2026-04-10T09:53:45Z</time></trkpt><trkpt lat="44.22239815569969" lon="11.462791147805145"><ele>522.0</ele><time>2026-04-10T09:53:46Z</time></trkpt><trkpt lat="44.22252045433456" lon="11.462714218535327"><ele>520.0</ele><time>2026-04-10T09:53:47Z</time></trkpt><trkpt lat="44.2226336088467" lon="11.462635918368683"><ele>518.0</ele><time>2026-04-10T09:53:48Z</time></trkpt><trkpt lat="44.22273886844854" lon="11.462558211827458"><ele>518.0</ele><time>2026-04-10T09:53:49Z</time></trkpt><trkpt lat="44.222844661412864" lon="11.462464818917137"><ele>518.0</ele><time>2026-04-10T09:53:50Z</time></trkpt><trkpt lat="44.22293899083658" lon="11.462337966006414"><ele>518.0</ele><time>2026-04-10T09:53:51Z</time></trkpt><trkpt lat="44.22300870467332" lon="11.462177269422389"><ele>518.0</ele><time>2026-04-10T09:53:52Z</time></trkpt><trkpt lat="44.223056052529785" lon="11.462010897769819"><ele>522.75</ele><time>2026-04-10T09:53:53Z</time></trkpt><trkpt lat="44.22308103856617" lon="11.461841831196564"><ele>527.5</ele><time>2026-04-10T09:53:54Z</time></trkpt><trkpt lat="44.22308581304168" lon="11.461669511450292"><ele>532.25</ele><time>2026-04-10T09:53:55Z</time></trkpt><trkpt lat="44.22306837323731" lon="11.461496179848393"><ele>537.0</ele><time>2026-04-10T09:53:56Z</time></trkpt><trkpt lat="44.223052140256954" lon="11.46133010762675"><ele>536.8333333333334</ele><time>2026-04-10T09:53:57Z</time></trkpt><trkpt lat="44.22304650039168" lon="11.461189532449637"><ele>536.6666666666666</ele><time>2026-04-10T09:53:58Z</time></trkpt><trkpt lat="44.223046600330996" lon="11.461063429707599"><ele>536.5</ele><time>2026-04-10T09:53:59Z</time></trkpt><trkpt lat="44.22303757777311" lon="11.460968252865852"><ele>536.3333333333333</ele><time>2026-04-10T09:54:00Z</time></trkpt><trkpt lat="44.22306628030453" lon="11.460858256692614"><ele>536.1666666666666</ele><time>2026-04-10T09:54:02Z</time></trkpt><trkpt lat="44.22303918664859" lon="11.46074743470597"><ele>536.0</ele><time>2026-04-10T09:59:19.001Z</time></trkpt><trkpt lat="44.22303159008213" lon="11.46064459107583"><ele>536.0</ele><time>2026-04-10T09:59:21.001Z</time></trkpt><trkpt lat="44.223023430974415" lon="11.460552686288104"><ele>536.0</ele><time>2026-04-10T09:59:22.001Z</time></trkpt><trkpt lat="44.223015526580156" lon="11.46044233211521"><ele>536.0</ele><time>2026-04-10T09:59:23.001Z</time></trkpt><trkpt lat="44.223025026532355" lon="11.46033536606124"><ele>536.0</ele><time>2026-04-10T09:59:24.001Z</time></trkpt><trkpt lat="44.223045773062324" lon="11.460237957201715"><ele>536.0</ele><time>2026-04-10T09:59:25Z</time></trkpt><trkpt lat="44.223074673176924" lon="11.460133955726691"><ele>536.0</ele><time>2026-04-10T09:59:27Z</time></trkpt><trkpt lat="44.22312514292126" lon="11.460045753475105"><ele>536.0</ele><time>2026-04-10T09:59:30Z</time></trkpt><trkpt lat="44.22316861157337" lon="11.459976541694653"><ele>536.0</ele><time>2026-04-10T09:59:35Z</time></trkpt><trkpt lat="44.223231028788746" lon="11.459888212931869"><ele>536.0</ele><time>2026-04-10T09:59:49Z</time></trkpt><trkpt lat="44.22328659887595" lon="11.459808293078826"><ele>536.0</ele><time>2026-04-10T09:59:50Z</time></trkpt><trkpt lat="44.22337020885837" lon="11.459733087580945"><ele>536.0</ele><time>2026-04-10T09:59:51Z</time></trkpt><trkpt lat="44.223472681575124" lon="11.459668598994448"><ele>536.0</ele><time>2026-04-10T09:59:52Z</time></trkpt><trkpt lat="44.22358329579127" lon="11.459615069656218"><ele>536.0</ele><time>2026-04-10T09:59:53Z</time></trkpt><trkpt lat="44.22369853579469" lon="11.459566066459914"><ele>536.0</ele><time>2026-04-10T09:59:54Z</time></trkpt><trkpt lat="44.22381944645282" lon="11.45950283630752"><ele>536.0</ele><time>2026-04-10T09:59:55Z</time></trkpt><trkpt lat="44.223934293241335" lon="11.45942354016175"><ele>536.0</ele><time>2026-04-10T09:59:56Z</time></trkpt><trkpt lat="44.22405523390866" lon="11.459342856054633"><ele>529.5</ele><time>2026-04-10T09:59:57Z</time></trkpt><trkpt lat="44.22416647391597" lon="11.459249516204242"><ele>523.0</ele><time>2026-04-10T09:59:58Z</time></trkpt><trkpt lat="44.22429018270439" lon="11.459179343383164"><ele>516.5</ele><time>2026-04-10T09:59:59Z</time></trkpt><trkpt lat="44.224407401629655" lon="11.459099750976621"><ele>510.0</ele><time>2026-04-10T10:00:00Z</time></trkpt><trkpt lat="44.224519633887105" lon="11.459010221558176"><ele>510.0</ele><time>2026-04-10T10:00:01Z</time></trkpt><trkpt lat="44.22463996039287" lon="11.458952589589257"><ele>510.0</ele><time>2026-04-10T10:00:02Z</time></trkpt><trkpt lat="44.22476444221053" lon="11.458906265079653"><ele>510.0</ele><time>2026-04-10T10:00:03Z</time></trkpt><trkpt lat="44.224888225648634" lon="11.458869855551596"><ele>510.0</ele><time>2026-04-10T10:00:04Z</time></trkpt><trkpt lat="44.22501200100754" lon="11.458846976671337"><ele>510.0</ele><time>2026-04-10T10:00:05Z</time></trkpt><trkpt lat="44.225135644515554" lon="11.458835682177542"><ele>510.0</ele><time>2026-04-10T10:00:06Z</time></trkpt><trkpt lat="44.225257043083026" lon="11.458820019502488"><ele>510.0</ele><time>2026-04-10T10:00:07Z</time></trkpt><trkpt lat="44.22537933007136" lon="11.458789992484114"><ele>510.0</ele><time>2026-04-10T10:00:08Z</time></trkpt><trkpt lat="44.225493975751185" lon="11.458745242587478"><ele>510.0</ele><time>2026-04-10T10:00:09Z</time></trkpt><trkpt lat="44.225604570013886" lon="11.458688308457207"><ele>510.0</ele><time>2026-04-10T10:00:10Z</time></trkpt><trkpt lat="44.225698554674636" lon="11.458622591923582"><ele>510.0</ele><time>2026-04-10T10:00:11Z</time></trkpt><trkpt lat="44.225771065558106" lon="11.458533284871748"><ele>510.0</ele><time>2026-04-10T10:00:12Z</time></trkpt><trkpt lat="44.22581992864607" lon="11.458416846881265"><ele>510.0</ele><time>2026-04-10T10:00:13Z</time></trkpt><trkpt lat="44.22585399323615" lon="11.458276796293106"><ele>508.4</ele><time>2026-04-10T10:00:14Z</time></trkpt><trkpt lat="44.2258292377714" lon="11.458139265597929"><ele>506.8</ele><time>2026-04-10T10:00:15Z</time></trkpt><trkpt lat="44.225778037153965" lon="11.458008763246617"><ele>505.20000000000005</ele><time>2026-04-10T10:00:16Z</time></trkpt><trkpt lat="44.22572247996677" lon="11.457887378944053"><ele>503.6</ele><time>2026-04-10T10:00:17Z</time></trkpt><trkpt lat="44.22567306277734" lon="11.457791922666125"><ele>502.0</ele><time>2026-04-10T10:00:18Z</time></trkpt><trkpt lat="44.22562480466715" lon="11.457698818402722"><ele>502.0</ele><time>2026-04-10T10:00:19Z</time></trkpt><trkpt lat="44.22558085250296" lon="11.457613961217787"><ele>502.00000000000006</ele><time>2026-04-10T10:00:20Z</time></trkpt><trkpt lat="44.22552608849458" lon="11.457508229986923"><ele>502.00000000000006</ele><time>2026-04-10T10:00:22Z</time></trkpt><trkpt lat="44.22548354928453" lon="11.457426101272963"><ele>502.0</ele><time>2026-04-10T10:00:25Z</time></trkpt><trkpt lat="44.22538732770626" lon="11.457506284329792"><ele>502.0</ele><time>2026-04-10T10:00:46Z</time></trkpt><trkpt lat="44.22547802493797" lon="11.457415435787778"><ele>502.0</ele><time>2026-04-10T10:00:50Z</time></trkpt><trkpt lat="44.22539787237794" lon="11.457515464411065"><ele>502.00000000000006</ele><time>2026-04-10T10:00:59Z</time></trkpt><trkpt lat="44.225484578634166" lon="11.457428088600745"><ele>502.00000000000006</ele><time>2026-04-10T10:01:03Z</time></trkpt><trkpt lat="44.22539936650516" lon="11.457506181302048"><ele>502.0</ele><time>2026-04-10T10:01:14Z</time></trkpt><trkpt lat="44.22548227221431" lon="11.457423635829686"><ele>502.0</ele><time>2026-04-10T10:01:20Z</time></trkpt><trkpt lat="44.225399417015225" lon="11.457506629256244"><ele>502.0</ele><time>2026-04-10T10:01:25Z</time></trkpt><trkpt lat="44.22548227212729" lon="11.457423635916847"><ele>502.00000000000006</ele><time>2026-04-10T10:01:30.001Z</time></trkpt><trkpt lat="44.225399417015225" lon="11.457506629256244"><ele>502.00000000000006</ele><time>2026-04-10T10:01:32Z</time></trkpt><trkpt lat="44.22548161487843" lon="11.457422366756784"><ele>502.0</ele><time>2026-04-10T10:01:36Z</time></trkpt><trkpt lat="44.22540142140463" lon="11.457500489977434"><ele>502.0</ele><time>2026-04-10T10:01:39Z</time></trkpt><trkpt lat="44.22533882860796" lon="11.45747660318554"><ele>502.0</ele><time>2026-04-10T10:01:42Z</time></trkpt><trkpt lat="44.2252462389319" lon="11.457334060105875"><ele>502.00000000000006</ele><time>2026-04-10T10:01:44Z</time></trkpt><trkpt lat="44.22520129586516" lon="11.457240578042347"><ele>502.00000000000006</ele><time>2026-04-10T10:01:45Z</time></trkpt><trkpt lat="44.22513963984684" lon="11.457148873604305"><ele>502.0</ele><time>2026-04-10T10:01:46Z</time></trkpt><trkpt lat="44.22505960210011" lon="11.457073827309397"><ele>502.0</ele><time>2026-04-10T10:01:47Z</time></trkpt><trkpt lat="44.22496700740127" lon="11.457027160236407"><ele>503.5</ele><time>2026-04-10T10:01:48Z</time></trkpt><trkpt lat="44.22486753575859" lon="11.456972332688771"><ele>505.0</ele><time>2026-04-10T10:01:49Z</time></trkpt><trkpt lat="44.22476951163655" lon="11.456890379037214"><ele>506.5</ele><time>2026-04-10T10:01:50Z</time></trkpt><trkpt lat="44.224653033199544" lon="11.456817222496424"><ele>508.0</ele><time>2026-04-10T10:01:51Z</time></trkpt><trkpt lat="44.22453557247523" lon="11.456742621815456"><ele>508.0</ele><time>2026-04-10T10:01:52Z</time></trkpt><trkpt lat="44.22441063617852" lon="11.45665985165184"><ele>508.0</ele><time>2026-04-10T10:01:53Z</time></trkpt><trkpt lat="44.22427825152483" lon="11.456591396626484"><ele>508.0</ele><time>2026-04-10T10:01:54Z</time></trkpt><trkpt lat="44.22416779713605" lon="11.456518958285105"><ele>508.0</ele><time>2026-04-10T10:01:55Z</time></trkpt><trkpt lat="44.22407176159657" lon="11.456439545284388"><ele>510.2</ele><time>2026-04-10T10:01:56Z</time></trkpt><trkpt lat="44.22396652274582" lon="11.456426028915672"><ele>512.4</ele><time>2026-04-10T10:01:57Z</time></trkpt><trkpt lat="44.22386495993726" lon="11.45642325957531"><ele>514.5999999999999</ele><time>2026-04-10T10:01:58Z</time></trkpt><trkpt lat="44.223757510003345" lon="11.456454707563728"><ele>516.8</ele><time>2026-04-10T10:01:59Z</time></trkpt><trkpt lat="44.22363869063047" lon="11.456475623290205"><ele>519.0</ele><time>2026-04-10T10:02:00Z</time></trkpt><trkpt lat="44.22353346918056" lon="11.456508861985558"><ele>519.0</ele><time>2026-04-10T10:02:01Z</time></trkpt><trkpt lat="44.22343633855496" lon="11.456528909164986"><ele>519.0</ele><time>2026-04-10T10:02:02Z</time></trkpt><trkpt lat="44.22333779224016" lon="11.456542813102674"><ele>519.0</ele><time>2026-04-10T10:02:03Z</time></trkpt><trkpt lat="44.22325152466202" lon="11.456480287800616"><ele>519.0</ele><time>2026-04-10T10:02:04Z</time></trkpt><trkpt lat="44.223191657116686" lon="11.456382271737956"><ele>519.0</ele><time>2026-04-10T10:02:05Z</time></trkpt><trkpt lat="44.22313470978674" lon="11.456322562149015"><ele>520.4</ele><time>2026-04-10T10:02:06Z</time></trkpt><trkpt lat="44.2231343046378" lon="11.456105731397656"><ele>521.8</ele><time>2026-04-10T10:02:08Z</time></trkpt><trkpt lat="44.22311305776443" lon="11.455988436267914"><ele>523.2</ele><time>2026-04-10T10:02:09Z</time></trkpt><trkpt lat="44.223088497497166" lon="11.455858334022384"><ele>524.6</ele><time>2026-04-10T10:02:10Z</time></trkpt><trkpt lat="44.22305953194513" lon="11.455712884625923"><ele>526.0</ele><time>2026-04-10T10:02:11Z</time></trkpt><trkpt lat="44.223025905873975" lon="11.455562289288144"><ele>523.6666666666667</ele><time>2026-04-10T10:02:12Z</time></trkpt><trkpt lat="44.22298690659815" lon="11.455418344010923"><ele>521.3333333333334</ele><time>2026-04-10T10:02:13Z</time></trkpt><trkpt lat="44.22295547731016" lon="11.4552977910458"><ele>519.0</ele><time>2026-04-10T10:02:14Z</time></trkpt><trkpt lat="44.22294668315831" lon="11.455197233533859"><ele>516.6666666666666</ele><time>2026-04-10T10:02:15Z</time></trkpt><trkpt lat="44.223000077467866" lon="11.455115538557948"><ele>514.3333333333333</ele><time>2026-04-10T10:02:17Z</time></trkpt><trkpt lat="44.22308096460544" lon="11.455156095593853"><ele>512.0</ele><time>2026-04-10T10:02:19Z</time></trkpt><trkpt lat="44.22313945061331" lon="11.45524374945255"><ele>510.25</ele><time>2026-04-10T10:02:20Z</time></trkpt><trkpt lat="44.223302852689244" lon="11.455474712625245"><ele>508.5</ele><time>2026-04-10T10:02:22Z</time></trkpt><trkpt lat="44.22336942761494" lon="11.455570519970186"><ele>506.75</ele><time>2026-04-10T10:02:23Z</time></trkpt><trkpt lat="44.22343322701688" lon="11.45565215243195"><ele>505.0</ele><time>2026-04-10T10:02:24Z</time></trkpt><trkpt lat="44.223506630079136" lon="11.455678557545147"><ele>505.00000000000006</ele><time>2026-04-10T10:02:25Z</time></trkpt><trkpt lat="44.22357011735865" lon="11.455682854714782"><ele>505.0</ele><time>2026-04-10T10:02:26Z</time></trkpt><trkpt lat="44.22363452912342" lon="11.455613067951221"><ele>505.0</ele><time>2026-04-10T10:02:27Z</time></trkpt><trkpt lat="44.22367126737067" lon="11.455511854666124"><ele>505.0</ele><time>2026-04-10T10:02:28Z</time></trkpt><trkpt lat="44.22362529842215" lon="11.455368183494937"><ele>505.00000000000006</ele><time>2026-04-10T10:02:29Z</time></trkpt><trkpt lat="44.223581989385494" lon="11.45523849657928"><ele>505.0</ele><time>2026-04-10T10:02:30Z</time></trkpt><trkpt lat="44.22352927754046" lon="11.455098537687896"><ele>503.0</ele><time>2026-04-10T10:02:31Z</time></trkpt><trkpt lat="44.223451812986404" lon="11.454953995199748"><ele>501.0</ele><time>2026-04-10T10:02:32Z</time></trkpt><trkpt lat="44.223371535993635" lon="11.454823933972557"><ele>499.0</ele><time>2026-04-10T10:02:33Z</time></trkpt><trkpt lat="44.22329717299483" lon="11.45470050755443"><ele>497.0</ele><time>2026-04-10T10:02:34Z</time></trkpt><trkpt lat="44.22324732752648" lon="11.454566464084794"><ele>496.0</ele><time>2026-04-10T10:02:35Z</time></trkpt><trkpt lat="44.223241752557534" lon="11.454410170239541"><ele>495.0</ele><time>2026-04-10T10:02:36Z</time></trkpt><trkpt lat="44.22320095016282" lon="11.454265260097038"><ele>494.0</ele><time>2026-04-10T10:02:37Z</time></trkpt><trkpt lat="44.22316060028937" lon="11.45410931904826"><ele>493.0</ele><time>2026-04-10T10:02:38Z</time></trkpt><trkpt lat="44.223094217067484" lon="11.453965576174987"><ele>493.75</ele><time>2026-04-10T10:02:39Z</time></trkpt><trkpt lat="44.22299493108477" lon="11.453857834031147"><ele>494.5</ele><time>2026-04-10T10:02:40Z</time></trkpt><trkpt lat="44.22288375977853" lon="11.453737440845968"><ele>495.25</ele><time>2026-04-10T10:02:41Z</time></trkpt><trkpt lat="44.22275381409706" lon="11.453647150877128"><ele>496.0</ele><time>2026-04-10T10:02:42Z</time></trkpt><trkpt lat="44.22263533630615" lon="11.453571259327028"><ele>496.0</ele><time>2026-04-10T10:02:43Z</time></trkpt><trkpt lat="44.222511112484305" lon="11.453491687897717"><ele>496.0</ele><time>2026-04-10T10:02:44Z</time></trkpt><trkpt lat="44.22238169125709" lon="11.45340199356906"><ele>496.0</ele><time>2026-04-10T10:02:45Z</time></trkpt><trkpt lat="44.22228659556317" lon="11.453259988408872"><ele>496.0</ele><time>2026-04-10T10:02:46Z</time></trkpt><trkpt lat="44.22219646649638" lon="11.453108887351588"><ele>497.0</ele><time>2026-04-10T10:02:47Z</time></trkpt><trkpt lat="44.22210453837318" lon="11.452948369376664"><ele>498.0</ele><time>2026-04-10T10:02:48Z</time></trkpt><trkpt lat="44.22201117647493" lon="11.45279700162446"><ele>499.0</ele><time>2026-04-10T10:02:49Z</time></trkpt><trkpt lat="44.22192234175125" lon="11.45265970084378"><ele>500.0</ele><time>2026-04-10T10:02:50Z</time></trkpt><trkpt lat="44.221835894380256" lon="11.452552183246905"><ele>500.0</ele><time>2026-04-10T10:02:51Z</time></trkpt><trkpt lat="44.22175319767042" lon="11.452431660212774"><ele>500.0</ele><time>2026-04-10T10:02:52Z</time></trkpt><trkpt lat="44.22165763586424" lon="11.452329176244014"><ele>500.0</ele><time>2026-04-10T10:02:53Z</time></trkpt><trkpt lat="44.22158260575311" lon="11.452215434818768"><ele>500.0</ele><time>2026-04-10T10:02:54Z</time></trkpt><trkpt lat="44.22148828197945" lon="11.452134371845386"><ele>500.6</ele><time>2026-04-10T10:02:55Z</time></trkpt><trkpt lat="44.221405078100844" lon="11.452043461484383"><ele>501.2</ele><time>2026-04-10T10:02:56Z</time></trkpt><trkpt lat="44.22132222127533" lon="11.451959373188117"><ele>501.79999999999995</ele><time>2026-04-10T10:02:57Z</time></trkpt><trkpt lat="44.22124363470152" lon="11.451883622538595"><ele>502.4</ele><time>2026-04-10T10:02:58Z</time></trkpt><trkpt lat="44.221160100087154" lon="11.451804496669446"><ele>503.0</ele><time>2026-04-10T10:02:59Z</time></trkpt><trkpt lat="44.22106639136751" lon="11.451735773827895"><ele>503.0</ele><time>2026-04-10T10:03:00Z</time></trkpt><trkpt lat="44.22096749163833" lon="11.451684562624976"><ele>502.99999999999994</ele><time>2026-04-10T10:03:01Z</time></trkpt><trkpt lat="44.22087102821866" lon="11.451653405886528"><ele>502.99999999999994</ele><time>2026-04-10T10:03:02Z</time></trkpt><trkpt lat="44.220785725893975" lon="11.45160155078769"><ele>503.0</ele><time>2026-04-10T10:03:03Z</time></trkpt><trkpt lat="44.22070648576464" lon="11.451551622483562"><ele>503.0</ele><time>2026-04-10T10:03:04Z</time></trkpt><trkpt lat="44.22063966867629" lon="11.451468825845328"><ele>503.0</ele><time>2026-04-10T10:03:05Z</time></trkpt><trkpt lat="44.22059110578786" lon="11.451376671688191"><ele>503.00000000000006</ele><time>2026-04-10T10:03:06Z</time></trkpt><trkpt lat="44.220550827012524" lon="11.451288266412005"><ele>503.0</ele><time>2026-04-10T10:03:07Z</time></trkpt><trkpt lat="44.2205107100048" lon="11.451218746965948"><ele>503.0</ele><time>2026-04-10T10:03:08Z</time></trkpt><trkpt lat="44.220463109740464" lon="11.451157735294533"><ele>503.00000000000006</ele><time>2026-04-10T10:03:09Z</time></trkpt><trkpt lat="44.22040384357195" lon="11.451116860838688"><ele>503.0</ele><time>2026-04-10T10:03:10Z</time></trkpt><trkpt lat="44.2203533069224" lon="11.4510568868826"><ele>503.0</ele><time>2026-04-10T10:03:11Z</time></trkpt><trkpt lat="44.220282724396114" lon="11.45100229036498"><ele>502.99999999999994</ele><time>2026-04-10T10:03:12Z</time></trkpt><trkpt lat="44.22021608858578" lon="11.450956837876038"><ele>503.0</ele><time>2026-04-10T10:03:13Z</time></trkpt><trkpt lat="44.22015170706728" lon="11.450907341152353"><ele>503.0</ele><time>2026-04-10T10:03:14Z</time></trkpt><trkpt lat="44.220075052600485" lon="11.450907759225188"><ele>503.0</ele><time>2026-04-10T10:03:15Z</time></trkpt><trkpt lat="44.22000439445339" lon="11.450911272635626"><ele>502.99999999999994</ele><time>2026-04-10T10:03:16Z</time></trkpt><trkpt lat="44.219932252251446" lon="11.450920412709458"><ele>503.0</ele><time>2026-04-10T10:03:17Z</time></trkpt><trkpt lat="44.21985217902132" lon="11.450864896239715"><ele>503.79999999999995</ele><time>2026-04-10T10:03:18Z</time></trkpt><trkpt lat="44.21977789936242" lon="11.450788486548493"><ele>504.59999999999997</ele><time>2026-04-10T10:03:19Z</time></trkpt><trkpt lat="44.219714269937974" lon="11.45069725827004"><ele>505.40000000000003</ele><time>2026-04-10T10:03:20Z</time></trkpt><trkpt lat="44.21967637201619" lon="11.450567468027366"><ele>506.20000000000005</ele><time>2026-04-10T10:03:21Z</time></trkpt><trkpt lat="44.21965030671647" lon="11.450416995740385"><ele>507.0</ele><time>2026-04-10T10:03:22Z</time></trkpt><trkpt lat="44.21964676044434" lon="11.450248322713334"><ele>507.0</ele><time>2026-04-10T10:03:23Z</time></trkpt><trkpt lat="44.219632026704666" lon="11.450085708221017"><ele>507.0</ele><time>2026-04-10T10:03:24Z</time></trkpt><trkpt lat="44.21959192640939" lon="11.449920333314486"><ele>507.0</ele><time>2026-04-10T10:03:25Z</time></trkpt><trkpt lat="44.219549872602514" lon="11.449767320108368"><ele>507.0</ele><time>2026-04-10T10:03:26Z</time></trkpt><trkpt lat="44.21948669104104" lon="11.449607247169755"><ele>504.25</ele><time>2026-04-10T10:03:27Z</time></trkpt><trkpt lat="44.21940706678299" lon="11.44945003520564"><ele>501.5</ele><time>2026-04-10T10:03:28Z</time></trkpt><trkpt lat="44.219316504610575" lon="11.449294729509148"><ele>498.75</ele><time>2026-04-10T10:03:29Z</time></trkpt><trkpt lat="44.21922727473196" lon="11.449152475323956"><ele>496.0</ele><time>2026-04-10T10:03:30Z</time></trkpt><trkpt lat="44.21914008646877" lon="11.449014056944389"><ele>496.0</ele><time>2026-04-10T10:03:31Z</time></trkpt><trkpt lat="44.21905263922055" lon="11.448880958265711"><ele>496.0</ele><time>2026-04-10T10:03:32Z</time></trkpt><trkpt lat="44.21894192270616" lon="11.448763812451853"><ele>496.0</ele><time>2026-04-10T10:03:33Z</time></trkpt><trkpt lat="44.218803581684575" lon="11.448688498341811"><ele>496.0</ele><time>2026-04-10T10:03:34Z</time></trkpt><trkpt lat="44.218662823964245" lon="11.448610866286241"><ele>496.0</ele><time>2026-04-10T10:03:35Z</time></trkpt><trkpt lat="44.21851624633282" lon="11.448520060174568"><ele>496.0</ele><time>2026-04-10T10:03:36Z</time></trkpt><trkpt lat="44.218355097485535" lon="11.448469247782906"><ele>496.0</ele><time>2026-04-10T10:03:36.999Z</time></trkpt><trkpt lat="44.21819433233645" lon="11.448386439013593"><ele>500.0</ele><time>2026-04-10T10:03:37.999Z</time></trkpt><trkpt lat="44.21802979698268" lon="11.448303871313664"><ele>504.0</ele><time>2026-04-10T10:03:38.999Z</time></trkpt><trkpt lat="44.217867104239104" lon="11.448223118723197"><ele>508.0</ele><time>2026-04-10T10:03:39.999Z</time></trkpt><trkpt lat="44.217710778659374" lon="11.4481185834742"><ele>508.0</ele><time>2026-04-10T10:03:40.999Z</time></trkpt><trkpt lat="44.21754704808166" lon="11.448038691577105"><ele>508.0</ele><time>2026-04-10T10:03:41.999Z</time></trkpt><trkpt lat="44.21737579501138" lon="11.44799891249206"><ele>508.0</ele><time>2026-04-10T10:03:42.999Z</time></trkpt><trkpt lat="44.21721077407691" lon="11.447953925275257"><ele>506.0</ele><time>2026-04-10T10:03:43.999Z</time></trkpt><trkpt lat="44.21705141124784" lon="11.447895383206461"><ele>504.0</ele><time>2026-04-10T10:03:44.999Z</time></trkpt><trkpt lat="44.21689548004783" lon="11.447859120132465"><ele>502.0</ele><time>2026-04-10T10:03:45.999Z</time></trkpt><trkpt lat="44.21675172955312" lon="11.447821848524887"><ele>502.0</ele><time>2026-04-10T10:03:46.999Z</time></trkpt><trkpt lat="44.2166176990096" lon="11.447779529994262"><ele>502.0</ele><time>2026-04-10T10:03:47.999Z</time></trkpt><trkpt lat="44.2164856883682" lon="11.44771763269335"><ele>502.0</ele><time>2026-04-10T10:03:48.999Z</time></trkpt><trkpt lat="44.216383176191506" lon="11.447579727239882"><ele>502.0</ele><time>2026-04-10T10:03:49.999Z</time></trkpt><trkpt lat="44.21626544199539" lon="11.447453691559843"><ele>503.25</ele><time>2026-04-10T10:03:50.999Z</time></trkpt><trkpt lat="44.21615719652531" lon="11.447317031306355"><ele>504.5</ele><time>2026-04-10T10:03:51.999Z</time></trkpt><trkpt lat="44.21605294275455" lon="11.447179981462066"><ele>505.75</ele><time>2026-04-10T10:03:52.999Z</time></trkpt><trkpt lat="44.21595312666773" lon="11.447052316030103"><ele>507.0</ele><time>2026-04-10T10:03:53.999Z</time></trkpt><trkpt lat="44.21586011497046" lon="11.446925770046702"><ele>507.0</ele><time>2026-04-10T10:03:54.999Z</time></trkpt><trkpt lat="44.2157758913128" lon="11.446794608290624"><ele>507.0</ele><time>2026-04-10T10:03:55.999Z</time></trkpt><trkpt lat="44.21570773605197" lon="11.44665139975023"><ele>507.0</ele><time>2026-04-10T10:03:56.999Z</time></trkpt><trkpt lat="44.21567651041507" lon="11.446489839527926"><ele>507.0</ele><time>2026-04-10T10:03:57.999Z</time></trkpt><trkpt lat="44.21564357913773" lon="11.446320922303201"><ele>510.25</ele><time>2026-04-10T10:03:58.999Z</time></trkpt><trkpt lat="44.21561062777259" lon="11.4461483298359"><ele>513.5</ele><time>2026-04-10T10:04:00Z</time></trkpt><trkpt lat="44.21557555429813" lon="11.445978256130243"><ele>516.75</ele><time>2026-04-10T10:04:01Z</time></trkpt><trkpt lat="44.215540874796694" lon="11.445813038638791"><ele>520.0</ele><time>2026-04-10T10:04:02Z</time></trkpt><trkpt lat="44.21550688923554" lon="11.445651127147432"><ele>520.0</ele><time>2026-04-10T10:04:03Z</time></trkpt><trkpt lat="44.215473222321855" lon="11.44549134227905"><ele>520.0</ele><time>2026-04-10T10:04:04Z</time></trkpt><trkpt lat="44.215440489461045" lon="11.445336416431047"><ele>520.0</ele><time>2026-04-10T10:04:05Z</time></trkpt><trkpt lat="44.2154117419252" lon="11.445183401159994"><ele>520.0</ele><time>2026-04-10T10:04:06Z</time></trkpt><trkpt lat="44.21540661235999" lon="11.44503621201319"><ele>519.8</ele><time>2026-04-10T10:04:07Z</time></trkpt><trkpt lat="44.21544187966098" lon="11.444904621944277"><ele>519.6</ele><time>2026-04-10T10:04:08Z</time></trkpt><trkpt lat="44.21551643685865" lon="11.444794558115648"><ele>519.4</ele><time>2026-04-10T10:04:09Z</time></trkpt><trkpt lat="44.215600185749395" lon="11.44468254365357"><ele>519.2</ele><time>2026-04-10T10:04:10Z</time></trkpt><trkpt lat="44.21566121519082" lon="11.444551096270391"><ele>519.0</ele><time>2026-04-10T10:04:11Z</time></trkpt><trkpt lat="44.21569423276333" lon="11.444382286980597"><ele>518.8</ele><time>2026-04-10T10:04:12Z</time></trkpt><trkpt lat="44.215691366168784" lon="11.444211311527578"><ele>518.5999999999999</ele><time>2026-04-10T10:04:13Z</time></trkpt><trkpt lat="44.21564984555727" lon="11.44405559789921"><ele>518.4</ele><time>2026-04-10T10:04:14Z</time></trkpt><trkpt lat="44.21558273483837" lon="11.443923787764971"><ele>518.1999999999999</ele><time>2026-04-10T10:04:15Z</time></trkpt><trkpt lat="44.2155292046289" lon="11.443851508963022"><ele>518.0</ele><time>2026-04-10T10:04:16Z</time></trkpt><trkpt lat="44.21547351159886" lon="11.443771215828269"><ele>516.3333333333333</ele><time>2026-04-10T10:04:18Z</time></trkpt><trkpt lat="44.215419108327566" lon="11.443683499288827"><ele>514.6666666666666</ele><time>2026-04-10T10:04:21Z</time></trkpt><trkpt lat="44.21537070441726" lon="11.443622901671109"><ele>513.0</ele><time>2026-04-10T10:04:24Z</time></trkpt><trkpt lat="44.21530377528435" lon="11.44352535182736"><ele>511.33333333333337</ele><time>2026-04-10T10:04:27Z</time></trkpt><trkpt lat="44.2152460006206" lon="11.443452464890685"><ele>509.6666666666667</ele><time>2026-04-10T10:04:29Z</time></trkpt><trkpt lat="44.21522378507827" lon="11.443346589181814"><ele>508.0</ele><time>2026-04-10T10:04:32Z</time></trkpt><trkpt lat="44.21530615311661" lon="11.44334459900113"><ele>508.0</ele><time>2026-04-10T10:04:35Z</time></trkpt><trkpt lat="44.215363133238434" lon="11.443387415760858"><ele>508.0</ele><time>2026-04-10T10:04:38Z</time></trkpt><trkpt lat="44.215428911257696" lon="11.443430056786893"><ele>508.0</ele><time>2026-04-10T10:06:14Z</time></trkpt><trkpt lat="44.21551455116867" lon="11.443478064523287"><ele>508.0</ele><time>2026-04-10T10:06:16Z</time></trkpt></trkseg><trkseg><trkpt lat="44.215487345380026" lon="11.443543134414556"><ele>508.0</ele><time>2026-04-10T10:50:10.999Z</time></trkpt><trkpt lat="44.21543573254247" lon="11.443485904751753"><ele>508.0</ele><time>2026-04-10T10:50:20Z</time></trkpt><trkpt lat="44.21538575034018" lon="11.443423792274086"><ele>508.0</ele><time>2026-04-10T10:53:13.001Z</time></trkpt><trkpt lat="44.215342379427724" lon="11.443345708719242"><ele>508.0</ele><time>2026-04-10T10:53:15.001Z</time></trkpt><trkpt lat="44.215265829699895" lon="11.443313198538586"><ele>508.0</ele><time>2026-04-10T10:53:17.001Z</time></trkpt><trkpt lat="44.215201528737246" lon="11.44330035580864"><ele>508.0</ele><time>2026-04-10T10:53:21.001Z</time></trkpt><trkpt lat="44.21512375768575" lon="11.443228262937323"><ele>508.0</ele><time>2026-04-10T10:54:05Z</time></trkpt><trkpt lat="44.21508962906575" lon="11.443143059501562"><ele>508.00000000000006</ele><time>2026-04-10T10:54:06Z</time></trkpt><trkpt lat="44.21505231800504" lon="11.443052879248716"><ele>508.0</ele><time>2026-04-10T10:54:07Z</time></trkpt><trkpt lat="44.215014360238165" lon="11.442947526396305"><ele>508.0</ele><time>2026-04-10T10:54:08Z</time></trkpt><trkpt lat="44.21498643298599" lon="11.442833616538989"><ele>508.0</ele><time>2026-04-10T10:54:09Z</time></trkpt><trkpt lat="44.214964283971184" lon="11.442719338781961"><ele>508.00000000000006</ele><time>2026-04-10T10:54:10Z</time></trkpt><trkpt lat="44.214940708232625" lon="11.442599889118837"><ele>508.0</ele><time>2026-04-10T10:54:11Z</time></trkpt><trkpt lat="44.21491751315955" lon="11.442475914003467"><ele>506.59999999999997</ele><time>2026-04-10T10:54:12Z</time></trkpt><trkpt lat="44.21489488834415" lon="11.442355968282284"><ele>505.19999999999993</ele><time>2026-04-10T10:54:13Z</time></trkpt><trkpt lat="44.21487072023807" lon="11.442235116572007"><ele>503.8</ele><time>2026-04-10T10:54:14Z</time></trkpt><trkpt lat="44.21484320459776" lon="11.442102824939816"><ele>502.4</ele><time>2026-04-10T10:54:15Z</time></trkpt><trkpt lat="44.214811614430964" lon="11.441970211618903"><ele>501.0</ele><time>2026-04-10T10:54:16Z</time></trkpt><trkpt lat="44.21478285660831" lon="11.441845756365893"><ele>503.5</ele><time>2026-04-10T10:54:17Z</time></trkpt><trkpt lat="44.21475514683545" lon="11.441728854830789"><ele>506.0</ele><time>2026-04-10T10:54:18Z</time></trkpt><trkpt lat="44.21473093679086" lon="11.441615909368718"><ele>508.5</ele><time>2026-04-10T10:54:19Z</time></trkpt><trkpt lat="44.21470969580008" lon="11.441506442414443"><ele>511.0</ele><time>2026-04-10T10:54:20Z</time></trkpt><trkpt lat="44.21469675006336" lon="11.441398694966312"><ele>513.5</ele><time>2026-04-10T10:54:21Z</time></trkpt><trkpt lat="44.214698062893994" lon="11.44127697597473"><ele>516.0</ele><time>2026-04-10T10:54:22Z</time></trkpt><trkpt lat="44.21472057713278" lon="11.441147250646507"><ele>516.0</ele><time>2026-04-10T10:54:23Z</time></trkpt><trkpt lat="44.21476123634841" lon="11.44101972195143"><ele>516.0</ele><time>2026-04-10T10:54:24Z</time></trkpt><trkpt lat="44.214813943376434" lon="11.44089138628381"><ele>516.0</ele><time>2026-04-10T10:54:25Z</time></trkpt><trkpt lat="44.21486241311944" lon="11.4407573996935"><ele>516.0</ele><time>2026-04-10T10:54:26Z</time></trkpt><trkpt lat="44.214906525934815" lon="11.440630083442198"><ele>516.0</ele><time>2026-04-10T10:54:27Z</time></trkpt><trkpt lat="44.21495903257776" lon="11.44048876105791"><ele>511.25</ele><time>2026-04-10T10:54:28Z</time></trkpt><trkpt lat="44.21495777102128" lon="11.440310304445461"><ele>506.5</ele><time>2026-04-10T10:54:29Z</time></trkpt><trkpt lat="44.214964013025494" lon="11.440128818703208"><ele>501.75</ele><time>2026-04-10T10:54:30Z</time></trkpt><trkpt lat="44.21498242015049" lon="11.439946356849774"><ele>497.0</ele><time>2026-04-10T10:54:31Z</time></trkpt><trkpt lat="44.21497135616942" lon="11.439761388068248"><ele>497.0</ele><time>2026-04-10T10:54:32Z</time></trkpt><trkpt lat="44.214974457518444" lon="11.439589899040808"><ele>497.0</ele><time>2026-04-10T10:54:33Z</time></trkpt><trkpt lat="44.21497099333486" lon="11.439428625351715"><ele>497.0</ele><time>2026-04-10T10:54:34Z</time></trkpt><trkpt lat="44.2149666625988" lon="11.439264147259472"><ele>497.0</ele><time>2026-04-10T10:54:35Z</time></trkpt><trkpt lat="44.21491155973042" lon="11.439103454283169"><ele>497.0</ele><time>2026-04-10T10:54:36Z</time></trkpt><trkpt lat="44.214847030577566" lon="11.438949606137257"><ele>497.0</ele><time>2026-04-10T10:54:37Z</time></trkpt><trkpt lat="44.21479159109713" lon="11.438791754396519"><ele>497.0</ele><time>2026-04-10T10:54:38Z</time></trkpt><trkpt lat="44.21477919919868" lon="11.43861519193513"><ele>497.0</ele><time>2026-04-10T10:54:39Z</time></trkpt><trkpt lat="44.214785368114086" lon="11.438427744909513"><ele>503.0</ele><time>2026-04-10T10:54:40Z</time></trkpt><trkpt lat="44.21479969632146" lon="11.438240771759315"><ele>509.0</ele><time>2026-04-10T10:54:41Z</time></trkpt><trkpt lat="44.2148076683419" lon="11.438057272496001"><ele>515.0</ele><time>2026-04-10T10:54:42Z</time></trkpt><trkpt lat="44.21480008528374" lon="11.437884216404086"><ele>521.0</ele><time>2026-04-10T10:54:43Z</time></trkpt><trkpt lat="44.214757813859286" lon="11.437702148649574"><ele>521.0</ele><time>2026-04-10T10:54:44Z</time></trkpt><trkpt lat="44.21468679066757" lon="11.437531697955638"><ele>521.0</ele><time>2026-04-10T10:54:45.001Z</time></trkpt><trkpt lat="44.214617566786686" lon="11.437368128407464"><ele>521.0</ele><time>2026-04-10T10:54:46.001Z</time></trkpt><trkpt lat="44.21455349246909" lon="11.437203852251095"><ele>521.0</ele><time>2026-04-10T10:54:47.001Z</time></trkpt><trkpt lat="44.2145092326917" lon="11.43703084581283"><ele>518.75</ele><time>2026-04-10T10:54:48.001Z</time></trkpt><trkpt lat="44.214500958731335" lon="11.436843183052423"><ele>516.5</ele><time>2026-04-10T10:54:49.001Z</time></trkpt><trkpt lat="44.214488207490355" lon="11.43664974732197"><ele>514.25</ele><time>2026-04-10T10:54:50.001Z</time></trkpt><trkpt lat="44.21449396573678" lon="11.436456894054205"><ele>512.0</ele><time>2026-04-10T10:54:51.001Z</time></trkpt><trkpt lat="44.214491877933945" lon="11.436272604618104"><ele>511.25</ele><time>2026-04-10T10:54:52.001Z</time></trkpt><trkpt lat="44.21448952675173" lon="11.436090066083663"><ele>510.5</ele><time>2026-04-10T10:54:53.001Z</time></trkpt><trkpt lat="44.214488193725465" lon="11.435910688024597"><ele>509.75</ele><time>2026-04-10T10:54:54.001Z</time></trkpt><trkpt lat="44.21447649134098" lon="11.435737256978605"><ele>509.0</ele><time>2026-04-10T10:54:55.001Z</time></trkpt><trkpt lat="44.21445908621337" lon="11.43556644880363"><ele>509.79999999999995</ele><time>2026-04-10T10:54:56.001Z</time></trkpt><trkpt lat="44.21441175306645" lon="11.435419783514234"><ele>510.59999999999997</ele><time>2026-04-10T10:54:57.001Z</time></trkpt><trkpt lat="44.214360427532235" lon="11.435289620358448"><ele>511.4</ele><time>2026-04-10T10:54:58.001Z</time></trkpt><trkpt lat="44.21437437599714" lon="11.435146598856758"><ele>512.1999999999999</ele><time>2026-04-10T10:54:59.001Z</time></trkpt><trkpt lat="44.21442979528099" lon="11.435033236021749"><ele>513.0</ele><time>2026-04-10T10:55:00.001Z</time></trkpt><trkpt lat="44.21450846591915" lon="11.434942195599449"><ele>513.0</ele><time>2026-04-10T10:55:01.001Z</time></trkpt><trkpt lat="44.21457079265401" lon="11.434848270531065"><ele>513.0</ele><time>2026-04-10T10:55:02.001Z</time></trkpt><trkpt lat="44.2146172490761" lon="11.43473373940923"><ele>513.0</ele><time>2026-04-10T10:55:03.001Z</time></trkpt><trkpt lat="44.21459622345603" lon="11.43457393389041"><ele>513.0</ele><time>2026-04-10T10:55:04.001Z</time></trkpt><trkpt lat="44.214577980227126" lon="11.434417159637512"><ele>513.0</ele><time>2026-04-10T10:55:05.001Z</time></trkpt><trkpt lat="44.2145819397226" lon="11.434256279917378"><ele>513.0</ele><time>2026-04-10T10:55:06.001Z</time></trkpt><trkpt lat="44.21457249319957" lon="11.434110642388536"><ele>513.0</ele><time>2026-04-10T10:55:07.001Z</time></trkpt><trkpt lat="44.21454845921942" lon="11.433979288407631"><ele>513.0</ele><time>2026-04-10T10:55:08.001Z</time></trkpt><trkpt lat="44.214519106502" lon="11.433867517092763"><ele>513.0</ele><time>2026-04-10T10:55:09.001Z</time></trkpt><trkpt lat="44.21446564206664" lon="11.433772297297342"><ele>513.0</ele><time>2026-04-10T10:55:10.001Z</time></trkpt><trkpt lat="44.214442526320774" lon="11.433634079567968"><ele>511.25</ele><time>2026-04-10T10:55:11.001Z</time></trkpt><trkpt lat="44.21432401684885" lon="11.433554058866282"><ele>509.5</ele><time>2026-04-10T10:55:12.001Z</time></trkpt><trkpt lat="44.21424146263098" lon="11.433433600630867"><ele>507.75</ele><time>2026-04-10T10:55:13.001Z</time></trkpt><trkpt lat="44.214159159478996" lon="11.433323498325041"><ele>506.0</ele><time>2026-04-10T10:55:14.001Z</time></trkpt><trkpt lat="44.214076649585635" lon="11.433218402387885"><ele>506.0</ele><time>2026-04-10T10:55:15.001Z</time></trkpt><trkpt lat="44.213988802705984" lon="11.433121090233705"><ele>506.0</ele><time>2026-04-10T10:55:16.001Z</time></trkpt><trkpt lat="44.213887788704774" lon="11.433053429005296"><ele>506.0</ele><time>2026-04-10T10:55:17.001Z</time></trkpt><trkpt lat="44.213790519757524" lon="11.432985050332936"><ele>506.0</ele><time>2026-04-10T10:55:18.001Z</time></trkpt><trkpt lat="44.21367123162492" lon="11.432945212953603"><ele>512.6</ele><time>2026-04-10T10:55:19.001Z</time></trkpt><trkpt lat="44.21355978342677" lon="11.432904113446288"><ele>519.2</ele><time>2026-04-10T10:55:20.001Z</time></trkpt><trkpt lat="44.21347764717126" lon="11.43285469935646"><ele>525.8</ele><time>2026-04-10T10:55:21.001Z</time></trkpt><trkpt lat="44.21341186251488" lon="11.43279963407717"><ele>532.4</ele><time>2026-04-10T10:55:22.001Z</time></trkpt><trkpt lat="44.21336889171395" lon="11.432723416939144"><ele>539.0</ele><time>2026-04-10T10:55:23.001Z</time></trkpt><trkpt lat="44.21343288396775" lon="11.432577744887322"><ele>539.0</ele><time>2026-04-10T10:55:25.001Z</time></trkpt><trkpt lat="44.21351146932067" lon="11.432564071901822"><ele>539.0</ele><time>2026-04-10T10:55:26.001Z</time></trkpt><trkpt lat="44.21359074620799" lon="11.432603341109283"><ele>539.0</ele><time>2026-04-10T10:55:27.001Z</time></trkpt><trkpt lat="44.21368817633642" lon="11.432640065866261"><ele>539.0</ele><time>2026-04-10T10:55:28.001Z</time></trkpt><trkpt lat="44.21379831237862" lon="11.432646626823452"><ele>539.0</ele><time>2026-04-10T10:55:29.001Z</time></trkpt><trkpt lat="44.213890259944456" lon="11.432612760226151"><ele>539.0</ele><time>2026-04-10T10:55:30.001Z</time></trkpt><trkpt lat="44.21395888344737" lon="11.432539164040715"><ele>539.0</ele><time>2026-04-10T10:55:31.001Z</time></trkpt><trkpt lat="44.213995672967265" lon="11.432431052373483"><ele>539.0</ele><time>2026-04-10T10:55:32.001Z</time></trkpt><trkpt lat="44.21403319742755" lon="11.432319077762216"><ele>539.0</ele><time>2026-04-10T10:55:33.001Z</time></trkpt><trkpt lat="44.213998410640464" lon="11.432170554297238"><ele>539.0</ele><time>2026-04-10T10:55:34.001Z</time></trkpt><trkpt lat="44.21397615546361" lon="11.432029341853013"><ele>540.6666666666666</ele><time>2026-04-10T10:55:35.001Z</time></trkpt><trkpt lat="44.21395961841257" lon="11.431901271005023"><ele>542.3333333333333</ele><time>2026-04-10T10:55:36.001Z</time></trkpt><trkpt lat="44.21394383039738" lon="11.43179259231828"><ele>544.0</ele><time>2026-04-10T10:55:37.001Z</time></trkpt><trkpt lat="44.21392178197675" lon="11.431682194124317"><ele>545.6666666666666</ele><time>2026-04-10T10:55:38.001Z</time></trkpt><trkpt lat="44.21388753732975" lon="11.431565364717503"><ele>547.3333333333334</ele><time>2026-04-10T10:55:39.001Z</time></trkpt><trkpt lat="44.2138263178084" lon="11.431470061373942"><ele>549.0</ele><time>2026-04-10T10:55:40.001Z</time></trkpt><trkpt lat="44.21377829565841" lon="11.431386742346154"><ele>548.2</ele><time>2026-04-10T10:55:41.001Z</time></trkpt><trkpt lat="44.21375031887747" lon="11.43129939389434"><ele>547.4</ele><time>2026-04-10T10:55:42.001Z</time></trkpt><trkpt lat="44.213735724410085" lon="11.431175891135183"><ele>546.6</ele><time>2026-04-10T10:55:43.001Z</time></trkpt><trkpt lat="44.21371275794165" lon="11.43102689320671"><ele>545.8</ele><time>2026-04-10T10:55:44.001Z</time></trkpt><trkpt lat="44.2136875416598" lon="11.430898673720371"><ele>545.0</ele><time>2026-04-10T10:55:45.001Z</time></trkpt><trkpt lat="44.21364964161215" lon="11.43078827627783"><ele>545.0</ele><time>2026-04-10T10:55:46.001Z</time></trkpt><trkpt lat="44.213588725596736" lon="11.430712045792248"><ele>545.0</ele><time>2026-04-10T10:55:47.001Z</time></trkpt><trkpt lat="44.21351189171061" lon="11.43064578201948"><ele>545.0</ele><time>2026-04-10T10:55:48.001Z</time></trkpt><trkpt lat="44.213433855469376" lon="11.430579386258714"><ele>545.0</ele><time>2026-04-10T10:55:49.001Z</time></trkpt><trkpt lat="44.21336634271813" lon="11.430518908717831"><ele>545.0</ele><time>2026-04-10T10:55:50.001Z</time></trkpt><trkpt lat="44.21330266469471" lon="11.430442117389914"><ele>545.0</ele><time>2026-04-10T10:55:51.001Z</time></trkpt><trkpt lat="44.213234849941585" lon="11.430335748318814"><ele>550.5</ele><time>2026-04-10T10:55:52.002Z</time></trkpt><trkpt lat="44.21315526013207" lon="11.43020738939933"><ele>556.0</ele><time>2026-04-10T10:55:53.002Z</time></trkpt><trkpt lat="44.213063940790775" lon="11.43008060791612"><ele>561.5</ele><time>2026-04-10T10:55:54.002Z</time></trkpt><trkpt lat="44.212948803456136" lon="11.42997430696417"><ele>567.0</ele><time>2026-04-10T10:55:55.002Z</time></trkpt><trkpt lat="44.21283818992498" lon="11.429866173956452"><ele>567.0</ele><time>2026-04-10T10:55:56.002Z</time></trkpt><trkpt lat="44.212734495062485" lon="11.429761392682273"><ele>567.0</ele><time>2026-04-10T10:55:57.002Z</time></trkpt><trkpt lat="44.21263480930566" lon="11.429657535731156"><ele>567.0</ele><time>2026-04-10T10:55:58.002Z</time></trkpt><trkpt lat="44.21253995349661" lon="11.429556302508301"><ele>567.0</ele><time>2026-04-10T10:55:59.002Z</time></trkpt><trkpt lat="44.21244855027265" lon="11.429452177476865"><ele>571.0</ele><time>2026-04-10T10:56:00.002Z</time></trkpt><trkpt lat="44.212362800871816" lon="11.429333426001213"><ele>575.0</ele><time>2026-04-10T10:56:01.002Z</time></trkpt><trkpt lat="44.21228424739837" lon="11.429192700680758"><ele>579.0</ele><time>2026-04-10T10:56:02.002Z</time></trkpt><trkpt lat="44.212188304349695" lon="11.429063552150136"><ele>583.0</ele><time>2026-04-10T10:56:03.002Z</time></trkpt><trkpt lat="44.21208406282365" lon="11.428958756703084"><ele>583.0</ele><time>2026-04-10T10:56:04.002Z</time></trkpt><trkpt lat="44.211991461890264" lon="11.428872533540494"><ele>583.0</ele><time>2026-04-10T10:56:05.002Z</time></trkpt><trkpt lat="44.21190726762206" lon="11.428789511520833"><ele>583.0</ele><time>2026-04-10T10:56:06.002Z</time></trkpt><trkpt lat="44.21183654591606" lon="11.428675339370233"><ele>583.0</ele><time>2026-04-10T10:56:07Z</time></trkpt><trkpt lat="44.211754151655455" lon="11.428532819865325"><ele>584.25</ele><time>2026-04-10T10:56:08Z</time></trkpt><trkpt lat="44.2116646647988" lon="11.428388047361917"><ele>585.5</ele><time>2026-04-10T10:56:09Z</time></trkpt><trkpt lat="44.21157097098564" lon="11.42823646925253"><ele>586.75</ele><time>2026-04-10T10:56:10Z</time></trkpt><trkpt lat="44.21147364062153" lon="11.428079007917319"><ele>588.0</ele><time>2026-04-10T10:56:11Z</time></trkpt><trkpt lat="44.21135404439216" lon="11.427951426879334"><ele>588.0</ele><time>2026-04-10T10:56:12Z</time></trkpt><trkpt lat="44.211263138702115" lon="11.427793739803363"><ele>588.0</ele><time>2026-04-10T10:56:13Z</time></trkpt><trkpt lat="44.21117527371053" lon="11.427635776825749"><ele>588.0</ele><time>2026-04-10T10:56:14Z</time></trkpt><trkpt lat="44.211096329414815" lon="11.427486764819868"><ele>588.0</ele><time>2026-04-10T10:56:15Z</time></trkpt><trkpt lat="44.21102202464253" lon="11.427325123007341"><ele>588.0</ele><time>2026-04-10T10:56:16Z</time></trkpt><trkpt lat="44.21094421414995" lon="11.42714805403496"><ele>588.0</ele><time>2026-04-10T10:56:17Z</time></trkpt><trkpt lat="44.2108580226912" lon="11.426975226971248"><ele>588.0</ele><time>2026-04-10T10:56:18Z</time></trkpt><trkpt lat="44.21076350089637" lon="11.426810230254883"><ele>590.5</ele><time>2026-04-10T10:56:19Z</time></trkpt><trkpt lat="44.21067107027072" lon="11.426653462048638"><ele>593.0</ele><time>2026-04-10T10:56:20Z</time></trkpt><trkpt lat="44.21058204550438" lon="11.426498517932524"><ele>595.5</ele><time>2026-04-10T10:56:21Z</time></trkpt><trkpt lat="44.21049431606531" lon="11.426344131690655"><ele>598.0</ele><time>2026-04-10T10:56:22Z</time></trkpt><trkpt lat="44.210410573189925" lon="11.42618940594962"><ele>590.75</ele><time>2026-04-10T10:56:23Z</time></trkpt><trkpt lat="44.21032326267306" lon="11.426032113906428"><ele>583.5</ele><time>2026-04-10T10:56:24Z</time></trkpt><trkpt lat="44.210227378106424" lon="11.425895631719806"><ele>576.25</ele><time>2026-04-10T10:56:25Z</time></trkpt><trkpt lat="44.21011240466216" lon="11.425793160196942"><ele>569.0</ele><time>2026-04-10T10:56:26Z</time></trkpt><trkpt lat="44.209986471164804" lon="11.42572594685545"><ele>569.0</ele><time>2026-04-10T10:56:27Z</time></trkpt><trkpt lat="44.209855363926444" lon="11.425682189664666"><ele>569.0</ele><time>2026-04-10T10:56:28Z</time></trkpt><trkpt lat="44.209730107145894" lon="11.425609098902433"><ele>569.0</ele><time>2026-04-10T10:56:29Z</time></trkpt><trkpt lat="44.20962679151242" lon="11.425495413475799"><ele>569.0</ele><time>2026-04-10T10:56:30Z</time></trkpt><trkpt lat="44.209547311531246" lon="11.425358434957506"><ele>567.25</ele><time>2026-04-10T10:56:31Z</time></trkpt><trkpt lat="44.20944781244294" lon="11.425227970823777"><ele>565.5</ele><time>2026-04-10T10:56:32Z</time></trkpt><trkpt lat="44.20933300661012" lon="11.425122693041411"><ele>563.75</ele><time>2026-04-10T10:56:33Z</time></trkpt><trkpt lat="44.20922539541123" lon="11.425028943187378"><ele>562.0</ele><time>2026-04-10T10:56:34Z</time></trkpt><trkpt lat="44.20913738400417" lon="11.424893268786509"><ele>562.0</ele><time>2026-04-10T10:56:35Z</time></trkpt><trkpt lat="44.20906255779559" lon="11.42472943773583"><ele>562.0</ele><time>2026-04-10T10:56:36Z</time></trkpt><trkpt lat="44.20899079220839" lon="11.424578983380227"><ele>562.0</ele><time>2026-04-10T10:56:37Z</time></trkpt><trkpt lat="44.2089210990381" lon="11.42445764397221"><ele>562.0</ele><time>2026-04-10T10:56:38Z</time></trkpt><trkpt lat="44.20885074863882" lon="11.424368310502464"><ele>564.8000000000001</ele><time>2026-04-10T10:56:39Z</time></trkpt><trkpt lat="44.20875664223788" lon="11.424312921467884"><ele>567.6</ele><time>2026-04-10T10:56:40Z</time></trkpt><trkpt lat="44.20864463017231" lon="11.424296115139708"><ele>570.4000000000001</ele><time>2026-04-10T10:56:41Z</time></trkpt><trkpt lat="44.20856008322273" lon="11.42427511933618"><ele>573.2</ele><time>2026-04-10T10:56:42Z</time></trkpt><trkpt lat="44.20849783717115" lon="11.42421110011419"><ele>576.0</ele><time>2026-04-10T10:56:43Z</time></trkpt><trkpt lat="44.20847758272241" lon="11.424099112653554"><ele>576.0</ele><time>2026-04-10T10:56:44Z</time></trkpt><trkpt lat="44.20849844764737" lon="11.423983362745854"><ele>576.0</ele><time>2026-04-10T10:56:45Z</time></trkpt><trkpt lat="44.20853579514358" lon="11.423842132181823"><ele>576.0</ele><time>2026-04-10T10:56:46Z</time></trkpt><trkpt lat="44.20854859582049" lon="11.423677547900926"><ele>576.0</ele><time>2026-04-10T10:56:47Z</time></trkpt><trkpt lat="44.208525027362164" lon="11.423504303972123"><ele>576.0</ele><time>2026-04-10T10:56:48Z</time></trkpt><trkpt lat="44.20847556365404" lon="11.423327228172164"><ele>576.0</ele><time>2026-04-10T10:56:49Z</time></trkpt><trkpt lat="44.2084117992042" lon="11.423137170192096"><ele>576.0</ele><time>2026-04-10T10:56:50Z</time></trkpt><trkpt lat="44.20835220864789" lon="11.422933374455983"><ele>576.0</ele><time>2026-04-10T10:56:51Z</time></trkpt><trkpt lat="44.20829150359625" lon="11.422723292955856"><ele>574.5</ele><time>2026-04-10T10:56:52Z</time></trkpt><trkpt lat="44.20823117320927" lon="11.422522904999973"><ele>573.0</ele><time>2026-04-10T10:56:53.001Z</time></trkpt><trkpt lat="44.20817583298942" lon="11.422340054920971"><ele>571.5</ele><time>2026-04-10T10:56:54.001Z</time></trkpt><trkpt lat="44.20811885231355" lon="11.422174840560535"><ele>570.0</ele><time>2026-04-10T10:56:55.001Z</time></trkpt><trkpt lat="44.208045495557876" lon="11.422021280772341"><ele>574.75</ele><time>2026-04-10T10:56:56.001Z</time></trkpt><trkpt lat="44.207946793512924" lon="11.421892746536694"><ele>579.5</ele><time>2026-04-10T10:56:57.001Z</time></trkpt><trkpt lat="44.20784302266585" lon="11.421780153268086"><ele>584.25</ele><time>2026-04-10T10:56:58.001Z</time></trkpt><trkpt lat="44.20775336020182" lon="11.421671318007416"><ele>589.0</ele><time>2026-04-10T10:56:59.001Z</time></trkpt><trkpt lat="44.207682119010705" lon="11.421551853608912"><ele>589.0</ele><time>2026-04-10T10:57:00.001Z</time></trkpt><trkpt lat="44.207641107359315" lon="11.421404104353089"><ele>589.0</ele><time>2026-04-10T10:57:01.001Z</time></trkpt><trkpt lat="44.20763717016403" lon="11.421235768957931"><ele>589.0</ele><time>2026-04-10T10:57:02.001Z</time></trkpt><trkpt lat="44.207644881475915" lon="11.421059533687538"><ele>589.0</ele><time>2026-04-10T10:57:03.001Z</time></trkpt><trkpt lat="44.207626342633795" lon="11.420876080636203"><ele>587.6666666666667</ele><time>2026-04-10T10:57:04.001Z</time></trkpt><trkpt lat="44.20755871548654" lon="11.420700022802698"><ele>586.3333333333334</ele><time>2026-04-10T10:57:05.001Z</time></trkpt><trkpt lat="44.20747707507044" lon="11.420520244243109"><ele>585.0</ele><time>2026-04-10T10:57:06.001Z</time></trkpt><trkpt lat="44.20739195971061" lon="11.420333765008412"><ele>597.6666666666666</ele><time>2026-04-10T10:57:07.001Z</time></trkpt><trkpt lat="44.20730481403402" lon="11.420148718376456"><ele>610.3333333333333</ele><time>2026-04-10T10:57:08.001Z</time></trkpt><trkpt lat="44.20719648295505" lon="11.419976670291485"><ele>623.0</ele><time>2026-04-10T10:57:09.001Z</time></trkpt><trkpt lat="44.20707863111585" lon="11.419806105167371"><ele>617.6666666666666</ele><time>2026-04-10T10:57:10.001Z</time></trkpt><trkpt lat="44.20695859976857" lon="11.419630012632991"><ele>612.3333333333334</ele><time>2026-04-10T10:57:11.001Z</time></trkpt><trkpt lat="44.2068325429069" lon="11.419449677815251"><ele>607.0</ele><time>2026-04-10T10:57:12.001Z</time></trkpt><trkpt lat="44.20669701655506" lon="11.419265067273818"><ele>607.0</ele><time>2026-04-10T10:57:13.001Z</time></trkpt><trkpt lat="44.20657017083503" lon="11.419080336293996"><ele>607.0</ele><time>2026-04-10T10:57:14.001Z</time></trkpt><trkpt lat="44.206448478113074" lon="11.41889835255706"><ele>607.0</ele><time>2026-04-10T10:57:15.001Z</time></trkpt><trkpt lat="44.20632892706804" lon="11.418716898148467"><ele>611.6666666666667</ele><time>2026-04-10T10:57:16.001Z</time></trkpt><trkpt lat="44.20621763517094" lon="11.418550666661972"><ele>616.3333333333334</ele><time>2026-04-10T10:57:17.001Z</time></trkpt><trkpt lat="44.20610627970005" lon="11.41839222491763"><ele>621.0</ele><time>2026-04-10T10:57:18.001Z</time></trkpt><trkpt lat="44.2059847951231" lon="11.418236405990035"><ele>621.0</ele><time>2026-04-10T10:57:19.001Z</time></trkpt><trkpt lat="44.20584967364218" lon="11.418088660036924"><ele>621.0</ele><time>2026-04-10T10:57:20.001Z</time></trkpt><trkpt lat="44.205706712278975" lon="11.417951049773729"><ele>621.0</ele><time>2026-04-10T10:57:21.001Z</time></trkpt><trkpt lat="44.20556367390488" lon="11.417814769967213"><ele>624.6666666666666</ele><time>2026-04-10T10:57:22.001Z</time></trkpt><trkpt lat="44.2054223861962" lon="11.41767236115606"><ele>628.3333333333333</ele><time>2026-04-10T10:57:23.001Z</time></trkpt><trkpt lat="44.205303967419695" lon="11.417499362242728"><ele>632.0</ele><time>2026-04-10T10:57:24.001Z</time></trkpt><trkpt lat="44.205166414339494" lon="11.417347426671894"><ele>632.0</ele><time>2026-04-10T10:57:25.001Z</time></trkpt><trkpt lat="44.20503953057851" lon="11.41717946971478"><ele>632.0</ele><time>2026-04-10T10:57:26.001Z</time></trkpt><trkpt lat="44.20490108685081" lon="11.417012792433782"><ele>632.0</ele><time>2026-04-10T10:57:27.001Z</time></trkpt><trkpt lat="44.20476538921763" lon="11.416822444755047"><ele>637.3333333333333</ele><time>2026-04-10T10:57:28.001Z</time></trkpt><trkpt lat="44.2045934514019" lon="11.416680131719112"><ele>642.6666666666666</ele><time>2026-04-10T10:57:29.001Z</time></trkpt><trkpt lat="44.204429254903225" lon="11.416521158621316"><ele>648.0</ele><time>2026-04-10T10:57:30.001Z</time></trkpt><trkpt lat="44.20426813663854" lon="11.416370625772336"><ele>650.0</ele><time>2026-04-10T10:57:31.001Z</time></trkpt><trkpt lat="44.20411624995633" lon="11.416232411344723"><ele>652.0</ele><time>2026-04-10T10:57:32.001Z</time></trkpt><trkpt lat="44.20397368030036" lon="11.416100203076734"><ele>654.0</ele><time>2026-04-10T10:57:33.001Z</time></trkpt><trkpt lat="44.20384052507395" lon="11.415976939284056"><ele>654.0</ele><time>2026-04-10T10:57:34.001Z</time></trkpt><trkpt lat="44.2037122828679" lon="11.415868213592406"><ele>654.0</ele><time>2026-04-10T10:57:35.001Z</time></trkpt><trkpt lat="44.20358874695155" lon="11.415779999877453"><ele>654.0</ele><time>2026-04-10T10:57:36.001Z</time></trkpt><trkpt lat="44.20348342060529" lon="11.415685977564166"><ele>654.0</ele><time>2026-04-10T10:57:37.001Z</time></trkpt><trkpt lat="44.20337385216971" lon="11.415595711885675"><ele>654.0</ele><time>2026-04-10T10:57:38.001Z</time></trkpt><trkpt lat="44.203265572630926" lon="11.415492278469015"><ele>654.0</ele><time>2026-04-10T10:57:39.001Z</time></trkpt><trkpt lat="44.20315405480029" lon="11.415388372222125"><ele>654.0</ele><time>2026-04-10T10:57:40.001Z</time></trkpt><trkpt lat="44.203079675819374" lon="11.41525387991835"><ele>654.0</ele><time>2026-04-10T10:57:41.001Z</time></trkpt><trkpt lat="44.20297138683803" lon="11.415179694373801"><ele>654.5</ele><time>2026-04-10T10:57:42.001Z</time></trkpt><trkpt lat="44.20284233301498" lon="11.41511251898297"><ele>655.0</ele><time>2026-04-10T10:57:43.001Z</time></trkpt><trkpt lat="44.202700455895496" lon="11.41508111642816"><ele>655.5</ele><time>2026-04-10T10:57:44.001Z</time></trkpt><trkpt lat="44.202549353742384" lon="11.415030322434525"><ele>656.0</ele><time>2026-04-10T10:57:45.001Z</time></trkpt><trkpt lat="44.20239316364756" lon="11.414948306896795"><ele>659.6666666666666</ele><time>2026-04-10T10:57:46.001Z</time></trkpt><trkpt lat="44.20222169715207" lon="11.414900613610525"><ele>663.3333333333334</ele><time>2026-04-10T10:57:47.001Z</time></trkpt><trkpt lat="44.20205237078939" lon="11.414829633208868"><ele>667.0</ele><time>2026-04-10T10:57:48.001Z</time></trkpt><trkpt lat="44.201879855132304" lon="11.414763956094033"><ele>667.0</ele><time>2026-04-10T10:57:49.001Z</time></trkpt><trkpt lat="44.20171660157368" lon="11.414710441521944"><ele>667.0</ele><time>2026-04-10T10:57:50.001Z</time></trkpt><trkpt lat="44.201559445613995" lon="11.414670241294694"><ele>667.0</ele><time>2026-04-10T10:57:51.001Z</time></trkpt><trkpt lat="44.201401082690204" lon="11.41466217149135"><ele>669.0</ele><time>2026-04-10T10:57:52.001Z</time></trkpt><trkpt lat="44.20123946931721" lon="11.4146963187352"><ele>671.0</ele><time>2026-04-10T10:57:53.001Z</time></trkpt><trkpt lat="44.20108497644088" lon="11.414761092042427"><ele>673.0</ele><time>2026-04-10T10:57:54.001Z</time></trkpt><trkpt lat="44.200950432289574" lon="11.414839009673356"><ele>673.0</ele><time>2026-04-10T10:57:55.001Z</time></trkpt><trkpt lat="44.200815493538094" lon="11.41487320195958"><ele>673.0</ele><time>2026-04-10T10:57:56.001Z</time></trkpt><trkpt lat="44.20069738210336" lon="11.414892231457529"><ele>673.0</ele><time>2026-04-10T10:57:57.001Z</time></trkpt><trkpt lat="44.20057298028313" lon="11.414829641071655"><ele>673.0</ele><time>2026-04-10T10:57:58.002Z</time></trkpt><trkpt lat="44.200446317350945" lon="11.414733954967472"><ele>673.6666666666667</ele><time>2026-04-10T10:57:59.002Z</time></trkpt><trkpt lat="44.20031088192162" lon="11.414633499468838"><ele>674.3333333333334</ele><time>2026-04-10T10:58:00.002Z</time></trkpt><trkpt lat="44.200164762513886" lon="11.414528740132104"><ele>675.0</ele><time>2026-04-10T10:58:01.002Z</time></trkpt><trkpt lat="44.20002116452883" lon="11.414427635633098"><ele>675.0</ele><time>2026-04-10T10:58:02.002Z</time></trkpt><trkpt lat="44.19987834986471" lon="11.414326115545661"><ele>675.0</ele><time>2026-04-10T10:58:03.002Z</time></trkpt><trkpt lat="44.19973864669202" lon="11.41422156447966"><ele>675.0</ele><time>2026-04-10T10:58:04.002Z</time></trkpt><trkpt lat="44.199606576434" lon="11.414104179207413"><ele>681.0</ele><time>2026-04-10T10:58:05.002Z</time></trkpt><trkpt lat="44.19948338740039" lon="11.413977981809623"><ele>687.0</ele><time>2026-04-10T10:58:06.002Z</time></trkpt><trkpt lat="44.19937390196262" lon="11.413838245700738"><ele>693.0</ele><time>2026-04-10T10:58:07.002Z</time></trkpt><trkpt lat="44.19926922550409" lon="11.413685766823894"><ele>693.0</ele><time>2026-04-10T10:58:08.002Z</time></trkpt><trkpt lat="44.19919238396251" lon="11.413498815394737"><ele>693.0</ele><time>2026-04-10T10:58:09.002Z</time></trkpt><trkpt lat="44.199102752727086" lon="11.413314375635549"><ele>693.0</ele><time>2026-04-10T10:58:10.002Z</time></trkpt><trkpt lat="44.199025547351376" lon="11.413122950376804"><ele>701.3333333333334</ele><time>2026-04-10T10:58:11.002Z</time></trkpt><trkpt lat="44.198983974268174" lon="11.41291442911143"><ele>709.6666666666667</ele><time>2026-04-10T10:58:12.002Z</time></trkpt><trkpt lat="44.198960686779266" lon="11.412695324617935"><ele>718.0</ele><time>2026-04-10T10:58:13.001Z</time></trkpt><trkpt lat="44.198926645500066" lon="11.412470921584173"><ele>718.0</ele><time>2026-04-10T10:58:14.001Z</time></trkpt><trkpt lat="44.19889290479077" lon="11.412240380554868"><ele>718.0</ele><time>2026-04-10T10:58:15.001Z</time></trkpt><trkpt lat="44.19881655108615" lon="11.412014859319342"><ele>718.0</ele><time>2026-04-10T10:58:16.001Z</time></trkpt><trkpt lat="44.19871827797102" lon="11.411791711115221"><ele>715.3333333333334</ele><time>2026-04-10T10:58:17.001Z</time></trkpt><trkpt lat="44.198626320833746" lon="11.411563482128143"><ele>712.6666666666666</ele><time>2026-04-10T10:58:18.001Z</time></trkpt><trkpt lat="44.19854526204732" lon="11.41132278595943"><ele>710.0</ele><time>2026-04-10T10:58:19Z</time></trkpt><trkpt lat="44.19846589629959" lon="11.411070111864932"><ele>709.6666666666666</ele><time>2026-04-10T10:58:20Z</time></trkpt><trkpt lat="44.19839398741293" lon="11.410826780320546"><ele>709.3333333333334</ele><time>2026-04-10T10:58:21Z</time></trkpt><trkpt lat="44.198331827019125" lon="11.410608609664655"><ele>709.0</ele><time>2026-04-10T10:58:22Z</time></trkpt><trkpt lat="44.198276426213205" lon="11.410407401824518"><ele>711.5</ele><time>2026-04-10T10:58:23Z</time></trkpt><trkpt lat="44.198249495421955" lon="11.410201331535228"><ele>714.0</ele><time>2026-04-10T10:58:24Z</time></trkpt><trkpt lat="44.19825613399006" lon="11.410010375981727"><ele>716.5</ele><time>2026-04-10T10:58:25Z</time></trkpt><trkpt lat="44.19830398857328" lon="11.409821953319698"><ele>719.0</ele><time>2026-04-10T10:58:26Z</time></trkpt><trkpt lat="44.19835108461696" lon="11.40960664281395"><ele>720.6666666666666</ele><time>2026-04-10T10:58:27Z</time></trkpt><trkpt lat="44.19838841160095" lon="11.409375524067139"><ele>722.3333333333334</ele><time>2026-04-10T10:58:28Z</time></trkpt><trkpt lat="44.19845303227133" lon="11.40914050814619"><ele>724.0</ele><time>2026-04-10T10:58:29Z</time></trkpt><trkpt lat="44.19846977813065" lon="11.408888549162665"><ele>726.3333333333334</ele><time>2026-04-10T10:58:30Z</time></trkpt><trkpt lat="44.19851178309998" lon="11.408628056164293"><ele>728.6666666666666</ele><time>2026-04-10T10:58:31Z</time></trkpt><trkpt lat="44.19853532729543" lon="11.40835825346093"><ele>731.0</ele><time>2026-04-10T10:58:32Z</time></trkpt><trkpt lat="44.19855921538647" lon="11.408085256661424"><ele>733.6666666666666</ele><time>2026-04-10T10:58:33Z</time></trkpt><trkpt lat="44.19858268437881" lon="11.407818479911759"><ele>736.3333333333334</ele><time>2026-04-10T10:58:34Z</time></trkpt><trkpt lat="44.19860479338154" lon="11.407584939528029"><ele>739.0</ele><time>2026-04-10T10:58:35Z</time></trkpt><trkpt lat="44.198598548406366" lon="11.407350317114938"><ele>741.3333333333334</ele><time>2026-04-10T10:58:36Z</time></trkpt><trkpt lat="44.19859545957869" lon="11.407108762885334"><ele>743.6666666666666</ele><time>2026-04-10T10:58:37Z</time></trkpt><trkpt lat="44.19858911725888" lon="11.406856551895746"><ele>746.0</ele><time>2026-04-10T10:58:38Z</time></trkpt><trkpt lat="44.19856559877824" lon="11.40660817661726"><ele>746.0</ele><time>2026-04-10T10:58:39Z</time></trkpt><trkpt lat="44.19854877432487" lon="11.406371676696924"><ele>746.0</ele><time>2026-04-10T10:58:40Z</time></trkpt><trkpt lat="44.19855729267414" lon="11.4061540438422"><ele>746.0</ele><time>2026-04-10T10:58:41Z</time></trkpt><trkpt lat="44.19859190375383" lon="11.405943555846411"><ele>748.0</ele><time>2026-04-10T10:58:42Z</time></trkpt><trkpt lat="44.19867374152295" lon="11.405738877798955"><ele>750.0</ele><time>2026-04-10T10:58:43.001Z</time></trkpt><trkpt lat="44.198750878191234" lon="11.405508673079295"><ele>752.0</ele><time>2026-04-10T10:58:44.001Z</time></trkpt><trkpt lat="44.198830516199415" lon="11.405269561813075"><ele>753.3333333333333</ele><time>2026-04-10T10:58:45.001Z</time></trkpt><trkpt lat="44.198909792713536" lon="11.405031535942742"><ele>754.6666666666666</ele><time>2026-04-10T10:58:46.001Z</time></trkpt><trkpt lat="44.19898266147994" lon="11.404820349369032"><ele>756.0</ele><time>2026-04-10T10:58:47.001Z</time></trkpt><trkpt lat="44.19905922147787" lon="11.404625036885248"><ele>758.3333333333334</ele><time>2026-04-10T10:58:48.001Z</time></trkpt><trkpt lat="44.199155526562286" lon="11.404443348302829"><ele>760.6666666666667</ele><time>2026-04-10T10:58:49.001Z</time></trkpt><trkpt lat="44.199274568242494" lon="11.404285400456297"><ele>763.0</ele><time>2026-04-10T10:58:50.001Z</time></trkpt><trkpt lat="44.199418935962775" lon="11.404186119513623"><ele>763.0</ele><time>2026-04-10T10:58:51.001Z</time></trkpt><trkpt lat="44.1995858077565" lon="11.404122072063352"><ele>763.0</ele><time>2026-04-10T10:58:52.001Z</time></trkpt><trkpt lat="44.19976103641368" lon="11.404092922545157"><ele>763.0</ele><time>2026-04-10T10:58:53.001Z</time></trkpt><trkpt lat="44.1999258011946" lon="11.404060900346552"><ele>764.3333333333334</ele><time>2026-04-10T10:58:54.001Z</time></trkpt><trkpt lat="44.200076793350874" lon="11.404053470062081"><ele>765.6666666666666</ele><time>2026-04-10T10:58:55.001Z</time></trkpt><trkpt lat="44.200228960958846" lon="11.404018437579404"><ele>767.0</ele><time>2026-04-10T10:58:56.001Z</time></trkpt><trkpt lat="44.200376957678756" lon="11.403930642880882"><ele>769.6666666666666</ele><time>2026-04-10T10:58:57.001Z</time></trkpt><trkpt lat="44.20051124841504" lon="11.403777456715963"><ele>772.3333333333333</ele><time>2026-04-10T10:58:58.001Z</time></trkpt><trkpt lat="44.20062376385963" lon="11.403584467735552"><ele>775.0</ele><time>2026-04-10T10:58:59.001Z</time></trkpt><trkpt lat="44.200752553706195" lon="11.403409957967735"><ele>775.0</ele><time>2026-04-10T10:59:00.001Z</time></trkpt><trkpt lat="44.20085038015408" lon="11.403235939615582"><ele>775.0</ele><time>2026-04-10T10:59:01.001Z</time></trkpt><trkpt lat="44.20094685702818" lon="11.403027084686572"><ele>775.0</ele><time>2026-04-10T10:59:02.001Z</time></trkpt><trkpt lat="44.201026823610576" lon="11.402799589516922"><ele>779.0</ele><time>2026-04-10T10:59:03.001Z</time></trkpt><trkpt lat="44.20109071662403" lon="11.402556262936766"><ele>783.0</ele><time>2026-04-10T10:59:04.001Z</time></trkpt><trkpt lat="44.20114890079837" lon="11.402305546279687"><ele>787.0</ele><time>2026-04-10T10:59:05.001Z</time></trkpt><trkpt lat="44.201206112132" lon="11.402051484802698"><ele>789.6666666666666</ele><time>2026-04-10T10:59:06.001Z</time></trkpt><trkpt lat="44.2012632222354" lon="11.401796548289163"><ele>792.3333333333333</ele><time>2026-04-10T10:59:07.001Z</time></trkpt><trkpt lat="44.201319955444475" lon="11.401536996882724"><ele>795.0</ele><time>2026-04-10T10:59:08.001Z</time></trkpt><trkpt lat="44.201370275372625" lon="11.4012739589029"><ele>795.6666666666667</ele><time>2026-04-10T10:59:09.001Z</time></trkpt><trkpt lat="44.201396339987085" lon="11.400998452485052"><ele>796.3333333333334</ele><time>2026-04-10T10:59:10.001Z</time></trkpt><trkpt lat="44.20141796876579" lon="11.400730973629278"><ele>797.0</ele><time>2026-04-10T10:59:11.001Z</time></trkpt><trkpt lat="44.201450113610505" lon="11.400487672852933"><ele>798.0</ele><time>2026-04-10T10:59:12.001Z</time></trkpt><trkpt lat="44.20146837893688" lon="11.400252062569418"><ele>799.0</ele><time>2026-04-10T10:59:13.001Z</time></trkpt><trkpt lat="44.20148085874448" lon="11.400036139445632"><ele>800.0</ele><time>2026-04-10T10:59:14.001Z</time></trkpt><trkpt lat="44.20146568206856" lon="11.399830768156518"><ele>801.75</ele><time>2026-04-10T10:59:15.001Z</time></trkpt><trkpt lat="44.20145845272005" lon="11.399630825341035"><ele>803.5</ele><time>2026-04-10T10:59:16.001Z</time></trkpt><trkpt lat="44.20136596219815" lon="11.39947567447652"><ele>805.25</ele><time>2026-04-10T10:59:17.001Z</time></trkpt><trkpt lat="44.201253071624706" lon="11.399347007362017"><ele>807.0</ele><time>2026-04-10T10:59:18.001Z</time></trkpt><trkpt lat="44.20111833056858" lon="11.399244553439035"><ele>807.0</ele><time>2026-04-10T10:59:19.001Z</time></trkpt><trkpt lat="44.200978695263274" lon="11.399102087195141"><ele>807.0</ele><time>2026-04-10T10:59:20.001Z</time></trkpt><trkpt lat="44.20084652057801" lon="11.398983493588132"><ele>807.0</ele><time>2026-04-10T10:59:21.001Z</time></trkpt><trkpt lat="44.200724905247064" lon="11.398845419985053"><ele>806.0</ele><time>2026-04-10T10:59:22.001Z</time></trkpt><trkpt lat="44.200619999277926" lon="11.398667558212514"><ele>805.0</ele><time>2026-04-10T10:59:23.001Z</time></trkpt><trkpt lat="44.200518646507454" lon="11.398462074170189"><ele>804.0</ele><time>2026-04-10T10:59:24.001Z</time></trkpt><trkpt lat="44.20041789699361" lon="11.398241566162818"><ele>804.0</ele><time>2026-04-10T10:59:25.001Z</time></trkpt><trkpt lat="44.200301264165006" lon="11.398031523171067"><ele>804.0</ele><time>2026-04-10T10:59:26.001Z</time></trkpt><trkpt lat="44.200211740045674" lon="11.397826891958207"><ele>804.0</ele><time>2026-04-10T10:59:27.001Z</time></trkpt><trkpt lat="44.20013060709269" lon="11.39763965878016"><ele>806.5</ele><time>2026-04-10T10:59:28.001Z</time></trkpt><trkpt lat="44.200100657281915" lon="11.397457852303775"><ele>809.0</ele><time>2026-04-10T10:59:29.001Z</time></trkpt><trkpt lat="44.20009699215831" lon="11.397287399489315"><ele>811.5</ele><time>2026-04-10T10:59:30.001Z</time></trkpt><trkpt lat="44.20011647156527" lon="11.397126154864283"><ele>814.0</ele><time>2026-04-10T10:59:31.001Z</time></trkpt><trkpt lat="44.20021436774418" lon="11.39699984386846"><ele>814.0</ele><time>2026-04-10T10:59:32.001Z</time></trkpt><trkpt lat="44.200318906317335" lon="11.396866845260766"><ele>814.0</ele><time>2026-04-10T10:59:33.001Z</time></trkpt><trkpt lat="44.20043637132503" lon="11.396714318569433"><ele>814.0</ele><time>2026-04-10T10:59:34.001Z</time></trkpt><trkpt lat="44.20057220048888" lon="11.396568784280495"><ele>817.0</ele><time>2026-04-10T10:59:35.001Z</time></trkpt><trkpt lat="44.20072690042601" lon="11.396436330174796"><ele>820.0</ele><time>2026-04-10T10:59:36.001Z</time></trkpt><trkpt lat="44.20089905601208" lon="11.3963463930845"><ele>823.0</ele><time>2026-04-10T10:59:37.001Z</time></trkpt><trkpt lat="44.20105869408249" lon="11.39622971917613"><ele>823.0</ele><time>2026-04-10T10:59:38.001Z</time></trkpt><trkpt lat="44.20121433193623" lon="11.396131987960834"><ele>823.0</ele><time>2026-04-10T10:59:39.001Z</time></trkpt><trkpt lat="44.20134738006142" lon="11.395995337051392"><ele>823.0</ele><time>2026-04-10T10:59:40.001Z</time></trkpt><trkpt lat="44.20144205583051" lon="11.395816809619907"><ele>826.3333333333333</ele><time>2026-04-10T10:59:41.001Z</time></trkpt><trkpt lat="44.20152545571825" lon="11.39561307798761"><ele>829.6666666666667</ele><time>2026-04-10T10:59:42.001Z</time></trkpt><trkpt lat="44.20162536810098" lon="11.395419788143778"><ele>833.0</ele><time>2026-04-10T10:59:43.001Z</time></trkpt><trkpt lat="44.201713998800756" lon="11.39522262953871"><ele>833.0</ele><time>2026-04-10T10:59:44.001Z</time></trkpt><trkpt lat="44.20181435634199" lon="11.395037673890378"><ele>833.0</ele><time>2026-04-10T10:59:45.001Z</time></trkpt><trkpt lat="44.20194378463134" lon="11.394867481020361"><ele>833.0</ele><time>2026-04-10T10:59:46.001Z</time></trkpt><trkpt lat="44.2020647874249" lon="11.394673037642976"><ele>830.6666666666667</ele><time>2026-04-10T10:59:47.001Z</time></trkpt><trkpt lat="44.20219377693982" lon="11.394478850221457"><ele>828.3333333333333</ele><time>2026-04-10T10:59:48.001Z</time></trkpt><trkpt lat="44.202289173207774" lon="11.394253972606926"><ele>826.0</ele><time>2026-04-10T10:59:49.001Z</time></trkpt><trkpt lat="44.202358057880886" lon="11.394025718664187"><ele>832.6666666666666</ele><time>2026-04-10T10:59:50.001Z</time></trkpt><trkpt lat="44.202409306294754" lon="11.393802841310713"><ele>839.3333333333333</ele><time>2026-04-10T10:59:51.001Z</time></trkpt><trkpt lat="44.202452543886984" lon="11.393593136583156"><ele>846.0</ele><time>2026-04-10T10:59:52.001Z</time></trkpt><trkpt lat="44.20247673879149" lon="11.393386868406209"><ele>846.0</ele><time>2026-04-10T10:59:53.001Z</time></trkpt><trkpt lat="44.20245150877915" lon="11.393188529225512"><ele>846.0</ele><time>2026-04-10T10:59:54.001Z</time></trkpt><trkpt lat="44.202386404584715" lon="11.393024305640706"><ele>846.0</ele><time>2026-04-10T10:59:55.002Z</time></trkpt><trkpt lat="44.20229256362606" lon="11.392867950135779"><ele>846.0</ele><time>2026-04-10T10:59:56.002Z</time></trkpt><trkpt lat="44.20219516070137" lon="11.392692598290573"><ele>845.3333333333333</ele><time>2026-04-10T10:59:57.002Z</time></trkpt><trkpt lat="44.20213827758177" lon="11.392473568293207"><ele>844.6666666666666</ele><time>2026-04-10T10:59:58.002Z</time></trkpt><trkpt lat="44.20209514581856" lon="11.392228436552877"><ele>844.0</ele><time>2026-04-10T10:59:59.002Z</time></trkpt><trkpt lat="44.20203975649963" lon="11.391968874984794"><ele>844.0</ele><time>2026-04-10T11:00:00.002Z</time></trkpt><trkpt lat="44.20200642013402" lon="11.391734240956175"><ele>844.0</ele><time>2026-04-10T11:00:01.002Z</time></trkpt><trkpt lat="44.201977365183346" lon="11.391519294957016"><ele>844.0</ele><time>2026-04-10T11:00:02.002Z</time></trkpt><trkpt lat="44.20197037623342" lon="11.391301830050178"><ele>845.6666666666666</ele><time>2026-04-10T11:00:03.002Z</time></trkpt><trkpt lat="44.20201655928302" lon="11.391081633309753"><ele>847.3333333333333</ele><time>2026-04-10T11:00:04.002Z</time></trkpt><trkpt lat="44.202077785275854" lon="11.390847181007194"><ele>849.0</ele><time>2026-04-10T11:00:05.002Z</time></trkpt><trkpt lat="44.202131140620104" lon="11.390594974447023"><ele>849.0</ele><time>2026-04-10T11:00:06.002Z</time></trkpt><trkpt lat="44.20220102867643" lon="11.390352883483803"><ele>849.0</ele><time>2026-04-10T11:00:07.002Z</time></trkpt><trkpt lat="44.20226010348943" lon="11.39012134271592"><ele>849.0</ele><time>2026-04-10T11:00:08.002Z</time></trkpt><trkpt lat="44.20230039293312" lon="11.389897863275154"><ele>849.0</ele><time>2026-04-10T11:00:09.002Z</time></trkpt><trkpt lat="44.20229311670268" lon="11.38968073579593"><ele>849.0</ele><time>2026-04-10T11:00:10.002Z</time></trkpt><trkpt lat="44.20224568380581" lon="11.389472672119474"><ele>849.0</ele><time>2026-04-10T11:00:11.002Z</time></trkpt><trkpt lat="44.20215595085039" lon="11.389281517665683"><ele>851.3333333333333</ele><time>2026-04-10T11:00:12.002Z</time></trkpt><trkpt lat="44.20207024608563" lon="11.389085890553325"><ele>853.6666666666666</ele><time>2026-04-10T11:00:13.002Z</time></trkpt><trkpt lat="44.20200564646076" lon="11.388852922364213"><ele>856.0</ele><time>2026-04-10T11:00:14.002Z</time></trkpt><trkpt lat="44.201951111191256" lon="11.38859254581603"><ele>859.0</ele><time>2026-04-10T11:00:15.002Z</time></trkpt><trkpt lat="44.20190267589306" lon="11.388331163675765"><ele>862.0</ele><time>2026-04-10T11:00:16.002Z</time></trkpt><trkpt lat="44.20185864375769" lon="11.388091253233899"><ele>865.0</ele><time>2026-04-10T11:00:17.002Z</time></trkpt><trkpt lat="44.20179483009188" lon="11.387863555967222"><ele>866.0</ele><time>2026-04-10T11:00:18.002Z</time></trkpt><trkpt lat="44.20169029500774" lon="11.387672604913572"><ele>867.0</ele><time>2026-04-10T11:00:19.001Z</time></trkpt><trkpt lat="44.20155338454588" lon="11.387504746836619"><ele>868.0</ele><time>2026-04-10T11:00:20.001Z</time></trkpt><trkpt lat="44.201406432278986" lon="11.387346237320937"><ele>868.0</ele><time>2026-04-10T11:00:21.001Z</time></trkpt><trkpt lat="44.20126649631451" lon="11.387191936808929"><ele>868.0</ele><time>2026-04-10T11:00:22.001Z</time></trkpt><trkpt lat="44.201135485668175" lon="11.38705239627173"><ele>868.0</ele><time>2026-04-10T11:00:23.001Z</time></trkpt><trkpt lat="44.20100832808442" lon="11.386924096455024"><ele>868.25</ele><time>2026-04-10T11:00:24.001Z</time></trkpt><trkpt lat="44.20088526491437" lon="11.386825400402934"><ele>868.5</ele><time>2026-04-10T11:00:25.001Z</time></trkpt><trkpt lat="44.20075959609341" lon="11.386769362037844"><ele>868.75</ele><time>2026-04-10T11:00:26.001Z</time></trkpt><trkpt lat="44.200631741649566" lon="11.386752310441675"><ele>869.0</ele><time>2026-04-10T11:00:27.001Z</time></trkpt><trkpt lat="44.200507446537664" lon="11.386763874630535"><ele>869.0</ele><time>2026-04-10T11:00:28.001Z</time></trkpt><trkpt lat="44.200391230963895" lon="11.386781931462284"><ele>869.0000000000001</ele><time>2026-04-10T11:00:29.001Z</time></trkpt><trkpt lat="44.20027880275577" lon="11.386796249915646"><ele>869.0000000000001</ele><time>2026-04-10T11:00:30.001Z</time></trkpt><trkpt lat="44.200176669515656" lon="11.386779066359598"><ele>869.0</ele><time>2026-04-10T11:00:31.001Z</time></trkpt><trkpt lat="44.2000876647132" lon="11.38672036797869"><ele>869.0</ele><time>2026-04-10T11:00:32.001Z</time></trkpt><trkpt lat="44.200009506018624" lon="11.386641584446833"><ele>869.0</ele><time>2026-04-10T11:00:33.001Z</time></trkpt><trkpt lat="44.1999436584449" lon="11.386545294998585"><ele>869.0000000000001</ele><time>2026-04-10T11:00:34.001Z</time></trkpt><trkpt lat="44.199885020211106" lon="11.386429959535212"><ele>869.0000000000001</ele><time>2026-04-10T11:00:35.001Z</time></trkpt><trkpt lat="44.19983015358701" lon="11.386314630725327"><ele>869.0</ele><time>2026-04-10T11:00:36.001Z</time></trkpt><trkpt lat="44.19978592407728" lon="11.386206703995992"><ele>869.0</ele><time>2026-04-10T11:00:37.001Z</time></trkpt><trkpt lat="44.19975441329978" lon="11.386095858685279"><ele>868.6</ele><time>2026-04-10T11:00:38.001Z</time></trkpt><trkpt lat="44.199728423913406" lon="11.385981775111969"><ele>868.2</ele><time>2026-04-10T11:00:39.001Z</time></trkpt><trkpt lat="44.19970686427944" lon="11.385859764687886"><ele>867.8000000000001</ele><time>2026-04-10T11:00:40.001Z</time></trkpt><trkpt lat="44.1996874551157" lon="11.385733047183345"><ele>867.4000000000001</ele><time>2026-04-10T11:00:41.001Z</time></trkpt><trkpt lat="44.19966618700273" lon="11.385604168619633"><ele>867.0</ele><time>2026-04-10T11:00:42.001Z</time></trkpt><trkpt lat="44.19964427290022" lon="11.385484590469742"><ele>867.0</ele><time>2026-04-10T11:00:43.001Z</time></trkpt><trkpt lat="44.19962259371949" lon="11.385376778724478"><ele>867.0</ele><time>2026-04-10T11:00:44.001Z</time></trkpt><trkpt lat="44.199601672585" lon="11.385290553590337"><ele>867.0</ele><time>2026-04-10T11:00:45.001Z</time></trkpt><trkpt lat="44.19956813166365" lon="11.385176813753988"><ele>867.0</ele><time>2026-04-10T11:00:47.001Z</time></trkpt><trkpt lat="44.1995103647647" lon="11.385018371176619"><ele>867.0</ele><time>2026-04-10T11:00:49.001Z</time></trkpt><trkpt lat="44.19946215028519" lon="11.384910153142082"><ele>867.0</ele><time>2026-04-10T11:00:50.001Z</time></trkpt><trkpt lat="44.199402743853675" lon="11.384790042727634"><ele>867.0</ele><time>2026-04-10T11:00:51.001Z</time></trkpt><trkpt lat="44.19933171282095" lon="11.384663194598456"><ele>867.0</ele><time>2026-04-10T11:00:52.001Z</time></trkpt><trkpt lat="44.19924946305149" lon="11.384535594783882"><ele>867.0</ele><time>2026-04-10T11:00:53.001Z</time></trkpt><trkpt lat="44.199153751559464" lon="11.384409728692868"><ele>867.5</ele><time>2026-04-10T11:00:54.001Z</time></trkpt><trkpt lat="44.199048780272086" lon="11.38428803217659"><ele>868.0</ele><time>2026-04-10T11:00:55.001Z</time></trkpt><trkpt lat="44.19894105567806" lon="11.38418165030142"><ele>868.5</ele><time>2026-04-10T11:00:56.001Z</time></trkpt><trkpt lat="44.19883307033666" lon="11.384090282308176"><ele>869.0</ele><time>2026-04-10T11:00:57.001Z</time></trkpt><trkpt lat="44.198719489173705" lon="11.384014222502747"><ele>869.0</ele><time>2026-04-10T11:00:58.001Z</time></trkpt><trkpt lat="44.19860305321588" lon="11.38396912004005"><ele>869.0</ele><time>2026-04-10T11:00:59.001Z</time></trkpt><trkpt lat="44.198484301518796" lon="11.383973943468312"><ele>869.0</ele><time>2026-04-10T11:01:00.001Z</time></trkpt><trkpt lat="44.19836716220844" lon="11.383991680619376"><ele>869.0</ele><time>2026-04-10T11:01:01.001Z</time></trkpt><trkpt lat="44.19825736849687" lon="11.384013541121213"><ele>869.1666666666667</ele><time>2026-04-10T11:01:02.001Z</time></trkpt><trkpt lat="44.198156388056226" lon="11.384041262916687"><ele>869.3333333333334</ele><time>2026-04-10T11:01:03.001Z</time></trkpt><trkpt lat="44.198067661982066" lon="11.384063416627654"><ele>869.5</ele><time>2026-04-10T11:01:04.001Z</time></trkpt><trkpt lat="44.19799406957387" lon="11.384081274589976"><ele>869.6666666666667</ele><time>2026-04-10T11:01:05.001Z</time></trkpt><trkpt lat="44.19789573214239" lon="11.384110619922529"><ele>869.8333333333334</ele><time>2026-04-10T11:01:07.001Z</time></trkpt><trkpt lat="44.197824721822606" lon="11.384110997518995"><ele>870.0</ele><time>2026-04-10T11:01:09.001Z</time></trkpt><trkpt lat="44.19775934826322" lon="11.38411445904688"><ele>870.0</ele><time>2026-04-10T11:01:12.001Z</time></trkpt><trkpt lat="44.197629480985945" lon="11.384351448179283"><ele>870.0</ele><time>2026-04-10T11:02:43.001Z</time></trkpt><trkpt lat="44.197605700786056" lon="11.384243606278057"><ele>870.0</ele><time>2026-04-10T11:06:03.001Z</time></trkpt><trkpt lat="44.19757076092514" lon="11.384151690003662"><ele>870.0</ele><time>2026-04-10T11:06:06.001Z</time></trkpt><trkpt lat="44.19752496666588" lon="11.384086792877604"><ele>870.0</ele><time>2026-04-10T11:07:21Z</time></trkpt><trkpt lat="44.19747406329486" lon="11.383959322243886"><ele>870.0</ele><time>2026-04-10T11:07:23Z</time></trkpt><trkpt lat="44.19741344584577" lon="11.383896277997602"><ele>870.0</ele><time>2026-04-10T11:07:24Z</time></trkpt><trkpt lat="44.19734701358231" lon="11.383795637579126"><ele>870.0</ele><time>2026-04-10T11:07:25Z</time></trkpt><trkpt lat="44.19728579144924" lon="11.383671239340202"><ele>870.0</ele><time>2026-04-10T11:07:26Z</time></trkpt><trkpt lat="44.19719808412463" lon="11.38355669754832"><ele>870.0</ele><time>2026-04-10T11:07:27Z</time></trkpt><trkpt lat="44.19711195010513" lon="11.383426064553188"><ele>870.5</ele><time>2026-04-10T11:07:28Z</time></trkpt><trkpt lat="44.19701500533559" lon="11.383303913823458"><ele>871.0</ele><time>2026-04-10T11:07:29Z</time></trkpt><trkpt lat="44.19691267821934" lon="11.383195565800845"><ele>871.5</ele><time>2026-04-10T11:07:30Z</time></trkpt><trkpt lat="44.19680214732891" lon="11.383102841510842"><ele>872.0</ele><time>2026-04-10T11:07:31Z</time></trkpt><trkpt lat="44.19669256882541" lon="11.383014080430867"><ele>870.75</ele><time>2026-04-10T11:07:32Z</time></trkpt><trkpt lat="44.19659020583573" lon="11.382917974259176"><ele>869.5</ele><time>2026-04-10T11:07:33Z</time></trkpt><trkpt lat="44.19649358695817" lon="11.382829809790731"><ele>868.25</ele><time>2026-04-10T11:07:34Z</time></trkpt><trkpt lat="44.19642600117759" lon="11.382694197770924"><ele>867.0</ele><time>2026-04-10T11:07:35Z</time></trkpt><trkpt lat="44.19637914420223" lon="11.382537907003057"><ele>867.0</ele><time>2026-04-10T11:07:36Z</time></trkpt><trkpt lat="44.19634241311683" lon="11.382372853974188"><ele>867.0</ele><time>2026-04-10T11:07:37Z</time></trkpt><trkpt lat="44.19630997526029" lon="11.382201907598546"><ele>867.0</ele><time>2026-04-10T11:07:38Z</time></trkpt><trkpt lat="44.196280891693675" lon="11.382023106980226"><ele>867.0</ele><time>2026-04-10T11:07:39Z</time></trkpt><trkpt lat="44.1962561231255" lon="11.381841229862241"><ele>868.25</ele><time>2026-04-10T11:07:40Z</time></trkpt><trkpt lat="44.19623094491749" lon="11.3816573331106"><ele>869.5</ele><time>2026-04-10T11:07:41Z</time></trkpt><trkpt lat="44.19619176402752" lon="11.381480007106948"><ele>870.75</ele><time>2026-04-10T11:07:42Z</time></trkpt><trkpt lat="44.196135335764154" lon="11.381317683881319"><ele>872.0</ele><time>2026-04-10T11:07:43Z</time></trkpt><trkpt lat="44.19606189132722" lon="11.381170027909372"><ele>872.0</ele><time>2026-04-10T11:07:44Z</time></trkpt><trkpt lat="44.19597178865738" lon="11.38103932248314"><ele>872.0</ele><time>2026-04-10T11:07:45Z</time></trkpt><trkpt lat="44.195865609825844" lon="11.38092725273839"><ele>872.0</ele><time>2026-04-10T11:07:46Z</time></trkpt><trkpt lat="44.19575354178622" lon="11.380813469386355"><ele>872.0</ele><time>2026-04-10T11:07:47Z</time></trkpt><trkpt lat="44.19563732007713" lon="11.380696556974677"><ele>872.0</ele><time>2026-04-10T11:07:48Z</time></trkpt><trkpt lat="44.19552301659517" lon="11.380570089050973"><ele>872.0</ele><time>2026-04-10T11:07:49Z</time></trkpt><trkpt lat="44.195403499610684" lon="11.38045089931053"><ele>872.0</ele><time>2026-04-10T11:07:50Z</time></trkpt><trkpt lat="44.19528756465313" lon="11.380323674621732"><ele>872.0</ele><time>2026-04-10T11:07:51Z</time></trkpt><trkpt lat="44.19516658324415" lon="11.380199321890753"><ele>874.3333333333334</ele><time>2026-04-10T11:07:52Z</time></trkpt><trkpt lat="44.19502935097427" lon="11.380093387392181"><ele>876.6666666666667</ele><time>2026-04-10T11:07:53Z</time></trkpt><trkpt lat="44.19487557418008" lon="11.380007759349729"><ele>879.0</ele><time>2026-04-10T11:07:54Z</time></trkpt><trkpt lat="44.19471368608201" lon="11.379932269373786"><ele>879.0</ele><time>2026-04-10T11:07:55Z</time></trkpt><trkpt lat="44.194550103166144" lon="11.379854267853476"><ele>879.0</ele><time>2026-04-10T11:07:56Z</time></trkpt><trkpt lat="44.19438640057544" lon="11.379774153996177"><ele>879.0</ele><time>2026-04-10T11:07:57Z</time></trkpt><trkpt lat="44.19422494944477" lon="11.379695259054293"><ele>881.0</ele><time>2026-04-10T11:07:58Z</time></trkpt><trkpt lat="44.19406616455102" lon="11.379617890700851"><ele>883.0</ele><time>2026-04-10T11:07:59Z</time></trkpt><trkpt lat="44.19391308036704" lon="11.379542449802853"><ele>885.0</ele><time>2026-04-10T11:08:00Z</time></trkpt><trkpt lat="44.1937665064357" lon="11.37947214242572"><ele>885.0</ele><time>2026-04-10T11:08:01Z</time></trkpt><trkpt lat="44.193627312330655" lon="11.37940526151012"><ele>885.0</ele><time>2026-04-10T11:08:02Z</time></trkpt><trkpt lat="44.19349489155356" lon="11.379342524218902"><ele>885.0</ele><time>2026-04-10T11:08:03Z</time></trkpt><trkpt lat="44.19337102840216" lon="11.379274080322272"><ele>885.0</ele><time>2026-04-10T11:08:04.001Z</time></trkpt><trkpt lat="44.19326698444748" lon="11.379171393723984"><ele>885.0</ele><time>2026-04-10T11:08:05.001Z</time></trkpt><trkpt lat="44.193186928654924" lon="11.379034337038725"><ele>885.0</ele><time>2026-04-10T11:08:06.001Z</time></trkpt><trkpt lat="44.19313601487809" lon="11.378861251416755"><ele>885.0</ele><time>2026-04-10T11:08:07.001Z</time></trkpt><trkpt lat="44.193102036190766" lon="11.378670851078784"><ele>885.0</ele><time>2026-04-10T11:08:08.001Z</time></trkpt><trkpt lat="44.193061143951596" lon="11.378482688574557"><ele>885.25</ele><time>2026-04-10T11:08:09.001Z</time></trkpt><trkpt lat="44.19298784410389" lon="11.378312491666966"><ele>885.5</ele><time>2026-04-10T11:08:10.001Z</time></trkpt><trkpt lat="44.19289446846361" lon="11.378161782404845"><ele>885.75</ele><time>2026-04-10T11:08:11.001Z</time></trkpt><trkpt lat="44.19279892761968" lon="11.378023291346821"><ele>886.0</ele><time>2026-04-10T11:08:12.001Z</time></trkpt><trkpt lat="44.192706617801896" lon="11.377887855697484"><ele>886.0</ele><time>2026-04-10T11:08:13.001Z</time></trkpt><trkpt lat="44.192624614581604" lon="11.377749426538365"><ele>886.0</ele><time>2026-04-10T11:08:14.001Z</time></trkpt><trkpt lat="44.19256002153598" lon="11.37759817791738"><ele>886.0</ele><time>2026-04-10T11:08:15.001Z</time></trkpt><trkpt lat="44.19254057045157" lon="11.377428889910002"><ele>886.0</ele><time>2026-04-10T11:08:16.001Z</time></trkpt><trkpt lat="44.192555119135726" lon="11.377243153088571"><ele>885.5</ele><time>2026-04-10T11:08:17.001Z</time></trkpt><trkpt lat="44.192604860235654" lon="11.37707227824686"><ele>885.0</ele><time>2026-04-10T11:08:18.001Z</time></trkpt><trkpt lat="44.19267374231456" lon="11.376906106705702"><ele>884.5</ele><time>2026-04-10T11:08:19.001Z</time></trkpt><trkpt lat="44.192728553544164" lon="11.376744868376571"><ele>884.0</ele><time>2026-04-10T11:08:20.001Z</time></trkpt><trkpt lat="44.192778229754445" lon="11.376581200685006"><ele>884.0</ele><time>2026-04-10T11:08:21.001Z</time></trkpt><trkpt lat="44.192751135336486" lon="11.376392547399899"><ele>884.0</ele><time>2026-04-10T11:08:22.001Z</time></trkpt><trkpt lat="44.192702951620284" lon="11.376211787144667"><ele>884.0</ele><time>2026-04-10T11:08:23.001Z</time></trkpt><trkpt lat="44.19262495785885" lon="11.376040058125339"><ele>884.0</ele><time>2026-04-10T11:08:24.001Z</time></trkpt><trkpt lat="44.19253703453219" lon="11.375867126964303"><ele>885.0</ele><time>2026-04-10T11:08:25.001Z</time></trkpt><trkpt lat="44.192451594017186" lon="11.375684828644548"><ele>886.0</ele><time>2026-04-10T11:08:26.001Z</time></trkpt><trkpt lat="44.19236779812954" lon="11.375499445769924"><ele>887.0</ele><time>2026-04-10T11:08:27.001Z</time></trkpt><trkpt lat="44.19228029075196" lon="11.375322369781896"><ele>884.0</ele><time>2026-04-10T11:08:28.001Z</time></trkpt><trkpt lat="44.192199721285654" lon="11.375138801172607"><ele>881.0</ele><time>2026-04-10T11:08:29.001Z</time></trkpt><trkpt lat="44.19213032790104" lon="11.374937582023412"><ele>878.0</ele><time>2026-04-10T11:08:30.001Z</time></trkpt><trkpt lat="44.19209420529961" lon="11.374712124605528"><ele>881.0</ele><time>2026-04-10T11:08:31.001Z</time></trkpt><trkpt lat="44.192037048793196" lon="11.374490038121825"><ele>884.0</ele><time>2026-04-10T11:08:32.001Z</time></trkpt><trkpt lat="44.19199764583418" lon="11.374264838937876"><ele>887.0</ele><time>2026-04-10T11:08:33.001Z</time></trkpt><trkpt lat="44.19194268417047" lon="11.374047751588114"><ele>890.0</ele><time>2026-04-10T11:08:34.001Z</time></trkpt><trkpt lat="44.191861641242184" lon="11.373848563638262"><ele>893.0</ele><time>2026-04-10T11:08:35.001Z</time></trkpt><trkpt lat="44.19176294617123" lon="11.373669116509298"><ele>896.0</ele><time>2026-04-10T11:08:36.001Z</time></trkpt><trkpt lat="44.19165789350276" lon="11.373508265885865"><ele>896.0</ele><time>2026-04-10T11:08:37.001Z</time></trkpt><trkpt lat="44.19156824151328" lon="11.373327429134308"><ele>896.0</ele><time>2026-04-10T11:08:38.001Z</time></trkpt><trkpt lat="44.19147322381248" lon="11.373147840519517"><ele>896.0</ele><time>2026-04-10T11:08:39.001Z</time></trkpt><trkpt lat="44.19138805074383" lon="11.372951200214949"><ele>890.3333333333334</ele><time>2026-04-10T11:08:40.001Z</time></trkpt><trkpt lat="44.191304814107205" lon="11.37274851211247"><ele>884.6666666666667</ele><time>2026-04-10T11:08:41.001Z</time></trkpt><trkpt lat="44.19122256731267" lon="11.372546561641812"><ele>879.0</ele><time>2026-04-10T11:08:42.001Z</time></trkpt><trkpt lat="44.1911426479495" lon="11.372347077360894"><ele>880.3333333333333</ele><time>2026-04-10T11:08:43Z</time></trkpt><trkpt lat="44.191052086370114" lon="11.37215910832255"><ele>881.6666666666666</ele><time>2026-04-10T11:08:44Z</time></trkpt><trkpt lat="44.19098732832002" lon="11.371948030647674"><ele>883.0</ele><time>2026-04-10T11:08:45Z</time></trkpt><trkpt lat="44.19093970896589" lon="11.37172257747151"><ele>883.0</ele><time>2026-04-10T11:08:46Z</time></trkpt><trkpt lat="44.190897888887534" lon="11.37149440270527"><ele>883.0</ele><time>2026-04-10T11:08:47Z</time></trkpt><trkpt lat="44.190856283997576" lon="11.37127408240224"><ele>883.0</ele><time>2026-04-10T11:08:48Z</time></trkpt><trkpt lat="44.19081094398797" lon="11.371067875557983"><ele>881.3333333333333</ele><time>2026-04-10T11:08:49Z</time></trkpt><trkpt lat="44.190772689648135" lon="11.370864239471032"><ele>879.6666666666667</ele><time>2026-04-10T11:08:50Z</time></trkpt><trkpt lat="44.19067626881222" lon="11.370697127072933"><ele>878.0</ele><time>2026-04-10T11:08:51Z</time></trkpt><trkpt lat="44.190570791627856" lon="11.370537977783256"><ele>879.5</ele><time>2026-04-10T11:08:52Z</time></trkpt><trkpt lat="44.19045950449033" lon="11.370394615962859"><ele>881.0</ele><time>2026-04-10T11:08:53Z</time></trkpt><trkpt lat="44.19036029076081" lon="11.370254105197352"><ele>882.5</ele><time>2026-04-10T11:08:54Z</time></trkpt><trkpt lat="44.19028225369423" lon="11.370094121723563"><ele>884.0</ele><time>2026-04-10T11:08:55Z</time></trkpt><trkpt lat="44.19023842440325" lon="11.369900944515988"><ele>884.0</ele><time>2026-04-10T11:08:56Z</time></trkpt><trkpt lat="44.190173249355915" lon="11.36971101652184"><ele>884.0</ele><time>2026-04-10T11:08:57Z</time></trkpt><trkpt lat="44.190119271483624" lon="11.369504085281513"><ele>884.0</ele><time>2026-04-10T11:08:58Z</time></trkpt><trkpt lat="44.19006260321329" lon="11.369300318190284"><ele>884.3333333333334</ele><time>2026-04-10T11:08:59Z</time></trkpt><trkpt lat="44.19001475409433" lon="11.369092970855377"><ele>884.6666666666667</ele><time>2026-04-10T11:09:00Z</time></trkpt><trkpt lat="44.18993057521871" lon="11.368906143172946"><ele>885.0</ele><time>2026-04-10T11:09:01Z</time></trkpt><trkpt lat="44.18980711176484" lon="11.368753995801278"><ele>885.0</ele><time>2026-04-10T11:09:02Z</time></trkpt><trkpt lat="44.189682483817705" lon="11.368605920498885"><ele>885.0</ele><time>2026-04-10T11:09:03Z</time></trkpt><trkpt lat="44.189550321160844" lon="11.368465114938205"><ele>885.0</ele><time>2026-04-10T11:09:04Z</time></trkpt><trkpt lat="44.189414981497904" lon="11.368323321980448"><ele>885.0</ele><time>2026-04-10T11:09:05Z</time></trkpt><trkpt lat="44.189283670378025" lon="11.368178798971924"><ele>885.0</ele><time>2026-04-10T11:09:06Z</time></trkpt><trkpt lat="44.18915323409149" lon="11.368039799308287"><ele>885.0</ele><time>2026-04-10T11:09:07Z</time></trkpt><trkpt lat="44.18903798656047" lon="11.367888321459313"><ele>883.3333333333333</ele><time>2026-04-10T11:09:08Z</time></trkpt><trkpt lat="44.18890798062589" lon="11.36777361162102"><ele>881.6666666666666</ele><time>2026-04-10T11:09:09Z</time></trkpt><trkpt lat="44.18879784786151" lon="11.367616763925396"><ele>880.0</ele><time>2026-04-10T11:09:10Z</time></trkpt><trkpt lat="44.18870031407848" lon="11.367448076891636"><ele>880.0</ele><time>2026-04-10T11:09:11Z</time></trkpt><trkpt lat="44.188615941765256" lon="11.36728013678843"><ele>880.0</ele><time>2026-04-10T11:09:12Z</time></trkpt><trkpt lat="44.18855416435464" lon="11.367101556798593"><ele>880.0</ele><time>2026-04-10T11:09:13Z</time></trkpt><trkpt lat="44.18845506922769" lon="11.366966868939071"><ele>880.0</ele><time>2026-04-10T11:09:14Z</time></trkpt><trkpt lat="44.18832637660205" lon="11.366894784881271"><ele>881.25</ele><time>2026-04-10T11:09:15Z</time></trkpt><trkpt lat="44.188202088136215" lon="11.366809637041392"><ele>882.5</ele><time>2026-04-10T11:09:16Z</time></trkpt><trkpt lat="44.188075435247775" lon="11.36671548596714"><ele>883.75</ele><time>2026-04-10T11:09:17Z</time></trkpt><trkpt lat="44.18796254378503" lon="11.366598268601534"><ele>885.0</ele><time>2026-04-10T11:09:18Z</time></trkpt><trkpt lat="44.187865602990534" lon="11.36644972142319"><ele>887.5</ele><time>2026-04-10T11:09:19Z</time></trkpt><trkpt lat="44.18779303397048" lon="11.366272376027363"><ele>890.0</ele><time>2026-04-10T11:09:20Z</time></trkpt><trkpt lat="44.187739307680125" lon="11.36607463667617"><ele>892.5</ele><time>2026-04-10T11:09:21Z</time></trkpt><trkpt lat="44.187697717181635" lon="11.365873988644331"><ele>895.0</ele><time>2026-04-10T11:09:22Z</time></trkpt><trkpt lat="44.18765604760175" lon="11.365698491533543"><ele>895.0</ele><time>2026-04-10T11:09:23Z</time></trkpt><trkpt lat="44.187604883789454" lon="11.365539537180771"><ele>895.0</ele><time>2026-04-10T11:09:24Z</time></trkpt><trkpt lat="44.18752307419143" lon="11.365419708047186"><ele>895.0</ele><time>2026-04-10T11:09:25Z</time></trkpt><trkpt lat="44.18741375557342" lon="11.36533104605839"><ele>895.0</ele><time>2026-04-10T11:09:26Z</time></trkpt><trkpt lat="44.187290618466626" lon="11.365293351148095"><ele>894.75</ele><time>2026-04-10T11:09:27Z</time></trkpt><trkpt lat="44.18716387016255" lon="11.365304330279764"><ele>894.5</ele><time>2026-04-10T11:09:28Z</time></trkpt><trkpt lat="44.187031425079134" lon="11.365356259023129"><ele>894.25</ele><time>2026-04-10T11:09:29Z</time></trkpt><trkpt lat="44.18689830883076" lon="11.365378416448722"><ele>894.0</ele><time>2026-04-10T11:09:30Z</time></trkpt><trkpt lat="44.186770113842215" lon="11.365335174680604"><ele>894.0</ele><time>2026-04-10T11:09:31Z</time></trkpt><trkpt lat="44.18665173893721" lon="11.365235133907769"><ele>894.0</ele><time>2026-04-10T11:09:32Z</time></trkpt><trkpt lat="44.18655998279845" lon="11.365085921870294"><ele>894.0</ele><time>2026-04-10T11:09:33Z</time></trkpt><trkpt lat="44.18648971243914" lon="11.3649148095091"><ele>894.0</ele><time>2026-04-10T11:09:34Z</time></trkpt><trkpt lat="44.18641050490279" lon="11.364755098995685"><ele>894.4000000000001</ele><time>2026-04-10T11:09:35Z</time></trkpt><trkpt lat="44.18635309590551" lon="11.364594658999394"><ele>894.8000000000001</ele><time>2026-04-10T11:09:36Z</time></trkpt><trkpt lat="44.186287404406436" lon="11.36445247905554"><ele>895.1999999999999</ele><time>2026-04-10T11:09:37Z</time></trkpt><trkpt lat="44.18622383675174" lon="11.364360342951297"><ele>895.5999999999999</ele><time>2026-04-10T11:09:38Z</time></trkpt><trkpt lat="44.18618846099165" lon="11.364286800789673"><ele>896.0</ele><time>2026-04-10T11:09:39Z</time></trkpt><trkpt lat="44.18615242289458" lon="11.364201964035448"><ele>896.0</ele><time>2026-04-10T11:09:40Z</time></trkpt><trkpt lat="44.18608455673201" lon="11.36411757234424"><ele>895.9999999999999</ele><time>2026-04-10T11:09:41Z</time></trkpt><trkpt lat="44.1859954246611" lon="11.364035450905309"><ele>895.9999999999999</ele><time>2026-04-10T11:09:42Z</time></trkpt><trkpt lat="44.18589543439951" lon="11.363966269990078"><ele>896.0</ele><time>2026-04-10T11:09:43Z</time></trkpt><trkpt lat="44.18578795554382" lon="11.363893746768966"><ele>896.0</ele><time>2026-04-10T11:09:44Z</time></trkpt><trkpt lat="44.18566103944572" lon="11.363833239388203"><ele>896.75</ele><time>2026-04-10T11:09:45Z</time></trkpt><trkpt lat="44.18553995487721" lon="11.363746964922361"><ele>897.5</ele><time>2026-04-10T11:09:46Z</time></trkpt><trkpt lat="44.18541768638184" lon="11.363645691453653"><ele>898.25</ele><time>2026-04-10T11:09:47Z</time></trkpt><trkpt lat="44.18530274418954" lon="11.36352271913075"><ele>899.0</ele><time>2026-04-10T11:09:48Z</time></trkpt><trkpt lat="44.18519489246037" lon="11.363384789835454"><ele>899.0</ele><time>2026-04-10T11:09:49Z</time></trkpt><trkpt lat="44.18509857721438" lon="11.363239043773827"><ele>899.0</ele><time>2026-04-10T11:09:50Z</time></trkpt><trkpt lat="44.18501818809503" lon="11.363079309705835"><ele>899.0</ele><time>2026-04-10T11:09:51Z</time></trkpt><trkpt lat="44.18494937651946" lon="11.362913192701093"><ele>899.0</ele><time>2026-04-10T11:09:52Z</time></trkpt><trkpt lat="44.18489722918102" lon="11.362736925645287"><ele>899.5</ele><time>2026-04-10T11:09:53Z</time></trkpt><trkpt lat="44.184848678351585" lon="11.362555095021385"><ele>900.0</ele><time>2026-04-10T11:09:54Z</time></trkpt><trkpt lat="44.184797692872706" lon="11.362369248886491"><ele>900.5</ele><time>2026-04-10T11:09:55Z</time></trkpt><trkpt lat="44.18476450780629" lon="11.362168963853586"><ele>901.0</ele><time>2026-04-10T11:09:56Z</time></trkpt><trkpt lat="44.18471133119689" lon="11.361973515575515"><ele>909.6666666666666</ele><time>2026-04-10T11:09:57Z</time></trkpt><trkpt lat="44.18468256771256" lon="11.361759913767477"><ele>918.3333333333333</ele><time>2026-04-10T11:09:58Z</time></trkpt><trkpt lat="44.18466372663854" lon="11.361544428075655"><ele>927.0</ele><time>2026-04-10T11:09:59Z</time></trkpt><trkpt lat="44.18465950819682" lon="11.361336152806304"><ele>930.6666666666667</ele><time>2026-04-10T11:10:00Z</time></trkpt><trkpt lat="44.18466656424074" lon="11.361124713795752"><ele>934.3333333333334</ele><time>2026-04-10T11:10:01Z</time></trkpt><trkpt lat="44.184705333495636" lon="11.360909850809394"><ele>938.0</ele><time>2026-04-10T11:10:02Z</time></trkpt><trkpt lat="44.18472875153929" lon="11.360677809181796"><ele>942.0</ele><time>2026-04-10T11:10:03Z</time></trkpt><trkpt lat="44.18477569353301" lon="11.360447140598838"><ele>946.0</ele><time>2026-04-10T11:10:04Z</time></trkpt><trkpt lat="44.184827135100306" lon="11.360214221638877"><ele>950.0</ele><time>2026-04-10T11:10:05Z</time></trkpt><trkpt lat="44.18487725203793" lon="11.359978757216798"><ele>937.3333333333334</ele><time>2026-04-10T11:10:06Z</time></trkpt><trkpt lat="44.18494294576668" lon="11.359748018720005"><ele>924.6666666666667</ele><time>2026-04-10T11:10:07Z</time></trkpt><trkpt lat="44.1849925727163" lon="11.359512432246332"><ele>912.0</ele><time>2026-04-10T11:10:08Z</time></trkpt><trkpt lat="44.18504105529316" lon="11.359275216564438"><ele>912.0</ele><time>2026-04-10T11:10:09Z</time></trkpt><trkpt lat="44.18508181626197" lon="11.359034757880073"><ele>912.0</ele><time>2026-04-10T11:10:10Z</time></trkpt><trkpt lat="44.18511495791502" lon="11.35880316155575"><ele>912.0</ele><time>2026-04-10T11:10:11Z</time></trkpt><trkpt lat="44.18513677591289" lon="11.358577824859744"><ele>914.3333333333333</ele><time>2026-04-10T11:10:12Z</time></trkpt><trkpt lat="44.18515077987063" lon="11.358360023722934"><ele>916.6666666666666</ele><time>2026-04-10T11:10:13Z</time></trkpt><trkpt lat="44.18515979489622" lon="11.358150766363043"><ele>919.0</ele><time>2026-04-10T11:10:14Z</time></trkpt><trkpt lat="44.18516138931363" lon="11.357943159750159"><ele>920.25</ele><time>2026-04-10T11:10:15Z</time></trkpt><trkpt lat="44.18520996197838" lon="11.357776793834761"><ele>921.5</ele><time>2026-04-10T11:10:16Z</time></trkpt><trkpt lat="44.18530560343825" lon="11.357649440502927"><ele>922.75</ele><time>2026-04-10T11:10:17Z</time></trkpt><trkpt lat="44.185416656619715" lon="11.357573306696324"><ele>924.0</ele><time>2026-04-10T11:10:18Z</time></trkpt><trkpt lat="44.18551468902594" lon="11.357481746826089"><ele>924.0</ele><time>2026-04-10T11:10:19Z</time></trkpt><trkpt lat="44.18559435102509" lon="11.357375230789973"><ele>924.0</ele><time>2026-04-10T11:10:20Z</time></trkpt><trkpt lat="44.185658639200305" lon="11.357228624850363"><ele>924.0</ele><time>2026-04-10T11:10:21Z</time></trkpt><trkpt lat="44.18567621596569" lon="11.357054599553507"><ele>924.0</ele><time>2026-04-10T11:10:22Z</time></trkpt><trkpt lat="44.185670915268076" lon="11.356867586025928"><ele>923.0</ele><time>2026-04-10T11:10:23Z</time></trkpt><trkpt lat="44.1856298936459" lon="11.356670709123222"><ele>922.0</ele><time>2026-04-10T11:10:24Z</time></trkpt><trkpt lat="44.18556261338" lon="11.356506271327344"><ele>921.0</ele><time>2026-04-10T11:10:25Z</time></trkpt><trkpt lat="44.1854939827876" lon="11.356357910915447"><ele>920.0</ele><time>2026-04-10T11:10:26Z</time></trkpt><trkpt lat="44.18541949185243" lon="11.356207580983419"><ele>916.3333333333334</ele><time>2026-04-10T11:10:27.001Z</time></trkpt><trkpt lat="44.18530475466465" lon="11.356092657505924"><ele>912.6666666666667</ele><time>2026-04-10T11:10:28.001Z</time></trkpt><trkpt lat="44.18517976142285" lon="11.355971425770573"><ele>909.0</ele><time>2026-04-10T11:10:29.001Z</time></trkpt><trkpt lat="44.18504555270991" lon="11.355848844658789"><ele>909.0</ele><time>2026-04-10T11:10:30.001Z</time></trkpt><trkpt lat="44.18490864659375" lon="11.355730699720693"><ele>909.0</ele><time>2026-04-10T11:10:31.001Z</time></trkpt><trkpt lat="44.184777564168805" lon="11.355619123020725"><ele>909.0</ele><time>2026-04-10T11:10:32.001Z</time></trkpt><trkpt lat="44.18465876339577" lon="11.355490746115807"><ele>908.3333333333333</ele><time>2026-04-10T11:10:33.001Z</time></trkpt><trkpt lat="44.18453408238393" lon="11.355370819850481"><ele>907.6666666666666</ele><time>2026-04-10T11:10:34.001Z</time></trkpt><trkpt lat="44.18440535797748" lon="11.355246252472247"><ele>907.0</ele><time>2026-04-10T11:10:35.001Z</time></trkpt><trkpt lat="44.184321459281335" lon="11.355052272312154"><ele>907.0</ele><time>2026-04-10T11:10:36.001Z</time></trkpt><trkpt lat="44.184215520453634" lon="11.354858876017046"><ele>907.0</ele><time>2026-04-10T11:10:37.001Z</time></trkpt><trkpt lat="44.18412427104068" lon="11.354637360053951"><ele>907.0</ele><time>2026-04-10T11:10:38.001Z</time></trkpt><trkpt lat="44.184028426920186" lon="11.354420258239317"><ele>908.0</ele><time>2026-04-10T11:10:39.001Z</time></trkpt><trkpt lat="44.18394472298513" lon="11.354189517140123"><ele>909.0</ele><time>2026-04-10T11:10:40.001Z</time></trkpt><trkpt lat="44.18384912477886" lon="11.353968838701793"><ele>910.0</ele><time>2026-04-10T11:10:41.001Z</time></trkpt><trkpt lat="44.183756285080506" lon="11.353752744162087"><ele>910.0</ele><time>2026-04-10T11:10:42.001Z</time></trkpt><trkpt lat="44.18365677187027" lon="11.353551979322376"><ele>910.0</ele><time>2026-04-10T11:10:43.001Z</time></trkpt><trkpt lat="44.183573603453084" lon="11.353344131323972"><ele>910.0</ele><time>2026-04-10T11:10:44.001Z</time></trkpt><trkpt lat="44.18349337107195" lon="11.353140263969953"><ele>905.3333333333333</ele><time>2026-04-10T11:10:45.001Z</time></trkpt><trkpt lat="44.183409437794204" lon="11.352944931088095"><ele>900.6666666666667</ele><time>2026-04-10T11:10:46.001Z</time></trkpt><trkpt lat="44.18331546345562" lon="11.352764240946623"><ele>896.0</ele><time>2026-04-10T11:10:47.001Z</time></trkpt><trkpt lat="44.18320469483693" lon="11.352611164468335"><ele>899.75</ele><time>2026-04-10T11:10:48.001Z</time></trkpt><trkpt lat="44.18307288571643" lon="11.352500441535883"><ele>903.5</ele><time>2026-04-10T11:10:49Z</time></trkpt><trkpt lat="44.18293301177407" lon="11.352419651804187"><ele>907.25</ele><time>2026-04-10T11:10:50Z</time></trkpt><trkpt lat="44.18279468235716" lon="11.352362978302718"><ele>911.0</ele><time>2026-04-10T11:10:51Z</time></trkpt><trkpt lat="44.18266931438282" lon="11.352285241930941"><ele>908.0</ele><time>2026-04-10T11:10:52Z</time></trkpt><trkpt lat="44.18256708745093" lon="11.352165358370845"><ele>905.0</ele><time>2026-04-10T11:10:53Z</time></trkpt><trkpt lat="44.182506771137085" lon="11.351996091720371"><ele>902.0</ele><time>2026-04-10T11:10:54Z</time></trkpt><trkpt lat="44.182455572543894" lon="11.351824021587534"><ele>899.0</ele><time>2026-04-10T11:10:55Z</time></trkpt><trkpt lat="44.182480914954645" lon="11.35162685088714"><ele>899.0</ele><time>2026-04-10T11:10:56Z</time></trkpt><trkpt lat="44.18250827894483" lon="11.351427061601472"><ele>899.0</ele><time>2026-04-10T11:10:57Z</time></trkpt><trkpt lat="44.18252113102552" lon="11.351235371664863"><ele>899.0</ele><time>2026-04-10T11:10:58Z</time></trkpt><trkpt lat="44.18252122042281" lon="11.3510486983017"><ele>899.0</ele><time>2026-04-10T11:10:59Z</time></trkpt><trkpt lat="44.18248156571186" lon="11.350857630792323"><ele>897.75</ele><time>2026-04-10T11:11:00Z</time></trkpt><trkpt lat="44.18240502986921" lon="11.35068035520263"><ele>896.5</ele><time>2026-04-10T11:11:01Z</time></trkpt><trkpt lat="44.18231535647684" lon="11.350514961729727"><ele>895.25</ele><time>2026-04-10T11:11:02Z</time></trkpt><trkpt lat="44.18224430421994" lon="11.350340667310153"><ele>894.0</ele><time>2026-04-10T11:11:03Z</time></trkpt><trkpt lat="44.18220459555823" lon="11.350143713939545"><ele>898.3333333333333</ele><time>2026-04-10T11:11:04Z</time></trkpt><trkpt lat="44.18218201414478" lon="11.349927144492167"><ele>902.6666666666666</ele><time>2026-04-10T11:11:05Z</time></trkpt><trkpt lat="44.18216840517437" lon="11.349696247695332"><ele>907.0</ele><time>2026-04-10T11:11:06Z</time></trkpt><trkpt lat="44.182155542755034" lon="11.349463825488035"><ele>907.0</ele><time>2026-04-10T11:11:07Z</time></trkpt><trkpt lat="44.182134851456766" lon="11.349239341109628"><ele>907.0</ele><time>2026-04-10T11:11:08Z</time></trkpt><trkpt lat="44.18210386078781" lon="11.349031239195922"><ele>907.0</ele><time>2026-04-10T11:11:09Z</time></trkpt><trkpt lat="44.182052728367964" lon="11.348856632430218"><ele>902.75</ele><time>2026-04-10T11:11:10Z</time></trkpt><trkpt lat="44.18198051595587" lon="11.348707980574254"><ele>898.5</ele><time>2026-04-10T11:11:11Z</time></trkpt><trkpt lat="44.18188391118178" lon="11.348576212932889"><ele>894.25</ele><time>2026-04-10T11:11:12Z</time></trkpt><trkpt lat="44.181763811721176" lon="11.348459281633161"><ele>890.0</ele><time>2026-04-10T11:11:13Z</time></trkpt><trkpt lat="44.18162863639947" lon="11.348348217208553"><ele>888.6666666666667</ele><time>2026-04-10T11:11:14Z</time></trkpt><trkpt lat="44.18149262681063" lon="11.348236713732636"><ele>887.3333333333333</ele><time>2026-04-10T11:11:15Z</time></trkpt><trkpt lat="44.18135279107434" lon="11.348120825933043"><ele>886.0</ele><time>2026-04-10T11:11:16Z</time></trkpt><trkpt lat="44.181218795396255" lon="11.348006552801746"><ele>886.0</ele><time>2026-04-10T11:11:17Z</time></trkpt><trkpt lat="44.181093930034585" lon="11.347899261834229"><ele>886.0</ele><time>2026-04-10T11:11:18Z</time></trkpt><trkpt lat="44.18096393116191" lon="11.347801582432496"><ele>886.0</ele><time>2026-04-10T11:11:19Z</time></trkpt><trkpt lat="44.18081671632468" lon="11.347725765874076"><ele>890.0</ele><time>2026-04-10T11:11:20Z</time></trkpt><trkpt lat="44.180650586198794" lon="11.34768497649748"><ele>894.0</ele><time>2026-04-10T11:11:21Z</time></trkpt><trkpt lat="44.180473529560246" lon="11.347668958767551"><ele>898.0</ele><time>2026-04-10T11:11:22Z</time></trkpt><trkpt lat="44.180294906147644" lon="11.347672785808118"><ele>898.0</ele><time>2026-04-10T11:11:23Z</time></trkpt><trkpt lat="44.18013502899744" lon="11.347676152051825"><ele>898.0</ele><time>2026-04-10T11:11:24Z</time></trkpt><trkpt lat="44.17998751072267" lon="11.347667035727161"><ele>898.0</ele><time>2026-04-10T11:11:25Z</time></trkpt><trkpt lat="44.17985096954459" lon="11.347620043337189"><ele>898.0</ele><time>2026-04-10T11:11:26Z</time></trkpt><trkpt lat="44.179742280845765" lon="11.34751358766303"><ele>899.0</ele><time>2026-04-10T11:11:27Z</time></trkpt><trkpt lat="44.179676385983896" lon="11.347362455905447"><ele>900.0</ele><time>2026-04-10T11:11:28Z</time></trkpt><trkpt lat="44.17963822251714" lon="11.347196036930162"><ele>901.0</ele><time>2026-04-10T11:11:29Z</time></trkpt><trkpt lat="44.17957388743847" lon="11.34705718293693"><ele>902.0</ele><time>2026-04-10T11:11:30Z</time></trkpt><trkpt lat="44.179470547771565" lon="11.346953402037165"><ele>902.0</ele><time>2026-04-10T11:11:31Z</time></trkpt><trkpt lat="44.17933789418659" lon="11.346889584739333"><ele>902.0</ele><time>2026-04-10T11:11:32Z</time></trkpt><trkpt lat="44.17918898108026" lon="11.346866322661828"><ele>902.0</ele><time>2026-04-10T11:11:33Z</time></trkpt><trkpt lat="44.179023685095004" lon="11.346860607346509"><ele>906.0</ele><time>2026-04-10T11:11:34Z</time></trkpt><trkpt lat="44.17886070385688" lon="11.346848333412947"><ele>910.0</ele><time>2026-04-10T11:11:35Z</time></trkpt><trkpt lat="44.17871501795058" lon="11.34681970876877"><ele>914.0</ele><time>2026-04-10T11:11:36Z</time></trkpt><trkpt lat="44.17859341083681" lon="11.34673741684922"><ele>918.0</ele><time>2026-04-10T11:11:37Z</time></trkpt><trkpt lat="44.178498079517624" lon="11.346603551976827"><ele>918.0</ele><time>2026-04-10T11:11:38Z</time></trkpt><trkpt lat="44.178442347200246" lon="11.346424874330502"><ele>918.0</ele><time>2026-04-10T11:11:39Z</time></trkpt><trkpt lat="44.17841084049525" lon="11.346246925204744"><ele>918.0</ele><time>2026-04-10T11:11:40Z</time></trkpt><trkpt lat="44.1783694757477" lon="11.346095932801797"><ele>918.0</ele><time>2026-04-10T11:11:41Z</time></trkpt><trkpt lat="44.178284002446546" lon="11.34598423343707"><ele>918.5</ele><time>2026-04-10T11:11:42Z</time></trkpt><trkpt lat="44.178170811871674" lon="11.34590294794581"><ele>919.0</ele><time>2026-04-10T11:11:43Z</time></trkpt><trkpt lat="44.17803863121352" lon="11.345856573117908"><ele>919.5</ele><time>2026-04-10T11:11:44Z</time></trkpt><trkpt lat="44.17789463561725" lon="11.345832366403108"><ele>920.0</ele><time>2026-04-10T11:11:45Z</time></trkpt><trkpt lat="44.17773308680423" lon="11.345825218479028"><ele>920.0</ele><time>2026-04-10T11:11:46Z</time></trkpt><trkpt lat="44.17755645245595" lon="11.345808017413086"><ele>920.0</ele><time>2026-04-10T11:11:47Z</time></trkpt><trkpt lat="44.177392629406945" lon="11.345763909181208"><ele>920.0</ele><time>2026-04-10T11:11:48Z</time></trkpt><trkpt lat="44.17724690874175" lon="11.345669229578386"><ele>922.3333333333334</ele><time>2026-04-10T11:11:49Z</time></trkpt><trkpt lat="44.17712329317968" lon="11.3455172068051"><ele>924.6666666666667</ele><time>2026-04-10T11:11:50Z</time></trkpt><trkpt lat="44.177003181318845" lon="11.345330868057712"><ele>927.0</ele><time>2026-04-10T11:11:51Z</time></trkpt><trkpt lat="44.17686751200693" lon="11.345158089061215"><ele>927.0</ele><time>2026-04-10T11:11:52Z</time></trkpt><trkpt lat="44.17670782339165" lon="11.345010372621273"><ele>927.0</ele><time>2026-04-10T11:11:53Z</time></trkpt><trkpt lat="44.17653158563142" lon="11.344876535088837"><ele>927.0</ele><time>2026-04-10T11:11:54Z</time></trkpt><trkpt lat="44.17635736513814" lon="11.344757561533303"><ele>926.3333333333333</ele><time>2026-04-10T11:11:55Z</time></trkpt><trkpt lat="44.17618978087264" lon="11.344642669967085"><ele>925.6666666666666</ele><time>2026-04-10T11:11:56Z</time></trkpt><trkpt lat="44.17602346579571" lon="11.34453591812929"><ele>925.0</ele><time>2026-04-10T11:11:57Z</time></trkpt><trkpt lat="44.1758549036237" lon="11.344440943165901"><ele>928.6666666666666</ele><time>2026-04-10T11:11:58Z</time></trkpt><trkpt lat="44.17567709113695" lon="11.344370438143898"><ele>932.3333333333333</ele><time>2026-04-10T11:11:59Z</time></trkpt><trkpt lat="44.17549802092636" lon="11.344315728423139"><ele>936.0</ele><time>2026-04-10T11:12:00Z</time></trkpt><trkpt lat="44.17531946000163" lon="11.344270001252346"><ele>936.0</ele><time>2026-04-10T11:12:01Z</time></trkpt><trkpt lat="44.17514505256821" lon="11.344228970657388"><ele>936.0</ele><time>2026-04-10T11:12:02Z</time></trkpt><trkpt lat="44.17497564767578" lon="11.344189679466762"><ele>936.0</ele><time>2026-04-10T11:12:03Z</time></trkpt><trkpt lat="44.17480761034719" lon="11.344148858473112"><ele>939.3333333333333</ele><time>2026-04-10T11:12:04Z</time></trkpt><trkpt lat="44.17463912211044" lon="11.344095587663654"><ele>942.6666666666666</ele><time>2026-04-10T11:12:05Z</time></trkpt><trkpt lat="44.17447612186676" lon="11.344021881663547"><ele>946.0</ele><time>2026-04-10T11:12:06Z</time></trkpt><trkpt lat="44.17431915976547" lon="11.343928164179781"><ele>943.0</ele><time>2026-04-10T11:12:07Z</time></trkpt><trkpt lat="44.17416978243253" lon="11.343814450561695"><ele>940.0</ele><time>2026-04-10T11:12:08Z</time></trkpt><trkpt lat="44.17403029858489" lon="11.343672768745465"><ele>937.0</ele><time>2026-04-10T11:12:09Z</time></trkpt><trkpt lat="44.17390367440982" lon="11.343499317243495"><ele>942.6666666666666</ele><time>2026-04-10T11:12:10Z</time></trkpt><trkpt lat="44.17379191586049" lon="11.343296434532062"><ele>948.3333333333333</ele><time>2026-04-10T11:12:11Z</time></trkpt><trkpt lat="44.17368555482096" lon="11.343084005940751"><ele>954.0</ele><time>2026-04-10T11:12:12Z</time></trkpt><trkpt lat="44.173583883231274" lon="11.342861737108427"><ele>954.0</ele><time>2026-04-10T11:12:13Z</time></trkpt><trkpt lat="44.17348767954049" lon="11.34264680726522"><ele>954.0</ele><time>2026-04-10T11:12:14Z</time></trkpt><trkpt lat="44.173405022922076" lon="11.34245293409252"><ele>954.0</ele><time>2026-04-10T11:12:15Z</time></trkpt><trkpt lat="44.173340077022154" lon="11.342263529468411"><ele>954.0</ele><time>2026-04-10T11:12:16Z</time></trkpt><trkpt lat="44.1733124416453" lon="11.34207687588098"><ele>954.0</ele><time>2026-04-10T11:12:17Z</time></trkpt><trkpt lat="44.173331614379485" lon="11.34189815044395"><ele>954.0</ele><time>2026-04-10T11:12:18Z</time></trkpt><trkpt lat="44.173390143343674" lon="11.3417334023123"><ele>954.0</ele><time>2026-04-10T11:12:19Z</time></trkpt><trkpt lat="44.17348954659818" lon="11.341590144933392"><ele>954.0</ele><time>2026-04-10T11:12:20Z</time></trkpt><trkpt lat="44.17360648059687" lon="11.341459684116378"><ele>954.0</ele><time>2026-04-10T11:12:21Z</time></trkpt><trkpt lat="44.1737361627893" lon="11.341330095915486"><ele>954.0</ele><time>2026-04-10T11:12:22Z</time></trkpt><trkpt lat="44.17384857697849" lon="11.34119086353338"><ele>957.25</ele><time>2026-04-10T11:12:23Z</time></trkpt><trkpt lat="44.17393166052043" lon="11.341040216276692"><ele>960.5</ele><time>2026-04-10T11:12:24Z</time></trkpt><trkpt lat="44.17397798842347" lon="11.340875852519407"><ele>963.75</ele><time>2026-04-10T11:12:25Z</time></trkpt><trkpt lat="44.17397560863452" lon="11.340714559648584"><ele>967.0</ele><time>2026-04-10T11:12:26Z</time></trkpt><trkpt lat="44.173931513007716" lon="11.34055861665603"><ele>967.25</ele><time>2026-04-10T11:12:27Z</time></trkpt><trkpt lat="44.17385327077955" lon="11.340409281648892"><ele>967.5</ele><time>2026-04-10T11:12:28Z</time></trkpt><trkpt lat="44.173741852678994" lon="11.340267167758919"><ele>967.75</ele><time>2026-04-10T11:12:29.001Z</time></trkpt><trkpt lat="44.17363058067663" lon="11.340127678979663"><ele>968.0</ele><time>2026-04-10T11:12:30.001Z</time></trkpt><trkpt lat="44.173528066341845" lon="11.339988018147693"><ele>968.0</ele><time>2026-04-10T11:12:31.001Z</time></trkpt><trkpt lat="44.17343781804525" lon="11.339843457810176"><ele>968.0</ele><time>2026-04-10T11:12:32.001Z</time></trkpt><trkpt lat="44.173363767055314" lon="11.339696261895762"><ele>968.0</ele><time>2026-04-10T11:12:33.001Z</time></trkpt><trkpt lat="44.17330232614664" lon="11.339555774539694"><ele>968.0</ele><time>2026-04-10T11:12:34.001Z</time></trkpt><trkpt lat="44.173246025985286" lon="11.33942818398378"><ele>967.5000000000001</ele><time>2026-04-10T11:12:35.001Z</time></trkpt><trkpt lat="44.173192190083654" lon="11.339309504077853"><ele>967.0</ele><time>2026-04-10T11:12:36.001Z</time></trkpt><trkpt lat="44.17314065952055" lon="11.339200311203275"><ele>966.5</ele><time>2026-04-10T11:12:37.001Z</time></trkpt><trkpt lat="44.17309108254178" lon="11.339096560115488"><ele>966.0</ele><time>2026-04-10T11:12:38.001Z</time></trkpt><trkpt lat="44.173048679283056" lon="11.338995947528772"><ele>965.5000000000001</ele><time>2026-04-10T11:12:39.001Z</time></trkpt><trkpt lat="44.17301624479865" lon="11.338916215641719"><ele>965.0</ele><time>2026-04-10T11:12:40.001Z</time></trkpt><trkpt lat="44.172974562481606" lon="11.338831605287462"><ele>965.0</ele><time>2026-04-10T11:12:42.001Z</time></trkpt><trkpt lat="44.17291354087508" lon="11.338773943224046"><ele>965.0</ele><time>2026-04-10T11:12:46.001Z</time></trkpt><trkpt lat="44.172856923701055" lon="11.338814172707483"><ele>965.0</ele><time>2026-04-10T11:12:48.001Z</time></trkpt><trkpt lat="44.17280683598065" lon="11.33875118406631"><ele>965.0</ele><time>2026-04-10T11:12:52.001Z</time></trkpt><trkpt lat="44.172853692348866" lon="11.338684746917886"><ele>965.0</ele><time>2026-04-10T11:14:10Z</time></trkpt><trkpt lat="44.17281219169088" lon="11.338761425557047"><ele>965.0</ele><time>2026-04-10T11:14:45.001Z</time></trkpt><trkpt lat="44.17278762424459" lon="11.338845201003608"><ele>965.0</ele><time>2026-04-10T11:14:55.001Z</time></trkpt><trkpt lat="44.172747131987975" lon="11.338921118532863"><ele>965.0</ele><time>2026-04-10T11:15:07Z</time></trkpt><trkpt lat="44.17284290220414" lon="11.338789059411829"><ele>965.0</ele><time>2026-04-10T11:15:48.801Z</time></trkpt><trkpt lat="44.17261304429506" lon="11.339144276767074"><ele>965.0</ele><time>2026-04-10T11:18:06Z</time></trkpt><trkpt lat="44.1727638664138" lon="11.339217983196809"><ele>965.0</ele><time>2026-04-10T11:18:26.001Z</time></trkpt><trkpt lat="44.172506742805" lon="11.33959420437076"><ele>965.0</ele><time>2026-04-10T11:18:28.001Z</time></trkpt><trkpt lat="44.1727112699714" lon="11.339360056455563"><ele>965.0</ele><time>2026-04-10T11:18:30.001Z</time></trkpt><trkpt lat="44.17267798471605" lon="11.33921042621503"><ele>965.0</ele><time>2026-04-10T11:18:31.001Z</time></trkpt><trkpt lat="44.17302257385494" lon="11.339020421739052"><ele>965.0</ele><time>2026-04-10T11:20:07.001Z</time></trkpt><trkpt lat="44.17275145552489" lon="11.33917166979828"><ele>965.0</ele><time>2026-04-10T11:20:08.001Z</time></trkpt><trkpt lat="44.1727954646877" lon="11.338903353477972"><ele>964.3333333333334</ele><time>2026-04-10T11:21:12.015Z</time></trkpt><trkpt lat="44.172802153140516" lon="11.338807574934574"><ele>963.6666666666667</ele><time>2026-04-10T11:21:38.001Z</time></trkpt><trkpt lat="44.17283468066558" lon="11.338731853613131"><ele>963.0</ele><time>2026-04-10T11:21:44.001Z</time></trkpt><trkpt lat="44.17285208404347" lon="11.338644784080314"><ele>962.3333333333333</ele><time>2026-04-10T11:24:55Z</time></trkpt><trkpt lat="44.17280344453457" lon="11.338532405672643"><ele>961.6666666666666</ele><time>2026-04-10T11:24:57Z</time></trkpt><trkpt lat="44.172750811921894" lon="11.338440422298921"><ele>961.0</ele><time>2026-04-10T11:24:59Z</time></trkpt><trkpt lat="44.172687697722786" lon="11.338314278045281"><ele>961.0</ele><time>2026-04-10T11:25:01Z</time></trkpt><trkpt lat="44.17264201888798" lon="11.338212672982586"><ele>961.0</ele><time>2026-04-10T11:25:02Z</time></trkpt><trkpt lat="44.17258994363" lon="11.338095889628876"><ele>961.0</ele><time>2026-04-10T11:25:03Z</time></trkpt><trkpt lat="44.17253293309216" lon="11.337962618605383"><ele>961.0</ele><time>2026-04-10T11:25:04Z</time></trkpt><trkpt lat="44.17241463737077" lon="11.337665569313959"><ele>955.25</ele><time>2026-04-10T11:25:06Z</time></trkpt><trkpt lat="44.172354720129434" lon="11.337518852327353"><ele>949.5</ele><time>2026-04-10T11:25:07Z</time></trkpt><trkpt lat="44.17231022934269" lon="11.337365592973603"><ele>943.75</ele><time>2026-04-10T11:25:08Z</time></trkpt><trkpt lat="44.17226814767753" lon="11.337216662484597"><ele>938.0</ele><time>2026-04-10T11:25:09Z</time></trkpt><trkpt lat="44.1722631107654" lon="11.337064428980844"><ele>938.0</ele><time>2026-04-10T11:25:10Z</time></trkpt><trkpt lat="44.17226025264412" lon="11.336903331336726"><ele>938.0</ele><time>2026-04-10T11:25:11Z</time></trkpt><trkpt lat="44.17223999943149" lon="11.33674464843343"><ele>938.0</ele><time>2026-04-10T11:25:12Z</time></trkpt><trkpt lat="44.17220618401939" lon="11.336581923896501"><ele>938.0</ele><time>2026-04-10T11:25:13Z</time></trkpt><trkpt lat="44.172157245983776" lon="11.3364226534271"><ele>938.5</ele><time>2026-04-10T11:25:14Z</time></trkpt><trkpt lat="44.17209690933605" lon="11.336266583562075"><ele>939.0</ele><time>2026-04-10T11:25:15Z</time></trkpt><trkpt lat="44.17202808186981" lon="11.336116208582817"><ele>939.5</ele><time>2026-04-10T11:25:16Z</time></trkpt><trkpt lat="44.17195754401419" lon="11.33596339906105"><ele>940.0</ele><time>2026-04-10T11:25:17Z</time></trkpt><trkpt lat="44.17189188591919" lon="11.335803971902969"><ele>940.0</ele><time>2026-04-10T11:25:18Z</time></trkpt><trkpt lat="44.17182511732598" lon="11.335638322089103"><ele>940.0</ele><time>2026-04-10T11:25:19Z</time></trkpt><trkpt lat="44.17175752512891" lon="11.335470807965796"><ele>940.0</ele><time>2026-04-10T11:25:20Z</time></trkpt><trkpt lat="44.17168590144496" lon="11.33530302339558"><ele>940.0</ele><time>2026-04-10T11:25:21Z</time></trkpt><trkpt lat="44.171609376836074" lon="11.335140350727155"><ele>940.25</ele><time>2026-04-10T11:25:22Z</time></trkpt><trkpt lat="44.17152681108517" lon="11.334985196704395"><ele>940.5</ele><time>2026-04-10T11:25:23Z</time></trkpt><trkpt lat="44.17143740499156" lon="11.334834775566238"><ele>940.75</ele><time>2026-04-10T11:25:24Z</time></trkpt><trkpt lat="44.17134713043646" lon="11.334686732790011"><ele>941.0</ele><time>2026-04-10T11:25:25Z</time></trkpt><trkpt lat="44.171255546396615" lon="11.334540033687615"><ele>937.0</ele><time>2026-04-10T11:25:26Z</time></trkpt><trkpt lat="44.171165000593064" lon="11.334393496938981"><ele>933.0</ele><time>2026-04-10T11:25:27Z</time></trkpt><trkpt lat="44.17107375847948" lon="11.334246405594802"><ele>929.0</ele><time>2026-04-10T11:25:28Z</time></trkpt><trkpt lat="44.17099230856912" lon="11.334088173171551"><ele>925.0</ele><time>2026-04-10T11:25:29Z</time></trkpt><trkpt lat="44.170935908009355" lon="11.333914678639172"><ele>925.25</ele><time>2026-04-10T11:25:30Z</time></trkpt><trkpt lat="44.17090082267127" lon="11.333730240066854"><ele>925.5</ele><time>2026-04-10T11:25:31Z</time></trkpt><trkpt lat="44.170879525212904" lon="11.333545346043458"><ele>925.75</ele><time>2026-04-10T11:25:32Z</time></trkpt><trkpt lat="44.17086021458661" lon="11.333358987714902"><ele>926.0</ele><time>2026-04-10T11:25:33Z</time></trkpt><trkpt lat="44.17083241387423" lon="11.333177092688045"><ele>925.75</ele><time>2026-04-10T11:25:34Z</time></trkpt><trkpt lat="44.17079118992626" lon="11.333004749963607"><ele>925.5</ele><time>2026-04-10T11:25:35Z</time></trkpt><trkpt lat="44.17074543759096" lon="11.332843459109133"><ele>925.25</ele><time>2026-04-10T11:25:36Z</time></trkpt><trkpt lat="44.17069032716705" lon="11.3326951883802"><ele>925.0</ele><time>2026-04-10T11:25:37Z</time></trkpt><trkpt lat="44.170605179104136" lon="11.332576736697657"><ele>925.0</ele><time>2026-04-10T11:25:38Z</time></trkpt><trkpt lat="44.17049773341113" lon="11.332505784894531"><ele>925.0</ele><time>2026-04-10T11:25:39Z</time></trkpt><trkpt lat="44.17038070950274" lon="11.332497180715738"><ele>925.0</ele><time>2026-04-10T11:25:40Z</time></trkpt><trkpt lat="44.17025964756741" lon="11.332525797174943"><ele>925.0</ele><time>2026-04-10T11:25:41Z</time></trkpt><trkpt lat="44.170136074933836" lon="11.332564259550521"><ele>925.0</ele><time>2026-04-10T11:25:42Z</time></trkpt><trkpt lat="44.170011827541884" lon="11.33261158559155"><ele>925.0</ele><time>2026-04-10T11:25:43Z</time></trkpt><trkpt lat="44.16988576141305" lon="11.332664334969987"><ele>925.0</ele><time>2026-04-10T11:25:44Z</time></trkpt><trkpt lat="44.16975620512985" lon="11.332723650214325"><ele>925.0</ele><time>2026-04-10T11:25:45Z</time></trkpt><trkpt lat="44.1696269360047" lon="11.332784939380645"><ele>923.25</ele><time>2026-04-10T11:25:46Z</time></trkpt><trkpt lat="44.169495747815255" lon="11.332836728976803"><ele>921.5</ele><time>2026-04-10T11:25:47Z</time></trkpt><trkpt lat="44.16936222953387" lon="11.332876681607589"><ele>919.75</ele><time>2026-04-10T11:25:48Z</time></trkpt><trkpt lat="44.16922541847547" lon="11.33289106178888"><ele>918.0</ele><time>2026-04-10T11:25:48.999Z</time></trkpt><trkpt lat="44.169080092104046" lon="11.332877021922457"><ele>914.3333333333333</ele><time>2026-04-10T11:25:49.999Z</time></trkpt><trkpt lat="44.16893004817018" lon="11.332826066744703"><ele>910.6666666666666</ele><time>2026-04-10T11:25:50.999Z</time></trkpt><trkpt lat="44.16877556629328" lon="11.332772629667685"><ele>907.0</ele><time>2026-04-10T11:25:51.999Z</time></trkpt><trkpt lat="44.16861920065496" lon="11.332730042240566"><ele>907.0</ele><time>2026-04-10T11:25:52.999Z</time></trkpt><trkpt lat="44.16846483258206" lon="11.332683473891207"><ele>907.0</ele><time>2026-04-10T11:25:53.999Z</time></trkpt><trkpt lat="44.168316620328476" lon="11.332638018289085"><ele>907.0</ele><time>2026-04-10T11:25:54.999Z</time></trkpt><trkpt lat="44.16817854933042" lon="11.332584301381802"><ele>903.0</ele><time>2026-04-10T11:25:55.999Z</time></trkpt><trkpt lat="44.1680450084838" lon="11.33252301487913"><ele>899.0</ele><time>2026-04-10T11:25:56.999Z</time></trkpt><trkpt lat="44.16792691804096" lon="11.33247262169643"><ele>895.0</ele><time>2026-04-10T11:25:57.999Z</time></trkpt><trkpt lat="44.16780967870915" lon="11.332461216284695"><ele>891.0</ele><time>2026-04-10T11:25:58.999Z</time></trkpt><trkpt lat="44.167698970259984" lon="11.332521504733316"><ele>891.0</ele><time>2026-04-10T11:25:59.999Z</time></trkpt><trkpt lat="44.16761113054347" lon="11.332645239255793"><ele>891.0</ele><time>2026-04-10T11:26:00.999Z</time></trkpt><trkpt lat="44.16753581192802" lon="11.3327956709532"><ele>891.0</ele><time>2026-04-10T11:26:01.999Z</time></trkpt><trkpt lat="44.16744589577116" lon="11.332945122101155"><ele>891.0</ele><time>2026-04-10T11:26:02.999Z</time></trkpt><trkpt lat="44.167349148628645" lon="11.33308046035471"><ele>888.5</ele><time>2026-04-10T11:26:03.999Z</time></trkpt><trkpt lat="44.16725940446084" lon="11.333205666292914"><ele>886.0</ele><time>2026-04-10T11:26:04.999Z</time></trkpt><trkpt lat="44.16719529204449" lon="11.333323951397997"><ele>883.5</ele><time>2026-04-10T11:26:05.999Z</time></trkpt><trkpt lat="44.16714253628042" lon="11.333457477630631"><ele>881.0</ele><time>2026-04-10T11:26:06.999Z</time></trkpt><trkpt lat="44.16713811073024" lon="11.3336129767269"><ele>881.0</ele><time>2026-04-10T11:26:07.999Z</time></trkpt><trkpt lat="44.16718003291721" lon="11.333770157972527"><ele>881.0</ele><time>2026-04-10T11:26:08.999Z</time></trkpt><trkpt lat="44.16724569813414" lon="11.333904095402904"><ele>881.0</ele><time>2026-04-10T11:26:09.999Z</time></trkpt><trkpt lat="44.16731262380374" lon="11.334044918360028"><ele>881.0</ele><time>2026-04-10T11:26:10.999Z</time></trkpt><trkpt lat="44.16737758707094" lon="11.33418731292302"><ele>880.8</ele><time>2026-04-10T11:26:11.999Z</time></trkpt><trkpt lat="44.16743634265844" lon="11.334317294974282"><ele>880.5999999999999</ele><time>2026-04-10T11:26:12.999Z</time></trkpt><trkpt lat="44.16748392327075" lon="11.334438291107485"><ele>880.4</ele><time>2026-04-10T11:26:13.999Z</time></trkpt><trkpt lat="44.167501630360434" lon="11.33456491224615"><ele>880.2</ele><time>2026-04-10T11:26:14.999Z</time></trkpt><trkpt lat="44.167479126140265" lon="11.334685353819738"><ele>880.0</ele><time>2026-04-10T11:26:15.999Z</time></trkpt><trkpt lat="44.1674205860575" lon="11.334793830692693"><ele>877.0</ele><time>2026-04-10T11:26:16.999Z</time></trkpt><trkpt lat="44.16732438950342" lon="11.33487934252519"><ele>874.0</ele><time>2026-04-10T11:26:17.999Z</time></trkpt><trkpt lat="44.16722611227206" lon="11.334960565314306"><ele>871.0</ele><time>2026-04-10T11:26:18.999Z</time></trkpt><trkpt lat="44.167128528174686" lon="11.335040940155473"><ele>868.0</ele><time>2026-04-10T11:26:19.999Z</time></trkpt><trkpt lat="44.16702903195011" lon="11.335130026472093"><ele>868.0</ele><time>2026-04-10T11:26:20.999Z</time></trkpt><trkpt lat="44.16693426707996" lon="11.33521781340029"><ele>868.0</ele><time>2026-04-10T11:26:22Z</time></trkpt><trkpt lat="44.16682702386452" lon="11.33531099109461"><ele>868.0</ele><time>2026-04-10T11:26:23Z</time></trkpt><trkpt lat="44.166712200762085" lon="11.335404703695762"><ele>868.0</ele><time>2026-04-10T11:26:24Z</time></trkpt><trkpt lat="44.16659915332869" lon="11.335501584030059"><ele>866.5</ele><time>2026-04-10T11:26:25Z</time></trkpt><trkpt lat="44.16648817968224" lon="11.335604952556437"><ele>865.0</ele><time>2026-04-10T11:26:26Z</time></trkpt><trkpt lat="44.16637587476655" lon="11.335714254109611"><ele>863.5</ele><time>2026-04-10T11:26:27Z</time></trkpt><trkpt lat="44.16626641209404" lon="11.335816245789827"><ele>862.0</ele><time>2026-04-10T11:26:28Z</time></trkpt><trkpt lat="44.16615625776315" lon="11.33591412193586"><ele>862.0</ele><time>2026-04-10T11:26:29Z</time></trkpt><trkpt lat="44.166042227022025" lon="11.336007033237362"><ele>862.0</ele><time>2026-04-10T11:26:30Z</time></trkpt><trkpt lat="44.1659292119642" lon="11.33608261134108"><ele>862.0</ele><time>2026-04-10T11:26:31Z</time></trkpt><trkpt lat="44.165806581394094" lon="11.336142065550616"><ele>862.0</ele><time>2026-04-10T11:26:32Z</time></trkpt><trkpt lat="44.165689103356456" lon="11.336176553905654"><ele>860.0</ele><time>2026-04-10T11:26:33Z</time></trkpt><trkpt lat="44.16559095629315" lon="11.336172907126295"><ele>858.0</ele><time>2026-04-10T11:26:34Z</time></trkpt><trkpt lat="44.16551445878554" lon="11.336128109964818"><ele>856.0</ele><time>2026-04-10T11:26:35Z</time></trkpt><trkpt lat="44.165466703571866" lon="11.33604003193474"><ele>854.0</ele><time>2026-04-10T11:26:36Z</time></trkpt><trkpt lat="44.165453735215415" lon="11.335922899395207"><ele>852.0</ele><time>2026-04-10T11:26:37Z</time></trkpt><trkpt lat="44.165442794357936" lon="11.335777059509532"><ele>852.0</ele><time>2026-04-10T11:26:38Z</time></trkpt><trkpt lat="44.16542491529071" lon="11.335618245357292"><ele>852.0</ele><time>2026-04-10T11:26:39Z</time></trkpt><trkpt lat="44.16541070199619" lon="11.335450693242128"><ele>852.0</ele><time>2026-04-10T11:26:40Z</time></trkpt><trkpt lat="44.165392984521226" lon="11.335288069627781"><ele>852.0</ele><time>2026-04-10T11:26:41Z</time></trkpt><trkpt lat="44.16536273501719" lon="11.335117477451178"><ele>851.75</ele><time>2026-04-10T11:26:42Z</time></trkpt><trkpt lat="44.16530416007536" lon="11.334949780150096"><ele>851.5</ele><time>2026-04-10T11:26:43Z</time></trkpt><trkpt lat="44.165216615723836" lon="11.334800192746904"><ele>851.25</ele><time>2026-04-10T11:26:44Z</time></trkpt><trkpt lat="44.16512281256025" lon="11.334665473938944"><ele>851.0</ele><time>2026-04-10T11:26:45Z</time></trkpt><trkpt lat="44.1650331112027" lon="11.334531807244254"><ele>850.5</ele><time>2026-04-10T11:26:46Z</time></trkpt><trkpt lat="44.16494851167112" lon="11.334403636079667"><ele>850.0</ele><time>2026-04-10T11:26:47Z</time></trkpt><trkpt lat="44.16486413385466" lon="11.334284732307864"><ele>849.5</ele><time>2026-04-10T11:26:48Z</time></trkpt><trkpt lat="44.164785831007755" lon="11.334161457300027"><ele>849.0</ele><time>2026-04-10T11:26:49Z</time></trkpt><trkpt lat="44.164711022934" lon="11.334036740686496"><ele>849.0</ele><time>2026-04-10T11:26:50Z</time></trkpt><trkpt lat="44.16464060598021" lon="11.333897844620486"><ele>849.0</ele><time>2026-04-10T11:26:51Z</time></trkpt><trkpt lat="44.1645854537601" lon="11.333745585670842"><ele>849.0</ele><time>2026-04-10T11:26:52Z</time></trkpt><trkpt lat="44.164547437175976" lon="11.333579477347522"><ele>849.0</ele><time>2026-04-10T11:26:53Z</time></trkpt><trkpt lat="44.164521013807914" lon="11.333398568870845"><ele>848.5</ele><time>2026-04-10T11:26:54Z</time></trkpt><trkpt lat="44.16449110155978" lon="11.333226533311132"><ele>848.0</ele><time>2026-04-10T11:26:55Z</time></trkpt><trkpt lat="44.16444512146971" lon="11.333067740407028"><ele>847.5</ele><time>2026-04-10T11:26:56Z</time></trkpt><trkpt lat="44.1643611261524" lon="11.332937204806543"><ele>847.0</ele><time>2026-04-10T11:26:57Z</time></trkpt><trkpt lat="44.16425782089028" lon="11.332814584429245"><ele>847.0</ele><time>2026-04-10T11:26:58Z</time></trkpt><trkpt lat="44.1641568475089" lon="11.332676573427433"><ele>847.0</ele><time>2026-04-10T11:26:59Z</time></trkpt><trkpt lat="44.16405649019201" lon="11.332513479772564"><ele>847.0</ele><time>2026-04-10T11:27:00Z</time></trkpt><trkpt lat="44.16395872736343" lon="11.33233815941135"><ele>848.3333333333333</ele><time>2026-04-10T11:27:01Z</time></trkpt><trkpt lat="44.16387000186068" lon="11.332164687791607"><ele>849.6666666666667</ele><time>2026-04-10T11:27:02Z</time></trkpt><trkpt lat="44.16377521035719" lon="11.33200271359269"><ele>851.0</ele><time>2026-04-10T11:27:03Z</time></trkpt><trkpt lat="44.163660702573786" lon="11.331864191459733"><ele>851.0</ele><time>2026-04-10T11:27:04Z</time></trkpt><trkpt lat="44.16352998566759" lon="11.331750306669269"><ele>851.0</ele><time>2026-04-10T11:27:05Z</time></trkpt><trkpt lat="44.16339642833202" lon="11.331646103323786"><ele>851.0</ele><time>2026-04-10T11:27:06Z</time></trkpt><trkpt lat="44.16325985901191" lon="11.331541735200956"><ele>850.25</ele><time>2026-04-10T11:27:07Z</time></trkpt><trkpt lat="44.16312381950601" lon="11.331443387231442"><ele>849.5</ele><time>2026-04-10T11:27:08Z</time></trkpt><trkpt lat="44.16299779173549" lon="11.331345662441878"><ele>848.75</ele><time>2026-04-10T11:27:09Z</time></trkpt><trkpt lat="44.162887405996884" lon="11.331232403787881"><ele>848.0</ele><time>2026-04-10T11:27:10Z</time></trkpt><trkpt lat="44.162827619229354" lon="11.331095413792076"><ele>849.5</ele><time>2026-04-10T11:27:11Z</time></trkpt><trkpt lat="44.16281187831055" lon="11.33093784737111"><ele>851.0</ele><time>2026-04-10T11:27:12Z</time></trkpt><trkpt lat="44.162833498615484" lon="11.330769047777418"><ele>852.5</ele><time>2026-04-10T11:27:13Z</time></trkpt><trkpt lat="44.16286191315376" lon="11.330590629455127"><ele>854.0</ele><time>2026-04-10T11:27:14Z</time></trkpt><trkpt lat="44.16287700796136" lon="11.330410443217357"><ele>856.75</ele><time>2026-04-10T11:27:15Z</time></trkpt><trkpt lat="44.16286281962054" lon="11.330239583413368"><ele>859.5</ele><time>2026-04-10T11:27:16Z</time></trkpt><trkpt lat="44.16281076366999" lon="11.330070870578723"><ele>862.25</ele><time>2026-04-10T11:27:17Z</time></trkpt><trkpt lat="44.16272958975252" lon="11.32991246073283"><ele>865.0</ele><time>2026-04-10T11:27:18Z</time></trkpt><trkpt lat="44.16262950386243" lon="11.32978045794918"><ele>869.0</ele><time>2026-04-10T11:27:19Z</time></trkpt><trkpt lat="44.16250206421715" lon="11.329697271634352"><ele>873.0</ele><time>2026-04-10T11:27:20Z</time></trkpt><trkpt lat="44.162356908724924" lon="11.32966664360732"><ele>877.0</ele><time>2026-04-10T11:27:21Z</time></trkpt><trkpt lat="44.16220567005837" lon="11.329666249782996"><ele>881.0</ele><time>2026-04-10T11:27:22Z</time></trkpt><trkpt lat="44.16205988659281" lon="11.329667835195334"><ele>881.0</ele><time>2026-04-10T11:27:23Z</time></trkpt><trkpt lat="44.16191583221208" lon="11.329634310220502"><ele>881.0</ele><time>2026-04-10T11:27:24Z</time></trkpt><trkpt lat="44.16177401265543" lon="11.329572120114639"><ele>881.0</ele><time>2026-04-10T11:27:25Z</time></trkpt><trkpt lat="44.16164541264743" lon="11.329500117504617"><ele>881.0</ele><time>2026-04-10T11:27:26Z</time></trkpt><trkpt lat="44.161536154844896" lon="11.32941914045577"><ele>881.25</ele><time>2026-04-10T11:27:27Z</time></trkpt><trkpt lat="44.16144189475105" lon="11.329314007764173"><ele>881.5</ele><time>2026-04-10T11:27:28Z</time></trkpt><trkpt lat="44.161367529877616" lon="11.329173908599358"><ele>881.75</ele><time>2026-04-10T11:27:29Z</time></trkpt><trkpt lat="44.16132162403134" lon="11.328995094795701"><ele>882.0</ele><time>2026-04-10T11:27:30Z</time></trkpt><trkpt lat="44.16129587102674" lon="11.328798444585775"><ele>882.0</ele><time>2026-04-10T11:27:31Z</time></trkpt><trkpt lat="44.16126633121774" lon="11.328590964241288"><ele>882.0</ele><time>2026-04-10T11:27:32Z</time></trkpt><trkpt lat="44.16123881051691" lon="11.328392299243124"><ele>882.0</ele><time>2026-04-10T11:27:33Z</time></trkpt><trkpt lat="44.16120788867928" lon="11.328210941340515"><ele>882.0</ele><time>2026-04-10T11:27:34Z</time></trkpt><trkpt lat="44.161172099851385" lon="11.328040960977606"><ele>882.3333333333333</ele><time>2026-04-10T11:27:35Z</time></trkpt><trkpt lat="44.16112913323183" lon="11.32785102923679"><ele>882.6666666666666</ele><time>2026-04-10T11:27:36Z</time></trkpt><trkpt lat="44.1610751164199" lon="11.327646158199286"><ele>883.0</ele><time>2026-04-10T11:27:37Z</time></trkpt><trkpt lat="44.16100458965934" lon="11.3274235560243"><ele>884.6666666666666</ele><time>2026-04-10T11:27:38Z</time></trkpt><trkpt lat="44.16091823514222" lon="11.327195918692446"><ele>886.3333333333333</ele><time>2026-04-10T11:27:39Z</time></trkpt><trkpt lat="44.16081343629979" lon="11.32696363523926"><ele>888.0</ele><time>2026-04-10T11:27:40Z</time></trkpt><trkpt lat="44.1607095218076" lon="11.326729144260383"><ele>886.0</ele><time>2026-04-10T11:27:41Z</time></trkpt><trkpt lat="44.16061402414809" lon="11.326486773151036"><ele>884.0</ele><time>2026-04-10T11:27:42Z</time></trkpt><trkpt lat="44.160521924342305" lon="11.326239736456857"><ele>882.0</ele><time>2026-04-10T11:27:43Z</time></trkpt><trkpt lat="44.160431130373745" lon="11.32598307341542"><ele>882.0</ele><time>2026-04-10T11:27:44Z</time></trkpt><trkpt lat="44.16034431208175" lon="11.325720353952894"><ele>882.0</ele><time>2026-04-10T11:27:45Z</time></trkpt><trkpt lat="44.16026359918725" lon="11.325454730967817"><ele>882.0</ele><time>2026-04-10T11:27:46Z</time></trkpt><trkpt lat="44.16019029512673" lon="11.325192133239861"><ele>884.6666666666667</ele><time>2026-04-10T11:27:47Z</time></trkpt><trkpt lat="44.16012390801108" lon="11.324947428341368"><ele>887.3333333333334</ele><time>2026-04-10T11:27:48Z</time></trkpt><trkpt lat="44.16006236403296" lon="11.324715659572687"><ele>890.0</ele><time>2026-04-10T11:27:49Z</time></trkpt><trkpt lat="44.15999846812134" lon="11.32448694164074"><ele>890.3333333333334</ele><time>2026-04-10T11:27:50Z</time></trkpt><trkpt lat="44.15994188165862" lon="11.324275475496208"><ele>890.6666666666667</ele><time>2026-04-10T11:27:51Z</time></trkpt><trkpt lat="44.159871644001996" lon="11.324076213813912"><ele>891.0</ele><time>2026-04-10T11:27:52Z</time></trkpt><trkpt lat="44.15976866307438" lon="11.323910710934339"><ele>893.6666666666667</ele><time>2026-04-10T11:27:53Z</time></trkpt><trkpt lat="44.15964645476165" lon="11.323776656572496"><ele>896.3333333333334</ele><time>2026-04-10T11:27:54Z</time></trkpt><trkpt lat="44.15950854235332" lon="11.323665366732792"><ele>899.0</ele><time>2026-04-10T11:27:54.998Z</time></trkpt><trkpt lat="44.1593622136995" lon="11.323566334135057"><ele>899.0</ele><time>2026-04-10T11:27:55.998Z</time></trkpt><trkpt lat="44.1592186698433" lon="11.323452530429059"><ele>899.0</ele><time>2026-04-10T11:27:56.998Z</time></trkpt><trkpt lat="44.15908058150328" lon="11.32336119649993"><ele>899.0</ele><time>2026-04-10T11:27:57.998Z</time></trkpt><trkpt lat="44.15896048923302" lon="11.323242688570023"><ele>898.0</ele><time>2026-04-10T11:27:58.998Z</time></trkpt><trkpt lat="44.15884715839056" lon="11.323093954036933"><ele>897.0</ele><time>2026-04-10T11:27:59.998Z</time></trkpt><trkpt lat="44.158716152049905" lon="11.322959391778337"><ele>896.0</ele><time>2026-04-10T11:28:00.998Z</time></trkpt><trkpt lat="44.15857287945581" lon="11.3228302298459"><ele>899.0</ele><time>2026-04-10T11:28:01.998Z</time></trkpt><trkpt lat="44.1584111855003" lon="11.322718903430566"><ele>902.0</ele><time>2026-04-10T11:28:02.998Z</time></trkpt><trkpt lat="44.15825260175743" lon="11.322641507735993"><ele>905.0</ele><time>2026-04-10T11:28:03.998Z</time></trkpt><trkpt lat="44.15809818673017" lon="11.322629737352843"><ele>905.3333333333334</ele><time>2026-04-10T11:28:04.999Z</time></trkpt><trkpt lat="44.15793989365994" lon="11.322681163868543"><ele>905.6666666666667</ele><time>2026-04-10T11:28:05.999Z</time></trkpt><trkpt lat="44.15779550450672" lon="11.322789277241384"><ele>906.0</ele><time>2026-04-10T11:28:06.999Z</time></trkpt><trkpt lat="44.15766619929496" lon="11.322936332685531"><ele>904.75</ele><time>2026-04-10T11:28:07.999Z</time></trkpt><trkpt lat="44.15755700490298" lon="11.323081756498738"><ele>903.5</ele><time>2026-04-10T11:28:08.999Z</time></trkpt><trkpt lat="44.157447639891544" lon="11.3231996908166"><ele>902.25</ele><time>2026-04-10T11:28:09.999Z</time></trkpt><trkpt lat="44.15732071675492" lon="11.323292029300388"><ele>901.0</ele><time>2026-04-10T11:28:10.999Z</time></trkpt><trkpt lat="44.15718140062058" lon="11.32335984503706"><ele>901.0</ele><time>2026-04-10T11:28:11.999Z</time></trkpt><trkpt lat="44.157042075179795" lon="11.32340538036066"><ele>901.0</ele><time>2026-04-10T11:28:12.999Z</time></trkpt><trkpt lat="44.156904696171175" lon="11.323405252072948"><ele>901.0</ele><time>2026-04-10T11:28:13.999Z</time></trkpt><trkpt lat="44.156759688778784" lon="11.323354666049552"><ele>901.0</ele><time>2026-04-10T11:28:14.999Z</time></trkpt><trkpt lat="44.156610041782415" lon="11.323272778667041"><ele>900.3333333333333</ele><time>2026-04-10T11:28:15.999Z</time></trkpt><trkpt lat="44.156460374748534" lon="11.323202618338184"><ele>899.6666666666667</ele><time>2026-04-10T11:28:16.999Z</time></trkpt><trkpt lat="44.156317940479504" lon="11.323157225317932"><ele>899.0</ele><time>2026-04-10T11:28:17.999Z</time></trkpt><trkpt lat="44.15616175397199" lon="11.323145985772458"><ele>899.0</ele><time>2026-04-10T11:28:18.999Z</time></trkpt><trkpt lat="44.15600404922877" lon="11.32319347156488"><ele>899.0</ele><time>2026-04-10T11:28:19.999Z</time></trkpt><trkpt lat="44.15585452703926" lon="11.323283267298198"><ele>899.0</ele><time>2026-04-10T11:28:20.999Z</time></trkpt><trkpt lat="44.15572120660245" lon="11.32342050147811"><ele>897.6666666666667</ele><time>2026-04-10T11:28:21.999Z</time></trkpt><trkpt lat="44.15560811379799" lon="11.323598086620683"><ele>896.3333333333333</ele><time>2026-04-10T11:28:22.999Z</time></trkpt><trkpt lat="44.15551139860782" lon="11.323785995803838"><ele>895.0</ele><time>2026-04-10T11:28:23.999Z</time></trkpt><trkpt lat="44.155411258433574" lon="11.323973080281498"><ele>895.0</ele><time>2026-04-10T11:28:24.999Z</time></trkpt><trkpt lat="44.15528670353831" lon="11.324132070910766"><ele>895.0</ele><time>2026-04-10T11:28:25.999Z</time></trkpt><trkpt lat="44.155155564278694" lon="11.324264995925672"><ele>895.0</ele><time>2026-04-10T11:28:26.999Z</time></trkpt><trkpt lat="44.15502001564242" lon="11.324390701913257"><ele>895.0</ele><time>2026-04-10T11:28:27.999Z</time></trkpt><trkpt lat="44.1549020896631" lon="11.32454181401877"><ele>895.0</ele><time>2026-04-10T11:28:28.999Z</time></trkpt><trkpt lat="44.15481341672986" lon="11.32471779264293"><ele>895.0</ele><time>2026-04-10T11:28:29.999Z</time></trkpt><trkpt lat="44.15474049461653" lon="11.324893003879403"><ele>894.0</ele><time>2026-04-10T11:28:30.999Z</time></trkpt><trkpt lat="44.15465780307089" lon="11.325047020916738"><ele>893.0</ele><time>2026-04-10T11:28:31.999Z</time></trkpt><trkpt lat="44.154543720488284" lon="11.325145505243421"><ele>892.0</ele><time>2026-04-10T11:28:32.999Z</time></trkpt><trkpt lat="44.15440015595056" lon="11.325173871116016"><ele>891.0</ele><time>2026-04-10T11:28:33.999Z</time></trkpt><trkpt lat="44.15424783431898" lon="11.32513883107079"><ele>891.0</ele><time>2026-04-10T11:28:34.999Z</time></trkpt><trkpt lat="44.15409007448937" lon="11.325090285179092"><ele>891.0</ele><time>2026-04-10T11:28:35.999Z</time></trkpt><trkpt lat="44.15393834215229" lon="11.3250268559598"><ele>891.0</ele><time>2026-04-10T11:28:36.999Z</time></trkpt><trkpt lat="44.15380009442421" lon="11.32493294867907"><ele>892.6666666666667</ele><time>2026-04-10T11:28:37.999Z</time></trkpt><trkpt lat="44.15366456722017" lon="11.324809395609783"><ele>894.3333333333334</ele><time>2026-04-10T11:28:38.999Z</time></trkpt><trkpt lat="44.153528392573705" lon="11.324682285248999"><ele>896.0</ele><time>2026-04-10T11:28:39.999Z</time></trkpt><trkpt lat="44.15339255886436" lon="11.324570233825245"><ele>896.0</ele><time>2026-04-10T11:28:40.999Z</time></trkpt><trkpt lat="44.15324953083478" lon="11.324476609996076"><ele>896.0</ele><time>2026-04-10T11:28:41.999Z</time></trkpt><trkpt lat="44.153099820685945" lon="11.32441681214653"><ele>896.0</ele><time>2026-04-10T11:28:43Z</time></trkpt><trkpt lat="44.152948289531075" lon="11.324399474715646"><ele>898.6666666666667</ele><time>2026-04-10T11:28:44Z</time></trkpt><trkpt lat="44.15280653481628" lon="11.324436074512773"><ele>901.3333333333333</ele><time>2026-04-10T11:28:45Z</time></trkpt><trkpt lat="44.15267162690733" lon="11.324536142611601"><ele>904.0</ele><time>2026-04-10T11:28:46Z</time></trkpt><trkpt lat="44.15253421755847" lon="11.324658799254081"><ele>902.3333333333333</ele><time>2026-04-10T11:28:47Z</time></trkpt><trkpt lat="44.15238970089328" lon="11.324788868151181"><ele>900.6666666666667</ele><time>2026-04-10T11:28:48Z</time></trkpt><trkpt lat="44.152235444606355" lon="11.324917061111517"><ele>899.0</ele><time>2026-04-10T11:28:49Z</time></trkpt><trkpt lat="44.15207730210458" lon="11.325049451596726"><ele>899.0</ele><time>2026-04-10T11:28:50Z</time></trkpt><trkpt lat="44.15192007885448" lon="11.32518574248268"><ele>899.0</ele><time>2026-04-10T11:28:51Z</time></trkpt><trkpt lat="44.15176533636808" lon="11.325317588525841"><ele>899.0</ele><time>2026-04-10T11:28:52Z</time></trkpt><trkpt lat="44.15161265256004" lon="11.325443967661261"><ele>895.0</ele><time>2026-04-10T11:28:53Z</time></trkpt><trkpt lat="44.151462026340575" lon="11.325569007792863"><ele>891.0</ele><time>2026-04-10T11:28:54Z</time></trkpt><trkpt lat="44.15131400165545" lon="11.325687693234515"><ele>887.0</ele><time>2026-04-10T11:28:55Z</time></trkpt><trkpt lat="44.15116011000745" lon="11.325782390753702"><ele>887.0</ele><time>2026-04-10T11:28:56Z</time></trkpt><trkpt lat="44.150997462019234" lon="11.325844766095218"><ele>887.0</ele><time>2026-04-10T11:28:57Z</time></trkpt><trkpt lat="44.15082384026956" lon="11.325867389655375"><ele>887.0</ele><time>2026-04-10T11:28:58Z</time></trkpt><trkpt lat="44.150644738589214" lon="11.325864143794398"><ele>890.0</ele><time>2026-04-10T11:28:59Z</time></trkpt><trkpt lat="44.15045493717649" lon="11.325854577594543"><ele>893.0</ele><time>2026-04-10T11:29:00Z</time></trkpt><trkpt lat="44.15027413433374" lon="11.325852355368125"><ele>896.0</ele><time>2026-04-10T11:29:01Z</time></trkpt><trkpt lat="44.15010498007187" lon="11.325852206850193"><ele>896.0</ele><time>2026-04-10T11:29:02Z</time></trkpt><trkpt lat="44.149939347116096" lon="11.325852242686205"><ele>896.0</ele><time>2026-04-10T11:29:03Z</time></trkpt><trkpt lat="44.14978279548655" lon="11.32585176462921"><ele>896.0</ele><time>2026-04-10T11:29:04Z</time></trkpt><trkpt lat="44.14963743796024" lon="11.325871146122667"><ele>900.0</ele><time>2026-04-10T11:29:05Z</time></trkpt><trkpt lat="44.14950364728791" lon="11.325931014012783"><ele>904.0</ele><time>2026-04-10T11:29:06Z</time></trkpt><trkpt lat="44.14937516031913" lon="11.326048766723378"><ele>908.0</ele><time>2026-04-10T11:29:07Z</time></trkpt><trkpt lat="44.149248816548216" lon="11.326198478902077"><ele>908.0</ele><time>2026-04-10T11:29:08Z</time></trkpt><trkpt lat="44.149117977453386" lon="11.326352920382318"><ele>908.0</ele><time>2026-04-10T11:29:09Z</time></trkpt><trkpt lat="44.148981812404635" lon="11.326513750618187"><ele>908.0</ele><time>2026-04-10T11:29:10Z</time></trkpt><trkpt lat="44.148858248116575" lon="11.326675655290499"><ele>907.0</ele><time>2026-04-10T11:29:11Z</time></trkpt><trkpt lat="44.148744027854086" lon="11.326836305270408"><ele>906.0</ele><time>2026-04-10T11:29:12Z</time></trkpt><trkpt lat="44.148634650894884" lon="11.326995917734058"><ele>905.0</ele><time>2026-04-10T11:29:13Z</time></trkpt><trkpt lat="44.14852558207394" lon="11.32715212056186"><ele>900.25</ele><time>2026-04-10T11:29:14Z</time></trkpt><trkpt lat="44.1484055308046" lon="11.327289326879983"><ele>895.5</ele><time>2026-04-10T11:29:15Z</time></trkpt><trkpt lat="44.14828276573069" lon="11.327403900794996"><ele>890.75</ele><time>2026-04-10T11:29:16Z</time></trkpt><trkpt lat="44.14815335093921" lon="11.327483881620873"><ele>886.0</ele><time>2026-04-10T11:29:17Z</time></trkpt><trkpt lat="44.148017256153416" lon="11.327473025154035"><ele>886.0</ele><time>2026-04-10T11:29:18Z</time></trkpt><trkpt lat="44.14787635814721" lon="11.32740596094951"><ele>886.0</ele><time>2026-04-10T11:29:19Z</time></trkpt><trkpt lat="44.1477309891569" lon="11.327298064637338"><ele>886.0</ele><time>2026-04-10T11:29:20Z</time></trkpt><trkpt lat="44.14756912337892" lon="11.327199258911074"><ele>887.6666666666666</ele><time>2026-04-10T11:29:21Z</time></trkpt><trkpt lat="44.14739753152772" lon="11.327148678194517"><ele>889.3333333333333</ele><time>2026-04-10T11:29:22Z</time></trkpt><trkpt lat="44.14722765259438" lon="11.327141495063033"><ele>891.0</ele><time>2026-04-10T11:29:23Z</time></trkpt><trkpt lat="44.14705596742173" lon="11.327167567897689"><ele>891.0</ele><time>2026-04-10T11:29:24Z</time></trkpt><trkpt lat="44.14689606871751" lon="11.32719155815856"><ele>891.0</ele><time>2026-04-10T11:29:25Z</time></trkpt><trkpt lat="44.14674229772055" lon="11.327176685530512"><ele>891.0</ele><time>2026-04-10T11:29:26Z</time></trkpt><trkpt lat="44.14658170894511" lon="11.327112802716622"><ele>887.0</ele><time>2026-04-10T11:29:27Z</time></trkpt><trkpt lat="44.14641793920506" lon="11.327016285108503"><ele>883.0</ele><time>2026-04-10T11:29:28Z</time></trkpt><trkpt lat="44.14625809924229" lon="11.326901865197675"><ele>879.0</ele><time>2026-04-10T11:29:29Z</time></trkpt><trkpt lat="44.14610673419129" lon="11.326787231971977"><ele>879.0</ele><time>2026-04-10T11:29:30Z</time></trkpt><trkpt lat="44.14594910743852" lon="11.326686083360585"><ele>879.0</ele><time>2026-04-10T11:29:31Z</time></trkpt><trkpt lat="44.14578601634111" lon="11.326601446814443"><ele>879.0</ele><time>2026-04-10T11:29:32Z</time></trkpt><trkpt lat="44.14561553232892" lon="11.326558782411288"><ele>879.6666666666667</ele><time>2026-04-10T11:29:33Z</time></trkpt><trkpt lat="44.14543542218471" lon="11.326561903045352"><ele>880.3333333333334</ele><time>2026-04-10T11:29:34Z</time></trkpt><trkpt lat="44.14526256066969" lon="11.326601441126428"><ele>881.0</ele><time>2026-04-10T11:29:35Z</time></trkpt><trkpt lat="44.14510639612636" lon="11.326676207452397"><ele>881.0</ele><time>2026-04-10T11:29:36Z</time></trkpt><trkpt lat="44.14497054503856" lon="11.326785788722928"><ele>881.0</ele><time>2026-04-10T11:29:37Z</time></trkpt><trkpt lat="44.1448597957339" lon="11.326928807592033"><ele>881.0</ele><time>2026-04-10T11:29:38Z</time></trkpt><trkpt lat="44.144780494969325" lon="11.32709824022063"><ele>878.5</ele><time>2026-04-10T11:29:39Z</time></trkpt><trkpt lat="44.14471421332392" lon="11.327265154244266"><ele>876.0</ele><time>2026-04-10T11:29:40Z</time></trkpt><trkpt lat="44.14462699304209" lon="11.327409852577823"><ele>873.5</ele><time>2026-04-10T11:29:41Z</time></trkpt><trkpt lat="44.144507609791205" lon="11.327501793803416"><ele>871.0</ele><time>2026-04-10T11:29:42Z</time></trkpt><trkpt lat="44.14436420928188" lon="11.327522421366826"><ele>871.0</ele><time>2026-04-10T11:29:43Z</time></trkpt><trkpt lat="44.14421920557443" lon="11.327461717156067"><ele>871.0</ele><time>2026-04-10T11:29:44Z</time></trkpt><trkpt lat="44.14406086708646" lon="11.327373060537221"><ele>871.0</ele><time>2026-04-10T11:29:45Z</time></trkpt><trkpt lat="44.143893890145044" lon="11.327287520609786"><ele>874.3333333333333</ele><time>2026-04-10T11:29:46Z</time></trkpt><trkpt lat="44.14373296808303" lon="11.32720601030939"><ele>877.6666666666667</ele><time>2026-04-10T11:29:47Z</time></trkpt><trkpt lat="44.14357048092921" lon="11.327141050399527"><ele>881.0</ele><time>2026-04-10T11:29:48Z</time></trkpt><trkpt lat="44.14339486619788" lon="11.327115091476818"><ele>878.0</ele><time>2026-04-10T11:29:49Z</time></trkpt><trkpt lat="44.14320783088676" lon="11.327126212866286"><ele>875.0</ele><time>2026-04-10T11:29:50Z</time></trkpt><trkpt lat="44.14302527579832" lon="11.327145150379561"><ele>872.0</ele><time>2026-04-10T11:29:51Z</time></trkpt><trkpt lat="44.142847684189995" lon="11.327171888148737"><ele>872.0</ele><time>2026-04-10T11:29:52Z</time></trkpt><trkpt lat="44.14267249708909" lon="11.327218720351786"><ele>872.0</ele><time>2026-04-10T11:29:53Z</time></trkpt><trkpt lat="44.14250130588338" lon="11.327281752374597"><ele>872.0</ele><time>2026-04-10T11:29:54Z</time></trkpt><trkpt lat="44.142336137727234" lon="11.32737181097361"><ele>869.6666666666667</ele><time>2026-04-10T11:29:55Z</time></trkpt><trkpt lat="44.14217905442958" lon="11.327488106841164"><ele>867.3333333333333</ele><time>2026-04-10T11:29:56Z</time></trkpt><trkpt lat="44.14202847640658" lon="11.327617934786632"><ele>865.0</ele><time>2026-04-10T11:29:57Z</time></trkpt><trkpt lat="44.14187995216654" lon="11.327734484619361"><ele>865.0</ele><time>2026-04-10T11:29:58Z</time></trkpt><trkpt lat="44.14173725950587" lon="11.327847655329517"><ele>865.0</ele><time>2026-04-10T11:29:59Z</time></trkpt><trkpt lat="44.14159867307654" lon="11.327960673018453"><ele>865.0</ele><time>2026-04-10T11:30:00Z</time></trkpt><trkpt lat="44.14146140118037" lon="11.328071820611695"><ele>863.0</ele><time>2026-04-10T11:30:00.999Z</time></trkpt><trkpt lat="44.141322824717" lon="11.328181231565909"><ele>861.0</ele><time>2026-04-10T11:30:01.999Z</time></trkpt><trkpt lat="44.14118768977848" lon="11.328287997880906"><ele>859.0</ele><time>2026-04-10T11:30:02.999Z</time></trkpt><trkpt lat="44.14105952559172" lon="11.328400581482274"><ele>859.0</ele><time>2026-04-10T11:30:03.999Z</time></trkpt><trkpt lat="44.14093965631281" lon="11.328510677417308"><ele>859.0</ele><time>2026-04-10T11:30:04.999Z</time></trkpt><trkpt lat="44.14082928232985" lon="11.328577556235935"><ele>859.0</ele><time>2026-04-10T11:30:05.999Z</time></trkpt><trkpt lat="44.140719261745815" lon="11.328571831539037"><ele>859.0</ele><time>2026-04-10T11:30:06.999Z</time></trkpt><trkpt lat="44.140613699760635" lon="11.328486089378785"><ele>855.25</ele><time>2026-04-10T11:30:07.999Z</time></trkpt><trkpt lat="44.14052995430582" lon="11.328340355343856"><ele>851.5</ele><time>2026-04-10T11:30:08.999Z</time></trkpt><trkpt lat="44.140490066766866" lon="11.328146778956024"><ele>847.75</ele><time>2026-04-10T11:30:09.999Z</time></trkpt><trkpt lat="44.14047219191243" lon="11.327955202642736"><ele>844.0</ele><time>2026-04-10T11:30:10.999Z</time></trkpt><trkpt lat="44.14048255054195" lon="11.327784971718412"><ele>844.0</ele><time>2026-04-10T11:30:11.999Z</time></trkpt><trkpt lat="44.14052656522947" lon="11.327629917532672"><ele>844.0</ele><time>2026-04-10T11:30:12.999Z</time></trkpt><trkpt lat="44.1406112802375" lon="11.32748499799336"><ele>844.0</ele><time>2026-04-10T11:30:13.999Z</time></trkpt><trkpt lat="44.14073237962389" lon="11.327395604820678"><ele>844.0</ele><time>2026-04-10T11:30:14.999Z</time></trkpt><trkpt lat="44.14084206459459" lon="11.32728820454154"><ele>844.5</ele><time>2026-04-10T11:30:15.999Z</time></trkpt><trkpt lat="44.14095501193521" lon="11.327197282784791"><ele>845.0</ele><time>2026-04-10T11:30:16.999Z</time></trkpt><trkpt lat="44.14106178524381" lon="11.327106917949601"><ele>845.5</ele><time>2026-04-10T11:30:18Z</time></trkpt><trkpt lat="44.14115963007713" lon="11.32701553825155"><ele>846.0</ele><time>2026-04-10T11:30:19Z</time></trkpt><trkpt lat="44.141237248305195" lon="11.32690820585341"><ele>846.0</ele><time>2026-04-10T11:30:20Z</time></trkpt><trkpt lat="44.14128848517434" lon="11.326773195943032"><ele>846.0</ele><time>2026-04-10T11:30:21Z</time></trkpt><trkpt lat="44.14131211710843" lon="11.326616891898379"><ele>846.0</ele><time>2026-04-10T11:30:22Z</time></trkpt><trkpt lat="44.14130020934001" lon="11.326449812473193"><ele>846.0</ele><time>2026-04-10T11:30:23Z</time></trkpt><trkpt lat="44.14127488145341" lon="11.3262968529597"><ele>846.0</ele><time>2026-04-10T11:30:24Z</time></trkpt><trkpt lat="44.14123991638148" lon="11.326159386516332"><ele>846.0</ele><time>2026-04-10T11:30:25Z</time></trkpt><trkpt lat="44.141201929685536" lon="11.326028610389688"><ele>846.0</ele><time>2026-04-10T11:30:26Z</time></trkpt><trkpt lat="44.14116320819281" lon="11.325908958939563"><ele>846.0</ele><time>2026-04-10T11:30:27Z</time></trkpt><trkpt lat="44.14112499897053" lon="11.325802571057023"><ele>846.0</ele><time>2026-04-10T11:30:28Z</time></trkpt><trkpt lat="44.14108864003488" lon="11.325700373532804"><ele>846.0</ele><time>2026-04-10T11:30:29Z</time></trkpt><trkpt lat="44.141058540852256" lon="11.325598361798631"><ele>846.0</ele><time>2026-04-10T11:30:30Z</time></trkpt><trkpt lat="44.14103541185965" lon="11.325490719933404"><ele>846.0</ele><time>2026-04-10T11:30:31Z</time></trkpt><trkpt lat="44.141028380583926" lon="11.325354642726479"><ele>846.0</ele><time>2026-04-10T11:30:32Z</time></trkpt><trkpt lat="44.14107201403747" lon="11.325191801358802"><ele>846.0</ele><time>2026-04-10T11:30:33Z</time></trkpt><trkpt lat="44.14112422712948" lon="11.325004165034684"><ele>845.3333333333333</ele><time>2026-04-10T11:30:34Z</time></trkpt><trkpt lat="44.14117192910887" lon="11.32478682294201"><ele>844.6666666666666</ele><time>2026-04-10T11:30:35Z</time></trkpt><trkpt lat="44.14121356288858" lon="11.324557115874102"><ele>844.0</ele><time>2026-04-10T11:30:36Z</time></trkpt><trkpt lat="44.14124474491018" lon="11.324335969591464"><ele>843.25</ele><time>2026-04-10T11:30:37Z</time></trkpt><trkpt lat="44.14124624909369" lon="11.32413311838878"><ele>842.5</ele><time>2026-04-10T11:30:38Z</time></trkpt><trkpt lat="44.14125734263703" lon="11.323922650361313"><ele>841.75</ele><time>2026-04-10T11:30:39Z</time></trkpt><trkpt lat="44.14124437166073" lon="11.323724671860209"><ele>841.0</ele><time>2026-04-10T11:30:40Z</time></trkpt><trkpt lat="44.14120799627542" lon="11.323536380347598"><ele>841.0</ele><time>2026-04-10T11:30:41Z</time></trkpt><trkpt lat="44.14114452860844" lon="11.323356180246687"><ele>841.0</ele><time>2026-04-10T11:30:42Z</time></trkpt><trkpt lat="44.14108354872088" lon="11.323168532594506"><ele>841.0</ele><time>2026-04-10T11:30:43Z</time></trkpt><trkpt lat="44.1410123396101" lon="11.322980289976465"><ele>841.0</ele><time>2026-04-10T11:30:44Z</time></trkpt><trkpt lat="44.140925412562076" lon="11.322795982639567"><ele>840.25</ele><time>2026-04-10T11:30:45Z</time></trkpt><trkpt lat="44.14085925696276" lon="11.322611473173739"><ele>839.5</ele><time>2026-04-10T11:30:46Z</time></trkpt><trkpt lat="44.14079237607384" lon="11.322422121562205"><ele>838.75</ele><time>2026-04-10T11:30:47Z</time></trkpt><trkpt lat="44.140727997995036" lon="11.322237554394883"><ele>838.0</ele><time>2026-04-10T11:30:48Z</time></trkpt><trkpt lat="44.14066617892892" lon="11.322058486094756"><ele>838.0</ele><time>2026-04-10T11:30:49Z</time></trkpt><trkpt lat="44.14060243534104" lon="11.321893395415964"><ele>838.0</ele><time>2026-04-10T11:30:50Z</time></trkpt><trkpt lat="44.14051541203888" lon="11.321766532807574"><ele>838.0</ele><time>2026-04-10T11:30:51Z</time></trkpt><trkpt lat="44.140401122423214" lon="11.321702207567553"><ele>838.0</ele><time>2026-04-10T11:30:52Z</time></trkpt><trkpt lat="44.140266539652295" lon="11.321686601777937"><ele>838.0</ele><time>2026-04-10T11:30:53Z</time></trkpt><trkpt lat="44.14013946073223" lon="11.321670831537165"><ele>838.0</ele><time>2026-04-10T11:30:54Z</time></trkpt><trkpt lat="44.14002026502577" lon="11.32165143873295"><ele>838.0</ele><time>2026-04-10T11:30:55Z</time></trkpt><trkpt lat="44.13990554649756" lon="11.321599712256837"><ele>838.0</ele><time>2026-04-10T11:30:56Z</time></trkpt><trkpt lat="44.13978940272897" lon="11.32150699460903"><ele>835.3333333333333</ele><time>2026-04-10T11:30:57Z</time></trkpt><trkpt lat="44.139680597872626" lon="11.321361025329015"><ele>832.6666666666667</ele><time>2026-04-10T11:30:58Z</time></trkpt><trkpt lat="44.1395690802146" lon="11.321182681206158"><ele>830.0</ele><time>2026-04-10T11:30:59Z</time></trkpt><trkpt lat="44.13945450483858" lon="11.321025887900815"><ele>830.0</ele><time>2026-04-10T11:31:00Z</time></trkpt><trkpt lat="44.139340371821916" lon="11.32088151000065"><ele>830.0</ele><time>2026-04-10T11:31:01Z</time></trkpt><trkpt lat="44.139220459698734" lon="11.320745684513966"><ele>830.0</ele><time>2026-04-10T11:31:02Z</time></trkpt><trkpt lat="44.13909670382839" lon="11.32063643820986"><ele>828.25</ele><time>2026-04-10T11:31:03Z</time></trkpt><trkpt lat="44.138967965478294" lon="11.320548055266233"><ele>826.5</ele><time>2026-04-10T11:31:04Z</time></trkpt><trkpt lat="44.13885832395775" lon="11.320459832023587"><ele>824.75</ele><time>2026-04-10T11:31:05Z</time></trkpt><trkpt lat="44.13879428880674" lon="11.320382159953896"><ele>823.0</ele><time>2026-04-10T11:31:06Z</time></trkpt><trkpt lat="44.1387282617719" lon="11.320269583846983"><ele>823.0</ele><time>2026-04-10T11:31:08Z</time></trkpt><trkpt lat="44.13869290544266" lon="11.320133811552644"><ele>823.0</ele><time>2026-04-10T11:31:10Z</time></trkpt><trkpt lat="44.138518845364615" lon="11.320182843200852"><ele>823.0</ele><time>2026-04-10T11:31:11Z</time></trkpt><trkpt lat="44.138400544808015" lon="11.320195867356881"><ele>823.0</ele><time>2026-04-10T11:31:12Z</time></trkpt><trkpt lat="44.138271618705105" lon="11.320195838081492"><ele>820.0</ele><time>2026-04-10T11:31:13Z</time></trkpt><trkpt lat="44.138140155400265" lon="11.3201862353959"><ele>817.0</ele><time>2026-04-10T11:31:14Z</time></trkpt><trkpt lat="44.138009997217345" lon="11.320185947739152"><ele>814.0</ele><time>2026-04-10T11:31:15Z</time></trkpt><trkpt lat="44.13788412621487" lon="11.320179870982507"><ele>811.0</ele><time>2026-04-10T11:31:16Z</time></trkpt><trkpt lat="44.13777012147246" lon="11.320175829371221"><ele>810.9999999999999</ele><time>2026-04-10T11:31:17Z</time></trkpt><trkpt lat="44.13766794688566" lon="11.320183926779169"><ele>811.0</ele><time>2026-04-10T11:31:18Z</time></trkpt><trkpt lat="44.1375987391768" lon="11.320226187947155"><ele>811.0</ele><time>2026-04-10T11:31:19Z</time></trkpt><trkpt lat="44.13756383685193" lon="11.320318195815616"><ele>811.0</ele><time>2026-04-10T11:31:20Z</time></trkpt><trkpt lat="44.137579186215426" lon="11.320428288520718"><ele>810.9999999999999</ele><time>2026-04-10T11:31:21Z</time></trkpt><trkpt lat="44.137643419617525" lon="11.32051651911475"><ele>811.0</ele><time>2026-04-10T11:31:22Z</time></trkpt><trkpt lat="44.13775808458211" lon="11.320574199648483"><ele>810.25</ele><time>2026-04-10T11:31:23Z</time></trkpt><trkpt lat="44.13788629462901" lon="11.320626099021684"><ele>809.5</ele><time>2026-04-10T11:31:24Z</time></trkpt><trkpt lat="44.13800602173861" lon="11.320712654870398"><ele>808.75</ele><time>2026-04-10T11:31:25Z</time></trkpt><trkpt lat="44.138109232314065" lon="11.320844273267102"><ele>808.0</ele><time>2026-04-10T11:31:26Z</time></trkpt><trkpt lat="44.13820141998178" lon="11.320982830541464"><ele>807.0</ele><time>2026-04-10T11:31:27Z</time></trkpt><trkpt lat="44.13828091763607" lon="11.321133390788203"><ele>806.0</ele><time>2026-04-10T11:31:28Z</time></trkpt><trkpt lat="44.138349672485845" lon="11.321295643745437"><ele>805.0</ele><time>2026-04-10T11:31:29Z</time></trkpt><trkpt lat="44.13840999035812" lon="11.321462048945723"><ele>804.0</ele><time>2026-04-10T11:31:30Z</time></trkpt><trkpt lat="44.13843757279418" lon="11.321647666756167"><ele>804.0</ele><time>2026-04-10T11:31:31Z</time></trkpt><trkpt lat="44.13846062571695" lon="11.321831936208843"><ele>804.0</ele><time>2026-04-10T11:31:32Z</time></trkpt><trkpt lat="44.13848112677392" lon="11.322018082682122"><ele>804.0</ele><time>2026-04-10T11:31:33Z</time></trkpt><trkpt lat="44.138457036046454" lon="11.322204070813244"><ele>804.0</ele><time>2026-04-10T11:31:34Z</time></trkpt><trkpt lat="44.138399248180484" lon="11.322375990303392"><ele>803.75</ele><time>2026-04-10T11:31:35Z</time></trkpt><trkpt lat="44.13830692348731" lon="11.322512084271128"><ele>803.5</ele><time>2026-04-10T11:31:36.001Z</time></trkpt><trkpt lat="44.13820008110222" lon="11.322623967228642"><ele>803.25</ele><time>2026-04-10T11:31:37.001Z</time></trkpt><trkpt lat="44.13807610465108" lon="11.322713580336023"><ele>803.0</ele><time>2026-04-10T11:31:38.001Z</time></trkpt><trkpt lat="44.13793978532995" lon="11.322790358426452"><ele>800.0</ele><time>2026-04-10T11:31:39.001Z</time></trkpt><trkpt lat="44.13780268690896" lon="11.322854107232672"><ele>797.0</ele><time>2026-04-10T11:31:40.001Z</time></trkpt><trkpt lat="44.137668444666815" lon="11.322926868179254"><ele>794.0</ele><time>2026-04-10T11:31:41.001Z</time></trkpt><trkpt lat="44.13753497533337" lon="11.323002127846296"><ele>791.0</ele><time>2026-04-10T11:31:42.001Z</time></trkpt><trkpt lat="44.13740024697582" lon="11.323078510874428"><ele>788.0</ele><time>2026-04-10T11:31:43.001Z</time></trkpt><trkpt lat="44.13726488746102" lon="11.323161897099249"><ele>785.0</ele><time>2026-04-10T11:31:44.001Z</time></trkpt><trkpt lat="44.13713095157883" lon="11.323255056159367"><ele>782.0</ele><time>2026-04-10T11:31:45.001Z</time></trkpt><trkpt lat="44.13699833627817" lon="11.323348181122643"><ele>779.0</ele><time>2026-04-10T11:31:46.001Z</time></trkpt><trkpt lat="44.136870265204415" lon="11.323446517377562"><ele>779.0</ele><time>2026-04-10T11:31:47.001Z</time></trkpt><trkpt lat="44.136768136628376" lon="11.323576745241171"><ele>779.0</ele><time>2026-04-10T11:31:48.001Z</time></trkpt><trkpt lat="44.136705251323285" lon="11.323742590193332"><ele>779.0</ele><time>2026-04-10T11:31:49.001Z</time></trkpt><trkpt lat="44.13667754330095" lon="11.323930762861503"><ele>779.0</ele><time>2026-04-10T11:31:50.001Z</time></trkpt><trkpt lat="44.13667524194372" lon="11.324138489197336"><ele>778.5</ele><time>2026-04-10T11:31:51.001Z</time></trkpt><trkpt lat="44.13667973689503" lon="11.324344364448217"><ele>778.0</ele><time>2026-04-10T11:31:52.001Z</time></trkpt><trkpt lat="44.13670536018395" lon="11.32453338442463"><ele>777.5</ele><time>2026-04-10T11:31:53.001Z</time></trkpt><trkpt lat="44.13675118532995" lon="11.32470751340443"><ele>777.0</ele><time>2026-04-10T11:31:54.001Z</time></trkpt><trkpt lat="44.13680801751053" lon="11.324869887960363"><ele>775.75</ele><time>2026-04-10T11:31:55.001Z</time></trkpt><trkpt lat="44.13683389703044" lon="11.325041957416731"><ele>774.5</ele><time>2026-04-10T11:31:56.001Z</time></trkpt><trkpt lat="44.13681410602461" lon="11.325229917330944"><ele>773.25</ele><time>2026-04-10T11:31:57.001Z</time></trkpt><trkpt lat="44.136744134429286" lon="11.325396516792736"><ele>772.0</ele><time>2026-04-10T11:31:58.001Z</time></trkpt><trkpt lat="44.13665312573769" lon="11.32553318784121"><ele>772.25</ele><time>2026-04-10T11:31:59.001Z</time></trkpt><trkpt lat="44.13656137177693" lon="11.325661574466237"><ele>772.5</ele><time>2026-04-10T11:32:00.001Z</time></trkpt><trkpt lat="44.13647816232828" lon="11.325807525144725"><ele>772.75</ele><time>2026-04-10T11:32:01.001Z</time></trkpt><trkpt lat="44.136418703226305" lon="11.325990495760271"><ele>773.0</ele><time>2026-04-10T11:32:02.001Z</time></trkpt><trkpt lat="44.13640306414362" lon="11.32620185461238"><ele>766.3333333333334</ele><time>2026-04-10T11:32:03.001Z</time></trkpt><trkpt lat="44.136409806703654" lon="11.326430792386434"><ele>759.6666666666667</ele><time>2026-04-10T11:32:04.001Z</time></trkpt><trkpt lat="44.136404321221754" lon="11.326666530691092"><ele>753.0</ele><time>2026-04-10T11:32:05.001Z</time></trkpt><trkpt lat="44.13637573722034" lon="11.326890295815534"><ele>753.0</ele><time>2026-04-10T11:32:06.001Z</time></trkpt><trkpt lat="44.136356339919644" lon="11.327099376589413"><ele>753.0</ele><time>2026-04-10T11:32:07Z</time></trkpt><trkpt lat="44.13636839212399" lon="11.327307176992932"><ele>753.0</ele><time>2026-04-10T11:32:08Z</time></trkpt><trkpt lat="44.13639396528736" lon="11.327508400672343"><ele>753.0</ele><time>2026-04-10T11:32:09Z</time></trkpt><trkpt lat="44.136412091540286" lon="11.327711494296437"><ele>752.0</ele><time>2026-04-10T11:32:10Z</time></trkpt><trkpt lat="44.13639383016704" lon="11.327916882720745"><ele>751.0</ele><time>2026-04-10T11:32:11Z</time></trkpt><trkpt lat="44.136375721695316" lon="11.328125409461576"><ele>750.0</ele><time>2026-04-10T11:32:12Z</time></trkpt><trkpt lat="44.136307911985945" lon="11.328330165382056"><ele>750.0</ele><time>2026-04-10T11:32:13Z</time></trkpt><trkpt lat="44.13621692834035" lon="11.328531945162036"><ele>750.0</ele><time>2026-04-10T11:32:14Z</time></trkpt><trkpt lat="44.136120855316314" lon="11.328716585994295"><ele>750.0</ele><time>2026-04-10T11:32:15Z</time></trkpt><trkpt lat="44.136025954593315" lon="11.328887854083113"><ele>750.0</ele><time>2026-04-10T11:32:16Z</time></trkpt><trkpt lat="44.13592812881461" lon="11.32905035213592"><ele>750.0</ele><time>2026-04-10T11:32:17Z</time></trkpt><trkpt lat="44.13582712036949" lon="11.329201051366205"><ele>750.0</ele><time>2026-04-10T11:32:18Z</time></trkpt><trkpt lat="44.13572680387202" lon="11.329351627843245"><ele>750.0</ele><time>2026-04-10T11:32:19Z</time></trkpt><trkpt lat="44.13562881320453" lon="11.329507193713527"><ele>747.25</ele><time>2026-04-10T11:32:20Z</time></trkpt><trkpt lat="44.135538892446206" lon="11.32966756781621"><ele>744.5</ele><time>2026-04-10T11:32:21Z</time></trkpt><trkpt lat="44.135456845773106" lon="11.329844002138788"><ele>741.75</ele><time>2026-04-10T11:32:22Z</time></trkpt><trkpt lat="44.13538874392983" lon="11.330032014085269"><ele>739.0</ele><time>2026-04-10T11:32:23Z</time></trkpt><trkpt lat="44.13532924842106" lon="11.330240590134027"><ele>739.0</ele><time>2026-04-10T11:32:24Z</time></trkpt><trkpt lat="44.13528260752789" lon="11.330441199480319"><ele>739.0</ele><time>2026-04-10T11:32:25Z</time></trkpt><trkpt lat="44.13524429678072" lon="11.330633025335379"><ele>739.0</ele><time>2026-04-10T11:32:26Z</time></trkpt><trkpt lat="44.13521883607012" lon="11.330823716030583"><ele>739.0</ele><time>2026-04-10T11:32:27Z</time></trkpt><trkpt lat="44.13520359812375" lon="11.331013957956186"><ele>738.5</ele><time>2026-04-10T11:32:28Z</time></trkpt><trkpt lat="44.135185997421964" lon="11.331202308226105"><ele>738.0</ele><time>2026-04-10T11:32:29Z</time></trkpt><trkpt lat="44.13512688584417" lon="11.331374171515083"><ele>737.5</ele><time>2026-04-10T11:32:30Z</time></trkpt><trkpt lat="44.13507703522436" lon="11.331549406613814"><ele>737.0</ele><time>2026-04-10T11:32:31Z</time></trkpt><trkpt lat="44.13500347055237" lon="11.33170598655111"><ele>736.75</ele><time>2026-04-10T11:32:32Z</time></trkpt><trkpt lat="44.134929131680465" lon="11.331864462655487"><ele>736.5</ele><time>2026-04-10T11:32:33Z</time></trkpt><trkpt lat="44.13486130481331" lon="11.33202595101462"><ele>736.25</ele><time>2026-04-10T11:32:34Z</time></trkpt><trkpt lat="44.134802847577035" lon="11.332174135359386"><ele>736.0</ele><time>2026-04-10T11:32:35Z</time></trkpt><trkpt lat="44.13475427483531" lon="11.332298814389981"><ele>735.0</ele><time>2026-04-10T11:32:36Z</time></trkpt><trkpt lat="44.134716014943656" lon="11.332401192850796"><ele>734.0</ele><time>2026-04-10T11:32:37Z</time></trkpt><trkpt lat="44.13466999123382" lon="11.332485210813463"><ele>733.0</ele><time>2026-04-10T11:32:38Z</time></trkpt><trkpt lat="44.134600036215616" lon="11.33254081807432"><ele>732.0</ele><time>2026-04-10T11:32:39Z</time></trkpt><trkpt lat="44.134507450180955" lon="11.332573246668145"><ele>731.0</ele><time>2026-04-10T11:32:40Z</time></trkpt><trkpt lat="44.13438642366349" lon="11.332619220191331"><ele>731.0</ele><time>2026-04-10T11:32:41Z</time></trkpt><trkpt lat="44.1342747665627" lon="11.332672643140276"><ele>731.0</ele><time>2026-04-10T11:32:42Z</time></trkpt><trkpt lat="44.13416822649408" lon="11.332713370214073"><ele>731.0</ele><time>2026-04-10T11:32:43Z</time></trkpt><trkpt lat="44.13406135866399" lon="11.33275366751972"><ele>731.0</ele><time>2026-04-10T11:32:44Z</time></trkpt><trkpt lat="44.133951363033894" lon="11.332800625289511"><ele>727.25</ele><time>2026-04-10T11:32:45Z</time></trkpt><trkpt lat="44.13383924866903" lon="11.332852627848686"><ele>723.5</ele><time>2026-04-10T11:32:46Z</time></trkpt><trkpt lat="44.133727436990995" lon="11.33291253449875"><ele>719.75</ele><time>2026-04-10T11:32:47Z</time></trkpt><trkpt lat="44.13362074556568" lon="11.33297909255936"><ele>716.0</ele><time>2026-04-10T11:32:48Z</time></trkpt><trkpt lat="44.13351579971743" lon="11.333049292128592"><ele>716.75</ele><time>2026-04-10T11:32:49Z</time></trkpt><trkpt lat="44.13340575277227" lon="11.333117906787995"><ele>717.5</ele><time>2026-04-10T11:32:50Z</time></trkpt><trkpt lat="44.13329102980101" lon="11.333168903404049"><ele>718.25</ele><time>2026-04-10T11:32:51Z</time></trkpt><trkpt lat="44.13317206629034" lon="11.333192390485443"><ele>719.0</ele><time>2026-04-10T11:32:52Z</time></trkpt><trkpt lat="44.13307616483611" lon="11.333203913266734"><ele>715.6</ele><time>2026-04-10T11:32:53Z</time></trkpt><trkpt lat="44.13300985098407" lon="11.333261775159505"><ele>712.2</ele><time>2026-04-10T11:32:54Z</time></trkpt><trkpt lat="44.13296367376361" lon="11.333362651790798"><ele>708.8000000000001</ele><time>2026-04-10T11:32:55Z</time></trkpt><trkpt lat="44.13299905124532" lon="11.333505021657551"><ele>705.4000000000001</ele><time>2026-04-10T11:32:56Z</time></trkpt><trkpt lat="44.13305332898392" lon="11.333616664159821"><ele>702.0</ele><time>2026-04-10T11:32:57Z</time></trkpt><trkpt lat="44.13311191016268" lon="11.333716775957955"><ele>702.0</ele><time>2026-04-10T11:32:58Z</time></trkpt><trkpt lat="44.13313885667787" lon="11.333840481940369"><ele>702.0</ele><time>2026-04-10T11:32:59Z</time></trkpt><trkpt lat="44.13309788973564" lon="11.333960372365164"><ele>702.0</ele><time>2026-04-10T11:33:00Z</time></trkpt><trkpt lat="44.133002800645585" lon="11.334016470024926"><ele>702.0</ele><time>2026-04-10T11:33:01Z</time></trkpt><trkpt lat="44.132882820924245" lon="11.33404864825577"><ele>702.0</ele><time>2026-04-10T11:33:02Z</time></trkpt><trkpt lat="44.13274683251062" lon="11.33409221859355"><ele>701.5</ele><time>2026-04-10T11:33:03Z</time></trkpt><trkpt lat="44.1326242508579" lon="11.334146893469137"><ele>701.0</ele><time>2026-04-10T11:33:04Z</time></trkpt><trkpt lat="44.13250321088909" lon="11.334206350450723"><ele>700.5</ele><time>2026-04-10T11:33:05Z</time></trkpt><trkpt lat="44.13238586776437" lon="11.33426664347322"><ele>700.0</ele><time>2026-04-10T11:33:06Z</time></trkpt><trkpt lat="44.13226641465712" lon="11.33431355041578"><ele>696.5</ele><time>2026-04-10T11:33:07Z</time></trkpt><trkpt lat="44.13213071725251" lon="11.334336097538225"><ele>693.0</ele><time>2026-04-10T11:33:08Z</time></trkpt><trkpt lat="44.13198937731854" lon="11.334339517613001"><ele>689.5</ele><time>2026-04-10T11:33:09Z</time></trkpt><trkpt lat="44.131849969191215" lon="11.334318392867388"><ele>686.0</ele><time>2026-04-10T11:33:10Z</time></trkpt><trkpt lat="44.131712186320016" lon="11.334282489567112"><ele>686.0</ele><time>2026-04-10T11:33:11Z</time></trkpt><trkpt lat="44.13159276385204" lon="11.33425531523821"><ele>686.0</ele><time>2026-04-10T11:33:12Z</time></trkpt><trkpt lat="44.131487075831004" lon="11.33424703076564"><ele>686.0</ele><time>2026-04-10T11:33:13Z</time></trkpt><trkpt lat="44.1313844685333" lon="11.334276778502343"><ele>686.0</ele><time>2026-04-10T11:33:14Z</time></trkpt><trkpt lat="44.13129093021077" lon="11.334368122230709"><ele>686.0</ele><time>2026-04-10T11:33:15.001Z</time></trkpt><trkpt lat="44.13123842904114" lon="11.334516417683185"><ele>683.0</ele><time>2026-04-10T11:33:16.001Z</time></trkpt><trkpt lat="44.13119715457828" lon="11.334666453354437"><ele>680.0</ele><time>2026-04-10T11:33:17.001Z</time></trkpt><trkpt lat="44.1311368686658" lon="11.33480079780722"><ele>677.0</ele><time>2026-04-10T11:33:18.001Z</time></trkpt><trkpt lat="44.131044075293566" lon="11.334905410729522"><ele>674.0</ele><time>2026-04-10T11:33:19.001Z</time></trkpt><trkpt lat="44.130931379623746" lon="11.334971112499572"><ele>673.0</ele><time>2026-04-10T11:33:20.001Z</time></trkpt><trkpt lat="44.13081646590883" lon="11.335035814890944"><ele>672.0</ele><time>2026-04-10T11:33:21.001Z</time></trkpt><trkpt lat="44.13071144190116" lon="11.335114022294158"><ele>671.0</ele><time>2026-04-10T11:33:22.001Z</time></trkpt><trkpt lat="44.130620625186985" lon="11.335230427516096"><ele>670.0</ele><time>2026-04-10T11:33:23.001Z</time></trkpt><trkpt lat="44.13056074345775" lon="11.335390779434416"><ele>667.5</ele><time>2026-04-10T11:33:24.001Z</time></trkpt><trkpt lat="44.13052293335446" lon="11.33556812093119"><ele>665.0</ele><time>2026-04-10T11:33:25.001Z</time></trkpt><trkpt lat="44.130487197491156" lon="11.335746836060968"><ele>662.5</ele><time>2026-04-10T11:33:26.001Z</time></trkpt><trkpt lat="44.13044815435849" lon="11.33590766573579"><ele>660.0</ele><time>2026-04-10T11:33:27.001Z</time></trkpt><trkpt lat="44.13039881487233" lon="11.3360588894861"><ele>660.0</ele><time>2026-04-10T11:33:28.001Z</time></trkpt><trkpt lat="44.130331196643425" lon="11.336197275209953"><ele>660.0</ele><time>2026-04-10T11:33:29.001Z</time></trkpt><trkpt lat="44.13023245207923" lon="11.336292346759503"><ele>660.0</ele><time>2026-04-10T11:33:30.001Z</time></trkpt><trkpt lat="44.13011158870472" lon="11.336327694554205"><ele>660.0</ele><time>2026-04-10T11:33:31.001Z</time></trkpt><trkpt lat="44.12998142593666" lon="11.336317448145977"><ele>657.75</ele><time>2026-04-10T11:33:32.001Z</time></trkpt><trkpt lat="44.12985316534976" lon="11.336317771324875"><ele>655.5</ele><time>2026-04-10T11:33:33.001Z</time></trkpt><trkpt lat="44.12973634353894" lon="11.336357514476013"><ele>653.25</ele><time>2026-04-10T11:33:34.001Z</time></trkpt><trkpt lat="44.129629952172756" lon="11.336428996044692"><ele>651.0</ele><time>2026-04-10T11:33:35.001Z</time></trkpt><trkpt lat="44.129527806240155" lon="11.336519263774878"><ele>651.0</ele><time>2026-04-10T11:33:36.001Z</time></trkpt><trkpt lat="44.129416926624806" lon="11.33659148614804"><ele>651.0</ele><time>2026-04-10T11:33:37.001Z</time></trkpt><trkpt lat="44.129291710652836" lon="11.336602005203027"><ele>651.0</ele><time>2026-04-10T11:33:38.001Z</time></trkpt><trkpt lat="44.129169050231276" lon="11.336575271865188"><ele>651.0</ele><time>2026-04-10T11:33:39.001Z</time></trkpt><trkpt lat="44.12905019975351" lon="11.336574898841139"><ele>647.0</ele><time>2026-04-10T11:33:40.001Z</time></trkpt><trkpt lat="44.12893871205548" lon="11.336632470690576"><ele>643.0</ele><time>2026-04-10T11:33:41.001Z</time></trkpt><trkpt lat="44.128834576749966" lon="11.336754088219628"><ele>639.0</ele><time>2026-04-10T11:33:42.001Z</time></trkpt><trkpt lat="44.12872830142902" lon="11.336884296244348"><ele>635.0</ele><time>2026-04-10T11:33:43.001Z</time></trkpt><trkpt lat="44.12862757320835" lon="11.337011761881378"><ele>635.0</ele><time>2026-04-10T11:33:44.001Z</time></trkpt><trkpt lat="44.12853814704297" lon="11.337148637580768"><ele>635.0</ele><time>2026-04-10T11:33:45.001Z</time></trkpt><trkpt lat="44.12845941112664" lon="11.33729168583698"><ele>635.0</ele><time>2026-04-10T11:33:46.001Z</time></trkpt><trkpt lat="44.128383552719825" lon="11.337431782392276"><ele>635.0</ele><time>2026-04-10T11:33:47.001Z</time></trkpt><trkpt lat="44.12830724124333" lon="11.337546058630394"><ele>632.75</ele><time>2026-04-10T11:33:48.001Z</time></trkpt><trkpt lat="44.12820363737904" lon="11.337616799302126"><ele>630.5</ele><time>2026-04-10T11:33:49.001Z</time></trkpt><trkpt lat="44.12808041018289" lon="11.337613602247417"><ele>628.25</ele><time>2026-04-10T11:33:50.001Z</time></trkpt><trkpt lat="44.12795390372498" lon="11.337552479450812"><ele>626.0</ele><time>2026-04-10T11:33:51.001Z</time></trkpt><trkpt lat="44.12782839053261" lon="11.337452564214614"><ele>626.0</ele><time>2026-04-10T11:33:52.001Z</time></trkpt><trkpt lat="44.12770202027317" lon="11.337363513519547"><ele>626.0</ele><time>2026-04-10T11:33:53.001Z</time></trkpt><trkpt lat="44.12757535698485" lon="11.337306384523842"><ele>626.0</ele><time>2026-04-10T11:33:54.001Z</time></trkpt><trkpt lat="44.12743897731479" lon="11.337290726003925"><ele>626.0</ele><time>2026-04-10T11:33:55.001Z</time></trkpt><trkpt lat="44.12729436693587" lon="11.337311576985252"><ele>625.5</ele><time>2026-04-10T11:33:56.001Z</time></trkpt><trkpt lat="44.12715171180174" lon="11.337391417242065"><ele>625.0</ele><time>2026-04-10T11:33:57.001Z</time></trkpt><trkpt lat="44.12702362797564" lon="11.337505056749135"><ele>624.5</ele><time>2026-04-10T11:33:58.001Z</time></trkpt><trkpt lat="44.126912164524846" lon="11.337628781212208"><ele>624.0</ele><time>2026-04-10T11:33:59.001Z</time></trkpt><trkpt lat="44.12679572302845" lon="11.337729231357207"><ele>624.0</ele><time>2026-04-10T11:34:00.001Z</time></trkpt><trkpt lat="44.12666914655745" lon="11.337789415092844"><ele>624.0</ele><time>2026-04-10T11:34:01.001Z</time></trkpt><trkpt lat="44.12652918547416" lon="11.337798594406365"><ele>624.0</ele><time>2026-04-10T11:34:02.001Z</time></trkpt><trkpt lat="44.12637678626655" lon="11.337778926853586"><ele>624.0</ele><time>2026-04-10T11:34:03.001Z</time></trkpt><trkpt lat="44.12621721167899" lon="11.33776079370796"><ele>621.6666666666666</ele><time>2026-04-10T11:34:04.001Z</time></trkpt><trkpt lat="44.12604848523012" lon="11.337750333431956"><ele>619.3333333333333</ele><time>2026-04-10T11:34:05.001Z</time></trkpt><trkpt lat="44.12589134049894" lon="11.337743190582323"><ele>617.0</ele><time>2026-04-10T11:34:06.001Z</time></trkpt><trkpt lat="44.125739994306144" lon="11.337731720784845"><ele>614.3333333333333</ele><time>2026-04-10T11:34:07.001Z</time></trkpt><trkpt lat="44.12558126232104" lon="11.337719198218288"><ele>611.6666666666666</ele><time>2026-04-10T11:34:08.001Z</time></trkpt><trkpt lat="44.12542608924098" lon="11.337709432421498"><ele>609.0</ele><time>2026-04-10T11:34:09.001Z</time></trkpt><trkpt lat="44.125274238599225" lon="11.337694713850945"><ele>609.0</ele><time>2026-04-10T11:34:10.001Z</time></trkpt><trkpt lat="44.12512517214488" lon="11.33768105863612"><ele>609.0</ele><time>2026-04-10T11:34:11.001Z</time></trkpt><trkpt lat="44.12498043990766" lon="11.337696344519674"><ele>609.0</ele><time>2026-04-10T11:34:12.001Z</time></trkpt><trkpt lat="44.1248373720031" lon="11.337759503951482"><ele>609.0</ele><time>2026-04-10T11:34:13Z</time></trkpt><trkpt lat="44.12470899622934" lon="11.337868547568513"><ele>607.25</ele><time>2026-04-10T11:34:14Z</time></trkpt><trkpt lat="44.12460968205898" lon="11.338017751854332"><ele>605.5</ele><time>2026-04-10T11:34:15Z</time></trkpt><trkpt lat="44.12452416340667" lon="11.338190593666404"><ele>603.75</ele><time>2026-04-10T11:34:16Z</time></trkpt><trkpt lat="44.12444001688316" lon="11.338355284339896"><ele>602.0</ele><time>2026-04-10T11:34:17Z</time></trkpt><trkpt lat="44.12434109940687" lon="11.338499107212868"><ele>602.0</ele><time>2026-04-10T11:34:18Z</time></trkpt><trkpt lat="44.12422114561067" lon="11.338604767044572"><ele>602.0</ele><time>2026-04-10T11:34:19Z</time></trkpt><trkpt lat="44.124082267775925" lon="11.33868773081571"><ele>602.0</ele><time>2026-04-10T11:34:20Z</time></trkpt><trkpt lat="44.123941906706804" lon="11.338760537482973"><ele>602.0</ele><time>2026-04-10T11:34:21Z</time></trkpt><trkpt lat="44.12380798550734" lon="11.338827456780939"><ele>600.0</ele><time>2026-04-10T11:34:22Z</time></trkpt><trkpt lat="44.123673831288336" lon="11.338897371747171"><ele>598.0</ele><time>2026-04-10T11:34:23Z</time></trkpt><trkpt lat="44.1235393017156" lon="11.338964121244636"><ele>596.0</ele><time>2026-04-10T11:34:24Z</time></trkpt><trkpt lat="44.12339786351139" lon="11.338998683495609"><ele>594.0</ele><time>2026-04-10T11:34:25Z</time></trkpt><trkpt lat="44.12324929298289" lon="11.338992541103636"><ele>589.0</ele><time>2026-04-10T11:34:26Z</time></trkpt><trkpt lat="44.123106792186256" lon="11.33894456858444"><ele>584.0</ele><time>2026-04-10T11:34:27Z</time></trkpt><trkpt lat="44.122950808816945" lon="11.3389059638"><ele>579.0</ele><time>2026-04-10T11:34:28Z</time></trkpt><trkpt lat="44.12277804268725" lon="11.338912820930238"><ele>579.0</ele><time>2026-04-10T11:34:29Z</time></trkpt><trkpt lat="44.12260287613085" lon="11.338957489995208"><ele>579.0</ele><time>2026-04-10T11:34:30Z</time></trkpt><trkpt lat="44.12242655978236" lon="11.3390308137715"><ele>579.0</ele><time>2026-04-10T11:34:31Z</time></trkpt><trkpt lat="44.1222590057987" lon="11.339121779686543"><ele>577.6666666666666</ele><time>2026-04-10T11:34:32Z</time></trkpt><trkpt lat="44.122102853165686" lon="11.339241132853145"><ele>576.3333333333333</ele><time>2026-04-10T11:34:33Z</time></trkpt><trkpt lat="44.121949251537295" lon="11.339380068198935"><ele>575.0</ele><time>2026-04-10T11:34:34Z</time></trkpt><trkpt lat="44.121788189001286" lon="11.339505984682047"><ele>575.0</ele><time>2026-04-10T11:34:35Z</time></trkpt><trkpt lat="44.12161310469268" lon="11.339591179381046"><ele>575.0</ele><time>2026-04-10T11:34:36Z</time></trkpt><trkpt lat="44.12143038753874" lon="11.339646217415803"><ele>575.0</ele><time>2026-04-10T11:34:37Z</time></trkpt><trkpt lat="44.12124235384529" lon="11.339698722311816"><ele>575.6666666666666</ele><time>2026-04-10T11:34:38Z</time></trkpt><trkpt lat="44.121063165215055" lon="11.339765361525457"><ele>576.3333333333334</ele><time>2026-04-10T11:34:39Z</time></trkpt><trkpt lat="44.12089155960822" lon="11.339837018673714"><ele>577.0</ele><time>2026-04-10T11:34:40Z</time></trkpt><trkpt lat="44.1207254726177" lon="11.33989440954851"><ele>577.3333333333334</ele><time>2026-04-10T11:34:41Z</time></trkpt><trkpt lat="44.12054931643366" lon="11.339919579006876"><ele>577.6666666666666</ele><time>2026-04-10T11:34:42Z</time></trkpt><trkpt lat="44.12036753950033" lon="11.339916856545889"><ele>578.0</ele><time>2026-04-10T11:34:43Z</time></trkpt><trkpt lat="44.120189307183566" lon="11.339901079270279"><ele>578.0</ele><time>2026-04-10T11:34:44Z</time></trkpt><trkpt lat="44.12002608953329" lon="11.339886262247107"><ele>578.0</ele><time>2026-04-10T11:34:45Z</time></trkpt><trkpt lat="44.11987143396499" lon="11.339875966318209"><ele>578.0</ele><time>2026-04-10T11:34:46Z</time></trkpt><trkpt lat="44.11971548053836" lon="11.33986999568654"><ele>579.0</ele><time>2026-04-10T11:34:47Z</time></trkpt><trkpt lat="44.1195583857167" lon="11.339880132817449"><ele>580.0</ele><time>2026-04-10T11:34:48Z</time></trkpt><trkpt lat="44.11941374053101" lon="11.339926895065135"><ele>581.0</ele><time>2026-04-10T11:34:49Z</time></trkpt><trkpt lat="44.11929448844016" lon="11.34003292941255"><ele>582.0</ele><time>2026-04-10T11:34:50Z</time></trkpt><trkpt lat="44.11918565074082" lon="11.340177494352178"><ele>582.0</ele><time>2026-04-10T11:34:51Z</time></trkpt><trkpt lat="44.11908014352359" lon="11.340350062635238"><ele>582.0</ele><time>2026-04-10T11:34:52Z</time></trkpt><trkpt lat="44.11897155024724" lon="11.340529844007321"><ele>582.0</ele><time>2026-04-10T11:34:53Z</time></trkpt><trkpt lat="44.118855115789145" lon="11.340716470673756"><ele>584.0</ele><time>2026-04-10T11:34:54Z</time></trkpt><trkpt lat="44.11873661344622" lon="11.340906675024302"><ele>586.0</ele><time>2026-04-10T11:34:55Z</time></trkpt><trkpt lat="44.11863367590053" lon="11.341085747927309"><ele>588.0</ele><time>2026-04-10T11:34:56Z</time></trkpt><trkpt lat="44.118538436042904" lon="11.341263321395177"><ele>587.3333333333334</ele><time>2026-04-10T11:34:57Z</time></trkpt><trkpt lat="44.11844410255314" lon="11.341435972325588"><ele>586.6666666666667</ele><time>2026-04-10T11:34:58Z</time></trkpt><trkpt lat="44.11834249159817" lon="11.34158558560082"><ele>586.0</ele><time>2026-04-10T11:34:59Z</time></trkpt><trkpt lat="44.11822246663218" lon="11.341723652976444"><ele>586.0</ele><time>2026-04-10T11:35:00Z</time></trkpt><trkpt lat="44.11808630210574" lon="11.341859751772136"><ele>586.0</ele><time>2026-04-10T11:35:01Z</time></trkpt><trkpt lat="44.11794073932618" lon="11.341993013436266"><ele>586.0</ele><time>2026-04-10T11:35:02.001Z</time></trkpt><trkpt lat="44.117799123001156" lon="11.342121464007361"><ele>586.6666666666667</ele><time>2026-04-10T11:35:03.001Z</time></trkpt><trkpt lat="44.11766597250544" lon="11.342240182046794"><ele>587.3333333333334</ele><time>2026-04-10T11:35:04.001Z</time></trkpt><trkpt lat="44.1175444328939" lon="11.342356309678914"><ele>588.0</ele><time>2026-04-10T11:35:05.001Z</time></trkpt><trkpt lat="44.11743349016683" lon="11.342496783783096"><ele>584.0</ele><time>2026-04-10T11:35:06.001Z</time></trkpt><trkpt lat="44.11733384722967" lon="11.342663477525617"><ele>580.0</ele><time>2026-04-10T11:35:07.001Z</time></trkpt><trkpt lat="44.11724645921883" lon="11.342849641890181"><ele>576.0</ele><time>2026-04-10T11:35:08.001Z</time></trkpt><trkpt lat="44.11716785048969" lon="11.343029597793196"><ele>577.0</ele><time>2026-04-10T11:35:09.001Z</time></trkpt><trkpt lat="44.11709477379931" lon="11.343206699925553"><ele>578.0</ele><time>2026-04-10T11:35:10.001Z</time></trkpt><trkpt lat="44.117033890787454" lon="11.34338837615143"><ele>579.0</ele><time>2026-04-10T11:35:11.001Z</time></trkpt><trkpt lat="44.11699026286434" lon="11.343576193704568"><ele>580.0</ele><time>2026-04-10T11:35:12.001Z</time></trkpt><trkpt lat="44.11696709527781" lon="11.343769299838451"><ele>578.5</ele><time>2026-04-10T11:35:13.001Z</time></trkpt><trkpt lat="44.11699434079841" lon="11.343960723462466"><ele>577.0</ele><time>2026-04-10T11:35:14.001Z</time></trkpt><trkpt lat="44.11706093967527" lon="11.344130346083226"><ele>575.5</ele><time>2026-04-10T11:35:15.001Z</time></trkpt><trkpt lat="44.11715447323507" lon="11.344261824870296"><ele>574.0</ele><time>2026-04-10T11:35:16.001Z</time></trkpt><trkpt lat="44.117222734917576" lon="11.344407281019679"><ele>574.0</ele><time>2026-04-10T11:35:17.001Z</time></trkpt><trkpt lat="44.11725359997508" lon="11.344594331583119"><ele>574.0</ele><time>2026-04-10T11:35:18.001Z</time></trkpt><trkpt lat="44.11725623969239" lon="11.344800673687336"><ele>574.0</ele><time>2026-04-10T11:35:19.001Z</time></trkpt><trkpt lat="44.11723058973311" lon="11.345010815003338"><ele>574.0</ele><time>2026-04-10T11:35:20.001Z</time></trkpt><trkpt lat="44.11719368291191" lon="11.345213675846711"><ele>571.25</ele><time>2026-04-10T11:35:21.001Z</time></trkpt><trkpt lat="44.117145396329285" lon="11.345410440474321"><ele>568.5</ele><time>2026-04-10T11:35:22.001Z</time></trkpt><trkpt lat="44.117085852606785" lon="11.345598661352929"><ele>565.75</ele><time>2026-04-10T11:35:23.001Z</time></trkpt><trkpt lat="44.11702573645796" lon="11.345782918314459"><ele>563.0</ele><time>2026-04-10T11:35:24.001Z</time></trkpt><trkpt lat="44.116973176316044" lon="11.345973953382613"><ele>561.5</ele><time>2026-04-10T11:35:25.001Z</time></trkpt><trkpt lat="44.11693072378565" lon="11.34617310626985"><ele>560.0</ele><time>2026-04-10T11:35:26.001Z</time></trkpt><trkpt lat="44.116909996306035" lon="11.346372033546004"><ele>558.5</ele><time>2026-04-10T11:35:27.001Z</time></trkpt><trkpt lat="44.11691146708499" lon="11.346570174906493"><ele>557.0</ele><time>2026-04-10T11:35:28.001Z</time></trkpt><trkpt lat="44.11692528129699" lon="11.346773696851683"><ele>556.3333333333333</ele><time>2026-04-10T11:35:29.001Z</time></trkpt><trkpt lat="44.11696515770014" lon="11.346977277818182"><ele>555.6666666666666</ele><time>2026-04-10T11:35:30.001Z</time></trkpt><trkpt lat="44.117041003268774" lon="11.34717334987243"><ele>555.0</ele><time>2026-04-10T11:35:31.001Z</time></trkpt><trkpt lat="44.11713920745643" lon="11.347368372876145"><ele>552.0</ele><time>2026-04-10T11:35:32.001Z</time></trkpt><trkpt lat="44.11723321529685" lon="11.34756907799017"><ele>549.0</ele><time>2026-04-10T11:35:33.001Z</time></trkpt><trkpt lat="44.11730444988301" lon="11.347777438067256"><ele>546.0</ele><time>2026-04-10T11:35:34.001Z</time></trkpt><trkpt lat="44.11733723923438" lon="11.348007540887586"><ele>543.6666666666666</ele><time>2026-04-10T11:35:35.001Z</time></trkpt><trkpt lat="44.1173538270093" lon="11.348245163509326"><ele>541.3333333333333</ele><time>2026-04-10T11:35:36.001Z</time></trkpt><trkpt lat="44.11736200236919" lon="11.348478511177229"><ele>539.0</ele><time>2026-04-10T11:35:37.001Z</time></trkpt><trkpt lat="44.11737123246207" lon="11.34870686267377"><ele>538.0</ele><time>2026-04-10T11:35:38.001Z</time></trkpt><trkpt lat="44.11737685520484" lon="11.348932382337622"><ele>537.0</ele><time>2026-04-10T11:35:39.001Z</time></trkpt><trkpt lat="44.117371973429925" lon="11.349159138941923"><ele>536.0</ele><time>2026-04-10T11:35:40.001Z</time></trkpt><trkpt lat="44.11735650538991" lon="11.349386512654478"><ele>536.0</ele><time>2026-04-10T11:35:41.001Z</time></trkpt><trkpt lat="44.11733293153224" lon="11.349605868141015"><ele>536.0</ele><time>2026-04-10T11:35:42.001Z</time></trkpt><trkpt lat="44.11731786724777" lon="11.349828320613485"><ele>536.0</ele><time>2026-04-10T11:35:43.001Z</time></trkpt><trkpt lat="44.11732587806807" lon="11.350054636631702"><ele>537.0</ele><time>2026-04-10T11:35:44.001Z</time></trkpt><trkpt lat="44.1173475633631" lon="11.35027767434348"><ele>538.0</ele><time>2026-04-10T11:35:45.001Z</time></trkpt><trkpt lat="44.117377241715566" lon="11.350486091867877"><ele>539.0</ele><time>2026-04-10T11:35:46.001Z</time></trkpt><trkpt lat="44.117418151718766" lon="11.35068313069143"><ele>538.5</ele><time>2026-04-10T11:35:47.001Z</time></trkpt><trkpt lat="44.11746574490043" lon="11.350868542426443"><ele>538.0</ele><time>2026-04-10T11:35:48.001Z</time></trkpt><trkpt lat="44.117515898418056" lon="11.351047731981659"><ele>537.5</ele><time>2026-04-10T11:35:49.001Z</time></trkpt><trkpt lat="44.11753075633346" lon="11.351225767799068"><ele>537.0</ele><time>2026-04-10T11:35:50.001Z</time></trkpt><trkpt lat="44.117510220555715" lon="11.351395383926345"><ele>537.0</ele><time>2026-04-10T11:35:51.001Z</time></trkpt><trkpt lat="44.1174588978748" lon="11.35154387162205"><ele>537.0</ele><time>2026-04-10T11:35:52.001Z</time></trkpt><trkpt lat="44.11742840570713" lon="11.351682690107435"><ele>537.0</ele><time>2026-04-10T11:35:53.001Z</time></trkpt><trkpt lat="44.11745727764278" lon="11.351822869223827"><ele>537.0</ele><time>2026-04-10T11:35:54.001Z</time></trkpt><trkpt lat="44.117524094552046" lon="11.351952026085282"><ele>537.0</ele><time>2026-04-10T11:35:55.001Z</time></trkpt><trkpt lat="44.11762005253238" lon="11.352056296186772"><ele>537.0</ele><time>2026-04-10T11:35:56.001Z</time></trkpt><trkpt lat="44.117694871875045" lon="11.352173111508774"><ele>537.0</ele><time>2026-04-10T11:35:57.001Z</time></trkpt><trkpt lat="44.117704018735694" lon="11.352348612572332"><ele>537.0</ele><time>2026-04-10T11:35:58.001Z</time></trkpt><trkpt lat="44.11768298860789" lon="11.352517914252601"><ele>537.0</ele><time>2026-04-10T11:35:59.001Z</time></trkpt><trkpt lat="44.117654982351645" lon="11.352681455169213"><ele>534.75</ele><time>2026-04-10T11:36:00.001Z</time></trkpt><trkpt lat="44.117636560060916" lon="11.35284967490851"><ele>532.5</ele><time>2026-04-10T11:36:01.001Z</time></trkpt><trkpt lat="44.11761056790457" lon="11.353027179559914"><ele>530.25</ele><time>2026-04-10T11:36:02.001Z</time></trkpt><trkpt lat="44.11757514948711" lon="11.353189188733944"><ele>528.0</ele><time>2026-04-10T11:36:03.001Z</time></trkpt><trkpt lat="44.11753255016978" lon="11.353342037036967"><ele>526.8</ele><time>2026-04-10T11:36:04.001Z</time></trkpt><trkpt lat="44.1174839618692" lon="11.353482639493697"><ele>525.5999999999999</ele><time>2026-04-10T11:36:05.001Z</time></trkpt><trkpt lat="44.117422239743426" lon="11.353609151212806"><ele>524.4000000000001</ele><time>2026-04-10T11:36:06.001Z</time></trkpt><trkpt lat="44.117342609595276" lon="11.353715118376178"><ele>523.2</ele><time>2026-04-10T11:36:07.001Z</time></trkpt><trkpt lat="44.11724484255949" lon="11.353779914531849"><ele>522.0</ele><time>2026-04-10T11:36:08.001Z</time></trkpt><trkpt lat="44.117141693108806" lon="11.353823907200724"><ele>520.4</ele><time>2026-04-10T11:36:09.001Z</time></trkpt><trkpt lat="44.11703476509738" lon="11.353842478711176"><ele>518.8000000000001</ele><time>2026-04-10T11:36:10.001Z</time></trkpt><trkpt lat="44.11692762967315" lon="11.35381755709307"><ele>517.2</ele><time>2026-04-10T11:36:11.001Z</time></trkpt><trkpt lat="44.11683402109884" lon="11.35378891676538"><ele>515.6</ele><time>2026-04-10T11:36:12.001Z</time></trkpt><trkpt lat="44.11675112980779" lon="11.353814261614845"><ele>514.0</ele><time>2026-04-10T11:36:13.001Z</time></trkpt><trkpt lat="44.116687355323656" lon="11.353895936648781"><ele>513.8</ele><time>2026-04-10T11:36:14.001Z</time></trkpt><trkpt lat="44.116650885345024" lon="11.354006968577147"><ele>513.5999999999999</ele><time>2026-04-10T11:36:15.001Z</time></trkpt><trkpt lat="44.11663023521218" lon="11.35412879927183"><ele>513.4</ele><time>2026-04-10T11:36:16.001Z</time></trkpt><trkpt lat="44.11661768965829" lon="11.354258916469195"><ele>513.1999999999999</ele><time>2026-04-10T11:36:17.001Z</time></trkpt><trkpt lat="44.11660271989445" lon="11.354389797301007"><ele>513.0</ele><time>2026-04-10T11:36:18.001Z</time></trkpt><trkpt lat="44.1165829642793" lon="11.354521698138234"><ele>509.79999999999995</ele><time>2026-04-10T11:36:19.001Z</time></trkpt><trkpt lat="44.1165500877833" lon="11.354644407581782"><ele>506.59999999999997</ele><time>2026-04-10T11:36:20.001Z</time></trkpt><trkpt lat="44.11650013118404" lon="11.354755107613446"><ele>503.40000000000003</ele><time>2026-04-10T11:36:21.001Z</time></trkpt><trkpt lat="44.11643912792701" lon="11.35484846170594"><ele>500.20000000000005</ele><time>2026-04-10T11:36:22.001Z</time></trkpt><trkpt lat="44.1163837508405" lon="11.354944680130785"><ele>497.0</ele><time>2026-04-10T11:36:23.001Z</time></trkpt><trkpt lat="44.11634212697062" lon="11.355054384533343"><ele>496.66666666666663</ele><time>2026-04-10T11:36:24.001Z</time></trkpt><trkpt lat="44.11631916246209" lon="11.355176436313432"><ele>496.3333333333333</ele><time>2026-04-10T11:36:25.001Z</time></trkpt><trkpt lat="44.116318239923096" lon="11.355303248837568"><ele>496.0</ele><time>2026-04-10T11:36:26Z</time></trkpt><trkpt lat="44.11633516608336" lon="11.355424853985655"><ele>495.66666666666663</ele><time>2026-04-10T11:36:27Z</time></trkpt><trkpt lat="44.11635482563189" lon="11.35553692277225"><ele>495.3333333333333</ele><time>2026-04-10T11:36:28Z</time></trkpt><trkpt lat="44.11637376765882" lon="11.355639871111999"><ele>495.0</ele><time>2026-04-10T11:36:29Z</time></trkpt><trkpt lat="44.116398096443085" lon="11.355739136211383"><ele>494.0</ele><time>2026-04-10T11:36:30Z</time></trkpt><trkpt lat="44.11642482262028" lon="11.3558357172113"><ele>493.0</ele><time>2026-04-10T11:36:31Z</time></trkpt><trkpt lat="44.116459468807214" lon="11.355926367853971"><ele>492.0</ele><time>2026-04-10T11:36:32Z</time></trkpt><trkpt lat="44.116504997834184" lon="11.356011251295335"><ele>491.0</ele><time>2026-04-10T11:36:33Z</time></trkpt><trkpt lat="44.11655435111124" lon="11.356096965304008"><ele>490.0</ele><time>2026-04-10T11:36:34Z</time></trkpt><trkpt lat="44.11659244130269" lon="11.356194826719452"><ele>489.0</ele><time>2026-04-10T11:36:35Z</time></trkpt><trkpt lat="44.11660843211858" lon="11.356307740026166"><ele>490.3333333333333</ele><time>2026-04-10T11:36:36Z</time></trkpt><trkpt lat="44.11659488223288" lon="11.356420643643595"><ele>491.66666666666663</ele><time>2026-04-10T11:36:37Z</time></trkpt><trkpt lat="44.11656678452863" lon="11.3565211211347"><ele>493.0</ele><time>2026-04-10T11:36:38Z</time></trkpt><trkpt lat="44.11652937507836" lon="11.356606933094321"><ele>494.3333333333333</ele><time>2026-04-10T11:36:39Z</time></trkpt><trkpt lat="44.11649441498441" lon="11.356694203639446"><ele>495.66666666666663</ele><time>2026-04-10T11:36:40Z</time></trkpt><trkpt lat="44.116473005799186" lon="11.356790498157988"><ele>497.0</ele><time>2026-04-10T11:36:41Z</time></trkpt><trkpt lat="44.11647210535222" lon="11.356897654670565"><ele>494.3333333333333</ele><time>2026-04-10T11:36:42Z</time></trkpt><trkpt lat="44.11647681227649" lon="11.357006815155064"><ele>491.66666666666663</ele><time>2026-04-10T11:36:43Z</time></trkpt><trkpt lat="44.11648123800898" lon="11.357118726458602"><ele>489.0</ele><time>2026-04-10T11:36:44Z</time></trkpt><trkpt lat="44.11648334092789" lon="11.35723401635339"><ele>486.33333333333337</ele><time>2026-04-10T11:36:45Z</time></trkpt><trkpt lat="44.116486405522906" lon="11.357350370955038"><ele>483.6666666666667</ele><time>2026-04-10T11:36:46Z</time></trkpt><trkpt lat="44.116494070649125" lon="11.357463039610462"><ele>481.0</ele><time>2026-04-10T11:36:47Z</time></trkpt><trkpt lat="44.11650862479328" lon="11.357572188426932"><ele>480.83333333333337</ele><time>2026-04-10T11:36:48Z</time></trkpt><trkpt lat="44.11652688858448" lon="11.35767790633354"><ele>480.6666666666667</ele><time>2026-04-10T11:36:49Z</time></trkpt><trkpt lat="44.116548199323375" lon="11.357785553202561"><ele>480.5</ele><time>2026-04-10T11:36:50Z</time></trkpt><trkpt lat="44.11656895644901" lon="11.357898604064259"><ele>480.33333333333337</ele><time>2026-04-10T11:36:51Z</time></trkpt><trkpt lat="44.11658150380626" lon="11.358016652206421"><ele>480.1666666666667</ele><time>2026-04-10T11:36:52Z</time></trkpt><trkpt lat="44.11659044303672" lon="11.358137966722623"><ele>480.0</ele><time>2026-04-10T11:36:53Z</time></trkpt><trkpt lat="44.11660591957143" lon="11.358257591378562"><ele>480.0</ele><time>2026-04-10T11:36:54Z</time></trkpt><trkpt lat="44.116635010641374" lon="11.358376002590479"><ele>480.0</ele><time>2026-04-10T11:36:55Z</time></trkpt><trkpt lat="44.116670135402714" lon="11.358492210023758"><ele>480.0</ele><time>2026-04-10T11:36:56Z</time></trkpt><trkpt lat="44.11670669324952" lon="11.35860652662553"><ele>480.0</ele><time>2026-04-10T11:36:57Z</time></trkpt><trkpt lat="44.11674345436019" lon="11.35872014627786"><ele>480.0</ele><time>2026-04-10T11:36:58Z</time></trkpt><trkpt lat="44.11677686447461" lon="11.35883499701923"><ele>480.0</ele><time>2026-04-10T11:36:59Z</time></trkpt><trkpt lat="44.11680785511241" lon="11.358952818096439"><ele>478.0</ele><time>2026-04-10T11:37:00Z</time></trkpt><trkpt lat="44.11684003532594" lon="11.359067116991698"><ele>476.0</ele><time>2026-04-10T11:37:01Z</time></trkpt><trkpt lat="44.116878972342064" lon="11.359177038590836"><ele>474.0</ele><time>2026-04-10T11:37:02Z</time></trkpt><trkpt lat="44.116932079918215" lon="11.359275136645897"><ele>472.0</ele><time>2026-04-10T11:37:03Z</time></trkpt><trkpt lat="44.11699935181342" lon="11.359350346721985"><ele>470.0</ele><time>2026-04-10T11:37:04Z</time></trkpt><trkpt lat="44.11707680023512" lon="11.359403505064424"><ele>468.0</ele><time>2026-04-10T11:37:05Z</time></trkpt><trkpt lat="44.1171579015086" lon="11.359463155528358"><ele>468.0</ele><time>2026-04-10T11:37:06Z</time></trkpt><trkpt lat="44.11724494121283" lon="11.359499717456607"><ele>468.0</ele><time>2026-04-10T11:37:07Z</time></trkpt><trkpt lat="44.117330215962625" lon="11.359535003642737"><ele>468.0</ele><time>2026-04-10T11:37:08Z</time></trkpt><trkpt lat="44.117415962791206" lon="11.35957048505301"><ele>468.0</ele><time>2026-04-10T11:37:09Z</time></trkpt><trkpt lat="44.11750055856618" lon="11.35960549025669"><ele>468.0</ele><time>2026-04-10T11:37:10Z</time></trkpt><trkpt lat="44.117587367084106" lon="11.359641410911616"><ele>468.0</ele><time>2026-04-10T11:37:11Z</time></trkpt><trkpt lat="44.117689975049935" lon="11.359684894414114"><ele>466.5</ele><time>2026-04-10T11:37:12Z</time></trkpt><trkpt lat="44.11782615955072" lon="11.359744720540649"><ele>465.0</ele><time>2026-04-10T11:37:13Z</time></trkpt><trkpt lat="44.117965839049226" lon="11.359790123655388"><ele>463.5</ele><time>2026-04-10T11:37:14Z</time></trkpt><trkpt lat="44.118097388936306" lon="11.359810094725079"><ele>462.0</ele><time>2026-04-10T11:37:15Z</time></trkpt><trkpt lat="44.11822097788123" lon="11.359853031875241"><ele>462.0</ele><time>2026-04-10T11:37:16Z</time></trkpt><trkpt lat="44.11832926912287" lon="11.35988708798896"><ele>462.0</ele><time>2026-04-10T11:37:17Z</time></trkpt><trkpt lat="44.11842701293148" lon="11.359902927893597"><ele>462.0</ele><time>2026-04-10T11:37:18Z</time></trkpt><trkpt lat="44.11851683087687" lon="11.359912114137403"><ele>462.0</ele><time>2026-04-10T11:37:19Z</time></trkpt><trkpt lat="44.118592885263006" lon="11.35990805216785"><ele>462.0</ele><time>2026-04-10T11:37:20Z</time></trkpt><trkpt lat="44.11865662596482" lon="11.35990442061782"><ele>462.0</ele><time>2026-04-10T11:37:21Z</time></trkpt><trkpt lat="44.11874428898765" lon="11.35989033431245"><ele>462.0</ele><time>2026-04-10T11:37:23.001Z</time></trkpt><trkpt lat="44.11880799585116" lon="11.35987803929487"><ele>462.0</ele><time>2026-04-10T11:37:26.001Z</time></trkpt><trkpt lat="44.11887407492824" lon="11.359858972186965"><ele>462.0</ele><time>2026-04-10T11:37:28.001Z</time></trkpt><trkpt lat="44.11896739289159" lon="11.359853970027409"><ele>462.0</ele><time>2026-04-10T11:37:30.001Z</time></trkpt><trkpt lat="44.11906515719443" lon="11.359872265649363"><ele>462.0</ele><time>2026-04-10T11:37:32.001Z</time></trkpt><trkpt lat="44.11910102839758" lon="11.359997491643094"><ele>462.0</ele><time>2026-04-10T11:37:34.001Z</time></trkpt><trkpt lat="44.11901653970725" lon="11.360144739758717"><ele>462.0</ele><time>2026-04-10T11:37:36.001Z</time></trkpt><trkpt lat="44.11895570276581" lon="11.360219101292737"><ele>462.0</ele><time>2026-04-10T11:37:37.001Z</time></trkpt><trkpt lat="44.118884107135436" lon="11.360308911179589"><ele>462.0</ele><time>2026-04-10T11:37:38.001Z</time></trkpt><trkpt lat="44.118814300474135" lon="11.360398969197133"><ele>462.0</ele><time>2026-04-10T11:37:39.001Z</time></trkpt><trkpt lat="44.118750395983774" lon="11.360482392742334"><ele>462.0</ele><time>2026-04-10T11:37:40.001Z</time></trkpt><trkpt lat="44.11868488613072" lon="11.360560494849054"><ele>462.0</ele><time>2026-04-10T11:37:41.001Z</time></trkpt><trkpt lat="44.118622332048524" lon="11.36064027339252"><ele>459.2857142857143</ele><time>2026-04-10T11:37:42.001Z</time></trkpt><trkpt lat="44.118569454481396" lon="11.360710624418582"><ele>456.57142857142856</ele><time>2026-04-10T11:37:43.001Z</time></trkpt><trkpt lat="44.118515666379515" lon="11.36077533489049"><ele>453.8571428571429</ele><time>2026-04-10T11:37:44.001Z</time></trkpt><trkpt lat="44.11846241732654" lon="11.360839001107056"><ele>451.1428571428571</ele><time>2026-04-10T11:37:45.001Z</time></trkpt><trkpt lat="44.11841254769796" lon="11.360902199205105"><ele>448.42857142857144</ele><time>2026-04-10T11:37:46.001Z</time></trkpt><trkpt lat="44.11836365911279" lon="11.360969102907697"><ele>445.7142857142857</ele><time>2026-04-10T11:37:47.001Z</time></trkpt><trkpt lat="44.11831276916711" lon="11.361037679687081"><ele>443.0</ele><time>2026-04-10T11:37:48.001Z</time></trkpt><trkpt lat="44.11825607477189" lon="11.361106522503873"><ele>442.42857142857144</ele><time>2026-04-10T11:37:49.001Z</time></trkpt><trkpt lat="44.11820284120863" lon="11.361178069009357"><ele>441.8571428571429</ele><time>2026-04-10T11:37:50.001Z</time></trkpt><trkpt lat="44.11815612521471" lon="11.361254006202035"><ele>441.2857142857143</ele><time>2026-04-10T11:37:51.001Z</time></trkpt><trkpt lat="44.11810819956086" lon="11.361330080218062"><ele>440.7142857142857</ele><time>2026-04-10T11:37:52.001Z</time></trkpt><trkpt lat="44.118071045498354" lon="11.36141950576624"><ele>440.1428571428571</ele><time>2026-04-10T11:37:53.001Z</time></trkpt><trkpt lat="44.11806130612026" lon="11.361523015444607"><ele>439.57142857142856</ele><time>2026-04-10T11:37:54.001Z</time></trkpt><trkpt lat="44.11807641121268" lon="11.361623676394345"><ele>439.0</ele><time>2026-04-10T11:37:55.001Z</time></trkpt><trkpt lat="44.118110352400926" lon="11.361709375937853"><ele>439.00000000000006</ele><time>2026-04-10T11:37:56.001Z</time></trkpt><trkpt lat="44.1181484483436" lon="11.361789852786094"><ele>439.0</ele><time>2026-04-10T11:37:57.001Z</time></trkpt><trkpt lat="44.118187060545694" lon="11.361866696134772"><ele>439.0</ele><time>2026-04-10T11:37:58.001Z</time></trkpt><trkpt lat="44.11822191607278" lon="11.361945665757782"><ele>439.0</ele><time>2026-04-10T11:37:59.001Z</time></trkpt><trkpt lat="44.118277767054614" lon="11.362081563560956"><ele>439.00000000000006</ele><time>2026-04-10T11:38:01.001Z</time></trkpt><trkpt lat="44.1183204251734" lon="11.362223828225895"><ele>439.0</ele><time>2026-04-10T11:38:03.001Z</time></trkpt><trkpt lat="44.11829281377064" lon="11.362320806378804"><ele>438.1428571428571</ele><time>2026-04-10T11:38:04.001Z</time></trkpt><trkpt lat="44.1182682759973" lon="11.362403078606443"><ele>437.2857142857143</ele><time>2026-04-10T11:38:05.001Z</time></trkpt><trkpt lat="44.11823116993121" lon="11.362478883685714"><ele>436.42857142857144</ele><time>2026-04-10T11:38:06.001Z</time></trkpt><trkpt lat="44.11817243803549" lon="11.362533883650071"><ele>435.57142857142856</ele><time>2026-04-10T11:38:07.001Z</time></trkpt><trkpt lat="44.11812547284793" lon="11.362604521824053"><ele>434.7142857142857</ele><time>2026-04-10T11:38:08.001Z</time></trkpt><trkpt lat="44.118033906886446" lon="11.362596541233437"><ele>433.85714285714283</ele><time>2026-04-10T11:38:09.001Z</time></trkpt><trkpt lat="44.11795556004812" lon="11.362615155294133"><ele>433.0</ele><time>2026-04-10T11:38:10.001Z</time></trkpt><trkpt lat="44.117874128256624" lon="11.362629795056549"><ele>432.99999999999994</ele><time>2026-04-10T11:38:11.001Z</time></trkpt><trkpt lat="44.11779223286589" lon="11.362640085041575"><ele>433.0</ele><time>2026-04-10T11:38:12.001Z</time></trkpt><trkpt lat="44.11771599557856" lon="11.362649181569395"><ele>433.0</ele><time>2026-04-10T11:38:13.001Z</time></trkpt><trkpt lat="44.1176444780796" lon="11.362658812876617"><ele>433.0</ele><time>2026-04-10T11:38:14.001Z</time></trkpt><trkpt lat="44.11757382413222" lon="11.36267130481453"><ele>433.0</ele><time>2026-04-10T11:38:15.001Z</time></trkpt><trkpt lat="44.117507601799815" lon="11.362683918892065"><ele>432.99999999999994</ele><time>2026-04-10T11:38:16.001Z</time></trkpt><trkpt lat="44.11744516380943" lon="11.362696464196125"><ele>433.0</ele><time>2026-04-10T11:38:17.001Z</time></trkpt><trkpt lat="44.11733834073033" lon="11.36272064046554"><ele>433.0</ele><time>2026-04-10T11:38:19.001Z</time></trkpt><trkpt lat="44.11725283887209" lon="11.362728884022554"><ele>433.0</ele><time>2026-04-10T11:38:21.001Z</time></trkpt><trkpt lat="44.11715002128366" lon="11.362746028374328"><ele>433.0</ele><time>2026-04-10T11:38:23.001Z</time></trkpt><trkpt lat="44.11705713126194" lon="11.362761104344232"><ele>433.0</ele><time>2026-04-10T11:38:25Z</time></trkpt><trkpt lat="44.117027977224026" lon="11.363005624818031"><ele>432.4</ele><time>2026-04-10T11:38:27Z</time></trkpt><trkpt lat="44.11703919055313" lon="11.363124146284543"><ele>431.79999999999995</ele><time>2026-04-10T11:38:28Z</time></trkpt><trkpt lat="44.117048526503964" lon="11.363264225173621"><ele>431.2</ele><time>2026-04-10T11:38:29Z</time></trkpt><trkpt lat="44.11704938464867" lon="11.363424531663462"><ele>430.6</ele><time>2026-04-10T11:38:30Z</time></trkpt><trkpt lat="44.117052001614375" lon="11.363593058944657"><ele>430.0</ele><time>2026-04-10T11:38:31Z</time></trkpt><trkpt lat="44.117054773198625" lon="11.363760296255041"><ele>430.0</ele><time>2026-04-10T11:38:32Z</time></trkpt><trkpt lat="44.11705768987217" lon="11.363928443197802"><ele>430.0</ele><time>2026-04-10T11:38:33Z</time></trkpt><trkpt lat="44.11705813982621" lon="11.36410013588703"><ele>430.0</ele><time>2026-04-10T11:38:34Z</time></trkpt><trkpt lat="44.117056044808784" lon="11.364281501615322"><ele>430.0</ele><time>2026-04-10T11:38:35Z</time></trkpt><trkpt lat="44.11705395397104" lon="11.364470515397349"><ele>430.0</ele><time>2026-04-10T11:38:36Z</time></trkpt><trkpt lat="44.117048009979605" lon="11.36467520684096"><ele>430.0</ele><time>2026-04-10T11:38:37Z</time></trkpt><trkpt lat="44.117033367357884" lon="11.364883103482038"><ele>430.0</ele><time>2026-04-10T11:38:38Z</time></trkpt><trkpt lat="44.117009607951886" lon="11.365083761153608"><ele>430.0</ele><time>2026-04-10T11:38:39Z</time></trkpt><trkpt lat="44.11697817237087" lon="11.365277614143205"><ele>429.6666666666667</ele><time>2026-04-10T11:38:40Z</time></trkpt><trkpt lat="44.11693749824921" lon="11.365475553794633"><ele>429.33333333333337</ele><time>2026-04-10T11:38:41Z</time></trkpt><trkpt lat="44.116891019160015" lon="11.365675243642745"><ele>429.0</ele><time>2026-04-10T11:38:42Z</time></trkpt><trkpt lat="44.11684367446652" lon="11.365879870754332"><ele>428.66666666666663</ele><time>2026-04-10T11:38:43Z</time></trkpt><trkpt lat="44.11679482978153" lon="11.36608645872529"><ele>428.3333333333333</ele><time>2026-04-10T11:38:44Z</time></trkpt><trkpt lat="44.11674326519384" lon="11.366294261273831"><ele>428.0</ele><time>2026-04-10T11:38:45Z</time></trkpt><trkpt lat="44.11669109481666" lon="11.36650390572117"><ele>427.66666666666663</ele><time>2026-04-10T11:38:46Z</time></trkpt><trkpt lat="44.116640750804585" lon="11.366714403401387"><ele>427.33333333333337</ele><time>2026-04-10T11:38:47Z</time></trkpt><trkpt lat="44.116589831381425" lon="11.366927141760451"><ele>427.0</ele><time>2026-04-10T11:38:48Z</time></trkpt><trkpt lat="44.116541368643446" lon="11.367143393065254"><ele>427.0</ele><time>2026-04-10T11:38:49Z</time></trkpt><trkpt lat="44.11650282171319" lon="11.367364078375514"><ele>427.0</ele><time>2026-04-10T11:38:50Z</time></trkpt><trkpt lat="44.116477569568836" lon="11.367589739671391"><ele>427.0</ele><time>2026-04-10T11:38:51Z</time></trkpt><trkpt lat="44.11646525174497" lon="11.367813658379132"><ele>427.0</ele><time>2026-04-10T11:38:52Z</time></trkpt><trkpt lat="44.11645962923157" lon="11.368044066492248"><ele>427.0</ele><time>2026-04-10T11:38:53Z</time></trkpt><trkpt lat="44.1164614275028" lon="11.368278841098636"><ele>427.0</ele><time>2026-04-10T11:38:54Z</time></trkpt><trkpt lat="44.11647425611177" lon="11.368517066116436"><ele>427.0</ele><time>2026-04-10T11:38:55Z</time></trkpt><trkpt lat="44.116500585998196" lon="11.368755428404405"><ele>427.0</ele><time>2026-04-10T11:38:56Z</time></trkpt><trkpt lat="44.11653225686542" lon="11.368984640336102"><ele>427.0</ele><time>2026-04-10T11:38:57Z</time></trkpt><trkpt lat="44.116562544230405" lon="11.369202110907183"><ele>426.0</ele><time>2026-04-10T11:38:58Z</time></trkpt><trkpt lat="44.11659123901368" lon="11.369419573666407"><ele>425.0</ele><time>2026-04-10T11:38:59Z</time></trkpt><trkpt lat="44.11662175425777" lon="11.369638250422227"><ele>424.0</ele><time>2026-04-10T11:39:00Z</time></trkpt><trkpt lat="44.11665211509452" lon="11.369859479958913"><ele>424.0</ele><time>2026-04-10T11:39:01Z</time></trkpt><trkpt lat="44.11667913693011" lon="11.370079752909716"><ele>424.0</ele><time>2026-04-10T11:39:02Z</time></trkpt><trkpt lat="44.11670326469362" lon="11.370292637737876"><ele>424.0</ele><time>2026-04-10T11:39:03Z</time></trkpt><trkpt lat="44.11672886999512" lon="11.370493799359396"><ele>423.33333333333337</ele><time>2026-04-10T11:39:04Z</time></trkpt><trkpt lat="44.11675452251625" lon="11.370694618916588"><ele>422.66666666666663</ele><time>2026-04-10T11:39:05Z</time></trkpt><trkpt lat="44.11678089369874" lon="11.370904829759462"><ele>422.0</ele><time>2026-04-10T11:39:06Z</time></trkpt><trkpt lat="44.11680303317127" lon="11.371129380866442"><ele>422.0</ele><time>2026-04-10T11:39:07Z</time></trkpt><trkpt lat="44.11681930170806" lon="11.371356250798595"><ele>422.0</ele><time>2026-04-10T11:39:08Z</time></trkpt><trkpt lat="44.11682773580712" lon="11.371569152754898"><ele>422.0</ele><time>2026-04-10T11:39:09Z</time></trkpt><trkpt lat="44.11682673411162" lon="11.371772234978522"><ele>422.0</ele><time>2026-04-10T11:39:10Z</time></trkpt><trkpt lat="44.11681581173178" lon="11.371966153428788"><ele>422.0</ele><time>2026-04-10T11:39:11Z</time></trkpt><trkpt lat="44.116799186015875" lon="11.372152281820135"><ele>422.0</ele><time>2026-04-10T11:39:12Z</time></trkpt><trkpt lat="44.1167834316945" lon="11.372311338539024"><ele>422.0</ele><time>2026-04-10T11:39:13Z</time></trkpt><trkpt lat="44.11677217034914" lon="11.372422184912484"><ele>422.0</ele><time>2026-04-10T11:39:14Z</time></trkpt><trkpt lat="44.116741783509404" lon="11.37253109814783"><ele>422.0</ele><time>2026-04-10T11:39:15Z</time></trkpt><trkpt lat="44.116721014328625" lon="11.372686885007678"><ele>422.0</ele><time>2026-04-10T11:39:16Z</time></trkpt><trkpt lat="44.11669719220138" lon="11.372868587259084"><ele>422.0</ele><time>2026-04-10T11:39:17Z</time></trkpt><trkpt lat="44.11668452972215" lon="11.37309430301959"><ele>421.66666666666663</ele><time>2026-04-10T11:39:18Z</time></trkpt><trkpt lat="44.11665765144582" lon="11.373332505426244"><ele>421.33333333333337</ele><time>2026-04-10T11:39:19Z</time></trkpt><trkpt lat="44.11663273293306" lon="11.373574492840044"><ele>421.0</ele><time>2026-04-10T11:39:20Z</time></trkpt><trkpt lat="44.116625427801296" lon="11.373811551148087"><ele>421.0</ele><time>2026-04-10T11:39:21Z</time></trkpt><trkpt lat="44.11664239118734" lon="11.374045676704952"><ele>421.0</ele><time>2026-04-10T11:39:22Z</time></trkpt><trkpt lat="44.116679780871486" lon="11.374277385219234"><ele>421.0</ele><time>2026-04-10T11:39:23Z</time></trkpt><trkpt lat="44.116729655942315" lon="11.374509948605137"><ele>420.6666666666667</ele><time>2026-04-10T11:39:24Z</time></trkpt><trkpt lat="44.116790044639515" lon="11.374735943056175"><ele>420.33333333333337</ele><time>2026-04-10T11:39:25Z</time></trkpt><trkpt lat="44.11686619292283" lon="11.374943451383354"><ele>420.0</ele><time>2026-04-10T11:39:26.001Z</time></trkpt><trkpt lat="44.116958900381725" lon="11.375127266127386"><ele>420.0</ele><time>2026-04-10T11:39:27.001Z</time></trkpt><trkpt lat="44.11704645963065" lon="11.375312442308266"><ele>420.0</ele><time>2026-04-10T11:39:28.001Z</time></trkpt><trkpt lat="44.117150621536446" lon="11.375451947261789"><ele>420.0</ele><time>2026-04-10T11:39:29.001Z</time></trkpt><trkpt lat="44.11722881777069" lon="11.375607501902781"><ele>420.0</ele><time>2026-04-10T11:39:30.001Z</time></trkpt><trkpt lat="44.11727108219312" lon="11.375779819188972"><ele>420.25</ele><time>2026-04-10T11:39:31.001Z</time></trkpt><trkpt lat="44.117266878938985" lon="11.375960730355795"><ele>420.5</ele><time>2026-04-10T11:39:32.001Z</time></trkpt><trkpt lat="44.11722900865907" lon="11.376144004275377"><ele>420.75</ele><time>2026-04-10T11:39:33.001Z</time></trkpt><trkpt lat="44.11718238159344" lon="11.376329860917389"><ele>421.0</ele><time>2026-04-10T11:39:34.001Z</time></trkpt><trkpt lat="44.11714105159847" lon="11.376516686819647"><ele>421.0</ele><time>2026-04-10T11:39:35.001Z</time></trkpt><trkpt lat="44.11710720901507" lon="11.376711699780195"><ele>421.0</ele><time>2026-04-10T11:39:36.001Z</time></trkpt><trkpt lat="44.11708510196136" lon="11.37691430721628"><ele>421.0</ele><time>2026-04-10T11:39:37.001Z</time></trkpt><trkpt lat="44.11708198534116" lon="11.377121354471727"><ele>421.0</ele><time>2026-04-10T11:39:38.001Z</time></trkpt><trkpt lat="44.117103307508664" lon="11.377326183546492"><ele>421.0</ele><time>2026-04-10T11:39:39.001Z</time></trkpt><trkpt lat="44.11713232586502" lon="11.377513925249405"><ele>421.0</ele><time>2026-04-10T11:39:40.001Z</time></trkpt><trkpt lat="44.11715607757767" lon="11.377680424747053"><ele>421.0</ele><time>2026-04-10T11:39:41.001Z</time></trkpt><trkpt lat="44.11717403257397" lon="11.377805237582592"><ele>421.0</ele><time>2026-04-10T11:39:42.001Z</time></trkpt><trkpt lat="44.11718663240968" lon="11.37790570133407"><ele>421.0</ele><time>2026-04-10T11:39:43.001Z</time></trkpt><trkpt lat="44.117200396192224" lon="11.37799833898776"><ele>421.0</ele><time>2026-04-10T11:39:44.001Z</time></trkpt><trkpt lat="44.11721290803863" lon="11.378084639878347"><ele>421.0</ele><time>2026-04-10T11:39:45.001Z</time></trkpt><trkpt lat="44.117225701009055" lon="11.378273580123718"><ele>421.0</ele><time>2026-04-10T11:39:47.001Z</time></trkpt><trkpt lat="44.11723367166942" lon="11.378382381579216"><ele>421.0</ele><time>2026-04-10T11:39:48.001Z</time></trkpt><trkpt lat="44.11724806834316" lon="11.37850053882247"><ele>421.0</ele><time>2026-04-10T11:39:49.001Z</time></trkpt><trkpt lat="44.11726358763667" lon="11.37862085268669"><ele>421.00000000000006</ele><time>2026-04-10T11:39:50.001Z</time></trkpt><trkpt lat="44.117279032691144" lon="11.378733485017069"><ele>421.0</ele><time>2026-04-10T11:39:51.001Z</time></trkpt><trkpt lat="44.11729642519261" lon="11.378848865603137"><ele>421.0</ele><time>2026-04-10T11:39:52.001Z</time></trkpt><trkpt lat="44.117316160104664" lon="11.378968666377672"><ele>421.0</ele><time>2026-04-10T11:39:53.001Z</time></trkpt><trkpt lat="44.117336880937174" lon="11.379084801314262"><ele>421.00000000000006</ele><time>2026-04-10T11:39:54.001Z</time></trkpt><trkpt lat="44.11735350617331" lon="11.379195202423107"><ele>421.0</ele><time>2026-04-10T11:39:55.001Z</time></trkpt><trkpt lat="44.11736590390254" lon="11.379302481009866"><ele>420.50000000000006</ele><time>2026-04-10T11:39:56.001Z</time></trkpt><trkpt lat="44.11736420797236" lon="11.379407038438314"><ele>420.0</ele><time>2026-04-10T11:39:57.001Z</time></trkpt><trkpt lat="44.1173470651111" lon="11.37950810912477"><ele>419.5</ele><time>2026-04-10T11:39:58.001Z</time></trkpt><trkpt lat="44.11730705887195" lon="11.379602581306733"><ele>419.0</ele><time>2026-04-10T11:39:59.001Z</time></trkpt><trkpt lat="44.11729050397105" lon="11.379691851758936"><ele>418.50000000000006</ele><time>2026-04-10T11:40:00.001Z</time></trkpt><trkpt lat="44.11714219998017" lon="11.37972135669779"><ele>418.0</ele><time>2026-04-10T11:40:01.001Z</time></trkpt><trkpt lat="44.117024616707006" lon="11.37975663372117"><ele>418.0</ele><time>2026-04-10T11:40:02.001Z</time></trkpt><trkpt lat="44.11689108852123" lon="11.37980530927287"><ele>418.0</ele><time>2026-04-10T11:40:03.001Z</time></trkpt><trkpt lat="44.11673847637718" lon="11.379863362334683"><ele>418.0</ele><time>2026-04-10T11:40:04.001Z</time></trkpt><trkpt lat="44.11657096656756" lon="11.379926062944817"><ele>418.33333333333337</ele><time>2026-04-10T11:40:05.001Z</time></trkpt><trkpt lat="44.11639344807133" lon="11.37999022465239"><ele>418.66666666666663</ele><time>2026-04-10T11:40:06.001Z</time></trkpt><trkpt lat="44.11622128589545" lon="11.380055086604584"><ele>419.0</ele><time>2026-04-10T11:40:07.001Z</time></trkpt><trkpt lat="44.11606752376336" lon="11.380114290034403"><ele>419.0</ele><time>2026-04-10T11:40:08.001Z</time></trkpt><trkpt lat="44.11592473375528" lon="11.380165349571472"><ele>419.0</ele><time>2026-04-10T11:40:09.001Z</time></trkpt><trkpt lat="44.11578202433295" lon="11.380200134498983"><ele>419.0</ele><time>2026-04-10T11:40:10.001Z</time></trkpt><trkpt lat="44.11563392547577" lon="11.380196407655154"><ele>419.0</ele><time>2026-04-10T11:40:11.001Z</time></trkpt><trkpt lat="44.11548887720552" lon="11.380160000437026"><ele>420.5</ele><time>2026-04-10T11:40:12.001Z</time></trkpt><trkpt lat="44.11535115418316" lon="11.380127876924599"><ele>422.0</ele><time>2026-04-10T11:40:13.001Z</time></trkpt><trkpt lat="44.11521834499581" lon="11.380143101189864"><ele>423.5</ele><time>2026-04-10T11:40:14.001Z</time></trkpt><trkpt lat="44.11507712167935" lon="11.380222690188708"><ele>425.0</ele><time>2026-04-10T11:40:15.001Z</time></trkpt><trkpt lat="44.114928451752725" lon="11.380346337272458"><ele>425.66666666666663</ele><time>2026-04-10T11:40:16.001Z</time></trkpt><trkpt lat="44.11477491450287" lon="11.380493979055132"><ele>426.33333333333337</ele><time>2026-04-10T11:40:17.001Z</time></trkpt><trkpt lat="44.11464509844555" lon="11.380627047772252"><ele>427.0</ele><time>2026-04-10T11:40:18.001Z</time></trkpt><trkpt lat="44.114517418743645" lon="11.380738440144203"><ele>427.0</ele><time>2026-04-10T11:40:19.001Z</time></trkpt><trkpt lat="44.11437688948414" lon="11.38082326248377"><ele>427.0</ele><time>2026-04-10T11:40:20.001Z</time></trkpt><trkpt lat="44.11421986512013" lon="11.380865702568967"><ele>427.0</ele><time>2026-04-10T11:40:21.001Z</time></trkpt><trkpt lat="44.11406912076775" lon="11.38086660838629"><ele>425.6666666666667</ele><time>2026-04-10T11:40:22.001Z</time></trkpt><trkpt lat="44.11390669564422" lon="11.380815824232009"><ele>424.33333333333337</ele><time>2026-04-10T11:40:23.001Z</time></trkpt><trkpt lat="44.11373913339259" lon="11.38073484528003"><ele>423.0</ele><time>2026-04-10T11:40:24.001Z</time></trkpt><trkpt lat="44.11356441911248" lon="11.380634078853914"><ele>423.0</ele><time>2026-04-10T11:40:25.001Z</time></trkpt><trkpt lat="44.11337724623201" lon="11.380524237206085"><ele>423.0</ele><time>2026-04-10T11:40:26.001Z</time></trkpt><trkpt lat="44.1131892493173" lon="11.380416797413018"><ele>423.0</ele><time>2026-04-10T11:40:27.001Z</time></trkpt><trkpt lat="44.113005630730825" lon="11.380310800252"><ele>424.66666666666663</ele><time>2026-04-10T11:40:28.001Z</time></trkpt><trkpt lat="44.11283231612928" lon="11.380210393719336"><ele>426.3333333333333</ele><time>2026-04-10T11:40:29.001Z</time></trkpt><trkpt lat="44.112663616035654" lon="11.380114545765027"><ele>428.0</ele><time>2026-04-10T11:40:30.001Z</time></trkpt><trkpt lat="44.11249779741384" lon="11.380019661059766"><ele>427.3333333333333</ele><time>2026-04-10T11:40:31Z</time></trkpt><trkpt lat="44.11233488636217" lon="11.379928555645247"><ele>426.66666666666663</ele><time>2026-04-10T11:40:32Z</time></trkpt><trkpt lat="44.11218182307028" lon="11.379845168443655"><ele>426.0</ele><time>2026-04-10T11:40:33Z</time></trkpt><trkpt lat="44.11203339057887" lon="11.379766232352033"><ele>426.0</ele><time>2026-04-10T11:40:34Z</time></trkpt><trkpt lat="44.11188763870285" lon="11.37969179335729"><ele>426.0</ele><time>2026-04-10T11:40:35Z</time></trkpt><trkpt lat="44.11174106976162" lon="11.379621637862702"><ele>426.0</ele><time>2026-04-10T11:40:36Z</time></trkpt><trkpt lat="44.11159309339784" lon="11.379586622464661"><ele>426.66666666666663</ele><time>2026-04-10T11:40:37Z</time></trkpt><trkpt lat="44.11144492703181" lon="11.379608886171763"><ele>427.3333333333333</ele><time>2026-04-10T11:40:38Z</time></trkpt><trkpt lat="44.11126729528959" lon="11.379646299212432"><ele>428.0</ele><time>2026-04-10T11:40:39Z</time></trkpt><trkpt lat="44.11106343450601" lon="11.379712105313097"><ele>428.0</ele><time>2026-04-10T11:40:40Z</time></trkpt><trkpt lat="44.110860124321924" lon="11.379796361257268"><ele>428.0</ele><time>2026-04-10T11:40:41Z</time></trkpt><trkpt lat="44.11064793517061" lon="11.379847232916923"><ele>428.0</ele><time>2026-04-10T11:40:42Z</time></trkpt><trkpt lat="44.11045209158665" lon="11.37991912095598"><ele>429.3333333333333</ele><time>2026-04-10T11:40:43Z</time></trkpt><trkpt lat="44.11027170822547" lon="11.379990905290144"><ele>430.66666666666663</ele><time>2026-04-10T11:40:44Z</time></trkpt><trkpt lat="44.110093518436436" lon="11.380047530193226"><ele>432.0</ele><time>2026-04-10T11:40:45Z</time></trkpt><trkpt lat="44.109914077084774" lon="11.380075699935876"><ele>431.0</ele><time>2026-04-10T11:40:46Z</time></trkpt><trkpt lat="44.10973087720258" lon="11.380060535908802"><ele>430.0</ele><time>2026-04-10T11:40:47Z</time></trkpt><trkpt lat="44.10954598640946" lon="11.379999585174128"><ele>429.0</ele><time>2026-04-10T11:40:48Z</time></trkpt><trkpt lat="44.10935558853308" lon="11.379906059635971"><ele>429.0</ele><time>2026-04-10T11:40:49Z</time></trkpt><trkpt lat="44.10915199706279" lon="11.379805343357777"><ele>429.0</ele><time>2026-04-10T11:40:50Z</time></trkpt><trkpt lat="44.10894392691196" lon="11.379710474980797"><ele>429.0</ele><time>2026-04-10T11:40:51Z</time></trkpt><trkpt lat="44.10873618375278" lon="11.3796144231088"><ele>429.33333333333337</ele><time>2026-04-10T11:40:52Z</time></trkpt><trkpt lat="44.10852853279017" lon="11.379513816567789"><ele>429.6666666666667</ele><time>2026-04-10T11:40:53Z</time></trkpt><trkpt lat="44.1083223869006" lon="11.379414603648993"><ele>430.0</ele><time>2026-04-10T11:40:54Z</time></trkpt><trkpt lat="44.1081162002914" lon="11.379317541259969"><ele>430.0</ele><time>2026-04-10T11:40:55Z</time></trkpt><trkpt lat="44.10791086616724" lon="11.379220945195692"><ele>430.0</ele><time>2026-04-10T11:40:56Z</time></trkpt><trkpt lat="44.107707346055385" lon="11.379119817631194"><ele>430.0</ele><time>2026-04-10T11:40:57Z</time></trkpt><trkpt lat="44.10750635305142" lon="11.379019388596724"><ele>429.6666666666667</ele><time>2026-04-10T11:40:58Z</time></trkpt><trkpt lat="44.107302045459384" lon="11.378916625694771"><ele>429.33333333333337</ele><time>2026-04-10T11:40:59Z</time></trkpt><trkpt lat="44.107095104729915" lon="11.378819005712662"><ele>429.0</ele><time>2026-04-10T11:41:00Z</time></trkpt><trkpt lat="44.10688569858673" lon="11.378728434549107"><ele>431.0</ele><time>2026-04-10T11:41:01Z</time></trkpt><trkpt lat="44.10667335681374" lon="11.37865017507765"><ele>433.0</ele><time>2026-04-10T11:41:02Z</time></trkpt><trkpt lat="44.10646166960228" lon="11.378582198189342"><ele>435.0</ele><time>2026-04-10T11:41:03Z</time></trkpt><trkpt lat="44.10624689354548" lon="11.378527679591576"><ele>435.0</ele><time>2026-04-10T11:41:04Z</time></trkpt><trkpt lat="44.106025517305405" lon="11.378488601954231"><ele>435.0</ele><time>2026-04-10T11:41:05Z</time></trkpt><trkpt lat="44.105803295214145" lon="11.378456885307788"><ele>435.0</ele><time>2026-04-10T11:41:06Z</time></trkpt><trkpt lat="44.10558060759517" lon="11.378422163377314"><ele>436.5</ele><time>2026-04-10T11:41:07Z</time></trkpt><trkpt lat="44.10535710708449" lon="11.378387699965844"><ele>438.0</ele><time>2026-04-10T11:41:08Z</time></trkpt><trkpt lat="44.10513201047159" lon="11.37836137044355"><ele>438.5</ele><time>2026-04-10T11:41:09Z</time></trkpt><trkpt lat="44.10490652158834" lon="11.378334646716965"><ele>439.0</ele><time>2026-04-10T11:41:10Z</time></trkpt><trkpt lat="44.10468297096" lon="11.378302098218951"><ele>439.0</ele><time>2026-04-10T11:41:11Z</time></trkpt><trkpt lat="44.104462587862564" lon="11.378265343405191"><ele>439.0</ele><time>2026-04-10T11:41:12Z</time></trkpt><trkpt lat="44.10425149978762" lon="11.378229584778458"><ele>439.0</ele><time>2026-04-10T11:41:13Z</time></trkpt><trkpt lat="44.104056719840685" lon="11.378195385002623"><ele>439.0</ele><time>2026-04-10T11:41:14Z</time></trkpt><trkpt lat="44.10387249288825" lon="11.378163295641759"><ele>439.0</ele><time>2026-04-10T11:41:15Z</time></trkpt><trkpt lat="44.10368748911249" lon="11.378136482417691"><ele>439.0</ele><time>2026-04-10T11:41:16Z</time></trkpt><trkpt lat="44.10350835823913" lon="11.378108305493575"><ele>439.0</ele><time>2026-04-10T11:41:17Z</time></trkpt><trkpt lat="44.10332712727893" lon="11.378084401609144"><ele>439.0</ele><time>2026-04-10T11:41:18Z</time></trkpt><trkpt lat="44.10314599514736" lon="11.378059039805775"><ele>439.0</ele><time>2026-04-10T11:41:19Z</time></trkpt><trkpt lat="44.102964838369786" lon="11.3780405918411"><ele>439.33333333333337</ele><time>2026-04-10T11:41:20Z</time></trkpt><trkpt lat="44.10278582957713" lon="11.37803291313488"><ele>439.66666666666663</ele><time>2026-04-10T11:41:21Z</time></trkpt><trkpt lat="44.10261170064092" lon="11.378046351446558"><ele>440.0</ele><time>2026-04-10T11:41:22Z</time></trkpt><trkpt lat="44.102439007006886" lon="11.378078230253964"><ele>440.3333333333333</ele><time>2026-04-10T11:41:23Z</time></trkpt><trkpt lat="44.102267613449584" lon="11.378130167658469"><ele>440.66666666666663</ele><time>2026-04-10T11:41:24Z</time></trkpt><trkpt lat="44.102098523399235" lon="11.378208791066964"><ele>441.0</ele><time>2026-04-10T11:41:25Z</time></trkpt><trkpt lat="44.101929180591505" lon="11.378307005102371"><ele>441.0</ele><time>2026-04-10T11:41:26Z</time></trkpt><trkpt lat="44.10176012250349" lon="11.378416830490583"><ele>441.0</ele><time>2026-04-10T11:41:27Z</time></trkpt><trkpt lat="44.10158930357754" lon="11.378531923970703"><ele>441.0</ele><time>2026-04-10T11:41:28Z</time></trkpt><trkpt lat="44.101417591067175" lon="11.378646159284957"><ele>441.66666666666663</ele><time>2026-04-10T11:41:29Z</time></trkpt><trkpt lat="44.101245019226496" lon="11.378759963346829"><ele>442.3333333333333</ele><time>2026-04-10T11:41:30Z</time></trkpt><trkpt lat="44.10107201927933" lon="11.378880851089894"><ele>443.0</ele><time>2026-04-10T11:41:31Z</time></trkpt><trkpt lat="44.10090289751887" lon="11.379004438886732"><ele>445.3333333333333</ele><time>2026-04-10T11:41:32Z</time></trkpt><trkpt lat="44.10073363685212" lon="11.37912496247174"><ele>447.66666666666663</ele><time>2026-04-10T11:41:33Z</time></trkpt><trkpt lat="44.10056482952065" lon="11.379249472208077"><ele>450.0</ele><time>2026-04-10T11:41:34Z</time></trkpt><trkpt lat="44.1003961419548" lon="11.37936584759357"><ele>450.0</ele><time>2026-04-10T11:41:35Z</time></trkpt><trkpt lat="44.10022143542666" lon="11.379482962920177"><ele>450.0</ele><time>2026-04-10T11:41:36Z</time></trkpt><trkpt lat="44.10004220354898" lon="11.379604477349174"><ele>450.0</ele><time>2026-04-10T11:41:37Z</time></trkpt><trkpt lat="44.09985863612117" lon="11.37973206881319"><ele>449.0</ele><time>2026-04-10T11:41:38Z</time></trkpt><trkpt lat="44.09967599613408" lon="11.379855275423077"><ele>448.0</ele><time>2026-04-10T11:41:39Z</time></trkpt><trkpt lat="44.09948941503136" lon="11.379974657428622"><ele>447.0</ele><time>2026-04-10T11:41:40Z</time></trkpt><trkpt lat="44.09930271355864" lon="11.380093172676254"><ele>447.0</ele><time>2026-04-10T11:41:41Z</time></trkpt><trkpt lat="44.09911542658386" lon="11.380211551126328"><ele>447.0</ele><time>2026-04-10T11:41:42Z</time></trkpt><trkpt lat="44.09892866921629" lon="11.380327787395268"><ele>447.0</ele><time>2026-04-10T11:41:43Z</time></trkpt><trkpt lat="44.09874575280074" lon="11.3804382512855"><ele>447.66666666666663</ele><time>2026-04-10T11:41:44Z</time></trkpt><trkpt lat="44.0985714978137" lon="11.380545328322606"><ele>448.3333333333333</ele><time>2026-04-10T11:41:45Z</time></trkpt><trkpt lat="44.098405016083774" lon="11.380646670399944"><ele>449.0</ele><time>2026-04-10T11:41:46Z</time></trkpt><trkpt lat="44.098236901299856" lon="11.380740521231635"><ele>451.66666666666663</ele><time>2026-04-10T11:41:47Z</time></trkpt><trkpt lat="44.098060287887435" lon="11.38082034431431"><ele>454.33333333333337</ele><time>2026-04-10T11:41:48Z</time></trkpt><trkpt lat="44.09789090308437" lon="11.38085682765919"><ele>457.0</ele><time>2026-04-10T11:41:49Z</time></trkpt><trkpt lat="44.09770861668616" lon="11.380843298132516"><ele>457.0</ele><time>2026-04-10T11:41:50Z</time></trkpt><trkpt lat="44.097515410932886" lon="11.380804006070157"><ele>457.0</ele><time>2026-04-10T11:41:51Z</time></trkpt><trkpt lat="44.097320861178325" lon="11.380768758531445"><ele>457.0</ele><time>2026-04-10T11:41:52Z</time></trkpt><trkpt lat="44.09714778379592" lon="11.380755981482896"><ele>460.33333333333337</ele><time>2026-04-10T11:41:53Z</time></trkpt><trkpt lat="44.09697290817953" lon="11.380783837329986"><ele>463.66666666666663</ele><time>2026-04-10T11:41:54Z</time></trkpt><trkpt lat="44.0968049196788" lon="11.380871824321645"><ele>467.0</ele><time>2026-04-10T11:41:55.001Z</time></trkpt><trkpt lat="44.0966385219688" lon="11.380995030630185"><ele>473.3333333333333</ele><time>2026-04-10T11:41:56.001Z</time></trkpt><trkpt lat="44.09646521296448" lon="11.381123445037082"><ele>479.66666666666663</ele><time>2026-04-10T11:41:57.001Z</time></trkpt><trkpt lat="44.09629159121664" lon="11.381239114275017"><ele>486.0</ele><time>2026-04-10T11:41:58.001Z</time></trkpt><trkpt lat="44.09612235198966" lon="11.381337935831594"><ele>487.33333333333337</ele><time>2026-04-10T11:41:59.001Z</time></trkpt><trkpt lat="44.095961071558705" lon="11.381442406458074"><ele>488.6666666666667</ele><time>2026-04-10T11:42:00.001Z</time></trkpt><trkpt lat="44.095825577499305" lon="11.381595052031088"><ele>490.0</ele><time>2026-04-10T11:42:01.001Z</time></trkpt><trkpt lat="44.09572096477268" lon="11.381808092810678"><ele>490.0</ele><time>2026-04-10T11:42:02.001Z</time></trkpt><trkpt lat="44.09565499148316" lon="11.382016844376505"><ele>490.0</ele><time>2026-04-10T11:42:03.001Z</time></trkpt><trkpt lat="44.095609949325066" lon="11.382207770837669"><ele>490.0</ele><time>2026-04-10T11:42:04.001Z</time></trkpt><trkpt lat="44.09554805496765" lon="11.382361459660041"><ele>490.0</ele><time>2026-04-10T11:42:05.001Z</time></trkpt><trkpt lat="44.09544734363966" lon="11.382475303941675"><ele>486.33333333333337</ele><time>2026-04-10T11:42:06.001Z</time></trkpt><trkpt lat="44.095320023153675" lon="11.382522357587701"><ele>482.66666666666663</ele><time>2026-04-10T11:42:07.001Z</time></trkpt><trkpt lat="44.095170528867" lon="11.382506243244102"><ele>479.0</ele><time>2026-04-10T11:42:08.001Z</time></trkpt><trkpt lat="44.09500561298391" lon="11.382455051226161"><ele>481.3333333333333</ele><time>2026-04-10T11:42:09.001Z</time></trkpt><trkpt lat="44.0948390637964" lon="11.382375867349893"><ele>483.66666666666663</ele><time>2026-04-10T11:42:10.001Z</time></trkpt><trkpt lat="44.094688218332884" lon="11.382281457929002"><ele>486.0</ele><time>2026-04-10T11:42:11.001Z</time></trkpt><trkpt lat="44.09456600700021" lon="11.382179851104082"><ele>489.0</ele><time>2026-04-10T11:42:12.001Z</time></trkpt><trkpt lat="44.09445707724848" lon="11.382069217324448"><ele>492.0</ele><time>2026-04-10T11:42:13.001Z</time></trkpt><trkpt lat="44.09434714651094" lon="11.381973468965743"><ele>495.0</ele><time>2026-04-10T11:42:14.001Z</time></trkpt><trkpt lat="44.0942286934476" lon="11.38192988041738"><ele>498.0</ele><time>2026-04-10T11:42:15.001Z</time></trkpt><trkpt lat="44.09410258329188" lon="11.381962238994165"><ele>499.5</ele><time>2026-04-10T11:42:16.001Z</time></trkpt><trkpt lat="44.09399320495365" lon="11.382066903770166"><ele>501.0</ele><time>2026-04-10T11:42:17.001Z</time></trkpt><trkpt lat="44.09391361950845" lon="11.382225713559622"><ele>502.5</ele><time>2026-04-10T11:42:18.001Z</time></trkpt><trkpt lat="44.093845956082795" lon="11.382406164873164"><ele>504.0</ele><time>2026-04-10T11:42:19.001Z</time></trkpt><trkpt lat="44.09378114680079" lon="11.382597298816068"><ele>504.0</ele><time>2026-04-10T11:42:20.001Z</time></trkpt><trkpt lat="44.093718428571" lon="11.382759257275678"><ele>504.0</ele><time>2026-04-10T11:42:21.001Z</time></trkpt><trkpt lat="44.09364348100308" lon="11.382888369351463"><ele>504.0</ele><time>2026-04-10T11:42:22.001Z</time></trkpt><trkpt lat="44.093536320463095" lon="11.38301151085564"><ele>504.0</ele><time>2026-04-10T11:42:23.001Z</time></trkpt><trkpt lat="44.09340626513988" lon="11.383128480911344"><ele>502.5</ele><time>2026-04-10T11:42:24.001Z</time></trkpt><trkpt lat="44.09327743200721" lon="11.383221855229754"><ele>501.0</ele><time>2026-04-10T11:42:25.001Z</time></trkpt><trkpt lat="44.09316247794792" lon="11.383302539363603"><ele>499.5</ele><time>2026-04-10T11:42:26.001Z</time></trkpt><trkpt lat="44.09304721636214" lon="11.38335894012672"><ele>498.0</ele><time>2026-04-10T11:42:27.001Z</time></trkpt><trkpt lat="44.092922932747314" lon="11.383358848177634"><ele>498.0</ele><time>2026-04-10T11:42:28.001Z</time></trkpt><trkpt lat="44.09280809180885" lon="11.383279559974385"><ele>498.0</ele><time>2026-04-10T11:42:29.001Z</time></trkpt><trkpt lat="44.09273201390639" lon="11.383130029328541"><ele>498.0</ele><time>2026-04-10T11:42:30.001Z</time></trkpt><trkpt lat="44.09266236687004" lon="11.382962376302709"><ele>498.0</ele><time>2026-04-10T11:42:31.001Z</time></trkpt><trkpt lat="44.092559702353036" lon="11.382852532665298"><ele>499.25</ele><time>2026-04-10T11:42:32.001Z</time></trkpt><trkpt lat="44.09242726518269" lon="11.382814179956386"><ele>500.5</ele><time>2026-04-10T11:42:33.001Z</time></trkpt><trkpt lat="44.09229753103947" lon="11.382840866501107"><ele>501.75</ele><time>2026-04-10T11:42:34.001Z</time></trkpt><trkpt lat="44.09218412750958" lon="11.382836941632505"><ele>503.0</ele><time>2026-04-10T11:42:35.001Z</time></trkpt><trkpt lat="44.092093777728465" lon="11.382747269873212"><ele>503.0</ele><time>2026-04-10T11:42:36.001Z</time></trkpt><trkpt lat="44.0920396066069" lon="11.38259445455685"><ele>503.0</ele><time>2026-04-10T11:42:37Z</time></trkpt><trkpt lat="44.092038534472344" lon="11.382409374884617"><ele>503.0</ele><time>2026-04-10T11:42:38Z</time></trkpt><trkpt lat="44.09207575222145" lon="11.382222614938145"><ele>503.0</ele><time>2026-04-10T11:42:39Z</time></trkpt><trkpt lat="44.092063671548516" lon="11.382045539141064"><ele>503.75</ele><time>2026-04-10T11:42:40Z</time></trkpt><trkpt lat="44.091989707584034" lon="11.381887899353018"><ele>504.5</ele><time>2026-04-10T11:42:41Z</time></trkpt><trkpt lat="44.09186776430757" lon="11.381774675795599"><ele>505.25</ele><time>2026-04-10T11:42:42Z</time></trkpt><trkpt lat="44.09172152556745" lon="11.381695723025476"><ele>506.0</ele><time>2026-04-10T11:42:43Z</time></trkpt><trkpt lat="44.09157273771465" lon="11.381650849449926"><ele>506.0</ele><time>2026-04-10T11:42:44Z</time></trkpt><trkpt lat="44.09144331859101" lon="11.38160637442705"><ele>506.0</ele><time>2026-04-10T11:42:45Z</time></trkpt><trkpt lat="44.091310517272625" lon="11.381608040923815"><ele>506.0</ele><time>2026-04-10T11:42:46Z</time></trkpt><trkpt lat="44.0911809535808" lon="11.381547556548764"><ele>506.0</ele><time>2026-04-10T11:42:47Z</time></trkpt><trkpt lat="44.09105928259327" lon="11.381445984857255"><ele>507.3333333333333</ele><time>2026-04-10T11:42:48Z</time></trkpt><trkpt lat="44.09094615963196" lon="11.381308851997812"><ele>508.66666666666663</ele><time>2026-04-10T11:42:49Z</time></trkpt><trkpt lat="44.090840809972455" lon="11.381144637942478"><ele>510.0</ele><time>2026-04-10T11:42:50Z</time></trkpt><trkpt lat="44.09074101740861" lon="11.380965298874038"><ele>510.0</ele><time>2026-04-10T11:42:51Z</time></trkpt><trkpt lat="44.090639678725196" lon="11.380788806581245"><ele>510.0</ele><time>2026-04-10T11:42:52Z</time></trkpt><trkpt lat="44.09053898424839" lon="11.380622729277881"><ele>510.0</ele><time>2026-04-10T11:42:53Z</time></trkpt><trkpt lat="44.09045029072466" lon="11.380461446797026"><ele>512.5</ele><time>2026-04-10T11:42:54Z</time></trkpt><trkpt lat="44.09037715414214" lon="11.380286366915296"><ele>515.0</ele><time>2026-04-10T11:42:55Z</time></trkpt><trkpt lat="44.0903193565171" lon="11.38010358497776"><ele>517.5</ele><time>2026-04-10T11:42:56Z</time></trkpt><trkpt lat="44.090268014600284" lon="11.379930445194981"><ele>520.0</ele><time>2026-04-10T11:42:57Z</time></trkpt><trkpt lat="44.09021050654013" lon="11.379771063971937"><ele>522.25</ele><time>2026-04-10T11:42:58Z</time></trkpt><trkpt lat="44.09011184135585" lon="11.379645830740342"><ele>524.5</ele><time>2026-04-10T11:42:59Z</time></trkpt><trkpt lat="44.08997527916705" lon="11.379566506541579"><ele>526.75</ele><time>2026-04-10T11:43:00Z</time></trkpt><trkpt lat="44.08982866763959" lon="11.379508926271658"><ele>529.0</ele><time>2026-04-10T11:43:01Z</time></trkpt><trkpt lat="44.08969408261958" lon="11.379459231197528"><ele>529.0</ele><time>2026-04-10T11:43:02Z</time></trkpt><trkpt lat="44.08957767571357" lon="11.379394914560342"><ele>529.0</ele><time>2026-04-10T11:43:03Z</time></trkpt><trkpt lat="44.089477680309976" lon="11.379286706413396"><ele>529.0</ele><time>2026-04-10T11:43:04Z</time></trkpt><trkpt lat="44.08939600614416" lon="11.379129268240025"><ele>529.0</ele><time>2026-04-10T11:43:05Z</time></trkpt><trkpt lat="44.08932121211119" lon="11.378947829039335"><ele>530.75</ele><time>2026-04-10T11:43:06Z</time></trkpt><trkpt lat="44.089236565446086" lon="11.378782039838134"><ele>532.5</ele><time>2026-04-10T11:43:07Z</time></trkpt><trkpt lat="44.08913901649711" lon="11.378668322266455"><ele>534.25</ele><time>2026-04-10T11:43:08Z</time></trkpt><trkpt lat="44.089024132944516" lon="11.378582682126561"><ele>536.0</ele><time>2026-04-10T11:43:09Z</time></trkpt><trkpt lat="44.08888356036141" lon="11.378613909992255"><ele>535.5</ele><time>2026-04-10T11:43:10Z</time></trkpt><trkpt lat="44.088753120349075" lon="11.378672598764611"><ele>535.0</ele><time>2026-04-10T11:43:11Z</time></trkpt><trkpt lat="44.08861418268855" lon="11.378743806504726"><ele>534.5</ele><time>2026-04-10T11:43:12Z</time></trkpt><trkpt lat="44.088465064577434" lon="11.378810459131136"><ele>534.0</ele><time>2026-04-10T11:43:13Z</time></trkpt><trkpt lat="44.08831625315841" lon="11.378875178198713"><ele>534.75</ele><time>2026-04-10T11:43:14Z</time></trkpt><trkpt lat="44.08817186437037" lon="11.378929024218582"><ele>535.5</ele><time>2026-04-10T11:43:15Z</time></trkpt><trkpt lat="44.088025843739565" lon="11.378952554221767"><ele>536.25</ele><time>2026-04-10T11:43:16Z</time></trkpt><trkpt lat="44.08787594796476" lon="11.378931685899532"><ele>537.0</ele><time>2026-04-10T11:43:17Z</time></trkpt><trkpt lat="44.08773093912731" lon="11.378886657682841"><ele>539.0</ele><time>2026-04-10T11:43:18Z</time></trkpt><trkpt lat="44.0875993043526" lon="11.37878401718649"><ele>541.0</ele><time>2026-04-10T11:43:19Z</time></trkpt><trkpt lat="44.08745793140419" lon="11.378705312937603"><ele>543.0</ele><time>2026-04-10T11:43:20Z</time></trkpt><trkpt lat="44.087321196672946" lon="11.378611961583024"><ele>544.5</ele><time>2026-04-10T11:43:21Z</time></trkpt><trkpt lat="44.087186900682546" lon="11.37853145726903"><ele>546.0</ele><time>2026-04-10T11:43:22Z</time></trkpt><trkpt lat="44.08705388762063" lon="11.378455145578682"><ele>547.5</ele><time>2026-04-10T11:43:23Z</time></trkpt><trkpt lat="44.0869263900636" lon="11.378390623095173"><ele>549.0</ele><time>2026-04-10T11:43:24Z</time></trkpt><trkpt lat="44.08680668863939" lon="11.378337399109261"><ele>549.0</ele><time>2026-04-10T11:43:25Z</time></trkpt><trkpt lat="44.08669272566792" lon="11.37830539430561"><ele>549.0</ele><time>2026-04-10T11:43:26Z</time></trkpt><trkpt lat="44.08656933206792" lon="11.37829229864814"><ele>549.0</ele><time>2026-04-10T11:43:27Z</time></trkpt><trkpt lat="44.08643568103506" lon="11.378296532318334"><ele>549.0</ele><time>2026-04-10T11:43:28Z</time></trkpt><trkpt lat="44.08629278270733" lon="11.37833078605328"><ele>550.3333333333334</ele><time>2026-04-10T11:43:29Z</time></trkpt><trkpt lat="44.086141497687706" lon="11.378381013598128"><ele>551.6666666666667</ele><time>2026-04-10T11:43:30Z</time></trkpt><trkpt lat="44.08598272404836" lon="11.378438259737703"><ele>553.0</ele><time>2026-04-10T11:43:31Z</time></trkpt><trkpt lat="44.08582419133594" lon="11.378492312927163"><ele>556.3333333333334</ele><time>2026-04-10T11:43:32Z</time></trkpt><trkpt lat="44.0856667137546" lon="11.378545127565944"><ele>559.6666666666666</ele><time>2026-04-10T11:43:33Z</time></trkpt><trkpt lat="44.08550919957988" lon="11.378596565049605"><ele>563.0</ele><time>2026-04-10T11:43:34Z</time></trkpt><trkpt lat="44.085355184902845" lon="11.378658551695732"><ele>563.0</ele><time>2026-04-10T11:43:35Z</time></trkpt><trkpt lat="44.08520871284124" lon="11.378745006619269"><ele>563.0</ele><time>2026-04-10T11:43:36Z</time></trkpt><trkpt lat="44.085071562215354" lon="11.378859123924691"><ele>563.0</ele><time>2026-04-10T11:43:37Z</time></trkpt><trkpt lat="44.0849456185458" lon="11.379010199273488"><ele>565.3333333333333</ele><time>2026-04-10T11:43:38Z</time></trkpt><trkpt lat="44.084833712980405" lon="11.379190338515333"><ele>567.6666666666666</ele><time>2026-04-10T11:43:39Z</time></trkpt><trkpt lat="44.084727095817364" lon="11.379376910708082"><ele>570.0</ele><time>2026-04-10T11:43:40Z</time></trkpt><trkpt lat="44.08462442566148" lon="11.379546626503151"><ele>568.3333333333334</ele><time>2026-04-10T11:43:41Z</time></trkpt><trkpt lat="44.08452661734173" lon="11.379713383403589"><ele>566.6666666666667</ele><time>2026-04-10T11:43:42Z</time></trkpt><trkpt lat="44.084425656540446" lon="11.379871602169821"><ele>565.0</ele><time>2026-04-10T11:43:43Z</time></trkpt><trkpt lat="44.08430507787599" lon="11.379992242016932"><ele>565.0</ele><time>2026-04-10T11:43:44Z</time></trkpt><trkpt lat="44.08416796079831" lon="11.380079636649528"><ele>565.0</ele><time>2026-04-10T11:43:45Z</time></trkpt><trkpt lat="44.084041576004786" lon="11.380130343972093"><ele>565.0</ele><time>2026-04-10T11:43:46Z</time></trkpt><trkpt lat="44.08392580174956" lon="11.380094211549435"><ele>565.0</ele><time>2026-04-10T11:43:47Z</time></trkpt><trkpt lat="44.08379647011194" lon="11.380002444216844"><ele>567.0</ele><time>2026-04-10T11:43:48Z</time></trkpt><trkpt lat="44.08366283311276" lon="11.379876293888378"><ele>569.0</ele><time>2026-04-10T11:43:49Z</time></trkpt><trkpt lat="44.083534655957735" lon="11.379751158887286"><ele>571.0</ele><time>2026-04-10T11:43:50Z</time></trkpt><trkpt lat="44.08340888163278" lon="11.379655444766652"><ele>572.75</ele><time>2026-04-10T11:43:51Z</time></trkpt><trkpt lat="44.08327659142216" lon="11.379587584310705"><ele>574.5</ele><time>2026-04-10T11:43:52Z</time></trkpt><trkpt lat="44.083142668550295" lon="11.379550563287532"><ele>576.25</ele><time>2026-04-10T11:43:53Z</time></trkpt><trkpt lat="44.08300695392149" lon="11.37956419513173"><ele>578.0</ele><time>2026-04-10T11:43:54Z</time></trkpt><trkpt lat="44.08287057721298" lon="11.379637239282317"><ele>579.6666666666666</ele><time>2026-04-10T11:43:55Z</time></trkpt><trkpt lat="44.08273064405086" lon="11.379745472878497"><ele>581.3333333333334</ele><time>2026-04-10T11:43:56.001Z</time></trkpt><trkpt lat="44.08260048804323" lon="11.379891718141739"><ele>583.0</ele><time>2026-04-10T11:43:57.001Z</time></trkpt><trkpt lat="44.082479926760826" lon="11.380081049854448"><ele>588.3333333333334</ele><time>2026-04-10T11:43:58.001Z</time></trkpt><trkpt lat="44.082352071591856" lon="11.380282545238112"><ele>593.6666666666666</ele><time>2026-04-10T11:43:59.001Z</time></trkpt><trkpt lat="44.08233345317079" lon="11.380580705432996"><ele>599.0</ele><time>2026-04-10T11:44:00.001Z</time></trkpt><trkpt lat="44.0823015614879" lon="11.380827364729148"><ele>599.0</ele><time>2026-04-10T11:44:01.001Z</time></trkpt><trkpt lat="44.082274847382635" lon="11.38105882483093"><ele>599.0</ele><time>2026-04-10T11:44:02.001Z</time></trkpt><trkpt lat="44.08224238649707" lon="11.381273084518257"><ele>599.0</ele><time>2026-04-10T11:44:03.001Z</time></trkpt><trkpt lat="44.082213014197265" lon="11.381478314055162"><ele>599.0</ele><time>2026-04-10T11:44:04.001Z</time></trkpt><trkpt lat="44.08221302569666" lon="11.381685878681237"><ele>599.0</ele><time>2026-04-10T11:44:05.001Z</time></trkpt><trkpt lat="44.0822598330508" lon="11.381890736928172"><ele>599.0</ele><time>2026-04-10T11:44:06.001Z</time></trkpt><trkpt lat="44.08235661407951" lon="11.382069835656239"><ele>596.0</ele><time>2026-04-10T11:44:07.001Z</time></trkpt><trkpt lat="44.08248031886008" lon="11.382225229887664"><ele>593.0</ele><time>2026-04-10T11:44:08.001Z</time></trkpt><trkpt lat="44.08259714349886" lon="11.38237081237207"><ele>590.0</ele><time>2026-04-10T11:44:09.001Z</time></trkpt><trkpt lat="44.08268661924916" lon="11.382527784881708"><ele>590.0</ele><time>2026-04-10T11:44:10.001Z</time></trkpt><trkpt lat="44.08275285980016" lon="11.382724598689299"><ele>590.0</ele><time>2026-04-10T11:44:11.001Z</time></trkpt><trkpt lat="44.08278280340188" lon="11.382947121235366"><ele>590.0</ele><time>2026-04-10T11:44:12.001Z</time></trkpt><trkpt lat="44.0827617406185" lon="11.383175110431058"><ele>591.5</ele><time>2026-04-10T11:44:13.001Z</time></trkpt><trkpt lat="44.08270767467515" lon="11.383375878576599"><ele>593.0</ele><time>2026-04-10T11:44:14.001Z</time></trkpt><trkpt lat="44.08262929881351" lon="11.383526416527628"><ele>594.5</ele><time>2026-04-10T11:44:15.001Z</time></trkpt><trkpt lat="44.08251744437794" lon="11.38363723820113"><ele>596.0</ele><time>2026-04-10T11:44:16.001Z</time></trkpt><trkpt lat="44.08237867538231" lon="11.383672469518459"><ele>598.0</ele><time>2026-04-10T11:44:17.001Z</time></trkpt><trkpt lat="44.082240801226696" lon="11.383641628043131"><ele>600.0</ele><time>2026-04-10T11:44:18.001Z</time></trkpt><trkpt lat="44.0821193462666" lon="11.383528954084758"><ele>602.0</ele><time>2026-04-10T11:44:19.001Z</time></trkpt><trkpt lat="44.08201075519066" lon="11.383382790281148"><ele>604.0</ele><time>2026-04-10T11:44:20.001Z</time></trkpt><trkpt lat="44.08192186242359" lon="11.383248970958347"><ele>604.0</ele><time>2026-04-10T11:44:21.001Z</time></trkpt><trkpt lat="44.08182179983725" lon="11.383174757860173"><ele>604.0</ele><time>2026-04-10T11:44:22.001Z</time></trkpt><trkpt lat="44.081699410257116" lon="11.383174946682821"><ele>604.0</ele><time>2026-04-10T11:44:23.001Z</time></trkpt><trkpt lat="44.08158022434396" lon="11.383250297962913"><ele>604.0</ele><time>2026-04-10T11:44:24.001Z</time></trkpt><trkpt lat="44.081470573390526" lon="11.383369970004253"><ele>605.0</ele><time>2026-04-10T11:44:25.001Z</time></trkpt><trkpt lat="44.08135335075388" lon="11.383484624718882"><ele>606.0</ele><time>2026-04-10T11:44:26.001Z</time></trkpt><trkpt lat="44.08121232667034" lon="11.38354733608115"><ele>607.0</ele><time>2026-04-10T11:44:27.001Z</time></trkpt><trkpt lat="44.081074292397076" lon="11.383573524655397"><ele>608.0</ele><time>2026-04-10T11:44:28.001Z</time></trkpt><trkpt lat="44.08094878831348" lon="11.383565141258922"><ele>608.0</ele><time>2026-04-10T11:44:29.001Z</time></trkpt><trkpt lat="44.08083087378777" lon="11.383494994362247"><ele>608.0</ele><time>2026-04-10T11:44:30.001Z</time></trkpt><trkpt lat="44.08073738774621" lon="11.383350361672179"><ele>608.0</ele><time>2026-04-10T11:44:31.001Z</time></trkpt><trkpt lat="44.080669806406874" lon="11.383159819870247"><ele>608.0</ele><time>2026-04-10T11:44:32.001Z</time></trkpt><trkpt lat="44.08063308243783" lon="11.382932102294314"><ele>609.5</ele><time>2026-04-10T11:44:33.001Z</time></trkpt><trkpt lat="44.0806405795012" lon="11.382733798393769"><ele>611.0</ele><time>2026-04-10T11:44:34.001Z</time></trkpt><trkpt lat="44.08069899937345" lon="11.382554858166175"><ele>612.5</ele><time>2026-04-10T11:44:35.001Z</time></trkpt><trkpt lat="44.080780673510674" lon="11.382374214627799"><ele>614.0</ele><time>2026-04-10T11:44:36.001Z</time></trkpt><trkpt lat="44.0808547218725" lon="11.382171905783789"><ele>616.3333333333333</ele><time>2026-04-10T11:44:37.001Z</time></trkpt><trkpt lat="44.08089879241316" lon="11.38195285879434"><ele>618.6666666666666</ele><time>2026-04-10T11:44:38.001Z</time></trkpt><trkpt lat="44.08092970998664" lon="11.381740280102239"><ele>621.0</ele><time>2026-04-10T11:44:39.001Z</time></trkpt><trkpt lat="44.08094470222842" lon="11.381526137384032"><ele>622.0</ele><time>2026-04-10T11:44:40.001Z</time></trkpt><trkpt lat="44.080940178634286" lon="11.381313772745449"><ele>623.0</ele><time>2026-04-10T11:44:41.001Z</time></trkpt><trkpt lat="44.08091195227016" lon="11.381102406372744"><ele>624.0</ele><time>2026-04-10T11:44:42.001Z</time></trkpt><trkpt lat="44.08084361544846" lon="11.380906073523116"><ele>628.3333333333334</ele><time>2026-04-10T11:44:43Z</time></trkpt><trkpt lat="44.08074263700131" lon="11.38072786540407"><ele>632.6666666666667</ele><time>2026-04-10T11:44:44Z</time></trkpt><trkpt lat="44.08061248576118" lon="11.380569984520433"><ele>637.0</ele><time>2026-04-10T11:44:45Z</time></trkpt><trkpt lat="44.08049594781067" lon="11.380426147093413"><ele>637.75</ele><time>2026-04-10T11:44:46Z</time></trkpt><trkpt lat="44.08039319206329" lon="11.380303223743146"><ele>638.5</ele><time>2026-04-10T11:44:47Z</time></trkpt><trkpt lat="44.08032937798798" lon="11.380169169122919"><ele>639.25</ele><time>2026-04-10T11:44:48Z</time></trkpt><trkpt lat="44.08027057513085" lon="11.380026787028948"><ele>640.0</ele><time>2026-04-10T11:44:49Z</time></trkpt><trkpt lat="44.08028334712236" lon="11.379839668934748"><ele>641.25</ele><time>2026-04-10T11:44:50Z</time></trkpt><trkpt lat="44.080350635085296" lon="11.37967601136348"><ele>642.5</ele><time>2026-04-10T11:44:51Z</time></trkpt><trkpt lat="44.08043909561443" lon="11.379541366119762"><ele>643.75</ele><time>2026-04-10T11:44:52Z</time></trkpt><trkpt lat="44.0805054523658" lon="11.379404653284563"><ele>645.0</ele><time>2026-04-10T11:44:53Z</time></trkpt><trkpt lat="44.08051876321187" lon="11.379248374238067"><ele>645.0</ele><time>2026-04-10T11:44:54Z</time></trkpt><trkpt lat="44.08046546074333" lon="11.379121282173502"><ele>645.0</ele><time>2026-04-10T11:44:55Z</time></trkpt><trkpt lat="44.080383816400754" lon="11.37905978195233"><ele>645.0</ele><time>2026-04-10T11:44:56Z</time></trkpt><trkpt lat="44.08029165031966" lon="11.379074823185706"><ele>645.0</ele><time>2026-04-10T11:44:57Z</time></trkpt><trkpt lat="44.08021590480489" lon="11.379173104067055"><ele>645.0</ele><time>2026-04-10T11:44:58Z</time></trkpt><trkpt lat="44.080142917857835" lon="11.379315205722191"><ele>645.0</ele><time>2026-04-10T11:44:59Z</time></trkpt><trkpt lat="44.080053676628495" lon="11.379485840938537"><ele>645.0</ele><time>2026-04-10T11:45:00Z</time></trkpt><trkpt lat="44.0799471240717" lon="11.379663406881287"><ele>645.0</ele><time>2026-04-10T11:45:01Z</time></trkpt><trkpt lat="44.07982451945719" lon="11.37983884556988"><ele>650.3333333333334</ele><time>2026-04-10T11:45:02Z</time></trkpt><trkpt lat="44.07970113918977" lon="11.379994781381361"><ele>655.6666666666667</ele><time>2026-04-10T11:45:03Z</time></trkpt><trkpt lat="44.07957936457948" lon="11.380146734016428"><ele>661.0</ele><time>2026-04-10T11:45:04Z</time></trkpt><trkpt lat="44.07945880821464" lon="11.380253529111707"><ele>661.0</ele><time>2026-04-10T11:45:05Z</time></trkpt><trkpt lat="44.07934820121864" lon="11.380350092501523"><ele>661.0</ele><time>2026-04-10T11:45:06Z</time></trkpt><trkpt lat="44.07921709622335" lon="11.380425027434452"><ele>661.0</ele><time>2026-04-10T11:45:07Z</time></trkpt><trkpt lat="44.079063423125284" lon="11.38045448868145"><ele>661.0</ele><time>2026-04-10T11:45:08Z</time></trkpt><trkpt lat="44.07890894252867" lon="11.38050476730109"><ele>662.3333333333334</ele><time>2026-04-10T11:45:09Z</time></trkpt><trkpt lat="44.07876001597245" lon="11.38059608084007"><ele>663.6666666666666</ele><time>2026-04-10T11:45:10Z</time></trkpt><trkpt lat="44.07863199637547" lon="11.3807394867411"><ele>665.0</ele><time>2026-04-10T11:45:11Z</time></trkpt><trkpt lat="44.07852100695201" lon="11.380921652892818"><ele>665.0</ele><time>2026-04-10T11:45:12Z</time></trkpt><trkpt lat="44.07841265589677" lon="11.381111391077336"><ele>665.0</ele><time>2026-04-10T11:45:13Z</time></trkpt><trkpt lat="44.0783014067849" lon="11.381297887293808"><ele>665.0</ele><time>2026-04-10T11:45:14Z</time></trkpt><trkpt lat="44.07818858820193" lon="11.381474428431293"><ele>673.3333333333333</ele><time>2026-04-10T11:45:15Z</time></trkpt><trkpt lat="44.078075459389936" lon="11.381647225810921"><ele>681.6666666666666</ele><time>2026-04-10T11:45:16Z</time></trkpt><trkpt lat="44.07796697497142" lon="11.381824681265755"><ele>690.0</ele><time>2026-04-10T11:45:17Z</time></trkpt><trkpt lat="44.07786330385885" lon="11.3820121977278"><ele>685.3333333333334</ele><time>2026-04-10T11:45:18Z</time></trkpt><trkpt lat="44.077770199594966" lon="11.382218190168256"><ele>680.6666666666667</ele><time>2026-04-10T11:45:19Z</time></trkpt><trkpt lat="44.07770576566941" lon="11.382417247963097"><ele>676.0</ele><time>2026-04-10T11:45:20Z</time></trkpt><trkpt lat="44.07766504778816" lon="11.382612869306126"><ele>676.0</ele><time>2026-04-10T11:45:21Z</time></trkpt><trkpt lat="44.07764513982294" lon="11.382804585094696"><ele>676.0</ele><time>2026-04-10T11:45:22Z</time></trkpt><trkpt lat="44.07762931678944" lon="11.382978603655138"><ele>676.0</ele><time>2026-04-10T11:45:23Z</time></trkpt><trkpt lat="44.077579884892074" lon="11.383126375758875"><ele>676.0</ele><time>2026-04-10T11:45:24Z</time></trkpt><trkpt lat="44.077484433962276" lon="11.383246835945037"><ele>679.0</ele><time>2026-04-10T11:45:25Z</time></trkpt><trkpt lat="44.0773583909769" lon="11.383346318437665"><ele>682.0</ele><time>2026-04-10T11:45:26Z</time></trkpt><trkpt lat="44.077220822467176" lon="11.383455319630626"><ele>685.0</ele><time>2026-04-10T11:45:27Z</time></trkpt><trkpt lat="44.07707994823443" lon="11.383562738510737"><ele>685.0</ele><time>2026-04-10T11:45:28Z</time></trkpt><trkpt lat="44.076953420427614" lon="11.383644691359097"><ele>685.0</ele><time>2026-04-10T11:45:29Z</time></trkpt><trkpt lat="44.0768204973973" lon="11.383668510555177"><ele>685.0</ele><time>2026-04-10T11:45:30Z</time></trkpt><trkpt lat="44.07668037432442" lon="11.383635259754632"><ele>685.0</ele><time>2026-04-10T11:45:31Z</time></trkpt><trkpt lat="44.076545925321625" lon="11.38357071997095"><ele>684.75</ele><time>2026-04-10T11:45:32Z</time></trkpt><trkpt lat="44.076410113102504" lon="11.38350499315263"><ele>684.5</ele><time>2026-04-10T11:45:33Z</time></trkpt><trkpt lat="44.076279838056365" lon="11.383440311989714"><ele>684.25</ele><time>2026-04-10T11:45:34Z</time></trkpt><trkpt lat="44.07616461250782" lon="11.383383085795575"><ele>684.0</ele><time>2026-04-10T11:45:35Z</time></trkpt><trkpt lat="44.07606073262365" lon="11.383352884027103"><ele>684.0</ele><time>2026-04-10T11:45:36Z</time></trkpt><trkpt lat="44.075958695535604" lon="11.383379549850916"><ele>684.0</ele><time>2026-04-10T11:45:37Z</time></trkpt><trkpt lat="44.0758565375615" lon="11.383466935868567"><ele>684.0</ele><time>2026-04-10T11:45:38Z</time></trkpt><trkpt lat="44.0757459720498" lon="11.383582534323102"><ele>684.0</ele><time>2026-04-10T11:45:39Z</time></trkpt><trkpt lat="44.07561952613872" lon="11.383697243184187"><ele>683.0</ele><time>2026-04-10T11:45:40Z</time></trkpt><trkpt lat="44.075481198112605" lon="11.383805986073812"><ele>682.0</ele><time>2026-04-10T11:45:41Z</time></trkpt><trkpt lat="44.07534352270138" lon="11.383901324523057"><ele>681.0</ele><time>2026-04-10T11:45:42Z</time></trkpt><trkpt lat="44.075217120524805" lon="11.383945131108003"><ele>680.0</ele><time>2026-04-10T11:45:43Z</time></trkpt><trkpt lat="44.07508077395124" lon="11.383929025506545"><ele>680.0</ele><time>2026-04-10T11:45:44Z</time></trkpt><trkpt lat="44.074943020217255" lon="11.383904583113562"><ele>680.0</ele><time>2026-04-10T11:45:45Z</time></trkpt><trkpt lat="44.07483030408336" lon="11.383914356031521"><ele>680.0</ele><time>2026-04-10T11:45:46Z</time></trkpt><trkpt lat="44.07472247310358" lon="11.383991971866093"><ele>680.0</ele><time>2026-04-10T11:45:47Z</time></trkpt><trkpt lat="44.07462600375219" lon="11.384141237989065"><ele>683.0</ele><time>2026-04-10T11:45:48Z</time></trkpt><trkpt lat="44.07452594022539" lon="11.384300581961584"><ele>686.0</ele><time>2026-04-10T11:45:49Z</time></trkpt><trkpt lat="44.0744231702935" lon="11.384435905431365"><ele>689.0</ele><time>2026-04-10T11:45:50Z</time></trkpt><trkpt lat="44.07433350892303" lon="11.384549519100622"><ele>692.0</ele><time>2026-04-10T11:45:51Z</time></trkpt><trkpt lat="44.07428022171183" lon="11.384682134535476"><ele>692.0</ele><time>2026-04-10T11:45:52Z</time></trkpt><trkpt lat="44.074274350933344" lon="11.384853336676445"><ele>692.0</ele><time>2026-04-10T11:45:53Z</time></trkpt><trkpt lat="44.07427675219453" lon="11.385008452927144"><ele>692.0</ele><time>2026-04-10T11:45:54Z</time></trkpt><trkpt lat="44.07424979599725" lon="11.385138624048475"><ele>692.0</ele><time>2026-04-10T11:45:55Z</time></trkpt><trkpt lat="44.074194439696335" lon="11.38526488817324"><ele>692.0</ele><time>2026-04-10T11:45:56Z</time></trkpt><trkpt lat="44.07409859278026" lon="11.385329992935384"><ele>696.75</ele><time>2026-04-10T11:45:57Z</time></trkpt><trkpt lat="44.07399906493381" lon="11.385311521894577"><ele>701.5</ele><time>2026-04-10T11:45:58Z</time></trkpt><trkpt lat="44.07388653700297" lon="11.385232361217609"><ele>706.25</ele><time>2026-04-10T11:45:59Z</time></trkpt><trkpt lat="44.07377972697007" lon="11.385141638210147"><ele>711.0</ele><time>2026-04-10T11:46:00Z</time></trkpt><trkpt lat="44.073666746829204" lon="11.385103963622342"><ele>711.0</ele><time>2026-04-10T11:46:01Z</time></trkpt><trkpt lat="44.073549556614836" lon="11.385142802201951"><ele>711.0</ele><time>2026-04-10T11:46:02Z</time></trkpt><trkpt lat="44.073459847868975" lon="11.385255876369461"><ele>711.0</ele><time>2026-04-10T11:46:03Z</time></trkpt><trkpt lat="44.073392976305634" lon="11.385423895119361"><ele>711.0</ele><time>2026-04-10T11:46:04Z</time></trkpt><trkpt lat="44.07333994711406" lon="11.385618741275671"><ele>713.25</ele><time>2026-04-10T11:46:05Z</time></trkpt><trkpt lat="44.073290517211746" lon="11.385807502181098"><ele>715.5</ele><time>2026-04-10T11:46:06.001Z</time></trkpt><trkpt lat="44.07324416929392" lon="11.385977965399768"><ele>717.75</ele><time>2026-04-10T11:46:07.001Z</time></trkpt><trkpt lat="44.073227717174234" lon="11.386149749028117"><ele>720.0</ele><time>2026-04-10T11:46:08.001Z</time></trkpt><trkpt lat="44.07326340220565" lon="11.386325358242466"><ele>720.0</ele><time>2026-04-10T11:46:09.001Z</time></trkpt><trkpt lat="44.073318244641044" lon="11.386472102701491"><ele>720.0</ele><time>2026-04-10T11:46:10.001Z</time></trkpt><trkpt lat="44.0733386944819" lon="11.386602015252821"><ele>720.0</ele><time>2026-04-10T11:46:11.001Z</time></trkpt><trkpt lat="44.07335608667038" lon="11.386718173403935"><ele>720.0</ele><time>2026-04-10T11:46:12.001Z</time></trkpt><trkpt lat="44.07329442233623" lon="11.386803356474632"><ele>720.0</ele><time>2026-04-10T11:46:13.001Z</time></trkpt><trkpt lat="44.073192398627796" lon="11.386812513607675"><ele>720.0</ele><time>2026-04-10T11:46:14.001Z</time></trkpt><trkpt lat="44.07308856555181" lon="11.386745498399135"><ele>720.0</ele><time>2026-04-10T11:46:15.001Z</time></trkpt><trkpt lat="44.07297994542" lon="11.386645011460706"><ele>720.0</ele><time>2026-04-10T11:46:16.001Z</time></trkpt><trkpt lat="44.072857335542906" lon="11.386539127710908"><ele>720.0</ele><time>2026-04-10T11:46:17.001Z</time></trkpt><trkpt lat="44.07271983182666" lon="11.386429733234639"><ele>720.0</ele><time>2026-04-10T11:46:18.001Z</time></trkpt><trkpt lat="44.07258685926647" lon="11.38631378730466"><ele>720.0</ele><time>2026-04-10T11:46:19.001Z</time></trkpt><trkpt lat="44.07246763594215" lon="11.386195679598911"><ele>720.0</ele><time>2026-04-10T11:46:20.001Z</time></trkpt><trkpt lat="44.072361401716435" lon="11.386078411482629"><ele>720.0</ele><time>2026-04-10T11:46:21.001Z</time></trkpt><trkpt lat="44.072276743431274" lon="11.385966417360464"><ele>720.6</ele><time>2026-04-10T11:46:22.001Z</time></trkpt><trkpt lat="44.072189581410804" lon="11.385900649850187"><ele>721.2</ele><time>2026-04-10T11:46:23.001Z</time></trkpt><trkpt lat="44.07208764492736" lon="11.385894072446945"><ele>721.8</ele><time>2026-04-10T11:46:24.001Z</time></trkpt><trkpt lat="44.071986801478545" lon="11.385957897848591"><ele>722.4</ele><time>2026-04-10T11:46:25.001Z</time></trkpt><trkpt lat="44.07189573230589" lon="11.38607193052806"><ele>723.0</ele><time>2026-04-10T11:46:26.001Z</time></trkpt><trkpt lat="44.07180986872975" lon="11.386189358843525"><ele>723.0</ele><time>2026-04-10T11:46:27.001Z</time></trkpt><trkpt lat="44.07171228932074" lon="11.38628728925235"><ele>723.0</ele><time>2026-04-10T11:46:28.001Z</time></trkpt><trkpt lat="44.07162890454882" lon="11.38640528725231"><ele>723.0</ele><time>2026-04-10T11:46:29.001Z</time></trkpt><trkpt lat="44.0715077908214" lon="11.386449794108477"><ele>723.0</ele><time>2026-04-10T11:46:30.001Z</time></trkpt><trkpt lat="44.071376681145566" lon="11.386439061557391"><ele>719.5</ele><time>2026-04-10T11:46:31.001Z</time></trkpt><trkpt lat="44.071258062841714" lon="11.386359562688074"><ele>716.0</ele><time>2026-04-10T11:46:32.001Z</time></trkpt><trkpt lat="44.07114074537327" lon="11.38624740838747"><ele>712.5</ele><time>2026-04-10T11:46:33.001Z</time></trkpt><trkpt lat="44.07101840500319" lon="11.386128388848478"><ele>709.0</ele><time>2026-04-10T11:46:34.001Z</time></trkpt><trkpt lat="44.0709019558522" lon="11.385997024559975"><ele>709.0</ele><time>2026-04-10T11:46:35.001Z</time></trkpt><trkpt lat="44.07079422089756" lon="11.385848780150443"><ele>709.0</ele><time>2026-04-10T11:46:36.001Z</time></trkpt><trkpt lat="44.070690523744496" lon="11.38568939412146"><ele>709.0</ele><time>2026-04-10T11:46:37.001Z</time></trkpt><trkpt lat="44.07059607413242" lon="11.38551955504629"><ele>703.0</ele><time>2026-04-10T11:46:38.001Z</time></trkpt><trkpt lat="44.07051457336393" lon="11.385337696454743"><ele>697.0</ele><time>2026-04-10T11:46:39.001Z</time></trkpt><trkpt lat="44.07044990828494" lon="11.38514494777819"><ele>691.0</ele><time>2026-04-10T11:46:40.001Z</time></trkpt><trkpt lat="44.07039386300721" lon="11.384949158395925"><ele>691.0</ele><time>2026-04-10T11:46:41.001Z</time></trkpt><trkpt lat="44.070331121567385" lon="11.384758536923579"><ele>691.0</ele><time>2026-04-10T11:46:42.001Z</time></trkpt><trkpt lat="44.07026131812681" lon="11.384571653367138"><ele>691.0</ele><time>2026-04-10T11:46:43.001Z</time></trkpt><trkpt lat="44.07018995692844" lon="11.384374858205035"><ele>692.6666666666667</ele><time>2026-04-10T11:46:44.001Z</time></trkpt><trkpt lat="44.070156284591434" lon="11.384166090787412"><ele>694.3333333333334</ele><time>2026-04-10T11:46:45.001Z</time></trkpt><trkpt lat="44.070099336935264" lon="11.383969202122588"><ele>696.0</ele><time>2026-04-10T11:46:46.001Z</time></trkpt><trkpt lat="44.07003191614893" lon="11.383789938113853"><ele>695.5</ele><time>2026-04-10T11:46:47.001Z</time></trkpt><trkpt lat="44.06993197509046" lon="11.383642921174028"><ele>695.0</ele><time>2026-04-10T11:46:48.001Z</time></trkpt><trkpt lat="44.069810935104236" lon="11.383539774240395"><ele>694.5</ele><time>2026-04-10T11:46:49Z</time></trkpt><trkpt lat="44.06966945345431" lon="11.383487653932333"><ele>694.0</ele><time>2026-04-10T11:46:50Z</time></trkpt><trkpt lat="44.069524772614145" lon="11.383441326573049"><ele>694.0</ele><time>2026-04-10T11:46:51Z</time></trkpt><trkpt lat="44.069394159166194" lon="11.383362627176833"><ele>694.0</ele><time>2026-04-10T11:46:52Z</time></trkpt><trkpt lat="44.06927005754617" lon="11.383267942560833"><ele>694.0</ele><time>2026-04-10T11:46:53Z</time></trkpt><trkpt lat="44.06914551644952" lon="11.383177372795075"><ele>694.0</ele><time>2026-04-10T11:46:54Z</time></trkpt><trkpt lat="44.06902141885122" lon="11.383108937327899"><ele>693.5</ele><time>2026-04-10T11:46:55Z</time></trkpt><trkpt lat="44.06891686792236" lon="11.38309079816448"><ele>693.0</ele><time>2026-04-10T11:46:56Z</time></trkpt><trkpt lat="44.06881230073418" lon="11.383145318724337"><ele>692.5</ele><time>2026-04-10T11:46:57Z</time></trkpt><trkpt lat="44.06871926976727" lon="11.38327249382438"><ele>692.0</ele><time>2026-04-10T11:46:58Z</time></trkpt><trkpt lat="44.0686494651083" lon="11.383439147742559"><ele>692.0</ele><time>2026-04-10T11:46:59Z</time></trkpt><trkpt lat="44.068633830193335" lon="11.383641896341658"><ele>692.0</ele><time>2026-04-10T11:47:00Z</time></trkpt><trkpt lat="44.06863617724242" lon="11.383871812668282"><ele>692.0</ele><time>2026-04-10T11:47:01Z</time></trkpt><trkpt lat="44.0686289614266" lon="11.384110724842294"><ele>692.0</ele><time>2026-04-10T11:47:02Z</time></trkpt><trkpt lat="44.068602233198604" lon="11.384344291364595"><ele>692.0</ele><time>2026-04-10T11:47:03Z</time></trkpt><trkpt lat="44.068568581866586" lon="11.384573325432818"><ele>692.0</ele><time>2026-04-10T11:47:04Z</time></trkpt><trkpt lat="44.06853184440404" lon="11.384814724395104"><ele>691.0</ele><time>2026-04-10T11:47:05Z</time></trkpt><trkpt lat="44.06848743854037" lon="11.385065110616255"><ele>690.0</ele><time>2026-04-10T11:47:06Z</time></trkpt><trkpt lat="44.0684248006288" lon="11.385306560152213"><ele>689.0</ele><time>2026-04-10T11:47:07Z</time></trkpt><trkpt lat="44.0683519610529" lon="11.38553931098372"><ele>688.0</ele><time>2026-04-10T11:47:08Z</time></trkpt><trkpt lat="44.068293594834316" lon="11.385765645124037"><ele>687.0</ele><time>2026-04-10T11:47:09Z</time></trkpt><trkpt lat="44.06825683819754" lon="11.385984806360037"><ele>686.0</ele><time>2026-04-10T11:47:10Z</time></trkpt><trkpt lat="44.06822418726889" lon="11.386192503612115"><ele>690.0</ele><time>2026-04-10T11:47:11Z</time></trkpt><trkpt lat="44.06818683132469" lon="11.386386454434449"><ele>694.0</ele><time>2026-04-10T11:47:12Z</time></trkpt><trkpt lat="44.068129876774506" lon="11.386556197806536"><ele>698.0</ele><time>2026-04-10T11:47:13Z</time></trkpt><trkpt lat="44.06803359016901" lon="11.386678719498882"><ele>702.0</ele><time>2026-04-10T11:47:14Z</time></trkpt><trkpt lat="44.067908319299484" lon="11.386737356097298"><ele>702.0</ele><time>2026-04-10T11:47:15Z</time></trkpt><trkpt lat="44.06777504989716" lon="11.386782177785653"><ele>702.0</ele><time>2026-04-10T11:47:16Z</time></trkpt><trkpt lat="44.06764779660244" lon="11.386845840102211"><ele>702.0</ele><time>2026-04-10T11:47:17Z</time></trkpt><trkpt lat="44.06754413407517" lon="11.386905457353668"><ele>702.0</ele><time>2026-04-10T11:47:18Z</time></trkpt><trkpt lat="44.067453206152116" lon="11.386963103499873"><ele>705.75</ele><time>2026-04-10T11:47:19Z</time></trkpt><trkpt lat="44.067375188460964" lon="11.387030093675413"><ele>709.5</ele><time>2026-04-10T11:47:20Z</time></trkpt><trkpt lat="44.06734915339116" lon="11.38718591373156"><ele>713.25</ele><time>2026-04-10T11:47:21Z</time></trkpt><trkpt lat="44.06733046766997" lon="11.387346098674533"><ele>717.0</ele><time>2026-04-10T11:47:22Z</time></trkpt><trkpt lat="44.06731696621532" lon="11.387522586823746"><ele>717.0</ele><time>2026-04-10T11:47:23Z</time></trkpt><trkpt lat="44.067282442670574" lon="11.387711541093342"><ele>717.0</ele><time>2026-04-10T11:47:24Z</time></trkpt><trkpt lat="44.067224977892565" lon="11.387905746753615"><ele>717.0</ele><time>2026-04-10T11:47:25Z</time></trkpt><trkpt lat="44.06716212925134" lon="11.38810794610342"><ele>717.0</ele><time>2026-04-10T11:47:26Z</time></trkpt><trkpt lat="44.0670943757654" lon="11.388304549933833"><ele>713.6666666666666</ele><time>2026-04-10T11:47:27Z</time></trkpt><trkpt lat="44.06701503299592" lon="11.388490077501665"><ele>710.3333333333333</ele><time>2026-04-10T11:47:28Z</time></trkpt><trkpt lat="44.066930548885416" lon="11.388669733564555"><ele>707.0</ele><time>2026-04-10T11:47:29Z</time></trkpt><trkpt lat="44.06683807613554" lon="11.388844812822533"><ele>706.25</ele><time>2026-04-10T11:47:30Z</time></trkpt><trkpt lat="44.06673730635343" lon="11.389006096585579"><ele>705.5</ele><time>2026-04-10T11:47:31Z</time></trkpt><trkpt lat="44.06663527820107" lon="11.38913371248027"><ele>704.75</ele><time>2026-04-10T11:47:32Z</time></trkpt><trkpt lat="44.06653743219723" lon="11.389241657868219"><ele>704.0</ele><time>2026-04-10T11:47:33Z</time></trkpt><trkpt lat="44.066453163361004" lon="11.389346489752526"><ele>707.6</ele><time>2026-04-10T11:47:34Z</time></trkpt><trkpt lat="44.066371318017396" lon="11.38944455430053"><ele>711.2</ele><time>2026-04-10T11:47:35Z</time></trkpt><trkpt lat="44.06627664133507" lon="11.389512649941747"><ele>714.8000000000001</ele><time>2026-04-10T11:47:36Z</time></trkpt><trkpt lat="44.066165835450434" lon="11.38954515093702"><ele>718.4000000000001</ele><time>2026-04-10T11:47:37Z</time></trkpt><trkpt lat="44.066045821809055" lon="11.389568365653725"><ele>722.0</ele><time>2026-04-10T11:47:38Z</time></trkpt><trkpt lat="44.06594148730374" lon="11.38962487693129"><ele>720.5</ele><time>2026-04-10T11:47:39Z</time></trkpt><trkpt lat="44.06586271970804" lon="11.389734967368359"><ele>719.0</ele><time>2026-04-10T11:47:40Z</time></trkpt><trkpt lat="44.065813515881" lon="11.389887954690398"><ele>717.5</ele><time>2026-04-10T11:47:41Z</time></trkpt><trkpt lat="44.06579581740597" lon="11.390047920350103"><ele>716.0</ele><time>2026-04-10T11:47:42Z</time></trkpt><trkpt lat="44.065777707846934" lon="11.390186937496868"><ele>722.0</ele><time>2026-04-10T11:47:43Z</time></trkpt><trkpt lat="44.06572756766282" lon="11.390308423979093"><ele>728.0</ele><time>2026-04-10T11:47:44Z</time></trkpt><trkpt lat="44.065639761551104" lon="11.3904119801638"><ele>734.0</ele><time>2026-04-10T11:47:45Z</time></trkpt><trkpt lat="44.06554697029792" lon="11.390534204282593"><ele>740.0</ele><time>2026-04-10T11:47:46Z</time></trkpt><trkpt lat="44.065467456998846" lon="11.390693810933827"><ele>741.0</ele><time>2026-04-10T11:47:47Z</time></trkpt><trkpt lat="44.06541937459326" lon="11.390888990889417"><ele>742.0</ele><time>2026-04-10T11:47:48Z</time></trkpt><trkpt lat="44.06538122433869" lon="11.391068968146904"><ele>743.0</ele><time>2026-04-10T11:47:49Z</time></trkpt><trkpt lat="44.06534919834848" lon="11.391238085904558"><ele>744.0</ele><time>2026-04-10T11:47:50Z</time></trkpt><trkpt lat="44.06532355820624" lon="11.391398294850907"><ele>741.25</ele><time>2026-04-10T11:47:51.001Z</time></trkpt><trkpt lat="44.06529845422916" lon="11.391550572368834"><ele>738.5</ele><time>2026-04-10T11:47:52.001Z</time></trkpt><trkpt lat="44.06526642697743" lon="11.391697955297582"><ele>735.75</ele><time>2026-04-10T11:47:53.001Z</time></trkpt><trkpt lat="44.06522689665644" lon="11.391848054203514"><ele>733.0</ele><time>2026-04-10T11:47:54.001Z</time></trkpt><trkpt lat="44.065160000463" lon="11.391989782031933"><ele>733.0</ele><time>2026-04-10T11:47:55.001Z</time></trkpt><trkpt lat="44.06506469297687" lon="11.392125614601536"><ele>733.0</ele><time>2026-04-10T11:47:56.001Z</time></trkpt><trkpt lat="44.064959259069845" lon="11.392268170023952"><ele>733.0</ele><time>2026-04-10T11:47:57.001Z</time></trkpt><trkpt lat="44.06486322654229" lon="11.392405582941997"><ele>733.0</ele><time>2026-04-10T11:47:58.001Z</time></trkpt><trkpt lat="44.06477526700653" lon="11.392536177877634"><ele>727.25</ele><time>2026-04-10T11:47:59.001Z</time></trkpt><trkpt lat="44.06467037989119" lon="11.392641804087832"><ele>721.5</ele><time>2026-04-10T11:48:00.001Z</time></trkpt><trkpt lat="44.064559496067616" lon="11.39272475322744"><ele>715.75</ele><time>2026-04-10T11:48:01.001Z</time></trkpt><trkpt lat="44.06445541836079" lon="11.392800052299496"><ele>710.0</ele><time>2026-04-10T11:48:02.001Z</time></trkpt><trkpt lat="44.064345693215735" lon="11.392843737323345"><ele>710.0</ele><time>2026-04-10T11:48:03.001Z</time></trkpt><trkpt lat="44.06423812934299" lon="11.392820551206833"><ele>710.0</ele><time>2026-04-10T11:48:04.001Z</time></trkpt><trkpt lat="44.06417196762489" lon="11.392714753732564"><ele>710.0</ele><time>2026-04-10T11:48:05.001Z</time></trkpt><trkpt lat="44.06412253608866" lon="11.392552315522556"><ele>710.0</ele><time>2026-04-10T11:48:06.001Z</time></trkpt><trkpt lat="44.06405354091422" lon="11.392395245232347"><ele>710.5</ele><time>2026-04-10T11:48:07.001Z</time></trkpt><trkpt lat="44.06394513368027" lon="11.392251115306246"><ele>711.0</ele><time>2026-04-10T11:48:08.001Z</time></trkpt><trkpt lat="44.06381892581365" lon="11.392129022537533"><ele>711.5</ele><time>2026-04-10T11:48:09.001Z</time></trkpt><trkpt lat="44.06370027850019" lon="11.392031775135347"><ele>712.0</ele><time>2026-04-10T11:48:10.001Z</time></trkpt><trkpt lat="44.063597893609305" lon="11.391924649805116"><ele>712.0</ele><time>2026-04-10T11:48:11.001Z</time></trkpt><trkpt lat="44.06351612398386" lon="11.39180772012569"><ele>712.0</ele><time>2026-04-10T11:48:12.001Z</time></trkpt><trkpt lat="44.06344205086903" lon="11.391687921119992"><ele>712.0</ele><time>2026-04-10T11:48:13.001Z</time></trkpt><trkpt lat="44.0633650881568" lon="11.391576407398844"><ele>712.0</ele><time>2026-04-10T11:48:14.001Z</time></trkpt><trkpt lat="44.06327863094857" lon="11.391492244887383"><ele>712.0</ele><time>2026-04-10T11:48:15.001Z</time></trkpt><trkpt lat="44.06317734361261" lon="11.391451962415154"><ele>713.8</ele><time>2026-04-10T11:48:16.001Z</time></trkpt><trkpt lat="44.06308436579173" lon="11.39148654004627"><ele>715.6</ele><time>2026-04-10T11:48:17.001Z</time></trkpt><trkpt lat="44.06301568032385" lon="11.39154315964002"><ele>717.4</ele><time>2026-04-10T11:48:18.001Z</time></trkpt><trkpt lat="44.06298164713447" lon="11.391648642698023"><ele>719.1999999999999</ele><time>2026-04-10T11:48:19.001Z</time></trkpt><trkpt lat="44.06299496774087" lon="11.391777424619011"><ele>721.0</ele><time>2026-04-10T11:48:20.001Z</time></trkpt><trkpt lat="44.063033774170364" lon="11.391915648294274"><ele>721.0</ele><time>2026-04-10T11:48:21.001Z</time></trkpt><trkpt lat="44.06307374503289" lon="11.392072072851171"><ele>721.0</ele><time>2026-04-10T11:48:22.001Z</time></trkpt><trkpt lat="44.06310407526387" lon="11.39225198664155"><ele>721.0</ele><time>2026-04-10T11:48:23.001Z</time></trkpt><trkpt lat="44.06312646360388" lon="11.392451010674245"><ele>721.0</ele><time>2026-04-10T11:48:24.001Z</time></trkpt><trkpt lat="44.06312292564191" lon="11.392660692250201"><ele>729.6666666666667</ele><time>2026-04-10T11:48:25.001Z</time></trkpt><trkpt lat="44.06307530681906" lon="11.39286243096202"><ele>738.3333333333334</ele><time>2026-04-10T11:48:26.001Z</time></trkpt><trkpt lat="44.06300951330063" lon="11.393069172546166"><ele>747.0</ele><time>2026-04-10T11:48:27.001Z</time></trkpt><trkpt lat="44.063000688688355" lon="11.393293659296415"><ele>748.3333333333334</ele><time>2026-04-10T11:48:28.001Z</time></trkpt><trkpt lat="44.06298527654521" lon="11.393510837719072"><ele>749.6666666666667</ele><time>2026-04-10T11:48:29.001Z</time></trkpt><trkpt lat="44.062931583540255" lon="11.393714981504576"><ele>751.0</ele><time>2026-04-10T11:48:30.001Z</time></trkpt><trkpt lat="44.06288483700874" lon="11.393919815902171"><ele>748.25</ele><time>2026-04-10T11:48:31.001Z</time></trkpt><trkpt lat="44.06289073115331" lon="11.394129835202202"><ele>745.5</ele><time>2026-04-10T11:48:32.001Z</time></trkpt><trkpt lat="44.06290766961786" lon="11.394316577099103"><ele>742.75</ele><time>2026-04-10T11:48:33.001Z</time></trkpt><trkpt lat="44.06291747248502" lon="11.39448445266794"><ele>740.0</ele><time>2026-04-10T11:48:34.001Z</time></trkpt><trkpt lat="44.06290216560294" lon="11.394637959564282"><ele>734.75</ele><time>2026-04-10T11:48:35.001Z</time></trkpt><trkpt lat="44.06285416258907" lon="11.39478200842997"><ele>729.5</ele><time>2026-04-10T11:48:36.001Z</time></trkpt><trkpt lat="44.062759996516796" lon="11.39488518474241"><ele>724.25</ele><time>2026-04-10T11:48:37.001Z</time></trkpt><trkpt lat="44.062636403943706" lon="11.39496672286427"><ele>719.0</ele><time>2026-04-10T11:48:38.001Z</time></trkpt><trkpt lat="44.062506078049395" lon="11.395043872782944"><ele>727.25</ele><time>2026-04-10T11:48:39.001Z</time></trkpt><trkpt lat="44.06236640935623" lon="11.39511170912873"><ele>735.5</ele><time>2026-04-10T11:48:40.001Z</time></trkpt><trkpt lat="44.06222170364388" lon="11.395167484734296"><ele>743.75</ele><time>2026-04-10T11:48:41.001Z</time></trkpt><trkpt lat="44.06208965859467" lon="11.395228183817379"><ele>752.0</ele><time>2026-04-10T11:48:42.001Z</time></trkpt><trkpt lat="44.061965667337844" lon="11.395300129471696"><ele>752.0</ele><time>2026-04-10T11:48:43.001Z</time></trkpt><trkpt lat="44.061854722442654" lon="11.395398146712406"><ele>752.0</ele><time>2026-04-10T11:48:44.001Z</time></trkpt><trkpt lat="44.0617657143215" lon="11.395508338913466"><ele>752.0</ele><time>2026-04-10T11:48:45.001Z</time></trkpt><trkpt lat="44.06169712839751" lon="11.395629272061997"><ele>752.0</ele><time>2026-04-10T11:48:46.001Z</time></trkpt><trkpt lat="44.06166080360419" lon="11.395769152703458"><ele>746.8</ele><time>2026-04-10T11:48:47.001Z</time></trkpt><trkpt lat="44.06167474383024" lon="11.395917893136499"><ele>741.6</ele><time>2026-04-10T11:48:48.001Z</time></trkpt><trkpt lat="44.061722307622226" lon="11.396039917855127"><ele>736.4</ele><time>2026-04-10T11:48:49.001Z</time></trkpt><trkpt lat="44.06173486064156" lon="11.39616387061469"><ele>731.1999999999999</ele><time>2026-04-10T11:48:50.001Z</time></trkpt><trkpt lat="44.06170281024938" lon="11.39630532528454"><ele>726.0</ele><time>2026-04-10T11:48:51.001Z</time></trkpt><trkpt lat="44.061629979401744" lon="11.396427160628424"><ele>728.25</ele><time>2026-04-10T11:48:52.001Z</time></trkpt><trkpt lat="44.06152607241337" lon="11.396526182546063"><ele>730.5</ele><time>2026-04-10T11:48:53.001Z</time></trkpt><trkpt lat="44.06141361723542" lon="11.39662196560807"><ele>732.75</ele><time>2026-04-10T11:48:54.001Z</time></trkpt><trkpt lat="44.061318378437626" lon="11.396725020459657"><ele>735.0</ele><time>2026-04-10T11:48:55Z</time></trkpt><trkpt lat="44.06124910491733" lon="11.396853832368025"><ele>735.0</ele><time>2026-04-10T11:48:56Z</time></trkpt><trkpt lat="44.061207389525215" lon="11.39699345118527"><ele>735.0</ele><time>2026-04-10T11:48:57Z</time></trkpt><trkpt lat="44.061168594678335" lon="11.397120188464708"><ele>735.0</ele><time>2026-04-10T11:48:58Z</time></trkpt><trkpt lat="44.06110203486804" lon="11.397214050173968"><ele>735.0</ele><time>2026-04-10T11:48:59Z</time></trkpt><trkpt lat="44.06100394909731" lon="11.397257557014042"><ele>735.0</ele><time>2026-04-10T11:49:00Z</time></trkpt><trkpt lat="44.060897236958596" lon="11.39723156246668"><ele>735.0</ele><time>2026-04-10T11:49:01Z</time></trkpt><trkpt lat="44.06079506798312" lon="11.397149995770471"><ele>735.0</ele><time>2026-04-10T11:49:02Z</time></trkpt><trkpt lat="44.06069227053608" lon="11.397066407608095"><ele>735.0</ele><time>2026-04-10T11:49:03Z</time></trkpt><trkpt lat="44.06057572316066" lon="11.39703294612546"><ele>735.0</ele><time>2026-04-10T11:49:04Z</time></trkpt><trkpt lat="44.06045170729486" lon="11.39706041729626"><ele>736.75</ele><time>2026-04-10T11:49:05Z</time></trkpt><trkpt lat="44.06033952660863" lon="11.397154327597653"><ele>738.5</ele><time>2026-04-10T11:49:06Z</time></trkpt><trkpt lat="44.06024014000137" lon="11.397283783385648"><ele>740.25</ele><time>2026-04-10T11:49:07Z</time></trkpt><trkpt lat="44.06016109152891" lon="11.397403166758103"><ele>742.0</ele><time>2026-04-10T11:49:08Z</time></trkpt><trkpt lat="44.060104281288076" lon="11.397528778911223"><ele>742.0</ele><time>2026-04-10T11:49:09Z</time></trkpt><trkpt lat="44.06009050224265" lon="11.397683156738688"><ele>742.0</ele><time>2026-04-10T11:49:10Z</time></trkpt><trkpt lat="44.0600906288914" lon="11.397835883768847"><ele>742.0</ele><time>2026-04-10T11:49:11Z</time></trkpt><trkpt lat="44.06005909956698" lon="11.397972448027614"><ele>742.0</ele><time>2026-04-10T11:49:12Z</time></trkpt><trkpt lat="44.05998035736236" lon="11.398065643731204"><ele>742.0</ele><time>2026-04-10T11:49:13Z</time></trkpt><trkpt lat="44.05986705261482" lon="11.39809298263746"><ele>739.75</ele><time>2026-04-10T11:49:14Z</time></trkpt><trkpt lat="44.05974474642589" lon="11.398062223718961"><ele>737.5</ele><time>2026-04-10T11:49:15Z</time></trkpt><trkpt lat="44.05962139880128" lon="11.397993091519975"><ele>735.25</ele><time>2026-04-10T11:49:16Z</time></trkpt><trkpt lat="44.05950689489927" lon="11.397894946859473"><ele>733.0</ele><time>2026-04-10T11:49:17Z</time></trkpt><trkpt lat="44.059394506246164" lon="11.397806238606703"><ele>738.25</ele><time>2026-04-10T11:49:18Z</time></trkpt><trkpt lat="44.05927032111768" lon="11.397747953368238"><ele>743.5</ele><time>2026-04-10T11:49:19Z</time></trkpt><trkpt lat="44.05914120274231" lon="11.397741207715798"><ele>748.75</ele><time>2026-04-10T11:49:20Z</time></trkpt><trkpt lat="44.059009967231084" lon="11.397775686699342"><ele>754.0</ele><time>2026-04-10T11:49:21Z</time></trkpt><trkpt lat="44.058881164480404" lon="11.397831732047287"><ele>754.0</ele><time>2026-04-10T11:49:22Z</time></trkpt><trkpt lat="44.05877235237206" lon="11.397881170176614"><ele>754.0</ele><time>2026-04-10T11:49:23Z</time></trkpt><trkpt lat="44.05866738432846" lon="11.397914564727786"><ele>754.0</ele><time>2026-04-10T11:49:24Z</time></trkpt><trkpt lat="44.05855171395814" lon="11.397923791780302"><ele>754.0</ele><time>2026-04-10T11:49:25Z</time></trkpt><trkpt lat="44.05843099042776" lon="11.39790027402738"><ele>754.0</ele><time>2026-04-10T11:49:26Z</time></trkpt><trkpt lat="44.05830976953637" lon="11.397858072861336"><ele>754.0</ele><time>2026-04-10T11:49:27Z</time></trkpt><trkpt lat="44.05819517429247" lon="11.39779598055301"><ele>754.0</ele><time>2026-04-10T11:49:28Z</time></trkpt><trkpt lat="44.058081546090904" lon="11.397734906331797"><ele>754.0</ele><time>2026-04-10T11:49:29Z</time></trkpt><trkpt lat="44.05797782109858" lon="11.397662760868398"><ele>752.75</ele><time>2026-04-10T11:49:30Z</time></trkpt><trkpt lat="44.05789357415848" lon="11.397562582304003"><ele>751.5</ele><time>2026-04-10T11:49:31Z</time></trkpt><trkpt lat="44.05782108077365" lon="11.397433908753484"><ele>750.25</ele><time>2026-04-10T11:49:32Z</time></trkpt><trkpt lat="44.05775863374544" lon="11.397304795043734"><ele>749.0</ele><time>2026-04-10T11:49:33Z</time></trkpt><trkpt lat="44.057716661598946" lon="11.39715536412226"><ele>749.0</ele><time>2026-04-10T11:49:34Z</time></trkpt><trkpt lat="44.05770139723455" lon="11.396986232729125"><ele>749.0</ele><time>2026-04-10T11:49:35Z</time></trkpt><trkpt lat="44.057709718603384" lon="11.39680274496397"><ele>749.0</ele><time>2026-04-10T11:49:36Z</time></trkpt><trkpt lat="44.05770407014686" lon="11.396614937659768"><ele>749.0</ele><time>2026-04-10T11:49:37Z</time></trkpt><trkpt lat="44.05766998828323" lon="11.396422620155988"><ele>752.75</ele><time>2026-04-10T11:49:38Z</time></trkpt><trkpt lat="44.05760776678953" lon="11.396245340168006"><ele>756.5</ele><time>2026-04-10T11:49:39Z</time></trkpt><trkpt lat="44.05754572663151" lon="11.396080304911113"><ele>760.25</ele><time>2026-04-10T11:49:40Z</time></trkpt><trkpt lat="44.05748971185355" lon="11.395918987459465"><ele>764.0</ele><time>2026-04-10T11:49:41Z</time></trkpt><trkpt lat="44.05743804411274" lon="11.395755830361306"><ele>758.4000000000001</ele><time>2026-04-10T11:49:42Z</time></trkpt><trkpt lat="44.05739334624374" lon="11.395607576595271"><ele>752.8</ele><time>2026-04-10T11:49:43Z</time></trkpt><trkpt lat="44.05735201922521" lon="11.395470431813424"><ele>747.2</ele><time>2026-04-10T11:49:44Z</time></trkpt><trkpt lat="44.057315015675165" lon="11.395339185016942"><ele>741.5999999999999</ele><time>2026-04-10T11:49:45Z</time></trkpt><trkpt lat="44.05729942812754" lon="11.39520542685832"><ele>736.0</ele><time>2026-04-10T11:49:46Z</time></trkpt><trkpt lat="44.057314335868035" lon="11.395083361262058"><ele>736.0</ele><time>2026-04-10T11:49:47Z</time></trkpt><trkpt lat="44.05737463179755" lon="11.394974017494247"><ele>736.0</ele><time>2026-04-10T11:49:48Z</time></trkpt><trkpt lat="44.057470915006775" lon="11.394909996573663"><ele>736.0</ele><time>2026-04-10T11:49:49Z</time></trkpt><trkpt lat="44.0575644809643" lon="11.394862656648373"><ele>736.0</ele><time>2026-04-10T11:49:50Z</time></trkpt><trkpt lat="44.05762691629766" lon="11.39478313929548"><ele>736.0</ele><time>2026-04-10T11:49:51Z</time></trkpt><trkpt lat="44.05766295360772" lon="11.394676787509988"><ele>740.1999999999999</ele><time>2026-04-10T11:49:52Z</time></trkpt><trkpt lat="44.057647944873885" lon="11.394563769042898"><ele>744.4</ele><time>2026-04-10T11:49:53Z</time></trkpt><trkpt lat="44.05758178125775" lon="11.394463860616822"><ele>748.6</ele><time>2026-04-10T11:49:54Z</time></trkpt><trkpt lat="44.05748569511773" lon="11.394380362645157"><ele>752.8</ele><time>2026-04-10T11:49:55Z</time></trkpt><trkpt lat="44.057375983292005" lon="11.39428496847332"><ele>757.0</ele><time>2026-04-10T11:49:56Z</time></trkpt><trkpt lat="44.057263598207605" lon="11.394171630994322"><ele>757.0</ele><time>2026-04-10T11:49:57Z</time></trkpt><trkpt lat="44.05713864975956" lon="11.394067075490593"><ele>757.0</ele><time>2026-04-10T11:49:58Z</time></trkpt><trkpt lat="44.057006863851505" lon="11.393985584624717"><ele>757.0</ele><time>2026-04-10T11:49:59Z</time></trkpt><trkpt lat="44.056895272774945" lon="11.393927488525579"><ele>757.0</ele><time>2026-04-10T11:50:00Z</time></trkpt><trkpt lat="44.05680291555958" lon="11.393840043965824"><ele>761.4000000000001</ele><time>2026-04-10T11:50:01Z</time></trkpt><trkpt lat="44.056760716920834" lon="11.393712669551615"><ele>765.8000000000001</ele><time>2026-04-10T11:50:02Z</time></trkpt><trkpt lat="44.056779349344886" lon="11.393559266330216"><ele>770.2</ele><time>2026-04-10T11:50:03Z</time></trkpt><trkpt lat="44.05682255528458" lon="11.393407448765725"><ele>774.6</ele><time>2026-04-10T11:50:04Z</time></trkpt><trkpt lat="44.05684203344356" lon="11.393267421332066"><ele>779.0</ele><time>2026-04-10T11:50:05Z</time></trkpt><trkpt lat="44.05682203831658" lon="11.393124006216304"><ele>779.0</ele><time>2026-04-10T11:50:06.001Z</time></trkpt><trkpt lat="44.05676451379254" lon="11.393012665693604"><ele>779.0</ele><time>2026-04-10T11:50:07.001Z</time></trkpt><trkpt lat="44.05667702035961" lon="11.39296831553469"><ele>779.0</ele><time>2026-04-10T11:50:08.001Z</time></trkpt><trkpt lat="44.05658390419575" lon="11.393008816398924"><ele>779.0</ele><time>2026-04-10T11:50:09.001Z</time></trkpt><trkpt lat="44.05649059555964" lon="11.393106997079455"><ele>779.0</ele><time>2026-04-10T11:50:10.001Z</time></trkpt><trkpt lat="44.056398846771735" lon="11.393220042179651"><ele>776.0</ele><time>2026-04-10T11:50:11.001Z</time></trkpt><trkpt lat="44.05630057893422" lon="11.393267879750754"><ele>773.0</ele><time>2026-04-10T11:50:12.001Z</time></trkpt><trkpt lat="44.05620781625342" lon="11.393308880607453"><ele>770.0</ele><time>2026-04-10T11:50:13.001Z</time></trkpt><trkpt lat="44.056097668165926" lon="11.393276786444801"><ele>767.0</ele><time>2026-04-10T11:50:14.001Z</time></trkpt><trkpt lat="44.05601423578239" lon="11.393168777953973"><ele>764.0</ele><time>2026-04-10T11:50:15.001Z</time></trkpt><trkpt lat="44.05595374140821" lon="11.39300810054456"><ele>766.3333333333333</ele><time>2026-04-10T11:50:16.001Z</time></trkpt><trkpt lat="44.055883570785014" lon="11.392833350644247"><ele>768.6666666666666</ele><time>2026-04-10T11:50:17.001Z</time></trkpt><trkpt lat="44.05580134814585" lon="11.392642282948014"><ele>771.0</ele><time>2026-04-10T11:50:18.001Z</time></trkpt><trkpt lat="44.05572295725091" lon="11.39245257587733"><ele>771.0</ele><time>2026-04-10T11:50:19.001Z</time></trkpt><trkpt lat="44.055650588486" lon="11.392261366036363"><ele>771.0</ele><time>2026-04-10T11:50:20.001Z</time></trkpt><trkpt lat="44.05557932509831" lon="11.392075677379973"><ele>771.0</ele><time>2026-04-10T11:50:21.001Z</time></trkpt><trkpt lat="44.05550813726176" lon="11.391908612620373"><ele>771.0</ele><time>2026-04-10T11:50:22.001Z</time></trkpt><trkpt lat="44.05543765341323" lon="11.39174570158608"><ele>774.5</ele><time>2026-04-10T11:50:23.001Z</time></trkpt><trkpt lat="44.055373759514985" lon="11.391580648895879"><ele>778.0</ele><time>2026-04-10T11:50:24.001Z</time></trkpt><trkpt lat="44.055327472088415" lon="11.391406029292122"><ele>781.5</ele><time>2026-04-10T11:50:25.001Z</time></trkpt><trkpt lat="44.05530772447704" lon="11.391215049635555"><ele>785.0</ele><time>2026-04-10T11:50:26.001Z</time></trkpt><trkpt lat="44.05531819826554" lon="11.391021024706516"><ele>787.5</ele><time>2026-04-10T11:50:27.001Z</time></trkpt><trkpt lat="44.055336116318365" lon="11.39082055135699"><ele>790.0</ele><time>2026-04-10T11:50:28.001Z</time></trkpt><trkpt lat="44.05533888022286" lon="11.390629421522215"><ele>792.5</ele><time>2026-04-10T11:50:29.001Z</time></trkpt><trkpt lat="44.055326423856" lon="11.390458113567213"><ele>795.0</ele><time>2026-04-10T11:50:30.001Z</time></trkpt><trkpt lat="44.055310136908595" lon="11.39030250929747"><ele>797.3333333333334</ele><time>2026-04-10T11:50:31.001Z</time></trkpt><trkpt lat="44.05530163941797" lon="11.390190137038672"><ele>799.6666666666667</ele><time>2026-04-10T11:50:32.001Z</time></trkpt><trkpt lat="44.05528340610925" lon="11.390081965021535"><ele>802.0</ele><time>2026-04-10T11:50:34.001Z</time></trkpt><trkpt lat="44.05520564205186" lon="11.390007622792945"><ele>804.3333333333334</ele><time>2026-04-10T11:50:36.001Z</time></trkpt><trkpt lat="44.05513176170948" lon="11.390027003496868"><ele>806.6666666666667</ele><time>2026-04-10T11:50:37.001Z</time></trkpt><trkpt lat="44.05505634423062" lon="11.390107620517071"><ele>809.0</ele><time>2026-04-10T11:50:38.001Z</time></trkpt><trkpt lat="44.05499180585585" lon="11.390220859616727"><ele>806.75</ele><time>2026-04-10T11:50:39.001Z</time></trkpt><trkpt lat="44.05493237141041" lon="11.39036290969244"><ele>804.5</ele><time>2026-04-10T11:50:40.001Z</time></trkpt><trkpt lat="44.05487237691992" lon="11.390493040917907"><ele>802.25</ele><time>2026-04-10T11:50:41.001Z</time></trkpt><trkpt lat="44.054793644359606" lon="11.390600519299904"><ele>800.0</ele><time>2026-04-10T11:50:42.001Z</time></trkpt><trkpt lat="44.054678696645766" lon="11.390629296822066"><ele>800.0</ele><time>2026-04-10T11:50:43.001Z</time></trkpt><trkpt lat="44.05456014141394" lon="11.390638745155947"><ele>800.0</ele><time>2026-04-10T11:50:44.001Z</time></trkpt><trkpt lat="44.054422690859994" lon="11.390639535195072"><ele>800.0</ele><time>2026-04-10T11:50:45.001Z</time></trkpt><trkpt lat="44.05428358677891" lon="11.39059364898171"><ele>800.0</ele><time>2026-04-10T11:50:46.001Z</time></trkpt><trkpt lat="44.05414223670926" lon="11.390534252401006"><ele>807.5</ele><time>2026-04-10T11:50:47.001Z</time></trkpt><trkpt lat="44.05400557526067" lon="11.390476917416118"><ele>815.0</ele><time>2026-04-10T11:50:48.001Z</time></trkpt><trkpt lat="44.053878891812325" lon="11.390431789355148"><ele>822.5</ele><time>2026-04-10T11:50:49.001Z</time></trkpt><trkpt lat="44.053763100827666" lon="11.390395678785733"><ele>830.0</ele><time>2026-04-10T11:50:50.001Z</time></trkpt><trkpt lat="44.05365128208289" lon="11.390386710977987"><ele>830.0000000000001</ele><time>2026-04-10T11:50:51.001Z</time></trkpt><trkpt lat="44.053551596164695" lon="11.390389969266357"><ele>830.0</ele><time>2026-04-10T11:50:52.001Z</time></trkpt><trkpt lat="44.05345867010303" lon="11.390386095712287"><ele>830.0</ele><time>2026-04-10T11:50:53.001Z</time></trkpt><trkpt lat="44.05337956153178" lon="11.390381985828588"><ele>830.0</ele><time>2026-04-10T11:50:54.001Z</time></trkpt><trkpt lat="44.05330911976931" lon="11.390384576089"><ele>830.0000000000001</ele><time>2026-04-10T11:50:55.001Z</time></trkpt><trkpt lat="44.05323701709178" lon="11.390398420844942"><ele>830.0</ele><time>2026-04-10T11:50:56.001Z</time></trkpt><trkpt lat="44.053161479894" lon="11.390422379669564"><ele>828.3333333333334</ele><time>2026-04-10T11:50:57.001Z</time></trkpt><trkpt lat="44.05308561171051" lon="11.390451240246446"><ele>826.6666666666667</ele><time>2026-04-10T11:50:58.001Z</time></trkpt><trkpt lat="44.05300647003213" lon="11.390487649217384"><ele>825.0</ele><time>2026-04-10T11:50:59.001Z</time></trkpt><trkpt lat="44.05292532346601" lon="11.390522108645955"><ele>823.3333333333333</ele><time>2026-04-10T11:51:00.001Z</time></trkpt><trkpt lat="44.05283634661688" lon="11.39054891276045"><ele>821.6666666666666</ele><time>2026-04-10T11:51:01Z</time></trkpt><trkpt lat="44.052735408716735" lon="11.390555892089429"><ele>820.0</ele><time>2026-04-10T11:51:02Z</time></trkpt><trkpt lat="44.052628174479665" lon="11.39053829463845"><ele>820.0</ele><time>2026-04-10T11:51:03Z</time></trkpt><trkpt lat="44.052522908724555" lon="11.390502798793412"><ele>820.0</ele><time>2026-04-10T11:51:04Z</time></trkpt><trkpt lat="44.052407619746134" lon="11.39042778892742"><ele>820.0</ele><time>2026-04-10T11:51:05Z</time></trkpt><trkpt lat="44.05224396410518" lon="11.390351585974894"><ele>820.0</ele><time>2026-04-10T11:51:06Z</time></trkpt><trkpt lat="44.052065762938724" lon="11.390285575413262"><ele>820.0</ele><time>2026-04-10T11:51:07Z</time></trkpt><trkpt lat="44.05191041896638" lon="11.39019176781577"><ele>820.0</ele><time>2026-04-10T11:51:08Z</time></trkpt><trkpt lat="44.051768260569226" lon="11.390119174157917"><ele>820.0</ele><time>2026-04-10T11:51:09Z</time></trkpt><trkpt lat="44.05162060776625" lon="11.390075077103306"><ele>820.0</ele><time>2026-04-10T11:51:10Z</time></trkpt><trkpt lat="44.05146815778294" lon="11.390066148234853"><ele>820.0</ele><time>2026-04-10T11:51:11Z</time></trkpt><trkpt lat="44.051316814610104" lon="11.390094391670297"><ele>820.0</ele><time>2026-04-10T11:51:12Z</time></trkpt><trkpt lat="44.05116602503251" lon="11.39011092563582"><ele>820.0</ele><time>2026-04-10T11:51:13Z</time></trkpt><trkpt lat="44.0510195124322" lon="11.390073467439196"><ele>820.0</ele><time>2026-04-10T11:51:14Z</time></trkpt><trkpt lat="44.05088052445396" lon="11.389989011879386"><ele>820.0</ele><time>2026-04-10T11:51:15Z</time></trkpt><trkpt lat="44.05074750660501" lon="11.38988952247055"><ele>823.0</ele><time>2026-04-10T11:51:16Z</time></trkpt><trkpt lat="44.05061070473206" lon="11.389803041382422"><ele>826.0</ele><time>2026-04-10T11:51:17Z</time></trkpt><trkpt lat="44.050465418349084" lon="11.389731673415813"><ele>829.0</ele><time>2026-04-10T11:51:18Z</time></trkpt><trkpt lat="44.05031561374475" lon="11.389672823814399"><ele>833.75</ele><time>2026-04-10T11:51:19Z</time></trkpt><trkpt lat="44.050171395293965" lon="11.389632708281628"><ele>838.5</ele><time>2026-04-10T11:51:20Z</time></trkpt><trkpt lat="44.05003252285801" lon="11.389609081891374"><ele>843.25</ele><time>2026-04-10T11:51:21Z</time></trkpt><trkpt lat="44.0499035894436" lon="11.389601023362289"><ele>848.0</ele><time>2026-04-10T11:51:22Z</time></trkpt><trkpt lat="44.04977823990322" lon="11.389611845958267"><ele>847.0</ele><time>2026-04-10T11:51:23Z</time></trkpt><trkpt lat="44.04965154319634" lon="11.389655047426166"><ele>846.0</ele><time>2026-04-10T11:51:24Z</time></trkpt><trkpt lat="44.04951593180339" lon="11.389730997548822"><ele>845.0</ele><time>2026-04-10T11:51:25Z</time></trkpt><trkpt lat="44.04938272462608" lon="11.38981396946512"><ele>844.0</ele><time>2026-04-10T11:51:26Z</time></trkpt><trkpt lat="44.04926472047471" lon="11.389899398948007"><ele>844.0</ele><time>2026-04-10T11:51:27Z</time></trkpt><trkpt lat="44.049159981632386" lon="11.389984727576737"><ele>844.0</ele><time>2026-04-10T11:51:28Z</time></trkpt><trkpt lat="44.0490668327758" lon="11.390086298854943"><ele>844.0</ele><time>2026-04-10T11:51:29Z</time></trkpt><trkpt lat="44.048997706458245" lon="11.390230601469813"><ele>844.0</ele><time>2026-04-10T11:51:30Z</time></trkpt><trkpt lat="44.04896866715079" lon="11.39041444245924"><ele>845.6666666666666</ele><time>2026-04-10T11:51:31Z</time></trkpt><trkpt lat="44.04894413152876" lon="11.39061256845802"><ele>847.3333333333333</ele><time>2026-04-10T11:51:32Z</time></trkpt><trkpt lat="44.04888633274433" lon="11.390806679456466"><ele>849.0</ele><time>2026-04-10T11:51:33Z</time></trkpt><trkpt lat="44.048796452662565" lon="11.390989963810192"><ele>849.0</ele><time>2026-04-10T11:51:34Z</time></trkpt><trkpt lat="44.04871401058598" lon="11.391163243786616"><ele>849.0</ele><time>2026-04-10T11:51:35Z</time></trkpt><trkpt lat="44.04865480274535" lon="11.39132676942362"><ele>849.0</ele><time>2026-04-10T11:51:36Z</time></trkpt><trkpt lat="44.048615120124616" lon="11.391486208440762"><ele>849.0</ele><time>2026-04-10T11:51:37Z</time></trkpt><trkpt lat="44.04857846146961" lon="11.391624708353218"><ele>849.0</ele><time>2026-04-10T11:51:38Z</time></trkpt><trkpt lat="44.04851713626399" lon="11.391692997963064"><ele>849.0</ele><time>2026-04-10T11:51:39Z</time></trkpt><trkpt lat="44.048442028913655" lon="11.391676043986033"><ele>849.0</ele><time>2026-04-10T11:51:40Z</time></trkpt><trkpt lat="44.048406302034195" lon="11.391592012419167"><ele>849.0</ele><time>2026-04-10T11:51:41Z</time></trkpt><trkpt lat="44.048404348088184" lon="11.391458571461637"><ele>849.0</ele><time>2026-04-10T11:51:42Z</time></trkpt><trkpt lat="44.048406683638014" lon="11.391282109973506"><ele>849.0</ele><time>2026-04-10T11:51:43Z</time></trkpt><trkpt lat="44.048369777157944" lon="11.391091698577082"><ele>849.0</ele><time>2026-04-10T11:51:44Z</time></trkpt><trkpt lat="44.048299343224606" lon="11.39088897980844"><ele>849.0</ele><time>2026-04-10T11:51:45Z</time></trkpt><trkpt lat="44.048223033548275" lon="11.390694040892619"><ele>849.0</ele><time>2026-04-10T11:51:46Z</time></trkpt><trkpt lat="44.048157751005434" lon="11.390538772105547"><ele>853.5</ele><time>2026-04-10T11:51:47Z</time></trkpt><trkpt lat="44.04808390610699" lon="11.390396474071181"><ele>858.0</ele><time>2026-04-10T11:51:48Z</time></trkpt><trkpt lat="44.04802139291228" lon="11.390256384287271"><ele>862.5</ele><time>2026-04-10T11:51:49Z</time></trkpt><trkpt lat="44.04797123771027" lon="11.390144123446358"><ele>867.0</ele><time>2026-04-10T11:51:50Z</time></trkpt><trkpt lat="44.04773447080152" lon="11.390267746386053"><ele>867.0</ele><time>2026-04-10T11:51:51Z</time></trkpt><trkpt lat="44.04760225131819" lon="11.390352208671596"><ele>867.0</ele><time>2026-04-10T11:51:52Z</time></trkpt><trkpt lat="44.04749240937978" lon="11.390446637569774"><ele>867.0</ele><time>2026-04-10T11:51:53Z</time></trkpt><trkpt lat="44.04740031407798" lon="11.390524911160325"><ele>867.0</ele><time>2026-04-10T11:51:54Z</time></trkpt><trkpt lat="44.04730939999515" lon="11.390535181227353"><ele>864.8</ele><time>2026-04-10T11:51:55Z</time></trkpt><trkpt lat="44.04723327023108" lon="11.390470534792803"><ele>862.6</ele><time>2026-04-10T11:51:56Z</time></trkpt><trkpt lat="44.04720415781307" lon="11.3903384787113"><ele>860.3999999999999</ele><time>2026-04-10T11:51:57Z</time></trkpt><trkpt lat="44.04720638379004" lon="11.390187316814002"><ele>858.1999999999999</ele><time>2026-04-10T11:51:58Z</time></trkpt><trkpt lat="44.04720622698693" lon="11.390005056897182"><ele>856.0</ele><time>2026-04-10T11:51:59Z</time></trkpt><trkpt lat="44.04719415812255" lon="11.389799350374082"><ele>859.5</ele><time>2026-04-10T11:52:00Z</time></trkpt><trkpt lat="44.04717271737449" lon="11.389579340902568"><ele>863.0</ele><time>2026-04-10T11:52:01Z</time></trkpt><trkpt lat="44.04714057450683" lon="11.389381049244196"><ele>866.5</ele><time>2026-04-10T11:52:02Z</time></trkpt><trkpt lat="44.04710044579544" lon="11.389211510502744"><ele>870.0</ele><time>2026-04-10T11:52:03.001Z</time></trkpt><trkpt lat="44.04707392200606" lon="11.389056851569734"><ele>870.0</ele><time>2026-04-10T11:52:04.001Z</time></trkpt><trkpt lat="44.04707544507685" lon="11.38892073120165"><ele>870.0</ele><time>2026-04-10T11:52:05.001Z</time></trkpt><trkpt lat="44.04709804197951" lon="11.388818158732294"><ele>870.0</ele><time>2026-04-10T11:52:06.001Z</time></trkpt><trkpt lat="44.04712483231259" lon="11.388735531162876"><ele>870.0</ele><time>2026-04-10T11:52:09.001Z</time></trkpt><trkpt lat="44.047128141478424" lon="11.388646511391668"><ele>870.0</ele><time>2026-04-10T11:53:11Z</time></trkpt><trkpt lat="44.04712579744725" lon="11.388466289035716"><ele>870.0</ele><time>2026-04-10T11:53:13Z</time></trkpt><trkpt lat="44.047122724666586" lon="11.388367580577945"><ele>871.8333333333334</ele><time>2026-04-10T11:53:14Z</time></trkpt><trkpt lat="44.04708241551428" lon="11.388234013033172"><ele>873.6666666666667</ele><time>2026-04-10T11:53:16Z</time></trkpt><trkpt lat="44.047034813574314" lon="11.388158114825666"><ele>875.5</ele><time>2026-04-10T11:53:18Z</time></trkpt><trkpt lat="44.046973796522124" lon="11.38809850804132"><ele>877.3333333333334</ele><time>2026-04-10T11:53:20Z</time></trkpt><trkpt lat="44.04690730010296" lon="11.388067347330896"><ele>879.1666666666667</ele><time>2026-04-10T11:53:22Z</time></trkpt><trkpt lat="44.04683798254995" lon="11.388061343566248"><ele>881.0</ele><time>2026-04-10T11:53:25Z</time></trkpt><trkpt lat="44.04677449606906" lon="11.388125165088486"><ele>881.0</ele><time>2026-04-10T11:58:06Z</time></trkpt><trkpt lat="44.046708154420735" lon="11.388100797954845"><ele>880.9999999999999</ele><time>2026-04-10T11:58:09Z</time></trkpt><trkpt lat="44.04666267975645" lon="11.38798495184203"><ele>880.9999999999999</ele><time>2026-04-10T11:58:13Z</time></trkpt><trkpt lat="44.04659601654962" lon="11.387898435567466"><ele>881.0</ele><time>2026-04-10T11:58:15Z</time></trkpt><trkpt lat="44.04650951218312" lon="11.387830802756175"><ele>881.0</ele><time>2026-04-10T11:58:17Z</time></trkpt><trkpt lat="44.04642054052754" lon="11.387769365319034"><ele>880.0</ele><time>2026-04-10T11:58:19Z</time></trkpt><trkpt lat="44.04632638261474" lon="11.387716896476771"><ele>878.9999999999999</ele><time>2026-04-10T11:58:21Z</time></trkpt><trkpt lat="44.046233530400876" lon="11.387642577020024"><ele>877.9999999999999</ele><time>2026-04-10T11:58:23Z</time></trkpt><trkpt lat="44.04612295451992" lon="11.387555553372271"><ele>877.0</ele><time>2026-04-10T11:58:25Z</time></trkpt><trkpt lat="44.04606235030598" lon="11.38749762638716"><ele>876.0</ele><time>2026-04-10T11:58:26Z</time></trkpt><trkpt lat="44.04599949238538" lon="11.38743997956084"><ele>876.0</ele><time>2026-04-10T11:58:27Z</time></trkpt><trkpt lat="44.0459317626945" lon="11.387386552462987"><ele>876.0</ele><time>2026-04-10T11:58:28Z</time></trkpt><trkpt lat="44.045859853813965" lon="11.387343143639177"><ele>876.0</ele><time>2026-04-10T11:58:29Z</time></trkpt><trkpt lat="44.04577504708479" lon="11.387320474667632"><ele>876.0</ele><time>2026-04-10T11:58:30Z</time></trkpt><trkpt lat="44.045681265315146" lon="11.387327605500992"><ele>876.0</ele><time>2026-04-10T11:58:31Z</time></trkpt><trkpt lat="44.045579396859154" lon="11.387352708673502"><ele>876.0</ele><time>2026-04-10T11:58:32Z</time></trkpt><trkpt lat="44.045471546305905" lon="11.387383148384474"><ele>874.75</ele><time>2026-04-10T11:58:33Z</time></trkpt><trkpt lat="44.045360293556215" lon="11.387417070069196"><ele>873.5</ele><time>2026-04-10T11:58:34Z</time></trkpt><trkpt lat="44.045249762361635" lon="11.38745700654159"><ele>872.25</ele><time>2026-04-10T11:58:35Z</time></trkpt><trkpt lat="44.045142656787355" lon="11.387502960004703"><ele>871.0</ele><time>2026-04-10T11:58:36Z</time></trkpt><trkpt lat="44.0450393712643" lon="11.387560250318439"><ele>870.0</ele><time>2026-04-10T11:58:37Z</time></trkpt><trkpt lat="44.04493671982131" lon="11.387630847477123"><ele>868.9999999999999</ele><time>2026-04-10T11:58:38Z</time></trkpt><trkpt lat="44.04482829080493" lon="11.38769846770843"><ele>867.9999999999999</ele><time>2026-04-10T11:58:39Z</time></trkpt><trkpt lat="44.04472752344174" lon="11.387766361355352"><ele>867.0</ele><time>2026-04-10T11:58:40Z</time></trkpt><trkpt lat="44.04463398052447" lon="11.387810090384997"><ele>866.0</ele><time>2026-04-10T11:58:41Z</time></trkpt><trkpt lat="44.04454011147689" lon="11.387802345943944"><ele>866.0</ele><time>2026-04-10T11:58:42Z</time></trkpt><trkpt lat="44.04447543448735" lon="11.38773104782794"><ele>865.9999999999999</ele><time>2026-04-10T11:58:43Z</time></trkpt><trkpt lat="44.04444078679899" lon="11.387601795144418"><ele>865.9999999999999</ele><time>2026-04-10T11:58:44Z</time></trkpt><trkpt lat="44.044457514863126" lon="11.387462477849542"><ele>866.0</ele><time>2026-04-10T11:58:45Z</time></trkpt><trkpt lat="44.04448554581348" lon="11.38731161538269"><ele>866.0</ele><time>2026-04-10T11:58:46.001Z</time></trkpt><trkpt lat="44.04448749127039" lon="11.387169585541788"><ele>862.8</ele><time>2026-04-10T11:58:47.001Z</time></trkpt><trkpt lat="44.04446986756426" lon="11.38702226208707"><ele>859.5999999999999</ele><time>2026-04-10T11:58:48.001Z</time></trkpt><trkpt lat="44.044461901309354" lon="11.386866385804021"><ele>856.4</ele><time>2026-04-10T11:58:49.001Z</time></trkpt><trkpt lat="44.044496499534276" lon="11.386719004189313"><ele>853.2</ele><time>2026-04-10T11:58:50.001Z</time></trkpt><trkpt lat="44.04457914253229" lon="11.386604183884035"><ele>850.0</ele><time>2026-04-10T11:58:51.001Z</time></trkpt><trkpt lat="44.04468087668409" lon="11.38653170175032"><ele>850.0</ele><time>2026-04-10T11:58:52.001Z</time></trkpt><trkpt lat="44.04479111099966" lon="11.386472538824911"><ele>850.0</ele><time>2026-04-10T11:58:53.001Z</time></trkpt><trkpt lat="44.04489625607783" lon="11.386427857304103"><ele>850.0</ele><time>2026-04-10T11:58:54.001Z</time></trkpt><trkpt lat="44.04499934468013" lon="11.386365823741711"><ele>850.0</ele><time>2026-04-10T11:58:55.001Z</time></trkpt><trkpt lat="44.045082063259144" lon="11.386254598130147"><ele>849.0</ele><time>2026-04-10T11:58:56.001Z</time></trkpt><trkpt lat="44.04512724349765" lon="11.386105301154688"><ele>848.0</ele><time>2026-04-10T11:58:57.001Z</time></trkpt><trkpt lat="44.045178150562435" lon="11.385963827310892"><ele>847.0</ele><time>2026-04-10T11:58:58.001Z</time></trkpt><trkpt lat="44.04527006144242" lon="11.385868493327749"><ele>846.0</ele><time>2026-04-10T11:58:59.001Z</time></trkpt><trkpt lat="44.04537735620536" lon="11.385807199054074"><ele>846.0</ele><time>2026-04-10T11:59:00.001Z</time></trkpt><trkpt lat="44.04545761269305" lon="11.385732181981592"><ele>846.0</ele><time>2026-04-10T11:59:01.001Z</time></trkpt><trkpt lat="44.045495911718" lon="11.385624897166197"><ele>846.0</ele><time>2026-04-10T11:59:02.001Z</time></trkpt><trkpt lat="44.04548888621194" lon="11.385506524974197"><ele>846.0</ele><time>2026-04-10T11:59:03.001Z</time></trkpt><trkpt lat="44.04543133794362" lon="11.385421886752368"><ele>846.0</ele><time>2026-04-10T11:59:04.001Z</time></trkpt><trkpt lat="44.04534655376085" lon="11.385408647166088"><ele>846.0</ele><time>2026-04-10T11:59:05.001Z</time></trkpt><trkpt lat="44.04525091384682" lon="11.385436742075724"><ele>843.1999999999999</ele><time>2026-04-10T11:59:06.001Z</time></trkpt><trkpt lat="44.04515343456525" lon="11.385453858207637"><ele>840.4</ele><time>2026-04-10T11:59:07.001Z</time></trkpt><trkpt lat="44.04504854302343" lon="11.385426138925531"><ele>837.6</ele><time>2026-04-10T11:59:08.001Z</time></trkpt><trkpt lat="44.04494542455986" lon="11.385359520710836"><ele>834.8</ele><time>2026-04-10T11:59:09.001Z</time></trkpt><trkpt lat="44.044847254133316" lon="11.385307230498283"><ele>832.0</ele><time>2026-04-10T11:59:10.001Z</time></trkpt><trkpt lat="44.04473755081297" lon="11.385331483891017"><ele>832.25</ele><time>2026-04-10T11:59:11.001Z</time></trkpt><trkpt lat="44.04464125870445" lon="11.385411948774818"><ele>832.5</ele><time>2026-04-10T11:59:12.001Z</time></trkpt><trkpt lat="44.04455864919981" lon="11.385525232323054"><ele>832.75</ele><time>2026-04-10T11:59:13.001Z</time></trkpt><trkpt lat="44.04448541619516" lon="11.38565201015961"><ele>833.0</ele><time>2026-04-10T11:59:14.001Z</time></trkpt><trkpt lat="44.044406396554656" lon="11.385769401159358"><ele>833.0</ele><time>2026-04-10T11:59:15.001Z</time></trkpt><trkpt lat="44.04430220890148" lon="11.38584216461013"><ele>833.0</ele><time>2026-04-10T11:59:16.001Z</time></trkpt><trkpt lat="44.04418554579465" lon="11.385862802620045"><ele>833.0</ele><time>2026-04-10T11:59:17.001Z</time></trkpt><trkpt lat="44.044064057446406" lon="11.385876871632721"><ele>833.0</ele><time>2026-04-10T11:59:18.001Z</time></trkpt><trkpt lat="44.043941341644" lon="11.385911417916088"><ele>825.75</ele><time>2026-04-10T11:59:19.001Z</time></trkpt><trkpt lat="44.04381806490057" lon="11.385969397888013"><ele>818.5</ele><time>2026-04-10T11:59:20.001Z</time></trkpt><trkpt lat="44.043705942318766" lon="11.386057770072442"><ele>811.25</ele><time>2026-04-10T11:59:21.001Z</time></trkpt><trkpt lat="44.04359163598133" lon="11.386159927195214"><ele>804.0</ele><time>2026-04-10T11:59:22.001Z</time></trkpt><trkpt lat="44.04348335344891" lon="11.386275240122515"><ele>803.4000000000001</ele><time>2026-04-10T11:59:23.001Z</time></trkpt><trkpt lat="44.043377646196404" lon="11.38639472223108"><ele>802.8</ele><time>2026-04-10T11:59:24.001Z</time></trkpt><trkpt lat="44.04329695453612" lon="11.386523093358434"><ele>802.2</ele><time>2026-04-10T11:59:24.999Z</time></trkpt><trkpt lat="44.04321253498607" lon="11.386601121111175"><ele>801.5999999999999</ele><time>2026-04-10T11:59:25.999Z</time></trkpt><trkpt lat="44.04316074968772" lon="11.386665783326865"><ele>801.0</ele><time>2026-04-10T11:59:26.999Z</time></trkpt><trkpt lat="44.04310790566984" lon="11.386740670889534"><ele>801.0</ele><time>2026-04-10T11:59:27.999Z</time></trkpt><trkpt lat="44.04304521919308" lon="11.386713543925952"><ele>801.0</ele><time>2026-04-10T11:59:28.999Z</time></trkpt><trkpt lat="44.043019960323576" lon="11.386632203949915"><ele>801.0</ele><time>2026-04-10T11:59:29.999Z</time></trkpt><trkpt lat="44.0430388607459" lon="11.386535324926243"><ele>801.0</ele><time>2026-04-10T11:59:30.999Z</time></trkpt><trkpt lat="44.04311244583851" lon="11.386440366563315"><ele>801.0</ele><time>2026-04-10T11:59:31.999Z</time></trkpt><trkpt lat="44.04319701894766" lon="11.386339563040202"><ele>801.0</ele><time>2026-04-10T11:59:32.999Z</time></trkpt><trkpt lat="44.04328737877774" lon="11.386216491513752"><ele>801.75</ele><time>2026-04-10T11:59:34Z</time></trkpt><trkpt lat="44.04336809569242" lon="11.386100702105422"><ele>802.5</ele><time>2026-04-10T11:59:35Z</time></trkpt><trkpt lat="44.04344626166254" lon="11.385968404507569"><ele>803.25</ele><time>2026-04-10T11:59:36Z</time></trkpt><trkpt lat="44.04352544837701" lon="11.38581689712572"><ele>804.0</ele><time>2026-04-10T11:59:37Z</time></trkpt><trkpt lat="44.043601500150494" lon="11.3856542548029"><ele>799.75</ele><time>2026-04-10T11:59:38Z</time></trkpt><trkpt lat="44.04366684867602" lon="11.385484880845851"><ele>795.5</ele><time>2026-04-10T11:59:39Z</time></trkpt><trkpt lat="44.04372369833213" lon="11.385310760509151"><ele>791.25</ele><time>2026-04-10T11:59:40Z</time></trkpt><trkpt lat="44.04377531944804" lon="11.385131975029072"><ele>787.0</ele><time>2026-04-10T11:59:41Z</time></trkpt><trkpt lat="44.043823847075046" lon="11.384951527244176"><ele>787.0</ele><time>2026-04-10T11:59:42Z</time></trkpt><trkpt lat="44.0438777496964" lon="11.384771090606966"><ele>787.0</ele><time>2026-04-10T11:59:43Z</time></trkpt><trkpt lat="44.04394413817363" lon="11.384600055902576"><ele>787.0</ele><time>2026-04-10T11:59:44Z</time></trkpt><trkpt lat="44.04402821143054" lon="11.38444245883067"><ele>787.0</ele><time>2026-04-10T11:59:45Z</time></trkpt><trkpt lat="44.04412215209368" lon="11.384306517424335"><ele>788.9999999999999</ele><time>2026-04-10T11:59:46Z</time></trkpt><trkpt lat="44.04420975434402" lon="11.384207928423715"><ele>791.0</ele><time>2026-04-10T11:59:47Z</time></trkpt><trkpt lat="44.04426796304827" lon="11.384121461063076"><ele>793.0</ele><time>2026-04-10T11:59:48Z</time></trkpt><trkpt lat="44.04427948929999" lon="11.384019256220192"><ele>795.0</ele><time>2026-04-10T11:59:49Z</time></trkpt><trkpt lat="44.04424005628843" lon="11.383917306372183"><ele>796.9999999999999</ele><time>2026-04-10T11:59:50Z</time></trkpt><trkpt lat="44.04415599359109" lon="11.383889011636882"><ele>799.0</ele><time>2026-04-10T11:59:51Z</time></trkpt><trkpt lat="44.04406827465721" lon="11.383925719953034"><ele>791.5</ele><time>2026-04-10T11:59:52Z</time></trkpt><trkpt lat="44.04397871054887" lon="11.384010428672283"><ele>784.0</ele><time>2026-04-10T11:59:53Z</time></trkpt><trkpt lat="44.04388101920341" lon="11.384116764379833"><ele>776.5</ele><time>2026-04-10T11:59:54Z</time></trkpt><trkpt lat="44.043777316258875" lon="11.384246056723208"><ele>769.0</ele><time>2026-04-10T11:59:55Z</time></trkpt><trkpt lat="44.04367688139205" lon="11.384392262485049"><ele>769.0</ele><time>2026-04-10T11:59:56Z</time></trkpt><trkpt lat="44.04358690737162" lon="11.38454399646799"><ele>769.0</ele><time>2026-04-10T11:59:57Z</time></trkpt><trkpt lat="44.04350292470215" lon="11.384694158720803"><ele>769.0</ele><time>2026-04-10T11:59:58Z</time></trkpt><trkpt lat="44.043422919635866" lon="11.384846664795896"><ele>769.0</ele><time>2026-04-10T11:59:59Z</time></trkpt><trkpt lat="44.043357018859474" lon="11.384992507509134"><ele>767.1666666666666</ele><time>2026-04-10T12:00:00Z</time></trkpt><trkpt lat="44.04329134139166" lon="11.385095460849124"><ele>765.3333333333333</ele><time>2026-04-10T12:00:01Z</time></trkpt><trkpt lat="44.04324677025204" lon="11.38518234473303"><ele>763.5</ele><time>2026-04-10T12:00:02Z</time></trkpt><trkpt lat="44.04318167723005" lon="11.385176879384025"><ele>761.6666666666666</ele><time>2026-04-10T12:00:03Z</time></trkpt><trkpt lat="44.04313547253638" lon="11.385110549780958"><ele>759.8333333333333</ele><time>2026-04-10T12:00:04Z</time></trkpt><trkpt lat="44.04313478627337" lon="11.3849977511142"><ele>758.0</ele><time>2026-04-10T12:00:05Z</time></trkpt><trkpt lat="44.04319141431917" lon="11.384870708775955"><ele>758.0</ele><time>2026-04-10T12:00:06Z</time></trkpt><trkpt lat="44.04326766073483" lon="11.38473436267966"><ele>758.0</ele><time>2026-04-10T12:00:07Z</time></trkpt><trkpt lat="44.043348139130515" lon="11.384568333062095"><ele>758.0</ele><time>2026-04-10T12:00:08Z</time></trkpt><trkpt lat="44.043432391941344" lon="11.38437797159309"><ele>758.0</ele><time>2026-04-10T12:00:09Z</time></trkpt><trkpt lat="44.0435246852138" lon="11.384198866788008"><ele>757.25</ele><time>2026-04-10T12:00:10Z</time></trkpt><trkpt lat="44.04360586726765" lon="11.38402360924348"><ele>756.5</ele><time>2026-04-10T12:00:11Z</time></trkpt><trkpt lat="44.043687720363465" lon="11.3838535298563"><ele>755.75</ele><time>2026-04-10T12:00:12Z</time></trkpt><trkpt lat="44.0437700839162" lon="11.383687044952842"><ele>755.0</ele><time>2026-04-10T12:00:13Z</time></trkpt><trkpt lat="44.04385560665023" lon="11.383530275839737"><ele>755.0</ele><time>2026-04-10T12:00:14Z</time></trkpt><trkpt lat="44.04393879683714" lon="11.383378396469903"><ele>755.0</ele><time>2026-04-10T12:00:15Z</time></trkpt><trkpt lat="44.044002673249096" lon="11.383213324204963"><ele>755.0</ele><time>2026-04-10T12:00:16Z</time></trkpt><trkpt lat="44.04405110772748" lon="11.383030567632682"><ele>755.0</ele><time>2026-04-10T12:00:17Z</time></trkpt><trkpt lat="44.044091589466895" lon="11.382838860262897"><ele>753.75</ele><time>2026-04-10T12:00:18Z</time></trkpt><trkpt lat="44.044125075730236" lon="11.382641673063409"><ele>752.5</ele><time>2026-04-10T12:00:19Z</time></trkpt><trkpt lat="44.04415246101336" lon="11.382437664977017"><ele>751.25</ele><time>2026-04-10T12:00:20Z</time></trkpt><trkpt lat="44.044175534853345" lon="11.382232231474097"><ele>750.0</ele><time>2026-04-10T12:00:21Z</time></trkpt><trkpt lat="44.04419583516531" lon="11.382024564838026"><ele>755.0</ele><time>2026-04-10T12:00:22Z</time></trkpt><trkpt lat="44.0442046072439" lon="11.381816308362412"><ele>760.0</ele><time>2026-04-10T12:00:23Z</time></trkpt><trkpt lat="44.044213325333644" lon="11.381605707441686"><ele>765.0</ele><time>2026-04-10T12:00:24Z</time></trkpt><trkpt lat="44.044218941144884" lon="11.381416761972602"><ele>770.0</ele><time>2026-04-10T12:00:25Z</time></trkpt><trkpt lat="44.04420962590614" lon="11.381250273109107"><ele>771.75</ele><time>2026-04-10T12:00:26Z</time></trkpt><trkpt lat="44.04415561705654" lon="11.381114300692309"><ele>773.5</ele><time>2026-04-10T12:00:27Z</time></trkpt><trkpt lat="44.044056880282355" lon="11.381019754445557"><ele>775.25</ele><time>2026-04-10T12:00:28Z</time></trkpt><trkpt lat="44.043930074209534" lon="11.38096237769571"><ele>777.0</ele><time>2026-04-10T12:00:29Z</time></trkpt><trkpt lat="44.043796116014924" lon="11.380923803325928"><ele>772.75</ele><time>2026-04-10T12:00:30Z</time></trkpt><trkpt lat="44.04366798234358" lon="11.380880239247515"><ele>768.5</ele><time>2026-04-10T12:00:31Z</time></trkpt><trkpt lat="44.043550164429305" lon="11.38079573917925"><ele>764.25</ele><time>2026-04-10T12:00:32Z</time></trkpt><trkpt lat="44.04346695229609" lon="11.380654324777225"><ele>760.0</ele><time>2026-04-10T12:00:33Z</time></trkpt><trkpt lat="44.04343984044604" lon="11.380470427299354"><ele>760.0</ele><time>2026-04-10T12:00:34Z</time></trkpt><trkpt lat="44.04343412635449" lon="11.380275846168036"><ele>760.0</ele><time>2026-04-10T12:00:35Z</time></trkpt><trkpt lat="44.04342509664437" lon="11.380080625321307"><ele>760.0</ele><time>2026-04-10T12:00:36Z</time></trkpt><trkpt lat="44.04340963946126" lon="11.379884395249945"><ele>760.0</ele><time>2026-04-10T12:00:37Z</time></trkpt><trkpt lat="44.04337490712487" lon="11.379709489965542"><ele>762.0</ele><time>2026-04-10T12:00:38Z</time></trkpt><trkpt lat="44.043340814010556" lon="11.379537885207483"><ele>764.0</ele><time>2026-04-10T12:00:39Z</time></trkpt><trkpt lat="44.043300428998734" lon="11.379378232548637"><ele>766.0</ele><time>2026-04-10T12:00:40Z</time></trkpt><trkpt lat="44.04322699506614" lon="11.379250293693941"><ele>768.0</ele><time>2026-04-10T12:00:41Z</time></trkpt><trkpt lat="44.04312010040444" lon="11.379186958795596"><ele>769.5</ele><time>2026-04-10T12:00:42Z</time></trkpt><trkpt lat="44.04300683994345" lon="11.379198340765834"><ele>771.0</ele><time>2026-04-10T12:00:43Z</time></trkpt><trkpt lat="44.04288455790639" lon="11.379239881322759"><ele>772.5</ele><time>2026-04-10T12:00:44Z</time></trkpt><trkpt lat="44.04274751488354" lon="11.3792851516024"><ele>774.0</ele><time>2026-04-10T12:00:45Z</time></trkpt><trkpt lat="44.042611285783266" lon="11.379322326131774"><ele>774.0</ele><time>2026-04-10T12:00:46Z</time></trkpt><trkpt lat="44.04247967583972" lon="11.37935013852326"><ele>774.0</ele><time>2026-04-10T12:00:47Z</time></trkpt><trkpt lat="44.042346062347065" lon="11.379380879308021"><ele>774.0</ele><time>2026-04-10T12:00:48Z</time></trkpt><trkpt lat="44.042220510407056" lon="11.379441443831901"><ele>774.0</ele><time>2026-04-10T12:00:49Z</time></trkpt><trkpt lat="44.042111864755" lon="11.379555177766584"><ele>769.5</ele><time>2026-04-10T12:00:50Z</time></trkpt><trkpt lat="44.04201980154085" lon="11.379705488914315"><ele>765.0</ele><time>2026-04-10T12:00:51Z</time></trkpt><trkpt lat="44.04194204603551" lon="11.379869876985047"><ele>760.5</ele><time>2026-04-10T12:00:52Z</time></trkpt><trkpt lat="44.04187531812952" lon="11.380008274140438"><ele>756.0</ele><time>2026-04-10T12:00:53Z</time></trkpt><trkpt lat="44.0418122040794" lon="11.380132657103314"><ele>756.0</ele><time>2026-04-10T12:00:54Z</time></trkpt><trkpt lat="44.041748915314315" lon="11.380248601723162"><ele>756.0</ele><time>2026-04-10T12:00:55Z</time></trkpt><trkpt lat="44.04167401387139" lon="11.38033827480663"><ele>756.0</ele><time>2026-04-10T12:00:56Z</time></trkpt><trkpt lat="44.04158026116767" lon="11.380356403011799"><ele>756.0</ele><time>2026-04-10T12:00:57Z</time></trkpt><trkpt lat="44.04149508981678" lon="11.380312891638093"><ele>756.0</ele><time>2026-04-10T12:00:58Z</time></trkpt><trkpt lat="44.04142068703249" lon="11.380204541069288"><ele>751.0</ele><time>2026-04-10T12:00:59Z</time></trkpt><trkpt lat="44.04133044436334" lon="11.380097650228118"><ele>746.0</ele><time>2026-04-10T12:01:00Z</time></trkpt><trkpt lat="44.04123545637465" lon="11.379986978916408"><ele>741.0</ele><time>2026-04-10T12:01:01Z</time></trkpt><trkpt lat="44.04115733820386" lon="11.379887604198798"><ele>736.0</ele><time>2026-04-10T12:01:02Z</time></trkpt><trkpt lat="44.04111269280158" lon="11.379766820852284"><ele>731.0</ele><time>2026-04-10T12:01:03Z</time></trkpt><trkpt lat="44.04111448169981" lon="11.379634985921962"><ele>731.0</ele><time>2026-04-10T12:01:04Z</time></trkpt><trkpt lat="44.041183155097336" lon="11.37950565462399"><ele>731.0</ele><time>2026-04-10T12:01:05Z</time></trkpt><trkpt lat="44.041249406453616" lon="11.379359513295114"><ele>731.0</ele><time>2026-04-10T12:01:06Z</time></trkpt><trkpt lat="44.04132133486936" lon="11.37922963105245"><ele>731.0</ele><time>2026-04-10T12:01:07Z</time></trkpt><trkpt lat="44.04137116071026" lon="11.37910729884351"><ele>731.0</ele><time>2026-04-10T12:01:08Z</time></trkpt><trkpt lat="44.041400534434736" lon="11.3789658005533"><ele>731.0</ele><time>2026-04-10T12:01:09Z</time></trkpt><trkpt lat="44.04138111141764" lon="11.378818723000514"><ele>731.0</ele><time>2026-04-10T12:01:10Z</time></trkpt><trkpt lat="44.04130893781132" lon="11.378689614888986"><ele>731.0</ele><time>2026-04-10T12:01:11Z</time></trkpt><trkpt lat="44.041201192258384" lon="11.37856576435225"><ele>732.75</ele><time>2026-04-10T12:01:12Z</time></trkpt><trkpt lat="44.04107424838676" lon="11.378467114263042"><ele>734.5</ele><time>2026-04-10T12:01:13Z</time></trkpt><trkpt lat="44.04095828035532" lon="11.37839202605421"><ele>736.25</ele><time>2026-04-10T12:01:14Z</time></trkpt><trkpt lat="44.04085853178181" lon="11.378299300758677"><ele>738.0</ele><time>2026-04-10T12:01:15Z</time></trkpt><trkpt lat="44.040756273570445" lon="11.378226846646267"><ele>727.25</ele><time>2026-04-10T12:01:16Z</time></trkpt><trkpt lat="44.040692252824044" lon="11.378107505556041"><ele>716.5</ele><time>2026-04-10T12:01:17Z</time></trkpt><trkpt lat="44.04068180030525" lon="11.377954227671331"><ele>705.75</ele><time>2026-04-10T12:01:18Z</time></trkpt><trkpt lat="44.04072005526545" lon="11.377779040061334"><ele>695.0</ele><time>2026-04-10T12:01:19Z</time></trkpt><trkpt lat="44.04079662752272" lon="11.377609727440374"><ele>703.75</ele><time>2026-04-10T12:01:20Z</time></trkpt><trkpt lat="44.04090397602633" lon="11.377480620187292"><ele>712.5</ele><time>2026-04-10T12:01:21Z</time></trkpt><trkpt lat="44.041015913682934" lon="11.377395941866764"><ele>721.25</ele><time>2026-04-10T12:01:22Z</time></trkpt><trkpt lat="44.041121807570306" lon="11.377325248757115"><ele>730.0</ele><time>2026-04-10T12:01:23Z</time></trkpt><trkpt lat="44.04121282482105" lon="11.37723575763207"><ele>728.4</ele><time>2026-04-10T12:01:24Z</time></trkpt><trkpt lat="44.041272657395105" lon="11.37711024007606"><ele>726.8</ele><time>2026-04-10T12:01:25Z</time></trkpt><trkpt lat="44.041273831580185" lon="11.376969633449328"><ele>725.2</ele><time>2026-04-10T12:01:26Z</time></trkpt><trkpt lat="44.04122690984655" lon="11.376832066082377"><ele>723.6</ele><time>2026-04-10T12:01:27Z</time></trkpt><trkpt lat="44.04112872904478" lon="11.376739276588628"><ele>722.0</ele><time>2026-04-10T12:01:28Z</time></trkpt><trkpt lat="44.04100948657222" lon="11.376698622056438"><ele>722.0</ele><time>2026-04-10T12:01:29Z</time></trkpt><trkpt lat="44.04090891318717" lon="11.376667495578076"><ele>722.0</ele><time>2026-04-10T12:01:30Z</time></trkpt><trkpt lat="44.040834952842665" lon="11.37656699044738"><ele>722.0</ele><time>2026-04-10T12:01:30.999Z</time></trkpt><trkpt lat="44.04080314022405" lon="11.376408207139459"><ele>722.0</ele><time>2026-04-10T12:01:31.999Z</time></trkpt><trkpt lat="44.04080383083642" lon="11.376220104610859"><ele>724.75</ele><time>2026-04-10T12:01:32.999Z</time></trkpt><trkpt lat="44.04080497499738" lon="11.376045746856494"><ele>727.5</ele><time>2026-04-10T12:01:33.999Z</time></trkpt><trkpt lat="44.04081540908897" lon="11.375878901601116"><ele>730.25</ele><time>2026-04-10T12:01:34.999Z</time></trkpt><trkpt lat="44.0408199391632" lon="11.375719887306893"><ele>733.0</ele><time>2026-04-10T12:01:35.999Z</time></trkpt><trkpt lat="44.04081674498747" lon="11.375568391851417"><ele>729.5999999999999</ele><time>2026-04-10T12:01:36.999Z</time></trkpt><trkpt lat="44.040791193196085" lon="11.375434788307473"><ele>726.1999999999999</ele><time>2026-04-10T12:01:37.999Z</time></trkpt><trkpt lat="44.04071673054338" lon="11.375345690548606"><ele>722.8</ele><time>2026-04-10T12:01:38.999Z</time></trkpt><trkpt lat="44.04060600374612" lon="11.375317968775983"><ele>719.4</ele><time>2026-04-10T12:01:39.999Z</time></trkpt><trkpt lat="44.04048513367025" lon="11.375348305997745"><ele>716.0</ele><time>2026-04-10T12:01:40.999Z</time></trkpt><trkpt lat="44.04036114819772" lon="11.375378359555576"><ele>716.0</ele><time>2026-04-10T12:01:42Z</time></trkpt><trkpt lat="44.04025880825625" lon="11.375290032132936"><ele>716.0</ele><time>2026-04-10T12:01:43Z</time></trkpt><trkpt lat="44.04014206834843" lon="11.375258930087144"><ele>716.0</ele><time>2026-04-10T12:01:44Z</time></trkpt><trkpt lat="44.04000492498101" lon="11.375263043919176"><ele>716.0</ele><time>2026-04-10T12:01:45Z</time></trkpt><trkpt lat="44.03986603728786" lon="11.375305022354631"><ele>712.5</ele><time>2026-04-10T12:01:46Z</time></trkpt><trkpt lat="44.039729661798646" lon="11.375357307107949"><ele>709.0</ele><time>2026-04-10T12:01:47Z</time></trkpt><trkpt lat="44.039596559514436" lon="11.375393963967198"><ele>705.5</ele><time>2026-04-10T12:01:48Z</time></trkpt><trkpt lat="44.03945912854243" lon="11.375428637224767"><ele>702.0</ele><time>2026-04-10T12:01:49Z</time></trkpt><trkpt lat="44.03932003810868" lon="11.375462244218337"><ele>702.0</ele><time>2026-04-10T12:01:50Z</time></trkpt><trkpt lat="44.039182162896516" lon="11.37550211907419"><ele>702.0</ele><time>2026-04-10T12:01:51Z</time></trkpt><trkpt lat="44.039050850524085" lon="11.375555859263171"><ele>702.0</ele><time>2026-04-10T12:01:52Z</time></trkpt><trkpt lat="44.038923732417125" lon="11.375635818742586"><ele>702.0</ele><time>2026-04-10T12:01:53Z</time></trkpt><trkpt lat="44.03879066805162" lon="11.375733697401358"><ele>700.75</ele><time>2026-04-10T12:01:54Z</time></trkpt><trkpt lat="44.03866476538715" lon="11.375839400856568"><ele>699.5</ele><time>2026-04-10T12:01:55Z</time></trkpt><trkpt lat="44.03854527369832" lon="11.375955082021017"><ele>698.25</ele><time>2026-04-10T12:01:56Z</time></trkpt><trkpt lat="44.03843470915627" lon="11.376079240512674"><ele>697.0</ele><time>2026-04-10T12:01:57Z</time></trkpt><trkpt lat="44.03832718957203" lon="11.376200095325808"><ele>692.0</ele><time>2026-04-10T12:01:58Z</time></trkpt><trkpt lat="44.03821314764694" lon="11.376301275386993"><ele>687.0</ele><time>2026-04-10T12:01:59Z</time></trkpt><trkpt lat="44.038102450842864" lon="11.376338008868805"><ele>682.0</ele><time>2026-04-10T12:02:00Z</time></trkpt><trkpt lat="44.038001985825844" lon="11.376282904554163"><ele>677.0</ele><time>2026-04-10T12:02:01Z</time></trkpt><trkpt lat="44.03789474417307" lon="11.376176340001344"><ele>677.0</ele><time>2026-04-10T12:02:02Z</time></trkpt><trkpt lat="44.037796394220436" lon="11.376021230014835"><ele>677.0</ele><time>2026-04-10T12:02:03Z</time></trkpt><trkpt lat="44.03772235588445" lon="11.375840518083782"><ele>677.0</ele><time>2026-04-10T12:02:04Z</time></trkpt><trkpt lat="44.03765519190274" lon="11.375651585037312"><ele>677.25</ele><time>2026-04-10T12:02:05Z</time></trkpt><trkpt lat="44.03759440755201" lon="11.37546452420937"><ele>677.5</ele><time>2026-04-10T12:02:06Z</time></trkpt><trkpt lat="44.0375339440136" lon="11.3752827670206"><ele>677.75</ele><time>2026-04-10T12:02:07Z</time></trkpt><trkpt lat="44.03747009022155" lon="11.375102833905208"><ele>678.0</ele><time>2026-04-10T12:02:08Z</time></trkpt><trkpt lat="44.03740248544183" lon="11.374931172917547"><ele>673.5999999999999</ele><time>2026-04-10T12:02:09Z</time></trkpt><trkpt lat="44.037322079101294" lon="11.374807538765966"><ele>669.1999999999999</ele><time>2026-04-10T12:02:10Z</time></trkpt><trkpt lat="44.03722704072285" lon="11.374735435763602"><ele>664.8</ele><time>2026-04-10T12:02:11Z</time></trkpt><trkpt lat="44.037153271490155" lon="11.374663553252923"><ele>660.4</ele><time>2026-04-10T12:02:12Z</time></trkpt><trkpt lat="44.037138817350595" lon="11.374549412568978"><ele>656.0</ele><time>2026-04-10T12:02:13Z</time></trkpt><trkpt lat="44.03718991753683" lon="11.374435037604178"><ele>654.4</ele><time>2026-04-10T12:02:14Z</time></trkpt><trkpt lat="44.03728577898705" lon="11.374385609898058"><ele>652.8</ele><time>2026-04-10T12:02:15Z</time></trkpt><trkpt lat="44.037388025786" lon="11.374430095257322"><ele>651.1999999999999</ele><time>2026-04-10T12:02:16Z</time></trkpt><trkpt lat="44.03747964561231" lon="11.374464637770297"><ele>649.5999999999999</ele><time>2026-04-10T12:02:17Z</time></trkpt><trkpt lat="44.03756671816002" lon="11.37449650394148"><ele>648.0</ele><time>2026-04-10T12:02:18Z</time></trkpt><trkpt lat="44.037654870449046" lon="11.374457167946149"><ele>648.0</ele><time>2026-04-10T12:02:19Z</time></trkpt><trkpt lat="44.037713894343874" lon="11.37435848231911"><ele>648.0</ele><time>2026-04-10T12:02:20Z</time></trkpt><trkpt lat="44.03771693505384" lon="11.374224836902266"><ele>648.0</ele><time>2026-04-10T12:02:21Z</time></trkpt><trkpt lat="44.037662144932895" lon="11.374110675618574"><ele>648.0</ele><time>2026-04-10T12:02:22Z</time></trkpt><trkpt lat="44.03756659075882" lon="11.37405358836767"><ele>648.0</ele><time>2026-04-10T12:02:23Z</time></trkpt><trkpt lat="44.03745805492446" lon="11.374057569433882"><ele>648.0</ele><time>2026-04-10T12:02:24Z</time></trkpt><trkpt lat="44.03733297082605" lon="11.374121975750334"><ele>648.0</ele><time>2026-04-10T12:02:25Z</time></trkpt><trkpt lat="44.0372004484336" lon="11.374180460899847"><ele>648.0</ele><time>2026-04-10T12:02:26Z</time></trkpt><trkpt lat="44.03707484626044" lon="11.374228458916813"><ele>648.0</ele><time>2026-04-10T12:02:27Z</time></trkpt><trkpt lat="44.0369523921434" lon="11.374273511357721"><ele>648.0</ele><time>2026-04-10T12:02:28Z</time></trkpt><trkpt lat="44.03683455636823" lon="11.37432025945871"><ele>648.0</ele><time>2026-04-10T12:02:29Z</time></trkpt><trkpt lat="44.03672236089846" lon="11.374383352093963"><ele>648.0</ele><time>2026-04-10T12:02:30Z</time></trkpt><trkpt lat="44.03663643834588" lon="11.374490862641665"><ele>648.0</ele><time>2026-04-10T12:02:31Z</time></trkpt><trkpt lat="44.036587788336355" lon="11.37463927160162"><ele>650.0</ele><time>2026-04-10T12:02:32Z</time></trkpt><trkpt lat="44.036593016097946" lon="11.374810020506322"><ele>652.0</ele><time>2026-04-10T12:02:33Z</time></trkpt><trkpt lat="44.03664373577921" lon="11.374986532747513"><ele>654.0</ele><time>2026-04-10T12:02:34Z</time></trkpt><trkpt lat="44.0367189257057" lon="11.375145366933255"><ele>656.0</ele><time>2026-04-10T12:02:35Z</time></trkpt><trkpt lat="44.036807328354094" lon="11.37526624367407"><ele>656.0</ele><time>2026-04-10T12:02:36Z</time></trkpt><trkpt lat="44.03691212296008" lon="11.375352597518003"><ele>656.0</ele><time>2026-04-10T12:02:37Z</time></trkpt><trkpt lat="44.03698629097096" lon="11.375448369315018"><ele>656.0</ele><time>2026-04-10T12:02:38Z</time></trkpt><trkpt lat="44.037045483624006" lon="11.37554513947273"><ele>656.0</ele><time>2026-04-10T12:02:39Z</time></trkpt><trkpt lat="44.037072438661006" lon="11.375699303755061"><ele>656.0</ele><time>2026-04-10T12:02:40Z</time></trkpt><trkpt lat="44.03704131926058" lon="11.375888783379567"><ele>652.75</ele><time>2026-04-10T12:02:41Z</time></trkpt><trkpt lat="44.036991879325946" lon="11.376087311151318"><ele>649.5</ele><time>2026-04-10T12:02:42Z</time></trkpt><trkpt lat="44.03695289740574" lon="11.376265095938288"><ele>646.25</ele><time>2026-04-10T12:02:43Z</time></trkpt><trkpt lat="44.03692356712171" lon="11.376446863058638"><ele>643.0</ele><time>2026-04-10T12:02:44Z</time></trkpt><trkpt lat="44.036901560257746" lon="11.376608063963785"><ele>642.3333333333334</ele><time>2026-04-10T12:02:45Z</time></trkpt><trkpt lat="44.03687975676777" lon="11.376730099087792"><ele>641.6666666666667</ele><time>2026-04-10T12:02:46Z</time></trkpt><trkpt lat="44.03683139243077" lon="11.3768140942234"><ele>641.0</ele><time>2026-04-10T12:02:47Z</time></trkpt><trkpt lat="44.03675905353986" lon="11.376825576850138"><ele>640.3333333333334</ele><time>2026-04-10T12:02:48Z</time></trkpt><trkpt lat="44.036695802421235" lon="11.376755893494607"><ele>639.6666666666666</ele><time>2026-04-10T12:02:49Z</time></trkpt><trkpt lat="44.036674752299355" lon="11.376623264929327"><ele>639.0</ele><time>2026-04-10T12:02:50Z</time></trkpt><trkpt lat="44.03669819578819" lon="11.376458284307898"><ele>640.0</ele><time>2026-04-10T12:02:51Z</time></trkpt><trkpt lat="44.036730201357095" lon="11.376283246866917"><ele>641.0</ele><time>2026-04-10T12:02:52Z</time></trkpt><trkpt lat="44.036758301760116" lon="11.3761266756716"><ele>642.0</ele><time>2026-04-10T12:02:53Z</time></trkpt><trkpt lat="44.03678358192768" lon="11.375967821950123"><ele>643.0</ele><time>2026-04-10T12:02:54Z</time></trkpt><trkpt lat="44.0367817808317" lon="11.375821611009302"><ele>643.0</ele><time>2026-04-10T12:02:55Z</time></trkpt><trkpt lat="44.03673764278132" lon="11.375687906341511"><ele>643.0</ele><time>2026-04-10T12:02:56Z</time></trkpt><trkpt lat="44.03665090602842" lon="11.375574576559984"><ele>643.0</ele><time>2026-04-10T12:02:57Z</time></trkpt><trkpt lat="44.036534787601006" lon="11.375493390632396"><ele>643.0</ele><time>2026-04-10T12:02:58Z</time></trkpt><trkpt lat="44.03641274153756" lon="11.375414234376633"><ele>638.0</ele><time>2026-04-10T12:02:59Z</time></trkpt><trkpt lat="44.036302778312354" lon="11.375329834011044"><ele>633.0</ele><time>2026-04-10T12:03:00Z</time></trkpt><trkpt lat="44.03619810407039" lon="11.375237954921497"><ele>628.0</ele><time>2026-04-10T12:03:01Z</time></trkpt><trkpt lat="44.0361115023249" lon="11.375119379338114"><ele>623.0</ele><time>2026-04-10T12:03:02Z</time></trkpt><trkpt lat="44.036049541608826" lon="11.374980168553158"><ele>623.0</ele><time>2026-04-10T12:03:03Z</time></trkpt><trkpt lat="44.03601796551593" lon="11.374827159544243"><ele>623.0</ele><time>2026-04-10T12:03:04Z</time></trkpt><trkpt lat="44.036011830223295" lon="11.374668556284451"><ele>623.0</ele><time>2026-04-10T12:03:05Z</time></trkpt><trkpt lat="44.03601019727876" lon="11.374511166336017"><ele>623.0</ele><time>2026-04-10T12:03:06Z</time></trkpt><trkpt lat="44.03599938824658" lon="11.374356217925682"><ele>623.6</ele><time>2026-04-10T12:03:07Z</time></trkpt><trkpt lat="44.03594985497861" lon="11.374221766378357"><ele>624.1999999999999</ele><time>2026-04-10T12:03:08Z</time></trkpt><trkpt lat="44.03585813605009" lon="11.374129144117575"><ele>624.8</ele><time>2026-04-10T12:03:09Z</time></trkpt><trkpt lat="44.03575187233315" lon="11.374076053234198"><ele>625.4</ele><time>2026-04-10T12:03:10Z</time></trkpt><trkpt lat="44.03564768983716" lon="11.374079987721537"><ele>626.0</ele><time>2026-04-10T12:03:11Z</time></trkpt><trkpt lat="44.03555500844117" lon="11.374131017837305"><ele>625.5</ele><time>2026-04-10T12:03:12Z</time></trkpt><trkpt lat="44.035475489850874" lon="11.374238427666342"><ele>625.0</ele><time>2026-04-10T12:03:13.001Z</time></trkpt><trkpt lat="44.0354158936192" lon="11.374386651726594"><ele>624.5</ele><time>2026-04-10T12:03:14.001Z</time></trkpt><trkpt lat="44.035365492864614" lon="11.374548139950424"><ele>624.0</ele><time>2026-04-10T12:03:15.001Z</time></trkpt><trkpt lat="44.035301649427616" lon="11.374697590067642"><ele>624.0</ele><time>2026-04-10T12:03:16.001Z</time></trkpt><trkpt lat="44.035209837791164" lon="11.374816442714408"><ele>624.0</ele><time>2026-04-10T12:03:17.001Z</time></trkpt><trkpt lat="44.03511100242023" lon="11.374925782715131"><ele>624.0</ele><time>2026-04-10T12:03:18.001Z</time></trkpt><trkpt lat="44.03501038377009" lon="11.375039798080927"><ele>624.0</ele><time>2026-04-10T12:03:19.001Z</time></trkpt><trkpt lat="44.0349076175425" lon="11.375159436019347"><ele>623.5</ele><time>2026-04-10T12:03:20.001Z</time></trkpt><trkpt lat="44.034807737366016" lon="11.375278562205988"><ele>623.0</ele><time>2026-04-10T12:03:21.001Z</time></trkpt><trkpt lat="44.03470873096593" lon="11.375388044024215"><ele>622.5</ele><time>2026-04-10T12:03:22.001Z</time></trkpt><trkpt lat="44.034612285578085" lon="11.375501238077174"><ele>622.0</ele><time>2026-04-10T12:03:23.001Z</time></trkpt><trkpt lat="44.03451721548649" lon="11.3756118968061"><ele>619.75</ele><time>2026-04-10T12:03:24.001Z</time></trkpt><trkpt lat="44.03441128538569" lon="11.375714803193906"><ele>617.5</ele><time>2026-04-10T12:03:25.001Z</time></trkpt><trkpt lat="44.03430099171665" lon="11.375780001549787"><ele>615.25</ele><time>2026-04-10T12:03:26.001Z</time></trkpt><trkpt lat="44.034180503841824" lon="11.375809513217597"><ele>613.0</ele><time>2026-04-10T12:03:27.001Z</time></trkpt><trkpt lat="44.034062174808966" lon="11.375809577452182"><ele>611.5</ele><time>2026-04-10T12:03:28.001Z</time></trkpt><trkpt lat="44.033953775566125" lon="11.375772930995034"><ele>610.0</ele><time>2026-04-10T12:03:29.001Z</time></trkpt><trkpt lat="44.033845631910495" lon="11.375727508606303"><ele>608.5</ele><time>2026-04-10T12:03:30.001Z</time></trkpt><trkpt lat="44.03373238487786" lon="11.375684154222085"><ele>607.0</ele><time>2026-04-10T12:03:31.001Z</time></trkpt><trkpt lat="44.033622039710984" lon="11.37564177768292"><ele>607.0</ele><time>2026-04-10T12:03:32.001Z</time></trkpt><trkpt lat="44.03351104433019" lon="11.375604150074585"><ele>607.0</ele><time>2026-04-10T12:03:33.001Z</time></trkpt><trkpt lat="44.03339580506646" lon="11.37559912291389"><ele>607.0</ele><time>2026-04-10T12:03:34.001Z</time></trkpt><trkpt lat="44.03327685447534" lon="11.37564166676775"><ele>607.0</ele><time>2026-04-10T12:03:35.001Z</time></trkpt><trkpt lat="44.03316041201385" lon="11.375714573018316"><ele>608.0</ele><time>2026-04-10T12:03:36.001Z</time></trkpt><trkpt lat="44.033063255630026" lon="11.375803383763351"><ele>609.0</ele><time>2026-04-10T12:03:36.999Z</time></trkpt><trkpt lat="44.03297695842784" lon="11.375927071133157"><ele>610.0</ele><time>2026-04-10T12:03:37.999Z</time></trkpt><trkpt lat="44.03290692461163" lon="11.376073196198934"><ele>611.0</ele><time>2026-04-10T12:03:38.999Z</time></trkpt><trkpt lat="44.03286385610184" lon="11.37622752980944"><ele>607.75</ele><time>2026-04-10T12:03:39.999Z</time></trkpt><trkpt lat="44.03283948905069" lon="11.376389838304206"><ele>604.5</ele><time>2026-04-10T12:03:40.999Z</time></trkpt><trkpt lat="44.03279636894006" lon="11.376548944261856"><ele>601.25</ele><time>2026-04-10T12:03:41.999Z</time></trkpt><trkpt lat="44.03272144825291" lon="11.376676390678988"><ele>598.0</ele><time>2026-04-10T12:03:42.999Z</time></trkpt><trkpt lat="44.03261538337294" lon="11.376763798942159"><ele>598.0</ele><time>2026-04-10T12:03:43.999Z</time></trkpt><trkpt lat="44.03248699711653" lon="11.376825725072088"><ele>598.0</ele><time>2026-04-10T12:03:45Z</time></trkpt><trkpt lat="44.03234749388265" lon="11.376860520057335"><ele>598.0</ele><time>2026-04-10T12:03:46Z</time></trkpt><trkpt lat="44.032199837849134" lon="11.376880494153431"><ele>598.0</ele><time>2026-04-10T12:03:47Z</time></trkpt><trkpt lat="44.03206228714393" lon="11.376901928765426"><ele>597.0</ele><time>2026-04-10T12:03:48Z</time></trkpt><trkpt lat="44.03193186898467" lon="11.376918178456782"><ele>596.0</ele><time>2026-04-10T12:03:49Z</time></trkpt><trkpt lat="44.031798803150934" lon="11.376919970916644"><ele>595.0</ele><time>2026-04-10T12:03:50Z</time></trkpt><trkpt lat="44.03166126779375" lon="11.376915045198068"><ele>594.0</ele><time>2026-04-10T12:03:51Z</time></trkpt><trkpt lat="44.03152391593098" lon="11.37690918640592"><ele>594.0</ele><time>2026-04-10T12:03:52Z</time></trkpt><trkpt lat="44.03138499968565" lon="11.376894576454095"><ele>594.0</ele><time>2026-04-10T12:03:53Z</time></trkpt><trkpt lat="44.03124600645217" lon="11.376876404222093"><ele>594.0</ele><time>2026-04-10T12:03:54Z</time></trkpt><trkpt lat="44.03110722154139" lon="11.376869025619609"><ele>594.0</ele><time>2026-04-10T12:03:55Z</time></trkpt><trkpt lat="44.03096878132403" lon="11.376862857211924"><ele>594.0</ele><time>2026-04-10T12:03:56Z</time></trkpt><trkpt lat="44.03084355067379" lon="11.37687664658285"><ele>594.0</ele><time>2026-04-10T12:03:57Z</time></trkpt><trkpt lat="44.030747210520246" lon="11.376955663907145"><ele>594.0</ele><time>2026-04-10T12:03:58Z</time></trkpt><trkpt lat="44.0306879853254" lon="11.37709539827743"><ele>594.0</ele><time>2026-04-10T12:03:59Z</time></trkpt><trkpt lat="44.03066789673785" lon="11.377268223048366"><ele>591.25</ele><time>2026-04-10T12:04:00Z</time></trkpt><trkpt lat="44.030653434003355" lon="11.377432307868037"><ele>588.5</ele><time>2026-04-10T12:04:01Z</time></trkpt><trkpt lat="44.03060398416775" lon="11.377568789027068"><ele>585.75</ele><time>2026-04-10T12:04:02Z</time></trkpt><trkpt lat="44.030508146311796" lon="11.377665824693024"><ele>583.0</ele><time>2026-04-10T12:04:03Z</time></trkpt><trkpt lat="44.03038613256443" lon="11.377713514724379"><ele>583.0</ele><time>2026-04-10T12:04:04Z</time></trkpt><trkpt lat="44.03028296711617" lon="11.37777896928999"><ele>583.0</ele><time>2026-04-10T12:04:05Z</time></trkpt><trkpt lat="44.03021527576548" lon="11.377909593799497"><ele>583.0</ele><time>2026-04-10T12:04:06Z</time></trkpt><trkpt lat="44.03017199912883" lon="11.378057184414267"><ele>583.0</ele><time>2026-04-10T12:04:07Z</time></trkpt><trkpt lat="44.03011784274494" lon="11.378187523881973"><ele>580.5</ele><time>2026-04-10T12:04:08Z</time></trkpt><trkpt lat="44.030034953690375" lon="11.37828337867672"><ele>578.0</ele><time>2026-04-10T12:04:09Z</time></trkpt><trkpt lat="44.02992174499429" lon="11.378338946682813"><ele>575.5</ele><time>2026-04-10T12:04:10Z</time></trkpt><trkpt lat="44.02979694224531" lon="11.378348391550256"><ele>573.0</ele><time>2026-04-10T12:04:11Z</time></trkpt><trkpt lat="44.02967120368958" lon="11.378304117169987"><ele>571.75</ele><time>2026-04-10T12:04:12Z</time></trkpt><trkpt lat="44.029562769381506" lon="11.378233878261925"><ele>570.5</ele><time>2026-04-10T12:04:13Z</time></trkpt><trkpt lat="44.02945331335861" lon="11.378140642797801"><ele>569.25</ele><time>2026-04-10T12:04:14Z</time></trkpt><trkpt lat="44.029347137754925" lon="11.378034709040634"><ele>568.0</ele><time>2026-04-10T12:04:15Z</time></trkpt><trkpt lat="44.029260240279605" lon="11.377917970991234"><ele>568.0</ele><time>2026-04-10T12:04:16Z</time></trkpt><trkpt lat="44.02920927883" lon="11.37777109519222"><ele>568.0</ele><time>2026-04-10T12:04:17Z</time></trkpt><trkpt lat="44.02920651038287" lon="11.377607628038389"><ele>568.0</ele><time>2026-04-10T12:04:18Z</time></trkpt><trkpt lat="44.029232060557966" lon="11.377450510247483"><ele>568.0</ele><time>2026-04-10T12:04:19Z</time></trkpt><trkpt lat="44.029251178390886" lon="11.377301487785902"><ele>567.0</ele><time>2026-04-10T12:04:20Z</time></trkpt><trkpt lat="44.02921409421398" lon="11.377155006995727"><ele>566.0</ele><time>2026-04-10T12:04:21Z</time></trkpt><trkpt lat="44.02912536384186" lon="11.377036640004473"><ele>565.0</ele><time>2026-04-10T12:04:22Z</time></trkpt><trkpt lat="44.029007038100694" lon="11.376965869528947"><ele>564.0</ele><time>2026-04-10T12:04:23Z</time></trkpt><trkpt lat="44.028875126817326" lon="11.37693971007798"><ele>564.0</ele><time>2026-04-10T12:04:24Z</time></trkpt><trkpt lat="44.02874137179137" lon="11.376926128178848"><ele>564.0</ele><time>2026-04-10T12:04:25Z</time></trkpt><trkpt lat="44.02861191390876" lon="11.376877527323101"><ele>564.0</ele><time>2026-04-10T12:04:26Z</time></trkpt><trkpt lat="44.028491252152186" lon="11.376790711925704"><ele>564.0</ele><time>2026-04-10T12:04:27Z</time></trkpt><trkpt lat="44.02837335143754" lon="11.376689909868846"><ele>562.25</ele><time>2026-04-10T12:04:28Z</time></trkpt><trkpt lat="44.0282583270399" lon="11.376595803670694"><ele>560.5</ele><time>2026-04-10T12:04:29Z</time></trkpt><trkpt lat="44.0281396824285" lon="11.376499633538204"><ele>558.75</ele><time>2026-04-10T12:04:30Z</time></trkpt><trkpt lat="44.028028347405" lon="11.376406108600717"><ele>557.0</ele><time>2026-04-10T12:04:31Z</time></trkpt><trkpt lat="44.02792478946148" lon="11.376311353646436"><ele>557.0</ele><time>2026-04-10T12:04:32Z</time></trkpt><trkpt lat="44.02783252371785" lon="11.376206067444913"><ele>557.0</ele><time>2026-04-10T12:04:33Z</time></trkpt><trkpt lat="44.027753525719014" lon="11.376080602355549"><ele>557.0</ele><time>2026-04-10T12:04:34Z</time></trkpt><trkpt lat="44.027702397049275" lon="11.37593211077428"><ele>557.0</ele><time>2026-04-10T12:04:35Z</time></trkpt><trkpt lat="44.02766077390708" lon="11.37576932000071"><ele>557.0</ele><time>2026-04-10T12:04:36Z</time></trkpt><trkpt lat="44.02758644218508" lon="11.375623376341244"><ele>557.0</ele><time>2026-04-10T12:04:37Z</time></trkpt><trkpt lat="44.02746420350231" lon="11.375510683305086"><ele>557.0</ele><time>2026-04-10T12:04:38Z</time></trkpt><trkpt lat="44.02732091853321" lon="11.375414188888184"><ele>557.0</ele><time>2026-04-10T12:04:39Z</time></trkpt><trkpt lat="44.02717993475359" lon="11.375328354309394"><ele>552.6666666666666</ele><time>2026-04-10T12:04:40Z</time></trkpt><trkpt lat="44.02704772790395" lon="11.37524500103308"><ele>548.3333333333334</ele><time>2026-04-10T12:04:41Z</time></trkpt><trkpt lat="44.026914416257036" lon="11.375150751843783"><ele>544.0</ele><time>2026-04-10T12:04:42Z</time></trkpt><trkpt lat="44.026780560486195" lon="11.375041772115775"><ele>544.0</ele><time>2026-04-10T12:04:43Z</time></trkpt><trkpt lat="44.02665447619574" lon="11.374930470037322"><ele>544.0</ele><time>2026-04-10T12:04:44Z</time></trkpt><trkpt lat="44.02653263329813" lon="11.374818324463586"><ele>544.0</ele><time>2026-04-10T12:04:45Z</time></trkpt><trkpt lat="44.02640836101585" lon="11.374709890697865"><ele>544.0</ele><time>2026-04-10T12:04:46Z</time></trkpt><trkpt lat="44.02629604010441" lon="11.37458135838583"><ele>540.0</ele><time>2026-04-10T12:04:47Z</time></trkpt><trkpt lat="44.02618135394081" lon="11.37446168189621"><ele>536.0</ele><time>2026-04-10T12:04:48Z</time></trkpt><trkpt lat="44.02607925796752" lon="11.374321063844476"><ele>532.0</ele><time>2026-04-10T12:04:49Z</time></trkpt><trkpt lat="44.02600405672624" lon="11.374158563974271"><ele>528.0</ele><time>2026-04-10T12:04:50Z</time></trkpt><trkpt lat="44.025943428466434" lon="11.373991258101555"><ele>526.5</ele><time>2026-04-10T12:04:51Z</time></trkpt><trkpt lat="44.02590540419168" lon="11.37382884257841"><ele>525.0</ele><time>2026-04-10T12:04:52Z</time></trkpt><trkpt lat="44.02592519518175" lon="11.373653727658896"><ele>523.5</ele><time>2026-04-10T12:04:53Z</time></trkpt><trkpt lat="44.026012431270644" lon="11.373497694408819"><ele>522.0</ele><time>2026-04-10T12:04:54Z</time></trkpt><trkpt lat="44.026086033526965" lon="11.373314068846007"><ele>522.0</ele><time>2026-04-10T12:04:55Z</time></trkpt><trkpt lat="44.026172514800656" lon="11.373165581984422"><ele>522.0</ele><time>2026-04-10T12:04:56Z</time></trkpt><trkpt lat="44.026267672963286" lon="11.373032961956977"><ele>522.0</ele><time>2026-04-10T12:04:57Z</time></trkpt><trkpt lat="44.02638140387182" lon="11.372938189422381"><ele>522.0</ele><time>2026-04-10T12:04:58Z</time></trkpt><trkpt lat="44.02650730155295" lon="11.37289840252636"><ele>520.5</ele><time>2026-04-10T12:04:59Z</time></trkpt><trkpt lat="44.02663077532435" lon="11.372886755886718"><ele>519.0</ele><time>2026-04-10T12:05:00Z</time></trkpt><trkpt lat="44.02674320254545" lon="11.37285480433135"><ele>517.5</ele><time>2026-04-10T12:05:01Z</time></trkpt><trkpt lat="44.02683876756831" lon="11.372757502507724"><ele>516.0</ele><time>2026-04-10T12:05:02Z</time></trkpt><trkpt lat="44.02688509364237" lon="11.37259367920959"><ele>516.0</ele><time>2026-04-10T12:05:03Z</time></trkpt><trkpt lat="44.02694124551796" lon="11.37245678402215"><ele>516.0</ele><time>2026-04-10T12:05:04Z</time></trkpt><trkpt lat="44.02701833687083" lon="11.3723351098208"><ele>516.0</ele><time>2026-04-10T12:05:05Z</time></trkpt><trkpt lat="44.027123522366075" lon="11.372265628029053"><ele>516.0</ele><time>2026-04-10T12:05:06Z</time></trkpt><trkpt lat="44.02722927828839" lon="11.372215482742003"><ele>512.2</ele><time>2026-04-10T12:05:07Z</time></trkpt><trkpt lat="44.027313295245406" lon="11.372138461436256"><ele>508.40000000000003</ele><time>2026-04-10T12:05:08Z</time></trkpt><trkpt lat="44.02738013558807" lon="11.372020548838206"><ele>504.6</ele><time>2026-04-10T12:05:09Z</time></trkpt><trkpt lat="44.02736887215157" lon="11.371863907428573"><ele>500.8</ele><time>2026-04-10T12:05:10Z</time></trkpt><trkpt lat="44.02737088722864" lon="11.371719097093482"><ele>497.0</ele><time>2026-04-10T12:05:11Z</time></trkpt><trkpt lat="44.02738473061837" lon="11.371580311588682"><ele>497.0</ele><time>2026-04-10T12:05:12Z</time></trkpt><trkpt lat="44.02746743502177" lon="11.371473140618203"><ele>497.0</ele><time>2026-04-10T12:05:13Z</time></trkpt><trkpt lat="44.02756965943822" lon="11.371401642156078"><ele>497.0</ele><time>2026-04-10T12:05:14.001Z</time></trkpt><trkpt lat="44.027669907029605" lon="11.371330330838822"><ele>497.0</ele><time>2026-04-10T12:05:15.001Z</time></trkpt><trkpt lat="44.02777193632133" lon="11.371247976566272"><ele>494.5</ele><time>2026-04-10T12:05:16.001Z</time></trkpt><trkpt lat="44.0278725028293" lon="11.371160228719962"><ele>492.0</ele><time>2026-04-10T12:05:17.001Z</time></trkpt><trkpt lat="44.027969782865334" lon="11.37107684225801"><ele>489.5</ele><time>2026-04-10T12:05:18.001Z</time></trkpt><trkpt lat="44.028069814152914" lon="11.371002497296738"><ele>487.0</ele><time>2026-04-10T12:05:19.001Z</time></trkpt><trkpt lat="44.028173473908396" lon="11.370928636528758"><ele>487.0</ele><time>2026-04-10T12:05:20.001Z</time></trkpt><trkpt lat="44.028285926772064" lon="11.37087803647387"><ele>487.00000000000006</ele><time>2026-04-10T12:05:21.001Z</time></trkpt><trkpt lat="44.028398693042035" lon="11.370834735060065"><ele>487.00000000000006</ele><time>2026-04-10T12:05:22.001Z</time></trkpt><trkpt lat="44.02851020999185" lon="11.370812130256306"><ele>487.0</ele><time>2026-04-10T12:05:23.001Z</time></trkpt><trkpt lat="44.02860045026587" lon="11.3708093381287"><ele>487.0</ele><time>2026-04-10T12:05:24.001Z</time></trkpt><trkpt lat="44.02867360833271" lon="11.370809727371567"><ele>489.1666666666667</ele><time>2026-04-10T12:05:25.001Z</time></trkpt><trkpt lat="44.02874710877258" lon="11.370816309980473"><ele>491.33333333333337</ele><time>2026-04-10T12:05:26.001Z</time></trkpt><trkpt lat="44.028810465605886" lon="11.370824727381262"><ele>493.5</ele><time>2026-04-10T12:05:27.001Z</time></trkpt><trkpt lat="44.02891632418828" lon="11.370824992275175"><ele>495.66666666666663</ele><time>2026-04-10T12:05:29.001Z</time></trkpt><trkpt lat="44.028980023490774" lon="11.370737183672782"><ele>497.8333333333333</ele><time>2026-04-10T12:05:31.001Z</time></trkpt><trkpt lat="44.028958347465974" lon="11.370595080908162"><ele>500.0</ele><time>2026-04-10T12:05:33.001Z</time></trkpt><trkpt lat="44.02886108040926" lon="11.370522980038649"><ele>495.66666666666663</ele><time>2026-04-10T12:05:35.001Z</time></trkpt><trkpt lat="44.028791809224224" lon="11.370514773520854"><ele>491.3333333333333</ele><time>2026-04-10T12:05:36.001Z</time></trkpt><trkpt lat="44.02872567497043" lon="11.370509507051619"><ele>487.0</ele><time>2026-04-10T12:05:37.001Z</time></trkpt><trkpt lat="44.02865778334929" lon="11.370506113843243"><ele>482.66666666666663</ele><time>2026-04-10T12:05:38.001Z</time></trkpt><trkpt lat="44.02859253321092" lon="11.370501494992869"><ele>478.3333333333333</ele><time>2026-04-10T12:05:39.001Z</time></trkpt><trkpt lat="44.0284697474056" lon="11.370503488033837"><ele>474.0</ele><time>2026-04-10T12:05:41.001Z</time></trkpt><trkpt lat="44.028406559281315" lon="11.370506632173546"><ele>474.0</ele><time>2026-04-10T12:05:42.001Z</time></trkpt><trkpt lat="44.0283378298611" lon="11.370508585706773"><ele>474.0</ele><time>2026-04-10T12:05:43Z</time></trkpt><trkpt lat="44.028257771795595" lon="11.370512123775946"><ele>474.0</ele><time>2026-04-10T12:05:44Z</time></trkpt><trkpt lat="44.02816204474109" lon="11.37049451652243"><ele>474.0</ele><time>2026-04-10T12:05:45Z</time></trkpt><trkpt lat="44.02805137014351" lon="11.37051383035173"><ele>474.0</ele><time>2026-04-10T12:05:46Z</time></trkpt><trkpt lat="44.02793072228775" lon="11.37057325250794"><ele>475.33333333333337</ele><time>2026-04-10T12:05:47Z</time></trkpt><trkpt lat="44.027797376272204" lon="11.37063234768228"><ele>476.6666666666667</ele><time>2026-04-10T12:05:48Z</time></trkpt><trkpt lat="44.027638396254105" lon="11.370670537415005"><ele>478.0</ele><time>2026-04-10T12:05:49Z</time></trkpt><trkpt lat="44.02746561687429" lon="11.370691635259316"><ele>478.0</ele><time>2026-04-10T12:05:50Z</time></trkpt><trkpt lat="44.02728206174368" lon="11.37072280698921"><ele>478.0</ele><time>2026-04-10T12:05:51Z</time></trkpt><trkpt lat="44.02710532762104" lon="11.370726742242951"><ele>478.0</ele><time>2026-04-10T12:05:52Z</time></trkpt><trkpt lat="44.026931911380686" lon="11.37073745871946"><ele>478.0</ele><time>2026-04-10T12:05:53Z</time></trkpt><trkpt lat="44.02676603336284" lon="11.370759955924202"><ele>478.0</ele><time>2026-04-10T12:05:54Z</time></trkpt><trkpt lat="44.02662192493769" lon="11.370764465270941"><ele>478.0</ele><time>2026-04-10T12:05:55Z</time></trkpt><trkpt lat="44.026491782724115" lon="11.370725719340063"><ele>478.0</ele><time>2026-04-10T12:05:56Z</time></trkpt><trkpt lat="44.02636680198521" lon="11.370644092541388"><ele>476.75</ele><time>2026-04-10T12:05:57Z</time></trkpt><trkpt lat="44.02624592055521" lon="11.370545272035567"><ele>475.5</ele><time>2026-04-10T12:05:58Z</time></trkpt><trkpt lat="44.02612568105544" lon="11.370445536415174"><ele>474.25</ele><time>2026-04-10T12:05:59Z</time></trkpt><trkpt lat="44.026003162254284" lon="11.370345583470158"><ele>473.0</ele><time>2026-04-10T12:06:00Z</time></trkpt><trkpt lat="44.02588869478584" lon="11.370246011820921"><ele>470.0</ele><time>2026-04-10T12:06:01Z</time></trkpt><trkpt lat="44.025783534257506" lon="11.370157297911712"><ele>466.99999999999994</ele><time>2026-04-10T12:06:02Z</time></trkpt><trkpt lat="44.02569918955762" lon="11.370089508954946"><ele>463.99999999999994</ele><time>2026-04-10T12:06:03Z</time></trkpt><trkpt lat="44.025617836172856" lon="11.370027452686447"><ele>461.0</ele><time>2026-04-10T12:06:04Z</time></trkpt><trkpt lat="44.025528527071074" lon="11.369961286545674"><ele>458.0</ele><time>2026-04-10T12:06:05Z</time></trkpt><trkpt lat="44.02542525489153" lon="11.36989760897146"><ele>458.0</ele><time>2026-04-10T12:06:06Z</time></trkpt><trkpt lat="44.02530788378945" lon="11.369845786384317"><ele>458.0</ele><time>2026-04-10T12:06:07Z</time></trkpt><trkpt lat="44.025178288372715" lon="11.369805189887382"><ele>458.0</ele><time>2026-04-10T12:06:08Z</time></trkpt><trkpt lat="44.025050924537105" lon="11.369768230092086"><ele>458.0</ele><time>2026-04-10T12:06:09Z</time></trkpt><trkpt lat="44.02493035879456" lon="11.36973806019085"><ele>457.0</ele><time>2026-04-10T12:06:10Z</time></trkpt><trkpt lat="44.02481295227294" lon="11.36971409568177"><ele>456.0</ele><time>2026-04-10T12:06:11Z</time></trkpt><trkpt lat="44.02469618150788" lon="11.369695469214037"><ele>455.0</ele><time>2026-04-10T12:06:12Z</time></trkpt><trkpt lat="44.024580942717016" lon="11.369679681010075"><ele>454.0</ele><time>2026-04-10T12:06:13Z</time></trkpt><trkpt lat="44.02446633208676" lon="11.36966254029769"><ele>454.0</ele><time>2026-04-10T12:06:14Z</time></trkpt><trkpt lat="44.024352537572625" lon="11.369655287529437"><ele>454.0</ele><time>2026-04-10T12:06:15Z</time></trkpt><trkpt lat="44.02424189472605" lon="11.369687493917"><ele>454.0</ele><time>2026-04-10T12:06:16Z</time></trkpt><trkpt lat="44.024142419258084" lon="11.36975793164542"><ele>454.0</ele><time>2026-04-10T12:06:17Z</time></trkpt><trkpt lat="44.02405523446583" lon="11.369862671606278"><ele>451.75</ele><time>2026-04-10T12:06:18Z</time></trkpt><trkpt lat="44.02398291706483" lon="11.369989001795991"><ele>449.5</ele><time>2026-04-10T12:06:19Z</time></trkpt><trkpt lat="44.02390686737757" lon="11.37010976346296"><ele>447.25</ele><time>2026-04-10T12:06:20Z</time></trkpt><trkpt lat="44.02382107137711" lon="11.370212528857413"><ele>445.0</ele><time>2026-04-10T12:06:21Z</time></trkpt><trkpt lat="44.023717819021165" lon="11.370286743599543"><ele>445.0</ele><time>2026-04-10T12:06:22Z</time></trkpt><trkpt lat="44.02360801557655" lon="11.370336713221384"><ele>445.0</ele><time>2026-04-10T12:06:23Z</time></trkpt><trkpt lat="44.023496605305105" lon="11.37037213690123"><ele>445.0</ele><time>2026-04-10T12:06:24Z</time></trkpt><trkpt lat="44.02337940886709" lon="11.370404174923852"><ele>445.0</ele><time>2026-04-10T12:06:25Z</time></trkpt><trkpt lat="44.02325355185369" lon="11.370433546544794"><ele>443.0</ele><time>2026-04-10T12:06:26Z</time></trkpt><trkpt lat="44.02312607238512" lon="11.370466518375018"><ele>441.0</ele><time>2026-04-10T12:06:27Z</time></trkpt><trkpt lat="44.02300576703606" lon="11.370496443662216"><ele>439.0</ele><time>2026-04-10T12:06:28Z</time></trkpt><trkpt lat="44.022889402968154" lon="11.37052705408385"><ele>437.0</ele><time>2026-04-10T12:06:29Z</time></trkpt><trkpt lat="44.02277435356624" lon="11.370561263036958"><ele>435.20000000000005</ele><time>2026-04-10T12:06:30Z</time></trkpt><trkpt lat="44.02266271830418" lon="11.370589167205095"><ele>433.40000000000003</ele><time>2026-04-10T12:06:31Z</time></trkpt><trkpt lat="44.02255998260416" lon="11.370589144055772"><ele>431.59999999999997</ele><time>2026-04-10T12:06:32Z</time></trkpt><trkpt lat="44.022463380225915" lon="11.370557026438938"><ele>429.79999999999995</ele><time>2026-04-10T12:06:33Z</time></trkpt><trkpt lat="44.02237080469818" lon="11.37049483646476"><ele>428.0</ele><time>2026-04-10T12:06:34Z</time></trkpt><trkpt lat="44.02227558818415" lon="11.370428084222867"><ele>427.59999999999997</ele><time>2026-04-10T12:06:35Z</time></trkpt><trkpt lat="44.02217270326268" lon="11.37038790914992"><ele>427.19999999999993</ele><time>2026-04-10T12:06:36Z</time></trkpt><trkpt lat="44.022072503260986" lon="11.370388952616928"><ele>426.8</ele><time>2026-04-10T12:06:37Z</time></trkpt><trkpt lat="44.02199960387784" lon="11.370407232598652"><ele>426.4</ele><time>2026-04-10T12:06:38Z</time></trkpt><trkpt lat="44.021885201350045" lon="11.37044484325344"><ele>426.0</ele><time>2026-04-10T12:06:40Z</time></trkpt><trkpt lat="44.02181031035486" lon="11.370486702318763"><ele>424.3333333333333</ele><time>2026-04-10T12:06:42Z</time></trkpt><trkpt lat="44.02174708613429" lon="11.370545472918959"><ele>422.66666666666663</ele><time>2026-04-10T12:07:01.001Z</time></trkpt><trkpt lat="44.021647131981766" lon="11.370599211476359"><ele>421.0</ele><time>2026-04-10T12:07:03.001Z</time></trkpt><trkpt lat="44.02157078821139" lon="11.370631475453042"><ele>419.3333333333333</ele><time>2026-04-10T12:07:04.001Z</time></trkpt><trkpt lat="44.02148787495442" lon="11.370645869850147"><ele>417.66666666666663</ele><time>2026-04-10T12:07:05.001Z</time></trkpt><trkpt lat="44.02139670530254" lon="11.37063813049607"><ele>416.0</ele><time>2026-04-10T12:07:06.001Z</time></trkpt><trkpt lat="44.0213058791889" lon="11.370585171716522"><ele>415.8</ele><time>2026-04-10T12:07:07.001Z</time></trkpt><trkpt lat="44.0212037922016" lon="11.37054058307806"><ele>415.6</ele><time>2026-04-10T12:07:08.001Z</time></trkpt><trkpt lat="44.021106352920484" lon="11.37048537922511"><ele>415.4</ele><time>2026-04-10T12:07:09.001Z</time></trkpt><trkpt lat="44.021009583482225" lon="11.370421154335281"><ele>415.2</ele><time>2026-04-10T12:07:10.001Z</time></trkpt><trkpt lat="44.02091579248176" lon="11.370343725385036"><ele>415.0</ele><time>2026-04-10T12:07:11.001Z</time></trkpt><trkpt lat="44.020821050995146" lon="11.370266497095"><ele>412.2</ele><time>2026-04-10T12:07:12.001Z</time></trkpt><trkpt lat="44.02075069537726" lon="11.370143747436934"><ele>409.4</ele><time>2026-04-10T12:07:13.001Z</time></trkpt><trkpt lat="44.02067455263402" lon="11.37003840315894"><ele>406.6</ele><time>2026-04-10T12:07:14.001Z</time></trkpt><trkpt lat="44.020577610255486" lon="11.369969668485474"><ele>403.8</ele><time>2026-04-10T12:07:15.001Z</time></trkpt><trkpt lat="44.02046476919741" lon="11.369953510214852"><ele>401.0</ele><time>2026-04-10T12:07:16.001Z</time></trkpt><trkpt lat="44.020339252343426" lon="11.369976140194717"><ele>401.0</ele><time>2026-04-10T12:07:17.001Z</time></trkpt><trkpt lat="44.020210999533504" lon="11.370006734550582"><ele>401.0</ele><time>2026-04-10T12:07:18.001Z</time></trkpt><trkpt lat="44.02009344127948" lon="11.37003403658849"><ele>401.0</ele><time>2026-04-10T12:07:19.001Z</time></trkpt><trkpt lat="44.019973044346855" lon="11.370054817288615"><ele>401.0</ele><time>2026-04-10T12:07:20.001Z</time></trkpt><trkpt lat="44.019852043578965" lon="11.370077733617617"><ele>398.5</ele><time>2026-04-10T12:07:21.001Z</time></trkpt><trkpt lat="44.01972448542323" lon="11.370103357127"><ele>396.0</ele><time>2026-04-10T12:07:22.001Z</time></trkpt><trkpt lat="44.019595870011194" lon="11.370133173730117"><ele>393.5</ele><time>2026-04-10T12:07:23.001Z</time></trkpt><trkpt lat="44.01946257398925" lon="11.370175467978862"><ele>391.0</ele><time>2026-04-10T12:07:24.001Z</time></trkpt><trkpt lat="44.01933117442956" lon="11.370258048351214"><ele>391.0</ele><time>2026-04-10T12:07:25.001Z</time></trkpt><trkpt lat="44.01920616738565" lon="11.37037238219047"><ele>391.0</ele><time>2026-04-10T12:07:26.001Z</time></trkpt><trkpt lat="44.019095833110526" lon="11.370490017926603"><ele>391.0</ele><time>2026-04-10T12:07:27.001Z</time></trkpt><trkpt lat="44.0189807962415" lon="11.37059366746899"><ele>391.0</ele><time>2026-04-10T12:07:28.001Z</time></trkpt><trkpt lat="44.018853748695406" lon="11.3706684296381"><ele>392.25</ele><time>2026-04-10T12:07:29.001Z</time></trkpt><trkpt lat="44.01872670506556" lon="11.370735500138117"><ele>393.5</ele><time>2026-04-10T12:07:30.001Z</time></trkpt><trkpt lat="44.01860691450419" lon="11.37082640928491"><ele>394.75</ele><time>2026-04-10T12:07:31.001Z</time></trkpt><trkpt lat="44.01849371387138" lon="11.370927825343253"><ele>396.0</ele><time>2026-04-10T12:07:32.001Z</time></trkpt><trkpt lat="44.018370888351335" lon="11.370989749695017"><ele>392.75</ele><time>2026-04-10T12:07:33.001Z</time></trkpt><trkpt lat="44.01823830821816" lon="11.37098354229372"><ele>389.5</ele><time>2026-04-10T12:07:34.001Z</time></trkpt><trkpt lat="44.01811387875146" lon="11.370923948310596"><ele>386.25</ele><time>2026-04-10T12:07:35.001Z</time></trkpt><trkpt lat="44.01799672333628" lon="11.370825782797297"><ele>383.0</ele><time>2026-04-10T12:07:36.001Z</time></trkpt><trkpt lat="44.01787478877784" lon="11.37070990512477"><ele>383.0</ele><time>2026-04-10T12:07:37.001Z</time></trkpt><trkpt lat="44.01774753193534" lon="11.370596729855281"><ele>383.0</ele><time>2026-04-10T12:07:38.001Z</time></trkpt><trkpt lat="44.01762970267602" lon="11.37048755838827"><ele>383.0</ele><time>2026-04-10T12:07:39.001Z</time></trkpt><trkpt lat="44.01751351072677" lon="11.370383545033292"><ele>383.0</ele><time>2026-04-10T12:07:40.001Z</time></trkpt><trkpt lat="44.01739304133518" lon="11.370300189980574"><ele>383.5</ele><time>2026-04-10T12:07:41.001Z</time></trkpt><trkpt lat="44.017267639204356" lon="11.370269287580461"><ele>384.0</ele><time>2026-04-10T12:07:42.001Z</time></trkpt><trkpt lat="44.01714282054428" lon="11.370298632316405"><ele>384.5</ele><time>2026-04-10T12:07:43.001Z</time></trkpt><trkpt lat="44.01701161694777" lon="11.370371883353364"><ele>385.0</ele><time>2026-04-10T12:07:44.001Z</time></trkpt><trkpt lat="44.01687871849856" lon="11.370460115287337"><ele>385.25</ele><time>2026-04-10T12:07:45.001Z</time></trkpt><trkpt lat="44.016747784373145" lon="11.370540960946121"><ele>385.5</ele><time>2026-04-10T12:07:46.001Z</time></trkpt><trkpt lat="44.016624263314895" lon="11.370622004486052"><ele>385.75</ele><time>2026-04-10T12:07:47.001Z</time></trkpt><trkpt lat="44.016518333150955" lon="11.370730716233332"><ele>386.0</ele><time>2026-04-10T12:07:48.001Z</time></trkpt><trkpt lat="44.01643440289936" lon="11.370878938761505"><ele>386.5</ele><time>2026-04-10T12:07:49Z</time></trkpt><trkpt lat="44.016376931388564" lon="11.371036702005862"><ele>387.0</ele><time>2026-04-10T12:07:50Z</time></trkpt><trkpt lat="44.01630510174828" lon="11.371171565057953"><ele>387.5</ele><time>2026-04-10T12:07:51Z</time></trkpt><trkpt lat="44.01619932930683" lon="11.371237768057577"><ele>388.0</ele><time>2026-04-10T12:07:52Z</time></trkpt><trkpt lat="44.016076662896424" lon="11.371223853924981"><ele>388.0</ele><time>2026-04-10T12:07:53Z</time></trkpt><trkpt lat="44.01596754723647" lon="11.371153402662229"><ele>388.0</ele><time>2026-04-10T12:07:54Z</time></trkpt><trkpt lat="44.015859234145914" lon="11.371066225264846"><ele>388.0</ele><time>2026-04-10T12:07:55Z</time></trkpt><trkpt lat="44.01573729669932" lon="11.371018141574961"><ele>388.0</ele><time>2026-04-10T12:07:56Z</time></trkpt><trkpt lat="44.01560431272317" lon="11.371035283292901"><ele>386.5</ele><time>2026-04-10T12:07:57Z</time></trkpt><trkpt lat="44.01547883149552" lon="11.371109912844165"><ele>385.0</ele><time>2026-04-10T12:07:58Z</time></trkpt><trkpt lat="44.01536472947102" lon="11.371198623567345"><ele>383.5</ele><time>2026-04-10T12:07:59Z</time></trkpt><trkpt lat="44.01524488988689" lon="11.371261732581193"><ele>382.0</ele><time>2026-04-10T12:08:00Z</time></trkpt><trkpt lat="44.01511203396488" lon="11.371262799611454"><ele>379.25</ele><time>2026-04-10T12:08:01Z</time></trkpt><trkpt lat="44.01497552674764" lon="11.371226273486538"><ele>376.5</ele><time>2026-04-10T12:08:02Z</time></trkpt><trkpt lat="44.014844426016595" lon="11.37118809759969"><ele>373.75</ele><time>2026-04-10T12:08:03Z</time></trkpt><trkpt lat="44.01471496963896" lon="11.371154361570454"><ele>371.0</ele><time>2026-04-10T12:08:04Z</time></trkpt><trkpt lat="44.01458822887076" lon="11.371109526328464"><ele>371.0</ele><time>2026-04-10T12:08:05Z</time></trkpt><trkpt lat="44.01445847258505" lon="11.371037041389958"><ele>371.0</ele><time>2026-04-10T12:08:06Z</time></trkpt><trkpt lat="44.014331673249316" lon="11.370943188338153"><ele>371.0</ele><time>2026-04-10T12:08:07Z</time></trkpt><trkpt lat="44.0142099668395" lon="11.370839784901849"><ele>371.0</ele><time>2026-04-10T12:08:08Z</time></trkpt><trkpt lat="44.01408434244684" lon="11.370758563427573"><ele>370.0</ele><time>2026-04-10T12:08:09Z</time></trkpt><trkpt lat="44.013955541017616" lon="11.37069613420739"><ele>369.0</ele><time>2026-04-10T12:08:10Z</time></trkpt><trkpt lat="44.01382965177993" lon="11.370627175963055"><ele>368.0</ele><time>2026-04-10T12:08:11Z</time></trkpt><trkpt lat="44.01371707830378" lon="11.370522703517821"><ele>367.0</ele><time>2026-04-10T12:08:12Z</time></trkpt><trkpt lat="44.013622515313116" lon="11.370382628889992"><ele>366.66666666666663</ele><time>2026-04-10T12:08:13Z</time></trkpt><trkpt lat="44.01354412261216" lon="11.370215822698503"><ele>366.3333333333333</ele><time>2026-04-10T12:08:14Z</time></trkpt><trkpt lat="44.01347576949702" lon="11.37002187641292"><ele>366.0</ele><time>2026-04-10T12:08:15Z</time></trkpt><trkpt lat="44.013403588341234" lon="11.369827721670491"><ele>363.6666666666667</ele><time>2026-04-10T12:08:16Z</time></trkpt><trkpt lat="44.01333106411929" lon="11.369637559782909"><ele>361.33333333333337</ele><time>2026-04-10T12:08:17Z</time></trkpt><trkpt lat="44.01325817669813" lon="11.36945712857947"><ele>359.0</ele><time>2026-04-10T12:08:18Z</time></trkpt><trkpt lat="44.013169255978404" lon="11.369282467879541"><ele>357.33333333333337</ele><time>2026-04-10T12:08:19Z</time></trkpt><trkpt lat="44.01305786857963" lon="11.369127306614683"><ele>355.6666666666667</ele><time>2026-04-10T12:08:20Z</time></trkpt><trkpt lat="44.01294208962394" lon="11.36899760568236"><ele>354.0</ele><time>2026-04-10T12:08:21Z</time></trkpt><trkpt lat="44.012829491368976" lon="11.368872811689997"><ele>353.75</ele><time>2026-04-10T12:08:22Z</time></trkpt><trkpt lat="44.01272082524103" lon="11.368744713551239"><ele>353.5</ele><time>2026-04-10T12:08:23Z</time></trkpt><trkpt lat="44.01261577689179" lon="11.368622265403845"><ele>353.25</ele><time>2026-04-10T12:08:24Z</time></trkpt><trkpt lat="44.01250928769751" lon="11.368508191159009"><ele>353.0</ele><time>2026-04-10T12:08:25Z</time></trkpt><trkpt lat="44.012397226687206" lon="11.36840611723489"><ele>353.0</ele><time>2026-04-10T12:08:26Z</time></trkpt><trkpt lat="44.01227347118106" lon="11.36833945949245"><ele>353.0</ele><time>2026-04-10T12:08:27Z</time></trkpt><trkpt lat="44.01213812702174" lon="11.368324142103585"><ele>353.0</ele><time>2026-04-10T12:08:28Z</time></trkpt><trkpt lat="44.01199460564309" lon="11.36834547061738"><ele>353.0</ele><time>2026-04-10T12:08:29Z</time></trkpt><trkpt lat="44.01184952821994" lon="11.36837269623264"><ele>353.0</ele><time>2026-04-10T12:08:30Z</time></trkpt><trkpt lat="44.01171377073588" lon="11.368398924257203"><ele>353.0</ele><time>2026-04-10T12:08:31Z</time></trkpt><trkpt lat="44.01157866542142" lon="11.368423251981838"><ele>353.0</ele><time>2026-04-10T12:08:32Z</time></trkpt><trkpt lat="44.01144427834548" lon="11.368444040926283"><ele>353.0</ele><time>2026-04-10T12:08:33Z</time></trkpt><trkpt lat="44.011308832875876" lon="11.368456453609667"><ele>351.5</ele><time>2026-04-10T12:08:34Z</time></trkpt><trkpt lat="44.01117221966386" lon="11.368460170310405"><ele>350.0</ele><time>2026-04-10T12:08:35Z</time></trkpt><trkpt lat="44.0110348946582" lon="11.368442328272765"><ele>348.5</ele><time>2026-04-10T12:08:36Z</time></trkpt><trkpt lat="44.01088968781683" lon="11.36839030475204"><ele>347.0</ele><time>2026-04-10T12:08:37Z</time></trkpt><trkpt lat="44.01073794986517" lon="11.368308407534299"><ele>344.33333333333337</ele><time>2026-04-10T12:08:38Z</time></trkpt><trkpt lat="44.01058406613391" lon="11.368219862116504"><ele>341.6666666666667</ele><time>2026-04-10T12:08:39Z</time></trkpt><trkpt lat="44.01043690316842" lon="11.368136507955954"><ele>339.0</ele><time>2026-04-10T12:08:40Z</time></trkpt><trkpt lat="44.01029384143395" lon="11.36806150256034"><ele>339.0</ele><time>2026-04-10T12:08:41Z</time></trkpt><trkpt lat="44.01015486203044" lon="11.367989602773534"><ele>339.0</ele><time>2026-04-10T12:08:42Z</time></trkpt><trkpt lat="44.01001367503757" lon="11.367916328010965"><ele>339.0</ele><time>2026-04-10T12:08:43Z</time></trkpt><trkpt lat="44.009867398668554" lon="11.367840825834824"><ele>337.6666666666667</ele><time>2026-04-10T12:08:44Z</time></trkpt><trkpt lat="44.00972112614036" lon="11.367768505458674"><ele>336.33333333333337</ele><time>2026-04-10T12:08:45Z</time></trkpt><trkpt lat="44.009576512780264" lon="11.367697789396713"><ele>335.0</ele><time>2026-04-10T12:08:46Z</time></trkpt><trkpt lat="44.00943174795496" lon="11.367624010496158"><ele>335.0</ele><time>2026-04-10T12:08:47Z</time></trkpt><trkpt lat="44.00928791475657" lon="11.367551394752269"><ele>335.0</ele><time>2026-04-10T12:08:48Z</time></trkpt><trkpt lat="44.00914273776799" lon="11.367481651017693"><ele>335.0</ele><time>2026-04-10T12:08:49Z</time></trkpt><trkpt lat="44.008995888198264" lon="11.367410999960406"><ele>333.33333333333337</ele><time>2026-04-10T12:08:50Z</time></trkpt><trkpt lat="44.00884788848847" lon="11.367341194061495"><ele>331.6666666666667</ele><time>2026-04-10T12:08:51Z</time></trkpt><trkpt lat="44.00870020108888" lon="11.367274676401523"><ele>330.0</ele><time>2026-04-10T12:08:52Z</time></trkpt><trkpt lat="44.00854939104541" lon="11.367220251841351"><ele>330.3333333333333</ele><time>2026-04-10T12:08:53Z</time></trkpt><trkpt lat="44.00839477184179" lon="11.367186050132808"><ele>330.66666666666663</ele><time>2026-04-10T12:08:54Z</time></trkpt><trkpt lat="44.008236968237405" lon="11.36716848402961"><ele>331.0</ele><time>2026-04-10T12:08:55Z</time></trkpt><trkpt lat="44.008080094042356" lon="11.367164006473823"><ele>329.3333333333333</ele><time>2026-04-10T12:08:56Z</time></trkpt><trkpt lat="44.007919290978094" lon="11.36715992679564"><ele>327.6666666666667</ele><time>2026-04-10T12:08:57Z</time></trkpt><trkpt lat="44.00776106403728" lon="11.367151453682252"><ele>326.0</ele><time>2026-04-10T12:08:58.001Z</time></trkpt><trkpt lat="44.00760495897795" lon="11.367129576437073"><ele>326.0</ele><time>2026-04-10T12:08:59.001Z</time></trkpt><trkpt lat="44.00745453758743" lon="11.36708298400801"><ele>326.0</ele><time>2026-04-10T12:09:00.001Z</time></trkpt><trkpt lat="44.0073178708447" lon="11.367016580485057"><ele>326.0</ele><time>2026-04-10T12:09:01.001Z</time></trkpt><trkpt lat="44.00719220866358" lon="11.366923080905586"><ele>326.0</ele><time>2026-04-10T12:09:02.001Z</time></trkpt><trkpt lat="44.007066509821186" lon="11.366803072596968"><ele>326.0</ele><time>2026-04-10T12:09:03.001Z</time></trkpt><trkpt lat="44.00693728365558" lon="11.36667489381626"><ele>326.0</ele><time>2026-04-10T12:09:04.001Z</time></trkpt><trkpt lat="44.00680596877326" lon="11.366545686122345"><ele>326.0</ele><time>2026-04-10T12:09:05.001Z</time></trkpt><trkpt lat="44.00667469028126" lon="11.36641964969249"><ele>325.6666666666667</ele><time>2026-04-10T12:09:06.001Z</time></trkpt><trkpt lat="44.00654075259956" lon="11.36629980243502"><ele>325.3333333333333</ele><time>2026-04-10T12:09:07.001Z</time></trkpt><trkpt lat="44.00641169430893" lon="11.366186429578914"><ele>325.0</ele><time>2026-04-10T12:09:08.001Z</time></trkpt><trkpt lat="44.00629181210384" lon="11.366082639305176"><ele>325.0</ele><time>2026-04-10T12:09:09.001Z</time></trkpt><trkpt lat="44.00618892106555" lon="11.365996237128451"><ele>325.0</ele><time>2026-04-10T12:09:10.001Z</time></trkpt><trkpt lat="44.006107718291354" lon="11.365934434847768"><ele>325.0</ele><time>2026-04-10T12:09:11.001Z</time></trkpt><trkpt lat="44.00604253839302" lon="11.365887670857258"><ele>325.0</ele><time>2026-04-10T12:09:12.001Z</time></trkpt><trkpt lat="44.00599818274557" lon="11.365824128334387"><ele>325.0</ele><time>2026-04-10T12:09:13.001Z</time></trkpt><trkpt lat="44.00588096599645" lon="11.366031899213045"><ele>324.5</ele><time>2026-04-10T12:09:15.001Z</time></trkpt><trkpt lat="44.00582512201942" lon="11.366137671116494"><ele>324.0</ele><time>2026-04-10T12:09:16.001Z</time></trkpt><trkpt lat="44.005749309835586" lon="11.366245888196637"><ele>323.5</ele><time>2026-04-10T12:09:17.001Z</time></trkpt><trkpt lat="44.00567551797484" lon="11.366379610666497"><ele>323.0</ele><time>2026-04-10T12:09:18.001Z</time></trkpt><trkpt lat="44.00559385660515" lon="11.366514685824816"><ele>322.75</ele><time>2026-04-10T12:09:19.001Z</time></trkpt><trkpt lat="44.00550966606592" lon="11.366648991583224"><ele>322.5</ele><time>2026-04-10T12:09:20.001Z</time></trkpt><trkpt lat="44.005425778885574" lon="11.366785452666457"><ele>322.25</ele><time>2026-04-10T12:09:21.001Z</time></trkpt><trkpt lat="44.005346630976895" lon="11.366920419579587"><ele>322.0</ele><time>2026-04-10T12:09:22.001Z</time></trkpt><trkpt lat="44.00526751804098" lon="11.367049595914496"><ele>322.0</ele><time>2026-04-10T12:09:23.001Z</time></trkpt><trkpt lat="44.00518663171624" lon="11.367170667984817"><ele>322.0</ele><time>2026-04-10T12:09:24.001Z</time></trkpt><trkpt lat="44.00510563856736" lon="11.367286449652966"><ele>322.0</ele><time>2026-04-10T12:09:25.001Z</time></trkpt><trkpt lat="44.00502652592482" lon="11.367386219094975"><ele>322.0</ele><time>2026-04-10T12:09:26.001Z</time></trkpt><trkpt lat="44.0049465468684" lon="11.36747489367672"><ele>322.0</ele><time>2026-04-10T12:09:27.001Z</time></trkpt><trkpt lat="44.00486548455325" lon="11.367551670750112"><ele>321.8</ele><time>2026-04-10T12:09:28.001Z</time></trkpt><trkpt lat="44.00478583433275" lon="11.36761163423417"><ele>321.6</ele><time>2026-04-10T12:09:29.001Z</time></trkpt><trkpt lat="44.00470969797421" lon="11.367656330324442"><ele>321.40000000000003</ele><time>2026-04-10T12:09:30.001Z</time></trkpt><trkpt lat="44.004625895398085" lon="11.36770314813394"><ele>321.20000000000005</ele><time>2026-04-10T12:09:31.001Z</time></trkpt><trkpt lat="44.0045317541612" lon="11.367749495851386"><ele>321.0</ele><time>2026-04-10T12:09:32.001Z</time></trkpt><trkpt lat="44.0044247476675" lon="11.367786534214858"><ele>321.0</ele><time>2026-04-10T12:09:33.001Z</time></trkpt><trkpt lat="44.004310169795275" lon="11.367811914616128"><ele>321.0</ele><time>2026-04-10T12:09:34.001Z</time></trkpt><trkpt lat="44.00418933525616" lon="11.367822669983585"><ele>321.0</ele><time>2026-04-10T12:09:35.001Z</time></trkpt><trkpt lat="44.004061272236314" lon="11.367819082362155"><ele>321.0</ele><time>2026-04-10T12:09:36.001Z</time></trkpt><trkpt lat="44.00392795190515" lon="11.36780095778419"><ele>321.5</ele><time>2026-04-10T12:09:37.001Z</time></trkpt><trkpt lat="44.003791125425614" lon="11.367758587318717"><ele>322.0</ele><time>2026-04-10T12:09:38.001Z</time></trkpt><trkpt lat="44.003654436274466" lon="11.367697578590011"><ele>322.5</ele><time>2026-04-10T12:09:39.001Z</time></trkpt><trkpt lat="44.00351864879726" lon="11.367623663602894"><ele>323.0</ele><time>2026-04-10T12:09:40.001Z</time></trkpt><trkpt lat="44.00338064944955" lon="11.367541678695892"><ele>321.6666666666667</ele><time>2026-04-10T12:09:41.001Z</time></trkpt><trkpt lat="44.00323901352882" lon="11.367462586615071"><ele>320.3333333333333</ele><time>2026-04-10T12:09:42.001Z</time></trkpt><trkpt lat="44.00309237342689" lon="11.36738753330316"><ele>319.0</ele><time>2026-04-10T12:09:43.001Z</time></trkpt><trkpt lat="44.002941939231974" lon="11.367309326850831"><ele>319.0</ele><time>2026-04-10T12:09:44.001Z</time></trkpt><trkpt lat="44.00278542731142" lon="11.367225070450676"><ele>319.0</ele><time>2026-04-10T12:09:45.001Z</time></trkpt><trkpt lat="44.002621348266786" lon="11.36713972557163"><ele>319.0</ele><time>2026-04-10T12:09:46.001Z</time></trkpt><trkpt lat="44.002455370905835" lon="11.367050048705975"><ele>318.66666666666663</ele><time>2026-04-10T12:09:47.001Z</time></trkpt><trkpt lat="44.002286421838726" lon="11.36695909766189"><ele>318.3333333333333</ele><time>2026-04-10T12:09:48.001Z</time></trkpt><trkpt lat="44.002113941967565" lon="11.366868520141525"><ele>318.0</ele><time>2026-04-10T12:09:49.001Z</time></trkpt><trkpt lat="44.00194191001764" lon="11.366776259025686"><ele>318.0</ele><time>2026-04-10T12:09:50.001Z</time></trkpt><trkpt lat="44.00176655868754" lon="11.36668654376783"><ele>318.0</ele><time>2026-04-10T12:09:51.001Z</time></trkpt><trkpt lat="44.001588831457376" lon="11.366593891423546"><ele>318.0</ele><time>2026-04-10T12:09:52.001Z</time></trkpt><trkpt lat="44.001411440165924" lon="11.366498323974708"><ele>317.3333333333333</ele><time>2026-04-10T12:09:53.001Z</time></trkpt><trkpt lat="44.00123018522166" lon="11.366396340203591"><ele>316.66666666666663</ele><time>2026-04-10T12:09:54.001Z</time></trkpt><trkpt lat="44.00104457361432" lon="11.366299159362743"><ele>316.0</ele><time>2026-04-10T12:09:55Z</time></trkpt><trkpt lat="44.00086037506541" lon="11.366202203131563"><ele>315.3333333333333</ele><time>2026-04-10T12:09:56Z</time></trkpt><trkpt lat="44.00067762337367" lon="11.366105967096619"><ele>314.6666666666667</ele><time>2026-04-10T12:09:57Z</time></trkpt><trkpt lat="44.00049273374254" lon="11.366010893671405"><ele>314.0</ele><time>2026-04-10T12:09:58Z</time></trkpt><trkpt lat="44.000308346130616" lon="11.36591294999691"><ele>314.0</ele><time>2026-04-10T12:09:59Z</time></trkpt><trkpt lat="44.00012391147913" lon="11.36581464747282"><ele>314.0</ele><time>2026-04-10T12:10:00Z</time></trkpt><trkpt lat="43.999939744332195" lon="11.365715851127817"><ele>314.0</ele><time>2026-04-10T12:10:01Z</time></trkpt><trkpt lat="43.999759916912545" lon="11.36562066269881"><ele>313.33333333333337</ele><time>2026-04-10T12:10:02Z</time></trkpt><trkpt lat="43.99958043700764" lon="11.365526116190281"><ele>312.6666666666667</ele><time>2026-04-10T12:10:03Z</time></trkpt><trkpt lat="43.99940044308971" lon="11.365431273743349"><ele>312.0</ele><time>2026-04-10T12:10:04Z</time></trkpt><trkpt lat="43.99921765811231" lon="11.365340927189223"><ele>311.0</ele><time>2026-04-10T12:10:05Z</time></trkpt><trkpt lat="43.99903875804351" lon="11.365248164046507"><ele>310.0</ele><time>2026-04-10T12:10:06Z</time></trkpt><trkpt lat="43.99886222438842" lon="11.36514929924918"><ele>309.0</ele><time>2026-04-10T12:10:07Z</time></trkpt><trkpt lat="43.99867581814574" lon="11.365052350106616"><ele>309.0</ele><time>2026-04-10T12:10:08Z</time></trkpt><trkpt lat="43.99849574076723" lon="11.364954320485065"><ele>309.0</ele><time>2026-04-10T12:10:09Z</time></trkpt><trkpt lat="43.998313417347234" lon="11.364863693889529"><ele>309.0</ele><time>2026-04-10T12:10:10Z</time></trkpt><trkpt lat="43.998131417085226" lon="11.364764450436267"><ele>305.6666666666667</ele><time>2026-04-10T12:10:11Z</time></trkpt><trkpt lat="43.997950783038846" lon="11.36467397266903"><ele>302.33333333333337</ele><time>2026-04-10T12:10:12Z</time></trkpt><trkpt lat="43.99776923743955" lon="11.364586794745607"><ele>299.0</ele><time>2026-04-10T12:10:13Z</time></trkpt><trkpt lat="43.997590014310894" lon="11.364509417526095"><ele>302.33333333333337</ele><time>2026-04-10T12:10:14Z</time></trkpt><trkpt lat="43.997416370745384" lon="11.364430763124835"><ele>305.6666666666667</ele><time>2026-04-10T12:10:15Z</time></trkpt><trkpt lat="43.99723727281632" lon="11.364351546746018"><ele>309.0</ele><time>2026-04-10T12:10:16Z</time></trkpt><trkpt lat="43.997061828546485" lon="11.36427477994141"><ele>309.0</ele><time>2026-04-10T12:10:17Z</time></trkpt><trkpt lat="43.99689743310288" lon="11.36419774588311"><ele>309.0</ele><time>2026-04-10T12:10:18Z</time></trkpt><trkpt lat="43.996723676477274" lon="11.364127841859412"><ele>309.0</ele><time>2026-04-10T12:10:19Z</time></trkpt><trkpt lat="43.99655925679654" lon="11.364056982948876"><ele>309.6666666666667</ele><time>2026-04-10T12:10:20Z</time></trkpt><trkpt lat="43.99639320941534" lon="11.363987372036451"><ele>310.33333333333337</ele><time>2026-04-10T12:10:21Z</time></trkpt><trkpt lat="43.99622774234389" lon="11.363894291652906"><ele>311.0</ele><time>2026-04-10T12:10:22Z</time></trkpt><trkpt lat="43.9960530930372" lon="11.363835184776292"><ele>307.33333333333337</ele><time>2026-04-10T12:10:23Z</time></trkpt><trkpt lat="43.99588370924418" lon="11.363752547704602"><ele>303.6666666666667</ele><time>2026-04-10T12:10:24Z</time></trkpt><trkpt lat="43.995718594749356" lon="11.36367496621583"><ele>300.0</ele><time>2026-04-10T12:10:25Z</time></trkpt><trkpt lat="43.99554952393375" lon="11.363600897194848"><ele>300.0</ele><time>2026-04-10T12:10:26Z</time></trkpt><trkpt lat="43.99538093134722" lon="11.363527762833577"><ele>300.0</ele><time>2026-04-10T12:10:27Z</time></trkpt><trkpt lat="43.99504083954572" lon="11.363390206898654"><ele>299.6666666666667</ele><time>2026-04-10T12:10:29Z</time></trkpt><trkpt lat="43.99487555623346" lon="11.363333719613742"><ele>299.33333333333337</ele><time>2026-04-10T12:10:30Z</time></trkpt><trkpt lat="43.99471117433277" lon="11.363287460125044"><ele>299.0</ele><time>2026-04-10T12:10:31Z</time></trkpt><trkpt lat="43.994545620160835" lon="11.363247946857827"><ele>299.0</ele><time>2026-04-10T12:10:32Z</time></trkpt><trkpt lat="43.99438197962018" lon="11.363221822031097"><ele>299.0</ele><time>2026-04-10T12:10:33Z</time></trkpt><trkpt lat="43.99422045659494" lon="11.363205593453321"><ele>299.0</ele><time>2026-04-10T12:10:34Z</time></trkpt><trkpt lat="43.99406120425279" lon="11.363189975541529"><ele>297.0</ele><time>2026-04-10T12:10:35Z</time></trkpt><trkpt lat="43.993901976828184" lon="11.363178310124002"><ele>295.0</ele><time>2026-04-10T12:10:36Z</time></trkpt><trkpt lat="43.993745553605685" lon="11.36317237850644"><ele>293.0</ele><time>2026-04-10T12:10:37Z</time></trkpt><trkpt lat="43.99359792202609" lon="11.363165986318062"><ele>293.0</ele><time>2026-04-10T12:10:38Z</time></trkpt><trkpt lat="43.993455427381384" lon="11.363162929352773"><ele>293.0</ele><time>2026-04-10T12:10:39Z</time></trkpt><trkpt lat="43.99332480071585" lon="11.36316837813458"><ele>293.0</ele><time>2026-04-10T12:10:40Z</time></trkpt><trkpt lat="43.99320732743631" lon="11.36317715455296"><ele>293.0</ele><time>2026-04-10T12:10:41Z</time></trkpt><trkpt lat="43.99308893339937" lon="11.363165071369256"><ele>292.1666666666667</ele><time>2026-04-10T12:10:42Z</time></trkpt><trkpt lat="43.993004350821835" lon="11.363123292341326"><ele>291.33333333333337</ele><time>2026-04-10T12:10:43Z</time></trkpt><trkpt lat="43.99292667539658" lon="11.363072168101704"><ele>290.5</ele><time>2026-04-10T12:10:44Z</time></trkpt><trkpt lat="43.99285203749021" lon="11.36304119599082"><ele>289.6666666666667</ele><time>2026-04-10T12:10:45Z</time></trkpt><trkpt lat="43.99277694774565" lon="11.363060545044435"><ele>288.8333333333333</ele><time>2026-04-10T12:10:46Z</time></trkpt><trkpt lat="43.992714534821644" lon="11.363134870136744"><ele>288.0</ele><time>2026-04-10T12:10:47Z</time></trkpt><trkpt lat="43.99266144523847" lon="11.363261715818787"><ele>288.0</ele><time>2026-04-10T12:10:48Z</time></trkpt><trkpt lat="43.99262291195971" lon="11.36341477644053"><ele>288.0</ele><time>2026-04-10T12:10:49Z</time></trkpt><trkpt lat="43.992570111183774" lon="11.363550758126523"><ele>288.0</ele><time>2026-04-10T12:10:50Z</time></trkpt><trkpt lat="43.992496764901425" lon="11.363654946205026"><ele>288.0</ele><time>2026-04-10T12:10:51Z</time></trkpt><trkpt lat="43.992413549172056" lon="11.363764601644643"><ele>288.0</ele><time>2026-04-10T12:10:52Z</time></trkpt><trkpt lat="43.99233617918238" lon="11.363889234982246"><ele>285.75</ele><time>2026-04-10T12:10:53Z</time></trkpt><trkpt lat="43.99226049689288" lon="11.36402984253269"><ele>283.5</ele><time>2026-04-10T12:10:54Z</time></trkpt><trkpt lat="43.99219008388033" lon="11.364183869633854"><ele>281.25</ele><time>2026-04-10T12:10:55Z</time></trkpt><trkpt lat="43.99212400248366" lon="11.364352331099516"><ele>279.0</ele><time>2026-04-10T12:10:56.001Z</time></trkpt><trkpt lat="43.99205727610164" lon="11.364531678210744"><ele>275.6666666666667</ele><time>2026-04-10T12:10:57.001Z</time></trkpt><trkpt lat="43.991988723813186" lon="11.364716175535998"><ele>272.33333333333337</ele><time>2026-04-10T12:10:58.001Z</time></trkpt><trkpt lat="43.99191846953107" lon="11.364908080849736"><ele>269.0</ele><time>2026-04-10T12:10:59.001Z</time></trkpt><trkpt lat="43.991848974056445" lon="11.365097320599283"><ele>269.0</ele><time>2026-04-10T12:11:00.001Z</time></trkpt><trkpt lat="43.991780755850606" lon="11.365282945952009"><ele>269.0</ele><time>2026-04-10T12:11:01.001Z</time></trkpt><trkpt lat="43.99170858836164" lon="11.365480460521988"><ele>269.0</ele><time>2026-04-10T12:11:02.001Z</time></trkpt><trkpt lat="43.991633715342644" lon="11.365686679076532"><ele>266.0</ele><time>2026-04-10T12:11:03.001Z</time></trkpt><trkpt lat="43.991559484028144" lon="11.365893504519024"><ele>263.0</ele><time>2026-04-10T12:11:04.001Z</time></trkpt><trkpt lat="43.991484462291226" lon="11.366096292212976"><ele>260.0</ele><time>2026-04-10T12:11:05.001Z</time></trkpt><trkpt lat="43.9914078955219" lon="11.36629380062758"><ele>257.6666666666667</ele><time>2026-04-10T12:11:06.001Z</time></trkpt><trkpt lat="43.99133491039344" lon="11.366489224532533"><ele>255.33333333333331</ele><time>2026-04-10T12:11:07.001Z</time></trkpt><trkpt lat="43.99126449000439" lon="11.366682928252546"><ele>253.0</ele><time>2026-04-10T12:11:08.001Z</time></trkpt><trkpt lat="43.99119537751402" lon="11.366875378244481"><ele>253.0</ele><time>2026-04-10T12:11:09.001Z</time></trkpt><trkpt lat="43.99112739339161" lon="11.367071406141578"><ele>253.0</ele><time>2026-04-10T12:11:10.001Z</time></trkpt><trkpt lat="43.9910601178246" lon="11.36727778608781"><ele>253.0</ele><time>2026-04-10T12:11:11.001Z</time></trkpt><trkpt lat="43.99099467262163" lon="11.36748723910329"><ele>251.33333333333331</ele><time>2026-04-10T12:11:12.001Z</time></trkpt><trkpt lat="43.99092939983268" lon="11.367697556901035"><ele>249.66666666666669</ele><time>2026-04-10T12:11:13.001Z</time></trkpt><trkpt lat="43.99086522964526" lon="11.367912199327929"><ele>248.0</ele><time>2026-04-10T12:11:14.001Z</time></trkpt><trkpt lat="43.990803317382806" lon="11.368131172345258"><ele>246.75</ele><time>2026-04-10T12:11:15.001Z</time></trkpt><trkpt lat="43.99074514933215" lon="11.368336184178238"><ele>245.5</ele><time>2026-04-10T12:11:16.001Z</time></trkpt><trkpt lat="43.99069133051394" lon="11.368530824543061"><ele>244.25</ele><time>2026-04-10T12:11:17.001Z</time></trkpt><trkpt lat="43.99063880084356" lon="11.368712163907526"><ele>243.0</ele><time>2026-04-10T12:11:18.001Z</time></trkpt><trkpt lat="43.99059177463342" lon="11.368879051196451"><ele>243.0</ele><time>2026-04-10T12:11:19.001Z</time></trkpt><trkpt lat="43.990548079801016" lon="11.369045648950012"><ele>243.0</ele><time>2026-04-10T12:11:20.001Z</time></trkpt><trkpt lat="43.99050737574349" lon="11.369200631414113"><ele>243.0</ele><time>2026-04-10T12:11:21.001Z</time></trkpt><trkpt lat="43.99047502430952" lon="11.369330500272245"><ele>243.0</ele><time>2026-04-10T12:11:22.001Z</time></trkpt><trkpt lat="43.99044999175961" lon="11.369450449710671"><ele>243.0</ele><time>2026-04-10T12:11:23.001Z</time></trkpt><trkpt lat="43.99042892768662" lon="11.36955398905305"><ele>243.0</ele><time>2026-04-10T12:11:24.001Z</time></trkpt><trkpt lat="43.99041107196215" lon="11.369642916295945"><ele>243.0</ele><time>2026-04-10T12:11:25.001Z</time></trkpt><trkpt lat="43.99037323947608" lon="11.369791939521082"><ele>243.0</ele><time>2026-04-10T12:11:27.001Z</time></trkpt><trkpt lat="43.990337019525" lon="11.369872822091525"><ele>243.0</ele><time>2026-04-10T12:11:28.001Z</time></trkpt><trkpt lat="43.99032130837694" lon="11.370000152645558"><ele>243.0</ele><time>2026-04-10T12:11:30.001Z</time></trkpt><trkpt lat="43.990534408395185" lon="11.370192118715188"><ele>243.66666666666666</ele><time>2026-04-10T12:11:31.001Z</time></trkpt><trkpt lat="43.990599673319814" lon="11.3702104633482"><ele>244.33333333333331</ele><time>2026-04-10T12:11:32.001Z</time></trkpt><trkpt lat="43.99070310066489" lon="11.370240567188075"><ele>245.0</ele><time>2026-04-10T12:11:34.001Z</time></trkpt><trkpt lat="43.99068589115601" lon="11.370148606731176"><ele>245.66666666666666</ele><time>2026-04-10T12:13:25.001Z</time></trkpt><trkpt lat="43.990605976719046" lon="11.37009664011537"><ele>246.33333333333331</ele><time>2026-04-10T12:19:13Z</time></trkpt><trkpt lat="43.99052168730306" lon="11.370036348059408"><ele>247.0</ele><time>2026-04-10T12:19:15Z</time></trkpt><trkpt lat="43.990453986673934" lon="11.370003310312132"><ele>247.0</ele><time>2026-04-10T12:19:17.001Z</time></trkpt><trkpt lat="43.99035575036557" lon="11.370034030017687"><ele>247.0</ele><time>2026-04-10T12:19:22.001Z</time></trkpt><trkpt lat="43.99029545746059" lon="11.370101599383636"><ele>247.0</ele><time>2026-04-10T12:19:23.001Z</time></trkpt><trkpt lat="43.990225119936724" lon="11.370197751695533"><ele>247.0</ele><time>2026-04-10T12:19:24.001Z</time></trkpt><trkpt lat="43.990160065725284" lon="11.370329349782788"><ele>247.0</ele><time>2026-04-10T12:19:25.001Z</time></trkpt><trkpt lat="43.99009638670683" lon="11.370473706954511"><ele>249.0</ele><time>2026-04-10T12:19:26.001Z</time></trkpt><trkpt lat="43.99003513023458" lon="11.370590777696819"><ele>251.0</ele><time>2026-04-10T12:19:27.001Z</time></trkpt><trkpt lat="43.98997703774225" lon="11.370697730282764"><ele>253.0</ele><time>2026-04-10T12:19:28.001Z</time></trkpt><trkpt lat="43.98990661484394" lon="11.37080450177056"><ele>255.0</ele><time>2026-04-10T12:19:29.001Z</time></trkpt><trkpt lat="43.98983758156977" lon="11.370917232334884"><ele>257.0</ele><time>2026-04-10T12:19:30.001Z</time></trkpt><trkpt lat="43.98975864326234" lon="11.371013820490333"><ele>257.25</ele><time>2026-04-10T12:19:31.001Z</time></trkpt><trkpt lat="43.98967557250313" lon="11.37109451774962"><ele>257.5</ele><time>2026-04-10T12:19:32.001Z</time></trkpt><trkpt lat="43.98957848100026" lon="11.371190996810915"><ele>257.75</ele><time>2026-04-10T12:19:33.001Z</time></trkpt><trkpt lat="43.98947803758279" lon="11.371283080350432"><ele>258.0</ele><time>2026-04-10T12:19:34.001Z</time></trkpt><trkpt lat="43.9893575767363" lon="11.37137074646856"><ele>259.75</ele><time>2026-04-10T12:19:35.001Z</time></trkpt><trkpt lat="43.9892288245946" lon="11.371464806222143"><ele>261.5</ele><time>2026-04-10T12:19:36.001Z</time></trkpt><trkpt lat="43.98911369633634" lon="11.37155889887795"><ele>263.25</ele><time>2026-04-10T12:19:37.001Z</time></trkpt><trkpt lat="43.98900251805618" lon="11.371649300695077"><ele>265.0</ele><time>2026-04-10T12:19:38.001Z</time></trkpt><trkpt lat="43.98889298455957" lon="11.371745808248981"><ele>265.0</ele><time>2026-04-10T12:19:39.001Z</time></trkpt><trkpt lat="43.98878911694351" lon="11.371851690569459"><ele>265.0</ele><time>2026-04-10T12:19:40.001Z</time></trkpt><trkpt lat="43.98868556345215" lon="11.371972782049909"><ele>265.0</ele><time>2026-04-10T12:19:41.001Z</time></trkpt><trkpt lat="43.98858123209342" lon="11.37211281274291"><ele>265.0</ele><time>2026-04-10T12:19:42.001Z</time></trkpt><trkpt lat="43.98848426554758" lon="11.372271822851518"><ele>266.0</ele><time>2026-04-10T12:19:43.001Z</time></trkpt><trkpt lat="43.98837473524907" lon="11.372452785793381"><ele>267.0</ele><time>2026-04-10T12:19:44.001Z</time></trkpt><trkpt lat="43.98826379230104" lon="11.37264904115743"><ele>268.0</ele><time>2026-04-10T12:19:45.001Z</time></trkpt><trkpt lat="43.98814958763917" lon="11.372845509595361"><ele>263.3333333333333</ele><time>2026-04-10T12:19:46.001Z</time></trkpt><trkpt lat="43.98803403341743" lon="11.373040254940875"><ele>258.6666666666667</ele><time>2026-04-10T12:19:47.001Z</time></trkpt><trkpt lat="43.987915707470194" lon="11.373232995556885"><ele>254.0</ele><time>2026-04-10T12:19:48.001Z</time></trkpt><trkpt lat="43.9877945189535" lon="11.373431471201046"><ele>254.0</ele><time>2026-04-10T12:19:49.001Z</time></trkpt><trkpt lat="43.987671940275405" lon="11.373632812721414"><ele>254.0</ele><time>2026-04-10T12:19:50.001Z</time></trkpt><trkpt lat="43.98755098504202" lon="11.373839204163085"><ele>254.0</ele><time>2026-04-10T12:19:51.001Z</time></trkpt><trkpt lat="43.98743209749047" lon="11.374052506913237"><ele>253.33333333333334</ele><time>2026-04-10T12:19:52.001Z</time></trkpt><trkpt lat="43.987315222075146" lon="11.37426514198758"><ele>252.66666666666669</ele><time>2026-04-10T12:19:53.001Z</time></trkpt><trkpt lat="43.98720217502044" lon="11.374472868272534"><ele>252.0</ele><time>2026-04-10T12:19:54.001Z</time></trkpt><trkpt lat="43.98709440014925" lon="11.37467917490763"><ele>252.33333333333331</ele><time>2026-04-10T12:19:55.001Z</time></trkpt><trkpt lat="43.98699243191274" lon="11.374875873795734"><ele>252.66666666666666</ele><time>2026-04-10T12:19:56.001Z</time></trkpt><trkpt lat="43.986888691541644" lon="11.375072944850583"><ele>253.0</ele><time>2026-04-10T12:19:57.001Z</time></trkpt><trkpt lat="43.98678658763641" lon="11.375265700565425"><ele>253.0</ele><time>2026-04-10T12:19:58.001Z</time></trkpt><trkpt lat="43.986686864071196" lon="11.375456814551095"><ele>253.0</ele><time>2026-04-10T12:19:59.001Z</time></trkpt><trkpt lat="43.98658942712787" lon="11.37565026194197"><ele>253.0</ele><time>2026-04-10T12:20:00.001Z</time></trkpt><trkpt lat="43.986493431105814" lon="11.375843324810353"><ele>252.0</ele><time>2026-04-10T12:20:01.001Z</time></trkpt><trkpt lat="43.98640271627439" lon="11.376029025736544"><ele>251.0</ele><time>2026-04-10T12:20:02.001Z</time></trkpt><trkpt lat="43.98631941698211" lon="11.376213778575252"><ele>250.0</ele><time>2026-04-10T12:20:03.001Z</time></trkpt><trkpt lat="43.9862461643525" lon="11.376399953129319"><ele>249.66666666666666</ele><time>2026-04-10T12:20:04.001Z</time></trkpt><trkpt lat="43.98618584544864" lon="11.376595401149686"><ele>249.33333333333331</ele><time>2026-04-10T12:20:05.001Z</time></trkpt><trkpt lat="43.98615158563072" lon="11.376802930506347"><ele>249.0</ele><time>2026-04-10T12:20:06.001Z</time></trkpt><trkpt lat="43.98614614195496" lon="11.377013612575306"><ele>248.5</ele><time>2026-04-10T12:20:07.001Z</time></trkpt><trkpt lat="43.98615532794895" lon="11.377209705408916"><ele>248.0</ele><time>2026-04-10T12:20:08.001Z</time></trkpt><trkpt lat="43.98616124586346" lon="11.37739282828147"><ele>247.5</ele><time>2026-04-10T12:20:09.001Z</time></trkpt><trkpt lat="43.98616339826544" lon="11.377567114814038"><ele>247.0</ele><time>2026-04-10T12:20:10.001Z</time></trkpt><trkpt lat="43.986158666297136" lon="11.377717361179844"><ele>247.0</ele><time>2026-04-10T12:20:11.001Z</time></trkpt><trkpt lat="43.98613215260336" lon="11.377844359846456"><ele>247.0</ele><time>2026-04-10T12:20:12.001Z</time></trkpt><trkpt lat="43.986080262326" lon="11.377939790079555"><ele>247.0</ele><time>2026-04-10T12:20:13.001Z</time></trkpt><trkpt lat="43.98600969243942" lon="11.37799859459527"><ele>247.0</ele><time>2026-04-10T12:20:14.001Z</time></trkpt><trkpt lat="43.98592381393739" lon="11.378051185442626"><ele>247.0</ele><time>2026-04-10T12:20:15.001Z</time></trkpt><trkpt lat="43.98580366982298" lon="11.378027922746027"><ele>247.75</ele><time>2026-04-10T12:20:16.001Z</time></trkpt><trkpt lat="43.985679684168545" lon="11.378003688411988"><ele>248.5</ele><time>2026-04-10T12:20:17.001Z</time></trkpt><trkpt lat="43.985549134957765" lon="11.3779625599635"><ele>249.25</ele><time>2026-04-10T12:20:18.001Z</time></trkpt><trkpt lat="43.98541246092482" lon="11.377902202485863"><ele>250.0</ele><time>2026-04-10T12:20:19.001Z</time></trkpt><trkpt lat="43.985272788144705" lon="11.377821287251978"><ele>250.0</ele><time>2026-04-10T12:20:20.001Z</time></trkpt><trkpt lat="43.98513360872013" lon="11.3777198182004"><ele>250.0</ele><time>2026-04-10T12:20:21.001Z</time></trkpt><trkpt lat="43.98499404331241" lon="11.377598568821638"><ele>250.0</ele><time>2026-04-10T12:20:22.001Z</time></trkpt><trkpt lat="43.98485299031209" lon="11.377460087240133"><ele>249.66666666666666</ele><time>2026-04-10T12:20:23.001Z</time></trkpt><trkpt lat="43.984708637225474" lon="11.377309509606546"><ele>249.33333333333331</ele><time>2026-04-10T12:20:24.001Z</time></trkpt><trkpt lat="43.98456172570068" lon="11.377156282098758"><ele>249.0</ele><time>2026-04-10T12:20:25Z</time></trkpt><trkpt lat="43.9844096682697" lon="11.376999665905739"><ele>249.0</ele><time>2026-04-10T12:20:26Z</time></trkpt><trkpt lat="43.98425284702437" lon="11.37684679653942"><ele>249.0</ele><time>2026-04-10T12:20:27Z</time></trkpt><trkpt lat="43.98409340124599" lon="11.376693166678523"><ele>249.0</ele><time>2026-04-10T12:20:28Z</time></trkpt><trkpt lat="43.983934320542474" lon="11.37653220465493"><ele>249.0</ele><time>2026-04-10T12:20:29Z</time></trkpt><trkpt lat="43.983779412763056" lon="11.376367152759267"><ele>249.0</ele><time>2026-04-10T12:20:30Z</time></trkpt><trkpt lat="43.98361997657312" lon="11.376207375833866"><ele>249.0</ele><time>2026-04-10T12:20:31Z</time></trkpt><trkpt lat="43.983451945066165" lon="11.376058320398329"><ele>248.33333333333331</ele><time>2026-04-10T12:20:32Z</time></trkpt><trkpt lat="43.98327694840047" lon="11.375927756699191"><ele>247.66666666666666</ele><time>2026-04-10T12:20:33Z</time></trkpt><trkpt lat="43.98309463126074" lon="11.375809839204846"><ele>247.0</ele><time>2026-04-10T12:20:34Z</time></trkpt><trkpt lat="43.982914195631196" lon="11.375703036191915"><ele>247.0</ele><time>2026-04-10T12:20:35Z</time></trkpt><trkpt lat="43.98273612760093" lon="11.375593981994154"><ele>247.0</ele><time>2026-04-10T12:20:36Z</time></trkpt><trkpt lat="43.98255948640645" lon="11.375480022151823"><ele>247.0</ele><time>2026-04-10T12:20:37Z</time></trkpt><trkpt lat="43.98238128793406" lon="11.37536496980655"><ele>246.66666666666666</ele><time>2026-04-10T12:20:38Z</time></trkpt><trkpt lat="43.98220081781659" lon="11.375251867512336"><ele>246.33333333333331</ele><time>2026-04-10T12:20:39Z</time></trkpt><trkpt lat="43.98202020872806" lon="11.375141916951943"><ele>246.0</ele><time>2026-04-10T12:20:40Z</time></trkpt><trkpt lat="43.98183915512125" lon="11.375023878480754"><ele>245.0</ele><time>2026-04-10T12:20:41Z</time></trkpt><trkpt lat="43.98166120085909" lon="11.374889980685733"><ele>244.0</ele><time>2026-04-10T12:20:42Z</time></trkpt><trkpt lat="43.98149151617129" lon="11.374744175026208"><ele>243.0</ele><time>2026-04-10T12:20:43Z</time></trkpt><trkpt lat="43.98132133311189" lon="11.374594917538374"><ele>243.0</ele><time>2026-04-10T12:20:44Z</time></trkpt><trkpt lat="43.981153262849595" lon="11.374439297594765"><ele>243.0</ele><time>2026-04-10T12:20:45Z</time></trkpt><trkpt lat="43.98098378084389" lon="11.374278606278311"><ele>243.0</ele><time>2026-04-10T12:20:46Z</time></trkpt><trkpt lat="43.98081809473431" lon="11.374118917101844"><ele>243.33333333333331</ele><time>2026-04-10T12:20:47Z</time></trkpt><trkpt lat="43.98065224353649" lon="11.373965987501569"><ele>243.66666666666666</ele><time>2026-04-10T12:20:48Z</time></trkpt><trkpt lat="43.98048478431764" lon="11.373812897008946"><ele>244.0</ele><time>2026-04-10T12:20:49Z</time></trkpt><trkpt lat="43.980314951152515" lon="11.373660699654643"><ele>243.0</ele><time>2026-04-10T12:20:50Z</time></trkpt><trkpt lat="43.98014286782883" lon="11.37350978402295"><ele>242.0</ele><time>2026-04-10T12:20:51Z</time></trkpt><trkpt lat="43.979973606301684" lon="11.373356284017465"><ele>241.0</ele><time>2026-04-10T12:20:52Z</time></trkpt><trkpt lat="43.979803063538704" lon="11.373205867103591"><ele>240.33333333333331</ele><time>2026-04-10T12:20:53Z</time></trkpt><trkpt lat="43.979632509550655" lon="11.37305389221483"><ele>239.66666666666669</ele><time>2026-04-10T12:20:54Z</time></trkpt><trkpt lat="43.97946485581817" lon="11.372902999507192"><ele>239.0</ele><time>2026-04-10T12:20:55Z</time></trkpt><trkpt lat="43.979297824288956" lon="11.37275154312737"><ele>238.33333333333334</ele><time>2026-04-10T12:20:56Z</time></trkpt><trkpt lat="43.97913093254429" lon="11.372599819277218"><ele>237.66666666666669</ele><time>2026-04-10T12:20:57Z</time></trkpt><trkpt lat="43.978964066632784" lon="11.37244866639666"><ele>237.0</ele><time>2026-04-10T12:20:58Z</time></trkpt><trkpt lat="43.9787950466004" lon="11.372296084237194"><ele>237.0</ele><time>2026-04-10T12:20:59Z</time></trkpt><trkpt lat="43.97862738040388" lon="11.37214347126502"><ele>237.0</ele><time>2026-04-10T12:21:00Z</time></trkpt><trkpt lat="43.97845708921102" lon="11.371989795070675"><ele>237.0</ele><time>2026-04-10T12:21:01Z</time></trkpt><trkpt lat="43.978286589684906" lon="11.371840470812884"><ele>236.66666666666669</ele><time>2026-04-10T12:21:02Z</time></trkpt><trkpt lat="43.97811347404461" lon="11.371689618120216"><ele>236.33333333333334</ele><time>2026-04-10T12:21:03Z</time></trkpt><trkpt lat="43.97793964521147" lon="11.37153558407465"><ele>236.0</ele><time>2026-04-10T12:21:04Z</time></trkpt><trkpt lat="43.97776407823397" lon="11.371377620274421"><ele>235.66666666666669</ele><time>2026-04-10T12:21:05Z</time></trkpt><trkpt lat="43.97758488933432" lon="11.371212256886528"><ele>235.33333333333331</ele><time>2026-04-10T12:21:06Z</time></trkpt><trkpt lat="43.97740784194809" lon="11.371044583179547"><ele>235.0</ele><time>2026-04-10T12:21:07Z</time></trkpt><trkpt lat="43.97723380105374" lon="11.370868174143743"><ele>235.0</ele><time>2026-04-10T12:21:08Z</time></trkpt><trkpt lat="43.97705695723986" lon="11.370687019566082"><ele>235.0</ele><time>2026-04-10T12:21:09Z</time></trkpt><trkpt lat="43.97688331135126" lon="11.37050926365156"><ele>235.0</ele><time>2026-04-10T12:21:10Z</time></trkpt><trkpt lat="43.97671367080906" lon="11.37033686030372"><ele>234.33333333333331</ele><time>2026-04-10T12:21:11Z</time></trkpt><trkpt lat="43.976544032866265" lon="11.370166138442722"><ele>233.66666666666669</ele><time>2026-04-10T12:21:12Z</time></trkpt><trkpt lat="43.97637334879275" lon="11.370001800140928"><ele>233.0</ele><time>2026-04-10T12:21:13Z</time></trkpt><trkpt lat="43.97619847707742" lon="11.369851481551438"><ele>233.0</ele><time>2026-04-10T12:21:14Z</time></trkpt><trkpt lat="43.97601593415603" lon="11.369721186938529"><ele>233.0</ele><time>2026-04-10T12:21:15Z</time></trkpt><trkpt lat="43.97582820266044" lon="11.369608940136333"><ele>233.0</ele><time>2026-04-10T12:21:16Z</time></trkpt><trkpt lat="43.975635473217224" lon="11.369509458924002"><ele>232.0</ele><time>2026-04-10T12:21:17Z</time></trkpt><trkpt lat="43.97544377481421" lon="11.369405933684803"><ele>231.0</ele><time>2026-04-10T12:21:18Z</time></trkpt><trkpt lat="43.97525114906191" lon="11.369303644333382"><ele>230.0</ele><time>2026-04-10T12:21:19Z</time></trkpt><trkpt lat="43.97506116372043" lon="11.369197985281506"><ele>230.0</ele><time>2026-04-10T12:21:20Z</time></trkpt><trkpt lat="43.974872938562086" lon="11.369092508977497"><ele>230.0</ele><time>2026-04-10T12:21:21Z</time></trkpt><trkpt lat="43.97468471056912" lon="11.368986379705783"><ele>230.0</ele><time>2026-04-10T12:21:22Z</time></trkpt><trkpt lat="43.974496443400454" lon="11.368880726189293"><ele>229.33333333333334</ele><time>2026-04-10T12:21:23Z</time></trkpt><trkpt lat="43.97430998293451" lon="11.36877570004605"><ele>228.66666666666669</ele><time>2026-04-10T12:21:24Z</time></trkpt><trkpt lat="43.97412589927337" lon="11.368672763222383"><ele>228.0</ele><time>2026-04-10T12:21:25Z</time></trkpt><trkpt lat="43.9739468384781" lon="11.36857165908986"><ele>228.0</ele><time>2026-04-10T12:21:26Z</time></trkpt><trkpt lat="43.97377849600776" lon="11.36847575004483"><ele>228.0</ele><time>2026-04-10T12:21:27Z</time></trkpt><trkpt lat="43.973615820785035" lon="11.368384207444324"><ele>228.0</ele><time>2026-04-10T12:21:28Z</time></trkpt><trkpt lat="43.97346277062481" lon="11.36830096488715"><ele>228.66666666666669</ele><time>2026-04-10T12:21:29Z</time></trkpt><trkpt lat="43.97331418688425" lon="11.36822228775421"><ele>229.33333333333334</ele><time>2026-04-10T12:21:30Z</time></trkpt><trkpt lat="43.97316906739259" lon="11.36814170262699"><ele>230.0</ele><time>2026-04-10T12:21:31Z</time></trkpt><trkpt lat="43.973029997317845" lon="11.368063845388287"><ele>229.25</ele><time>2026-04-10T12:21:32Z</time></trkpt><trkpt lat="43.97289631936969" lon="11.367991529337779"><ele>228.5</ele><time>2026-04-10T12:21:33Z</time></trkpt><trkpt lat="43.972766941236145" lon="11.367922645223997"><ele>227.75</ele><time>2026-04-10T12:21:34Z</time></trkpt><trkpt lat="43.9726343621627" lon="11.367843097323341"><ele>227.0</ele><time>2026-04-10T12:21:35Z</time></trkpt><trkpt lat="43.97250600740694" lon="11.367745261974054"><ele>227.0</ele><time>2026-04-10T12:21:36Z</time></trkpt><trkpt lat="43.97237788368723" lon="11.367639762122304"><ele>227.0</ele><time>2026-04-10T12:21:37Z</time></trkpt><trkpt lat="43.97225475838297" lon="11.367516838075218"><ele>227.0</ele><time>2026-04-10T12:21:38Z</time></trkpt><trkpt lat="43.97214185300953" lon="11.36737368468712"><ele>227.0</ele><time>2026-04-10T12:21:39Z</time></trkpt><trkpt lat="43.97204105153067" lon="11.367220877937843"><ele>227.0</ele><time>2026-04-10T12:21:40Z</time></trkpt><trkpt lat="43.97195247353661" lon="11.367060478027456"><ele>227.0</ele><time>2026-04-10T12:21:41Z</time></trkpt><trkpt lat="43.97187374931554" lon="11.366890584455067"><ele>227.0</ele><time>2026-04-10T12:21:42Z</time></trkpt><trkpt lat="43.971806331737895" lon="11.366709322546763"><ele>226.25</ele><time>2026-04-10T12:21:43Z</time></trkpt><trkpt lat="43.971744752651155" lon="11.366522641123032"><ele>225.5</ele><time>2026-04-10T12:21:44Z</time></trkpt><trkpt lat="43.971682400001214" lon="11.36633836624043"><ele>224.75</ele><time>2026-04-10T12:21:45Z</time></trkpt><trkpt lat="43.97160853445932" lon="11.366157387569627"><ele>224.0</ele><time>2026-04-10T12:21:46.001Z</time></trkpt><trkpt lat="43.97151418657736" lon="11.365993038194313"><ele>224.0</ele><time>2026-04-10T12:21:47.001Z</time></trkpt><trkpt lat="43.97139573037234" lon="11.365841989438527"><ele>224.0</ele><time>2026-04-10T12:21:48.001Z</time></trkpt><trkpt lat="43.97126453903803" lon="11.365708081677578"><ele>224.0</ele><time>2026-04-10T12:21:49.001Z</time></trkpt><trkpt lat="43.97111931909328" lon="11.365599817198378"><ele>223.0</ele><time>2026-04-10T12:21:50.001Z</time></trkpt><trkpt lat="43.97095763823742" lon="11.365526834450952"><ele>222.0</ele><time>2026-04-10T12:21:51.001Z</time></trkpt><trkpt lat="43.97078736102328" lon="11.36548082735579"><ele>221.0</ele><time>2026-04-10T12:21:52.001Z</time></trkpt><trkpt lat="43.970614945719355" lon="11.365469071952287"><ele>221.0</ele><time>2026-04-10T12:21:53.001Z</time></trkpt><trkpt lat="43.97044573815774" lon="11.365498860299384"><ele>221.0</ele><time>2026-04-10T12:21:54.001Z</time></trkpt><trkpt lat="43.9702862060522" lon="11.365575286032353"><ele>221.0</ele><time>2026-04-10T12:21:55.001Z</time></trkpt><trkpt lat="43.970132734534154" lon="11.365674408661471"><ele>224.66666666666669</ele><time>2026-04-10T12:21:56.001Z</time></trkpt><trkpt lat="43.96997906303641" lon="11.365774079631978"><ele>228.33333333333331</ele><time>2026-04-10T12:21:57.001Z</time></trkpt><trkpt lat="43.96981799040208" lon="11.365858671114122"><ele>232.0</ele><time>2026-04-10T12:21:58.001Z</time></trkpt><trkpt lat="43.969652805383795" lon="11.365912677343728"><ele>232.0</ele><time>2026-04-10T12:21:59.001Z</time></trkpt><trkpt lat="43.969486140193965" lon="11.365941704734022"><ele>232.0</ele><time>2026-04-10T12:22:00.001Z</time></trkpt><trkpt lat="43.96931621554815" lon="11.36594866590731"><ele>232.0</ele><time>2026-04-10T12:22:01.001Z</time></trkpt><trkpt lat="43.96914693651689" lon="11.36591536655858"><ele>230.33333333333331</ele><time>2026-04-10T12:22:02.001Z</time></trkpt><trkpt lat="43.96897127751934" lon="11.36586103767264"><ele>228.66666666666669</ele><time>2026-04-10T12:22:03.001Z</time></trkpt><trkpt lat="43.968790582761905" lon="11.365807007683811"><ele>227.0</ele><time>2026-04-10T12:22:04.001Z</time></trkpt><trkpt lat="43.96860928137105" lon="11.365753027317767"><ele>227.0</ele><time>2026-04-10T12:22:05.001Z</time></trkpt><trkpt lat="43.968431119677646" lon="11.365692405418542"><ele>227.0</ele><time>2026-04-10T12:22:06.001Z</time></trkpt><trkpt lat="43.96825394811517" lon="11.365631515061184"><ele>227.0</ele><time>2026-04-10T12:22:07.001Z</time></trkpt><trkpt lat="43.96807731800404" lon="11.365571742261835"><ele>225.0</ele><time>2026-04-10T12:22:08.001Z</time></trkpt><trkpt lat="43.96790264764288" lon="11.365517457847233"><ele>223.0</ele><time>2026-04-10T12:22:09.001Z</time></trkpt><trkpt lat="43.96772743680447" lon="11.365461346582736"><ele>221.0</ele><time>2026-04-10T12:22:10.001Z</time></trkpt><trkpt lat="43.96754886425171" lon="11.365403543790325"><ele>221.66666666666669</ele><time>2026-04-10T12:22:11.001Z</time></trkpt><trkpt lat="43.96737225826972" lon="11.365346341729541"><ele>222.33333333333331</ele><time>2026-04-10T12:22:12.001Z</time></trkpt><trkpt lat="43.967203852278224" lon="11.365296108528462"><ele>223.0</ele><time>2026-04-10T12:22:13.001Z</time></trkpt><trkpt lat="43.96703833182308" lon="11.365248413737781"><ele>223.0</ele><time>2026-04-10T12:22:14.001Z</time></trkpt><trkpt lat="43.966871309943805" lon="11.36520186085982"><ele>223.0</ele><time>2026-04-10T12:22:15.001Z</time></trkpt><trkpt lat="43.96670691243719" lon="11.365178884884784"><ele>223.0</ele><time>2026-04-10T12:22:16.001Z</time></trkpt><trkpt lat="43.96654629733263" lon="11.36518807214578"><ele>222.33333333333331</ele><time>2026-04-10T12:22:17.001Z</time></trkpt><trkpt lat="43.966386231075056" lon="11.36518891154326"><ele>221.66666666666669</ele><time>2026-04-10T12:22:18.001Z</time></trkpt><trkpt lat="43.96622566927789" lon="11.365158345402493"><ele>221.0</ele><time>2026-04-10T12:22:19.001Z</time></trkpt><trkpt lat="43.966061845300835" lon="11.365110134296284"><ele>221.0</ele><time>2026-04-10T12:22:20.001Z</time></trkpt><trkpt lat="43.96589609445129" lon="11.365053644471171"><ele>221.0</ele><time>2026-04-10T12:22:21.001Z</time></trkpt><trkpt lat="43.96573010928719" lon="11.364973510042649"><ele>221.0</ele><time>2026-04-10T12:22:22.001Z</time></trkpt><trkpt lat="43.965566555366216" lon="11.364876621231593"><ele>220.66666666666669</ele><time>2026-04-10T12:22:23.001Z</time></trkpt><trkpt lat="43.96541144760181" lon="11.364752360117421"><ele>220.33333333333331</ele><time>2026-04-10T12:22:24.001Z</time></trkpt><trkpt lat="43.96526969490325" lon="11.36461079591783"><ele>220.0</ele><time>2026-04-10T12:22:25.001Z</time></trkpt><trkpt lat="43.96513393237498" lon="11.364462369873376"><ele>220.0</ele><time>2026-04-10T12:22:26.001Z</time></trkpt><trkpt lat="43.96500817438352" lon="11.364316668886959"><ele>220.0</ele><time>2026-04-10T12:22:27.001Z</time></trkpt><trkpt lat="43.96488768791881" lon="11.364175596916875"><ele>220.0</ele><time>2026-04-10T12:22:28.001Z</time></trkpt><trkpt lat="43.96476510598323" lon="11.364034754690424"><ele>220.0</ele><time>2026-04-10T12:22:29.001Z</time></trkpt><trkpt lat="43.96464127411535" lon="11.363893371353065"><ele>220.0</ele><time>2026-04-10T12:22:30.001Z</time></trkpt><trkpt lat="43.96451508026968" lon="11.363755205597837"><ele>220.0</ele><time>2026-04-10T12:22:30.999Z</time></trkpt><trkpt lat="43.964383629683546" lon="11.363620732190522"><ele>218.33333333333331</ele><time>2026-04-10T12:22:31.999Z</time></trkpt><trkpt lat="43.9642489109231" lon="11.363488741604042"><ele>216.66666666666669</ele><time>2026-04-10T12:22:32.999Z</time></trkpt><trkpt lat="43.964119216021" lon="11.363349624294932"><ele>215.0</ele><time>2026-04-10T12:22:33.999Z</time></trkpt><trkpt lat="43.963988740341634" lon="11.363208442982124"><ele>215.0</ele><time>2026-04-10T12:22:34.999Z</time></trkpt><trkpt lat="43.96386239323621" lon="11.363066141457944"><ele>215.0</ele><time>2026-04-10T12:22:35.999Z</time></trkpt><trkpt lat="43.96373480548245" lon="11.362925433571073"><ele>215.0</ele><time>2026-04-10T12:22:36.999Z</time></trkpt><trkpt lat="43.963606403962224" lon="11.36278818510081"><ele>212.66666666666669</ele><time>2026-04-10T12:22:37.999Z</time></trkpt><trkpt lat="43.96347610581255" lon="11.362649056242308"><ele>210.33333333333331</ele><time>2026-04-10T12:22:38.999Z</time></trkpt><trkpt lat="43.96333988786677" lon="11.362511796761595"><ele>208.0</ele><time>2026-04-10T12:22:39.999Z</time></trkpt><trkpt lat="43.9631964324907" lon="11.362385901667109"><ele>208.0</ele><time>2026-04-10T12:22:40.999Z</time></trkpt><trkpt lat="43.96304999585152" lon="11.362273350561932"><ele>208.0</ele><time>2026-04-10T12:22:41.999Z</time></trkpt><trkpt lat="43.96290401011522" lon="11.36217147289237"><ele>208.0</ele><time>2026-04-10T12:22:42.999Z</time></trkpt><trkpt lat="43.96275642259039" lon="11.362077762969847"><ele>206.33333333333331</ele><time>2026-04-10T12:22:43.999Z</time></trkpt><trkpt lat="43.96260878371372" lon="11.361991291052247"><ele>204.66666666666669</ele><time>2026-04-10T12:22:44.999Z</time></trkpt><trkpt lat="43.96246022413076" lon="11.361915396018572"><ele>203.0</ele><time>2026-04-10T12:22:45.999Z</time></trkpt><trkpt lat="43.962310420849846" lon="11.36185014298472"><ele>202.5</ele><time>2026-04-10T12:22:46.999Z</time></trkpt><trkpt lat="43.96216357957592" lon="11.361796030729266"><ele>202.0</ele><time>2026-04-10T12:22:47.999Z</time></trkpt><trkpt lat="43.96202174328118" lon="11.361749131566363"><ele>201.5</ele><time>2026-04-10T12:22:48.999Z</time></trkpt><trkpt lat="43.96188544224154" lon="11.36170642760718"><ele>201.0</ele><time>2026-04-10T12:22:50Z</time></trkpt><trkpt lat="43.96176421428447" lon="11.361665840835771"><ele>201.0</ele><time>2026-04-10T12:22:51Z</time></trkpt><trkpt lat="43.961655197560106" lon="11.36162902038117"><ele>201.0</ele><time>2026-04-10T12:22:52Z</time></trkpt><trkpt lat="43.961534095629446" lon="11.361589635570596"><ele>201.0</ele><time>2026-04-10T12:22:53Z</time></trkpt><trkpt lat="43.96140002857113" lon="11.361554837330955"><ele>201.0</ele><time>2026-04-10T12:22:54Z</time></trkpt><trkpt lat="43.96125682929111" lon="11.361520279393448"><ele>201.0</ele><time>2026-04-10T12:22:55Z</time></trkpt><trkpt lat="43.961108099151296" lon="11.36148768449118"><ele>201.0</ele><time>2026-04-10T12:22:56Z</time></trkpt><trkpt lat="43.9609562620404" lon="11.361454213533248"><ele>201.0</ele><time>2026-04-10T12:22:57Z</time></trkpt><trkpt lat="43.960804839480204" lon="11.361421173917039"><ele>200.25</ele><time>2026-04-10T12:22:58Z</time></trkpt><trkpt lat="43.96065761584403" lon="11.361399002631407"><ele>199.5</ele><time>2026-04-10T12:22:59Z</time></trkpt><trkpt lat="43.960507891465845" lon="11.361388022813255"><ele>198.75</ele><time>2026-04-10T12:23:00Z</time></trkpt><trkpt lat="43.96036735203499" lon="11.361395172138762"><ele>198.0</ele><time>2026-04-10T12:23:01Z</time></trkpt><trkpt lat="43.96023155801732" lon="11.361413555104894"><ele>198.0</ele><time>2026-04-10T12:23:02Z</time></trkpt><trkpt lat="43.96009833412969" lon="11.361441965540685"><ele>198.0</ele><time>2026-04-10T12:23:03Z</time></trkpt><trkpt lat="43.95997422272994" lon="11.361480829903742"><ele>198.0</ele><time>2026-04-10T12:23:04Z</time></trkpt><trkpt lat="43.95986165557643" lon="11.361503850514294"><ele>198.0</ele><time>2026-04-10T12:23:05Z</time></trkpt><trkpt lat="43.95976787546361" lon="11.361547120018825"><ele>197.4</ele><time>2026-04-10T12:23:06Z</time></trkpt><trkpt lat="43.95969027356862" lon="11.36159003732817"><ele>196.8</ele><time>2026-04-10T12:23:07Z</time></trkpt><trkpt lat="43.95962474461401" lon="11.361633031270603"><ele>196.2</ele><time>2026-04-10T12:23:08Z</time></trkpt><trkpt lat="43.95966576897825" lon="11.361864441703931"><ele>195.6</ele><time>2026-04-10T12:23:10Z</time></trkpt><trkpt lat="43.95969792011334" lon="11.36197045737361"><ele>195.0</ele><time>2026-04-10T12:23:11Z</time></trkpt><trkpt lat="43.95976557927606" lon="11.362067673108651"><ele>195.0</ele><time>2026-04-10T12:23:12Z</time></trkpt><trkpt lat="43.959837285384076" lon="11.362193782026402"><ele>195.0</ele><time>2026-04-10T12:23:13Z</time></trkpt><trkpt lat="43.959911590276974" lon="11.362334297443628"><ele>195.0</ele><time>2026-04-10T12:23:14Z</time></trkpt><trkpt lat="43.9599938481418" lon="11.362462603739663"><ele>195.0</ele><time>2026-04-10T12:23:15Z</time></trkpt><trkpt lat="43.96007851091971" lon="11.362558031966252"><ele>195.5</ele><time>2026-04-10T12:23:16Z</time></trkpt><trkpt lat="43.96016928711419" lon="11.362622065938861"><ele>196.0</ele><time>2026-04-10T12:23:17Z</time></trkpt><trkpt lat="43.96025225903503" lon="11.362684626962187"><ele>196.5</ele><time>2026-04-10T12:23:18Z</time></trkpt><trkpt lat="43.960312277338" lon="11.362762813586354"><ele>197.0</ele><time>2026-04-10T12:23:19Z</time></trkpt><trkpt lat="43.960364079677014" lon="11.362847664773948"><ele>197.5</ele><time>2026-04-10T12:23:20Z</time></trkpt><trkpt lat="43.960402659511026" lon="11.36294224531429"><ele>198.0</ele><time>2026-04-10T12:23:21Z</time></trkpt><trkpt lat="43.9602996936498" lon="11.363128880058945"><ele>198.5</ele><time>2026-04-10T12:23:22Z</time></trkpt><trkpt lat="43.96024158038683" lon="11.363275171524187"><ele>199.0</ele><time>2026-04-10T12:23:23Z</time></trkpt><trkpt lat="43.96017680943278" lon="11.363434670908076"><ele>199.5</ele><time>2026-04-10T12:23:24Z</time></trkpt><trkpt lat="43.960102662959805" lon="11.363606075844997"><ele>200.0</ele><time>2026-04-10T12:23:25Z</time></trkpt><trkpt lat="43.96001981398363" lon="11.363785682468492"><ele>200.0</ele><time>2026-04-10T12:23:26Z</time></trkpt><trkpt lat="43.95993379085841" lon="11.363963926664841"><ele>200.0</ele><time>2026-04-10T12:23:27Z</time></trkpt><trkpt lat="43.95985253460986" lon="11.364130299914619"><ele>200.0</ele><time>2026-04-10T12:23:28Z</time></trkpt><trkpt lat="43.959776530177905" lon="11.364287505116646"><ele>200.0</ele><time>2026-04-10T12:23:29Z</time></trkpt><trkpt lat="43.959702127977025" lon="11.364438246884253"><ele>200.0</ele><time>2026-04-10T12:23:30Z</time></trkpt><trkpt lat="43.95963524378142" lon="11.364573213517652"><ele>200.0</ele><time>2026-04-10T12:23:31Z</time></trkpt><trkpt lat="43.959578594106816" lon="11.364687165190356"><ele>200.0</ele><time>2026-04-10T12:23:32Z</time></trkpt><trkpt lat="43.95953268437513" lon="11.364772517717984"><ele>200.0</ele><time>2026-04-10T12:23:33Z</time></trkpt><trkpt lat="43.959440172670824" lon="11.364874644784262"><ele>200.0</ele><time>2026-04-10T12:23:35Z</time></trkpt><trkpt lat="43.9593784136767" lon="11.364955337551006"><ele>200.33333333333334</ele><time>2026-04-10T12:23:37Z</time></trkpt><trkpt lat="43.95929197038388" lon="11.364931603465813"><ele>200.66666666666669</ele><time>2026-04-10T12:23:38Z</time></trkpt><trkpt lat="43.95924473143987" lon="11.365001977021839"><ele>201.0</ele><time>2026-04-10T12:23:41Z</time></trkpt><trkpt lat="43.95923342932281" lon="11.36511413215253"><ele>201.33333333333331</ele><time>2026-04-10T12:28:15.001Z</time></trkpt><trkpt lat="43.95922233697545" lon="11.365204658086292"><ele>201.66666666666666</ele><time>2026-04-10T12:28:18.001Z</time></trkpt><trkpt lat="43.95917208580565" lon="11.36527206415038"><ele>202.0</ele><time>2026-04-10T12:29:25Z</time></trkpt><trkpt lat="43.9591971338927" lon="11.365383175607946"><ele>201.0</ele><time>2026-04-10T12:29:27Z</time></trkpt><trkpt lat="43.95915593933299" lon="11.365516087547546"><ele>200.0</ele><time>2026-04-10T12:29:28Z</time></trkpt><trkpt lat="43.959112350260376" lon="11.365615836256447"><ele>199.0</ele><time>2026-04-10T12:29:29Z</time></trkpt><trkpt lat="43.959055246918595" lon="11.365732263094387"><ele>198.0</ele><time>2026-04-10T12:29:30Z</time></trkpt><trkpt lat="43.95899290896545" lon="11.365871947258471"><ele>197.0</ele><time>2026-04-10T12:29:31Z</time></trkpt><trkpt lat="43.95892439835666" lon="11.366019742607392"><ele>197.0</ele><time>2026-04-10T12:29:32Z</time></trkpt><trkpt lat="43.95885440678168" lon="11.36617602455258"><ele>197.0</ele><time>2026-04-10T12:29:33.001Z</time></trkpt><trkpt lat="43.95879064758702" lon="11.366334649367161"><ele>197.0</ele><time>2026-04-10T12:29:34.001Z</time></trkpt><trkpt lat="43.958727472132" lon="11.366501718609493"><ele>197.0</ele><time>2026-04-10T12:29:35.001Z</time></trkpt><trkpt lat="43.95866409218266" lon="11.366668917346205"><ele>197.25</ele><time>2026-04-10T12:29:36.001Z</time></trkpt><trkpt lat="43.95860240957474" lon="11.366836466462695"><ele>197.5</ele><time>2026-04-10T12:29:37.001Z</time></trkpt><trkpt lat="43.95854741408825" lon="11.36700070766198"><ele>197.75</ele><time>2026-04-10T12:29:38.001Z</time></trkpt><trkpt lat="43.95848521490367" lon="11.367160628401928"><ele>198.0</ele><time>2026-04-10T12:29:39.001Z</time></trkpt><trkpt lat="43.95842814073149" lon="11.367307657496465"><ele>198.0</ele><time>2026-04-10T12:29:40.001Z</time></trkpt><trkpt lat="43.95837509042539" lon="11.367448842314163"><ele>198.0</ele><time>2026-04-10T12:29:41.001Z</time></trkpt><trkpt lat="43.95832203062545" lon="11.367587082559803"><ele>198.0</ele><time>2026-04-10T12:29:42.001Z</time></trkpt><trkpt lat="43.95827229194439" lon="11.367725494019275"><ele>198.0</ele><time>2026-04-10T12:29:43.001Z</time></trkpt><trkpt lat="43.95822471279908" lon="11.367858389110054"><ele>198.0</ele><time>2026-04-10T12:29:44.001Z</time></trkpt><trkpt lat="43.95818960540005" lon="11.367966859293178"><ele>197.83333333333334</ele><time>2026-04-10T12:29:45.001Z</time></trkpt><trkpt lat="43.95815683415051" lon="11.368057771237222"><ele>197.66666666666669</ele><time>2026-04-10T12:29:46.001Z</time></trkpt><trkpt lat="43.958113548747114" lon="11.368165597692672"><ele>197.5</ele><time>2026-04-10T12:29:48.001Z</time></trkpt><trkpt lat="43.95807948462625" lon="11.368247058771871"><ele>197.33333333333334</ele><time>2026-04-10T12:29:52.001Z</time></trkpt><trkpt lat="43.95805012818766" lon="11.36832456714126"><ele>197.16666666666669</ele><time>2026-04-10T12:29:55.001Z</time></trkpt><trkpt lat="43.95800229100656" lon="11.368434682306019"><ele>197.0</ele><time>2026-04-10T12:29:57.001Z</time></trkpt><trkpt lat="43.95797587407066" lon="11.36852253142814"><ele>197.00000000000003</ele><time>2026-04-10T12:29:58.001Z</time></trkpt><trkpt lat="43.957941522941404" lon="11.368613926776721"><ele>197.0</ele><time>2026-04-10T12:29:59.001Z</time></trkpt><trkpt lat="43.957905937004014" lon="11.368700168946315"><ele>197.0</ele><time>2026-04-10T12:30:00.001Z</time></trkpt><trkpt lat="43.95786811134626" lon="11.368793485384584"><ele>197.0</ele><time>2026-04-10T12:30:01.001Z</time></trkpt><trkpt lat="43.95783357483991" lon="11.368886094255839"><ele>197.00000000000003</ele><time>2026-04-10T12:30:02.001Z</time></trkpt><trkpt lat="43.95779389545562" lon="11.368991709807775"><ele>197.0</ele><time>2026-04-10T12:30:03.001Z</time></trkpt><trkpt lat="43.957750176871485" lon="11.369107864115374"><ele>197.2</ele><time>2026-04-10T12:30:04.001Z</time></trkpt><trkpt lat="43.957706001223535" lon="11.369231143189952"><ele>197.39999999999998</ele><time>2026-04-10T12:30:05.001Z</time></trkpt><trkpt lat="43.95766355749391" lon="11.369355200173949"><ele>197.60000000000002</ele><time>2026-04-10T12:30:06.001Z</time></trkpt><trkpt lat="43.957612342769465" lon="11.369488989676151"><ele>197.8</ele><time>2026-04-10T12:30:07.001Z</time></trkpt><trkpt lat="43.95756291366407" lon="11.369616500777019"><ele>198.0</ele><time>2026-04-10T12:30:08.001Z</time></trkpt><trkpt lat="43.95751443655153" lon="11.369740608310435"><ele>197.66666666666666</ele><time>2026-04-10T12:30:09.001Z</time></trkpt><trkpt lat="43.95747335959661" lon="11.369844586008615"><ele>197.33333333333331</ele><time>2026-04-10T12:30:10.001Z</time></trkpt><trkpt lat="43.95744235146851" lon="11.369925092303811"><ele>197.0</ele><time>2026-04-10T12:30:11.001Z</time></trkpt><trkpt lat="43.957406150463235" lon="11.370029077246285"><ele>196.66666666666666</ele><time>2026-04-10T12:30:13.001Z</time></trkpt><trkpt lat="43.957368353824464" lon="11.37010127263078"><ele>196.33333333333331</ele><time>2026-04-10T12:30:16.001Z</time></trkpt><trkpt lat="43.95733140546413" lon="11.370174211121306"><ele>196.0</ele><time>2026-04-10T12:30:19.001Z</time></trkpt><trkpt lat="43.95729274957925" lon="11.370315052458071"><ele>196.0</ele><time>2026-04-10T12:30:21.001Z</time></trkpt><trkpt lat="43.957251117495964" lon="11.370423935707333"><ele>196.0</ele><time>2026-04-10T12:30:22.001Z</time></trkpt><trkpt lat="43.95720351630754" lon="11.370542254368127"><ele>196.0</ele><time>2026-04-10T12:30:23.001Z</time></trkpt><trkpt lat="43.957151988626784" lon="11.370674508093757"><ele>196.0</ele><time>2026-04-10T12:30:24.001Z</time></trkpt><trkpt lat="43.95709634020056" lon="11.370820827452881"><ele>196.0</ele><time>2026-04-10T12:30:25.001Z</time></trkpt><trkpt lat="43.957039246731476" lon="11.370977749378387"><ele>196.0</ele><time>2026-04-10T12:30:26.001Z</time></trkpt><trkpt lat="43.95698329586651" lon="11.371130106740274"><ele>196.0</ele><time>2026-04-10T12:30:27.001Z</time></trkpt><trkpt lat="43.95692627025804" lon="11.371285535745255"><ele>196.0</ele><time>2026-04-10T12:30:28.001Z</time></trkpt><trkpt lat="43.95686536826678" lon="11.371443854738912"><ele>196.0</ele><time>2026-04-10T12:30:29.001Z</time></trkpt><trkpt lat="43.95680418494603" lon="11.371603815877213"><ele>196.0</ele><time>2026-04-10T12:30:30.001Z</time></trkpt><trkpt lat="43.9567476947701" lon="11.371760441546789"><ele>196.0</ele><time>2026-04-10T12:30:31.001Z</time></trkpt><trkpt lat="43.95669355267807" lon="11.371910564980075"><ele>196.0</ele><time>2026-04-10T12:30:32.001Z</time></trkpt><trkpt lat="43.9566477072331" lon="11.37204278737251"><ele>196.0</ele><time>2026-04-10T12:30:33.001Z</time></trkpt><trkpt lat="43.956613864922026" lon="11.37216967016754"><ele>195.83333333333331</ele><time>2026-04-10T12:30:34.001Z</time></trkpt><trkpt lat="43.9565827301322" lon="11.372277550483268"><ele>195.66666666666666</ele><time>2026-04-10T12:30:35.001Z</time></trkpt><trkpt lat="43.95655310978711" lon="11.372377287254714"><ele>195.5</ele><time>2026-04-10T12:30:36.001Z</time></trkpt><trkpt lat="43.95651628833908" lon="11.372458285451463"><ele>195.33333333333331</ele><time>2026-04-10T12:30:37.001Z</time></trkpt><trkpt lat="43.956545544796974" lon="11.372619089798054"><ele>195.16666666666666</ele><time>2026-04-10T12:30:39.001Z</time></trkpt><trkpt lat="43.95659460575456" lon="11.372676973061528"><ele>195.0</ele><time>2026-04-10T12:30:40.001Z</time></trkpt><trkpt lat="43.95668607753677" lon="11.372726656053404"><ele>195.5</ele><time>2026-04-10T12:30:41.001Z</time></trkpt><trkpt lat="43.95678307973933" lon="11.37277643050524"><ele>196.0</ele><time>2026-04-10T12:30:42.001Z</time></trkpt><trkpt lat="43.95689603084093" lon="11.372832770092403"><ele>196.5</ele><time>2026-04-10T12:30:43.001Z</time></trkpt><trkpt lat="43.95700738801992" lon="11.372892323939357"><ele>197.0</ele><time>2026-04-10T12:30:44.001Z</time></trkpt><trkpt lat="43.95710580838857" lon="11.372952831184087"><ele>196.8</ele><time>2026-04-10T12:30:45.001Z</time></trkpt><trkpt lat="43.95719350263698" lon="11.373033314589433"><ele>196.6</ele><time>2026-04-10T12:30:46.001Z</time></trkpt><trkpt lat="43.95726204549673" lon="11.373149039788206"><ele>196.4</ele><time>2026-04-10T12:30:47.001Z</time></trkpt><trkpt lat="43.957311519396605" lon="11.373293298875387"><ele>196.20000000000002</ele><time>2026-04-10T12:30:48.001Z</time></trkpt><trkpt lat="43.9573277130688" lon="11.373451071729603"><ele>196.0</ele><time>2026-04-10T12:30:49.001Z</time></trkpt><trkpt lat="43.95732497371896" lon="11.37361150046017"><ele>196.0</ele><time>2026-04-10T12:30:50.001Z</time></trkpt><trkpt lat="43.95731712661534" lon="11.373777911449993"><ele>196.0</ele><time>2026-04-10T12:30:51.001Z</time></trkpt><trkpt lat="43.95731831676924" lon="11.37394932065982"><ele>196.0</ele><time>2026-04-10T12:30:52.001Z</time></trkpt><trkpt lat="43.957324606733735" lon="11.374126935269656"><ele>196.0</ele><time>2026-04-10T12:30:53.001Z</time></trkpt><trkpt lat="43.957328804645854" lon="11.374298186560516"><ele>196.0</ele><time>2026-04-10T12:30:54.001Z</time></trkpt><trkpt lat="43.957330181582435" lon="11.374457486315517"><ele>196.0</ele><time>2026-04-10T12:30:54.999Z</time></trkpt><trkpt lat="43.95733186415698" lon="11.374612045604685"><ele>196.0</ele><time>2026-04-10T12:30:55.999Z</time></trkpt><trkpt lat="43.95733330901098" lon="11.374762559137412"><ele>196.0</ele><time>2026-04-10T12:30:56.999Z</time></trkpt><trkpt lat="43.9573351726083" lon="11.374912380723329"><ele>196.0</ele><time>2026-04-10T12:30:57.999Z</time></trkpt><trkpt lat="43.95733764693265" lon="11.375065510033002"><ele>196.0</ele><time>2026-04-10T12:30:58.999Z</time></trkpt><trkpt lat="43.95734015183936" lon="11.37522057209538"><ele>196.0</ele><time>2026-04-10T12:30:59.999Z</time></trkpt><trkpt lat="43.95734151698223" lon="11.375383882255278"><ele>196.0</ele><time>2026-04-10T12:31:00.999Z</time></trkpt><trkpt lat="43.9573415179377" lon="11.375550888397628"><ele>196.0</ele><time>2026-04-10T12:31:01.999Z</time></trkpt><trkpt lat="43.95734442907134" lon="11.375707332490835"><ele>196.0</ele><time>2026-04-10T12:31:02.999Z</time></trkpt><trkpt lat="43.95734809732697" lon="11.375858704798292"><ele>196.0</ele><time>2026-04-10T12:31:03.999Z</time></trkpt><trkpt lat="43.95734882051056" lon="11.376004367718119"><ele>196.0</ele><time>2026-04-10T12:31:04.999Z</time></trkpt><trkpt lat="43.95734918017023" lon="11.376143866519003"><ele>196.0</ele><time>2026-04-10T12:31:05.999Z</time></trkpt><trkpt lat="43.95735269488931" lon="11.376276788595804"><ele>196.0</ele><time>2026-04-10T12:31:06.999Z</time></trkpt><trkpt lat="43.957354621581906" lon="11.376406496849908"><ele>195.99999999999997</ele><time>2026-04-10T12:31:07.999Z</time></trkpt><trkpt lat="43.957353849931856" lon="11.376532352918879"><ele>196.0</ele><time>2026-04-10T12:31:08.999Z</time></trkpt><trkpt lat="43.95735195519946" lon="11.376654578612166"><ele>196.0</ele><time>2026-04-10T12:31:09.999Z</time></trkpt><trkpt lat="43.95735307718291" lon="11.376774569075288"><ele>196.0</ele><time>2026-04-10T12:31:10.999Z</time></trkpt><trkpt lat="43.957355622723114" lon="11.376890519262943"><ele>195.99999999999997</ele><time>2026-04-10T12:31:12Z</time></trkpt><trkpt lat="43.95735586967114" lon="11.377012572301728"><ele>196.0</ele><time>2026-04-10T12:31:13Z</time></trkpt><trkpt lat="43.9573584476523" lon="11.37713833401082"><ele>196.0</ele><time>2026-04-10T12:31:14Z</time></trkpt><trkpt lat="43.95736562646003" lon="11.377267517016723"><ele>196.0</ele><time>2026-04-10T12:31:15Z</time></trkpt><trkpt lat="43.95737491627377" lon="11.377391584938827"><ele>196.0</ele><time>2026-04-10T12:31:16Z</time></trkpt><trkpt lat="43.9573778772011" lon="11.37752351416672"><ele>196.0</ele><time>2026-04-10T12:31:17Z</time></trkpt><trkpt lat="43.957379193033" lon="11.377661694286154"><ele>196.0</ele><time>2026-04-10T12:31:18Z</time></trkpt><trkpt lat="43.95737786191371" lon="11.377793256594314"><ele>196.0</ele><time>2026-04-10T12:31:19Z</time></trkpt><trkpt lat="43.957378916241005" lon="11.377930437847125"><ele>196.0</ele><time>2026-04-10T12:31:20Z</time></trkpt><trkpt lat="43.957382360692854" lon="11.378075921712743"><ele>196.0</ele><time>2026-04-10T12:31:21Z</time></trkpt><trkpt lat="43.957383391071495" lon="11.378223927792616"><ele>196.0</ele><time>2026-04-10T12:31:22Z</time></trkpt><trkpt lat="43.95738361468557" lon="11.378373932523374"><ele>196.0</ele><time>2026-04-10T12:31:23Z</time></trkpt><trkpt lat="43.95737936426344" lon="11.378522073809462"><ele>196.0</ele><time>2026-04-10T12:31:24Z</time></trkpt><trkpt lat="43.95737477006278" lon="11.37868005722055"><ele>196.0</ele><time>2026-04-10T12:31:25Z</time></trkpt><trkpt lat="43.9573709346153" lon="11.378841249509716"><ele>196.0</ele><time>2026-04-10T12:31:26Z</time></trkpt><trkpt lat="43.95737279371491" lon="11.378998009694323"><ele>196.0</ele><time>2026-04-10T12:31:27Z</time></trkpt><trkpt lat="43.95737549835149" lon="11.379151339373612"><ele>196.0</ele><time>2026-04-10T12:31:28Z</time></trkpt><trkpt lat="43.957379567270955" lon="11.37930233704589"><ele>196.0</ele><time>2026-04-10T12:31:29Z</time></trkpt><trkpt lat="43.95738296251668" lon="11.37944921023753"><ele>196.0</ele><time>2026-04-10T12:31:30Z</time></trkpt><trkpt lat="43.95738390161746" lon="11.379590349607334"><ele>196.0</ele><time>2026-04-10T12:31:31Z</time></trkpt><trkpt lat="43.95738454377862" lon="11.379727518807227"><ele>196.0</ele><time>2026-04-10T12:31:32Z</time></trkpt><trkpt lat="43.95738699056585" lon="11.37985914974673"><ele>196.16666666666666</ele><time>2026-04-10T12:31:33Z</time></trkpt><trkpt lat="43.95739030894245" lon="11.379980301757215"><ele>196.33333333333331</ele><time>2026-04-10T12:31:34Z</time></trkpt><trkpt lat="43.95739795402737" lon="11.380094659858901"><ele>196.5</ele><time>2026-04-10T12:31:35Z</time></trkpt><trkpt lat="43.95741174360023" lon="11.38020520772813"><ele>196.66666666666669</ele><time>2026-04-10T12:31:36Z</time></trkpt><trkpt lat="43.95742679361823" lon="11.380310472532985"><ele>196.83333333333334</ele><time>2026-04-10T12:31:37Z</time></trkpt><trkpt lat="43.95744220223254" lon="11.380412532479879"><ele>197.0</ele><time>2026-04-10T12:31:38Z</time></trkpt><trkpt lat="43.95745836007845" lon="11.38051328333386"><ele>196.83333333333334</ele><time>2026-04-10T12:31:39Z</time></trkpt><trkpt lat="43.95747393395818" lon="11.380617061793417"><ele>196.66666666666669</ele><time>2026-04-10T12:31:40Z</time></trkpt><trkpt lat="43.95748676299521" lon="11.380725360118989"><ele>196.5</ele><time>2026-04-10T12:31:41Z</time></trkpt><trkpt lat="43.95749956979826" lon="11.380836148446487"><ele>196.33333333333331</ele><time>2026-04-10T12:31:42Z</time></trkpt><trkpt lat="43.957510520399666" lon="11.380949625425009"><ele>196.16666666666666</ele><time>2026-04-10T12:31:43Z</time></trkpt><trkpt lat="43.95752465004353" lon="11.381065225994375"><ele>196.0</ele><time>2026-04-10T12:31:44Z</time></trkpt><trkpt lat="43.957537659821874" lon="11.381189191242969"><ele>196.4</ele><time>2026-04-10T12:31:45Z</time></trkpt><trkpt lat="43.95754813758959" lon="11.381308705512078"><ele>196.8</ele><time>2026-04-10T12:31:46Z</time></trkpt><trkpt lat="43.95756587435001" lon="11.381537697615247"><ele>197.20000000000002</ele><time>2026-04-10T12:31:48Z</time></trkpt><trkpt lat="43.957582051591125" lon="11.381647188920805"><ele>197.60000000000002</ele><time>2026-04-10T12:31:49Z</time></trkpt><trkpt lat="43.957601543398084" lon="11.381754232256036"><ele>198.0</ele><time>2026-04-10T12:31:50Z</time></trkpt><trkpt lat="43.95761694850642" lon="11.38186312877803"><ele>198.0</ele><time>2026-04-10T12:31:51Z</time></trkpt><trkpt lat="43.95762777024368" lon="11.381956086829833"><ele>198.0</ele><time>2026-04-10T12:31:52Z</time></trkpt><trkpt lat="43.9576463461204" lon="11.382127055923737"><ele>198.0</ele><time>2026-04-10T12:31:54Z</time></trkpt><trkpt lat="43.95766944065713" lon="11.382290519259945"><ele>198.0</ele><time>2026-04-10T12:31:56Z</time></trkpt><trkpt lat="43.95768237417522" lon="11.382395744596185"><ele>198.0</ele><time>2026-04-10T12:31:58Z</time></trkpt><trkpt lat="43.957710117364904" lon="11.38254397956387"><ele>198.2</ele><time>2026-04-10T12:32:34.001Z</time></trkpt><trkpt lat="43.95772903395166" lon="11.382659776939407"><ele>198.4</ele><time>2026-04-10T12:32:35.001Z</time></trkpt><trkpt lat="43.9577330704185" lon="11.382791723733948"><ele>198.6</ele><time>2026-04-10T12:32:36.001Z</time></trkpt><trkpt lat="43.95774963792737" lon="11.382915082700016"><ele>198.79999999999998</ele><time>2026-04-10T12:32:37.001Z</time></trkpt><trkpt lat="43.95776719452918" lon="11.38303412615356"><ele>199.0</ele><time>2026-04-10T12:32:38.001Z</time></trkpt><trkpt lat="43.957784933702236" lon="11.383165793195733"><ele>199.0</ele><time>2026-04-10T12:32:39.001Z</time></trkpt><trkpt lat="43.957802019655915" lon="11.383329820224958"><ele>199.0</ele><time>2026-04-10T12:32:40.001Z</time></trkpt><trkpt lat="43.95782932357978" lon="11.383521064287581"><ele>199.0</ele><time>2026-04-10T12:32:41.001Z</time></trkpt><trkpt lat="43.95786539095728" lon="11.383725734423894"><ele>199.0</ele><time>2026-04-10T12:32:42.001Z</time></trkpt><trkpt lat="43.957896841179064" lon="11.383941450038984"><ele>199.0</ele><time>2026-04-10T12:32:43.001Z</time></trkpt><trkpt lat="43.957917446946595" lon="11.384145117860424"><ele>199.0</ele><time>2026-04-10T12:32:44.001Z</time></trkpt><trkpt lat="43.95793818754236" lon="11.384343008893504"><ele>199.0</ele><time>2026-04-10T12:32:45.001Z</time></trkpt><trkpt lat="43.95795627084013" lon="11.384531701664482"><ele>199.0</ele><time>2026-04-10T12:32:46.001Z</time></trkpt><trkpt lat="43.95796444809963" lon="11.384707422849802"><ele>198.75</ele><time>2026-04-10T12:32:47.001Z</time></trkpt><trkpt lat="43.9579677394818" lon="11.384878766558236"><ele>198.5</ele><time>2026-04-10T12:32:48.001Z</time></trkpt><trkpt lat="43.95798251822406" lon="11.385043839155534"><ele>198.25</ele><time>2026-04-10T12:32:49.001Z</time></trkpt><trkpt lat="43.95800453044914" lon="11.385201420808773"><ele>198.0</ele><time>2026-04-10T12:32:50.001Z</time></trkpt><trkpt lat="43.95800692578909" lon="11.385358801178452"><ele>198.0</ele><time>2026-04-10T12:32:51.001Z</time></trkpt><trkpt lat="43.95798568309369" lon="11.385511694798215"><ele>198.0</ele><time>2026-04-10T12:32:52.001Z</time></trkpt><trkpt lat="43.95795534563631" lon="11.38565529520203"><ele>198.0</ele><time>2026-04-10T12:32:53.001Z</time></trkpt><trkpt lat="43.957915349145395" lon="11.385788063359461"><ele>198.0</ele><time>2026-04-10T12:32:54.001Z</time></trkpt><trkpt lat="43.95787262401046" lon="11.38590234324205"><ele>198.0</ele><time>2026-04-10T12:32:55.001Z</time></trkpt><trkpt lat="43.95784249871901" lon="11.3859991893625"><ele>198.0</ele><time>2026-04-10T12:32:56.001Z</time></trkpt><trkpt lat="43.957851662607474" lon="11.386110681019897"><ele>198.0</ele><time>2026-04-10T12:32:57.001Z</time></trkpt><trkpt lat="43.95788256314569" lon="11.386231662210491"><ele>198.0</ele><time>2026-04-10T12:32:58.001Z</time></trkpt><trkpt lat="43.95788816095644" lon="11.38635992586135"><ele>198.0</ele><time>2026-04-10T12:32:59.001Z</time></trkpt><trkpt lat="43.95786151248248" lon="11.386503532302775"><ele>198.0</ele><time>2026-04-10T12:33:00.001Z</time></trkpt><trkpt lat="43.95780975302743" lon="11.386653963568156"><ele>198.5</ele><time>2026-04-10T12:33:00.999Z</time></trkpt><trkpt lat="43.95774975347443" lon="11.386822890455994"><ele>199.0</ele><time>2026-04-10T12:33:01.999Z</time></trkpt><trkpt lat="43.95768342378109" lon="11.387011117705766"><ele>199.5</ele><time>2026-04-10T12:33:02.999Z</time></trkpt><trkpt lat="43.9576199256456" lon="11.387191291037807"><ele>200.0</ele><time>2026-04-10T12:33:03.999Z</time></trkpt><trkpt lat="43.957558544924346" lon="11.387361657017676"><ele>199.5</ele><time>2026-04-10T12:33:04.999Z</time></trkpt><trkpt lat="43.95749279495658" lon="11.387530306163974"><ele>199.0</ele><time>2026-04-10T12:33:05.999Z</time></trkpt><trkpt lat="43.95742801507437" lon="11.387697008163762"><ele>198.5</ele><time>2026-04-10T12:33:06.999Z</time></trkpt><trkpt lat="43.95736465077079" lon="11.387861404934148"><ele>198.0</ele><time>2026-04-10T12:33:07.999Z</time></trkpt><trkpt lat="43.95729572766032" lon="11.38803465279546"><ele>198.0</ele><time>2026-04-10T12:33:08.999Z</time></trkpt><trkpt lat="43.95722741898772" lon="11.388200497630557"><ele>198.0</ele><time>2026-04-10T12:33:09.999Z</time></trkpt><trkpt lat="43.95716253404003" lon="11.388375126413223"><ele>198.0</ele><time>2026-04-10T12:33:10.999Z</time></trkpt><trkpt lat="43.95710024804277" lon="11.388547804335019"><ele>198.0</ele><time>2026-04-10T12:33:11.999Z</time></trkpt><trkpt lat="43.957039665564515" lon="11.388719652017794"><ele>198.25</ele><time>2026-04-10T12:33:12.999Z</time></trkpt><trkpt lat="43.95697413759204" lon="11.388898118659444"><ele>198.5</ele><time>2026-04-10T12:33:13.999Z</time></trkpt><trkpt lat="43.956912981776995" lon="11.389063189659222"><ele>198.75</ele><time>2026-04-10T12:33:14.999Z</time></trkpt><trkpt lat="43.95685367454562" lon="11.389221689207035"><ele>199.0</ele><time>2026-04-10T12:33:15.999Z</time></trkpt><trkpt lat="43.95679891733877" lon="11.389374924440208"><ele>199.0</ele><time>2026-04-10T12:33:16.999Z</time></trkpt><trkpt lat="43.95673845240067" lon="11.389536927071626"><ele>199.0</ele><time>2026-04-10T12:33:17.999Z</time></trkpt><trkpt lat="43.95667279057974" lon="11.389704873672306"><ele>199.0</ele><time>2026-04-10T12:33:18.999Z</time></trkpt><trkpt lat="43.95660031508177" lon="11.389870795474407"><ele>199.0</ele><time>2026-04-10T12:33:19.999Z</time></trkpt><trkpt lat="43.95653784649864" lon="11.39002835704477"><ele>198.0</ele><time>2026-04-10T12:33:20.999Z</time></trkpt><trkpt lat="43.956475844243236" lon="11.390178865454576"><ele>197.0</ele><time>2026-04-10T12:33:21.999Z</time></trkpt><trkpt lat="43.95642038014498" lon="11.390338068132344"><ele>196.0</ele><time>2026-04-10T12:33:22.999Z</time></trkpt><trkpt lat="43.95636196161128" lon="11.390490626280373"><ele>195.0</ele><time>2026-04-10T12:33:23.999Z</time></trkpt><trkpt lat="43.95630388877162" lon="11.39065096367669"><ele>195.0</ele><time>2026-04-10T12:33:24.999Z</time></trkpt><trkpt lat="43.95624454734245" lon="11.390814436012828"><ele>195.0</ele><time>2026-04-10T12:33:25.999Z</time></trkpt><trkpt lat="43.956179277216194" lon="11.390978350084795"><ele>195.0</ele><time>2026-04-10T12:33:26.999Z</time></trkpt><trkpt lat="43.95610204789841" lon="11.391142469926187"><ele>195.0</ele><time>2026-04-10T12:33:27.999Z</time></trkpt><trkpt lat="43.95602794133643" lon="11.391319496559873"><ele>195.0</ele><time>2026-04-10T12:33:28.999Z</time></trkpt><trkpt lat="43.95594960054842" lon="11.39149639356229"><ele>195.0</ele><time>2026-04-10T12:33:30Z</time></trkpt><trkpt lat="43.95586945378967" lon="11.391663324965466"><ele>195.0</ele><time>2026-04-10T12:33:31Z</time></trkpt><trkpt lat="43.95579114707442" lon="11.391817905116708"><ele>195.0</ele><time>2026-04-10T12:33:32Z</time></trkpt><trkpt lat="43.955716429642614" lon="11.391969098726753"><ele>195.0</ele><time>2026-04-10T12:33:33Z</time></trkpt><trkpt lat="43.955654954451106" lon="11.392088833945474"><ele>195.0</ele><time>2026-04-10T12:33:34Z</time></trkpt><trkpt lat="43.95560605245722" lon="11.392191090429176"><ele>195.0</ele><time>2026-04-10T12:33:35Z</time></trkpt><trkpt lat="43.95555668027366" lon="11.392289622566514"><ele>195.0</ele><time>2026-04-10T12:33:36Z</time></trkpt><trkpt lat="43.95550629875653" lon="11.392398726818318"><ele>195.0</ele><time>2026-04-10T12:33:37Z</time></trkpt><trkpt lat="43.95545007413627" lon="11.392516647360175"><ele>195.0</ele><time>2026-04-10T12:33:38Z</time></trkpt><trkpt lat="43.955392943508244" lon="11.392649504018506"><ele>195.0</ele><time>2026-04-10T12:33:39Z</time></trkpt><trkpt lat="43.95532912516663" lon="11.392791525738353"><ele>195.0</ele><time>2026-04-10T12:33:40Z</time></trkpt><trkpt lat="43.955261156929076" lon="11.392936961808884"><ele>195.0</ele><time>2026-04-10T12:33:41Z</time></trkpt><trkpt lat="43.9551943159198" lon="11.393074522303525"><ele>195.0</ele><time>2026-04-10T12:33:42Z</time></trkpt><trkpt lat="43.955128394156105" lon="11.393204940303386"><ele>195.0</ele><time>2026-04-10T12:33:43Z</time></trkpt><trkpt lat="43.955064461087446" lon="11.3933257353643"><ele>195.0</ele><time>2026-04-10T12:33:44Z</time></trkpt><trkpt lat="43.95499941295424" lon="11.39343340144026"><ele>195.0</ele><time>2026-04-10T12:33:45Z</time></trkpt><trkpt lat="43.9549333249586" lon="11.393526787334457"><ele>195.0</ele><time>2026-04-10T12:33:46Z</time></trkpt><trkpt lat="43.954856907742894" lon="11.39359370573356"><ele>195.0</ele><time>2026-04-10T12:33:47Z</time></trkpt><trkpt lat="43.954766576260276" lon="11.393627383268548"><ele>195.0</ele><time>2026-04-10T12:33:48Z</time></trkpt><trkpt lat="43.95468600885936" lon="11.393697492296978"><ele>195.0</ele><time>2026-04-10T12:33:49Z</time></trkpt><trkpt lat="43.954550872755476" lon="11.393621100067021"><ele>195.0</ele><time>2026-04-10T12:33:50Z</time></trkpt><trkpt lat="43.95443562844474" lon="11.39357573731903"><ele>195.0</ele><time>2026-04-10T12:33:51Z</time></trkpt><trkpt lat="43.95432140130151" lon="11.393506501546673"><ele>195.0</ele><time>2026-04-10T12:33:52Z</time></trkpt><trkpt lat="43.95419972048708" lon="11.39343763212191"><ele>195.0</ele><time>2026-04-10T12:33:53Z</time></trkpt><trkpt lat="43.95408124251043" lon="11.393370669719628"><ele>195.0</ele><time>2026-04-10T12:33:54Z</time></trkpt><trkpt lat="43.953961974270676" lon="11.393307558742489"><ele>194.5</ele><time>2026-04-10T12:33:55Z</time></trkpt><trkpt lat="43.95384980726436" lon="11.393243952001757"><ele>194.0</ele><time>2026-04-10T12:33:56Z</time></trkpt><trkpt lat="43.9537396274668" lon="11.393182339822083"><ele>193.5</ele><time>2026-04-10T12:33:57Z</time></trkpt><trkpt lat="43.953631412663015" lon="11.393121560635375"><ele>193.0</ele><time>2026-04-10T12:33:58Z</time></trkpt><trkpt lat="43.95352552158254" lon="11.39306242202832"><ele>193.0</ele><time>2026-04-10T12:33:59Z</time></trkpt><trkpt lat="43.95341882790765" lon="11.393003658694566"><ele>193.0</ele><time>2026-04-10T12:34:00Z</time></trkpt><trkpt lat="43.953314363885966" lon="11.392946742587602"><ele>193.0</ele><time>2026-04-10T12:34:01Z</time></trkpt><trkpt lat="43.953208530066426" lon="11.392887515140128"><ele>193.0</ele><time>2026-04-10T12:34:02Z</time></trkpt><trkpt lat="43.95310494885219" lon="11.392828345598426"><ele>193.0</ele><time>2026-04-10T12:34:03Z</time></trkpt><trkpt lat="43.95300184320779" lon="11.392771792039396"><ele>193.0</ele><time>2026-04-10T12:34:04Z</time></trkpt><trkpt lat="43.952899662833254" lon="11.392718645984587"><ele>193.0</ele><time>2026-04-10T12:34:05Z</time></trkpt><trkpt lat="43.95279427185257" lon="11.392663416957657"><ele>193.0</ele><time>2026-04-10T12:34:06Z</time></trkpt><trkpt lat="43.952686719536125" lon="11.392601418302046"><ele>193.0</ele><time>2026-04-10T12:34:07Z</time></trkpt><trkpt lat="43.95257459131146" lon="11.392538072612924"><ele>192.5</ele><time>2026-04-10T12:34:08Z</time></trkpt><trkpt lat="43.95246181543993" lon="11.392474842599634"><ele>192.0</ele><time>2026-04-10T12:34:09Z</time></trkpt><trkpt lat="43.95233973266746" lon="11.392406628233639"><ele>191.5</ele><time>2026-04-10T12:34:10Z</time></trkpt><trkpt lat="43.95222265956074" lon="11.392348291085833"><ele>191.0</ele><time>2026-04-10T12:34:11Z</time></trkpt><trkpt lat="43.95210852342974" lon="11.392285983436553"><ele>191.0</ele><time>2026-04-10T12:34:12Z</time></trkpt><trkpt lat="43.95199842992915" lon="11.392227254098591"><ele>191.0</ele><time>2026-04-10T12:34:13Z</time></trkpt><trkpt lat="43.95189351465458" lon="11.392166543618378"><ele>191.0</ele><time>2026-04-10T12:34:14Z</time></trkpt><trkpt lat="43.951804362331835" lon="11.39210296794509"><ele>191.0</ele><time>2026-04-10T12:34:15Z</time></trkpt><trkpt lat="43.951724507426675" lon="11.392034972224787"><ele>191.0</ele><time>2026-04-10T12:34:16Z</time></trkpt><trkpt lat="43.95165273606883" lon="11.391966962847308"><ele>190.8</ele><time>2026-04-10T12:34:17Z</time></trkpt><trkpt lat="43.95159766949926" lon="11.391895045403954"><ele>190.60000000000002</ele><time>2026-04-10T12:34:18Z</time></trkpt><trkpt lat="43.95152043928344" lon="11.391889909316301"><ele>190.4</ele><time>2026-04-10T12:34:19Z</time></trkpt><trkpt lat="43.95146683521782" lon="11.39196808869347"><ele>190.2</ele><time>2026-04-10T12:34:20Z</time></trkpt><trkpt lat="43.95135003243452" lon="11.392197837430528"><ele>190.0</ele><time>2026-04-10T12:34:22.001Z</time></trkpt><trkpt lat="43.951292969014396" lon="11.392352777617488"><ele>190.75</ele><time>2026-04-10T12:34:23.001Z</time></trkpt><trkpt lat="43.951232481378376" lon="11.392531343258359"><ele>191.5</ele><time>2026-04-10T12:34:24.001Z</time></trkpt><trkpt lat="43.951169335221486" lon="11.39271369828432"><ele>192.25</ele><time>2026-04-10T12:34:25.001Z</time></trkpt><trkpt lat="43.95110784601957" lon="11.39288602292432"><ele>193.0</ele><time>2026-04-10T12:34:26.001Z</time></trkpt><trkpt lat="43.95105102408529" lon="11.393054647337229"><ele>193.0</ele><time>2026-04-10T12:34:27.001Z</time></trkpt><trkpt lat="43.95099182318415" lon="11.39322184017765"><ele>193.0</ele><time>2026-04-10T12:34:28.001Z</time></trkpt><trkpt lat="43.950932944931765" lon="11.393391655622917"><ele>193.0</ele><time>2026-04-10T12:34:29.001Z</time></trkpt><trkpt lat="43.95087428552016" lon="11.393555699380176"><ele>193.0</ele><time>2026-04-10T12:34:30.001Z</time></trkpt><trkpt lat="43.9508141338846" lon="11.393721129411038"><ele>192.25</ele><time>2026-04-10T12:34:31.001Z</time></trkpt><trkpt lat="43.95075272792143" lon="11.393897386236691"><ele>191.5</ele><time>2026-04-10T12:34:32.001Z</time></trkpt><trkpt lat="43.950697463542674" lon="11.394084765270206"><ele>190.75</ele><time>2026-04-10T12:34:33.001Z</time></trkpt><trkpt lat="43.95064644352723" lon="11.394281448242529"><ele>190.0</ele><time>2026-04-10T12:34:34.001Z</time></trkpt><trkpt lat="43.950606126238874" lon="11.394481973904469"><ele>189.75</ele><time>2026-04-10T12:34:35.001Z</time></trkpt><trkpt lat="43.950574006869665" lon="11.3946824097179"><ele>189.5</ele><time>2026-04-10T12:34:36.001Z</time></trkpt><trkpt lat="43.95054652307379" lon="11.394880480102316"><ele>189.25</ele><time>2026-04-10T12:34:37.001Z</time></trkpt><trkpt lat="43.950518450199304" lon="11.395075817448964"><ele>189.0</ele><time>2026-04-10T12:34:38.001Z</time></trkpt><trkpt lat="43.95049145874298" lon="11.395261732641481"><ele>189.0</ele><time>2026-04-10T12:34:39.001Z</time></trkpt><trkpt lat="43.95046639751167" lon="11.395444519869411"><ele>189.0</ele><time>2026-04-10T12:34:40.001Z</time></trkpt><trkpt lat="43.9504443042084" lon="11.395622168082967"><ele>189.0</ele><time>2026-04-10T12:34:41.001Z</time></trkpt><trkpt lat="43.950420070893635" lon="11.395792324259176"><ele>189.0</ele><time>2026-04-10T12:34:42.001Z</time></trkpt><trkpt lat="43.95039958080204" lon="11.395955682958824"><ele>189.39999999999998</ele><time>2026-04-10T12:34:43.001Z</time></trkpt><trkpt lat="43.950380418091505" lon="11.396116948346469"><ele>189.8</ele><time>2026-04-10T12:34:44.001Z</time></trkpt><trkpt lat="43.9503622468422" lon="11.396271842146058"><ele>190.2</ele><time>2026-04-10T12:34:45.001Z</time></trkpt><trkpt lat="43.95034393614994" lon="11.396421602450186"><ele>190.60000000000002</ele><time>2026-04-10T12:34:46.001Z</time></trkpt><trkpt lat="43.95032692832192" lon="11.396554699295455"><ele>191.0</ele><time>2026-04-10T12:34:47.001Z</time></trkpt><trkpt lat="43.95031466154074" lon="11.396680121930665"><ele>191.0</ele><time>2026-04-10T12:34:48.001Z</time></trkpt><trkpt lat="43.95030220235565" lon="11.396801796208647"><ele>191.0</ele><time>2026-04-10T12:34:49.001Z</time></trkpt><trkpt lat="43.95028398761907" lon="11.39692637325076"><ele>191.0</ele><time>2026-04-10T12:34:50.001Z</time></trkpt><trkpt lat="43.95026687374967" lon="11.397060573999422"><ele>191.0</ele><time>2026-04-10T12:34:51.001Z</time></trkpt><trkpt lat="43.95025318462609" lon="11.397187720987485"><ele>191.0</ele><time>2026-04-10T12:34:52.001Z</time></trkpt><trkpt lat="43.95024477748844" lon="11.39731233892893"><ele>190.8</ele><time>2026-04-10T12:34:53.001Z</time></trkpt><trkpt lat="43.950220516478915" lon="11.397432920340961"><ele>190.60000000000002</ele><time>2026-04-10T12:34:54.001Z</time></trkpt><trkpt lat="43.95020543667266" lon="11.397561610040162"><ele>190.4</ele><time>2026-04-10T12:34:55.001Z</time></trkpt><trkpt lat="43.950189463433205" lon="11.397697924273512"><ele>190.2</ele><time>2026-04-10T12:34:56.001Z</time></trkpt><trkpt lat="43.95017285362775" lon="11.397839671627763"><ele>190.0</ele><time>2026-04-10T12:34:57.001Z</time></trkpt><trkpt lat="43.950171410900374" lon="11.3979919183155"><ele>190.0</ele><time>2026-04-10T12:34:58.001Z</time></trkpt><trkpt lat="43.95015217968292" lon="11.398143981779175"><ele>190.0</ele><time>2026-04-10T12:34:59.001Z</time></trkpt><trkpt lat="43.95013523946078" lon="11.398298163636296"><ele>190.0</ele><time>2026-04-10T12:35:00.001Z</time></trkpt><trkpt lat="43.95011797072029" lon="11.398444628497572"><ele>190.0</ele><time>2026-04-10T12:35:01.001Z</time></trkpt><trkpt lat="43.950101554200984" lon="11.398586825945214"><ele>190.0</ele><time>2026-04-10T12:35:02.001Z</time></trkpt><trkpt lat="43.950085385591144" lon="11.398724894148172"><ele>189.8</ele><time>2026-04-10T12:35:03.001Z</time></trkpt><trkpt lat="43.95005255550721" lon="11.398854753991197"><ele>189.6</ele><time>2026-04-10T12:35:04.001Z</time></trkpt><trkpt lat="43.95003669577591" lon="11.398983480514024"><ele>189.39999999999998</ele><time>2026-04-10T12:35:05.001Z</time></trkpt><trkpt lat="43.950021320589364" lon="11.399109769539136"><ele>189.2</ele><time>2026-04-10T12:35:06.001Z</time></trkpt><trkpt lat="43.95000629886027" lon="11.399232996314154"><ele>189.0</ele><time>2026-04-10T12:35:06.999Z</time></trkpt><trkpt lat="43.94999165169519" lon="11.399353150264016"><ele>188.66666666666666</ele><time>2026-04-10T12:35:07.999Z</time></trkpt><trkpt lat="43.94997722114635" lon="11.399471527417653"><ele>188.33333333333334</ele><time>2026-04-10T12:35:08.999Z</time></trkpt><trkpt lat="43.94997661182939" lon="11.399590104506425"><ele>188.0</ele><time>2026-04-10T12:35:09.999Z</time></trkpt><trkpt lat="43.94996099954475" lon="11.399714612826356"><ele>187.66666666666669</ele><time>2026-04-10T12:35:10.999Z</time></trkpt><trkpt lat="43.94994526661153" lon="11.39983856406299"><ele>187.33333333333334</ele><time>2026-04-10T12:35:11.999Z</time></trkpt><trkpt lat="43.949930304637924" lon="11.399957177138969"><ele>187.0</ele><time>2026-04-10T12:35:12.999Z</time></trkpt><trkpt lat="43.949915738530635" lon="11.400075404419376"><ele>187.0</ele><time>2026-04-10T12:35:13.999Z</time></trkpt><trkpt lat="43.94990358367269" lon="11.400189716914014"><ele>187.0</ele><time>2026-04-10T12:35:14.999Z</time></trkpt><trkpt lat="43.94989087798295" lon="11.400301927688794"><ele>187.0</ele><time>2026-04-10T12:35:15.999Z</time></trkpt><trkpt lat="43.94987587217172" lon="11.400413271531589"><ele>187.0</ele><time>2026-04-10T12:35:16.999Z</time></trkpt><trkpt lat="43.94986113510024" lon="11.400534919294236"><ele>187.0</ele><time>2026-04-10T12:35:17.999Z</time></trkpt><trkpt lat="43.949847036238396" lon="11.400659399018668"><ele>187.0</ele><time>2026-04-10T12:35:18.999Z</time></trkpt><trkpt lat="43.94983264620474" lon="11.400784049498732"><ele>187.0</ele><time>2026-04-10T12:35:19.999Z</time></trkpt><trkpt lat="43.94981969410553" lon="11.400902727913358"><ele>187.0</ele><time>2026-04-10T12:35:20.999Z</time></trkpt><trkpt lat="43.949805774264405" lon="11.401019110977282"><ele>187.0</ele><time>2026-04-10T12:35:21.999Z</time></trkpt><trkpt lat="43.949795686285604" lon="11.401127421205299"><ele>187.0</ele><time>2026-04-10T12:35:22.999Z</time></trkpt><trkpt lat="43.94978377041765" lon="11.401224825418113"><ele>187.0</ele><time>2026-04-10T12:35:23.999Z</time></trkpt><trkpt lat="43.94977224163239" lon="11.401315588313532"><ele>187.0</ele><time>2026-04-10T12:35:24.999Z</time></trkpt><trkpt lat="43.94975093774235" lon="11.401485248982556"><ele>187.25</ele><time>2026-04-10T12:35:26.999Z</time></trkpt><trkpt lat="43.94973357308527" lon="11.401614488236403"><ele>187.5</ele><time>2026-04-10T12:35:27.999Z</time></trkpt><trkpt lat="43.949705140921395" lon="11.401777804099849"><ele>187.75</ele><time>2026-04-10T12:35:28.999Z</time></trkpt><trkpt lat="43.9496792261832" lon="11.401962356525937"><ele>188.0</ele><time>2026-04-10T12:35:29.999Z</time></trkpt><trkpt lat="43.949655834854156" lon="11.402159584877849"><ele>188.25</ele><time>2026-04-10T12:35:30.999Z</time></trkpt><trkpt lat="43.949633178407346" lon="11.402361562038438"><ele>188.5</ele><time>2026-04-10T12:35:31.999Z</time></trkpt><trkpt lat="43.94961036516826" lon="11.40255791266848"><ele>188.75</ele><time>2026-04-10T12:35:32.999Z</time></trkpt><trkpt lat="43.94959117149283" lon="11.402747615555116"><ele>189.0</ele><time>2026-04-10T12:35:33.999Z</time></trkpt><trkpt lat="43.94957087455253" lon="11.402933319416457"><ele>189.25</ele><time>2026-04-10T12:35:34.999Z</time></trkpt><trkpt lat="43.94954833701004" lon="11.403116781559564"><ele>189.5</ele><time>2026-04-10T12:35:36Z</time></trkpt><trkpt lat="43.94952145800898" lon="11.40330715822408"><ele>189.75</ele><time>2026-04-10T12:35:37Z</time></trkpt><trkpt lat="43.94949049376043" lon="11.403508798165662"><ele>190.0</ele><time>2026-04-10T12:35:38Z</time></trkpt><trkpt lat="43.94945886135241" lon="11.403713412632406"><ele>190.0</ele><time>2026-04-10T12:35:39Z</time></trkpt><trkpt lat="43.94942379311105" lon="11.403918363297123"><ele>190.0</ele><time>2026-04-10T12:35:40Z</time></trkpt><trkpt lat="43.94938135363186" lon="11.404121920287901"><ele>190.0</ele><time>2026-04-10T12:35:41Z</time></trkpt><trkpt lat="43.94932755463285" lon="11.404312819259387"><ele>190.0</ele><time>2026-04-10T12:35:42Z</time></trkpt><trkpt lat="43.949276319243324" lon="11.40449174760099"><ele>190.0</ele><time>2026-04-10T12:35:43Z</time></trkpt><trkpt lat="43.949227319973886" lon="11.404667315096324"><ele>190.0</ele><time>2026-04-10T12:35:44Z</time></trkpt><trkpt lat="43.94918310406939" lon="11.404831536333635"><ele>190.0</ele><time>2026-04-10T12:35:45Z</time></trkpt><trkpt lat="43.94914734322388" lon="11.404979859065998"><ele>190.0</ele><time>2026-04-10T12:35:46Z</time></trkpt><trkpt lat="43.94911816478713" lon="11.405113912240472"><ele>190.0</ele><time>2026-04-10T12:35:47Z</time></trkpt><trkpt lat="43.94909030353971" lon="11.40524542437745"><ele>190.0</ele><time>2026-04-10T12:35:48Z</time></trkpt><trkpt lat="43.94907199893931" lon="11.405385045289007"><ele>190.0</ele><time>2026-04-10T12:35:49Z</time></trkpt><trkpt lat="43.94905498619232" lon="11.405539944821133"><ele>190.0</ele><time>2026-04-10T12:35:50Z</time></trkpt><trkpt lat="43.9490161104449" lon="11.405680137369092"><ele>190.0</ele><time>2026-04-10T12:35:51Z</time></trkpt><trkpt lat="43.948881779994146" lon="11.405956861677465"><ele>190.0</ele><time>2026-04-10T12:35:53Z</time></trkpt><trkpt lat="43.948784287203104" lon="11.406067911964891"><ele>190.0</ele><time>2026-04-10T12:35:54Z</time></trkpt><trkpt lat="43.94867407087892" lon="11.406188057017506"><ele>190.0</ele><time>2026-04-10T12:35:55Z</time></trkpt><trkpt lat="43.94855454526971" lon="11.40631210113119"><ele>190.0</ele><time>2026-04-10T12:35:56Z</time></trkpt><trkpt lat="43.94842382990924" lon="11.40644462798474"><ele>190.0</ele><time>2026-04-10T12:35:57Z</time></trkpt><trkpt lat="43.94828687118822" lon="11.406572501016605"><ele>191.0</ele><time>2026-04-10T12:35:58Z</time></trkpt><trkpt lat="43.948166644274686" lon="11.40669200201019"><ele>192.0</ele><time>2026-04-10T12:35:59Z</time></trkpt><trkpt lat="43.94805685139929" lon="11.406803404909056"><ele>193.0</ele><time>2026-04-10T12:36:00Z</time></trkpt><trkpt lat="43.94795080097865" lon="11.406906482716096"><ele>194.0</ele><time>2026-04-10T12:36:01Z</time></trkpt><trkpt lat="43.947845597624315" lon="11.407011912488297"><ele>194.0</ele><time>2026-04-10T12:36:02Z</time></trkpt><trkpt lat="43.94773793728204" lon="11.407117618835821"><ele>194.0</ele><time>2026-04-10T12:36:03Z</time></trkpt><trkpt lat="43.947631844499476" lon="11.407222641170705"><ele>194.0</ele><time>2026-04-10T12:36:04Z</time></trkpt><trkpt lat="43.947522068259744" lon="11.407332143440327"><ele>194.0</ele><time>2026-04-10T12:36:05Z</time></trkpt><trkpt lat="43.94740952948058" lon="11.407446680557127"><ele>194.25</ele><time>2026-04-10T12:36:06Z</time></trkpt><trkpt lat="43.94729853348217" lon="11.407565188340131"><ele>194.5</ele><time>2026-04-10T12:36:07Z</time></trkpt><trkpt lat="43.94718911240126" lon="11.407686366386097"><ele>194.75</ele><time>2026-04-10T12:36:08Z</time></trkpt><trkpt lat="43.947082006230715" lon="11.407820913800634"><ele>195.0</ele><time>2026-04-10T12:36:09Z</time></trkpt><trkpt lat="43.94698929126774" lon="11.407954968649445"><ele>195.25</ele><time>2026-04-10T12:36:10Z</time></trkpt><trkpt lat="43.94690096304833" lon="11.408097473773429"><ele>195.5</ele><time>2026-04-10T12:36:11Z</time></trkpt><trkpt lat="43.94681217115888" lon="11.408250382023029"><ele>195.75</ele><time>2026-04-10T12:36:12Z</time></trkpt><trkpt lat="43.9467224170897" lon="11.408404920727783"><ele>196.0</ele><time>2026-04-10T12:36:13Z</time></trkpt><trkpt lat="43.94663539851201" lon="11.408562820013652"><ele>196.0</ele><time>2026-04-10T12:36:14Z</time></trkpt><trkpt lat="43.94655175946241" lon="11.40873165151419"><ele>196.0</ele><time>2026-04-10T12:36:15Z</time></trkpt><trkpt lat="43.946470523934906" lon="11.408902191299607"><ele>196.0</ele><time>2026-04-10T12:36:16Z</time></trkpt><trkpt lat="43.94639279114463" lon="11.40907247013967"><ele>196.0</ele><time>2026-04-10T12:36:17Z</time></trkpt><trkpt lat="43.946318090128756" lon="11.409242665216766"><ele>196.0</ele><time>2026-04-10T12:36:18Z</time></trkpt><trkpt lat="43.94624068307921" lon="11.409417390096912"><ele>196.0</ele><time>2026-04-10T12:36:19.001Z</time></trkpt><trkpt lat="43.94616438047012" lon="11.409596262334638"><ele>196.0</ele><time>2026-04-10T12:36:20.001Z</time></trkpt><trkpt lat="43.94609054347749" lon="11.409775569279576"><ele>196.0</ele><time>2026-04-10T12:36:21.001Z</time></trkpt><trkpt lat="43.946018300016924" lon="11.409960233214344"><ele>195.5</ele><time>2026-04-10T12:36:22.001Z</time></trkpt><trkpt lat="43.945947995123426" lon="11.41013999096382"><ele>195.0</ele><time>2026-04-10T12:36:23.001Z</time></trkpt><trkpt lat="43.94587867076622" lon="11.410309052289305"><ele>194.5</ele><time>2026-04-10T12:36:24.001Z</time></trkpt><trkpt lat="43.94581148596201" lon="11.410470787560216"><ele>194.0</ele><time>2026-04-10T12:36:25.001Z</time></trkpt><trkpt lat="43.94574419618941" lon="11.410633884496281"><ele>193.5</ele><time>2026-04-10T12:36:26.001Z</time></trkpt><trkpt lat="43.94568000961499" lon="11.410793610260894"><ele>193.0</ele><time>2026-04-10T12:36:27.001Z</time></trkpt><trkpt lat="43.94561894906078" lon="11.41094779100615"><ele>192.5</ele><time>2026-04-10T12:36:28.001Z</time></trkpt><trkpt lat="43.94555625251698" lon="11.411100020647202"><ele>192.0</ele><time>2026-04-10T12:36:29.001Z</time></trkpt><trkpt lat="43.9454921352797" lon="11.411260036671122"><ele>192.25</ele><time>2026-04-10T12:36:30.001Z</time></trkpt><trkpt lat="43.94542306367592" lon="11.411423759787706"><ele>192.5</ele><time>2026-04-10T12:36:31.001Z</time></trkpt><trkpt lat="43.94535464357689" lon="11.41159347100827"><ele>192.75</ele><time>2026-04-10T12:36:32.001Z</time></trkpt><trkpt lat="43.9452892307661" lon="11.411754255283512"><ele>193.0</ele><time>2026-04-10T12:36:33.001Z</time></trkpt><trkpt lat="43.94522956495643" lon="11.41190901167681"><ele>193.0</ele><time>2026-04-10T12:36:34.001Z</time></trkpt><trkpt lat="43.94516802315464" lon="11.412060700390622"><ele>193.0</ele><time>2026-04-10T12:36:35.001Z</time></trkpt><trkpt lat="43.94510540888791" lon="11.412215341627782"><ele>193.0</ele><time>2026-04-10T12:36:36.001Z</time></trkpt><trkpt lat="43.94504175046682" lon="11.412375879197382"><ele>193.0</ele><time>2026-04-10T12:36:37.001Z</time></trkpt><trkpt lat="43.94497576199793" lon="11.412537615232182"><ele>194.25</ele><time>2026-04-10T12:36:38.001Z</time></trkpt><trkpt lat="43.94490618732112" lon="11.412710648514437"><ele>195.5</ele><time>2026-04-10T12:36:39.001Z</time></trkpt><trkpt lat="43.94483306738864" lon="11.412888526444439"><ele>196.75</ele><time>2026-04-10T12:36:40.001Z</time></trkpt><trkpt lat="43.944763161342514" lon="11.413053248010307"><ele>198.0</ele><time>2026-04-10T12:36:41.001Z</time></trkpt><trkpt lat="43.9446995970629" lon="11.413216540045877"><ele>198.0</ele><time>2026-04-10T12:36:42.001Z</time></trkpt><trkpt lat="43.94464197461968" lon="11.413382362351395"><ele>198.0</ele><time>2026-04-10T12:36:43.001Z</time></trkpt><trkpt lat="43.94459011564512" lon="11.413555162969589"><ele>198.0</ele><time>2026-04-10T12:36:44.001Z</time></trkpt><trkpt lat="43.9445541603595" lon="11.413737300790899"><ele>198.0</ele><time>2026-04-10T12:36:45.001Z</time></trkpt><trkpt lat="43.944536484931575" lon="11.413928746905123"><ele>198.0</ele><time>2026-04-10T12:36:46.001Z</time></trkpt><trkpt lat="43.944532485322675" lon="11.41411267689442"><ele>198.0</ele><time>2026-04-10T12:36:47.001Z</time></trkpt><trkpt lat="43.94453068072926" lon="11.414263603376973"><ele>198.0</ele><time>2026-04-10T12:36:48.001Z</time></trkpt><trkpt lat="43.944534650594655" lon="11.414393446164755"><ele>198.0</ele><time>2026-04-10T12:36:49.001Z</time></trkpt><trkpt lat="43.944539103058325" lon="11.414508345416966"><ele>198.0</ele><time>2026-04-10T12:36:50.001Z</time></trkpt><trkpt lat="43.94454156655703" lon="11.414624320504535"><ele>198.5</ele><time>2026-04-10T12:36:51.001Z</time></trkpt><trkpt lat="43.94454162696156" lon="11.414769897978493"><ele>199.0</ele><time>2026-04-10T12:36:52.001Z</time></trkpt><trkpt lat="43.94453883692302" lon="11.41495288133903"><ele>199.5</ele><time>2026-04-10T12:36:53.001Z</time></trkpt><trkpt lat="43.94453530466579" lon="11.415166007717183"><ele>200.0</ele><time>2026-04-10T12:36:54.001Z</time></trkpt><trkpt lat="43.944539742029335" lon="11.415403255578363"><ele>199.33333333333334</ele><time>2026-04-10T12:36:55.001Z</time></trkpt><trkpt lat="43.94454838593014" lon="11.415663183115283"><ele>198.66666666666669</ele><time>2026-04-10T12:36:56.001Z</time></trkpt><trkpt lat="43.944553269693444" lon="11.415922175122626"><ele>198.0</ele><time>2026-04-10T12:36:57.001Z</time></trkpt><trkpt lat="43.944547049392064" lon="11.41617270329197"><ele>197.33333333333331</ele><time>2026-04-10T12:36:58.001Z</time></trkpt><trkpt lat="43.94453393451675" lon="11.416412872064717"><ele>196.66666666666666</ele><time>2026-04-10T12:36:59.001Z</time></trkpt><trkpt lat="43.94450472209324" lon="11.416648012643517"><ele>196.0</ele><time>2026-04-10T12:37:00.001Z</time></trkpt><trkpt lat="43.944456633359025" lon="11.416878409598867"><ele>196.0</ele><time>2026-04-10T12:37:01.001Z</time></trkpt><trkpt lat="43.94439047053078" lon="11.41710131687064"><ele>196.0</ele><time>2026-04-10T12:37:02.001Z</time></trkpt><trkpt lat="43.94431478005614" lon="11.417313755438146"><ele>196.0</ele><time>2026-04-10T12:37:03.001Z</time></trkpt><trkpt lat="43.94423748381768" lon="11.417521882578203"><ele>196.0</ele><time>2026-04-10T12:37:04.001Z</time></trkpt><trkpt lat="43.94416227934593" lon="11.417724629263875"><ele>196.0</ele><time>2026-04-10T12:37:05.001Z</time></trkpt><trkpt lat="43.94408374208237" lon="11.417915706515876"><ele>196.0</ele><time>2026-04-10T12:37:06.001Z</time></trkpt><trkpt lat="43.94400373907103" lon="11.418106734066319"><ele>196.0</ele><time>2026-04-10T12:37:07.001Z</time></trkpt><trkpt lat="43.94392467894919" lon="11.418304805688255"><ele>196.0</ele><time>2026-04-10T12:37:08.001Z</time></trkpt><trkpt lat="43.94385056910231" lon="11.41850342362905"><ele>196.0</ele><time>2026-04-10T12:37:09.001Z</time></trkpt><trkpt lat="43.94377636766993" lon="11.418700025128683"><ele>196.0</ele><time>2026-04-10T12:37:10.001Z</time></trkpt><trkpt lat="43.94371120608272" lon="11.418899420897079"><ele>196.0</ele><time>2026-04-10T12:37:11.002Z</time></trkpt><trkpt lat="43.9436589831064" lon="11.419107363049608"><ele>196.0</ele><time>2026-04-10T12:37:12.002Z</time></trkpt><trkpt lat="43.943614820427335" lon="11.419327053900247"><ele>196.0</ele><time>2026-04-10T12:37:12.999Z</time></trkpt><trkpt lat="43.94357610682356" lon="11.419557612317952"><ele>196.0</ele><time>2026-04-10T12:37:13.999Z</time></trkpt><trkpt lat="43.94353614056068" lon="11.419793266561438"><ele>196.0</ele><time>2026-04-10T12:37:14.999Z</time></trkpt><trkpt lat="43.94349755360256" lon="11.420035909477509"><ele>196.0</ele><time>2026-04-10T12:37:15.999Z</time></trkpt><trkpt lat="43.94346239103301" lon="11.420285268304934"><ele>196.0</ele><time>2026-04-10T12:37:16.999Z</time></trkpt><trkpt lat="43.9434371536068" lon="11.420537581827572"><ele>196.0</ele><time>2026-04-10T12:37:17.999Z</time></trkpt><trkpt lat="43.943420813332985" lon="11.420791741373854"><ele>196.33333333333331</ele><time>2026-04-10T12:37:18.999Z</time></trkpt><trkpt lat="43.9434097054668" lon="11.421039486181337"><ele>196.66666666666669</ele><time>2026-04-10T12:37:19.999Z</time></trkpt><trkpt lat="43.94340298503325" lon="11.421275044020971"><ele>197.0</ele><time>2026-04-10T12:37:20.999Z</time></trkpt><trkpt lat="43.943394664413226" lon="11.421504954138394"><ele>197.0</ele><time>2026-04-10T12:37:21.999Z</time></trkpt><trkpt lat="43.943386886702626" lon="11.42172914644376"><ele>197.0</ele><time>2026-04-10T12:37:22.999Z</time></trkpt><trkpt lat="43.94337572673291" lon="11.42195501057589"><ele>197.0</ele><time>2026-04-10T12:37:23.999Z</time></trkpt><trkpt lat="43.943365140406875" lon="11.422189509496622"><ele>196.33333333333334</ele><time>2026-04-10T12:37:24.999Z</time></trkpt><trkpt lat="43.94335732247076" lon="11.422429902459438"><ele>195.66666666666669</ele><time>2026-04-10T12:37:25.999Z</time></trkpt><trkpt lat="43.94335111759776" lon="11.422677570819085"><ele>195.0</ele><time>2026-04-10T12:37:26.999Z</time></trkpt><trkpt lat="43.943342320682056" lon="11.422934661155631"><ele>195.0</ele><time>2026-04-10T12:37:27.999Z</time></trkpt><trkpt lat="43.9433331442606" lon="11.423201179756964"><ele>195.0</ele><time>2026-04-10T12:37:28.999Z</time></trkpt><trkpt lat="43.943325068114504" lon="11.423470426190573"><ele>195.0</ele><time>2026-04-10T12:37:29.999Z</time></trkpt><trkpt lat="43.943318250048286" lon="11.423744869033717"><ele>194.33333333333331</ele><time>2026-04-10T12:37:31Z</time></trkpt><trkpt lat="43.94330790892176" lon="11.424025413212405"><ele>193.66666666666666</ele><time>2026-04-10T12:37:32Z</time></trkpt><trkpt lat="43.943295323089096" lon="11.424312332128581"><ele>193.0</ele><time>2026-04-10T12:37:33Z</time></trkpt><trkpt lat="43.943285157412625" lon="11.424598979300514"><ele>192.0</ele><time>2026-04-10T12:37:34Z</time></trkpt><trkpt lat="43.943278447242974" lon="11.424869256306273"><ele>191.0</ele><time>2026-04-10T12:37:35Z</time></trkpt><trkpt lat="43.943269427848115" lon="11.425131180480998"><ele>190.0</ele><time>2026-04-10T12:37:36Z</time></trkpt><trkpt lat="43.94326114193398" lon="11.42538331041436"><ele>189.0</ele><time>2026-04-10T12:37:37Z</time></trkpt><trkpt lat="43.9432516918041" lon="11.425628587129346"><ele>188.0</ele><time>2026-04-10T12:37:38Z</time></trkpt><trkpt lat="43.94323961949621" lon="11.425870345878225"><ele>187.0</ele><time>2026-04-10T12:37:39Z</time></trkpt><trkpt lat="43.94322746575911" lon="11.42611511622499"><ele>187.0</ele><time>2026-04-10T12:37:40Z</time></trkpt><trkpt lat="43.94321605928922" lon="11.426363380550727"><ele>187.0</ele><time>2026-04-10T12:37:41Z</time></trkpt><trkpt lat="43.94321006604606" lon="11.426616729212334"><ele>187.0</ele><time>2026-04-10T12:37:42Z</time></trkpt><trkpt lat="43.943202699270046" lon="11.426876441118619"><ele>186.33333333333334</ele><time>2026-04-10T12:37:43Z</time></trkpt><trkpt lat="43.943190319842735" lon="11.427148660745546"><ele>185.66666666666666</ele><time>2026-04-10T12:37:44Z</time></trkpt><trkpt lat="43.943179269091324" lon="11.427424427579714"><ele>185.0</ele><time>2026-04-10T12:37:45Z</time></trkpt><trkpt lat="43.94316698821919" lon="11.427705902334168"><ele>185.33333333333331</ele><time>2026-04-10T12:37:46Z</time></trkpt><trkpt lat="43.943157717687235" lon="11.427984984277083"><ele>185.66666666666666</ele><time>2026-04-10T12:37:47Z</time></trkpt><trkpt lat="43.94315101730935" lon="11.428256881867254"><ele>186.0</ele><time>2026-04-10T12:37:48Z</time></trkpt><trkpt lat="43.94314663677878" lon="11.428527824619131"><ele>186.0</ele><time>2026-04-10T12:37:49Z</time></trkpt><trkpt lat="43.94314052844399" lon="11.428794254506272"><ele>186.0</ele><time>2026-04-10T12:37:50Z</time></trkpt><trkpt lat="43.94313064993978" lon="11.429068092780241"><ele>186.0</ele><time>2026-04-10T12:37:51Z</time></trkpt><trkpt lat="43.94311967786377" lon="11.429322638888795"><ele>186.0</ele><time>2026-04-10T12:37:52Z</time></trkpt><trkpt lat="43.94310462424718" lon="11.429575321977941"><ele>186.0</ele><time>2026-04-10T12:37:53Z</time></trkpt><trkpt lat="43.94304489939244" lon="11.429791948093547"><ele>186.0</ele><time>2026-04-10T12:37:54Z</time></trkpt><trkpt lat="43.942934562599554" lon="11.429946144655426"><ele>186.0</ele><time>2026-04-10T12:37:55Z</time></trkpt><trkpt lat="43.94278723547483" lon="11.430054356729514"><ele>186.0</ele><time>2026-04-10T12:37:56Z</time></trkpt><trkpt lat="43.94262941101374" lon="11.430148269484416"><ele>186.0</ele><time>2026-04-10T12:37:57Z</time></trkpt><trkpt lat="43.942487282216455" lon="11.430243153502612"><ele>186.0</ele><time>2026-04-10T12:37:58Z</time></trkpt><trkpt lat="43.94236770269183" lon="11.430357783378508"><ele>186.0</ele><time>2026-04-10T12:37:59Z</time></trkpt><trkpt lat="43.942278386672385" lon="11.430525519816218"><ele>186.0</ele><time>2026-04-10T12:38:00Z</time></trkpt><trkpt lat="43.942216627326246" lon="11.430734160915923"><ele>187.33333333333334</ele><time>2026-04-10T12:38:01Z</time></trkpt><trkpt lat="43.94217431251998" lon="11.430950050738097"><ele>188.66666666666669</ele><time>2026-04-10T12:38:02Z</time></trkpt><trkpt lat="43.942144369665634" lon="11.431153159598223"><ele>190.0</ele><time>2026-04-10T12:38:03Z</time></trkpt><trkpt lat="43.94213394288354" lon="11.431372217989985"><ele>190.66666666666669</ele><time>2026-04-10T12:38:04Z</time></trkpt><trkpt lat="43.94214753326892" lon="11.431608801420657"><ele>191.33333333333334</ele><time>2026-04-10T12:38:05Z</time></trkpt><trkpt lat="43.94215647407059" lon="11.431849378311396"><ele>192.0</ele><time>2026-04-10T12:38:06.001Z</time></trkpt><trkpt lat="43.94214665348084" lon="11.432100788351587"><ele>192.0</ele><time>2026-04-10T12:38:07.001Z</time></trkpt><trkpt lat="43.942118899974616" lon="11.432348749541312"><ele>192.0</ele><time>2026-04-10T12:38:08.001Z</time></trkpt><trkpt lat="43.94206781919073" lon="11.432597802936717"><ele>192.0</ele><time>2026-04-10T12:38:09.001Z</time></trkpt><trkpt lat="43.94199868356152" lon="11.43284801872527"><ele>191.66666666666666</ele><time>2026-04-10T12:38:10.001Z</time></trkpt><trkpt lat="43.94193118991633" lon="11.433102420702658"><ele>191.33333333333331</ele><time>2026-04-10T12:38:11.001Z</time></trkpt><trkpt lat="43.941869904537825" lon="11.433360890297704"><ele>191.0</ele><time>2026-04-10T12:38:12.001Z</time></trkpt><trkpt lat="43.941814748597835" lon="11.433628403330298"><ele>189.66666666666666</ele><time>2026-04-10T12:38:13.001Z</time></trkpt><trkpt lat="43.94177026880959" lon="11.433892910299697"><ele>188.33333333333334</ele><time>2026-04-10T12:38:14.001Z</time></trkpt><trkpt lat="43.94173289589316" lon="11.434152750165588"><ele>187.0</ele><time>2026-04-10T12:38:15.001Z</time></trkpt><trkpt lat="43.9417001150475" lon="11.4344109136679"><ele>188.0</ele><time>2026-04-10T12:38:16.001Z</time></trkpt><trkpt lat="43.941667222013585" lon="11.43466546900354"><ele>189.0</ele><time>2026-04-10T12:38:17.001Z</time></trkpt><trkpt lat="43.941629366617626" lon="11.434911981852617"><ele>190.0</ele><time>2026-04-10T12:38:18.001Z</time></trkpt><trkpt lat="43.94157992345303" lon="11.43514886023592"><ele>190.0</ele><time>2026-04-10T12:38:19.001Z</time></trkpt><trkpt lat="43.94151163083408" lon="11.435366089282478"><ele>190.0</ele><time>2026-04-10T12:38:20.001Z</time></trkpt><trkpt lat="43.941431224735624" lon="11.435565462175624"><ele>190.0</ele><time>2026-04-10T12:38:21.001Z</time></trkpt><trkpt lat="43.94133895158969" lon="11.43574267788224"><ele>190.33333333333334</ele><time>2026-04-10T12:38:22.001Z</time></trkpt><trkpt lat="43.94123283138076" lon="11.435907244753832"><ele>190.66666666666666</ele><time>2026-04-10T12:38:23.001Z</time></trkpt><trkpt lat="43.94111706094842" lon="11.43607489411926"><ele>191.0</ele><time>2026-04-10T12:38:24.001Z</time></trkpt><trkpt lat="43.94099102663412" lon="11.436234196919159"><ele>189.66666666666666</ele><time>2026-04-10T12:38:25.001Z</time></trkpt><trkpt lat="43.94084738841565" lon="11.436373573242133"><ele>188.33333333333334</ele><time>2026-04-10T12:38:26.001Z</time></trkpt><trkpt lat="43.94069403322051" lon="11.436502070700469"><ele>187.0</ele><time>2026-04-10T12:38:27.001Z</time></trkpt><trkpt lat="43.94053510786786" lon="11.436630925672018"><ele>187.0</ele><time>2026-04-10T12:38:28.001Z</time></trkpt><trkpt lat="43.94038223046689" lon="11.436774196849605"><ele>187.0</ele><time>2026-04-10T12:38:29.001Z</time></trkpt><trkpt lat="43.940231950175125" lon="11.436932673806368"><ele>187.0</ele><time>2026-04-10T12:38:30.001Z</time></trkpt><trkpt lat="43.940084762281" lon="11.437103917088118"><ele>187.33333333333334</ele><time>2026-04-10T12:38:31.001Z</time></trkpt><trkpt lat="43.93994197511215" lon="11.437287680843987"><ele>187.66666666666666</ele><time>2026-04-10T12:38:32.001Z</time></trkpt><trkpt lat="43.939801792422294" lon="11.437474572353764"><ele>188.0</ele><time>2026-04-10T12:38:33.001Z</time></trkpt><trkpt lat="43.93967063577776" lon="11.437658554138984"><ele>188.0</ele><time>2026-04-10T12:38:34.001Z</time></trkpt><trkpt lat="43.939548126443526" lon="11.437844014161541"><ele>188.0</ele><time>2026-04-10T12:38:35.001Z</time></trkpt><trkpt lat="43.93943623141611" lon="11.438043391361049"><ele>188.0</ele><time>2026-04-10T12:38:36.001Z</time></trkpt><trkpt lat="43.9393371126982" lon="11.43825974223839"><ele>186.33333333333331</ele><time>2026-04-10T12:38:37.001Z</time></trkpt><trkpt lat="43.939243607157685" lon="11.43849140337084"><ele>184.66666666666666</ele><time>2026-04-10T12:38:38.001Z</time></trkpt><trkpt lat="43.93915331499109" lon="11.438730913403562"><ele>183.0</ele><time>2026-04-10T12:38:39.001Z</time></trkpt><trkpt lat="43.93906570216377" lon="11.438973612324931"><ele>183.0</ele><time>2026-04-10T12:38:40.001Z</time></trkpt><trkpt lat="43.938962691680516" lon="11.43920581301439"><ele>183.0</ele><time>2026-04-10T12:38:41.001Z</time></trkpt><trkpt lat="43.93888518982444" lon="11.439458136368449"><ele>183.0</ele><time>2026-04-10T12:38:42.001Z</time></trkpt><trkpt lat="43.938790869048105" lon="11.439698611241397"><ele>183.0</ele><time>2026-04-10T12:38:43.001Z</time></trkpt><trkpt lat="43.93870103499328" lon="11.439931827252805"><ele>183.0</ele><time>2026-04-10T12:38:44.001Z</time></trkpt><trkpt lat="43.93860996933918" lon="11.440166161088934"><ele>183.0</ele><time>2026-04-10T12:38:45.001Z</time></trkpt><trkpt lat="43.938517521750136" lon="11.440400926503315"><ele>182.66666666666666</ele><time>2026-04-10T12:38:46.001Z</time></trkpt><trkpt lat="43.938428976613665" lon="11.440638829307652"><ele>182.33333333333331</ele><time>2026-04-10T12:38:47.001Z</time></trkpt><trkpt lat="43.938341250630984" lon="11.440876681769915"><ele>182.0</ele><time>2026-04-10T12:38:48.001Z</time></trkpt><trkpt lat="43.938254910092496" lon="11.441109653279142"><ele>183.33333333333331</ele><time>2026-04-10T12:38:49.001Z</time></trkpt><trkpt lat="43.93816810450425" lon="11.441339213032503"><ele>184.66666666666666</ele><time>2026-04-10T12:38:50.001Z</time></trkpt><trkpt lat="43.938081695922904" lon="11.441567038940722"><ele>186.0</ele><time>2026-04-10T12:38:51.002Z</time></trkpt><trkpt lat="43.93799592548617" lon="11.441793345998247"><ele>186.0</ele><time>2026-04-10T12:38:52.002Z</time></trkpt><trkpt lat="43.93790965671768" lon="11.442019518672812"><ele>186.0</ele><time>2026-04-10T12:38:53.002Z</time></trkpt><trkpt lat="43.93782262172756" lon="11.442244419238294"><ele>186.0</ele><time>2026-04-10T12:38:54.002Z</time></trkpt><trkpt lat="43.937736600048545" lon="11.442468784513775"><ele>186.0</ele><time>2026-04-10T12:38:55.002Z</time></trkpt><trkpt lat="43.93765232228992" lon="11.442694290027644"><ele>186.0</ele><time>2026-04-10T12:38:56.002Z</time></trkpt><trkpt lat="43.93756744685577" lon="11.442920915744242"><ele>186.0</ele><time>2026-04-10T12:38:57.002Z</time></trkpt><trkpt lat="43.937481675947815" lon="11.443146983335831"><ele>184.0</ele><time>2026-04-10T12:38:58.002Z</time></trkpt><trkpt lat="43.93739728004025" lon="11.443374341962162"><ele>182.0</ele><time>2026-04-10T12:38:59.002Z</time></trkpt><trkpt lat="43.937315262887886" lon="11.443602711114215"><ele>180.0</ele><time>2026-04-10T12:39:00.002Z</time></trkpt><trkpt lat="43.9372300965074" lon="11.443833262398437"><ele>180.0</ele><time>2026-04-10T12:39:01.002Z</time></trkpt><trkpt lat="43.93714532613331" lon="11.444063470806292"><ele>180.0</ele><time>2026-04-10T12:39:02.002Z</time></trkpt><trkpt lat="43.9370590153725" lon="11.444297137675026"><ele>180.0</ele><time>2026-04-10T12:39:03.002Z</time></trkpt><trkpt lat="43.936970446571884" lon="11.444533585342665"><ele>179.66666666666666</ele><time>2026-04-10T12:39:04.002Z</time></trkpt><trkpt lat="43.936882879074425" lon="11.444775377142408"><ele>179.33333333333331</ele><time>2026-04-10T12:39:05.002Z</time></trkpt><trkpt lat="43.93679107408546" lon="11.445017291325266"><ele>179.0</ele><time>2026-04-10T12:39:06.002Z</time></trkpt><trkpt lat="43.93669867202612" lon="11.445259933608762"><ele>179.0</ele><time>2026-04-10T12:39:07.002Z</time></trkpt><trkpt lat="43.93660927915818" lon="11.445491139148173"><ele>179.0</ele><time>2026-04-10T12:39:08.002Z</time></trkpt><trkpt lat="43.93652169049187" lon="11.445719230272518"><ele>179.0</ele><time>2026-04-10T12:39:09.002Z</time></trkpt><trkpt lat="43.93643583123155" lon="11.44595201231181"><ele>179.0</ele><time>2026-04-10T12:39:10.002Z</time></trkpt><trkpt lat="43.936353046117254" lon="11.446182756182"><ele>179.0</ele><time>2026-04-10T12:39:11.002Z</time></trkpt><trkpt lat="43.93626848842647" lon="11.446410666346212"><ele>179.0</ele><time>2026-04-10T12:39:12.002Z</time></trkpt><trkpt lat="43.93618432426401" lon="11.446636550294128"><ele>179.33333333333331</ele><time>2026-04-10T12:39:13.002Z</time></trkpt><trkpt lat="43.93609970159178" lon="11.446860379571275"><ele>179.66666666666666</ele><time>2026-04-10T12:39:14.002Z</time></trkpt><trkpt lat="43.936013841015274" lon="11.44708348782721"><ele>180.0</ele><time>2026-04-10T12:39:15.002Z</time></trkpt><trkpt lat="43.93592513901369" lon="11.447302609091361"><ele>179.66666666666666</ele><time>2026-04-10T12:39:16.002Z</time></trkpt><trkpt lat="43.93583562102852" lon="11.447517094836524"><ele>179.33333333333331</ele><time>2026-04-10T12:39:17.002Z</time></trkpt><trkpt lat="43.93574366927581" lon="11.447726724155755"><ele>179.0</ele><time>2026-04-10T12:39:18.002Z</time></trkpt><trkpt lat="43.93565224511055" lon="11.44792714533725"><ele>179.33333333333331</ele><time>2026-04-10T12:39:19Z</time></trkpt><trkpt lat="43.93556017257287" lon="11.448122041820875"><ele>179.66666666666666</ele><time>2026-04-10T12:39:20Z</time></trkpt><trkpt lat="43.935468841306275" lon="11.448307343794308"><ele>180.0</ele><time>2026-04-10T12:39:21Z</time></trkpt><trkpt lat="43.93537663764327" lon="11.448482327871007"><ele>180.0</ele><time>2026-04-10T12:39:22Z</time></trkpt><trkpt lat="43.93528593243969" lon="11.448651233638069"><ele>180.0</ele><time>2026-04-10T12:39:23Z</time></trkpt><trkpt lat="43.935199066229224" lon="11.448808224694973"><ele>180.0</ele><time>2026-04-10T12:39:24Z</time></trkpt><trkpt lat="43.93511433600778" lon="11.44895761436845"><ele>180.0</ele><time>2026-04-10T12:39:25Z</time></trkpt><trkpt lat="43.93503357677682" lon="11.449103241206272"><ele>179.75</ele><time>2026-04-10T12:39:26Z</time></trkpt><trkpt lat="43.93495269214111" lon="11.449241732494306"><ele>179.5</ele><time>2026-04-10T12:39:27Z</time></trkpt><trkpt lat="43.934875835804895" lon="11.44937773378231"><ele>179.25</ele><time>2026-04-10T12:39:28Z</time></trkpt><trkpt lat="43.93479845422764" lon="11.449511192385705"><ele>179.0</ele><time>2026-04-10T12:39:29Z</time></trkpt><trkpt lat="43.934717825376694" lon="11.449649303656596"><ele>179.5</ele><time>2026-04-10T12:39:30Z</time></trkpt><trkpt lat="43.9346370412498" lon="11.449785510518723"><ele>180.0</ele><time>2026-04-10T12:39:31Z</time></trkpt><trkpt lat="43.934560760289536" lon="11.449918864205204"><ele>180.5</ele><time>2026-04-10T12:39:32Z</time></trkpt><trkpt lat="43.93448966688291" lon="11.450058361835477"><ele>181.0</ele><time>2026-04-10T12:39:33Z</time></trkpt><trkpt lat="43.93442020561024" lon="11.450206394764962"><ele>181.0</ele><time>2026-04-10T12:39:34Z</time></trkpt><trkpt lat="43.93435525113778" lon="11.450367974636341"><ele>181.0</ele><time>2026-04-10T12:39:35Z</time></trkpt><trkpt lat="43.934295001875654" lon="11.450530769685194"><ele>181.0</ele><time>2026-04-10T12:39:36Z</time></trkpt><trkpt lat="43.93423893404066" lon="11.450689199101747"><ele>181.0</ele><time>2026-04-10T12:39:37Z</time></trkpt><trkpt lat="43.93418733483003" lon="11.450852011976162"><ele>181.25</ele><time>2026-04-10T12:39:38Z</time></trkpt><trkpt lat="43.93414140114134" lon="11.451013858341222"><ele>181.5</ele><time>2026-04-10T12:39:39Z</time></trkpt><trkpt lat="43.934104985621666" lon="11.451180609353528"><ele>181.75</ele><time>2026-04-10T12:39:40Z</time></trkpt><trkpt lat="43.93408478583376" lon="11.45134481130948"><ele>182.0</ele><time>2026-04-10T12:39:41Z</time></trkpt><trkpt lat="43.934074010545594" lon="11.45151505808076"><ele>182.0</ele><time>2026-04-10T12:39:42Z</time></trkpt><trkpt lat="43.934073177366955" lon="11.451678819648132"><ele>182.0</ele><time>2026-04-10T12:39:43Z</time></trkpt><trkpt lat="43.93408077884353" lon="11.451847958258524"><ele>182.0</ele><time>2026-04-10T12:39:44Z</time></trkpt><trkpt lat="43.93410298264273" lon="11.452001107161983"><ele>182.0</ele><time>2026-04-10T12:39:45Z</time></trkpt><trkpt lat="43.93413401952859" lon="11.45214957149399"><ele>182.0</ele><time>2026-04-10T12:39:46Z</time></trkpt><trkpt lat="43.93416797371966" lon="11.452294467432031"><ele>182.0</ele><time>2026-04-10T12:39:47Z</time></trkpt><trkpt lat="43.93420320846051" lon="11.45242880535887"><ele>182.0</ele><time>2026-04-10T12:39:48Z</time></trkpt><trkpt lat="43.93424158973907" lon="11.452545314128592"><ele>182.0</ele><time>2026-04-10T12:39:49Z</time></trkpt><trkpt lat="43.93428038069019" lon="11.452649243110898"><ele>182.0</ele><time>2026-04-10T12:39:50Z</time></trkpt><trkpt lat="43.934323131803104" lon="11.452748511421964"><ele>182.33333333333331</ele><time>2026-04-10T12:39:51Z</time></trkpt><trkpt lat="43.93436307646514" lon="11.452844353394692"><ele>182.66666666666666</ele><time>2026-04-10T12:39:52Z</time></trkpt><trkpt lat="43.93440162042347" lon="11.452943587413095"><ele>183.0</ele><time>2026-04-10T12:39:53Z</time></trkpt><trkpt lat="43.93444254779371" lon="11.453050379182962"><ele>183.33333333333334</ele><time>2026-04-10T12:39:54Z</time></trkpt><trkpt lat="43.93448338179212" lon="11.453161144667602"><ele>183.66666666666669</ele><time>2026-04-10T12:39:55Z</time></trkpt><trkpt lat="43.934522843287496" lon="11.453282303923691"><ele>184.0</ele><time>2026-04-10T12:39:56Z</time></trkpt><trkpt lat="43.93455114057064" lon="11.453420249865307"><ele>184.0</ele><time>2026-04-10T12:39:57Z</time></trkpt><trkpt lat="43.93457286062551" lon="11.453567046674783"><ele>184.0</ele><time>2026-04-10T12:39:58Z</time></trkpt><trkpt lat="43.93459016155921" lon="11.4537152435795"><ele>184.0</ele><time>2026-04-10T12:39:59Z</time></trkpt><trkpt lat="43.934591864366894" lon="11.453860086430069"><ele>184.0</ele><time>2026-04-10T12:40:00Z</time></trkpt><trkpt lat="43.93457979958361" lon="11.454008149104924"><ele>184.0</ele><time>2026-04-10T12:40:01Z</time></trkpt><trkpt lat="43.93455837193801" lon="11.454149440270301"><ele>183.2</ele><time>2026-04-10T12:40:02Z</time></trkpt><trkpt lat="43.93453085803529" lon="11.454280911523608"><ele>182.39999999999998</ele><time>2026-04-10T12:40:03.001Z</time></trkpt><trkpt lat="43.934500660230285" lon="11.45440741299073"><ele>181.6</ele><time>2026-04-10T12:40:04.001Z</time></trkpt><trkpt lat="43.93447280731021" lon="11.454531427973746"><ele>180.8</ele><time>2026-04-10T12:40:05.001Z</time></trkpt><trkpt lat="43.9344447946409" lon="11.45465339168037"><ele>180.0</ele><time>2026-04-10T12:40:06.001Z</time></trkpt><trkpt lat="43.93439638459975" lon="11.454904732459706"><ele>179.8</ele><time>2026-04-10T12:40:08.001Z</time></trkpt><trkpt lat="43.93437173991127" lon="11.455037269523183"><ele>179.6</ele><time>2026-04-10T12:40:09.001Z</time></trkpt><trkpt lat="43.93434378174226" lon="11.455167649728343"><ele>179.39999999999998</ele><time>2026-04-10T12:40:10.001Z</time></trkpt><trkpt lat="43.93432041356667" lon="11.45529162970375"><ele>179.2</ele><time>2026-04-10T12:40:11.001Z</time></trkpt><trkpt lat="43.93429591746467" lon="11.455413508397692"><ele>179.0</ele><time>2026-04-10T12:40:12.001Z</time></trkpt><trkpt lat="43.934271726493506" lon="11.455535924915148"><ele>179.0</ele><time>2026-04-10T12:40:13.001Z</time></trkpt><trkpt lat="43.934247051174424" lon="11.45565461389566"><ele>179.0</ele><time>2026-04-10T12:40:14.001Z</time></trkpt><trkpt lat="43.934221465102524" lon="11.455773148808728"><ele>179.0</ele><time>2026-04-10T12:40:15.001Z</time></trkpt><trkpt lat="43.934196687684555" lon="11.45589300046878"><ele>179.0</ele><time>2026-04-10T12:40:16.001Z</time></trkpt><trkpt lat="43.93417105666993" lon="11.45601856237594"><ele>179.0</ele><time>2026-04-10T12:40:17.001Z</time></trkpt><trkpt lat="43.934144168830265" lon="11.456148813096494"><ele>179.0</ele><time>2026-04-10T12:40:18.001Z</time></trkpt><trkpt lat="43.934124650010375" lon="11.456283435067723"><ele>179.0</ele><time>2026-04-10T12:40:19.001Z</time></trkpt><trkpt lat="43.934102775551146" lon="11.45642429730955"><ele>179.0</ele><time>2026-04-10T12:40:20.001Z</time></trkpt><trkpt lat="43.93408031743781" lon="11.456570441086622"><ele>179.0</ele><time>2026-04-10T12:40:21.001Z</time></trkpt><trkpt lat="43.934057260742044" lon="11.45671640354785"><ele>179.0</ele><time>2026-04-10T12:40:22.001Z</time></trkpt><trkpt lat="43.9340367685309" lon="11.456858991585916"><ele>179.2</ele><time>2026-04-10T12:40:23.001Z</time></trkpt><trkpt lat="43.93401884603381" lon="11.456992503685518"><ele>179.39999999999998</ele><time>2026-04-10T12:40:24.001Z</time></trkpt><trkpt lat="43.93399935938395" lon="11.457128861307314"><ele>179.6</ele><time>2026-04-10T12:40:25.001Z</time></trkpt><trkpt lat="43.933980025489504" lon="11.457272959979976"><ele>179.8</ele><time>2026-04-10T12:40:26.001Z</time></trkpt><trkpt lat="43.933956336376745" lon="11.457433413507413"><ele>180.0</ele><time>2026-04-10T12:40:27.001Z</time></trkpt><trkpt lat="43.93392663728097" lon="11.457612417139442"><ele>180.2</ele><time>2026-04-10T12:40:28.001Z</time></trkpt><trkpt lat="43.9339056820016" lon="11.457771336719846"><ele>180.4</ele><time>2026-04-10T12:40:29.001Z</time></trkpt><trkpt lat="43.93388964633252" lon="11.457920567030644"><ele>180.60000000000002</ele><time>2026-04-10T12:40:30.001Z</time></trkpt><trkpt lat="43.933874134878444" lon="11.458064488247825"><ele>180.8</ele><time>2026-04-10T12:40:31.001Z</time></trkpt><trkpt lat="43.93385957140131" lon="11.458206594158712"><ele>181.0</ele><time>2026-04-10T12:40:32.001Z</time></trkpt><trkpt lat="43.933841160723134" lon="11.458353035602702"><ele>181.20000000000002</ele><time>2026-04-10T12:40:33.001Z</time></trkpt><trkpt lat="43.93381971703161" lon="11.45850015858854"><ele>181.4</ele><time>2026-04-10T12:40:34.001Z</time></trkpt><trkpt lat="43.933805473823405" lon="11.45863808102555"><ele>181.6</ele><time>2026-04-10T12:40:35.001Z</time></trkpt><trkpt lat="43.93379201316263" lon="11.458768625072677"><ele>181.8</ele><time>2026-04-10T12:40:36.001Z</time></trkpt><trkpt lat="43.93377205032246" lon="11.458895980814887"><ele>182.0</ele><time>2026-04-10T12:40:37.001Z</time></trkpt><trkpt lat="43.933730161415795" lon="11.459010305385783"><ele>182.39999999999998</ele><time>2026-04-10T12:40:38.001Z</time></trkpt><trkpt lat="43.93371363249058" lon="11.459134014774008"><ele>182.79999999999998</ele><time>2026-04-10T12:40:39.001Z</time></trkpt><trkpt lat="43.93367125486297" lon="11.459253841971654"><ele>183.2</ele><time>2026-04-10T12:40:40.001Z</time></trkpt><trkpt lat="43.93362257813395" lon="11.459380455426531"><ele>183.6</ele><time>2026-04-10T12:40:41.001Z</time></trkpt><trkpt lat="43.93355987659702" lon="11.459514609067796"><ele>184.0</ele><time>2026-04-10T12:40:42.001Z</time></trkpt><trkpt lat="43.93348493654254" lon="11.459646682566481"><ele>184.0</ele><time>2026-04-10T12:40:43.001Z</time></trkpt><trkpt lat="43.93340605081508" lon="11.459775099460712"><ele>184.0</ele><time>2026-04-10T12:40:44.001Z</time></trkpt><trkpt lat="43.93333064133539" lon="11.45989656040084"><ele>184.0</ele><time>2026-04-10T12:40:45.001Z</time></trkpt><trkpt lat="43.933254859478495" lon="11.460021068050136"><ele>184.0</ele><time>2026-04-10T12:40:46.002Z</time></trkpt><trkpt lat="43.93317683571775" lon="11.460152898925747"><ele>184.0</ele><time>2026-04-10T12:40:47.002Z</time></trkpt><trkpt lat="43.93309741744503" lon="11.460286599446698"><ele>184.0</ele><time>2026-04-10T12:40:48.002Z</time></trkpt><trkpt lat="43.93301914455264" lon="11.460413472265827"><ele>184.0</ele><time>2026-04-10T12:40:49.002Z</time></trkpt><trkpt lat="43.93294107011395" lon="11.460541181664919"><ele>184.0</ele><time>2026-04-10T12:40:50.002Z</time></trkpt><trkpt lat="43.9328627971863" lon="11.460670565219552"><ele>184.25</ele><time>2026-04-10T12:40:51.002Z</time></trkpt><trkpt lat="43.9327828251579" lon="11.460802055274424"><ele>184.5</ele><time>2026-04-10T12:40:52.002Z</time></trkpt><trkpt lat="43.93270329649797" lon="11.460938434997882"><ele>184.75</ele><time>2026-04-10T12:40:53.002Z</time></trkpt><trkpt lat="43.93262971847327" lon="11.461076088023145"><ele>185.0</ele><time>2026-04-10T12:40:54.002Z</time></trkpt><trkpt lat="43.93255854919309" lon="11.461222030042197"><ele>184.25</ele><time>2026-04-10T12:40:55.002Z</time></trkpt><trkpt lat="43.93249838541711" lon="11.461373940813145"><ele>183.5</ele><time>2026-04-10T12:40:56.002Z</time></trkpt><trkpt lat="43.93244450295398" lon="11.461525057287481"><ele>182.75</ele><time>2026-04-10T12:40:57.002Z</time></trkpt><trkpt lat="43.93239393736871" lon="11.461676164694175"><ele>182.0</ele><time>2026-04-10T12:40:58.002Z</time></trkpt><trkpt lat="43.93234807848454" lon="11.46182358762366"><ele>182.0</ele><time>2026-04-10T12:40:59.002Z</time></trkpt><trkpt lat="43.93230351386041" lon="11.461972142452892"><ele>182.0</ele><time>2026-04-10T12:41:00.002Z</time></trkpt><trkpt lat="43.93226342780658" lon="11.462120280607822"><ele>182.0</ele><time>2026-04-10T12:41:01.002Z</time></trkpt><trkpt lat="43.932226083706176" lon="11.462264966047268"><ele>182.0</ele><time>2026-04-10T12:41:02.002Z</time></trkpt><trkpt lat="43.93218835269705" lon="11.462410187108183"><ele>182.25</ele><time>2026-04-10T12:41:03.002Z</time></trkpt><trkpt lat="43.93215142640837" lon="11.462554216904216"><ele>182.5</ele><time>2026-04-10T12:41:04.002Z</time></trkpt><trkpt lat="43.932116372717424" lon="11.462695857766995"><ele>182.75</ele><time>2026-04-10T12:41:05.002Z</time></trkpt><trkpt lat="43.93207833908138" lon="11.46284521055352"><ele>183.0</ele><time>2026-04-10T12:41:06.002Z</time></trkpt><trkpt lat="43.932035148327415" lon="11.463005413310453"><ele>183.75</ele><time>2026-04-10T12:41:07.002Z</time></trkpt><trkpt lat="43.93198478593787" lon="11.463174297378435"><ele>184.5</ele><time>2026-04-10T12:41:08.002Z</time></trkpt><trkpt lat="43.931933646283646" lon="11.463360329043528"><ele>185.25</ele><time>2026-04-10T12:41:09.002Z</time></trkpt><trkpt lat="43.93186101142607" lon="11.46356662450025"><ele>186.0</ele><time>2026-04-10T12:41:10.002Z</time></trkpt><trkpt lat="43.931800629551724" lon="11.463775224796454"><ele>183.66666666666666</ele><time>2026-04-10T12:41:11.002Z</time></trkpt><trkpt lat="43.93171759785717" lon="11.46405953254676"><ele>181.33333333333331</ele><time>2026-04-10T12:41:12.002Z</time></trkpt><trkpt lat="43.9316451234554" lon="11.464303574459255"><ele>179.0</ele><time>2026-04-10T12:41:13.002Z</time></trkpt><trkpt lat="43.93156097120598" lon="11.464532665207642"><ele>181.0</ele><time>2026-04-10T12:41:14.002Z</time></trkpt><trkpt lat="43.931435078172264" lon="11.464729035831349"><ele>183.0</ele><time>2026-04-10T12:41:15.002Z</time></trkpt><trkpt lat="43.931298517338256" lon="11.464926171598401"><ele>185.0</ele><time>2026-04-10T12:41:16.002Z</time></trkpt><trkpt lat="43.93116167961887" lon="11.465125345084626"><ele>185.0</ele><time>2026-04-10T12:41:17.002Z</time></trkpt><trkpt lat="43.931027719988684" lon="11.465316764433338"><ele>185.0</ele><time>2026-04-10T12:41:18.002Z</time></trkpt><trkpt lat="43.930898375353365" lon="11.465498462212922"><ele>185.0</ele><time>2026-04-10T12:41:19.002Z</time></trkpt><trkpt lat="43.93077912431886" lon="11.465681533501005"><ele>184.33333333333331</ele><time>2026-04-10T12:41:20.002Z</time></trkpt><trkpt lat="43.930670498571786" lon="11.465887370663149"><ele>183.66666666666666</ele><time>2026-04-10T12:41:21.002Z</time></trkpt><trkpt lat="43.9305725858833" lon="11.46611057119208"><ele>183.0</ele><time>2026-04-10T12:41:22.002Z</time></trkpt><trkpt lat="43.93049074738661" lon="11.466350571917184"><ele>185.0</ele><time>2026-04-10T12:41:23.002Z</time></trkpt><trkpt lat="43.93041967217942" lon="11.46660250332524"><ele>187.0</ele><time>2026-04-10T12:41:24.002Z</time></trkpt><trkpt lat="43.93035968495391" lon="11.46686168088049"><ele>189.0</ele><time>2026-04-10T12:41:25Z</time></trkpt><trkpt lat="43.93031141818615" lon="11.467125469534817"><ele>190.33333333333331</ele><time>2026-04-10T12:41:26Z</time></trkpt><trkpt lat="43.93027340184764" lon="11.467390867161717"><ele>191.66666666666666</ele><time>2026-04-10T12:41:27Z</time></trkpt><trkpt lat="43.93024925201388" lon="11.467652686697473"><ele>193.0</ele><time>2026-04-10T12:41:28Z</time></trkpt><trkpt lat="43.93024550363021" lon="11.467906134944792"><ele>191.0</ele><time>2026-04-10T12:41:29Z</time></trkpt><trkpt lat="43.93026251725465" lon="11.468151437518953"><ele>189.0</ele><time>2026-04-10T12:41:30Z</time></trkpt><trkpt lat="43.93029566848747" lon="11.4683910598674"><ele>187.0</ele><time>2026-04-10T12:41:31Z</time></trkpt><trkpt lat="43.93034263925251" lon="11.468616077607598"><ele>184.0</ele><time>2026-04-10T12:41:32Z</time></trkpt><trkpt lat="43.9303940229951" lon="11.468837254213259"><ele>181.0</ele><time>2026-04-10T12:41:33Z</time></trkpt><trkpt lat="43.93044998611524" lon="11.46905875003822"><ele>178.0</ele><time>2026-04-10T12:41:34Z</time></trkpt><trkpt lat="43.93052270484877" lon="11.46927841627028"><ele>178.0</ele><time>2026-04-10T12:41:35Z</time></trkpt><trkpt lat="43.93060974238783" lon="11.4694960842075"><ele>178.0</ele><time>2026-04-10T12:41:36Z</time></trkpt><trkpt lat="43.9307151627322" lon="11.469706708341047"><ele>178.0</ele><time>2026-04-10T12:41:37Z</time></trkpt><trkpt lat="43.93083124286691" lon="11.46990931723648"><ele>177.66666666666669</ele><time>2026-04-10T12:41:38Z</time></trkpt><trkpt lat="43.93095888561659" lon="11.470093498108769"><ele>177.33333333333334</ele><time>2026-04-10T12:41:39Z</time></trkpt><trkpt lat="43.931091468428015" lon="11.470254420790328"><ele>177.0</ele><time>2026-04-10T12:41:40Z</time></trkpt><trkpt lat="43.931229759778304" lon="11.470398410069484"><ele>176.0</ele><time>2026-04-10T12:41:41Z</time></trkpt><trkpt lat="43.93137125895105" lon="11.47053357986184"><ele>175.0</ele><time>2026-04-10T12:41:42Z</time></trkpt><trkpt lat="43.93151703431225" lon="11.470655276093938"><ele>174.0</ele><time>2026-04-10T12:41:43Z</time></trkpt><trkpt lat="43.93166201040272" lon="11.470771909326578"><ele>174.0</ele><time>2026-04-10T12:41:44Z</time></trkpt><trkpt lat="43.931806331337896" lon="11.470888380305091"><ele>174.0</ele><time>2026-04-10T12:41:45Z</time></trkpt><trkpt lat="43.931950590895205" lon="11.47100382825003"><ele>174.0</ele><time>2026-04-10T12:41:46Z</time></trkpt><trkpt lat="43.93209569718597" lon="11.471108067550507"><ele>174.0</ele><time>2026-04-10T12:41:47Z</time></trkpt><trkpt lat="43.93224526340153" lon="11.47120274834057"><ele>174.0</ele><time>2026-04-10T12:41:48Z</time></trkpt><trkpt lat="43.93240055695559" lon="11.471291007828087"><ele>174.0</ele><time>2026-04-10T12:41:49Z</time></trkpt><trkpt lat="43.93255882654857" lon="11.471370935716667"><ele>173.66666666666666</ele><time>2026-04-10T12:41:50Z</time></trkpt><trkpt lat="43.932713647774484" lon="11.471450657178988"><ele>173.33333333333331</ele><time>2026-04-10T12:41:51Z</time></trkpt><trkpt lat="43.93286416911293" lon="11.47152635949571"><ele>173.0</ele><time>2026-04-10T12:41:52Z</time></trkpt><trkpt lat="43.933009271263124" lon="11.471597162200094"><ele>173.0</ele><time>2026-04-10T12:41:53Z</time></trkpt><trkpt lat="43.93314857638255" lon="11.471662691703854"><ele>173.0</ele><time>2026-04-10T12:41:54Z</time></trkpt><trkpt lat="43.93328424025193" lon="11.471725934375433"><ele>173.0</ele><time>2026-04-10T12:41:55Z</time></trkpt><trkpt lat="43.93342219684945" lon="11.471799302056427"><ele>173.0</ele><time>2026-04-10T12:41:56Z</time></trkpt><trkpt lat="43.93352720106871" lon="11.471894300453439"><ele>174.0</ele><time>2026-04-10T12:41:57Z</time></trkpt><trkpt lat="43.933609506813205" lon="11.47203433667624"><ele>175.0</ele><time>2026-04-10T12:41:58Z</time></trkpt><trkpt lat="43.933655722954526" lon="11.472202151400724"><ele>176.0</ele><time>2026-04-10T12:41:59Z</time></trkpt><trkpt lat="43.93369674169269" lon="11.472383973530464"><ele>177.0</ele><time>2026-04-10T12:42:00.001Z</time></trkpt><trkpt lat="43.93374428770652" lon="11.472569020336167"><ele>177.0</ele><time>2026-04-10T12:42:01.001Z</time></trkpt><trkpt lat="43.93378808800167" lon="11.472743434488557"><ele>177.0</ele><time>2026-04-10T12:42:02.001Z</time></trkpt><trkpt lat="43.93382922863107" lon="11.472909849106268"><ele>177.0</ele><time>2026-04-10T12:42:03.001Z</time></trkpt><trkpt lat="43.93387036528901" lon="11.473076636871529"><ele>177.0</ele><time>2026-04-10T12:42:04.001Z</time></trkpt><trkpt lat="43.933915113279625" lon="11.473245137219461"><ele>176.25</ele><time>2026-04-10T12:42:05.001Z</time></trkpt><trkpt lat="43.933962133836054" lon="11.473413991521113"><ele>175.5</ele><time>2026-04-10T12:42:06.001Z</time></trkpt><trkpt lat="43.93400541771029" lon="11.473593005550347"><ele>174.75</ele><time>2026-04-10T12:42:07.001Z</time></trkpt><trkpt lat="43.934051031936285" lon="11.47377973137716"><ele>174.0</ele><time>2026-04-10T12:42:08.001Z</time></trkpt><trkpt lat="43.93410318567369" lon="11.4739691000751"><ele>173.5</ele><time>2026-04-10T12:42:09.001Z</time></trkpt><trkpt lat="43.93415109318024" lon="11.474151605972944"><ele>173.0</ele><time>2026-04-10T12:42:10.001Z</time></trkpt><trkpt lat="43.93419610256692" lon="11.474332410413654"><ele>172.5</ele><time>2026-04-10T12:42:11.001Z</time></trkpt><trkpt lat="43.9342342683396" lon="11.474512838310352"><ele>172.0</ele><time>2026-04-10T12:42:12.001Z</time></trkpt><trkpt lat="43.93426212126566" lon="11.474688220119647"><ele>172.0</ele><time>2026-04-10T12:42:13.001Z</time></trkpt><trkpt lat="43.93428598115875" lon="11.474867405123243"><ele>172.0</ele><time>2026-04-10T12:42:14.001Z</time></trkpt><trkpt lat="43.93430745915305" lon="11.475047270131535"><ele>172.0</ele><time>2026-04-10T12:42:15.001Z</time></trkpt><trkpt lat="43.93433196208451" lon="11.475226450006721"><ele>172.0</ele><time>2026-04-10T12:42:16.001Z</time></trkpt><trkpt lat="43.93435251475444" lon="11.475400091847847"><ele>173.25</ele><time>2026-04-10T12:42:17.001Z</time></trkpt><trkpt lat="43.93437157743722" lon="11.475567099288146"><ele>174.5</ele><time>2026-04-10T12:42:18.001Z</time></trkpt><trkpt lat="43.934393040420694" lon="11.475739205717987"><ele>175.75</ele><time>2026-04-10T12:42:19.001Z</time></trkpt><trkpt lat="43.93441630787115" lon="11.475914246202299"><ele>177.0</ele><time>2026-04-10T12:42:20.001Z</time></trkpt><trkpt lat="43.934440641470914" lon="11.476101176870019"><ele>177.0</ele><time>2026-04-10T12:42:21.001Z</time></trkpt><trkpt lat="43.93446757315499" lon="11.47629809942983"><ele>177.0</ele><time>2026-04-10T12:42:22.001Z</time></trkpt><trkpt lat="43.93449368308333" lon="11.47650273851914"><ele>177.0</ele><time>2026-04-10T12:42:23.001Z</time></trkpt><trkpt lat="43.93451784652175" lon="11.476702432013605"><ele>177.0</ele><time>2026-04-10T12:42:24.001Z</time></trkpt><trkpt lat="43.93454048025394" lon="11.476891679011132"><ele>177.0</ele><time>2026-04-10T12:42:25.001Z</time></trkpt><trkpt lat="43.93456550483771" lon="11.477087130063323"><ele>177.0</ele><time>2026-04-10T12:42:26.001Z</time></trkpt><trkpt lat="43.9345880456837" lon="11.477294419236843"><ele>177.0</ele><time>2026-04-10T12:42:27.001Z</time></trkpt><trkpt lat="43.93459490556737" lon="11.477512301700752"><ele>177.0</ele><time>2026-04-10T12:42:28.001Z</time></trkpt><trkpt lat="43.93457404995171" lon="11.477736227965497"><ele>177.0</ele><time>2026-04-10T12:42:29.001Z</time></trkpt><trkpt lat="43.93452661756071" lon="11.477961494986507"><ele>177.0</ele><time>2026-04-10T12:42:30.001Z</time></trkpt><trkpt lat="43.93447365789026" lon="11.478187641530448"><ele>177.66666666666666</ele><time>2026-04-10T12:42:31.001Z</time></trkpt><trkpt lat="43.934428332487" lon="11.478404346464814"><ele>178.33333333333331</ele><time>2026-04-10T12:42:32.001Z</time></trkpt><trkpt lat="43.934381105142435" lon="11.4786314587733"><ele>179.0</ele><time>2026-04-10T12:42:33.001Z</time></trkpt><trkpt lat="43.93432676694288" lon="11.478870278093753"><ele>179.0</ele><time>2026-04-10T12:42:34.001Z</time></trkpt><trkpt lat="43.93426616244564" lon="11.47911069248247"><ele>179.0</ele><time>2026-04-10T12:42:35.001Z</time></trkpt><trkpt lat="43.93419960526179" lon="11.479324652280539"><ele>179.0</ele><time>2026-04-10T12:42:36.001Z</time></trkpt><trkpt lat="43.9341230702363" lon="11.479522316061646"><ele>177.33333333333331</ele><time>2026-04-10T12:42:37.001Z</time></trkpt><trkpt lat="43.93404669449853" lon="11.47971214553503"><ele>175.66666666666666</ele><time>2026-04-10T12:42:38.001Z</time></trkpt><trkpt lat="43.9339708044984" lon="11.479893792034138"><ele>174.0</ele><time>2026-04-10T12:42:39.001Z</time></trkpt><trkpt lat="43.933900384594025" lon="11.480064678582574"><ele>174.0</ele><time>2026-04-10T12:42:40.001Z</time></trkpt><trkpt lat="43.93384514434943" lon="11.48020976038857"><ele>174.0</ele><time>2026-04-10T12:42:41.001Z</time></trkpt><trkpt lat="43.93380649125822" lon="11.480325726178068"><ele>174.0</ele><time>2026-04-10T12:42:42.001Z</time></trkpt><trkpt lat="43.93377763493678" lon="11.48040994206996"><ele>174.0</ele><time>2026-04-10T12:42:43.002Z</time></trkpt><trkpt lat="43.933724462341324" lon="11.48052291930813"><ele>174.0</ele><time>2026-04-10T12:42:45.002Z</time></trkpt><trkpt lat="43.93367079698747" lon="11.48062155351484"><ele>174.33333333333334</ele><time>2026-04-10T12:42:47.002Z</time></trkpt><trkpt lat="43.933628364726175" lon="11.480686198264285"><ele>174.66666666666666</ele><time>2026-04-10T12:42:48.002Z</time></trkpt><trkpt lat="43.933569478447964" lon="11.480763189483769"><ele>175.0</ele><time>2026-04-10T12:42:49.002Z</time></trkpt><trkpt lat="43.933500214517586" lon="11.480844655473227"><ele>175.33333333333331</ele><time>2026-04-10T12:42:50.002Z</time></trkpt><trkpt lat="43.933422995823335" lon="11.480928920669013"><ele>175.66666666666666</ele><time>2026-04-10T12:42:51.002Z</time></trkpt><trkpt lat="43.93333938923605" lon="11.481014701438934"><ele>176.0</ele><time>2026-04-10T12:42:52.002Z</time></trkpt><trkpt lat="43.9332525280946" lon="11.48110203128564"><ele>175.75</ele><time>2026-04-10T12:42:53.002Z</time></trkpt><trkpt lat="43.93316048828587" lon="11.481195665931343"><ele>175.5</ele><time>2026-04-10T12:42:54.002Z</time></trkpt><trkpt lat="43.933057841378485" lon="11.481298956662803"><ele>175.25</ele><time>2026-04-10T12:42:55.002Z</time></trkpt><trkpt lat="43.93294701548582" lon="11.48140749663709"><ele>175.0</ele><time>2026-04-10T12:42:56.002Z</time></trkpt><trkpt lat="43.93283136273605" lon="11.48152722163047"><ele>175.0</ele><time>2026-04-10T12:42:57.002Z</time></trkpt><trkpt lat="43.93271335467013" lon="11.48166059980706"><ele>175.0</ele><time>2026-04-10T12:42:58.002Z</time></trkpt><trkpt lat="43.93259520928841" lon="11.48181237529662"><ele>175.0</ele><time>2026-04-10T12:42:59.002Z</time></trkpt><trkpt lat="43.932485048721645" lon="11.481984170539848"><ele>174.33333333333334</ele><time>2026-04-10T12:43:00.002Z</time></trkpt><trkpt lat="43.932381735175255" lon="11.482166738603484"><ele>173.66666666666666</ele><time>2026-04-10T12:43:01.002Z</time></trkpt><trkpt lat="43.93228409963446" lon="11.48234028448788"><ele>173.0</ele><time>2026-04-10T12:43:02.002Z</time></trkpt><trkpt lat="43.932189070726196" lon="11.482506393616816"><ele>173.0</ele><time>2026-04-10T12:43:03.002Z</time></trkpt><trkpt lat="43.93209574230961" lon="11.48266637784567"><ele>173.0</ele><time>2026-04-10T12:43:04.002Z</time></trkpt><trkpt lat="43.93200105461936" lon="11.482827769910351"><ele>173.0</ele><time>2026-04-10T12:43:05.002Z</time></trkpt><trkpt lat="43.9319057882775" lon="11.482986348195894"><ele>173.0</ele><time>2026-04-10T12:43:06.002Z</time></trkpt><trkpt lat="43.93180861118214" lon="11.483144218015912"><ele>172.75</ele><time>2026-04-10T12:43:07.002Z</time></trkpt><trkpt lat="43.93171286023962" lon="11.483301369785499"><ele>172.5</ele><time>2026-04-10T12:43:08.002Z</time></trkpt><trkpt lat="43.931615559505865" lon="11.483459687717547"><ele>172.25</ele><time>2026-04-10T12:43:09.002Z</time></trkpt><trkpt lat="43.93152042187448" lon="11.483614978160228"><ele>172.0</ele><time>2026-04-10T12:43:10.002Z</time></trkpt><trkpt lat="43.93142366341777" lon="11.483768713704617"><ele>174.0</ele><time>2026-04-10T12:43:11.002Z</time></trkpt><trkpt lat="43.931330089264165" lon="11.483928124428024"><ele>176.0</ele><time>2026-04-10T12:43:12.002Z</time></trkpt><trkpt lat="43.93125262794963" lon="11.48410571246408"><ele>178.0</ele><time>2026-04-10T12:43:13.002Z</time></trkpt><trkpt lat="43.931193187356236" lon="11.484302176167267"><ele>178.0</ele><time>2026-04-10T12:43:14.002Z</time></trkpt><trkpt lat="43.93114365616179" lon="11.48449898654607"><ele>178.0</ele><time>2026-04-10T12:43:15.002Z</time></trkpt><trkpt lat="43.93110499135097" lon="11.484699813870654"><ele>178.0</ele><time>2026-04-10T12:43:16.002Z</time></trkpt><trkpt lat="43.93106484371287" lon="11.484902951735148"><ele>177.75</ele><time>2026-04-10T12:43:17.002Z</time></trkpt><trkpt lat="43.9310197151424" lon="11.485102820219634"><ele>177.5</ele><time>2026-04-10T12:43:18.002Z</time></trkpt><trkpt lat="43.9309735896283" lon="11.485292137184603"><ele>177.25</ele><time>2026-04-10T12:43:19.002Z</time></trkpt><trkpt lat="43.930931029888306" lon="11.485476063432431"><ele>177.0</ele><time>2026-04-10T12:43:20.002Z</time></trkpt><trkpt lat="43.93088814553992" lon="11.48565180442322"><ele>176.25</ele><time>2026-04-10T12:43:21.002Z</time></trkpt><trkpt lat="43.93085112532261" lon="11.485813374176535"><ele>175.5</ele><time>2026-04-10T12:43:22.002Z</time></trkpt><trkpt lat="43.930811914331464" lon="11.485961945583528"><ele>174.75</ele><time>2026-04-10T12:43:23.002Z</time></trkpt><trkpt lat="43.93074322375232" lon="11.486082390979318"><ele>174.0</ele><time>2026-04-10T12:43:24.002Z</time></trkpt><trkpt lat="43.930640506241296" lon="11.48613848045955"><ele>174.0</ele><time>2026-04-10T12:43:25.002Z</time></trkpt><trkpt lat="43.93052184896463" lon="11.486182522202332"><ele>174.0</ele><time>2026-04-10T12:43:26.002Z</time></trkpt><trkpt lat="43.93039851381395" lon="11.48623471333929"><ele>174.0</ele><time>2026-04-10T12:43:27.003Z</time></trkpt><trkpt lat="43.93028341101552" lon="11.486299519943385"><ele>174.0</ele><time>2026-04-10T12:43:28.003Z</time></trkpt><trkpt lat="43.930186198129725" lon="11.486408356012351"><ele>174.5</ele><time>2026-04-10T12:43:29.003Z</time></trkpt><trkpt lat="43.930109530727115" lon="11.486564112076394"><ele>175.0</ele><time>2026-04-10T12:43:30.003Z</time></trkpt><trkpt lat="43.930061313679914" lon="11.48674720870367"><ele>175.5</ele><time>2026-04-10T12:43:31Z</time></trkpt><trkpt lat="43.93003820752964" lon="11.486950207667652"><ele>176.0</ele><time>2026-04-10T12:43:32Z</time></trkpt><trkpt lat="43.93003217693106" lon="11.487161323035618"><ele>177.5</ele><time>2026-04-10T12:43:33Z</time></trkpt><trkpt lat="43.93001869048547" lon="11.487364711296244"><ele>179.0</ele><time>2026-04-10T12:43:34Z</time></trkpt><trkpt lat="43.930006078505386" lon="11.48756899428551"><ele>180.5</ele><time>2026-04-10T12:43:35Z</time></trkpt><trkpt lat="43.92999701065726" lon="11.487775647702476"><ele>182.0</ele><time>2026-04-10T12:43:36Z</time></trkpt><trkpt lat="43.929995002886685" lon="11.487985434295043"><ele>183.0</ele><time>2026-04-10T12:43:37Z</time></trkpt><trkpt lat="43.93000144158532" lon="11.488203219041262"><ele>184.0</ele><time>2026-04-10T12:43:38Z</time></trkpt><trkpt lat="43.93002441742578" lon="11.488429216973746"><ele>185.0</ele><time>2026-04-10T12:43:39Z</time></trkpt><trkpt lat="43.930066591390954" lon="11.488677178277504"><ele>193.66666666666666</ele><time>2026-04-10T12:43:40Z</time></trkpt><trkpt lat="43.93011681650945" lon="11.488953593641776"><ele>202.33333333333331</ele><time>2026-04-10T12:43:41Z</time></trkpt><trkpt lat="43.93017537898542" lon="11.489248997565845"><ele>211.0</ele><time>2026-04-10T12:43:42Z</time></trkpt><trkpt lat="43.93023966417013" lon="11.489572879397379"><ele>204.0</ele><time>2026-04-10T12:43:43Z</time></trkpt><trkpt lat="43.93030647677354" lon="11.489908716289285"><ele>197.0</ele><time>2026-04-10T12:43:44Z</time></trkpt><trkpt lat="43.93038697902652" lon="11.490227999660426"><ele>193.0</ele><time>2026-04-10T12:43:45Z</time></trkpt><trkpt lat="43.930442703239535" lon="11.49054802637545"><ele>189.0</ele><time>2026-04-10T12:43:46Z</time></trkpt><trkpt lat="43.93049775489747" lon="11.490851638355503"><ele>189.0</ele><time>2026-04-10T12:43:47Z</time></trkpt><trkpt lat="43.930550055463925" lon="11.491144713108332"><ele>189.0</ele><time>2026-04-10T12:43:48Z</time></trkpt><trkpt lat="43.930602444759515" lon="11.491431803674502"><ele>189.0</ele><time>2026-04-10T12:43:49Z</time></trkpt><trkpt lat="43.9306481237596" lon="11.491703357244104"><ele>188.0</ele><time>2026-04-10T12:43:50Z</time></trkpt><trkpt lat="43.930690234203965" lon="11.4919665422064"><ele>187.0</ele><time>2026-04-10T12:43:51Z</time></trkpt><trkpt lat="43.930727883491286" lon="11.49223028687585"><ele>186.0</ele><time>2026-04-10T12:43:52Z</time></trkpt><trkpt lat="43.93075143474795" lon="11.492490583729273"><ele>184.33333333333334</ele><time>2026-04-10T12:43:53Z</time></trkpt><trkpt lat="43.930765002495136" lon="11.492747164101802"><ele>182.66666666666669</ele><time>2026-04-10T12:43:54Z</time></trkpt><trkpt lat="43.93076368410604" lon="11.493003780275613"><ele>181.0</ele><time>2026-04-10T12:43:55Z</time></trkpt><trkpt lat="43.93075771963424" lon="11.49324540541869"><ele>180.0</ele><time>2026-04-10T12:43:56Z</time></trkpt><trkpt lat="43.93075387254037" lon="11.49347057838994"><ele>179.0</ele><time>2026-04-10T12:43:57Z</time></trkpt><trkpt lat="43.93074934805269" lon="11.493692181620043"><ele>178.0</ele><time>2026-04-10T12:43:58Z</time></trkpt><trkpt lat="43.930752762293615" lon="11.493914516372136"><ele>178.0</ele><time>2026-04-10T12:43:59Z</time></trkpt><trkpt lat="43.93078334923663" lon="11.494120593394491"><ele>178.0</ele><time>2026-04-10T12:44:00Z</time></trkpt><trkpt lat="43.93085128060638" lon="11.494286779343726"><ele>178.0</ele><time>2026-04-10T12:44:01.001Z</time></trkpt><trkpt lat="43.93091971128945" lon="11.494437683374423"><ele>178.0</ele><time>2026-04-10T12:44:02.001Z</time></trkpt><trkpt lat="43.93096321900465" lon="11.494601675642798"><ele>179.5</ele><time>2026-04-10T12:44:03.001Z</time></trkpt><trkpt lat="43.93095853906115" lon="11.494770458185176"><ele>181.0</ele><time>2026-04-10T12:44:04.001Z</time></trkpt><trkpt lat="43.93090973977846" lon="11.49493808253106"><ele>182.5</ele><time>2026-04-10T12:44:05.001Z</time></trkpt><trkpt lat="43.93084678991021" lon="11.495078374540856"><ele>184.0</ele><time>2026-04-10T12:44:06.001Z</time></trkpt><trkpt lat="43.930785894419415" lon="11.49522856837221"><ele>184.0</ele><time>2026-04-10T12:44:07.001Z</time></trkpt><trkpt lat="43.93073806444513" lon="11.495407295157642"><ele>184.0</ele><time>2026-04-10T12:44:08.001Z</time></trkpt><trkpt lat="43.93071188829192" lon="11.495613994868567"><ele>184.0</ele><time>2026-04-10T12:44:09.001Z</time></trkpt><trkpt lat="43.93070038164341" lon="11.495803870995122"><ele>184.0</ele><time>2026-04-10T12:44:10.001Z</time></trkpt><trkpt lat="43.930694086588204" lon="11.495982798353227"><ele>186.25</ele><time>2026-04-10T12:44:11.001Z</time></trkpt><trkpt lat="43.9306989067162" lon="11.496157170993907"><ele>188.5</ele><time>2026-04-10T12:44:12.001Z</time></trkpt><trkpt lat="43.93071121825597" lon="11.496337110921402"><ele>190.75</ele><time>2026-04-10T12:44:13.001Z</time></trkpt><trkpt lat="43.93072676553613" lon="11.49651243277461"><ele>193.0</ele><time>2026-04-10T12:44:14.001Z</time></trkpt><trkpt lat="43.93073983898149" lon="11.496681658104043"><ele>194.0</ele><time>2026-04-10T12:44:15.001Z</time></trkpt><trkpt lat="43.93073895724037" lon="11.496842406176457"><ele>195.0</ele><time>2026-04-10T12:44:16.001Z</time></trkpt><trkpt lat="43.93069747452434" lon="11.496983745064014"><ele>196.0</ele><time>2026-04-10T12:44:17.001Z</time></trkpt><trkpt lat="43.93060606832016" lon="11.497092415680177"><ele>197.0</ele><time>2026-04-10T12:44:18.001Z</time></trkpt><trkpt lat="43.9304857068625" lon="11.497161878908512"><ele>195.75</ele><time>2026-04-10T12:44:19.001Z</time></trkpt><trkpt lat="43.93035882363575" lon="11.49722217273876"><ele>194.5</ele><time>2026-04-10T12:44:20.001Z</time></trkpt><trkpt lat="43.93023464143089" lon="11.49730337933999"><ele>193.25</ele><time>2026-04-10T12:44:21.001Z</time></trkpt><trkpt lat="43.93012011718287" lon="11.497398598330609"><ele>192.0</ele><time>2026-04-10T12:44:22.001Z</time></trkpt><trkpt lat="43.930024516274514" lon="11.497489222137569"><ele>192.0</ele><time>2026-04-10T12:44:23.001Z</time></trkpt><trkpt lat="43.929928446213474" lon="11.497578589819627"><ele>192.0</ele><time>2026-04-10T12:44:24.001Z</time></trkpt><trkpt lat="43.92982578452108" lon="11.497684504941663"><ele>192.0</ele><time>2026-04-10T12:44:25.001Z</time></trkpt><trkpt lat="43.929722849224355" lon="11.497815659465436"><ele>192.0</ele><time>2026-04-10T12:44:26.001Z</time></trkpt><trkpt lat="43.92963089927339" lon="11.497951427829184"><ele>197.0</ele><time>2026-04-10T12:44:27.001Z</time></trkpt><trkpt lat="43.92955186931053" lon="11.498081109561975"><ele>202.0</ele><time>2026-04-10T12:44:28.001Z</time></trkpt><trkpt lat="43.92946960515301" lon="11.498214058617704"><ele>207.0</ele><time>2026-04-10T12:44:29.001Z</time></trkpt><trkpt lat="43.9293912517932" lon="11.498347338005946"><ele>212.0</ele><time>2026-04-10T12:44:30.001Z</time></trkpt><trkpt lat="43.92930979647428" lon="11.498491805685894"><ele>211.0</ele><time>2026-04-10T12:44:31.001Z</time></trkpt><trkpt lat="43.9292238477042" lon="11.498630115579886"><ele>210.0</ele><time>2026-04-10T12:44:32.001Z</time></trkpt><trkpt lat="43.92914571459225" lon="11.49874287813696"><ele>209.0</ele><time>2026-04-10T12:44:33.001Z</time></trkpt><trkpt lat="43.92906195359327" lon="11.498858118774237"><ele>208.0</ele><time>2026-04-10T12:44:34.001Z</time></trkpt><trkpt lat="43.92899166689264" lon="11.498986315023954"><ele>208.0</ele><time>2026-04-10T12:44:35.001Z</time></trkpt><trkpt lat="43.92892520291495" lon="11.499123305769913"><ele>208.0</ele><time>2026-04-10T12:44:36.001Z</time></trkpt><trkpt lat="43.92885659658535" lon="11.499253835293853"><ele>208.0</ele><time>2026-04-10T12:44:37.001Z</time></trkpt><trkpt lat="43.92877922074223" lon="11.499360362478683"><ele>208.0</ele><time>2026-04-10T12:44:38.001Z</time></trkpt><trkpt lat="43.92867996902308" lon="11.499419741397585"><ele>208.0</ele><time>2026-04-10T12:44:39.001Z</time></trkpt><trkpt lat="43.92858089519391" lon="11.499404112722672"><ele>208.0</ele><time>2026-04-10T12:44:40.001Z</time></trkpt><trkpt lat="43.92849439332161" lon="11.499321861285946"><ele>208.0</ele><time>2026-04-10T12:44:41.001Z</time></trkpt><trkpt lat="43.928445793771274" lon="11.499210755506244"><ele>208.0</ele><time>2026-04-10T12:44:42.001Z</time></trkpt><trkpt lat="43.92839204906785" lon="11.499123889515484"><ele>208.0</ele><time>2026-04-10T12:44:43.001Z</time></trkpt><trkpt lat="43.928314491618586" lon="11.499061761607399"><ele>205.8</ele><time>2026-04-10T12:44:44.001Z</time></trkpt><trkpt lat="43.9282185948283" lon="11.499047109284465"><ele>203.60000000000002</ele><time>2026-04-10T12:44:45.001Z</time></trkpt><trkpt lat="43.92812712132924" lon="11.499071950336562"><ele>201.39999999999998</ele><time>2026-04-10T12:44:46.001Z</time></trkpt><trkpt lat="43.928057562327616" lon="11.499099524694197"><ele>199.2</ele><time>2026-04-10T12:44:47.001Z</time></trkpt><trkpt lat="43.92796249592708" lon="11.499139942605888"><ele>197.0</ele><time>2026-04-10T12:44:49.002Z</time></trkpt><trkpt lat="43.92787568983729" lon="11.499177353277894"><ele>197.00000000000003</ele><time>2026-04-10T12:44:51.002Z</time></trkpt><trkpt lat="43.927772743758155" lon="11.499231385252994"><ele>197.0</ele><time>2026-04-10T12:44:53.002Z</time></trkpt><trkpt lat="43.92769113789125" lon="11.499274218416712"><ele>197.0</ele><time>2026-04-10T12:44:55.002Z</time></trkpt><trkpt lat="43.92763583924106" lon="11.499320287795612"><ele>197.0</ele><time>2026-04-10T12:45:01.002Z</time></trkpt><trkpt lat="43.92757115529576" lon="11.499329755103508"><ele>197.00000000000003</ele><time>2026-04-10T12:45:04.002Z</time></trkpt><trkpt lat="43.92746958185218" lon="11.49938867062986"><ele>197.0</ele><time>2026-04-10T12:45:09.002Z</time></trkpt><trkpt lat="43.92737815005314" lon="11.499443439987132"><ele>197.8</ele><time>2026-04-10T12:45:10.002Z</time></trkpt><trkpt lat="43.9272761584049" lon="11.499503217093013"><ele>198.6</ele><time>2026-04-10T12:45:11.002Z</time></trkpt><trkpt lat="43.92718976113966" lon="11.49957956302205"><ele>199.4</ele><time>2026-04-10T12:45:12.002Z</time></trkpt><trkpt lat="43.92711344380335" lon="11.499680447968778"><ele>200.20000000000002</ele><time>2026-04-10T12:45:13.002Z</time></trkpt><trkpt lat="43.927037569993" lon="11.499809829518616"><ele>201.0</ele><time>2026-04-10T12:45:14.002Z</time></trkpt><trkpt lat="43.92695769048466" lon="11.499960321314871"><ele>201.0</ele><time>2026-04-10T12:45:15.002Z</time></trkpt><trkpt lat="43.926875321231776" lon="11.500121537026562"><ele>201.0</ele><time>2026-04-10T12:45:16.002Z</time></trkpt><trkpt lat="43.9267863265258" lon="11.500264186027112"><ele>201.0</ele><time>2026-04-10T12:45:17.002Z</time></trkpt><trkpt lat="43.92668808667933" lon="11.500389955555393"><ele>201.0</ele><time>2026-04-10T12:45:18.002Z</time></trkpt><trkpt lat="43.92658228179058" lon="11.500509833062969"><ele>198.25</ele><time>2026-04-10T12:45:19.002Z</time></trkpt><trkpt lat="43.926469692286815" lon="11.500614092212409"><ele>195.5</ele><time>2026-04-10T12:45:20.002Z</time></trkpt><trkpt lat="43.926347207013194" lon="11.500695169041263"><ele>192.75</ele><time>2026-04-10T12:45:21.002Z</time></trkpt><trkpt lat="43.926215537686346" lon="11.500749645227756"><ele>190.0</ele><time>2026-04-10T12:45:22.002Z</time></trkpt><trkpt lat="43.92606528478936" lon="11.500778473063779"><ele>190.0</ele><time>2026-04-10T12:45:23.002Z</time></trkpt><trkpt lat="43.925904236496415" lon="11.500780124465004"><ele>190.0</ele><time>2026-04-10T12:45:24.002Z</time></trkpt><trkpt lat="43.92573519858399" lon="11.500762094686705"><ele>190.0</ele><time>2026-04-10T12:45:25.002Z</time></trkpt><trkpt lat="43.92556699887515" lon="11.500741666008961"><ele>188.66666666666669</ele><time>2026-04-10T12:45:26.002Z</time></trkpt><trkpt lat="43.9253991573621" lon="11.500696457263754"><ele>187.33333333333334</ele><time>2026-04-10T12:45:27.002Z</time></trkpt><trkpt lat="43.925235316544295" lon="11.500675758212202"><ele>186.0</ele><time>2026-04-10T12:45:28.002Z</time></trkpt><trkpt lat="43.92506486596049" lon="11.500661954852816"><ele>184.33333333333334</ele><time>2026-04-10T12:45:29.002Z</time></trkpt><trkpt lat="43.92489033109421" lon="11.50065789172927"><ele>182.66666666666669</ele><time>2026-04-10T12:45:30.002Z</time></trkpt><trkpt lat="43.924712620410126" lon="11.500664401757158"><ele>181.0</ele><time>2026-04-10T12:45:31.002Z</time></trkpt><trkpt lat="43.92453733873957" lon="11.500693599638602"><ele>181.0</ele><time>2026-04-10T12:45:32.002Z</time></trkpt><trkpt lat="43.92437212006112" lon="11.500763452276477"><ele>181.0</ele><time>2026-04-10T12:45:33.003Z</time></trkpt><trkpt lat="43.9242068987653" lon="11.500826450548956"><ele>181.0</ele><time>2026-04-10T12:45:34.003Z</time></trkpt><trkpt lat="43.92405109686644" lon="11.50092400766019"><ele>179.33333333333334</ele><time>2026-04-10T12:45:35.003Z</time></trkpt><trkpt lat="43.9238869165223" lon="11.501011068275368"><ele>177.66666666666666</ele><time>2026-04-10T12:45:36.003Z</time></trkpt><trkpt lat="43.923723535881116" lon="11.501095782957188"><ele>176.0</ele><time>2026-04-10T12:45:37Z</time></trkpt><trkpt lat="43.92354708306391" lon="11.501142696616306"><ele>176.0</ele><time>2026-04-10T12:45:38Z</time></trkpt><trkpt lat="43.92336285422852" lon="11.501178619455212"><ele>176.0</ele><time>2026-04-10T12:45:39.001Z</time></trkpt><trkpt lat="43.9231704048151" lon="11.501232529440044"><ele>176.0</ele><time>2026-04-10T12:45:40Z</time></trkpt><trkpt lat="43.92297473952216" lon="11.50125619962188"><ele>176.0</ele><time>2026-04-10T12:45:41Z</time></trkpt><trkpt lat="43.92278471492112" lon="11.501295823785734"><ele>176.0</ele><time>2026-04-10T12:45:42Z</time></trkpt><trkpt lat="43.92259781176594" lon="11.50136064981495"><ele>176.0</ele><time>2026-04-10T12:45:43Z</time></trkpt><trkpt lat="43.92242251140916" lon="11.501460698673478"><ele>175.33333333333331</ele><time>2026-04-10T12:45:44Z</time></trkpt><trkpt lat="43.922254173573556" lon="11.501581209287258"><ele>174.66666666666666</ele><time>2026-04-10T12:45:45Z</time></trkpt><trkpt lat="43.92208361069227" lon="11.501698654424095"><ele>174.0</ele><time>2026-04-10T12:45:46Z</time></trkpt><trkpt lat="43.92191224436651" lon="11.501817277920946"><ele>174.0</ele><time>2026-04-10T12:45:47Z</time></trkpt><trkpt lat="43.92174282572133" lon="11.50193799754462"><ele>174.0</ele><time>2026-04-10T12:45:48Z</time></trkpt><trkpt lat="43.921574530111286" lon="11.502058437385559"><ele>174.0</ele><time>2026-04-10T12:45:49Z</time></trkpt><trkpt lat="43.92140859437837" lon="11.502185762140483"><ele>174.0</ele><time>2026-04-10T12:45:50Z</time></trkpt><trkpt lat="43.92124061506145" lon="11.502311269468796"><ele>174.0</ele><time>2026-04-10T12:45:51Z</time></trkpt><trkpt lat="43.92106916704694" lon="11.502434333264535"><ele>174.0</ele><time>2026-04-10T12:45:52Z</time></trkpt><trkpt lat="43.92088897514043" lon="11.502538839247013"><ele>172.66666666666666</ele><time>2026-04-10T12:45:53Z</time></trkpt><trkpt lat="43.920711575864374" lon="11.502665810771113"><ele>171.33333333333331</ele><time>2026-04-10T12:45:54Z</time></trkpt><trkpt lat="43.920533754426344" lon="11.50279331614864"><ele>170.0</ele><time>2026-04-10T12:45:55Z</time></trkpt><trkpt lat="43.92035593446823" lon="11.50292082050423"><ele>172.33333333333331</ele><time>2026-04-10T12:45:56Z</time></trkpt><trkpt lat="43.92017714622107" lon="11.503049021447316"><ele>174.66666666666666</ele><time>2026-04-10T12:45:57Z</time></trkpt><trkpt lat="43.91999722108009" lon="11.503178046267612"><ele>177.0</ele><time>2026-04-10T12:45:58Z</time></trkpt><trkpt lat="43.91982006241474" lon="11.50329740979551"><ele>177.0</ele><time>2026-04-10T12:45:59Z</time></trkpt><trkpt lat="43.91965011640131" lon="11.503394684261295"><ele>177.0</ele><time>2026-04-10T12:46:00.001Z</time></trkpt><trkpt lat="43.919486303673764" lon="11.5035011711583"><ele>177.0</ele><time>2026-04-10T12:46:01.001Z</time></trkpt><trkpt lat="43.919308180331214" lon="11.503610075922678"><ele>179.33333333333334</ele><time>2026-04-10T12:46:02.001Z</time></trkpt><trkpt lat="43.91913415773118" lon="11.503756723268745"><ele>181.66666666666669</ele><time>2026-04-10T12:46:03.001Z</time></trkpt><trkpt lat="43.91895166068418" lon="11.50386851194523"><ele>184.0</ele><time>2026-04-10T12:46:04.001Z</time></trkpt><trkpt lat="43.9187808121404" lon="11.503974721539633"><ele>184.0</ele><time>2026-04-10T12:46:05.001Z</time></trkpt><trkpt lat="43.918596594735206" lon="11.504054519533849"><ele>184.0</ele><time>2026-04-10T12:46:06.001Z</time></trkpt><trkpt lat="43.918405809991576" lon="11.504107657746449"><ele>184.0</ele><time>2026-04-10T12:46:07.001Z</time></trkpt><trkpt lat="43.91821307298264" lon="11.504161026772062"><ele>178.66666666666669</ele><time>2026-04-10T12:46:08.001Z</time></trkpt><trkpt lat="43.918015828802254" lon="11.504189617458382"><ele>173.33333333333334</ele><time>2026-04-10T12:46:09.001Z</time></trkpt><trkpt lat="43.9178149593925" lon="11.504223959117741"><ele>168.0</ele><time>2026-04-10T12:46:10.001Z</time></trkpt><trkpt lat="43.91762086069064" lon="11.50425651412055"><ele>167.0</ele><time>2026-04-10T12:46:11.001Z</time></trkpt><trkpt lat="43.91743525071374" lon="11.504281899998107"><ele>166.0</ele><time>2026-04-10T12:46:12.001Z</time></trkpt><trkpt lat="43.917250916543715" lon="11.504309045126531"><ele>165.0</ele><time>2026-04-10T12:46:13.001Z</time></trkpt><trkpt lat="43.91706469453758" lon="11.50433951026408"><ele>165.0</ele><time>2026-04-10T12:46:14.001Z</time></trkpt><trkpt lat="43.91687794609107" lon="11.504380229547147"><ele>165.0</ele><time>2026-04-10T12:46:15.001Z</time></trkpt><trkpt lat="43.91668870324895" lon="11.504439592693652"><ele>165.0</ele><time>2026-04-10T12:46:16.001Z</time></trkpt><trkpt lat="43.916495858315926" lon="11.504510820479513"><ele>169.0</ele><time>2026-04-10T12:46:17.001Z</time></trkpt><trkpt lat="43.916298918941166" lon="11.504582569696149"><ele>173.0</ele><time>2026-04-10T12:46:18.001Z</time></trkpt><trkpt lat="43.91609627424148" lon="11.504655440818569"><ele>177.0</ele><time>2026-04-10T12:46:19.001Z</time></trkpt><trkpt lat="43.915892331000734" lon="11.504730476689833"><ele>177.0</ele><time>2026-04-10T12:46:20.001Z</time></trkpt><trkpt lat="43.9156863722362" lon="11.504802601620394"><ele>177.0</ele><time>2026-04-10T12:46:21.001Z</time></trkpt><trkpt lat="43.915477557054956" lon="11.504874496789972"><ele>177.0</ele><time>2026-04-10T12:46:22.001Z</time></trkpt><trkpt lat="43.9152702939234" lon="11.50494983300142"><ele>173.33333333333334</ele><time>2026-04-10T12:46:23.001Z</time></trkpt><trkpt lat="43.915068830962575" lon="11.505023210225417"><ele>169.66666666666669</ele><time>2026-04-10T12:46:24.001Z</time></trkpt><trkpt lat="43.91487947869176" lon="11.505090867597422"><ele>166.0</ele><time>2026-04-10T12:46:25.001Z</time></trkpt><trkpt lat="43.91469975842854" lon="11.50515605968469"><ele>166.0</ele><time>2026-04-10T12:46:26.001Z</time></trkpt><trkpt lat="43.91452508362879" lon="11.505217509586195"><ele>166.0</ele><time>2026-04-10T12:46:27.001Z</time></trkpt><trkpt lat="43.914346104217" lon="11.505273113408022"><ele>166.0</ele><time>2026-04-10T12:46:28.001Z</time></trkpt><trkpt lat="43.914163148242345" lon="11.505321508056443"><ele>165.33333333333334</ele><time>2026-04-10T12:46:29.001Z</time></trkpt><trkpt lat="43.91397895210438" lon="11.50536483414324"><ele>164.66666666666666</ele><time>2026-04-10T12:46:30.001Z</time></trkpt><trkpt lat="43.91379207345262" lon="11.505407950114565"><ele>164.0</ele><time>2026-04-10T12:46:31.001Z</time></trkpt><trkpt lat="43.91360410852596" lon="11.505452242035677"><ele>164.66666666666666</ele><time>2026-04-10T12:46:32.001Z</time></trkpt><trkpt lat="43.91341357349668" lon="11.505502246847913"><ele>165.33333333333334</ele><time>2026-04-10T12:46:33.001Z</time></trkpt><trkpt lat="43.9132242819904" lon="11.505564641728931"><ele>166.0</ele><time>2026-04-10T12:46:34.001Z</time></trkpt><trkpt lat="43.91303771785728" lon="11.505645859139136"><ele>166.0</ele><time>2026-04-10T12:46:35.001Z</time></trkpt><trkpt lat="43.91285356424315" lon="11.505745678694153"><ele>166.0</ele><time>2026-04-10T12:46:36.001Z</time></trkpt><trkpt lat="43.9126772327608" lon="11.50586249034762"><ele>166.0</ele><time>2026-04-10T12:46:37.001Z</time></trkpt><trkpt lat="43.91250599806418" lon="11.505984685371804"><ele>164.66666666666669</ele><time>2026-04-10T12:46:38.001Z</time></trkpt><trkpt lat="43.91233335682331" lon="11.506105943869526"><ele>163.33333333333334</ele><time>2026-04-10T12:46:39.001Z</time></trkpt><trkpt lat="43.912162941637625" lon="11.506236938703205"><ele>162.0</ele><time>2026-04-10T12:46:40.001Z</time></trkpt><trkpt lat="43.9119947741078" lon="11.506375252022776"><ele>162.0</ele><time>2026-04-10T12:46:41.001Z</time></trkpt><trkpt lat="43.91183044140084" lon="11.506520251745243"><ele>162.0</ele><time>2026-04-10T12:46:42.001Z</time></trkpt><trkpt lat="43.91167454032115" lon="11.506663077467156"><ele>162.0</ele><time>2026-04-10T12:46:43.001Z</time></trkpt><trkpt lat="43.911528400147766" lon="11.50679857521886"><ele>161.0</ele><time>2026-04-10T12:46:44.001Z</time></trkpt><trkpt lat="43.91138187490627" lon="11.50693658339915"><ele>160.0</ele><time>2026-04-10T12:46:45.001Z</time></trkpt><trkpt lat="43.91124021070318" lon="11.507068663695902"><ele>159.0</ele><time>2026-04-10T12:46:46.001Z</time></trkpt><trkpt lat="43.91108360081221" lon="11.507177667521079"><ele>163.0</ele><time>2026-04-10T12:46:47.001Z</time></trkpt><trkpt lat="43.91094851090492" lon="11.507278925393981"><ele>167.0</ele><time>2026-04-10T12:46:48.001Z</time></trkpt><trkpt lat="43.910785897882576" lon="11.507312316524574"><ele>171.0</ele><time>2026-04-10T12:46:49.001Z</time></trkpt><trkpt lat="43.91063241702731" lon="11.50724669426347"><ele>173.66666666666666</ele><time>2026-04-10T12:46:50.001Z</time></trkpt><trkpt lat="43.91046177030464" lon="11.507201802914443"><ele>176.33333333333331</ele><time>2026-04-10T12:46:51.001Z</time></trkpt><trkpt lat="43.91029132856151" lon="11.507122526534992"><ele>179.0</ele><time>2026-04-10T12:46:52.002Z</time></trkpt><trkpt lat="43.9101217423706" lon="11.507053687582316"><ele>174.33333333333331</ele><time>2026-04-10T12:46:53.002Z</time></trkpt><trkpt lat="43.90995277805326" lon="11.506983225502363"><ele>169.66666666666666</ele><time>2026-04-10T12:46:54.002Z</time></trkpt><trkpt lat="43.909786293109306" lon="11.506894205039975"><ele>165.0</ele><time>2026-04-10T12:46:55.002Z</time></trkpt><trkpt lat="43.90962251743699" lon="11.506786981804508"><ele>165.0</ele><time>2026-04-10T12:46:56.002Z</time></trkpt><trkpt lat="43.909474474242614" lon="11.506672352833398"><ele>165.0</ele><time>2026-04-10T12:46:57.002Z</time></trkpt><trkpt lat="43.90934710797519" lon="11.506548426714525"><ele>165.0</ele><time>2026-04-10T12:46:58.002Z</time></trkpt><trkpt lat="43.90922796372075" lon="11.506416930916028"><ele>163.25</ele><time>2026-04-10T12:46:59.002Z</time></trkpt><trkpt lat="43.90910663609585" lon="11.506299936821602"><ele>161.5</ele><time>2026-04-10T12:47:00.002Z</time></trkpt><trkpt lat="43.9089739989957" lon="11.506216349178246"><ele>159.75</ele><time>2026-04-10T12:47:01.002Z</time></trkpt><trkpt lat="43.9088331548319" lon="11.50618396842764"><ele>158.0</ele><time>2026-04-10T12:47:02.002Z</time></trkpt><trkpt lat="43.9086836064988" lon="11.506188008469218"><ele>164.33333333333331</ele><time>2026-04-10T12:47:03.002Z</time></trkpt><trkpt lat="43.90852604973572" lon="11.506257538375877"><ele>170.66666666666666</ele><time>2026-04-10T12:47:04.002Z</time></trkpt><trkpt lat="43.908363277252676" lon="11.506346482094035"><ele>177.0</ele><time>2026-04-10T12:47:05.002Z</time></trkpt><trkpt lat="43.90820151482306" lon="11.506400965783078"><ele>177.0</ele><time>2026-04-10T12:47:06.002Z</time></trkpt><trkpt lat="43.90804265664688" lon="11.506436628586766"><ele>177.0</ele><time>2026-04-10T12:47:07.002Z</time></trkpt><trkpt lat="43.90787934289077" lon="11.506452328560382"><ele>177.0</ele><time>2026-04-10T12:47:08.002Z</time></trkpt><trkpt lat="43.90771491451772" lon="11.50640406892972"><ele>179.33333333333334</ele><time>2026-04-10T12:47:09.002Z</time></trkpt><trkpt lat="43.90755235980981" lon="11.506336120476906"><ele>181.66666666666669</ele><time>2026-04-10T12:47:10.002Z</time></trkpt><trkpt lat="43.90738923158821" lon="11.506263188155858"><ele>184.0</ele><time>2026-04-10T12:47:11.002Z</time></trkpt><trkpt lat="43.907223457991435" lon="11.506193582588132"><ele>177.33333333333334</ele><time>2026-04-10T12:47:12.002Z</time></trkpt><trkpt lat="43.907055641691436" lon="11.50612482805971"><ele>170.66666666666666</ele><time>2026-04-10T12:47:13.002Z</time></trkpt><trkpt lat="43.90688382072199" lon="11.506060444766481"><ele>164.0</ele><time>2026-04-10T12:47:14.002Z</time></trkpt><trkpt lat="43.90670831242558" lon="11.506005783106735"><ele>164.0</ele><time>2026-04-10T12:47:15.002Z</time></trkpt><trkpt lat="43.906528976130495" lon="11.50598353460629"><ele>164.0</ele><time>2026-04-10T12:47:16.002Z</time></trkpt><trkpt lat="43.906344879251314" lon="11.50599968946502"><ele>164.0</ele><time>2026-04-10T12:47:17.002Z</time></trkpt><trkpt lat="43.906154225905055" lon="11.506036658831102"><ele>164.0</ele><time>2026-04-10T12:47:18.002Z</time></trkpt><trkpt lat="43.90596106294425" lon="11.506074498657892"><ele>164.0</ele><time>2026-04-10T12:47:19.002Z</time></trkpt><trkpt lat="43.90576408437448" lon="11.506107524405945"><ele>164.0</ele><time>2026-04-10T12:47:20.002Z</time></trkpt><trkpt lat="43.90556450149288" lon="11.506143245851453"><ele>164.33333333333331</ele><time>2026-04-10T12:47:21.002Z</time></trkpt><trkpt lat="43.905363145174086" lon="11.5061810730837"><ele>164.66666666666666</ele><time>2026-04-10T12:47:22.002Z</time></trkpt><trkpt lat="43.90516329353692" lon="11.5062176530252"><ele>165.0</ele><time>2026-04-10T12:47:23.002Z</time></trkpt><trkpt lat="43.9049603021794" lon="11.506255600279419"><ele>168.66666666666666</ele><time>2026-04-10T12:47:24.002Z</time></trkpt><trkpt lat="43.90475524630756" lon="11.506268191930046"><ele>172.33333333333331</ele><time>2026-04-10T12:47:25.002Z</time></trkpt><trkpt lat="43.90455179800304" lon="11.50630249506201"><ele>176.0</ele><time>2026-04-10T12:47:26.002Z</time></trkpt><trkpt lat="43.90435261549112" lon="11.506357004409145"><ele>173.66666666666666</ele><time>2026-04-10T12:47:27.002Z</time></trkpt><trkpt lat="43.90416216301117" lon="11.50638187796405"><ele>171.33333333333334</ele><time>2026-04-10T12:47:28.002Z</time></trkpt><trkpt lat="43.9039830475846" lon="11.506404866200768"><ele>169.0</ele><time>2026-04-10T12:47:29.002Z</time></trkpt><trkpt lat="43.90381376487641" lon="11.50642890324457"><ele>169.0</ele><time>2026-04-10T12:47:30.002Z</time></trkpt><trkpt lat="43.90365320067417" lon="11.506462575056796"><ele>169.0</ele><time>2026-04-10T12:47:31.002Z</time></trkpt><trkpt lat="43.90350524048012" lon="11.506527469151397"><ele>169.0</ele><time>2026-04-10T12:47:32.002Z</time></trkpt><trkpt lat="43.90336512465355" lon="11.506632523709028"><ele>167.33333333333334</ele><time>2026-04-10T12:47:33.002Z</time></trkpt><trkpt lat="43.90324070367485" lon="11.50678392061416"><ele>165.66666666666666</ele><time>2026-04-10T12:47:34.002Z</time></trkpt><trkpt lat="43.903131168003135" lon="11.506974314984001"><ele>164.0</ele><time>2026-04-10T12:47:35.002Z</time></trkpt><trkpt lat="43.903023911441515" lon="11.507184253377105"><ele>168.33333333333331</ele><time>2026-04-10T12:47:36.002Z</time></trkpt><trkpt lat="43.90290543849333" lon="11.507404082977734"><ele>172.66666666666666</ele><time>2026-04-10T12:47:37.002Z</time></trkpt><trkpt lat="43.90278092840275" lon="11.507625687342417"><ele>177.0</ele><time>2026-04-10T12:47:38.002Z</time></trkpt><trkpt lat="43.90266233477196" lon="11.507840278401405"><ele>175.33333333333334</ele><time>2026-04-10T12:47:39.002Z</time></trkpt><trkpt lat="43.902546730367796" lon="11.508049815616276"><ele>173.66666666666669</ele><time>2026-04-10T12:47:40.003Z</time></trkpt><trkpt lat="43.90243416009617" lon="11.508252843330343"><ele>172.0</ele><time>2026-04-10T12:47:41.003Z</time></trkpt><trkpt lat="43.902322917654715" lon="11.50845664890382"><ele>172.0</ele><time>2026-04-10T12:47:42.003Z</time></trkpt><trkpt lat="43.90221483831074" lon="11.508659286286548"><ele>172.0</ele><time>2026-04-10T12:47:43.001Z</time></trkpt><trkpt lat="43.90210901380245" lon="11.508858176177093"><ele>172.0</ele><time>2026-04-10T12:47:44.001Z</time></trkpt><trkpt lat="43.90200243961729" lon="11.509051124128119"><ele>172.0</ele><time>2026-04-10T12:47:45.001Z</time></trkpt><trkpt lat="43.90189484073696" lon="11.509242039883967"><ele>172.0</ele><time>2026-04-10T12:47:46.001Z</time></trkpt><trkpt lat="43.901792951609295" lon="11.50943544616314"><ele>172.0</ele><time>2026-04-10T12:47:47.001Z</time></trkpt><trkpt lat="43.9016900316512" lon="11.509626787168742"><ele>172.0</ele><time>2026-04-10T12:47:48.001Z</time></trkpt><trkpt lat="43.90158493322739" lon="11.509815336789869"><ele>172.0</ele><time>2026-04-10T12:47:49.001Z</time></trkpt><trkpt lat="43.90147917734571" lon="11.510003802468258"><ele>172.0</ele><time>2026-04-10T12:47:50.001Z</time></trkpt><trkpt lat="43.90137359899302" lon="11.51019200036735"><ele>172.0</ele><time>2026-04-10T12:47:51.001Z</time></trkpt><trkpt lat="43.90126862731557" lon="11.510381237513375"><ele>172.0</ele><time>2026-04-10T12:47:52.001Z</time></trkpt><trkpt lat="43.90116041754426" lon="11.51057648159283"><ele>172.0</ele><time>2026-04-10T12:47:53.001Z</time></trkpt><trkpt lat="43.90105506395267" lon="11.510779092280801"><ele>173.33333333333334</ele><time>2026-04-10T12:47:54.001Z</time></trkpt><trkpt lat="43.900958465144015" lon="11.510989761327664"><ele>174.66666666666666</ele><time>2026-04-10T12:47:55.001Z</time></trkpt><trkpt lat="43.90086748162893" lon="11.51120638851741"><ele>176.0</ele><time>2026-04-10T12:47:56Z</time></trkpt><trkpt lat="43.90078497309256" lon="11.511416528329006"><ele>173.0</ele><time>2026-04-10T12:47:57Z</time></trkpt><trkpt lat="43.90071037944112" lon="11.511616233514172"><ele>170.0</ele><time>2026-04-10T12:47:58.001Z</time></trkpt><trkpt lat="43.9006361634937" lon="11.51181077192722"><ele>167.0</ele><time>2026-04-10T12:47:59.001Z</time></trkpt><trkpt lat="43.900562524405586" lon="11.5120071958934"><ele>166.33333333333331</ele><time>2026-04-10T12:48:00.001Z</time></trkpt><trkpt lat="43.90049126712028" lon="11.512210270226493"><ele>165.66666666666666</ele><time>2026-04-10T12:48:01.001Z</time></trkpt><trkpt lat="43.900420048961976" lon="11.512425075519499"><ele>165.0</ele><time>2026-04-10T12:48:02.001Z</time></trkpt><trkpt lat="43.90035047841536" lon="11.512655546070587"><ele>165.0</ele><time>2026-04-10T12:48:03.001Z</time></trkpt><trkpt lat="43.9002867738164" lon="11.51290111185556"><ele>165.0</ele><time>2026-04-10T12:48:04.001Z</time></trkpt><trkpt lat="43.9002259891096" lon="11.513148644280369"><ele>165.0</ele><time>2026-04-10T12:48:05.001Z</time></trkpt><trkpt lat="43.90014730636174" lon="11.513381338830262"><ele>165.0</ele><time>2026-04-10T12:48:06.001Z</time></trkpt><trkpt lat="43.900095206706425" lon="11.513628651641216"><ele>165.0</ele><time>2026-04-10T12:48:07.001Z</time></trkpt><trkpt lat="43.900021510876336" lon="11.513873013236486"><ele>165.0</ele><time>2026-04-10T12:48:08.001Z</time></trkpt><trkpt lat="43.89993996217463" lon="11.514114239550876"><ele>164.33333333333334</ele><time>2026-04-10T12:48:09.001Z</time></trkpt><trkpt lat="43.899843190508705" lon="11.5143548813375"><ele>163.66666666666669</ele><time>2026-04-10T12:48:10.001Z</time></trkpt><trkpt lat="43.899742409638" lon="11.514597211369685"><ele>163.0</ele><time>2026-04-10T12:48:11.001Z</time></trkpt><trkpt lat="43.89964628690394" lon="11.514818962988194"><ele>163.0</ele><time>2026-04-10T12:48:12.001Z</time></trkpt><trkpt lat="43.89955243552633" lon="11.51502727747987"><ele>163.0</ele><time>2026-04-10T12:48:13.001Z</time></trkpt><trkpt lat="43.8994564439704" lon="11.51523368220177"><ele>163.0</ele><time>2026-04-10T12:48:14.001Z</time></trkpt><trkpt lat="43.89936409966763" lon="11.515432783264227"><ele>163.0</ele><time>2026-04-10T12:48:15.001Z</time></trkpt><trkpt lat="43.8992733336764" lon="11.51562495160125"><ele>163.0</ele><time>2026-04-10T12:48:16.001Z</time></trkpt><trkpt lat="43.899178697170676" lon="11.515806144118203"><ele>163.0</ele><time>2026-04-10T12:48:17.001Z</time></trkpt><trkpt lat="43.89906732169751" lon="11.515974543198267"><ele>162.33333333333334</ele><time>2026-04-10T12:48:18.001Z</time></trkpt><trkpt lat="43.898936647700005" lon="11.516103515897642"><ele>161.66666666666666</ele><time>2026-04-10T12:48:19.001Z</time></trkpt><trkpt lat="43.898793947507016" lon="11.516218538518478"><ele>161.0</ele><time>2026-04-10T12:48:20.001Z</time></trkpt><trkpt lat="43.898646245526024" lon="11.516330080132262"><ele>161.0</ele><time>2026-04-10T12:48:21.001Z</time></trkpt><trkpt lat="43.89849604977894" lon="11.516437723719752"><ele>161.0</ele><time>2026-04-10T12:48:22.001Z</time></trkpt><trkpt lat="43.898342028958204" lon="11.516535703490161"><ele>161.0</ele><time>2026-04-10T12:48:23.001Z</time></trkpt><trkpt lat="43.898185399460175" lon="11.516623763196677"><ele>160.66666666666666</ele><time>2026-04-10T12:48:24.001Z</time></trkpt><trkpt lat="43.898025911187425" lon="11.51670976767228"><ele>160.33333333333334</ele><time>2026-04-10T12:48:25.001Z</time></trkpt><trkpt lat="43.89786656427073" lon="11.516800292823978"><ele>160.0</ele><time>2026-04-10T12:48:26.001Z</time></trkpt><trkpt lat="43.89771059289461" lon="11.516901752333528"><ele>160.33333333333334</ele><time>2026-04-10T12:48:27.001Z</time></trkpt><trkpt lat="43.89755846515188" lon="11.517013116596855"><ele>160.66666666666666</ele><time>2026-04-10T12:48:28.001Z</time></trkpt><trkpt lat="43.89740974593327" lon="11.517131097341064"><ele>161.0</ele><time>2026-04-10T12:48:29.001Z</time></trkpt><trkpt lat="43.89726579790073" lon="11.517249664705314"><ele>161.0</ele><time>2026-04-10T12:48:30.001Z</time></trkpt><trkpt lat="43.89712246506104" lon="11.517370528296107"><ele>161.0</ele><time>2026-04-10T12:48:31.001Z</time></trkpt><trkpt lat="43.896980226671275" lon="11.517491082059298"><ele>161.0</ele><time>2026-04-10T12:48:32.001Z</time></trkpt><trkpt lat="43.89684153625351" lon="11.517613871827072"><ele>161.0</ele><time>2026-04-10T12:48:33.001Z</time></trkpt><trkpt lat="43.896703402298094" lon="11.517732184710988"><ele>161.0</ele><time>2026-04-10T12:48:34.001Z</time></trkpt><trkpt lat="43.89656832295218" lon="11.51785257719221"><ele>161.0</ele><time>2026-04-10T12:48:35.001Z</time></trkpt><trkpt lat="43.89643597628503" lon="11.517968861988177"><ele>161.0</ele><time>2026-04-10T12:48:36.001Z</time></trkpt><trkpt lat="43.896301242153086" lon="11.518083637644828"><ele>161.0</ele><time>2026-04-10T12:48:37.001Z</time></trkpt><trkpt lat="43.89616874903124" lon="11.518197888099778"><ele>161.0</ele><time>2026-04-10T12:48:38.001Z</time></trkpt><trkpt lat="43.89604038961885" lon="11.518309124459819"><ele>161.0</ele><time>2026-04-10T12:48:39.001Z</time></trkpt><trkpt lat="43.89591488472274" lon="11.51842299285438"><ele>161.0</ele><time>2026-04-10T12:48:40.001Z</time></trkpt><trkpt lat="43.895788347087745" lon="11.518529899251941"><ele>161.0</ele><time>2026-04-10T12:48:41.001Z</time></trkpt><trkpt lat="43.895663581020315" lon="11.518637101243382"><ele>161.0</ele><time>2026-04-10T12:48:42.001Z</time></trkpt><trkpt lat="43.895540318082986" lon="11.518738936161439"><ele>161.0</ele><time>2026-04-10T12:48:43.001Z</time></trkpt><trkpt lat="43.89541842701309" lon="11.518832768923387"><ele>161.0</ele><time>2026-04-10T12:48:44.001Z</time></trkpt><trkpt lat="43.89529968019699" lon="11.518923983040956"><ele>161.0</ele><time>2026-04-10T12:48:45.001Z</time></trkpt><trkpt lat="43.89518150321765" lon="11.519011205818282"><ele>161.0</ele><time>2026-04-10T12:48:46.001Z</time></trkpt><trkpt lat="43.89506897148681" lon="11.519097347992696"><ele>160.25</ele><time>2026-04-10T12:48:47.001Z</time></trkpt><trkpt lat="43.89496125103833" lon="11.519178199338633"><ele>159.5</ele><time>2026-04-10T12:48:48.001Z</time></trkpt><trkpt lat="43.89484837140394" lon="11.519260662451147"><ele>158.75</ele><time>2026-04-10T12:48:49.001Z</time></trkpt><trkpt lat="43.89473126855904" lon="11.519337251096625"><ele>158.0</ele><time>2026-04-10T12:48:50.001Z</time></trkpt><trkpt lat="43.894620568418325" lon="11.51940826848811"><ele>158.0</ele><time>2026-04-10T12:48:51.001Z</time></trkpt><trkpt lat="43.8945095867677" lon="11.519478983325188"><ele>158.0</ele><time>2026-04-10T12:48:52.001Z</time></trkpt><trkpt lat="43.894395992487766" lon="11.519546577746278"><ele>158.0</ele><time>2026-04-10T12:48:53.001Z</time></trkpt><trkpt lat="43.894286440077444" lon="11.519610292352514"><ele>158.0</ele><time>2026-04-10T12:48:54.001Z</time></trkpt><trkpt lat="43.89418298009192" lon="11.519667949536755"><ele>158.5</ele><time>2026-04-10T12:48:55.001Z</time></trkpt><trkpt lat="43.894081071565076" lon="11.51972907362788"><ele>159.0</ele><time>2026-04-10T12:48:56.001Z</time></trkpt><trkpt lat="43.89397972087575" lon="11.51979234310478"><ele>159.5</ele><time>2026-04-10T12:48:57.001Z</time></trkpt><trkpt lat="43.89387438853493" lon="11.519859274700812"><ele>160.0</ele><time>2026-04-10T12:48:58.001Z</time></trkpt><trkpt lat="43.89376792328664" lon="11.519923142938474"><ele>160.0</ele><time>2026-04-10T12:48:59.001Z</time></trkpt><trkpt lat="43.89366327780439" lon="11.519986136929106"><ele>160.0</ele><time>2026-04-10T12:49:00.002Z</time></trkpt><trkpt lat="43.89355399950987" lon="11.520051637217668"><ele>160.0</ele><time>2026-04-10T12:49:01.002Z</time></trkpt><trkpt lat="43.89344318955408" lon="11.52012047687201"><ele>160.0</ele><time>2026-04-10T12:49:02.002Z</time></trkpt><trkpt lat="43.8933273123832" lon="11.520187305824956"><ele>159.5</ele><time>2026-04-10T12:49:03.002Z</time></trkpt><trkpt lat="43.89320765169767" lon="11.520252771527103"><ele>159.0</ele><time>2026-04-10T12:49:04.002Z</time></trkpt><trkpt lat="43.893089633065394" lon="11.520319625093363"><ele>158.5</ele><time>2026-04-10T12:49:05.002Z</time></trkpt><trkpt lat="43.892969083569504" lon="11.520395517698205"><ele>158.0</ele><time>2026-04-10T12:49:06.002Z</time></trkpt><trkpt lat="43.89285188714685" lon="11.520474620636925"><ele>158.75</ele><time>2026-04-10T12:49:07.002Z</time></trkpt><trkpt lat="43.89273794099937" lon="11.520561342765713"><ele>159.5</ele><time>2026-04-10T12:49:08.002Z</time></trkpt><trkpt lat="43.89262392614936" lon="11.520647657057538"><ele>160.25</ele><time>2026-04-10T12:49:09.002Z</time></trkpt><trkpt lat="43.89250648721747" lon="11.520741132222328"><ele>161.0</ele><time>2026-04-10T12:49:10.002Z</time></trkpt><trkpt lat="43.892392303406865" lon="11.52084192765374"><ele>161.0</ele><time>2026-04-10T12:49:11.002Z</time></trkpt><trkpt lat="43.89227636169462" lon="11.520945518247238"><ele>161.0</ele><time>2026-04-10T12:49:12.002Z</time></trkpt><trkpt lat="43.89215883286927" lon="11.521050128509806"><ele>161.0</ele><time>2026-04-10T12:49:13.002Z</time></trkpt><trkpt lat="43.89203842467208" lon="11.521147568670076"><ele>161.0</ele><time>2026-04-10T12:49:14.002Z</time></trkpt><trkpt lat="43.891923267190556" lon="11.52124399656252"><ele>161.0</ele><time>2026-04-10T12:49:15.002Z</time></trkpt><trkpt lat="43.89181422433549" lon="11.521334477647304"><ele>161.0</ele><time>2026-04-10T12:49:16.002Z</time></trkpt><trkpt lat="43.89170684135546" lon="11.521431708428572"><ele>161.0</ele><time>2026-04-10T12:49:17.002Z</time></trkpt><trkpt lat="43.891597980829005" lon="11.521528288216448"><ele>161.0</ele><time>2026-04-10T12:49:18.002Z</time></trkpt><trkpt lat="43.891493808794955" lon="11.52162751362945"><ele>161.0</ele><time>2026-04-10T12:49:19.002Z</time></trkpt><trkpt lat="43.891396084173216" lon="11.521727115477027"><ele>161.0</ele><time>2026-04-10T12:49:20.002Z</time></trkpt><trkpt lat="43.89131484335415" lon="11.521829524258443"><ele>161.0</ele><time>2026-04-10T12:49:21.002Z</time></trkpt><trkpt lat="43.891241763538076" lon="11.521940822239014"><ele>161.0</ele><time>2026-04-10T12:49:22.002Z</time></trkpt><trkpt lat="43.89117904563951" lon="11.52205562381793"><ele>161.0</ele><time>2026-04-10T12:49:23.002Z</time></trkpt><trkpt lat="43.89112326241274" lon="11.522172061832082"><ele>161.20000000000002</ele><time>2026-04-10T12:49:24.002Z</time></trkpt><trkpt lat="43.891075474272256" lon="11.522298627055566"><ele>161.4</ele><time>2026-04-10T12:49:25.002Z</time></trkpt><trkpt lat="43.891036455879984" lon="11.522426984722507"><ele>161.6</ele><time>2026-04-10T12:49:26.002Z</time></trkpt><trkpt lat="43.89100476385135" lon="11.522554688851326"><ele>161.8</ele><time>2026-04-10T12:49:27.002Z</time></trkpt><trkpt lat="43.89098289279492" lon="11.522676009383437"><ele>162.0</ele><time>2026-04-10T12:49:28.002Z</time></trkpt><trkpt lat="43.89097142907565" lon="11.522793643070793"><ele>162.2</ele><time>2026-04-10T12:49:29.002Z</time></trkpt><trkpt lat="43.8909488452778" lon="11.522901327385943"><ele>162.39999999999998</ele><time>2026-04-10T12:49:30.002Z</time></trkpt><trkpt lat="43.89094831262012" lon="11.523004814774472"><ele>162.60000000000002</ele><time>2026-04-10T12:49:31.002Z</time></trkpt><trkpt lat="43.89095828916059" lon="11.523162149062786"><ele>162.8</ele><time>2026-04-10T12:49:33.002Z</time></trkpt><trkpt lat="43.8908458577821" lon="11.523236202880424"><ele>163.0</ele><time>2026-04-10T12:49:35.002Z</time></trkpt><trkpt lat="43.89075768938405" lon="11.52323791031743"><ele>162.4</ele><time>2026-04-10T12:49:36.002Z</time></trkpt><trkpt lat="43.89066237250572" lon="11.523246244480692"><ele>161.8</ele><time>2026-04-10T12:49:37.002Z</time></trkpt><trkpt lat="43.89055552236405" lon="11.52326181787886"><ele>161.2</ele><time>2026-04-10T12:49:38.002Z</time></trkpt><trkpt lat="43.89046746329268" lon="11.523283166566385"><ele>160.6</ele><time>2026-04-10T12:49:39.002Z</time></trkpt><trkpt lat="43.89038082681665" lon="11.523309958358285"><ele>160.0</ele><time>2026-04-10T12:49:40.002Z</time></trkpt><trkpt lat="43.890294482570035" lon="11.523361223484363"><ele>160.0</ele><time>2026-04-10T12:49:41.002Z</time></trkpt><trkpt lat="43.89020730110357" lon="11.523456415330346"><ele>160.0</ele><time>2026-04-10T12:49:42.002Z</time></trkpt><trkpt lat="43.890128205099906" lon="11.52357531690436"><ele>160.0</ele><time>2026-04-10T12:49:43.002Z</time></trkpt><trkpt lat="43.89005429100098" lon="11.52371169736528"><ele>160.0</ele><time>2026-04-10T12:49:44.002Z</time></trkpt><trkpt lat="43.889975492032406" lon="11.523845671399458"><ele>158.5</ele><time>2026-04-10T12:49:45.002Z</time></trkpt><trkpt lat="43.88990139185724" lon="11.523966805575371"><ele>157.0</ele><time>2026-04-10T12:49:46.002Z</time></trkpt><trkpt lat="43.88982319432306" lon="11.524087840273307"><ele>155.5</ele><time>2026-04-10T12:49:47.002Z</time></trkpt><trkpt lat="43.88974481027184" lon="11.524203126110683"><ele>154.0</ele><time>2026-04-10T12:49:48.002Z</time></trkpt><trkpt lat="43.88966297490226" lon="11.52430692729495"><ele>154.0</ele><time>2026-04-10T12:49:49.001Z</time></trkpt><trkpt lat="43.889576161115464" lon="11.524397629400514"><ele>154.0</ele><time>2026-04-10T12:49:50.001Z</time></trkpt><trkpt lat="43.889477010270696" lon="11.524482691310638"><ele>154.0</ele><time>2026-04-10T12:49:51.001Z</time></trkpt><trkpt lat="43.88936979733977" lon="11.52457621627189"><ele>154.0</ele><time>2026-04-10T12:49:52.001Z</time></trkpt><trkpt lat="43.88926254023703" lon="11.524674967218033"><ele>153.5</ele><time>2026-04-10T12:49:53.001Z</time></trkpt><trkpt lat="43.889151079699545" lon="11.524773262203968"><ele>153.0</ele><time>2026-04-10T12:49:54.001Z</time></trkpt><trkpt lat="43.88903763877528" lon="11.524864385616254"><ele>152.5</ele><time>2026-04-10T12:49:55.001Z</time></trkpt><trkpt lat="43.88891564678582" lon="11.52494856580421"><ele>152.0</ele><time>2026-04-10T12:49:56.001Z</time></trkpt><trkpt lat="43.88878595477923" lon="11.525022075266413"><ele>152.0</ele><time>2026-04-10T12:49:57.001Z</time></trkpt><trkpt lat="43.888657886148536" lon="11.52508761103682"><ele>152.0</ele><time>2026-04-10T12:49:58.001Z</time></trkpt><trkpt lat="43.888530479550084" lon="11.525151675708889"><ele>152.0</ele><time>2026-04-10T12:49:59.001Z</time></trkpt><trkpt lat="43.88840246290804" lon="11.525214179782092"><ele>152.0</ele><time>2026-04-10T12:50:00.001Z</time></trkpt><trkpt lat="43.888273772056905" lon="11.525276418495947"><ele>151.25</ele><time>2026-04-10T12:50:01.001Z</time></trkpt><trkpt lat="43.88814193615898" lon="11.525334123303976"><ele>150.5</ele><time>2026-04-10T12:50:02.001Z</time></trkpt><trkpt lat="43.88800562127162" lon="11.525385743365392"><ele>149.75</ele><time>2026-04-10T12:50:03.001Z</time></trkpt><trkpt lat="43.88786226894046" lon="11.52542924043942"><ele>149.0</ele><time>2026-04-10T12:50:04.001Z</time></trkpt><trkpt lat="43.88771916374557" lon="11.525468060181604"><ele>152.0</ele><time>2026-04-10T12:50:05.001Z</time></trkpt><trkpt lat="43.88756935836369" lon="11.52549667662402"><ele>155.0</ele><time>2026-04-10T12:50:06.001Z</time></trkpt><trkpt lat="43.88741951601316" lon="11.52552392101714"><ele>158.0</ele><time>2026-04-10T12:50:07.001Z</time></trkpt><trkpt lat="43.88726948943756" lon="11.525549930077377"><ele>158.0</ele><time>2026-04-10T12:50:08.001Z</time></trkpt><trkpt lat="43.8871168591366" lon="11.525578703331435"><ele>158.0</ele><time>2026-04-10T12:50:09.001Z</time></trkpt><trkpt lat="43.88696443628035" lon="11.525610230344727"><ele>158.0</ele><time>2026-04-10T12:50:10.001Z</time></trkpt><trkpt lat="43.886812810233245" lon="11.525652423759045"><ele>158.33333333333331</ele><time>2026-04-10T12:50:11.001Z</time></trkpt><trkpt lat="43.8866555196533" lon="11.52570569291852"><ele>158.66666666666666</ele><time>2026-04-10T12:50:12.001Z</time></trkpt><trkpt lat="43.886492437793066" lon="11.525764048177539"><ele>159.0</ele><time>2026-04-10T12:50:13.001Z</time></trkpt><trkpt lat="43.886322291128785" lon="11.52582191198705"><ele>159.0</ele><time>2026-04-10T12:50:14.001Z</time></trkpt><trkpt lat="43.88615743278801" lon="11.525890227404998"><ele>159.0</ele><time>2026-04-10T12:50:15.001Z</time></trkpt><trkpt lat="43.88599026844614" lon="11.525958298725953"><ele>159.0</ele><time>2026-04-10T12:50:16.001Z</time></trkpt><trkpt lat="43.88582468277934" lon="11.526024641508842"><ele>156.33333333333334</ele><time>2026-04-10T12:50:17.001Z</time></trkpt><trkpt lat="43.885655286700974" lon="11.52609014201518"><ele>153.66666666666669</ele><time>2026-04-10T12:50:18.001Z</time></trkpt><trkpt lat="43.885488893275095" lon="11.526158065738812"><ele>151.0</ele><time>2026-04-10T12:50:19.001Z</time></trkpt><trkpt lat="43.88532288845266" lon="11.526223831794773"><ele>154.33333333333334</ele><time>2026-04-10T12:50:20.001Z</time></trkpt><trkpt lat="43.8851576839499" lon="11.526289990973886"><ele>157.66666666666666</ele><time>2026-04-10T12:50:21.001Z</time></trkpt><trkpt lat="43.884990842668024" lon="11.526359548896284"><ele>161.0</ele><time>2026-04-10T12:50:22.001Z</time></trkpt><trkpt lat="43.88482414346182" lon="11.526413972143175"><ele>161.0</ele><time>2026-04-10T12:50:23.001Z</time></trkpt><trkpt lat="43.88466710733697" lon="11.526495621915249"><ele>161.0</ele><time>2026-04-10T12:50:24.001Z</time></trkpt><trkpt lat="43.88451562038066" lon="11.526585066303909"><ele>161.0</ele><time>2026-04-10T12:50:25.001Z</time></trkpt><trkpt lat="43.884363023690746" lon="11.526690424188745"><ele>161.33333333333331</ele><time>2026-04-10T12:50:26.001Z</time></trkpt><trkpt lat="43.88421695939725" lon="11.526820050005337"><ele>161.66666666666666</ele><time>2026-04-10T12:50:27.001Z</time></trkpt><trkpt lat="43.88408286939392" lon="11.526964729342705"><ele>162.0</ele><time>2026-04-10T12:50:28.001Z</time></trkpt><trkpt lat="43.88396211549204" lon="11.52710585752454"><ele>162.0</ele><time>2026-04-10T12:50:29.001Z</time></trkpt><trkpt lat="43.88386068412861" lon="11.52727279124965"><ele>162.0</ele><time>2026-04-10T12:50:30.001Z</time></trkpt><trkpt lat="43.88375056700233" lon="11.52742325868198"><ele>162.0</ele><time>2026-04-10T12:50:31.001Z</time></trkpt><trkpt lat="43.88366075602035" lon="11.527565920582878"><ele>162.0</ele><time>2026-04-10T12:50:32.001Z</time></trkpt><trkpt lat="43.88357618235377" lon="11.527700263225753"><ele>162.0</ele><time>2026-04-10T12:50:33.001Z</time></trkpt><trkpt lat="43.8834974570718" lon="11.527824297036204"><ele>162.0</ele><time>2026-04-10T12:50:34.001Z</time></trkpt><trkpt lat="43.88342857720752" lon="11.527931712696281"><ele>162.0</ele><time>2026-04-10T12:50:35.001Z</time></trkpt><trkpt lat="43.88337586324166" lon="11.528013918374"><ele>162.0</ele><time>2026-04-10T12:50:36.001Z</time></trkpt><trkpt lat="43.88333409997453" lon="11.528079610517405"><ele>162.0</ele><time>2026-04-10T12:50:38.001Z</time></trkpt><trkpt lat="43.88327463109321" lon="11.528209169245631"><ele>161.4</ele><time>2026-04-10T12:50:57.001Z</time></trkpt><trkpt lat="43.88320576164836" lon="11.528280604397915"><ele>160.79999999999998</ele><time>2026-04-10T12:50:58.001Z</time></trkpt><trkpt lat="43.88313951304829" lon="11.528385153027187"><ele>160.2</ele><time>2026-04-10T12:50:59.001Z</time></trkpt><trkpt lat="43.883042727528085" lon="11.528471668246242"><ele>159.6</ele><time>2026-04-10T12:51:00.001Z</time></trkpt><trkpt lat="43.88292668794101" lon="11.528555876132732"><ele>159.0</ele><time>2026-04-10T12:51:01.001Z</time></trkpt><trkpt lat="43.88281206563197" lon="11.5286382297973"><ele>159.0</ele><time>2026-04-10T12:51:02.001Z</time></trkpt><trkpt lat="43.88270578165725" lon="11.52871286664246"><ele>159.0</ele><time>2026-04-10T12:51:03.001Z</time></trkpt><trkpt lat="43.88260255623767" lon="11.528776514286633"><ele>159.0</ele><time>2026-04-10T12:51:04.001Z</time></trkpt><trkpt lat="43.88249267577934" lon="11.528819354619008"><ele>159.0</ele><time>2026-04-10T12:51:05.001Z</time></trkpt><trkpt lat="43.88238235559361" lon="11.528877884763844"><ele>160.25</ele><time>2026-04-10T12:51:06.001Z</time></trkpt><trkpt lat="43.882274679828065" lon="11.528959259854583"><ele>161.5</ele><time>2026-04-10T12:51:07.001Z</time></trkpt><trkpt lat="43.88215224612494" lon="11.52899996893792"><ele>162.75</ele><time>2026-04-10T12:51:08.001Z</time></trkpt><trkpt lat="43.88202348665367" lon="11.529068948439704"><ele>164.0</ele><time>2026-04-10T12:51:09.002Z</time></trkpt><trkpt lat="43.88188688320606" lon="11.529158630028954"><ele>162.33333333333331</ele><time>2026-04-10T12:51:10.002Z</time></trkpt><trkpt lat="43.88174318715006" lon="11.529234669968913"><ele>160.66666666666666</ele><time>2026-04-10T12:51:11.002Z</time></trkpt><trkpt lat="43.88159545839943" lon="11.529312848309445"><ele>159.0</ele><time>2026-04-10T12:51:12.002Z</time></trkpt><trkpt lat="43.88144117741065" lon="11.529360096038634"><ele>159.0</ele><time>2026-04-10T12:51:13.002Z</time></trkpt><trkpt lat="43.881289927012325" lon="11.529429223717898"><ele>159.0</ele><time>2026-04-10T12:51:14.002Z</time></trkpt><trkpt lat="43.88115467096898" lon="11.529514355928642"><ele>159.0</ele><time>2026-04-10T12:51:15.002Z</time></trkpt><trkpt lat="43.88101064845381" lon="11.529560798571303"><ele>162.25</ele><time>2026-04-10T12:51:16.002Z</time></trkpt><trkpt lat="43.880864181160796" lon="11.529587771096635"><ele>165.5</ele><time>2026-04-10T12:51:17.002Z</time></trkpt><trkpt lat="43.88071428610537" lon="11.52959066430365"><ele>168.75</ele><time>2026-04-10T12:51:18.002Z</time></trkpt><trkpt lat="43.88057489311827" lon="11.529596103641595"><ele>172.0</ele><time>2026-04-10T12:51:19.002Z</time></trkpt><trkpt lat="43.88043751524129" lon="11.52959464383611"><ele>172.0</ele><time>2026-04-10T12:51:20.002Z</time></trkpt><trkpt lat="43.88029526183094" lon="11.529568547763802"><ele>172.0</ele><time>2026-04-10T12:51:21.002Z</time></trkpt><trkpt lat="43.880148512229766" lon="11.529490937015913"><ele>172.0</ele><time>2026-04-10T12:51:22.002Z</time></trkpt><trkpt lat="43.880006155609266" lon="11.529395065554173"><ele>167.75</ele><time>2026-04-10T12:51:23.002Z</time></trkpt><trkpt lat="43.879868685070676" lon="11.529308780487918"><ele>163.5</ele><time>2026-04-10T12:51:24.002Z</time></trkpt><trkpt lat="43.87973724345222" lon="11.529238799721488"><ele>159.25</ele><time>2026-04-10T12:51:25.002Z</time></trkpt><trkpt lat="43.879607607788905" lon="11.529194936486645"><ele>155.0</ele><time>2026-04-10T12:51:26.002Z</time></trkpt><trkpt lat="43.87947642927562" lon="11.52917969016287"><ele>155.0</ele><time>2026-04-10T12:51:27.002Z</time></trkpt><trkpt lat="43.879340271491614" lon="11.529226435696467"><ele>155.0</ele><time>2026-04-10T12:51:28.002Z</time></trkpt><trkpt lat="43.8792035440391" lon="11.529313211357884"><ele>155.0</ele><time>2026-04-10T12:51:29.002Z</time></trkpt><trkpt lat="43.87904986219969" lon="11.529381239896795"><ele>154.75</ele><time>2026-04-10T12:51:30.002Z</time></trkpt><trkpt lat="43.878914916903874" lon="11.529470971439196"><ele>154.5</ele><time>2026-04-10T12:51:31.002Z</time></trkpt><trkpt lat="43.87877957686944" lon="11.529520031712956"><ele>154.25</ele><time>2026-04-10T12:51:32.002Z</time></trkpt><trkpt lat="43.87863946909835" lon="11.529526659752667"><ele>154.0</ele><time>2026-04-10T12:51:33.002Z</time></trkpt><trkpt lat="43.878490870850634" lon="11.529468664543113"><ele>153.66666666666669</ele><time>2026-04-10T12:51:34.002Z</time></trkpt><trkpt lat="43.8783441377644" lon="11.529393950220594"><ele>153.33333333333334</ele><time>2026-04-10T12:51:35.002Z</time></trkpt><trkpt lat="43.87819056927953" lon="11.529347936438585"><ele>153.0</ele><time>2026-04-10T12:51:36.002Z</time></trkpt><trkpt lat="43.87802965818623" lon="11.529345144335158"><ele>153.0</ele><time>2026-04-10T12:51:37.002Z</time></trkpt><trkpt lat="43.87786140848316" lon="11.529373276336981"><ele>153.0</ele><time>2026-04-10T12:51:38.002Z</time></trkpt><trkpt lat="43.87768465619469" lon="11.52940746302941"><ele>153.0</ele><time>2026-04-10T12:51:39.002Z</time></trkpt><trkpt lat="43.87750150856436" lon="11.529434961150299"><ele>152.0</ele><time>2026-04-10T12:51:40.002Z</time></trkpt><trkpt lat="43.87731900885747" lon="11.52945830649432"><ele>151.0</ele><time>2026-04-10T12:51:41.002Z</time></trkpt><trkpt lat="43.87713977770056" lon="11.529478819914202"><ele>150.0</ele><time>2026-04-10T12:51:42.002Z</time></trkpt><trkpt lat="43.87696348496933" lon="11.529505760348403"><ele>150.0</ele><time>2026-04-10T12:51:43.002Z</time></trkpt><trkpt lat="43.87678440994233" lon="11.529540407861512"><ele>150.0</ele><time>2026-04-10T12:51:44.002Z</time></trkpt><trkpt lat="43.87660320344541" lon="11.529589744317594"><ele>150.0</ele><time>2026-04-10T12:51:45.002Z</time></trkpt><trkpt lat="43.87642213846144" lon="11.529652058512342"><ele>150.66666666666666</ele><time>2026-04-10T12:51:46.002Z</time></trkpt><trkpt lat="43.876241736037656" lon="11.529689739433966"><ele>151.33333333333331</ele><time>2026-04-10T12:51:47.002Z</time></trkpt><trkpt lat="43.87606673312964" lon="11.52974781475434"><ele>152.0</ele><time>2026-04-10T12:51:48.002Z</time></trkpt><trkpt lat="43.87589115231863" lon="11.529805453682492"><ele>152.0</ele><time>2026-04-10T12:51:49.002Z</time></trkpt><trkpt lat="43.87572756585587" lon="11.529883380579378"><ele>152.0</ele><time>2026-04-10T12:51:50.002Z</time></trkpt><trkpt lat="43.875557094234765" lon="11.529931026484169"><ele>152.0</ele><time>2026-04-10T12:51:51.002Z</time></trkpt><trkpt lat="43.87538372266107" lon="11.529959630572488"><ele>152.0</ele><time>2026-04-10T12:51:52.002Z</time></trkpt><trkpt lat="43.875209240888495" lon="11.529960191066392"><ele>152.0</ele><time>2026-04-10T12:51:53.002Z</time></trkpt><trkpt lat="43.87503327479565" lon="11.529939908006085"><ele>152.0</ele><time>2026-04-10T12:51:54.002Z</time></trkpt><trkpt lat="43.87485978781751" lon="11.529902642934406"><ele>152.0</ele><time>2026-04-10T12:51:55.001Z</time></trkpt><trkpt lat="43.87469017079756" lon="11.52984360627027"><ele>152.0</ele><time>2026-04-10T12:51:56.001Z</time></trkpt><trkpt lat="43.87452308767129" lon="11.529766285622209"><ele>152.0</ele><time>2026-04-10T12:51:57.001Z</time></trkpt><trkpt lat="43.8743599336934" lon="11.529672293065847"><ele>153.33333333333331</ele><time>2026-04-10T12:51:58.001Z</time></trkpt><trkpt lat="43.87420088624895" lon="11.529565783201551"><ele>154.66666666666666</ele><time>2026-04-10T12:51:59.001Z</time></trkpt><trkpt lat="43.874044921406565" lon="11.529455703202533"><ele>156.0</ele><time>2026-04-10T12:52:00.001Z</time></trkpt><trkpt lat="43.873889550995074" lon="11.529347381430647"><ele>152.0</ele><time>2026-04-10T12:52:01.001Z</time></trkpt><trkpt lat="43.87374505624366" lon="11.529244689682068"><ele>148.0</ele><time>2026-04-10T12:52:02.001Z</time></trkpt><trkpt lat="43.87360784726823" lon="11.529159489217367"><ele>144.0</ele><time>2026-04-10T12:52:03.001Z</time></trkpt><trkpt lat="43.87346720446482" lon="11.529115975407503"><ele>145.0</ele><time>2026-04-10T12:52:04.001Z</time></trkpt><trkpt lat="43.87330883895221" lon="11.52912259394363"><ele>146.0</ele><time>2026-04-10T12:52:05.001Z</time></trkpt><trkpt lat="43.87314410974362" lon="11.529176240056243"><ele>147.0</ele><time>2026-04-10T12:52:06.001Z</time></trkpt><trkpt lat="43.87297441468133" lon="11.529244216433817"><ele>147.0</ele><time>2026-04-10T12:52:07.001Z</time></trkpt><trkpt lat="43.87280393756959" lon="11.529311173812351"><ele>147.0</ele><time>2026-04-10T12:52:08.001Z</time></trkpt><trkpt lat="43.87263258972819" lon="11.529377111959262"><ele>147.0</ele><time>2026-04-10T12:52:09.001Z</time></trkpt><trkpt lat="43.87245801686854" lon="11.529439999761792"><ele>146.66666666666666</ele><time>2026-04-10T12:52:10.001Z</time></trkpt><trkpt lat="43.87228519021566" lon="11.529504892574986"><ele>146.33333333333331</ele><time>2026-04-10T12:52:11.001Z</time></trkpt><trkpt lat="43.87211535960879" lon="11.529568582076577"><ele>146.0</ele><time>2026-04-10T12:52:12.001Z</time></trkpt><trkpt lat="43.87194591804309" lon="11.529634362504643"><ele>147.33333333333331</ele><time>2026-04-10T12:52:13.001Z</time></trkpt><trkpt lat="43.871786296614495" lon="11.529694513112872"><ele>148.66666666666666</ele><time>2026-04-10T12:52:14.001Z</time></trkpt><trkpt lat="43.871635210698145" lon="11.52975103022033"><ele>150.0</ele><time>2026-04-10T12:52:15.001Z</time></trkpt><trkpt lat="43.871486520848215" lon="11.52980712868805"><ele>150.0</ele><time>2026-04-10T12:52:16.001Z</time></trkpt><trkpt lat="43.87134615853876" lon="11.529857537248532"><ele>150.0</ele><time>2026-04-10T12:52:17.001Z</time></trkpt><trkpt lat="43.871211044280464" lon="11.529909523142877"><ele>150.0</ele><time>2026-04-10T12:52:18.001Z</time></trkpt><trkpt lat="43.871073058321926" lon="11.529944530623004"><ele>150.0</ele><time>2026-04-10T12:52:19.001Z</time></trkpt><trkpt lat="43.870934904770365" lon="11.52999773822611"><ele>149.0</ele><time>2026-04-10T12:52:20.001Z</time></trkpt><trkpt lat="43.870793116273546" lon="11.530052345799158"><ele>148.0</ele><time>2026-04-10T12:52:21.001Z</time></trkpt><trkpt lat="43.8706536755633" lon="11.5301253879575"><ele>147.0</ele><time>2026-04-10T12:52:22.001Z</time></trkpt><trkpt lat="43.87050879364191" lon="11.530176148477764"><ele>146.0</ele><time>2026-04-10T12:52:23.001Z</time></trkpt><trkpt lat="43.87036124223647" lon="11.530209680298592"><ele>146.0</ele><time>2026-04-10T12:52:24.001Z</time></trkpt><trkpt lat="43.8702120231727" lon="11.53020667051471"><ele>146.0</ele><time>2026-04-10T12:52:25.001Z</time></trkpt><trkpt lat="43.87006799890752" lon="11.530167087970352"><ele>146.0</ele><time>2026-04-10T12:52:26.001Z</time></trkpt><trkpt lat="43.86992765581966" lon="11.530097497979424"><ele>146.0</ele><time>2026-04-10T12:52:27.001Z</time></trkpt><trkpt lat="43.86979842174964" lon="11.530001212555138"><ele>146.5</ele><time>2026-04-10T12:52:28.001Z</time></trkpt><trkpt lat="43.86968377803447" lon="11.529890375548593"><ele>147.0</ele><time>2026-04-10T12:52:29.001Z</time></trkpt><trkpt lat="43.86957053561233" lon="11.529790930892407"><ele>147.5</ele><time>2026-04-10T12:52:30.001Z</time></trkpt><trkpt lat="43.8694533365125" lon="11.529713347607787"><ele>148.0</ele><time>2026-04-10T12:52:31.001Z</time></trkpt><trkpt lat="43.869321114006894" lon="11.529674264038567"><ele>149.33333333333334</ele><time>2026-04-10T12:52:32.001Z</time></trkpt><trkpt lat="43.86917005028674" lon="11.529709280082908"><ele>150.66666666666666</ele><time>2026-04-10T12:52:33.001Z</time></trkpt><trkpt lat="43.869020162868026" lon="11.529768436977298"><ele>152.0</ele><time>2026-04-10T12:52:34.001Z</time></trkpt><trkpt lat="43.86888029146017" lon="11.529827072809155"><ele>152.0</ele><time>2026-04-10T12:52:35.001Z</time></trkpt><trkpt lat="43.86873851516508" lon="11.52987934230821"><ele>152.0</ele><time>2026-04-10T12:52:36.001Z</time></trkpt><trkpt lat="43.86860134405971" lon="11.52992727766551"><ele>152.0</ele><time>2026-04-10T12:52:37.001Z</time></trkpt><trkpt lat="43.86847459189015" lon="11.529972420416936"><ele>152.0</ele><time>2026-04-10T12:52:38.001Z</time></trkpt><trkpt lat="43.86835114420033" lon="11.530007884831845"><ele>150.5</ele><time>2026-04-10T12:52:39.001Z</time></trkpt><trkpt lat="43.86822713271718" lon="11.530024413759783"><ele>149.0</ele><time>2026-04-10T12:52:40.001Z</time></trkpt><trkpt lat="43.868097416167764" lon="11.53002309201127"><ele>147.5</ele><time>2026-04-10T12:52:41.001Z</time></trkpt><trkpt lat="43.867957538876404" lon="11.530011908724187"><ele>146.0</ele><time>2026-04-10T12:52:42.001Z</time></trkpt><trkpt lat="43.86780963600123" lon="11.529999322468775"><ele>146.0</ele><time>2026-04-10T12:52:43.001Z</time></trkpt><trkpt lat="43.86765550323687" lon="11.529989813645308"><ele>146.0</ele><time>2026-04-10T12:52:44.001Z</time></trkpt><trkpt lat="43.86750038794407" lon="11.529978713669818"><ele>146.0</ele><time>2026-04-10T12:52:45.001Z</time></trkpt><trkpt lat="43.86734743274441" lon="11.529965498752894"><ele>144.66666666666666</ele><time>2026-04-10T12:52:46.001Z</time></trkpt><trkpt lat="43.86719171683455" lon="11.529954611906204"><ele>143.33333333333334</ele><time>2026-04-10T12:52:47.001Z</time></trkpt><trkpt lat="43.86703703736553" lon="11.52994650371958"><ele>142.0</ele><time>2026-04-10T12:52:48.001Z</time></trkpt><trkpt lat="43.866884943334696" lon="11.529944632383062"><ele>142.0</ele><time>2026-04-10T12:52:49.001Z</time></trkpt><trkpt lat="43.866743689095095" lon="11.529953963744846"><ele>142.0</ele><time>2026-04-10T12:52:50.001Z</time></trkpt><trkpt lat="43.86660656345218" lon="11.529979495352508"><ele>142.0</ele><time>2026-04-10T12:52:51.001Z</time></trkpt><trkpt lat="43.86647946140983" lon="11.53001822693788"><ele>142.0</ele><time>2026-04-10T12:52:52.001Z</time></trkpt><trkpt lat="43.866359639461635" lon="11.530059893080502"><ele>142.0</ele><time>2026-04-10T12:52:53.001Z</time></trkpt><trkpt lat="43.86623933021123" lon="11.530102636129817"><ele>142.0</ele><time>2026-04-10T12:52:54.001Z</time></trkpt><trkpt lat="43.866118777729085" lon="11.530149710046189"><ele>142.0</ele><time>2026-04-10T12:52:55.001Z</time></trkpt><trkpt lat="43.86599480658134" lon="11.530202217696598"><ele>142.0</ele><time>2026-04-10T12:52:56.001Z</time></trkpt><trkpt lat="43.865877198261806" lon="11.53025482935788"><ele>141.75</ele><time>2026-04-10T12:52:57.001Z</time></trkpt><trkpt lat="43.865762998413466" lon="11.530305301083013"><ele>141.5</ele><time>2026-04-10T12:52:58.001Z</time></trkpt><trkpt lat="43.86565059221629" lon="11.530359247221634"><ele>141.25</ele><time>2026-04-10T12:52:59.001Z</time></trkpt><trkpt lat="43.86553433404835" lon="11.530402489796167"><ele>141.0</ele><time>2026-04-10T12:53:00.001Z</time></trkpt><trkpt lat="43.865425468136834" lon="11.530478027147439"><ele>141.0</ele><time>2026-04-10T12:53:01.001Z</time></trkpt><trkpt lat="43.865315115696" lon="11.53054249203281"><ele>141.0</ele><time>2026-04-10T12:53:02.001Z</time></trkpt><trkpt lat="43.86521632556983" lon="11.53061404301606"><ele>141.0</ele><time>2026-04-10T12:53:03.001Z</time></trkpt><trkpt lat="43.86512158176474" lon="11.530684405150954"><ele>141.0</ele><time>2026-04-10T12:53:04.001Z</time></trkpt><trkpt lat="43.865025279044865" lon="11.530744767771699"><ele>141.0</ele><time>2026-04-10T12:53:05.001Z</time></trkpt><trkpt lat="43.86491896890574" lon="11.530787376137397"><ele>141.0</ele><time>2026-04-10T12:53:06.001Z</time></trkpt><trkpt lat="43.864802950796445" lon="11.530804232901332"><ele>141.0</ele><time>2026-04-10T12:53:07.001Z</time></trkpt><trkpt lat="43.86467995588457" lon="11.530806744408656"><ele>141.0</ele><time>2026-04-10T12:53:08.001Z</time></trkpt><trkpt lat="43.86455802351367" lon="11.530805552194638"><ele>141.0</ele><time>2026-04-10T12:53:09.001Z</time></trkpt><trkpt lat="43.86443570850583" lon="11.530812118057284"><ele>141.0</ele><time>2026-04-10T12:53:10.001Z</time></trkpt><trkpt lat="43.86431356722762" lon="11.530814649528539"><ele>141.0</ele><time>2026-04-10T12:53:11.001Z</time></trkpt><trkpt lat="43.86419538222414" lon="11.530816365610507"><ele>141.0</ele><time>2026-04-10T12:53:12.001Z</time></trkpt><trkpt lat="43.86408497635451" lon="11.530827689697883"><ele>141.0</ele><time>2026-04-10T12:53:13.001Z</time></trkpt><trkpt lat="43.863966662642284" lon="11.530831604044371"><ele>140.75</ele><time>2026-04-10T12:53:14.001Z</time></trkpt><trkpt lat="43.86385059024308" lon="11.530871884225494"><ele>140.5</ele><time>2026-04-10T12:53:15.001Z</time></trkpt><trkpt lat="43.86373644774013" lon="11.530941799465825"><ele>140.25</ele><time>2026-04-10T12:53:16.001Z</time></trkpt><trkpt lat="43.86362232997865" lon="11.530990445124319"><ele>140.0</ele><time>2026-04-10T12:53:17.001Z</time></trkpt><trkpt lat="43.863515811121964" lon="11.531032098342862"><ele>140.0</ele><time>2026-04-10T12:53:18.001Z</time></trkpt><trkpt lat="43.86341415679593" lon="11.53106558603713"><ele>140.0</ele><time>2026-04-10T12:53:19.001Z</time></trkpt><trkpt lat="43.8633168828756" lon="11.531067551853019"><ele>140.0</ele><time>2026-04-10T12:53:20.002Z</time></trkpt><trkpt lat="43.86323237884514" lon="11.531094483272682"><ele>140.0</ele><time>2026-04-10T12:53:21.002Z</time></trkpt><trkpt lat="43.863101314167004" lon="11.531121660678213"><ele>140.0</ele><time>2026-04-10T12:53:23.002Z</time></trkpt><trkpt lat="43.86305858627607" lon="11.531354578359108"><ele>140.5</ele><time>2026-04-10T12:53:26.002Z</time></trkpt><trkpt lat="43.863086478038106" lon="11.531465386430803"><ele>141.0</ele><time>2026-04-10T12:53:27.002Z</time></trkpt><trkpt lat="43.863110692539834" lon="11.531590242914994"><ele>141.5</ele><time>2026-04-10T12:53:28.002Z</time></trkpt><trkpt lat="43.863128217716294" lon="11.531706530786373"><ele>142.0</ele><time>2026-04-10T12:53:29.002Z</time></trkpt><trkpt lat="43.863141973508164" lon="11.531826411579791"><ele>142.5</ele><time>2026-04-10T12:53:30.002Z</time></trkpt><trkpt lat="43.86315013169994" lon="11.531956863990358"><ele>143.0</ele><time>2026-04-10T12:53:31.002Z</time></trkpt><trkpt lat="43.8631733248229" lon="11.532093149184563"><ele>143.25</ele><time>2026-04-10T12:53:32.002Z</time></trkpt><trkpt lat="43.8631978231615" lon="11.532241108155427"><ele>143.5</ele><time>2026-04-10T12:53:33.002Z</time></trkpt><trkpt lat="43.8632232022662" lon="11.532410283282951"><ele>143.75</ele><time>2026-04-10T12:53:34.002Z</time></trkpt><trkpt lat="43.86324465776023" lon="11.532590816316032"><ele>144.0</ele><time>2026-04-10T12:53:35.002Z</time></trkpt><trkpt lat="43.86327059481049" lon="11.532784310120535"><ele>144.0</ele><time>2026-04-10T12:53:36.002Z</time></trkpt><trkpt lat="43.863296321787644" lon="11.532974747671739"><ele>144.0</ele><time>2026-04-10T12:53:37.002Z</time></trkpt><trkpt lat="43.86331958794699" lon="11.533171365896811"><ele>144.0</ele><time>2026-04-10T12:53:38.002Z</time></trkpt><trkpt lat="43.863343540771396" lon="11.533372647714778"><ele>144.0</ele><time>2026-04-10T12:53:39.002Z</time></trkpt><trkpt lat="43.86336866655621" lon="11.533572025600987"><ele>144.66666666666666</ele><time>2026-04-10T12:53:40.002Z</time></trkpt><trkpt lat="43.86340238168683" lon="11.533775033929594"><ele>145.33333333333331</ele><time>2026-04-10T12:53:41.002Z</time></trkpt><trkpt lat="43.86343097018296" lon="11.533981565146004"><ele>146.0</ele><time>2026-04-10T12:53:42.002Z</time></trkpt><trkpt lat="43.86345560580048" lon="11.534196490447467"><ele>151.66666666666666</ele><time>2026-04-10T12:53:43.002Z</time></trkpt><trkpt lat="43.86347308748626" lon="11.534418147686987"><ele>157.33333333333334</ele><time>2026-04-10T12:53:44.002Z</time></trkpt><trkpt lat="43.863473778143145" lon="11.53464358323996"><ele>163.0</ele><time>2026-04-10T12:53:45.002Z</time></trkpt><trkpt lat="43.86345879724792" lon="11.534879973671398"><ele>158.33333333333334</ele><time>2026-04-10T12:53:46.002Z</time></trkpt><trkpt lat="43.86343843638208" lon="11.535123730564479"><ele>153.66666666666666</ele><time>2026-04-10T12:53:47.002Z</time></trkpt><trkpt lat="43.86341663609693" lon="11.535369949368715"><ele>149.0</ele><time>2026-04-10T12:53:48.002Z</time></trkpt><trkpt lat="43.86339543988678" lon="11.535601082674633"><ele>149.0</ele><time>2026-04-10T12:53:49.002Z</time></trkpt><trkpt lat="43.86338782055961" lon="11.535831876380053"><ele>149.0</ele><time>2026-04-10T12:53:50.002Z</time></trkpt><trkpt lat="43.863394576049195" lon="11.536074330652133"><ele>149.0</ele><time>2026-04-10T12:53:51.002Z</time></trkpt><trkpt lat="43.863445330634875" lon="11.536311457939263"><ele>154.66666666666666</ele><time>2026-04-10T12:53:52.002Z</time></trkpt><trkpt lat="43.86348306714277" lon="11.53654464952354"><ele>160.33333333333334</ele><time>2026-04-10T12:53:53.002Z</time></trkpt><trkpt lat="43.86352662659108" lon="11.536779455909162"><ele>166.0</ele><time>2026-04-10T12:53:54.002Z</time></trkpt><trkpt lat="43.86357019623856" lon="11.537015670981967"><ele>166.0</ele><time>2026-04-10T12:53:55.002Z</time></trkpt><trkpt lat="43.86359966238529" lon="11.537250998493136"><ele>166.0</ele><time>2026-04-10T12:53:56.002Z</time></trkpt><trkpt lat="43.86361322661631" lon="11.537489279468293"><ele>166.0</ele><time>2026-04-10T12:53:57.002Z</time></trkpt><trkpt lat="43.86357949963751" lon="11.537721389201483"><ele>166.66666666666669</ele><time>2026-04-10T12:53:58.002Z</time></trkpt><trkpt lat="43.86356077075539" lon="11.537953323419742"><ele>167.33333333333334</ele><time>2026-04-10T12:53:59.002Z</time></trkpt><trkpt lat="43.86352494543646" lon="11.538174590072094"><ele>168.0</ele><time>2026-04-10T12:54:00.002Z</time></trkpt><trkpt lat="43.86349127665091" lon="11.538382660675525"><ele>168.0</ele><time>2026-04-10T12:54:01.001Z</time></trkpt><trkpt lat="43.863460134395396" lon="11.538585684087337"><ele>168.0</ele><time>2026-04-10T12:54:02.001Z</time></trkpt><trkpt lat="43.863451463715684" lon="11.53879052887264"><ele>168.0</ele><time>2026-04-10T12:54:03.001Z</time></trkpt><trkpt lat="43.863476636343" lon="11.539008284911459"><ele>168.0</ele><time>2026-04-10T12:54:04.001Z</time></trkpt><trkpt lat="43.863528992899546" lon="11.539226756241526"><ele>168.0</ele><time>2026-04-10T12:54:05.001Z</time></trkpt><trkpt lat="43.86360362973941" lon="11.5394447631928"><ele>168.0</ele><time>2026-04-10T12:54:06.001Z</time></trkpt><trkpt lat="43.86367860582747" lon="11.539658153722815"><ele>168.0</ele><time>2026-04-10T12:54:07Z</time></trkpt><trkpt lat="43.86374506440329" lon="11.539863592423673"><ele>168.0</ele><time>2026-04-10T12:54:08Z</time></trkpt><trkpt lat="43.86379898522344" lon="11.540064789817999"><ele>168.0</ele><time>2026-04-10T12:54:09Z</time></trkpt><trkpt lat="43.86380718664473" lon="11.540285143206006"><ele>169.0</ele><time>2026-04-10T12:54:10Z</time></trkpt><trkpt lat="43.863809296197005" lon="11.540508883741488"><ele>170.0</ele><time>2026-04-10T12:54:11Z</time></trkpt><trkpt lat="43.863808134980836" lon="11.540739284792453"><ele>171.0</ele><time>2026-04-10T12:54:12Z</time></trkpt><trkpt lat="43.863806843138526" lon="11.540977244787491"><ele>171.0</ele><time>2026-04-10T12:54:13Z</time></trkpt><trkpt lat="43.86380468270964" lon="11.541215018969632"><ele>171.0</ele><time>2026-04-10T12:54:14Z</time></trkpt><trkpt lat="43.863815137676525" lon="11.54144207685953"><ele>171.0</ele><time>2026-04-10T12:54:15Z</time></trkpt><trkpt lat="43.86381184471257" lon="11.541658032034917"><ele>171.5</ele><time>2026-04-10T12:54:16Z</time></trkpt><trkpt lat="43.86381114352913" lon="11.541870421067284"><ele>172.0</ele><time>2026-04-10T12:54:17Z</time></trkpt><trkpt lat="43.86382313631467" lon="11.54206833442698"><ele>172.5</ele><time>2026-04-10T12:54:18Z</time></trkpt><trkpt lat="43.86386895185294" lon="11.542242943298962"><ele>173.0</ele><time>2026-04-10T12:54:19Z</time></trkpt><trkpt lat="43.863957078848536" lon="11.54240948657829"><ele>171.5</ele><time>2026-04-10T12:54:20Z</time></trkpt><trkpt lat="43.86406560475842" lon="11.5425307229955"><ele>170.0</ele><time>2026-04-10T12:54:21Z</time></trkpt><trkpt lat="43.86418930549604" lon="11.542638031481584"><ele>168.5</ele><time>2026-04-10T12:54:22Z</time></trkpt><trkpt lat="43.86429287574171" lon="11.542758592199911"><ele>167.0</ele><time>2026-04-10T12:54:23Z</time></trkpt><trkpt lat="43.86437161706732" lon="11.542906074989403"><ele>173.66666666666666</ele><time>2026-04-10T12:54:24Z</time></trkpt><trkpt lat="43.86441595368783" lon="11.543092132642565"><ele>180.33333333333334</ele><time>2026-04-10T12:54:25Z</time></trkpt><trkpt lat="43.86444943322482" lon="11.543303607083654"><ele>187.0</ele><time>2026-04-10T12:54:26Z</time></trkpt><trkpt lat="43.86450028724762" lon="11.54353438321742"><ele>185.33333333333334</ele><time>2026-04-10T12:54:27Z</time></trkpt><trkpt lat="43.864529434039795" lon="11.543779569430633"><ele>183.66666666666666</ele><time>2026-04-10T12:54:28Z</time></trkpt><trkpt lat="43.86456604056398" lon="11.544022653983294"><ele>182.0</ele><time>2026-04-10T12:54:29Z</time></trkpt><trkpt lat="43.86460225011338" lon="11.544265786451009"><ele>182.0</ele><time>2026-04-10T12:54:30Z</time></trkpt><trkpt lat="43.86463860270344" lon="11.544513550594228"><ele>182.0</ele><time>2026-04-10T12:54:31.001Z</time></trkpt><trkpt lat="43.86467610340307" lon="11.54476075134984"><ele>182.0</ele><time>2026-04-10T12:54:32.001Z</time></trkpt><trkpt lat="43.864714059069065" lon="11.54500701553263"><ele>181.0</ele><time>2026-04-10T12:54:33.001Z</time></trkpt><trkpt lat="43.86474692571905" lon="11.545254337199918"><ele>180.0</ele><time>2026-04-10T12:54:34.001Z</time></trkpt><trkpt lat="43.86476974894056" lon="11.545512312586542"><ele>179.0</ele><time>2026-04-10T12:54:35.001Z</time></trkpt><trkpt lat="43.86478593758486" lon="11.545773675306746"><ele>178.33333333333331</ele><time>2026-04-10T12:54:36.001Z</time></trkpt><trkpt lat="43.86480481953647" lon="11.546039728666926"><ele>177.66666666666666</ele><time>2026-04-10T12:54:37.001Z</time></trkpt><trkpt lat="43.864829895376545" lon="11.546309713764192"><ele>177.0</ele><time>2026-04-10T12:54:38.001Z</time></trkpt><trkpt lat="43.86485390567028" lon="11.546579522775112"><ele>176.66666666666666</ele><time>2026-04-10T12:54:39.001Z</time></trkpt><trkpt lat="43.86487831292055" lon="11.546851773940718"><ele>176.33333333333331</ele><time>2026-04-10T12:54:40.001Z</time></trkpt><trkpt lat="43.8649020579219" lon="11.547123137311905"><ele>176.0</ele><time>2026-04-10T12:54:41.001Z</time></trkpt><trkpt lat="43.864925407422675" lon="11.547395517446175"><ele>176.0</ele><time>2026-04-10T12:54:42.001Z</time></trkpt><trkpt lat="43.86495306646843" lon="11.547664038283665"><ele>176.0</ele><time>2026-04-10T12:54:43.001Z</time></trkpt><trkpt lat="43.86498120375987" lon="11.547926781856143"><ele>176.0</ele><time>2026-04-10T12:54:44.001Z</time></trkpt><trkpt lat="43.86501370437405" lon="11.548187798996407"><ele>175.0</ele><time>2026-04-10T12:54:45.001Z</time></trkpt><trkpt lat="43.86506030502994" lon="11.548445073021204"><ele>174.0</ele><time>2026-04-10T12:54:46.001Z</time></trkpt><trkpt lat="43.86516129164484" lon="11.548672909955577"><ele>173.0</ele><time>2026-04-10T12:54:47.001Z</time></trkpt><trkpt lat="43.865212949861984" lon="11.548939637084231"><ele>176.0</ele><time>2026-04-10T12:54:48.001Z</time></trkpt><trkpt lat="43.86531127121605" lon="11.549169166717114"><ele>179.0</ele><time>2026-04-10T12:54:49.001Z</time></trkpt><trkpt lat="43.8654261743521" lon="11.549387291332584"><ele>182.0</ele><time>2026-04-10T12:54:50.001Z</time></trkpt><trkpt lat="43.8655452855241" lon="11.549606245172477"><ele>182.0</ele><time>2026-04-10T12:54:51.001Z</time></trkpt><trkpt lat="43.86565620469769" lon="11.549817995250429"><ele>182.0</ele><time>2026-04-10T12:54:52.001Z</time></trkpt><trkpt lat="43.865759589601915" lon="11.550012604471826"><ele>182.0</ele><time>2026-04-10T12:54:53.001Z</time></trkpt><trkpt lat="43.86586196375032" lon="11.55020249405693"><ele>192.0</ele><time>2026-04-10T12:54:54.001Z</time></trkpt><trkpt lat="43.86594887702813" lon="11.550416187794822"><ele>202.0</ele><time>2026-04-10T12:54:55.001Z</time></trkpt><trkpt lat="43.866005712801794" lon="11.55063875957876"><ele>212.0</ele><time>2026-04-10T12:54:56.001Z</time></trkpt><trkpt lat="43.866026280252484" lon="11.550871778162175"><ele>212.0</ele><time>2026-04-10T12:54:57.001Z</time></trkpt><trkpt lat="43.86600110506364" lon="11.551107330517254"><ele>212.0</ele><time>2026-04-10T12:54:58.001Z</time></trkpt><trkpt lat="43.86598360651717" lon="11.551335686232827"><ele>212.0</ele><time>2026-04-10T12:54:59.001Z</time></trkpt><trkpt lat="43.8659623896635" lon="11.55158448088918"><ele>202.66666666666669</ele><time>2026-04-10T12:55:00.001Z</time></trkpt><trkpt lat="43.86594031096914" lon="11.551843381053848"><ele>193.33333333333334</ele><time>2026-04-10T12:55:01.001Z</time></trkpt><trkpt lat="43.86591829165375" lon="11.55210158511312"><ele>184.0</ele><time>2026-04-10T12:55:02.001Z</time></trkpt><trkpt lat="43.86591574075206" lon="11.552364168489223"><ele>184.0</ele><time>2026-04-10T12:55:03.001Z</time></trkpt><trkpt lat="43.86587317707342" lon="11.552615606026386"><ele>184.0</ele><time>2026-04-10T12:55:04.001Z</time></trkpt><trkpt lat="43.86581671032969" lon="11.552868117810736"><ele>184.0</ele><time>2026-04-10T12:55:05.001Z</time></trkpt><trkpt lat="43.86574796962646" lon="11.553120320833798"><ele>184.33333333333334</ele><time>2026-04-10T12:55:06.001Z</time></trkpt><trkpt lat="43.86567128096049" lon="11.553360780093936"><ele>184.66666666666666</ele><time>2026-04-10T12:55:07.001Z</time></trkpt><trkpt lat="43.86556552646704" lon="11.55357304640055"><ele>185.0</ele><time>2026-04-10T12:55:08.001Z</time></trkpt><trkpt lat="43.86550718987069" lon="11.55380522149839"><ele>186.66666666666666</ele><time>2026-04-10T12:55:09.001Z</time></trkpt><trkpt lat="43.865439208261265" lon="11.554008492942007"><ele>188.33333333333334</ele><time>2026-04-10T12:55:10.001Z</time></trkpt><trkpt lat="43.865378825476505" lon="11.55421104564815"><ele>190.0</ele><time>2026-04-10T12:55:11.001Z</time></trkpt><trkpt lat="43.865362288891525" lon="11.55441777246686"><ele>191.66666666666669</ele><time>2026-04-10T12:55:12.001Z</time></trkpt><trkpt lat="43.86543882595181" lon="11.554604889544198"><ele>193.33333333333334</ele><time>2026-04-10T12:55:13.001Z</time></trkpt><trkpt lat="43.86553372181774" lon="11.554773672902824"><ele>195.0</ele><time>2026-04-10T12:55:14.001Z</time></trkpt><trkpt lat="43.8656512294655" lon="11.55494694829697"><ele>195.0</ele><time>2026-04-10T12:55:15.001Z</time></trkpt><trkpt lat="43.865768079572696" lon="11.555151814549228"><ele>195.0</ele><time>2026-04-10T12:55:16.001Z</time></trkpt><trkpt lat="43.86588191941981" lon="11.555344226385818"><ele>195.0</ele><time>2026-04-10T12:55:17.001Z</time></trkpt><trkpt lat="43.86591679132944" lon="11.555577941855606"><ele>194.33333333333331</ele><time>2026-04-10T12:55:18.001Z</time></trkpt><trkpt lat="43.86591458174048" lon="11.55581376777571"><ele>193.66666666666666</ele><time>2026-04-10T12:55:19.001Z</time></trkpt><trkpt lat="43.86589790627997" lon="11.556068067206619"><ele>193.0</ele><time>2026-04-10T12:55:20.001Z</time></trkpt><trkpt lat="43.86588869985321" lon="11.556347331590855"><ele>193.0</ele><time>2026-04-10T12:55:21.001Z</time></trkpt><trkpt lat="43.86586433034149" lon="11.556609328193305"><ele>193.0</ele><time>2026-04-10T12:55:22.001Z</time></trkpt><trkpt lat="43.86584522518859" lon="11.556869365285047"><ele>193.0</ele><time>2026-04-10T12:55:23.001Z</time></trkpt><trkpt lat="43.86583153281117" lon="11.557127569226257"><ele>196.0</ele><time>2026-04-10T12:55:24.001Z</time></trkpt><trkpt lat="43.86581679788883" lon="11.557382647541596"><ele>199.0</ele><time>2026-04-10T12:55:25.001Z</time></trkpt><trkpt lat="43.86580255879529" lon="11.557639404601252"><ele>202.0</ele><time>2026-04-10T12:55:26.001Z</time></trkpt><trkpt lat="43.86578791470202" lon="11.557899231921231"><ele>203.66666666666666</ele><time>2026-04-10T12:55:27.001Z</time></trkpt><trkpt lat="43.865762896270176" lon="11.558155787340073"><ele>205.33333333333331</ele><time>2026-04-10T12:55:28.001Z</time></trkpt><trkpt lat="43.86573527553574" lon="11.558408403492516"><ele>207.0</ele><time>2026-04-10T12:55:29.001Z</time></trkpt><trkpt lat="43.86570559394008" lon="11.558641586918844"><ele>206.66666666666669</ele><time>2026-04-10T12:55:30.001Z</time></trkpt><trkpt lat="43.86567362382078" lon="11.558855898555919"><ele>206.33333333333334</ele><time>2026-04-10T12:55:31.001Z</time></trkpt><trkpt lat="43.86564174281133" lon="11.559058440105986"><ele>206.0</ele><time>2026-04-10T12:55:32.001Z</time></trkpt><trkpt lat="43.865610533237096" lon="11.559265213663252"><ele>206.0</ele><time>2026-04-10T12:55:33.001Z</time></trkpt><trkpt lat="43.86557821122155" lon="11.559461846446904"><ele>206.0</ele><time>2026-04-10T12:55:34.001Z</time></trkpt><trkpt lat="43.865545306283565" lon="11.559636916660084"><ele>206.0</ele><time>2026-04-10T12:55:35.001Z</time></trkpt><trkpt lat="43.8655028798857" lon="11.559800572014153"><ele>206.0</ele><time>2026-04-10T12:55:36.001Z</time></trkpt><trkpt lat="43.865451967889626" lon="11.559950057747741"><ele>206.8</ele><time>2026-04-10T12:55:37.001Z</time></trkpt><trkpt lat="43.865392221144496" lon="11.560083583134288"><ele>207.60000000000002</ele><time>2026-04-10T12:55:38.001Z</time></trkpt><trkpt lat="43.86533497158046" lon="11.560205180396528"><ele>208.4</ele><time>2026-04-10T12:55:39.001Z</time></trkpt><trkpt lat="43.865275919531356" lon="11.56032468950593"><ele>209.2</ele><time>2026-04-10T12:55:40.001Z</time></trkpt><trkpt lat="43.86521269208575" lon="11.560447697987618"><ele>210.0</ele><time>2026-04-10T12:55:41.001Z</time></trkpt><trkpt lat="43.86514858740054" lon="11.560578494464151"><ele>207.25</ele><time>2026-04-10T12:55:42.001Z</time></trkpt><trkpt lat="43.86508387121181" lon="11.560712507545958"><ele>204.5</ele><time>2026-04-10T12:55:43.001Z</time></trkpt><trkpt lat="43.86501843482271" lon="11.560843530083615"><ele>201.75</ele><time>2026-04-10T12:55:44.001Z</time></trkpt><trkpt lat="43.86495328674975" lon="11.56098435721297"><ele>199.0</ele><time>2026-04-10T12:55:45.002Z</time></trkpt><trkpt lat="43.86488242076367" lon="11.561132779224128"><ele>201.0</ele><time>2026-04-10T12:55:46.002Z</time></trkpt><trkpt lat="43.86481069203914" lon="11.561281648515735"><ele>203.0</ele><time>2026-04-10T12:55:47.002Z</time></trkpt><trkpt lat="43.864737209552736" lon="11.561435823135497"><ele>205.0</ele><time>2026-04-10T12:55:48.002Z</time></trkpt><trkpt lat="43.86466732728249" lon="11.561589166427988"><ele>207.0</ele><time>2026-04-10T12:55:49.002Z</time></trkpt><trkpt lat="43.86460074757105" lon="11.561728970751476"><ele>207.0</ele><time>2026-04-10T12:55:50.002Z</time></trkpt><trkpt lat="43.864538714850795" lon="11.561853305765275"><ele>207.0</ele><time>2026-04-10T12:55:51.002Z</time></trkpt><trkpt lat="43.86447988854048" lon="11.561974691606233"><ele>207.0</ele><time>2026-04-10T12:55:52.002Z</time></trkpt><trkpt lat="43.864420359467225" lon="11.562100668832137"><ele>207.0</ele><time>2026-04-10T12:55:53.002Z</time></trkpt><trkpt lat="43.86435064323414" lon="11.562237215972717"><ele>207.0</ele><time>2026-04-10T12:55:54.002Z</time></trkpt><trkpt lat="43.864280504024066" lon="11.56237761542726"><ele>206.2</ele><time>2026-04-10T12:55:55.002Z</time></trkpt><trkpt lat="43.864217284047875" lon="11.562506048133697"><ele>205.39999999999998</ele><time>2026-04-10T12:55:56.002Z</time></trkpt><trkpt lat="43.86415260067792" lon="11.56263342742236"><ele>204.60000000000002</ele><time>2026-04-10T12:55:57.002Z</time></trkpt><trkpt lat="43.864088556389724" lon="11.562754429238252"><ele>203.8</ele><time>2026-04-10T12:55:58.002Z</time></trkpt><trkpt lat="43.86401791464621" lon="11.562873825296343"><ele>203.0</ele><time>2026-04-10T12:55:59.002Z</time></trkpt><trkpt lat="43.86394312535631" lon="11.563003001452884"><ele>205.5</ele><time>2026-04-10T12:56:00.002Z</time></trkpt><trkpt lat="43.86386143191972" lon="11.563132489715406"><ele>208.0</ele><time>2026-04-10T12:56:01.002Z</time></trkpt><trkpt lat="43.863776089303684" lon="11.563255779575165"><ele>210.5</ele><time>2026-04-10T12:56:02.002Z</time></trkpt><trkpt lat="43.863699167340606" lon="11.563371156245292"><ele>213.0</ele><time>2026-04-10T12:56:03.002Z</time></trkpt><trkpt lat="43.863621857716865" lon="11.56347867160274"><ele>213.0</ele><time>2026-04-10T12:56:04.002Z</time></trkpt><trkpt lat="43.86355041748458" lon="11.563586258482319"><ele>213.0</ele><time>2026-04-10T12:56:05.002Z</time></trkpt><trkpt lat="43.863477259609745" lon="11.5636844063967"><ele>213.0</ele><time>2026-04-10T12:56:06.002Z</time></trkpt><trkpt lat="43.86340168925426" lon="11.563782653397052"><ele>213.0</ele><time>2026-04-10T12:56:07Z</time></trkpt><trkpt lat="43.86332374868901" lon="11.56388417767865"><ele>213.0</ele><time>2026-04-10T12:56:08Z</time></trkpt><trkpt lat="43.86324269211977" lon="11.563991924492004"><ele>212.5</ele><time>2026-04-10T12:56:09Z</time></trkpt><trkpt lat="43.863157723354405" lon="11.564097424824242"><ele>212.0</ele><time>2026-04-10T12:56:10Z</time></trkpt><trkpt lat="43.863070078927024" lon="11.564200774603922"><ele>211.5</ele><time>2026-04-10T12:56:11Z</time></trkpt><trkpt lat="43.86297971605165" lon="11.564299264011986"><ele>211.0</ele><time>2026-04-10T12:56:12Z</time></trkpt><trkpt lat="43.86288623034243" lon="11.564407614893602"><ele>211.66666666666666</ele><time>2026-04-10T12:56:13Z</time></trkpt><trkpt lat="43.86277840016879" lon="11.564530135416334"><ele>212.33333333333331</ele><time>2026-04-10T12:56:14Z</time></trkpt><trkpt lat="43.86264346528495" lon="11.564641706189281"><ele>213.0</ele><time>2026-04-10T12:56:15Z</time></trkpt><trkpt lat="43.86250588507525" lon="11.564769400045602"><ele>213.0</ele><time>2026-04-10T12:56:16Z</time></trkpt><trkpt lat="43.862375657520836" lon="11.564907638546517"><ele>213.0</ele><time>2026-04-10T12:56:17Z</time></trkpt><trkpt lat="43.86224917058621" lon="11.565015768736101"><ele>213.0</ele><time>2026-04-10T12:56:18Z</time></trkpt><trkpt lat="43.86212668715968" lon="11.565117674656422"><ele>213.0</ele><time>2026-04-10T12:56:19Z</time></trkpt><trkpt lat="43.862016372887076" lon="11.565217168951289"><ele>213.0</ele><time>2026-04-10T12:56:20Z</time></trkpt><trkpt lat="43.8619115256158" lon="11.565314910214868"><ele>213.0</ele><time>2026-04-10T12:56:21Z</time></trkpt><trkpt lat="43.86181112339596" lon="11.565404939765086"><ele>213.0</ele><time>2026-04-10T12:56:22Z</time></trkpt><trkpt lat="43.86171870191407" lon="11.565484019777077"><ele>214.0</ele><time>2026-04-10T12:56:23Z</time></trkpt><trkpt lat="43.86162904226194" lon="11.565558350348102"><ele>215.0</ele><time>2026-04-10T12:56:24Z</time></trkpt><trkpt lat="43.8615415816156" lon="11.565634852988037"><ele>216.0</ele><time>2026-04-10T12:56:25Z</time></trkpt><trkpt lat="43.86146155754628" lon="11.56571412202575"><ele>217.0</ele><time>2026-04-10T12:56:26Z</time></trkpt><trkpt lat="43.861380514922" lon="11.565805775334516"><ele>218.0</ele><time>2026-04-10T12:56:27Z</time></trkpt><trkpt lat="43.86130244212025" lon="11.565910998215875"><ele>218.0</ele><time>2026-04-10T12:56:28Z</time></trkpt><trkpt lat="43.86123837872207" lon="11.5660203458666"><ele>218.0</ele><time>2026-04-10T12:56:29Z</time></trkpt><trkpt lat="43.86118433069552" lon="11.56613817859207"><ele>218.0</ele><time>2026-04-10T12:56:30Z</time></trkpt><trkpt lat="43.86113701085679" lon="11.566257013177742"><ele>218.0</ele><time>2026-04-10T12:56:31Z</time></trkpt><trkpt lat="43.861097351640176" lon="11.566373480880603"><ele>218.0</ele><time>2026-04-10T12:56:32Z</time></trkpt><trkpt lat="43.86106865105713" lon="11.566478844607037"><ele>217.83333333333334</ele><time>2026-04-10T12:56:33Z</time></trkpt><trkpt lat="43.86104273880334" lon="11.566576243358345"><ele>217.66666666666669</ele><time>2026-04-10T12:56:34Z</time></trkpt><trkpt lat="43.86099614872885" lon="11.566665767034337"><ele>217.5</ele><time>2026-04-10T12:56:35Z</time></trkpt><trkpt lat="43.86096620727635" lon="11.566771919509476"><ele>217.33333333333331</ele><time>2026-04-10T12:56:36Z</time></trkpt><trkpt lat="43.860930297189206" lon="11.566858532351116"><ele>217.16666666666666</ele><time>2026-04-10T12:56:37Z</time></trkpt><trkpt lat="43.86092134292087" lon="11.56697392027597"><ele>217.0</ele><time>2026-04-10T12:56:38Z</time></trkpt><trkpt lat="43.860931966980864" lon="11.567095025923422"><ele>224.25</ele><time>2026-04-10T12:56:39Z</time></trkpt><trkpt lat="43.86097921211327" lon="11.567232499513644"><ele>231.5</ele><time>2026-04-10T12:56:40Z</time></trkpt><trkpt lat="43.86105567028101" lon="11.567370022899523"><ele>238.75</ele><time>2026-04-10T12:56:41Z</time></trkpt><trkpt lat="43.86115266103894" lon="11.567531573006304"><ele>246.0</ele><time>2026-04-10T12:56:42Z</time></trkpt><trkpt lat="43.86125853591268" lon="11.56770750919792"><ele>245.5</ele><time>2026-04-10T12:56:43Z</time></trkpt><trkpt lat="43.86132998837303" lon="11.567888012347733"><ele>245.0</ele><time>2026-04-10T12:56:44Z</time></trkpt><trkpt lat="43.86137895359005" lon="11.56805367467752"><ele>244.5</ele><time>2026-04-10T12:56:45Z</time></trkpt><trkpt lat="43.861407565833225" lon="11.568231696252926"><ele>244.0</ele><time>2026-04-10T12:56:46Z</time></trkpt><trkpt lat="43.861407441272604" lon="11.568403954823731"><ele>244.0</ele><time>2026-04-10T12:56:47Z</time></trkpt><trkpt lat="43.861404850367954" lon="11.568577675064184"><ele>244.0</ele><time>2026-04-10T12:56:48Z</time></trkpt><trkpt lat="43.86141314711849" lon="11.56875007715008"><ele>244.0</ele><time>2026-04-10T12:56:49Z</time></trkpt><trkpt lat="43.86144075223918" lon="11.568945563744444"><ele>244.0</ele><time>2026-04-10T12:56:50Z</time></trkpt><trkpt lat="43.86150987898992" lon="11.56913916503593"><ele>241.66666666666666</ele><time>2026-04-10T12:56:51Z</time></trkpt><trkpt lat="43.86160020614405" lon="11.569337753368533"><ele>239.33333333333331</ele><time>2026-04-10T12:56:52Z</time></trkpt><trkpt lat="43.861674808931326" lon="11.569562368895989"><ele>237.0</ele><time>2026-04-10T12:56:53Z</time></trkpt><trkpt lat="43.86174546139415" lon="11.569774949071826"><ele>242.5</ele><time>2026-04-10T12:56:54.001Z</time></trkpt><trkpt lat="43.86180160136579" lon="11.569971030312262"><ele>248.0</ele><time>2026-04-10T12:56:55.001Z</time></trkpt><trkpt lat="43.861863390374594" lon="11.570135374487222"><ele>253.5</ele><time>2026-04-10T12:56:56.001Z</time></trkpt><trkpt lat="43.86191274579467" lon="11.570306983818591"><ele>259.0</ele><time>2026-04-10T12:56:57.001Z</time></trkpt><trkpt lat="43.86196177593031" lon="11.570483458331024"><ele>259.0</ele><time>2026-04-10T12:56:58.001Z</time></trkpt><trkpt lat="43.862027800011546" lon="11.570662446316772"><ele>259.0</ele><time>2026-04-10T12:56:59.001Z</time></trkpt><trkpt lat="43.8621016924566" lon="11.570819862004706"><ele>259.0</ele><time>2026-04-10T12:57:00.001Z</time></trkpt><trkpt lat="43.86217647423492" lon="11.57096430962971"><ele>259.0</ele><time>2026-04-10T12:57:01.001Z</time></trkpt><trkpt lat="43.86222938174659" lon="11.571120893005752"><ele>258.0</ele><time>2026-04-10T12:57:02.001Z</time></trkpt><trkpt lat="43.862259696580125" lon="11.571291210516662"><ele>257.0</ele><time>2026-04-10T12:57:03.001Z</time></trkpt><trkpt lat="43.86226473914034" lon="11.571476897850964"><ele>256.0</ele><time>2026-04-10T12:57:04.001Z</time></trkpt><trkpt lat="43.86223332496055" lon="11.57165201127207"><ele>255.0</ele><time>2026-04-10T12:57:05.001Z</time></trkpt><trkpt lat="43.86220235555301" lon="11.571837288394597"><ele>255.0</ele><time>2026-04-10T12:57:06.001Z</time></trkpt><trkpt lat="43.862166886914615" lon="11.572027896465608"><ele>255.0</ele><time>2026-04-10T12:57:07.001Z</time></trkpt><trkpt lat="43.86215119053996" lon="11.572237838919442"><ele>255.0</ele><time>2026-04-10T12:57:08.001Z</time></trkpt><trkpt lat="43.86214731391012" lon="11.572452866249028"><ele>255.0</ele><time>2026-04-10T12:57:09.001Z</time></trkpt><trkpt lat="43.8621647773535" lon="11.572678493349203"><ele>255.25</ele><time>2026-04-10T12:57:10.001Z</time></trkpt><trkpt lat="43.8621598646138" lon="11.572885721739505"><ele>255.5</ele><time>2026-04-10T12:57:11.001Z</time></trkpt><trkpt lat="43.86216397377176" lon="11.573076953261577"><ele>255.75</ele><time>2026-04-10T12:57:12.001Z</time></trkpt><trkpt lat="43.862190818264594" lon="11.573272834834814"><ele>256.0</ele><time>2026-04-10T12:57:13.001Z</time></trkpt><trkpt lat="43.86222453292064" lon="11.57348055083907"><ele>256.0</ele><time>2026-04-10T12:57:14.001Z</time></trkpt><trkpt lat="43.862291601994485" lon="11.573685263523164"><ele>256.0</ele><time>2026-04-10T12:57:15.001Z</time></trkpt><trkpt lat="43.86238704414518" lon="11.573850934812366"><ele>256.0</ele><time>2026-04-10T12:57:16.001Z</time></trkpt><trkpt lat="43.86248321934178" lon="11.573981267499937"><ele>256.0</ele><time>2026-04-10T12:57:17.001Z</time></trkpt><trkpt lat="43.862561404919866" lon="11.574114458335414"><ele>255.66666666666666</ele><time>2026-04-10T12:57:18.001Z</time></trkpt><trkpt lat="43.86259705034198" lon="11.57429022570899"><ele>255.33333333333331</ele><time>2026-04-10T12:57:19.001Z</time></trkpt><trkpt lat="43.86260149007518" lon="11.574514979456737"><ele>255.0</ele><time>2026-04-10T12:57:20.001Z</time></trkpt><trkpt lat="43.86261683173602" lon="11.574771359675028"><ele>262.0</ele><time>2026-04-10T12:57:21.001Z</time></trkpt><trkpt lat="43.86264234241565" lon="11.575052859643144"><ele>269.0</ele><time>2026-04-10T12:57:22.001Z</time></trkpt><trkpt lat="43.86266904600238" lon="11.575332465896786"><ele>276.0</ele><time>2026-04-10T12:57:23.001Z</time></trkpt><trkpt lat="43.86269903276795" lon="11.575584748645444"><ele>276.0</ele><time>2026-04-10T12:57:24.001Z</time></trkpt><trkpt lat="43.86273006575177" lon="11.575828330813646"><ele>276.0</ele><time>2026-04-10T12:57:25.001Z</time></trkpt><trkpt lat="43.86277218027518" lon="11.576049683501648"><ele>276.0</ele><time>2026-04-10T12:57:26.001Z</time></trkpt><trkpt lat="43.86283234037073" lon="11.576248098209854"><ele>271.6666666666667</ele><time>2026-04-10T12:57:27.001Z</time></trkpt><trkpt lat="43.86293045187372" lon="11.576427029125135"><ele>267.33333333333337</ele><time>2026-04-10T12:57:28.001Z</time></trkpt><trkpt lat="43.863064524133144" lon="11.576593429856485"><ele>263.0</ele><time>2026-04-10T12:57:29.001Z</time></trkpt><trkpt lat="43.86321920624053" lon="11.576741564052877"><ele>263.0</ele><time>2026-04-10T12:57:30.001Z</time></trkpt><trkpt lat="43.86338200505067" lon="11.576876100858042"><ele>263.0</ele><time>2026-04-10T12:57:31.001Z</time></trkpt><trkpt lat="43.86349890761385" lon="11.577063460365117"><ele>263.0</ele><time>2026-04-10T12:57:32.001Z</time></trkpt><trkpt lat="43.8635903824653" lon="11.577264781241775"><ele>266.0</ele><time>2026-04-10T12:57:33.001Z</time></trkpt><trkpt lat="43.86367936565612" lon="11.577470043969168"><ele>269.0</ele><time>2026-04-10T12:57:34.001Z</time></trkpt><trkpt lat="43.86373623176976" lon="11.5776752605167"><ele>272.0</ele><time>2026-04-10T12:57:35.001Z</time></trkpt><trkpt lat="43.86375903029375" lon="11.577869375926744"><ele>272.0</ele><time>2026-04-10T12:57:36.001Z</time></trkpt><trkpt lat="43.86379792263237" lon="11.578056791512315"><ele>272.0</ele><time>2026-04-10T12:57:37.001Z</time></trkpt><trkpt lat="43.863880876145345" lon="11.578226267367256"><ele>272.0</ele><time>2026-04-10T12:57:38.001Z</time></trkpt><trkpt lat="43.86401282377935" lon="11.578373307417046"><ele>272.0</ele><time>2026-04-10T12:57:39.001Z</time></trkpt><trkpt lat="43.86415886974502" lon="11.578509317307606"><ele>272.0</ele><time>2026-04-10T12:57:40.001Z</time></trkpt><trkpt lat="43.864274449406466" lon="11.578636355495453"><ele>272.0</ele><time>2026-04-10T12:57:41.001Z</time></trkpt><trkpt lat="43.86439330844012" lon="11.578767452010993"><ele>280.0</ele><time>2026-04-10T12:57:42.001Z</time></trkpt><trkpt lat="43.86448506763163" lon="11.578936198479362"><ele>288.0</ele><time>2026-04-10T12:57:43.001Z</time></trkpt><trkpt lat="43.86452867928166" lon="11.579145671034096"><ele>296.0</ele><time>2026-04-10T12:57:44.001Z</time></trkpt><trkpt lat="43.86457256446909" lon="11.579355352319855"><ele>289.75</ele><time>2026-04-10T12:57:45.001Z</time></trkpt><trkpt lat="43.86460626651476" lon="11.57953960797864"><ele>283.5</ele><time>2026-04-10T12:57:46.001Z</time></trkpt><trkpt lat="43.864655610106226" lon="11.579705081694314"><ele>277.25</ele><time>2026-04-10T12:57:47.001Z</time></trkpt><trkpt lat="43.86469196618692" lon="11.579848673831627"><ele>271.0</ele><time>2026-04-10T12:57:48.001Z</time></trkpt><trkpt lat="43.86465198872197" lon="11.580002699181376"><ele>271.0</ele><time>2026-04-10T12:57:49.001Z</time></trkpt><trkpt lat="43.864597284036286" lon="11.580137462895486"><ele>271.0</ele><time>2026-04-10T12:57:50.001Z</time></trkpt><trkpt lat="43.864487901724004" lon="11.580224381154823"><ele>271.0</ele><time>2026-04-10T12:57:51.001Z</time></trkpt><trkpt lat="43.86439056480423" lon="11.580320935127837"><ele>271.0</ele><time>2026-04-10T12:57:52.001Z</time></trkpt><trkpt lat="43.864302188061686" lon="11.580387568264472"><ele>271.25</ele><time>2026-04-10T12:57:53.001Z</time></trkpt><trkpt lat="43.864227027218696" lon="11.580403114374175"><ele>271.5</ele><time>2026-04-10T12:57:54.001Z</time></trkpt><trkpt lat="43.86414373778841" lon="11.580328079780326"><ele>271.75</ele><time>2026-04-10T12:57:55.001Z</time></trkpt><trkpt lat="43.8640647149586" lon="11.580193820533516"><ele>272.0</ele><time>2026-04-10T12:57:56.001Z</time></trkpt><trkpt lat="43.86397756255084" lon="11.580019381057475"><ele>272.0</ele><time>2026-04-10T12:57:57.001Z</time></trkpt><trkpt lat="43.863893128411355" lon="11.579816455385911"><ele>272.0</ele><time>2026-04-10T12:57:58.001Z</time></trkpt><trkpt lat="43.86379780430759" lon="11.579589572675731"><ele>272.0</ele><time>2026-04-10T12:57:59.001Z</time></trkpt><trkpt lat="43.86367983444127" lon="11.57937039788837"><ele>269.33333333333337</ele><time>2026-04-10T12:58:00.001Z</time></trkpt><trkpt lat="43.863561226140085" lon="11.57916608942984"><ele>266.6666666666667</ele><time>2026-04-10T12:58:01.001Z</time></trkpt><trkpt lat="43.86344840695019" lon="11.578992487678793"><ele>264.0</ele><time>2026-04-10T12:58:02.001Z</time></trkpt><trkpt lat="43.86333448177579" lon="11.578825013681909"><ele>266.3333333333333</ele><time>2026-04-10T12:58:03.001Z</time></trkpt><trkpt lat="43.8632323107547" lon="11.578640860417318"><ele>268.66666666666663</ele><time>2026-04-10T12:58:04.002Z</time></trkpt><trkpt lat="43.86314730968292" lon="11.578451072474284"><ele>271.0</ele><time>2026-04-10T12:58:05.002Z</time></trkpt><trkpt lat="43.86308654124203" lon="11.57826355670897"><ele>271.0</ele><time>2026-04-10T12:58:06.002Z</time></trkpt><trkpt lat="43.8630460579518" lon="11.578090229264337"><ele>271.0</ele><time>2026-04-10T12:58:07.002Z</time></trkpt><trkpt lat="43.86297045339489" lon="11.577956956047798"><ele>271.0</ele><time>2026-04-10T12:58:08.002Z</time></trkpt><trkpt lat="43.86284432104407" lon="11.577875426262132"><ele>271.0</ele><time>2026-04-10T12:58:09.002Z</time></trkpt><trkpt lat="43.86270102514652" lon="11.577824594476464"><ele>272.66666666666663</ele><time>2026-04-10T12:58:10.002Z</time></trkpt><trkpt lat="43.86254285442368" lon="11.577767005667239"><ele>274.3333333333333</ele><time>2026-04-10T12:58:11.002Z</time></trkpt><trkpt lat="43.86238515381531" lon="11.577703651018824"><ele>276.0</ele><time>2026-04-10T12:58:12.002Z</time></trkpt><trkpt lat="43.8622277190784" lon="11.577655996606657"><ele>276.0</ele><time>2026-04-10T12:58:13Z</time></trkpt><trkpt lat="43.862071740111666" lon="11.577656770932172"><ele>276.0</ele><time>2026-04-10T12:58:14Z</time></trkpt><trkpt lat="43.86191830737391" lon="11.577673874797048"><ele>276.0</ele><time>2026-04-10T12:58:15Z</time></trkpt><trkpt lat="43.86178494692542" lon="11.577706047537582"><ele>276.0</ele><time>2026-04-10T12:58:16Z</time></trkpt><trkpt lat="43.86164781029516" lon="11.577705926894295"><ele>278.75</ele><time>2026-04-10T12:58:17Z</time></trkpt><trkpt lat="43.86151210717946" lon="11.577655428689713"><ele>281.5</ele><time>2026-04-10T12:58:18Z</time></trkpt><trkpt lat="43.86139755118823" lon="11.577530998760862"><ele>284.25</ele><time>2026-04-10T12:58:19Z</time></trkpt><trkpt lat="43.861293487430125" lon="11.577440880143984"><ele>287.0</ele><time>2026-04-10T12:58:20Z</time></trkpt><trkpt lat="43.861166365610245" lon="11.577388147107115"><ele>287.0</ele><time>2026-04-10T12:58:21Z</time></trkpt><trkpt lat="43.86101883038061" lon="11.5774169018311"><ele>287.0</ele><time>2026-04-10T12:58:22Z</time></trkpt><trkpt lat="43.86089679314173" lon="11.577507196157251"><ele>287.0</ele><time>2026-04-10T12:58:23Z</time></trkpt><trkpt lat="43.86080105032781" lon="11.577652110592808"><ele>287.0</ele><time>2026-04-10T12:58:24Z</time></trkpt><trkpt lat="43.8607178282475" lon="11.577827353453554"><ele>291.33333333333337</ele><time>2026-04-10T12:58:25Z</time></trkpt><trkpt lat="43.86063301059915" lon="11.578018284395041"><ele>295.6666666666667</ele><time>2026-04-10T12:58:26Z</time></trkpt><trkpt lat="43.86053692740984" lon="11.578214110679022"><ele>300.0</ele><time>2026-04-10T12:58:27Z</time></trkpt><trkpt lat="43.860421556247495" lon="11.57839792866542"><ele>300.0</ele><time>2026-04-10T12:58:28Z</time></trkpt><trkpt lat="43.86031647639519" lon="11.578600038828418"><ele>300.0</ele><time>2026-04-10T12:58:29Z</time></trkpt><trkpt lat="43.860185285058144" lon="11.578759205873359"><ele>300.0</ele><time>2026-04-10T12:58:30Z</time></trkpt><trkpt lat="43.86006330198762" lon="11.578896629305211"><ele>302.0</ele><time>2026-04-10T12:58:31Z</time></trkpt><trkpt lat="43.859948741218915" lon="11.579003981989915"><ele>304.0</ele><time>2026-04-10T12:58:32Z</time></trkpt><trkpt lat="43.85982231705037" lon="11.579042705737647"><ele>306.0</ele><time>2026-04-10T12:58:33Z</time></trkpt><trkpt lat="43.8596829569337" lon="11.57903814739064"><ele>308.0</ele><time>2026-04-10T12:58:34Z</time></trkpt><trkpt lat="43.859540216814686" lon="11.578979027142498"><ele>308.0</ele><time>2026-04-10T12:58:35Z</time></trkpt><trkpt lat="43.85938556561169" lon="11.578908204272054"><ele>308.0</ele><time>2026-04-10T12:58:36Z</time></trkpt><trkpt lat="43.8592514351909" lon="11.578838539365877"><ele>308.0</ele><time>2026-04-10T12:58:37Z</time></trkpt><trkpt lat="43.85910684336268" lon="11.578808604464975"><ele>309.0</ele><time>2026-04-10T12:58:38Z</time></trkpt><trkpt lat="43.85894787789567" lon="11.578827472275771"><ele>310.0</ele><time>2026-04-10T12:58:39Z</time></trkpt><trkpt lat="43.85879043304053" lon="11.5788972057969"><ele>311.0</ele><time>2026-04-10T12:58:40Z</time></trkpt><trkpt lat="43.85864020638457" lon="11.57899158953309"><ele>311.0</ele><time>2026-04-10T12:58:41Z</time></trkpt><trkpt lat="43.858494785257356" lon="11.579093111440212"><ele>311.0</ele><time>2026-04-10T12:58:42Z</time></trkpt><trkpt lat="43.85835237684711" lon="11.579225371848567"><ele>311.0</ele><time>2026-04-10T12:58:43Z</time></trkpt><trkpt lat="43.858207135877" lon="11.57936097566061"><ele>316.6666666666667</ele><time>2026-04-10T12:58:44Z</time></trkpt><trkpt lat="43.85807635597432" lon="11.579518788130608"><ele>322.3333333333333</ele><time>2026-04-10T12:58:45Z</time></trkpt><trkpt lat="43.857950094394845" lon="11.579677165320069"><ele>328.0</ele><time>2026-04-10T12:58:46Z</time></trkpt><trkpt lat="43.857824325946055" lon="11.579837071050411"><ele>328.0</ele><time>2026-04-10T12:58:47Z</time></trkpt><trkpt lat="43.85769675878109" lon="11.579999264921769"><ele>328.0</ele><time>2026-04-10T12:58:48Z</time></trkpt><trkpt lat="43.85756681538639" lon="11.58016447971518"><ele>328.0</ele><time>2026-04-10T12:58:49Z</time></trkpt><trkpt lat="43.85743170511392" lon="11.58032783700465"><ele>329.66666666666663</ele><time>2026-04-10T12:58:50Z</time></trkpt><trkpt lat="43.85729043842606" lon="11.58049871753594"><ele>331.3333333333333</ele><time>2026-04-10T12:58:51Z</time></trkpt><trkpt lat="43.857147338589364" lon="11.580666762881014"><ele>333.0</ele><time>2026-04-10T12:58:52Z</time></trkpt><trkpt lat="43.85701509642345" lon="11.580846919749645"><ele>333.0</ele><time>2026-04-10T12:58:53Z</time></trkpt><trkpt lat="43.856870372838024" lon="11.581009913289725"><ele>333.0</ele><time>2026-04-10T12:58:54Z</time></trkpt><trkpt lat="43.85673496269037" lon="11.581159712053"><ele>333.0</ele><time>2026-04-10T12:58:55Z</time></trkpt><trkpt lat="43.85660554322872" lon="11.581294002190406"><ele>334.5</ele><time>2026-04-10T12:58:56Z</time></trkpt><trkpt lat="43.856472607147865" lon="11.58136819330733"><ele>336.0</ele><time>2026-04-10T12:58:57Z</time></trkpt><trkpt lat="43.85635417127032" lon="11.581453348043361"><ele>337.5</ele><time>2026-04-10T12:58:58Z</time></trkpt><trkpt lat="43.85624913560422" lon="11.58153677910746"><ele>339.0</ele><time>2026-04-10T12:58:59Z</time></trkpt><trkpt lat="43.85617411139591" lon="11.581660962553338"><ele>339.0</ele><time>2026-04-10T12:59:00Z</time></trkpt><trkpt lat="43.85616466706915" lon="11.581860684301683"><ele>339.0</ele><time>2026-04-10T12:59:01Z</time></trkpt><trkpt lat="43.856148313656924" lon="11.582072346450175"><ele>339.0</ele><time>2026-04-10T12:59:02Z</time></trkpt><trkpt lat="43.856122439532584" lon="11.582283674914562"><ele>341.5</ele><time>2026-04-10T12:59:03Z</time></trkpt><trkpt lat="43.85608989844471" lon="11.582471177041139"><ele>344.0</ele><time>2026-04-10T12:59:04Z</time></trkpt><trkpt lat="43.85607657519943" lon="11.582650735670088"><ele>346.5</ele><time>2026-04-10T12:59:05Z</time></trkpt><trkpt lat="43.856054946378485" lon="11.582819319864269"><ele>349.0</ele><time>2026-04-10T12:59:06.001Z</time></trkpt><trkpt lat="43.856060615293195" lon="11.582991177563473"><ele>353.0</ele><time>2026-04-10T12:59:07.001Z</time></trkpt><trkpt lat="43.85611677785545" lon="11.583116934663943"><ele>357.0</ele><time>2026-04-10T12:59:08.001Z</time></trkpt><trkpt lat="43.85619590191066" lon="11.583201308134935"><ele>361.0</ele><time>2026-04-10T12:59:09.001Z</time></trkpt><trkpt lat="43.856310338920416" lon="11.583202266204262"><ele>365.0</ele><time>2026-04-10T12:59:10.001Z</time></trkpt><trkpt lat="43.85643232052487" lon="11.583141750704048"><ele>365.0</ele><time>2026-04-10T12:59:11.001Z</time></trkpt><trkpt lat="43.856548025973254" lon="11.583015977108163"><ele>365.0</ele><time>2026-04-10T12:59:12.001Z</time></trkpt><trkpt lat="43.85665908444564" lon="11.582863087180534"><ele>365.0</ele><time>2026-04-10T12:59:13.001Z</time></trkpt><trkpt lat="43.856786697392764" lon="11.582735370435417"><ele>362.6666666666667</ele><time>2026-04-10T12:59:14.001Z</time></trkpt><trkpt lat="43.856935493794175" lon="11.58265229776942"><ele>360.3333333333333</ele><time>2026-04-10T12:59:15.001Z</time></trkpt><trkpt lat="43.85710927128514" lon="11.582619420185324"><ele>358.0</ele><time>2026-04-10T12:59:16.001Z</time></trkpt><trkpt lat="43.85728368155889" lon="11.58260127757791"><ele>358.0</ele><time>2026-04-10T12:59:17.001Z</time></trkpt><trkpt lat="43.85743600299611" lon="11.58257484535303"><ele>358.0</ele><time>2026-04-10T12:59:18.001Z</time></trkpt><trkpt lat="43.85757539722995" lon="11.5825033350884"><ele>358.0</ele><time>2026-04-10T12:59:19.001Z</time></trkpt><trkpt lat="43.85769169418081" lon="11.582378303461947"><ele>358.0</ele><time>2026-04-10T12:59:20.001Z</time></trkpt><trkpt lat="43.85778723611086" lon="11.582229801936636"><ele>358.0</ele><time>2026-04-10T12:59:21.001Z</time></trkpt><trkpt lat="43.85791239402332" lon="11.582139512038777"><ele>358.0</ele><time>2026-04-10T12:59:22.001Z</time></trkpt><trkpt lat="43.85804961781128" lon="11.582042436892575"><ele>358.0</ele><time>2026-04-10T12:59:23.001Z</time></trkpt><trkpt lat="43.858193575340934" lon="11.58197416107881"><ele>358.0</ele><time>2026-04-10T12:59:24.001Z</time></trkpt><trkpt lat="43.85832028734337" lon="11.581913030149314"><ele>358.0</ele><time>2026-04-10T12:59:25.001Z</time></trkpt><trkpt lat="43.8584502813763" lon="11.581866808273576"><ele>358.0</ele><time>2026-04-10T12:59:26.001Z</time></trkpt><trkpt lat="43.85859967832452" lon="11.58186233940785"><ele>358.0</ele><time>2026-04-10T12:59:27.001Z</time></trkpt><trkpt lat="43.85876086211936" lon="11.581835098450275"><ele>358.0</ele><time>2026-04-10T12:59:28.001Z</time></trkpt><trkpt lat="43.85893220384593" lon="11.58182992289184"><ele>359.3333333333333</ele><time>2026-04-10T12:59:29.001Z</time></trkpt><trkpt lat="43.859105138660475" lon="11.581828169891844"><ele>360.6666666666667</ele><time>2026-04-10T12:59:30.001Z</time></trkpt><trkpt lat="43.85927798053986" lon="11.581824085088352"><ele>362.0</ele><time>2026-04-10T12:59:31.001Z</time></trkpt><trkpt lat="43.85945011626988" lon="11.58182269796089"><ele>362.6666666666667</ele><time>2026-04-10T12:59:32.001Z</time></trkpt><trkpt lat="43.85962211783616" lon="11.58183423938988"><ele>363.3333333333333</ele><time>2026-04-10T12:59:33.001Z</time></trkpt><trkpt lat="43.859792812785656" lon="11.581856163320806"><ele>364.0</ele><time>2026-04-10T12:59:34.001Z</time></trkpt><trkpt lat="43.85996521396522" lon="11.581870878841547"><ele>366.0</ele><time>2026-04-10T12:59:35.001Z</time></trkpt><trkpt lat="43.86013503424419" lon="11.581869597238994"><ele>368.0</ele><time>2026-04-10T12:59:36.001Z</time></trkpt><trkpt lat="43.860284462895784" lon="11.581850491012979"><ele>370.0</ele><time>2026-04-10T12:59:37.001Z</time></trkpt><trkpt lat="43.860417876089585" lon="11.581829950794262"><ele>370.0</ele><time>2026-04-10T12:59:38.001Z</time></trkpt><trkpt lat="43.860539224345175" lon="11.581807816929448"><ele>370.0</ele><time>2026-04-10T12:59:39.001Z</time></trkpt><trkpt lat="43.86065164106075" lon="11.581795731081131"><ele>370.0</ele><time>2026-04-10T12:59:40.001Z</time></trkpt><trkpt lat="43.860745388882734" lon="11.581819268715048"><ele>370.0</ele><time>2026-04-10T12:59:41.001Z</time></trkpt><trkpt lat="43.86082457552179" lon="11.581897431173756"><ele>370.0</ele><time>2026-04-10T12:59:42.001Z</time></trkpt><trkpt lat="43.86087020974014" lon="11.582026364148996"><ele>373.6</ele><time>2026-04-10T12:59:43.001Z</time></trkpt><trkpt lat="43.860862101039366" lon="11.582168334917133"><ele>377.2</ele><time>2026-04-10T12:59:44.001Z</time></trkpt><trkpt lat="43.86080004606785" lon="11.582288505142559"><ele>380.79999999999995</ele><time>2026-04-10T12:59:45.001Z</time></trkpt><trkpt lat="43.86069687362287" lon="11.58235515629363"><ele>384.4</ele><time>2026-04-10T12:59:46.001Z</time></trkpt><trkpt lat="43.860572085255036" lon="11.582373854966704"><ele>388.0</ele><time>2026-04-10T12:59:47.001Z</time></trkpt><trkpt lat="43.86042718601254" lon="11.582367941304486"><ele>388.0</ele><time>2026-04-10T12:59:48.001Z</time></trkpt><trkpt lat="43.860280612639684" lon="11.58237659141128"><ele>388.0</ele><time>2026-04-10T12:59:49.001Z</time></trkpt><trkpt lat="43.86014573361084" lon="11.582402470483174"><ele>388.0</ele><time>2026-04-10T12:59:50.001Z</time></trkpt><trkpt lat="43.86001765321168" lon="11.58247788636968"><ele>388.0</ele><time>2026-04-10T12:59:51.001Z</time></trkpt><trkpt lat="43.85990234886371" lon="11.5826100968114"><ele>385.6666666666667</ele><time>2026-04-10T12:59:52.001Z</time></trkpt><trkpt lat="43.8597778774909" lon="11.58275422812538"><ele>383.33333333333337</ele><time>2026-04-10T12:59:53.001Z</time></trkpt><trkpt lat="43.85965767185754" lon="11.582917276384913"><ele>381.0</ele><time>2026-04-10T12:59:54.001Z</time></trkpt><trkpt lat="43.85950684699044" lon="11.58304146734051"><ele>384.33333333333337</ele><time>2026-04-10T12:59:55.001Z</time></trkpt><trkpt lat="43.85933562642301" lon="11.583152846521264"><ele>387.6666666666667</ele><time>2026-04-10T12:59:56.001Z</time></trkpt><trkpt lat="43.85915872952064" lon="11.583254315585082"><ele>391.0</ele><time>2026-04-10T12:59:57.001Z</time></trkpt><trkpt lat="43.8589888815709" lon="11.583345937774089"><ele>391.0</ele><time>2026-04-10T12:59:58.001Z</time></trkpt><trkpt lat="43.85882677516676" lon="11.583431083179482"><ele>391.0</ele><time>2026-04-10T12:59:59.001Z</time></trkpt><trkpt lat="43.858672436485534" lon="11.583511589020612"><ele>391.0</ele><time>2026-04-10T13:00:00.001Z</time></trkpt><trkpt lat="43.858521369736835" lon="11.583586086158471"><ele>390.25</ele><time>2026-04-10T13:00:01.001Z</time></trkpt><trkpt lat="43.858369585753245" lon="11.583642405354142"><ele>389.5</ele><time>2026-04-10T13:00:02.001Z</time></trkpt><trkpt lat="43.8582305226346" lon="11.583678643203472"><ele>388.75</ele><time>2026-04-10T13:00:03.001Z</time></trkpt><trkpt lat="43.85809986393871" lon="11.583734075920317"><ele>388.0</ele><time>2026-04-10T13:00:04.001Z</time></trkpt><trkpt lat="43.857970054334075" lon="11.583849403238663"><ele>391.33333333333337</ele><time>2026-04-10T13:00:05.001Z</time></trkpt><trkpt lat="43.8578324806179" lon="11.584004244316233"><ele>394.66666666666663</ele><time>2026-04-10T13:00:06.001Z</time></trkpt><trkpt lat="43.85768522696414" lon="11.584164682955521"><ele>398.0</ele><time>2026-04-10T13:00:07.001Z</time></trkpt><trkpt lat="43.85751182657416" lon="11.584325162058066"><ele>398.0</ele><time>2026-04-10T13:00:08.001Z</time></trkpt><trkpt lat="43.85733303246287" lon="11.584488572390987"><ele>398.0</ele><time>2026-04-10T13:00:09.001Z</time></trkpt><trkpt lat="43.85714940136139" lon="11.584645010723944"><ele>398.0</ele><time>2026-04-10T13:00:10.001Z</time></trkpt><trkpt lat="43.85696358733158" lon="11.584799204172874"><ele>401.66666666666663</ele><time>2026-04-10T13:00:11.001Z</time></trkpt><trkpt lat="43.85679272040567" lon="11.584944266595164"><ele>405.33333333333337</ele><time>2026-04-10T13:00:12.001Z</time></trkpt><trkpt lat="43.856635678051504" lon="11.585077822764438"><ele>409.0</ele><time>2026-04-10T13:00:13.001Z</time></trkpt><trkpt lat="43.856477137994126" lon="11.58521404210678"><ele>409.0</ele><time>2026-04-10T13:00:14.001Z</time></trkpt><trkpt lat="43.856323067890486" lon="11.58534330484477"><ele>409.0</ele><time>2026-04-10T13:00:15.002Z</time></trkpt><trkpt lat="43.85618085841838" lon="11.58545444109327"><ele>409.0</ele><time>2026-04-10T13:00:16.002Z</time></trkpt><trkpt lat="43.856052101013454" lon="11.585554838856154"><ele>409.75</ele><time>2026-04-10T13:00:17.002Z</time></trkpt><trkpt lat="43.85594004664918" lon="11.585651245124188"><ele>410.5</ele><time>2026-04-10T13:00:18.002Z</time></trkpt><trkpt lat="43.855852391245186" lon="11.585766004212031"><ele>411.25</ele><time>2026-04-10T13:00:19Z</time></trkpt><trkpt lat="43.85580972333998" lon="11.585926575611122"><ele>412.0</ele><time>2026-04-10T13:00:20Z</time></trkpt><trkpt lat="43.85581176571434" lon="11.586115352367392"><ele>415.75</ele><time>2026-04-10T13:00:21Z</time></trkpt><trkpt lat="43.85585894703502" lon="11.586307334694226"><ele>419.5</ele><time>2026-04-10T13:00:22Z</time></trkpt><trkpt lat="43.85596210595818" lon="11.586461871162541"><ele>423.25</ele><time>2026-04-10T13:00:23Z</time></trkpt><trkpt lat="43.85608868752528" lon="11.586552747470824"><ele>427.0</ele><time>2026-04-10T13:00:24Z</time></trkpt><trkpt lat="43.85622666694022" lon="11.586534321283686"><ele>425.5</ele><time>2026-04-10T13:00:25Z</time></trkpt><trkpt lat="43.85634533666541" lon="11.58647340963763"><ele>424.0</ele><time>2026-04-10T13:00:26Z</time></trkpt><trkpt lat="43.85645049047721" lon="11.586358758501841"><ele>422.5</ele><time>2026-04-10T13:00:27Z</time></trkpt><trkpt lat="43.85657236328136" lon="11.586221178830195"><ele>421.0</ele><time>2026-04-10T13:00:28Z</time></trkpt><trkpt lat="43.85671318361609" lon="11.586089412758353"><ele>427.6666666666667</ele><time>2026-04-10T13:00:29Z</time></trkpt><trkpt lat="43.856850486320795" lon="11.585943823045513"><ele>434.33333333333337</ele><time>2026-04-10T13:00:30Z</time></trkpt><trkpt lat="43.85696955854145" lon="11.58580088276142"><ele>441.0</ele><time>2026-04-10T13:00:31Z</time></trkpt><trkpt lat="43.857093361401674" lon="11.585671282279023"><ele>441.0</ele><time>2026-04-10T13:00:32Z</time></trkpt><trkpt lat="43.85721203933309" lon="11.585541054764914"><ele>441.0</ele><time>2026-04-10T13:00:33Z</time></trkpt><trkpt lat="43.857323501747814" lon="11.585415688637283"><ele>441.0</ele><time>2026-04-10T13:00:34Z</time></trkpt><trkpt lat="43.85744359170366" lon="11.58530043308953"><ele>441.0</ele><time>2026-04-10T13:00:35Z</time></trkpt><trkpt lat="43.857585343234724" lon="11.585227153115216"><ele>436.33333333333337</ele><time>2026-04-10T13:00:36Z</time></trkpt><trkpt lat="43.857741620414195" lon="11.585216055177545"><ele>431.6666666666667</ele><time>2026-04-10T13:00:37Z</time></trkpt><trkpt lat="43.8578998583738" lon="11.585199026865428"><ele>427.0</ele><time>2026-04-10T13:00:38Z</time></trkpt><trkpt lat="43.85803463353875" lon="11.585182829527545"><ele>427.0</ele><time>2026-04-10T13:00:39Z</time></trkpt><trkpt lat="43.85816563361877" lon="11.58523675798318"><ele>427.0</ele><time>2026-04-10T13:00:40Z</time></trkpt><trkpt lat="43.858292478925115" lon="11.585342717582593"><ele>427.0</ele><time>2026-04-10T13:00:41Z</time></trkpt><trkpt lat="43.85842163518222" lon="11.585474393117416"><ele>427.0</ele><time>2026-04-10T13:00:42Z</time></trkpt><trkpt lat="43.858560893377856" lon="11.585614871938946"><ele>431.33333333333337</ele><time>2026-04-10T13:00:43Z</time></trkpt><trkpt lat="43.8586882835403" lon="11.585752176931694"><ele>435.66666666666663</ele><time>2026-04-10T13:00:44Z</time></trkpt><trkpt lat="43.85881032690788" lon="11.585867230910086"><ele>440.0</ele><time>2026-04-10T13:00:45Z</time></trkpt><trkpt lat="43.85895441814624" lon="11.585951757230825"><ele>440.0</ele><time>2026-04-10T13:00:46Z</time></trkpt><trkpt lat="43.859123183771246" lon="11.58599098842381"><ele>440.0</ele><time>2026-04-10T13:00:47Z</time></trkpt><trkpt lat="43.859308339857144" lon="11.585988884947623"><ele>440.0</ele><time>2026-04-10T13:00:48Z</time></trkpt><trkpt lat="43.85950717056128" lon="11.58597141674571"><ele>440.0</ele><time>2026-04-10T13:00:49Z</time></trkpt><trkpt lat="43.859717077994944" lon="11.585957084031577"><ele>440.0</ele><time>2026-04-10T13:00:50Z</time></trkpt><trkpt lat="43.859921721867664" lon="11.585931865194015"><ele>440.0</ele><time>2026-04-10T13:00:51Z</time></trkpt><trkpt lat="43.86011337285261" lon="11.585896278773907"><ele>444.3333333333333</ele><time>2026-04-10T13:00:52Z</time></trkpt><trkpt lat="43.86029319289344" lon="11.585857581502589"><ele>448.66666666666663</ele><time>2026-04-10T13:00:53Z</time></trkpt><trkpt lat="43.860460538546825" lon="11.585810801134118"><ele>453.0</ele><time>2026-04-10T13:00:54Z</time></trkpt><trkpt lat="43.860624543442555" lon="11.585730050251902"><ele>453.0</ele><time>2026-04-10T13:00:55Z</time></trkpt><trkpt lat="43.860780772593365" lon="11.585601217505447"><ele>453.0</ele><time>2026-04-10T13:00:56Z</time></trkpt><trkpt lat="43.86091712861167" lon="11.585444484058767"><ele>453.0</ele><time>2026-04-10T13:00:57Z</time></trkpt><trkpt lat="43.86105325565802" lon="11.585314487610608"><ele>452.0</ele><time>2026-04-10T13:00:58Z</time></trkpt><trkpt lat="43.86117488254668" lon="11.585186228108464"><ele>451.0</ele><time>2026-04-10T13:00:59Z</time></trkpt><trkpt lat="43.86128832485847" lon="11.585087385730043"><ele>450.0</ele><time>2026-04-10T13:01:00Z</time></trkpt><trkpt lat="43.861395007948275" lon="11.585020688157858"><ele>449.0</ele><time>2026-04-10T13:01:01Z</time></trkpt><trkpt lat="43.861508383074174" lon="11.585041474455062"><ele>449.0</ele><time>2026-04-10T13:01:02Z</time></trkpt><trkpt lat="43.86160192407183" lon="11.585103511831392"><ele>449.0</ele><time>2026-04-10T13:01:03Z</time></trkpt><trkpt lat="43.86168526952576" lon="11.585200198881909"><ele>449.0</ele><time>2026-04-10T13:01:04Z</time></trkpt><trkpt lat="43.861739787201074" lon="11.585333059478245"><ele>449.0</ele><time>2026-04-10T13:01:05Z</time></trkpt><trkpt lat="43.861765209723984" lon="11.585492533013245"><ele>449.0</ele><time>2026-04-10T13:01:06Z</time></trkpt><trkpt lat="43.86175842398379" lon="11.585676782056499"><ele>451.0</ele><time>2026-04-10T13:01:07Z</time></trkpt><trkpt lat="43.86172846220414" lon="11.585888371589485"><ele>453.0</ele><time>2026-04-10T13:01:08.001Z</time></trkpt><trkpt lat="43.86168041019746" lon="11.586115353299636"><ele>455.0</ele><time>2026-04-10T13:01:09.001Z</time></trkpt><trkpt lat="43.86162424482242" lon="11.586360982634263"><ele>455.3333333333333</ele><time>2026-04-10T13:01:10.001Z</time></trkpt><trkpt lat="43.86157127901268" lon="11.58662240853619"><ele>455.66666666666663</ele><time>2026-04-10T13:01:11.001Z</time></trkpt><trkpt lat="43.8615237520569" lon="11.586871901873733"><ele>456.0</ele><time>2026-04-10T13:01:12.001Z</time></trkpt><trkpt lat="43.861478925016485" lon="11.58708811488795"><ele>456.0</ele><time>2026-04-10T13:01:13.001Z</time></trkpt><trkpt lat="43.86143566583151" lon="11.587287629022141"><ele>456.0</ele><time>2026-04-10T13:01:14.001Z</time></trkpt><trkpt lat="43.8614022123265" lon="11.587472296269196"><ele>456.0</ele><time>2026-04-10T13:01:15.001Z</time></trkpt><trkpt lat="43.86138699273206" lon="11.587665250746017"><ele>456.0</ele><time>2026-04-10T13:01:16.001Z</time></trkpt><trkpt lat="43.861389848009416" lon="11.587885465570535"><ele>456.0</ele><time>2026-04-10T13:01:17.001Z</time></trkpt><trkpt lat="43.861399386481025" lon="11.588109389735006"><ele>456.0</ele><time>2026-04-10T13:01:18.001Z</time></trkpt><trkpt lat="43.861413670573086" lon="11.588326598982874"><ele>456.0</ele><time>2026-04-10T13:01:19.001Z</time></trkpt><trkpt lat="43.861409453938705" lon="11.588541219953258"><ele>454.5</ele><time>2026-04-10T13:01:20.001Z</time></trkpt><trkpt lat="43.86138837430514" lon="11.588753876234623"><ele>453.0</ele><time>2026-04-10T13:01:21.001Z</time></trkpt><trkpt lat="43.86135034557233" lon="11.58893474594935"><ele>451.5</ele><time>2026-04-10T13:01:22.001Z</time></trkpt><trkpt lat="43.861287612451136" lon="11.58908866665757"><ele>450.0</ele><time>2026-04-10T13:01:23.001Z</time></trkpt><trkpt lat="43.86119247442547" lon="11.589191934117201"><ele>450.0</ele><time>2026-04-10T13:01:24.001Z</time></trkpt><trkpt lat="43.861068874388025" lon="11.589242409171057"><ele>450.0</ele><time>2026-04-10T13:01:25.001Z</time></trkpt><trkpt lat="43.860941238576" lon="11.589263835145262"><ele>450.0</ele><time>2026-04-10T13:01:26.001Z</time></trkpt><trkpt lat="43.860807367331894" lon="11.58928114040672"><ele>450.0</ele><time>2026-04-10T13:01:27.001Z</time></trkpt><trkpt lat="43.860703427298766" lon="11.589337417341346"><ele>456.25</ele><time>2026-04-10T13:01:28.001Z</time></trkpt><trkpt lat="43.86062632776116" lon="11.589435786026467"><ele>462.5</ele><time>2026-04-10T13:01:29.001Z</time></trkpt><trkpt lat="43.86059460165515" lon="11.589573830771167"><ele>468.75</ele><time>2026-04-10T13:01:30.001Z</time></trkpt><trkpt lat="43.860570661223704" lon="11.589740464502112"><ele>475.0</ele><time>2026-04-10T13:01:31.001Z</time></trkpt><trkpt lat="43.86054428224483" lon="11.589921070885687"><ele>475.0</ele><time>2026-04-10T13:01:32.001Z</time></trkpt><trkpt lat="43.860517332298215" lon="11.590101708304674"><ele>475.0</ele><time>2026-04-10T13:01:33.001Z</time></trkpt><trkpt lat="43.86050268301833" lon="11.590285634602743"><ele>475.0</ele><time>2026-04-10T13:01:34.001Z</time></trkpt><trkpt lat="43.860512808048966" lon="11.590477721959136"><ele>475.0</ele><time>2026-04-10T13:01:35.001Z</time></trkpt><trkpt lat="43.86055095178233" lon="11.59068163025278"><ele>476.6666666666667</ele><time>2026-04-10T13:01:36.001Z</time></trkpt><trkpt lat="43.86061305544047" lon="11.59090307083314"><ele>478.33333333333337</ele><time>2026-04-10T13:01:37.001Z</time></trkpt><trkpt lat="43.86066883370087" lon="11.591120141835738"><ele>480.0</ele><time>2026-04-10T13:01:38.001Z</time></trkpt><trkpt lat="43.860718351204454" lon="11.591322886053684"><ele>481.66666666666663</ele><time>2026-04-10T13:01:39.001Z</time></trkpt><trkpt lat="43.86072850905939" lon="11.59153245904042"><ele>483.3333333333333</ele><time>2026-04-10T13:01:40.001Z</time></trkpt><trkpt lat="43.860722801870125" lon="11.591750917329051"><ele>485.0</ele><time>2026-04-10T13:01:41.001Z</time></trkpt><trkpt lat="43.86070428521796" lon="11.59199763829422"><ele>485.66666666666663</ele><time>2026-04-10T13:01:42.001Z</time></trkpt><trkpt lat="43.86068757295239" lon="11.5922771740175"><ele>486.33333333333337</ele><time>2026-04-10T13:01:43.001Z</time></trkpt><trkpt lat="43.860658619557405" lon="11.592533856529917"><ele>487.0</ele><time>2026-04-10T13:01:44.001Z</time></trkpt><trkpt lat="43.86063839971482" lon="11.592762835273208"><ele>485.5</ele><time>2026-04-10T13:01:45.001Z</time></trkpt><trkpt lat="43.86061769393887" lon="11.592978442592669"><ele>484.0</ele><time>2026-04-10T13:01:46.001Z</time></trkpt><trkpt lat="43.8605690884442" lon="11.593168445212054"><ele>482.5</ele><time>2026-04-10T13:01:47.001Z</time></trkpt><trkpt lat="43.860508405043824" lon="11.593345254840086"><ele>481.0</ele><time>2026-04-10T13:01:48.001Z</time></trkpt><trkpt lat="43.86038798912619" lon="11.593486313279787"><ele>481.0</ele><time>2026-04-10T13:01:49.001Z</time></trkpt><trkpt lat="43.86025181932489" lon="11.593606740847655"><ele>481.0</ele><time>2026-04-10T13:01:50.001Z</time></trkpt><trkpt lat="43.86011280443276" lon="11.59371583430809"><ele>481.0</ele><time>2026-04-10T13:01:51.001Z</time></trkpt><trkpt lat="43.86000704215247" lon="11.593836718914186"><ele>488.25</ele><time>2026-04-10T13:01:52.001Z</time></trkpt><trkpt lat="43.85992572409283" lon="11.593975363011882"><ele>495.5</ele><time>2026-04-10T13:01:53.001Z</time></trkpt><trkpt lat="43.85989096891271" lon="11.594123242630916"><ele>502.75</ele><time>2026-04-10T13:01:54.001Z</time></trkpt><trkpt lat="43.85989460173594" lon="11.594283494705525"><ele>510.0</ele><time>2026-04-10T13:01:55.001Z</time></trkpt><trkpt lat="43.859942156408756" lon="11.594436297230121"><ele>511.0</ele><time>2026-04-10T13:01:56.001Z</time></trkpt><trkpt lat="43.860008893746546" lon="11.594587681743524"><ele>512.0</ele><time>2026-04-10T13:01:57.001Z</time></trkpt><trkpt lat="43.86004725415611" lon="11.594765113468341"><ele>513.0</ele><time>2026-04-10T13:01:58.001Z</time></trkpt><trkpt lat="43.860085564157174" lon="11.594960825049025"><ele>514.0</ele><time>2026-04-10T13:01:59.001Z</time></trkpt><trkpt lat="43.86009366385865" lon="11.595186077315784"><ele>514.6666666666667</ele><time>2026-04-10T13:02:00.001Z</time></trkpt><trkpt lat="43.86007198261842" lon="11.595431350957416"><ele>515.3333333333334</ele><time>2026-04-10T13:02:01.001Z</time></trkpt><trkpt lat="43.86008277817089" lon="11.595684669312394"><ele>516.0</ele><time>2026-04-10T13:02:02.001Z</time></trkpt><trkpt lat="43.86007251903271" lon="11.595910819577735"><ele>516.0</ele><time>2026-04-10T13:02:03.001Z</time></trkpt><trkpt lat="43.8600664600958" lon="11.59612666318567"><ele>516.0</ele><time>2026-04-10T13:02:04.001Z</time></trkpt><trkpt lat="43.86006190151165" lon="11.596342047919068"><ele>516.0</ele><time>2026-04-10T13:02:05.001Z</time></trkpt><trkpt lat="43.8600467753233" lon="11.596559816991999"><ele>515.3333333333334</ele><time>2026-04-10T13:02:06.001Z</time></trkpt><trkpt lat="43.86000867085751" lon="11.59676951806081"><ele>514.6666666666667</ele><time>2026-04-10T13:02:07.001Z</time></trkpt><trkpt lat="43.85994138352153" lon="11.596954123036783"><ele>514.0</ele><time>2026-04-10T13:02:08.001Z</time></trkpt><trkpt lat="43.85984682594502" lon="11.597135492457625"><ele>510.6666666666667</ele><time>2026-04-10T13:02:09.001Z</time></trkpt><trkpt lat="43.85972599319641" lon="11.59730147050164"><ele>507.33333333333337</ele><time>2026-04-10T13:02:10.001Z</time></trkpt><trkpt lat="43.859605383846905" lon="11.597448720981221"><ele>504.0</ele><time>2026-04-10T13:02:11.001Z</time></trkpt><trkpt lat="43.85950331822587" lon="11.597587190450692"><ele>504.0</ele><time>2026-04-10T13:02:12.001Z</time></trkpt><trkpt lat="43.859416720265536" lon="11.597758709661564"><ele>504.0</ele><time>2026-04-10T13:02:13.001Z</time></trkpt><trkpt lat="43.859339611843616" lon="11.597947467755736"><ele>504.0</ele><time>2026-04-10T13:02:14.001Z</time></trkpt><trkpt lat="43.85929395415697" lon="11.598147267162558"><ele>506.0</ele><time>2026-04-10T13:02:15.001Z</time></trkpt><trkpt lat="43.859219512758806" lon="11.598316924160189"><ele>508.0</ele><time>2026-04-10T13:02:16.001Z</time></trkpt><trkpt lat="43.85911667671264" lon="11.59843352207893"><ele>510.0</ele><time>2026-04-10T13:02:17.002Z</time></trkpt><trkpt lat="43.85900605134231" lon="11.598541091716749"><ele>512.0</ele><time>2026-04-10T13:02:18.002Z</time></trkpt><trkpt lat="43.85893099617027" lon="11.598702650759133"><ele>512.0</ele><time>2026-04-10T13:02:19.002Z</time></trkpt><trkpt lat="43.85891150458039" lon="11.598903847137542"><ele>512.0</ele><time>2026-04-10T13:02:20.002Z</time></trkpt><trkpt lat="43.85887588420822" lon="11.59910919496384"><ele>512.0</ele><time>2026-04-10T13:02:21.002Z</time></trkpt><trkpt lat="43.85886845532911" lon="11.599324178666762"><ele>511.5</ele><time>2026-04-10T13:02:22.002Z</time></trkpt><trkpt lat="43.85889719015079" lon="11.599533495526757"><ele>511.0</ele><time>2026-04-10T13:02:23.002Z</time></trkpt><trkpt lat="43.858932798113514" lon="11.599725321548844"><ele>510.5</ele><time>2026-04-10T13:02:24.002Z</time></trkpt><trkpt lat="43.85894914601589" lon="11.599896917100995"><ele>510.0</ele><time>2026-04-10T13:02:25Z</time></trkpt><trkpt lat="43.858929729690885" lon="11.600061716454412"><ele>510.0</ele><time>2026-04-10T13:02:26Z</time></trkpt><trkpt lat="43.85888111617868" lon="11.60023597896216"><ele>510.0</ele><time>2026-04-10T13:02:27Z</time></trkpt><trkpt lat="43.85876630875699" lon="11.600374469279885"><ele>510.0</ele><time>2026-04-10T13:02:28Z</time></trkpt><trkpt lat="43.8586711116733" lon="11.600558222283217"><ele>506.0</ele><time>2026-04-10T13:02:29Z</time></trkpt><trkpt lat="43.858570470269086" lon="11.600753805214474"><ele>502.0</ele><time>2026-04-10T13:02:30Z</time></trkpt><trkpt lat="43.85848705692242" lon="11.600946423624979"><ele>498.0</ele><time>2026-04-10T13:02:31Z</time></trkpt><trkpt lat="43.85839880276114" lon="11.60112004053276"><ele>503.75</ele><time>2026-04-10T13:02:32Z</time></trkpt><trkpt lat="43.85833572521455" lon="11.60132116070849"><ele>509.5</ele><time>2026-04-10T13:02:33Z</time></trkpt><trkpt lat="43.8583068582972" lon="11.601520117892814"><ele>515.25</ele><time>2026-04-10T13:02:34Z</time></trkpt><trkpt lat="43.85828850673644" lon="11.601697707604337"><ele>521.0</ele><time>2026-04-10T13:02:35Z</time></trkpt><trkpt lat="43.85823576251348" lon="11.601856282450766"><ele>521.0</ele><time>2026-04-10T13:02:36Z</time></trkpt><trkpt lat="43.85821674049205" lon="11.601974609570034"><ele>521.0</ele><time>2026-04-10T13:02:37Z</time></trkpt><trkpt lat="43.8579651203333" lon="11.601960848516253"><ele>521.0</ele><time>2026-04-10T13:02:38Z</time></trkpt><trkpt lat="43.85781869436743" lon="11.602015023559401"><ele>521.3333333333333</ele><time>2026-04-10T13:02:39Z</time></trkpt><trkpt lat="43.85767462808231" lon="11.60212246237151"><ele>521.6666666666666</ele><time>2026-04-10T13:02:40Z</time></trkpt><trkpt lat="43.857540854618634" lon="11.602276134997505"><ele>522.0</ele><time>2026-04-10T13:02:41Z</time></trkpt><trkpt lat="43.85741900156219" lon="11.602445964254278"><ele>522.0</ele><time>2026-04-10T13:02:42Z</time></trkpt><trkpt lat="43.85729079304865" lon="11.602594070787644"><ele>522.0</ele><time>2026-04-10T13:02:43Z</time></trkpt><trkpt lat="43.8571605894928" lon="11.602722887854908"><ele>522.0</ele><time>2026-04-10T13:02:44Z</time></trkpt><trkpt lat="43.857034377475706" lon="11.602845961760625"><ele>518.25</ele><time>2026-04-10T13:02:45Z</time></trkpt><trkpt lat="43.85692395682633" lon="11.602978853036412"><ele>514.5</ele><time>2026-04-10T13:02:46Z</time></trkpt><trkpt lat="43.85684200481589" lon="11.603138162171687"><ele>510.75</ele><time>2026-04-10T13:02:47Z</time></trkpt><trkpt lat="43.85679930648892" lon="11.603326456624334"><ele>507.0</ele><time>2026-04-10T13:02:48Z</time></trkpt><trkpt lat="43.856787846797694" lon="11.60352969233129"><ele>508.5</ele><time>2026-04-10T13:02:49Z</time></trkpt><trkpt lat="43.85678181234964" lon="11.603718667906696"><ele>510.0</ele><time>2026-04-10T13:02:50Z</time></trkpt><trkpt lat="43.85674571227695" lon="11.603892135887696"><ele>511.5</ele><time>2026-04-10T13:02:51Z</time></trkpt><trkpt lat="43.856673361473526" lon="11.604044220331511"><ele>513.0</ele><time>2026-04-10T13:02:52Z</time></trkpt><trkpt lat="43.85657033699246" lon="11.604157196060262"><ele>513.0</ele><time>2026-04-10T13:02:53Z</time></trkpt><trkpt lat="43.85643624821839" lon="11.60423515014588"><ele>513.0</ele><time>2026-04-10T13:02:54Z</time></trkpt><trkpt lat="43.8562931782827" lon="11.604272512745203"><ele>513.0</ele><time>2026-04-10T13:02:55Z</time></trkpt><trkpt lat="43.85616193699276" lon="11.604300214057423"><ele>513.0</ele><time>2026-04-10T13:02:56Z</time></trkpt><trkpt lat="43.856054848086224" lon="11.604347820381294"><ele>513.0</ele><time>2026-04-10T13:02:57Z</time></trkpt><trkpt lat="43.85596517801023" lon="11.60443517001559"><ele>513.0</ele><time>2026-04-10T13:02:58Z</time></trkpt><trkpt lat="43.85590973813048" lon="11.604571142286071"><ele>513.0</ele><time>2026-04-10T13:02:59Z</time></trkpt><trkpt lat="43.85589421551923" lon="11.604744112711597"><ele>513.0</ele><time>2026-04-10T13:03:00Z</time></trkpt><trkpt lat="43.855895707997426" lon="11.604932668570182"><ele>513.6666666666666</ele><time>2026-04-10T13:03:01Z</time></trkpt><trkpt lat="43.85586606686467" lon="11.605136145677076"><ele>514.3333333333333</ele><time>2026-04-10T13:03:02Z</time></trkpt><trkpt lat="43.85579403230924" lon="11.605348217344464"><ele>515.0</ele><time>2026-04-10T13:03:03Z</time></trkpt><trkpt lat="43.85572190035817" lon="11.605584493131177"><ele>515.0</ele><time>2026-04-10T13:03:04Z</time></trkpt><trkpt lat="43.8556557732995" lon="11.605816251007155"><ele>515.0</ele><time>2026-04-10T13:03:05Z</time></trkpt><trkpt lat="43.85558683810924" lon="11.606021624027676"><ele>515.0</ele><time>2026-04-10T13:03:06Z</time></trkpt><trkpt lat="43.85551280281284" lon="11.606204112702368"><ele>517.5</ele><time>2026-04-10T13:03:07Z</time></trkpt><trkpt lat="43.85542744810974" lon="11.60635314859434"><ele>520.0</ele><time>2026-04-10T13:03:08Z</time></trkpt><trkpt lat="43.855317046699106" lon="11.606461544997977"><ele>522.5</ele><time>2026-04-10T13:03:09Z</time></trkpt><trkpt lat="43.85518704675316" lon="11.606521355131768"><ele>525.0</ele><time>2026-04-10T13:03:10Z</time></trkpt><trkpt lat="43.8550508316052" lon="11.606517508236633"><ele>525.0</ele><time>2026-04-10T13:03:11Z</time></trkpt><trkpt lat="43.85492062906655" lon="11.606532701625174"><ele>525.0</ele><time>2026-04-10T13:03:12Z</time></trkpt><trkpt lat="43.85478681438233" lon="11.606614370254503"><ele>525.0</ele><time>2026-04-10T13:03:13Z</time></trkpt><trkpt lat="43.854659438681566" lon="11.606693386244608"><ele>525.0</ele><time>2026-04-10T13:03:14Z</time></trkpt><trkpt lat="43.85452816855842" lon="11.606694530045587"><ele>525.0</ele><time>2026-04-10T13:03:15Z</time></trkpt><trkpt lat="43.85440206899472" lon="11.606689478183888"><ele>525.0</ele><time>2026-04-10T13:03:16Z</time></trkpt><trkpt lat="43.8542865289069" lon="11.606712743526044"><ele>525.0</ele><time>2026-04-10T13:03:17.001Z</time></trkpt><trkpt lat="43.85418591566126" lon="11.606766699826611"><ele>525.0</ele><time>2026-04-10T13:03:18.001Z</time></trkpt><trkpt lat="43.854119902030654" lon="11.6068635586921"><ele>525.0</ele><time>2026-04-10T13:03:19.001Z</time></trkpt><trkpt lat="43.8541030728498" lon="11.606999514650816"><ele>528.75</ele><time>2026-04-10T13:03:20.001Z</time></trkpt><trkpt lat="43.85413977091857" lon="11.60714845725927"><ele>532.5</ele><time>2026-04-10T13:03:21.001Z</time></trkpt><trkpt lat="43.85421054516918" lon="11.60728540235958"><ele>536.25</ele><time>2026-04-10T13:03:22.001Z</time></trkpt><trkpt lat="43.85427910385844" lon="11.607428525248334"><ele>540.0</ele><time>2026-04-10T13:03:23.001Z</time></trkpt><trkpt lat="43.854312682374726" lon="11.607609203721138"><ele>540.5</ele><time>2026-04-10T13:03:24.001Z</time></trkpt><trkpt lat="43.854295950800804" lon="11.607789875586674"><ele>541.0</ele><time>2026-04-10T13:03:25.001Z</time></trkpt><trkpt lat="43.85424534328175" lon="11.607972098734226"><ele>541.5</ele><time>2026-04-10T13:03:26.001Z</time></trkpt><trkpt lat="43.85420398388099" lon="11.608156969969889"><ele>542.0</ele><time>2026-04-10T13:03:27.001Z</time></trkpt><trkpt lat="43.85421334905282" lon="11.608344843074118"><ele>542.0</ele><time>2026-04-10T13:03:28.001Z</time></trkpt><trkpt lat="43.854253875703144" lon="11.608525514520627"><ele>542.0</ele><time>2026-04-10T13:03:29.001Z</time></trkpt><trkpt lat="43.85429257349837" lon="11.608696131644924"><ele>542.0</ele><time>2026-04-10T13:03:30.001Z</time></trkpt><trkpt lat="43.85428622905305" lon="11.608876694281943"><ele>542.0</ele><time>2026-04-10T13:03:31.001Z</time></trkpt><trkpt lat="43.85424746460657" lon="11.609060638322186"><ele>538.75</ele><time>2026-04-10T13:03:32.001Z</time></trkpt><trkpt lat="43.854168763248325" lon="11.609222025934821"><ele>535.5</ele><time>2026-04-10T13:03:33.001Z</time></trkpt><trkpt lat="43.85405820986988" lon="11.609350920798619"><ele>532.25</ele><time>2026-04-10T13:03:34.001Z</time></trkpt><trkpt lat="43.853953872664704" lon="11.6094867170633"><ele>529.0</ele><time>2026-04-10T13:03:35.001Z</time></trkpt><trkpt lat="43.85388428583711" lon="11.609655767518353"><ele>524.75</ele><time>2026-04-10T13:03:36.001Z</time></trkpt><trkpt lat="43.85383532097069" lon="11.609836211115967"><ele>520.5</ele><time>2026-04-10T13:03:37.001Z</time></trkpt><trkpt lat="43.85376684767646" lon="11.609997483666543"><ele>516.25</ele><time>2026-04-10T13:03:38.001Z</time></trkpt><trkpt lat="43.8536659331806" lon="11.610122112242644"><ele>512.0</ele><time>2026-04-10T13:03:39.001Z</time></trkpt><trkpt lat="43.85354173578545" lon="11.610205820922863"><ele>517.5</ele><time>2026-04-10T13:03:40.001Z</time></trkpt><trkpt lat="43.853407652266185" lon="11.610262253239451"><ele>523.0</ele><time>2026-04-10T13:03:41.001Z</time></trkpt><trkpt lat="43.85328468062763" lon="11.610321051897483"><ele>528.5</ele><time>2026-04-10T13:03:42.001Z</time></trkpt><trkpt lat="43.8531848271686" lon="11.610405048056508"><ele>534.0</ele><time>2026-04-10T13:03:43.001Z</time></trkpt><trkpt lat="43.85312099487504" lon="11.61051248148069"><ele>534.0</ele><time>2026-04-10T13:03:44.001Z</time></trkpt><trkpt lat="43.853120364871586" lon="11.610655693643603"><ele>534.0</ele><time>2026-04-10T13:03:45.001Z</time></trkpt><trkpt lat="43.85316167985602" lon="11.610805515403559"><ele>534.0</ele><time>2026-04-10T13:03:46.001Z</time></trkpt><trkpt lat="43.85325500697536" lon="11.610920031281196"><ele>534.0</ele><time>2026-04-10T13:03:47.001Z</time></trkpt><trkpt lat="43.85336936612838" lon="11.611013977174446"><ele>528.25</ele><time>2026-04-10T13:03:48.001Z</time></trkpt><trkpt lat="43.85349000360451" lon="11.61111434076761"><ele>522.5</ele><time>2026-04-10T13:03:49.001Z</time></trkpt><trkpt lat="43.853574289329444" lon="11.61124917027094"><ele>516.75</ele><time>2026-04-10T13:03:50.001Z</time></trkpt><trkpt lat="43.85360358601668" lon="11.61142058550257"><ele>511.0</ele><time>2026-04-10T13:03:51.001Z</time></trkpt><trkpt lat="43.85358105558971" lon="11.6115852178777"><ele>511.0</ele><time>2026-04-10T13:03:52.001Z</time></trkpt><trkpt lat="43.853518001038275" lon="11.611744975149197"><ele>511.0</ele><time>2026-04-10T13:03:53.001Z</time></trkpt><trkpt lat="43.853444285904395" lon="11.611898954492542"><ele>511.0</ele><time>2026-04-10T13:03:54.001Z</time></trkpt><trkpt lat="43.85340907281258" lon="11.61207163276109"><ele>511.0</ele><time>2026-04-10T13:03:55.001Z</time></trkpt><trkpt lat="43.85339327908438" lon="11.61225621456191"><ele>513.75</ele><time>2026-04-10T13:03:56.001Z</time></trkpt><trkpt lat="43.85342645389448" lon="11.61243746885437"><ele>516.5</ele><time>2026-04-10T13:03:57.001Z</time></trkpt><trkpt lat="43.853469861270085" lon="11.612600921138753"><ele>519.25</ele><time>2026-04-10T13:03:58.001Z</time></trkpt><trkpt lat="43.853554432879726" lon="11.612735833751477"><ele>522.0</ele><time>2026-04-10T13:03:59.001Z</time></trkpt><trkpt lat="43.85363733852817" lon="11.612818744383972"><ele>527.0</ele><time>2026-04-10T13:04:00.001Z</time></trkpt><trkpt lat="43.85373656623321" lon="11.61285566258854"><ele>532.0</ele><time>2026-04-10T13:04:01.001Z</time></trkpt><trkpt lat="43.85385225982207" lon="11.612897865394675"><ele>537.0</ele><time>2026-04-10T13:04:02.001Z</time></trkpt><trkpt lat="43.85396807832156" lon="11.612927407859493"><ele>542.0</ele><time>2026-04-10T13:04:03.001Z</time></trkpt><trkpt lat="43.85407691527556" lon="11.61291332897019"><ele>547.0</ele><time>2026-04-10T13:04:04.001Z</time></trkpt><trkpt lat="43.854188165744105" lon="11.612833102934882"><ele>544.6666666666667</ele><time>2026-04-10T13:04:05.001Z</time></trkpt><trkpt lat="43.85431300321708" lon="11.612702163921043"><ele>542.3333333333334</ele><time>2026-04-10T13:04:06.001Z</time></trkpt><trkpt lat="43.85445881750603" lon="11.61257616796912"><ele>540.0</ele><time>2026-04-10T13:04:07.001Z</time></trkpt><trkpt lat="43.85462032581338" lon="11.612470326745282"><ele>540.0</ele><time>2026-04-10T13:04:08.001Z</time></trkpt><trkpt lat="43.85478203921538" lon="11.612375146288986"><ele>540.0</ele><time>2026-04-10T13:04:09.001Z</time></trkpt><trkpt lat="43.85492836535705" lon="11.612271646893513"><ele>540.0</ele><time>2026-04-10T13:04:10.001Z</time></trkpt><trkpt lat="43.85504925588819" lon="11.612141224801645"><ele>539.75</ele><time>2026-04-10T13:04:11.001Z</time></trkpt><trkpt lat="43.85515939119057" lon="11.612004334685745"><ele>539.5</ele><time>2026-04-10T13:04:12.001Z</time></trkpt><trkpt lat="43.85527691694538" lon="11.6118985327864"><ele>539.25</ele><time>2026-04-10T13:04:13.001Z</time></trkpt><trkpt lat="43.85541824396364" lon="11.611811943336612"><ele>539.0</ele><time>2026-04-10T13:04:14.001Z</time></trkpt><trkpt lat="43.855571908069656" lon="11.611743553879428"><ele>539.0</ele><time>2026-04-10T13:04:15.001Z</time></trkpt><trkpt lat="43.85570561966749" lon="11.611685974777929"><ele>539.0</ele><time>2026-04-10T13:04:16.001Z</time></trkpt><trkpt lat="43.85583008558512" lon="11.611628052509449"><ele>539.0</ele><time>2026-04-10T13:04:17.001Z</time></trkpt><trkpt lat="43.85595188510525" lon="11.611563876053692"><ele>539.0</ele><time>2026-04-10T13:04:18.001Z</time></trkpt><trkpt lat="43.85608010084516" lon="11.61149694353594"><ele>537.25</ele><time>2026-04-10T13:04:19.001Z</time></trkpt><trkpt lat="43.85621030431715" lon="11.611424972411829"><ele>535.5</ele><time>2026-04-10T13:04:20.001Z</time></trkpt><trkpt lat="43.85633979231802" lon="11.611333979199527"><ele>533.75</ele><time>2026-04-10T13:04:21.001Z</time></trkpt><trkpt lat="43.8564667167022" lon="11.611220154113889"><ele>532.0</ele><time>2026-04-10T13:04:22.001Z</time></trkpt><trkpt lat="43.856592308229196" lon="11.611102972308718"><ele>532.0</ele><time>2026-04-10T13:04:23.001Z</time></trkpt><trkpt lat="43.85670448870099" lon="11.610999043914417"><ele>532.0</ele><time>2026-04-10T13:04:24.001Z</time></trkpt><trkpt lat="43.856809579171305" lon="11.610898883558248"><ele>532.0</ele><time>2026-04-10T13:04:25.001Z</time></trkpt><trkpt lat="43.856900178197115" lon="11.610837474063212"><ele>532.0</ele><time>2026-04-10T13:04:26.002Z</time></trkpt><trkpt lat="43.85698072407563" lon="11.610838653473408"><ele>532.0</ele><time>2026-04-10T13:04:27.002Z</time></trkpt><trkpt lat="43.85705033863851" lon="11.610931872974794"><ele>533.25</ele><time>2026-04-10T13:04:28.002Z</time></trkpt><trkpt lat="43.857095331865246" lon="11.611076698840103"><ele>534.5</ele><time>2026-04-10T13:04:29.002Z</time></trkpt><trkpt lat="43.85715481472744" lon="11.611278953231778"><ele>535.75</ele><time>2026-04-10T13:04:30.002Z</time></trkpt><trkpt lat="43.857230212330855" lon="11.611488297881927"><ele>537.0</ele><time>2026-04-10T13:04:30.999Z</time></trkpt><trkpt lat="43.85732090084901" lon="11.611683658948607"><ele>537.0</ele><time>2026-04-10T13:04:31.999Z</time></trkpt><trkpt lat="43.857417340335765" lon="11.611836629963106"><ele>537.0</ele><time>2026-04-10T13:04:32.999Z</time></trkpt><trkpt lat="43.85750979728137" lon="11.61198245157094"><ele>537.0</ele><time>2026-04-10T13:04:33.999Z</time></trkpt><trkpt lat="43.857598432096154" lon="11.612120527170372"><ele>537.0</ele><time>2026-04-10T13:04:34.999Z</time></trkpt><trkpt lat="43.85768910268802" lon="11.612257547057421"><ele>540.0</ele><time>2026-04-10T13:04:35.999Z</time></trkpt><trkpt lat="43.85778043104835" lon="11.612379304658713"><ele>543.0</ele><time>2026-04-10T13:04:36.999Z</time></trkpt><trkpt lat="43.857883062071096" lon="11.612453534393428"><ele>546.0</ele><time>2026-04-10T13:04:37.999Z</time></trkpt><trkpt lat="43.85799838618511" lon="11.612444477678974"><ele>549.0</ele><time>2026-04-10T13:04:38.999Z</time></trkpt><trkpt lat="43.85809978419218" lon="11.612400682265113"><ele>549.0</ele><time>2026-04-10T13:04:39.999Z</time></trkpt><trkpt lat="43.85817212189136" lon="11.612309538411212"><ele>549.0</ele><time>2026-04-10T13:04:40.999Z</time></trkpt><trkpt lat="43.85820292121632" lon="11.612171581955568"><ele>549.0</ele><time>2026-04-10T13:04:42Z</time></trkpt><trkpt lat="43.85819057052559" lon="11.612002021962105"><ele>549.0</ele><time>2026-04-10T13:04:43Z</time></trkpt><trkpt lat="43.858147933514395" lon="11.611856382383776"><ele>549.0</ele><time>2026-04-10T13:04:44Z</time></trkpt><trkpt lat="43.85811176379085" lon="11.611727072837336"><ele>546.75</ele><time>2026-04-10T13:04:45Z</time></trkpt><trkpt lat="43.85813525246625" lon="11.611592385661643"><ele>544.5</ele><time>2026-04-10T13:04:46Z</time></trkpt><trkpt lat="43.85819184732231" lon="11.611462276592038"><ele>542.25</ele><time>2026-04-10T13:04:47Z</time></trkpt><trkpt lat="43.85827862206175" lon="11.611337605331169"><ele>540.0</ele><time>2026-04-10T13:04:48Z</time></trkpt><trkpt lat="43.85836701130269" lon="11.611224571883959"><ele>537.4</ele><time>2026-04-10T13:04:49Z</time></trkpt><trkpt lat="43.85844831926733" lon="11.61113301373529"><ele>534.8</ele><time>2026-04-10T13:04:50Z</time></trkpt><trkpt lat="43.85853639844792" lon="11.611054976871856"><ele>532.2</ele><time>2026-04-10T13:04:51Z</time></trkpt><trkpt lat="43.85863947406356" lon="11.61102308399451"><ele>529.6</ele><time>2026-04-10T13:04:52Z</time></trkpt><trkpt lat="43.858747798981106" lon="11.611059887353402"><ele>527.0</ele><time>2026-04-10T13:04:53Z</time></trkpt><trkpt lat="43.85884097507559" lon="11.611152530146917"><ele>529.0</ele><time>2026-04-10T13:04:54Z</time></trkpt><trkpt lat="43.858899560252006" lon="11.611289004745249"><ele>531.0</ele><time>2026-04-10T13:04:55Z</time></trkpt><trkpt lat="43.85894607205413" lon="11.611449862583044"><ele>533.0</ele><time>2026-04-10T13:04:56Z</time></trkpt><trkpt lat="43.85899964330643" lon="11.611608257755062"><ele>535.0</ele><time>2026-04-10T13:04:57Z</time></trkpt><trkpt lat="43.859061387884296" lon="11.611765283336759"><ele>535.0</ele><time>2026-04-10T13:04:58Z</time></trkpt><trkpt lat="43.859124469395084" lon="11.611921169146688"><ele>535.0</ele><time>2026-04-10T13:04:59Z</time></trkpt><trkpt lat="43.85919876456362" lon="11.61207001347"><ele>535.0</ele><time>2026-04-10T13:05:00Z</time></trkpt><trkpt lat="43.85927199362059" lon="11.612222841297157"><ele>535.0</ele><time>2026-04-10T13:05:01Z</time></trkpt><trkpt lat="43.85934076180277" lon="11.612387330323646"><ele>536.0</ele><time>2026-04-10T13:05:02Z</time></trkpt><trkpt lat="43.85940306809575" lon="11.612565618353267"><ele>537.0</ele><time>2026-04-10T13:05:03Z</time></trkpt><trkpt lat="43.85946490210448" lon="11.612756315515277"><ele>538.0</ele><time>2026-04-10T13:05:04Z</time></trkpt><trkpt lat="43.85951944889156" lon="11.612941927627176"><ele>539.0</ele><time>2026-04-10T13:05:05Z</time></trkpt><trkpt lat="43.85956018562478" lon="11.613126021878083"><ele>539.0</ele><time>2026-04-10T13:05:06Z</time></trkpt><trkpt lat="43.85959165280898" lon="11.613300555126916"><ele>539.0</ele><time>2026-04-10T13:05:07Z</time></trkpt><trkpt lat="43.859630404948" lon="11.61346107317357"><ele>539.0</ele><time>2026-04-10T13:05:08Z</time></trkpt><trkpt lat="43.8596891055857" lon="11.613612450897337"><ele>539.0</ele><time>2026-04-10T13:05:09Z</time></trkpt><trkpt lat="43.85977966697593" lon="11.613734529132037"><ele>542.5</ele><time>2026-04-10T13:05:10Z</time></trkpt><trkpt lat="43.85990699977563" lon="11.613829380847662"><ele>546.0</ele><time>2026-04-10T13:05:11Z</time></trkpt><trkpt lat="43.860047818091005" lon="11.613901915227526"><ele>549.5</ele><time>2026-04-10T13:05:12Z</time></trkpt><trkpt lat="43.86017599785295" lon="11.613989047867276"><ele>553.0</ele><time>2026-04-10T13:05:13Z</time></trkpt><trkpt lat="43.860265807559124" lon="11.614133776362356"><ele>553.0</ele><time>2026-04-10T13:05:14Z</time></trkpt><trkpt lat="43.86033091459721" lon="11.614319430537009"><ele>553.0</ele><time>2026-04-10T13:05:15Z</time></trkpt><trkpt lat="43.86038819036591" lon="11.614524338239024"><ele>553.0</ele><time>2026-04-10T13:05:16Z</time></trkpt><trkpt lat="43.86045394743349" lon="11.614742687379547"><ele>556.25</ele><time>2026-04-10T13:05:17Z</time></trkpt><trkpt lat="43.86051951707187" lon="11.614945434402966"><ele>559.5</ele><time>2026-04-10T13:05:18Z</time></trkpt><trkpt lat="43.8605796122382" lon="11.615125919342564"><ele>562.75</ele><time>2026-04-10T13:05:19Z</time></trkpt><trkpt lat="43.86063834779876" lon="11.615307115766504"><ele>566.0</ele><time>2026-04-10T13:05:20Z</time></trkpt><trkpt lat="43.860700026538645" lon="11.61546787036917"><ele>569.0</ele><time>2026-04-10T13:05:21Z</time></trkpt><trkpt lat="43.86076765900583" lon="11.61561516789061"><ele>572.0</ele><time>2026-04-10T13:05:22Z</time></trkpt><trkpt lat="43.86083661348902" lon="11.615723413553305"><ele>575.0</ele><time>2026-04-10T13:05:23Z</time></trkpt><trkpt lat="43.860927563950376" lon="11.615772342445089"><ele>578.0</ele><time>2026-04-10T13:05:24Z</time></trkpt><trkpt lat="43.8610344724146" lon="11.615759334409297"><ele>581.0</ele><time>2026-04-10T13:05:25Z</time></trkpt><trkpt lat="43.86112837156228" lon="11.61567316932891"><ele>583.5</ele><time>2026-04-10T13:05:26Z</time></trkpt><trkpt lat="43.861189868913904" lon="11.61553540770209"><ele>586.0</ele><time>2026-04-10T13:05:27.001Z</time></trkpt><trkpt lat="43.86121192018529" lon="11.615359401661031"><ele>588.5</ele><time>2026-04-10T13:05:28.001Z</time></trkpt><trkpt lat="43.86121024496912" lon="11.615147538786184"><ele>591.0</ele><time>2026-04-10T13:05:29.001Z</time></trkpt><trkpt lat="43.8612409826585" lon="11.614906143835704"><ele>591.0</ele><time>2026-04-10T13:05:30.001Z</time></trkpt><trkpt lat="43.86126330090182" lon="11.614652396363354"><ele>591.0</ele><time>2026-04-10T13:05:31.001Z</time></trkpt><trkpt lat="43.86128858927563" lon="11.614385618597568"><ele>591.0</ele><time>2026-04-10T13:05:32.001Z</time></trkpt><trkpt lat="43.861314649928225" lon="11.614110610185424"><ele>589.6666666666666</ele><time>2026-04-10T13:05:33.001Z</time></trkpt><trkpt lat="43.86132520711905" lon="11.613838092580437"><ele>588.3333333333333</ele><time>2026-04-10T13:05:34.001Z</time></trkpt><trkpt lat="43.86134976032158" lon="11.613565120485447"><ele>587.0</ele><time>2026-04-10T13:05:35.001Z</time></trkpt><trkpt lat="43.861375398117204" lon="11.613296669158116"><ele>587.0</ele><time>2026-04-10T13:05:36.001Z</time></trkpt><trkpt lat="43.861385537562114" lon="11.613023797080542"><ele>587.0</ele><time>2026-04-10T13:05:37.001Z</time></trkpt><trkpt lat="43.861394322387596" lon="11.612745282474945"><ele>587.0</ele><time>2026-04-10T13:05:38.001Z</time></trkpt><trkpt lat="43.861381491349015" lon="11.612471940542312"><ele>586.6666666666666</ele><time>2026-04-10T13:05:39.001Z</time></trkpt><trkpt lat="43.861350158818446" lon="11.612213433798107"><ele>586.3333333333334</ele><time>2026-04-10T13:05:40.001Z</time></trkpt><trkpt lat="43.86133328465669" lon="11.611979118708165"><ele>586.0</ele><time>2026-04-10T13:05:41.001Z</time></trkpt><trkpt lat="43.86131449046973" lon="11.61176860937074"><ele>586.0</ele><time>2026-04-10T13:05:42.001Z</time></trkpt><trkpt lat="43.861290551945494" lon="11.611583772567288"><ele>586.0</ele><time>2026-04-10T13:05:43.001Z</time></trkpt><trkpt lat="43.86128334354257" lon="11.611407339153887"><ele>586.0</ele><time>2026-04-10T13:05:44.001Z</time></trkpt><trkpt lat="43.86128802821041" lon="11.61124476454983"><ele>586.0</ele><time>2026-04-10T13:05:45.001Z</time></trkpt><trkpt lat="43.86130514073763" lon="11.61107271429712"><ele>584.0</ele><time>2026-04-10T13:05:46.001Z</time></trkpt><trkpt lat="43.86133982832129" lon="11.61089367429764"><ele>582.0</ele><time>2026-04-10T13:05:47.001Z</time></trkpt><trkpt lat="43.86140954569771" lon="11.61071704650597"><ele>580.0</ele><time>2026-04-10T13:05:48.001Z</time></trkpt><trkpt lat="43.861495103374985" lon="11.610549757070212"><ele>578.0</ele><time>2026-04-10T13:05:49.001Z</time></trkpt><trkpt lat="43.86160691679557" lon="11.610410617653034"><ele>575.25</ele><time>2026-04-10T13:05:50.001Z</time></trkpt><trkpt lat="43.8617290198342" lon="11.610294943219259"><ele>572.5</ele><time>2026-04-10T13:05:51.001Z</time></trkpt><trkpt lat="43.86185105098119" lon="11.610178337728787"><ele>569.75</ele><time>2026-04-10T13:05:52.001Z</time></trkpt><trkpt lat="43.861965729983126" lon="11.610050461349847"><ele>567.0</ele><time>2026-04-10T13:05:53.001Z</time></trkpt><trkpt lat="43.86207992540519" lon="11.609930341305374"><ele>570.25</ele><time>2026-04-10T13:05:54.001Z</time></trkpt><trkpt lat="43.86218726673766" lon="11.609813971915711"><ele>573.5</ele><time>2026-04-10T13:05:55.001Z</time></trkpt><trkpt lat="43.862294980779964" lon="11.609697794463575"><ele>576.75</ele><time>2026-04-10T13:05:56.001Z</time></trkpt><trkpt lat="43.862408945172994" lon="11.609582125628142"><ele>580.0</ele><time>2026-04-10T13:05:57.001Z</time></trkpt><trkpt lat="43.862528639465474" lon="11.609470574128828"><ele>588.6666666666667</ele><time>2026-04-10T13:05:58.001Z</time></trkpt><trkpt lat="43.86265482933633" lon="11.609362303830554"><ele>597.3333333333334</ele><time>2026-04-10T13:05:59.001Z</time></trkpt><trkpt lat="43.86278554247915" lon="11.609255662521239"><ele>606.0</ele><time>2026-04-10T13:06:00.001Z</time></trkpt><trkpt lat="43.86291740530619" lon="11.609148070967777"><ele>606.0</ele><time>2026-04-10T13:06:01.001Z</time></trkpt><trkpt lat="43.86304517883333" lon="11.60903796054309"><ele>606.0</ele><time>2026-04-10T13:06:02.001Z</time></trkpt><trkpt lat="43.86317575416427" lon="11.608919978776894"><ele>606.0</ele><time>2026-04-10T13:06:03.001Z</time></trkpt><trkpt lat="43.863305444180796" lon="11.608792487684115"><ele>610.3333333333334</ele><time>2026-04-10T13:06:04.001Z</time></trkpt><trkpt lat="43.86343341710135" lon="11.608645044569947"><ele>614.6666666666667</ele><time>2026-04-10T13:06:05.001Z</time></trkpt><trkpt lat="43.86355634615366" lon="11.608472499731237"><ele>619.0</ele><time>2026-04-10T13:06:06.001Z</time></trkpt><trkpt lat="43.863676273603794" lon="11.60829067807465"><ele>619.0</ele><time>2026-04-10T13:06:07.001Z</time></trkpt><trkpt lat="43.86379466270722" lon="11.608107661429711"><ele>619.0</ele><time>2026-04-10T13:06:08.001Z</time></trkpt><trkpt lat="43.863923972060654" lon="11.60791517364235"><ele>619.0</ele><time>2026-04-10T13:06:09.001Z</time></trkpt><trkpt lat="43.86404980148455" lon="11.607716924918657"><ele>621.3333333333334</ele><time>2026-04-10T13:06:10.001Z</time></trkpt><trkpt lat="43.864150090144996" lon="11.607525155642517"><ele>623.6666666666666</ele><time>2026-04-10T13:06:11.001Z</time></trkpt><trkpt lat="43.86423516353675" lon="11.607334304118845"><ele>626.0</ele><time>2026-04-10T13:06:12.001Z</time></trkpt><trkpt lat="43.8643116987859" lon="11.607156272522873"><ele>626.0</ele><time>2026-04-10T13:06:13.001Z</time></trkpt><trkpt lat="43.86438923325338" lon="11.607001337666102"><ele>626.0</ele><time>2026-04-10T13:06:14.001Z</time></trkpt><trkpt lat="43.86448052685179" lon="11.606867766978022"><ele>626.0</ele><time>2026-04-10T13:06:15.001Z</time></trkpt><trkpt lat="43.86459914335341" lon="11.606758702305466"><ele>626.0</ele><time>2026-04-10T13:06:16.001Z</time></trkpt><trkpt lat="43.86473123099491" lon="11.606652794808134"><ele>620.6666666666666</ele><time>2026-04-10T13:06:17.001Z</time></trkpt><trkpt lat="43.86487161389273" lon="11.606524207290288"><ele>615.3333333333334</ele><time>2026-04-10T13:06:18.001Z</time></trkpt><trkpt lat="43.864999694949134" lon="11.606396803954386"><ele>610.0</ele><time>2026-04-10T13:06:19.001Z</time></trkpt><trkpt lat="43.86511296755537" lon="11.606296087766838"><ele>607.8</ele><time>2026-04-10T13:06:20.001Z</time></trkpt><trkpt lat="43.86521188952141" lon="11.606208966841463"><ele>605.6</ele><time>2026-04-10T13:06:21.001Z</time></trkpt><trkpt lat="43.86530229892105" lon="11.60616051471725"><ele>603.4</ele><time>2026-04-10T13:06:22.001Z</time></trkpt><trkpt lat="43.865393530122" lon="11.606180782157866"><ele>601.2</ele><time>2026-04-10T13:06:23.001Z</time></trkpt><trkpt lat="43.865479910134134" lon="11.606257399869458"><ele>599.0</ele><time>2026-04-10T13:06:24.001Z</time></trkpt><trkpt lat="43.86553870718865" lon="11.606375071294162"><ele>599.0</ele><time>2026-04-10T13:06:25.001Z</time></trkpt><trkpt lat="43.865537099036786" lon="11.606510662158279"><ele>599.0</ele><time>2026-04-10T13:06:26.001Z</time></trkpt><trkpt lat="43.86548912983595" lon="11.606636425400827"><ele>599.0</ele><time>2026-04-10T13:06:27.001Z</time></trkpt><trkpt lat="43.86539324098964" lon="11.606737283873619"><ele>599.0</ele><time>2026-04-10T13:06:28.001Z</time></trkpt><trkpt lat="43.86526523819701" lon="11.606809067493996"><ele>599.0</ele><time>2026-04-10T13:06:29.002Z</time></trkpt><trkpt lat="43.86511798122281" lon="11.606883626066555"><ele>599.0</ele><time>2026-04-10T13:06:30.002Z</time></trkpt><trkpt lat="43.864991083247084" lon="11.606966681651507"><ele>599.0</ele><time>2026-04-10T13:06:31.002Z</time></trkpt><trkpt lat="43.86488137845984" lon="11.607084180414061"><ele>599.0</ele><time>2026-04-10T13:06:32.002Z</time></trkpt><trkpt lat="43.86479216262484" lon="11.607262798871693"><ele>608.0</ele><time>2026-04-10T13:06:33.002Z</time></trkpt><trkpt lat="43.86470593272236" lon="11.607467303303501"><ele>617.0</ele><time>2026-04-10T13:06:34.002Z</time></trkpt><trkpt lat="43.864608992921816" lon="11.60769114634579"><ele>626.0</ele><time>2026-04-10T13:06:35.002Z</time></trkpt><trkpt lat="43.864503478931866" lon="11.607914567554122"><ele>623.6666666666666</ele><time>2026-04-10T13:06:36.002Z</time></trkpt><trkpt lat="43.864398816684776" lon="11.608134338779085"><ele>621.3333333333334</ele><time>2026-04-10T13:06:37Z</time></trkpt><trkpt lat="43.86429719709191" lon="11.60836019866673"><ele>619.0</ele><time>2026-04-10T13:06:38Z</time></trkpt><trkpt lat="43.86420413126399" lon="11.608575739651775"><ele>624.3333333333334</ele><time>2026-04-10T13:06:39Z</time></trkpt><trkpt lat="43.864118137073795" lon="11.608788485900032"><ele>629.6666666666666</ele><time>2026-04-10T13:06:40Z</time></trkpt><trkpt lat="43.86404454130369" lon="11.609007437873577"><ele>635.0</ele><time>2026-04-10T13:06:41Z</time></trkpt><trkpt lat="43.86399147018433" lon="11.609252351456888"><ele>638.3333333333333</ele><time>2026-04-10T13:06:42Z</time></trkpt><trkpt lat="43.863962479620774" lon="11.609516985639308"><ele>641.6666666666666</ele><time>2026-04-10T13:06:43Z</time></trkpt><trkpt lat="43.86391314878764" lon="11.609784829017663"><ele>645.0</ele><time>2026-04-10T13:06:44Z</time></trkpt><trkpt lat="43.86387494992126" lon="11.610052177362885"><ele>645.0</ele><time>2026-04-10T13:06:45Z</time></trkpt><trkpt lat="43.863846802170045" lon="11.610314168255805"><ele>645.0</ele><time>2026-04-10T13:06:46Z</time></trkpt><trkpt lat="43.86378332600841" lon="11.610566547356946"><ele>645.0</ele><time>2026-04-10T13:06:47Z</time></trkpt><trkpt lat="43.863704344331104" lon="11.610822053149565"><ele>649.0</ele><time>2026-04-10T13:06:48Z</time></trkpt><trkpt lat="43.863630727504315" lon="11.61105941521846"><ele>653.0</ele><time>2026-04-10T13:06:49Z</time></trkpt><trkpt lat="43.86356827422083" lon="11.611270763454336"><ele>657.0</ele><time>2026-04-10T13:06:50Z</time></trkpt><trkpt lat="43.86350750574842" lon="11.61147702927727"><ele>654.6666666666666</ele><time>2026-04-10T13:06:51Z</time></trkpt><trkpt lat="43.86345068363172" lon="11.61168532459422"><ele>652.3333333333333</ele><time>2026-04-10T13:06:52Z</time></trkpt><trkpt lat="43.863416754327666" lon="11.611913015361024"><ele>650.0</ele><time>2026-04-10T13:06:53Z</time></trkpt><trkpt lat="43.863403297698284" lon="11.612154520199926"><ele>650.0</ele><time>2026-04-10T13:06:54Z</time></trkpt><trkpt lat="43.863400159364076" lon="11.612408036623979"><ele>650.0</ele><time>2026-04-10T13:06:55Z</time></trkpt><trkpt lat="43.8633763404136" lon="11.612665797350704"><ele>650.0</ele><time>2026-04-10T13:06:56Z</time></trkpt><trkpt lat="43.863367703906704" lon="11.612906915828052"><ele>651.3333333333333</ele><time>2026-04-10T13:06:57Z</time></trkpt><trkpt lat="43.863381204968796" lon="11.613130834071745"><ele>652.6666666666666</ele><time>2026-04-10T13:06:58Z</time></trkpt><trkpt lat="43.863387300026375" lon="11.613353468314404"><ele>654.0</ele><time>2026-04-10T13:06:59Z</time></trkpt><trkpt lat="43.863428983447776" lon="11.613576700870668"><ele>663.6666666666666</ele><time>2026-04-10T13:07:00Z</time></trkpt><trkpt lat="43.86350978311151" lon="11.613797784341966"><ele>673.3333333333333</ele><time>2026-04-10T13:07:01Z</time></trkpt><trkpt lat="43.86359750933114" lon="11.614032987809072"><ele>683.0</ele><time>2026-04-10T13:07:02Z</time></trkpt><trkpt lat="43.8637000959414" lon="11.614248503543704"><ele>683.0</ele><time>2026-04-10T13:07:03Z</time></trkpt><trkpt lat="43.863785506947906" lon="11.614439938316902"><ele>683.0</ele><time>2026-04-10T13:07:04Z</time></trkpt><trkpt lat="43.86384851155243" lon="11.614631772361454"><ele>683.0</ele><time>2026-04-10T13:07:05Z</time></trkpt><trkpt lat="43.86389345326096" lon="11.61483973780436"><ele>682.6666666666666</ele><time>2026-04-10T13:07:06Z</time></trkpt><trkpt lat="43.86390432444119" lon="11.615074553587528"><ele>682.3333333333334</ele><time>2026-04-10T13:07:07Z</time></trkpt><trkpt lat="43.863912451003024" lon="11.615323554386816"><ele>682.0</ele><time>2026-04-10T13:07:08Z</time></trkpt><trkpt lat="43.86390810242034" lon="11.61556821156266"><ele>680.6666666666667</ele><time>2026-04-10T13:07:09Z</time></trkpt><trkpt lat="43.863859571523925" lon="11.615801593045273"><ele>679.3333333333334</ele><time>2026-04-10T13:07:10Z</time></trkpt><trkpt lat="43.86380920214187" lon="11.616023473171879"><ele>678.0</ele><time>2026-04-10T13:07:11Z</time></trkpt><trkpt lat="43.863743246942875" lon="11.616225061565872"><ele>680.5</ele><time>2026-04-10T13:07:12Z</time></trkpt><trkpt lat="43.863665272126056" lon="11.616409645613912"><ele>683.0</ele><time>2026-04-10T13:07:13Z</time></trkpt><trkpt lat="43.86359343226849" lon="11.616587327440064"><ele>685.5</ele><time>2026-04-10T13:07:14Z</time></trkpt><trkpt lat="43.86352510921012" lon="11.616742217336462"><ele>688.0</ele><time>2026-04-10T13:07:15Z</time></trkpt><trkpt lat="43.86349871046967" lon="11.616916426160348"><ele>690.5</ele><time>2026-04-10T13:07:16Z</time></trkpt><trkpt lat="43.86351991863314" lon="11.617088570395387"><ele>693.0</ele><time>2026-04-10T13:07:17Z</time></trkpt><trkpt lat="43.86359060475897" lon="11.617250842469035"><ele>695.5</ele><time>2026-04-10T13:07:18Z</time></trkpt><trkpt lat="43.86368583412512" lon="11.617411932257289"><ele>698.0</ele><time>2026-04-10T13:07:19Z</time></trkpt><trkpt lat="43.8637875788335" lon="11.617567800922421"><ele>698.0</ele><time>2026-04-10T13:07:20Z</time></trkpt><trkpt lat="43.86385163682885" lon="11.617737539890243"><ele>698.0</ele><time>2026-04-10T13:07:21Z</time></trkpt><trkpt lat="43.86385442868714" lon="11.617940073370818"><ele>698.0</ele><time>2026-04-10T13:07:22.001Z</time></trkpt><trkpt lat="43.863828976807376" lon="11.618181458821036"><ele>699.0</ele><time>2026-04-10T13:07:23.001Z</time></trkpt><trkpt lat="43.863799653251256" lon="11.618437271969675"><ele>700.0</ele><time>2026-04-10T13:07:24.001Z</time></trkpt><trkpt lat="43.863772408237644" lon="11.618674952193041"><ele>701.0</ele><time>2026-04-10T13:07:25.001Z</time></trkpt><trkpt lat="43.86374913691613" lon="11.618890560435295"><ele>702.3333333333333</ele><time>2026-04-10T13:07:26.001Z</time></trkpt><trkpt lat="43.863727424375135" lon="11.6190881609469"><ele>703.6666666666666</ele><time>2026-04-10T13:07:27.001Z</time></trkpt><trkpt lat="43.86368641760039" lon="11.619289090128541"><ele>705.0</ele><time>2026-04-10T13:07:28.001Z</time></trkpt><trkpt lat="43.86362568464757" lon="11.619493870796822"><ele>702.6666666666666</ele><time>2026-04-10T13:07:29.001Z</time></trkpt><trkpt lat="43.86351350751613" lon="11.61967019052564"><ele>700.3333333333333</ele><time>2026-04-10T13:07:30.001Z</time></trkpt><trkpt lat="43.863396816810436" lon="11.619838687766004"><ele>698.0</ele><time>2026-04-10T13:07:31.001Z</time></trkpt><trkpt lat="43.863295209130705" lon="11.619990162606255"><ele>698.0</ele><time>2026-04-10T13:07:32.001Z</time></trkpt><trkpt lat="43.86320893742825" lon="11.620131299995109"><ele>698.0</ele><time>2026-04-10T13:07:33.001Z</time></trkpt><trkpt lat="43.863130916430066" lon="11.620251566084045"><ele>698.0</ele><time>2026-04-10T13:07:34.001Z</time></trkpt><trkpt lat="43.86305754539306" lon="11.620369982268906"><ele>698.0</ele><time>2026-04-10T13:07:35.001Z</time></trkpt><trkpt lat="43.863006770153675" lon="11.62050246912858"><ele>701.75</ele><time>2026-04-10T13:07:36.001Z</time></trkpt><trkpt lat="43.86299617077946" lon="11.620653277819953"><ele>705.5</ele><time>2026-04-10T13:07:37.001Z</time></trkpt><trkpt lat="43.863060884228446" lon="11.620798095728816"><ele>709.25</ele><time>2026-04-10T13:07:38.001Z</time></trkpt><trkpt lat="43.863174662478556" lon="11.620855139909828"><ele>713.0</ele><time>2026-04-10T13:07:39.001Z</time></trkpt><trkpt lat="43.863284969149404" lon="11.620857423260132"><ele>713.0</ele><time>2026-04-10T13:07:40.001Z</time></trkpt><trkpt lat="43.863385530197924" lon="11.620775706765794"><ele>713.0</ele><time>2026-04-10T13:07:41.001Z</time></trkpt><trkpt lat="43.8634887564876" lon="11.620654585747124"><ele>713.0</ele><time>2026-04-10T13:07:42.001Z</time></trkpt><trkpt lat="43.86360156571192" lon="11.620494321053044"><ele>713.0</ele><time>2026-04-10T13:07:43.001Z</time></trkpt><trkpt lat="43.86371913429715" lon="11.62030494384578"><ele>715.0</ele><time>2026-04-10T13:07:44.001Z</time></trkpt><trkpt lat="43.86384609023372" lon="11.62010761000851"><ele>717.0</ele><time>2026-04-10T13:07:45.001Z</time></trkpt><trkpt lat="43.86397420314729" lon="11.619912232882188"><ele>719.0</ele><time>2026-04-10T13:07:46.001Z</time></trkpt><trkpt lat="43.864100808357584" lon="11.619725581030613"><ele>719.0</ele><time>2026-04-10T13:07:47.001Z</time></trkpt><trkpt lat="43.86422771837839" lon="11.619543904943791"><ele>719.0</ele><time>2026-04-10T13:07:48.001Z</time></trkpt><trkpt lat="43.86434882639058" lon="11.61936657481823"><ele>719.0</ele><time>2026-04-10T13:07:49.001Z</time></trkpt><trkpt lat="43.864453937987875" lon="11.619199991347894"><ele>722.25</ele><time>2026-04-10T13:07:50.001Z</time></trkpt><trkpt lat="43.864544523563836" lon="11.619042209642112"><ele>725.5</ele><time>2026-04-10T13:07:51.001Z</time></trkpt><trkpt lat="43.86462082752584" lon="11.61888800515435"><ele>728.75</ele><time>2026-04-10T13:07:52.001Z</time></trkpt><trkpt lat="43.864661593271364" lon="11.618723994951024"><ele>732.0</ele><time>2026-04-10T13:07:53.001Z</time></trkpt><trkpt lat="43.8646523534514" lon="11.618549803743738"><ele>732.0</ele><time>2026-04-10T13:07:54.001Z</time></trkpt><trkpt lat="43.864624240511716" lon="11.618379754820252"><ele>732.0</ele><time>2026-04-10T13:07:55.001Z</time></trkpt><trkpt lat="43.8646072547578" lon="11.618209594210361"><ele>732.0</ele><time>2026-04-10T13:07:56.001Z</time></trkpt><trkpt lat="43.86462895256504" lon="11.618038574846974"><ele>732.0</ele><time>2026-04-10T13:07:57.001Z</time></trkpt><trkpt lat="43.864695575904214" lon="11.61790400376421"><ele>732.0</ele><time>2026-04-10T13:07:58.001Z</time></trkpt><trkpt lat="43.86479002915915" lon="11.617826804123416"><ele>732.0</ele><time>2026-04-10T13:07:59.001Z</time></trkpt><trkpt lat="43.86490528676884" lon="11.617751619033827"><ele>732.0</ele><time>2026-04-10T13:08:00.001Z</time></trkpt><trkpt lat="43.86504295103173" lon="11.617666738646548"><ele>732.0</ele><time>2026-04-10T13:08:01.001Z</time></trkpt><trkpt lat="43.86519301811581" lon="11.617568293962892"><ele>734.75</ele><time>2026-04-10T13:08:02.001Z</time></trkpt><trkpt lat="43.86533276381493" lon="11.617479153955301"><ele>737.5</ele><time>2026-04-10T13:08:03.001Z</time></trkpt><trkpt lat="43.865452113736836" lon="11.617392872291274"><ele>740.25</ele><time>2026-04-10T13:08:04.001Z</time></trkpt><trkpt lat="43.865556131831056" lon="11.617275914052678"><ele>743.0</ele><time>2026-04-10T13:08:05.001Z</time></trkpt><trkpt lat="43.86561674337579" lon="11.617102763946376"><ele>741.3333333333333</ele><time>2026-04-10T13:08:06.001Z</time></trkpt><trkpt lat="43.86565943146427" lon="11.616890069495224"><ele>739.6666666666666</ele><time>2026-04-10T13:08:07.001Z</time></trkpt><trkpt lat="43.865686770788514" lon="11.616646311609259"><ele>738.0</ele><time>2026-04-10T13:08:08.001Z</time></trkpt><trkpt lat="43.86572881678748" lon="11.616406147140104"><ele>738.0</ele><time>2026-04-10T13:08:09.001Z</time></trkpt><trkpt lat="43.865727952208765" lon="11.616159519968054"><ele>738.0</ele><time>2026-04-10T13:08:10.001Z</time></trkpt><trkpt lat="43.86570029805771" lon="11.615901677808468"><ele>738.0</ele><time>2026-04-10T13:08:11.001Z</time></trkpt><trkpt lat="43.86566996864022" lon="11.61567217998103"><ele>738.25</ele><time>2026-04-10T13:08:12.001Z</time></trkpt><trkpt lat="43.865650464217374" lon="11.61547459428327"><ele>738.5</ele><time>2026-04-10T13:08:13.001Z</time></trkpt><trkpt lat="43.865653806649014" lon="11.61527883362931"><ele>738.75</ele><time>2026-04-10T13:08:14.001Z</time></trkpt><trkpt lat="43.86571276343407" lon="11.61508326082667"><ele>739.0</ele><time>2026-04-10T13:08:15.001Z</time></trkpt><trkpt lat="43.8657830603556" lon="11.614880996328333"><ele>739.0</ele><time>2026-04-10T13:08:16.001Z</time></trkpt><trkpt lat="43.86585333987731" lon="11.614647085572983"><ele>739.0</ele><time>2026-04-10T13:08:17.001Z</time></trkpt><trkpt lat="43.865931141605685" lon="11.614441765379654"><ele>739.0</ele><time>2026-04-10T13:08:18.001Z</time></trkpt><trkpt lat="43.86599524652459" lon="11.614258669335829"><ele>741.25</ele><time>2026-04-10T13:08:19.001Z</time></trkpt><trkpt lat="43.86606300778719" lon="11.614100744172607"><ele>743.5</ele><time>2026-04-10T13:08:20.001Z</time></trkpt><trkpt lat="43.86615749274421" lon="11.613970218058771"><ele>745.75</ele><time>2026-04-10T13:08:21.001Z</time></trkpt><trkpt lat="43.86628900384856" lon="11.613900303826629"><ele>748.0</ele><time>2026-04-10T13:08:22.002Z</time></trkpt><trkpt lat="43.866432553956585" lon="11.613855240062684"><ele>748.0</ele><time>2026-04-10T13:08:23.002Z</time></trkpt><trkpt lat="43.86658150923595" lon="11.613855784174632"><ele>748.0</ele><time>2026-04-10T13:08:24.002Z</time></trkpt><trkpt lat="43.86672352242451" lon="11.613916786358212"><ele>748.0</ele><time>2026-04-10T13:08:25.002Z</time></trkpt><trkpt lat="43.866857792101094" lon="11.614031891600266"><ele>749.0</ele><time>2026-04-10T13:08:26.002Z</time></trkpt><trkpt lat="43.866973669030166" lon="11.614186199799681"><ele>750.0</ele><time>2026-04-10T13:08:27.002Z</time></trkpt><trkpt lat="43.867060148000576" lon="11.614377640859495"><ele>751.0</ele><time>2026-04-10T13:08:28.002Z</time></trkpt><trkpt lat="43.86715780150615" lon="11.614584647587023"><ele>751.0</ele><time>2026-04-10T13:08:29.002Z</time></trkpt><trkpt lat="43.86723941715998" lon="11.614800986347596"><ele>751.0</ele><time>2026-04-10T13:08:30.002Z</time></trkpt><trkpt lat="43.867302491835865" lon="11.615028048694038"><ele>751.0</ele><time>2026-04-10T13:08:31.002Z</time></trkpt><trkpt lat="43.867338790778206" lon="11.61526435316766"><ele>752.3333333333334</ele><time>2026-04-10T13:08:32.002Z</time></trkpt><trkpt lat="43.8673566020986" lon="11.615513327531973"><ele>753.6666666666666</ele><time>2026-04-10T13:08:33.002Z</time></trkpt><trkpt lat="43.86737098763742" lon="11.61576928815521"><ele>755.0</ele><time>2026-04-10T13:08:34.002Z</time></trkpt><trkpt lat="43.86738566541514" lon="11.6160058669121"><ele>755.0</ele><time>2026-04-10T13:08:35.002Z</time></trkpt><trkpt lat="43.86740094110332" lon="11.616221270626443"><ele>755.0</ele><time>2026-04-10T13:08:36.002Z</time></trkpt><trkpt lat="43.86740458198903" lon="11.616430471320463"><ele>755.0</ele><time>2026-04-10T13:08:37.002Z</time></trkpt><trkpt lat="43.86737873362199" lon="11.616643062188908"><ele>755.0</ele><time>2026-04-10T13:08:38.002Z</time></trkpt><trkpt lat="43.86732440144" lon="11.616854504563175"><ele>755.0</ele><time>2026-04-10T13:08:39.002Z</time></trkpt><trkpt lat="43.86724361900862" lon="11.6170580521138"><ele>755.0</ele><time>2026-04-10T13:08:40.002Z</time></trkpt><trkpt lat="43.867145420337216" lon="11.617264093852375"><ele>754.6666666666666</ele><time>2026-04-10T13:08:41.002Z</time></trkpt><trkpt lat="43.86704134078811" lon="11.617475081161496"><ele>754.3333333333334</ele><time>2026-04-10T13:08:42.002Z</time></trkpt><trkpt lat="43.8669472175468" lon="11.617692233374765"><ele>754.0</ele><time>2026-04-10T13:08:43Z</time></trkpt><trkpt lat="43.86685608234879" lon="11.617895817403372"><ele>757.0</ele><time>2026-04-10T13:08:44Z</time></trkpt><trkpt lat="43.86675825555631" lon="11.61807809565854"><ele>760.0</ele><time>2026-04-10T13:08:45Z</time></trkpt><trkpt lat="43.866645594699804" lon="11.61823952901274"><ele>763.0</ele><time>2026-04-10T13:08:46Z</time></trkpt><trkpt lat="43.86653148308444" lon="11.618406183361566"><ele>763.0</ele><time>2026-04-10T13:08:47Z</time></trkpt><trkpt lat="43.866413105906325" lon="11.618565063909804"><ele>763.0</ele><time>2026-04-10T13:08:48Z</time></trkpt><trkpt lat="43.86630114758634" lon="11.618737415833643"><ele>763.0</ele><time>2026-04-10T13:08:49Z</time></trkpt><trkpt lat="43.866201216672856" lon="11.618934539667551"><ele>766.0</ele><time>2026-04-10T13:08:50Z</time></trkpt><trkpt lat="43.86612330481671" lon="11.619168485449972"><ele>769.0</ele><time>2026-04-10T13:08:51Z</time></trkpt><trkpt lat="43.8660569350389" lon="11.619416719305711"><ele>772.0</ele><time>2026-04-10T13:08:52Z</time></trkpt><trkpt lat="43.86599721818338" lon="11.6196663937306"><ele>772.6666666666666</ele><time>2026-04-10T13:08:53Z</time></trkpt><trkpt lat="43.865914564657274" lon="11.619908257266196"><ele>773.3333333333333</ele><time>2026-04-10T13:08:54Z</time></trkpt><trkpt lat="43.86579200098369" lon="11.620158098087652"><ele>774.0</ele><time>2026-04-10T13:08:55Z</time></trkpt><trkpt lat="43.86565971476239" lon="11.620405516063082"><ele>778.3333333333333</ele><time>2026-04-10T13:08:56Z</time></trkpt><trkpt lat="43.865523257601346" lon="11.620656497979157"><ele>782.6666666666666</ele><time>2026-04-10T13:08:57Z</time></trkpt><trkpt lat="43.86540310967222" lon="11.620904446855592"><ele>787.0</ele><time>2026-04-10T13:08:58Z</time></trkpt><trkpt lat="43.86531519005546" lon="11.621168822899813"><ele>785.0</ele><time>2026-04-10T13:08:59Z</time></trkpt><trkpt lat="43.8652409572994" lon="11.621428620443405"><ele>783.0</ele><time>2026-04-10T13:09:00Z</time></trkpt><trkpt lat="43.86513109420206" lon="11.621661359640806"><ele>781.0</ele><time>2026-04-10T13:09:01Z</time></trkpt><trkpt lat="43.864983539758015" lon="11.621873022628876"><ele>787.0</ele><time>2026-04-10T13:09:02Z</time></trkpt><trkpt lat="43.864832547932714" lon="11.622087435613402"><ele>793.0</ele><time>2026-04-10T13:09:03Z</time></trkpt><trkpt lat="43.86468218991016" lon="11.622302371652882"><ele>799.0</ele><time>2026-04-10T13:09:04Z</time></trkpt><trkpt lat="43.86453720925841" lon="11.622504814196368"><ele>799.0</ele><time>2026-04-10T13:09:05Z</time></trkpt><trkpt lat="43.86438261130737" lon="11.622683493333389"><ele>799.0</ele><time>2026-04-10T13:09:06Z</time></trkpt><trkpt lat="43.86422126862254" lon="11.62283089818264"><ele>799.0</ele><time>2026-04-10T13:09:07Z</time></trkpt><trkpt lat="43.86407918090752" lon="11.622979332382359"><ele>800.3333333333333</ele><time>2026-04-10T13:09:08Z</time></trkpt><trkpt lat="43.86395409948434" lon="11.623158196153687"><ele>801.6666666666667</ele><time>2026-04-10T13:09:09Z</time></trkpt><trkpt lat="43.86383389766004" lon="11.623376250479676"><ele>803.0</ele><time>2026-04-10T13:09:10Z</time></trkpt><trkpt lat="43.86371962743997" lon="11.62361266443484"><ele>803.6666666666667</ele><time>2026-04-10T13:09:11Z</time></trkpt><trkpt lat="43.86360464841921" lon="11.62385640342602"><ele>804.3333333333333</ele><time>2026-04-10T13:09:12Z</time></trkpt><trkpt lat="43.86348277236317" lon="11.624103065003432"><ele>805.0</ele><time>2026-04-10T13:09:13Z</time></trkpt><trkpt lat="43.86336563436584" lon="11.624325409264356"><ele>810.3333333333333</ele><time>2026-04-10T13:09:14Z</time></trkpt><trkpt lat="43.863257546081975" lon="11.624525950417324"><ele>815.6666666666667</ele><time>2026-04-10T13:09:15Z</time></trkpt><trkpt lat="43.86316168922952" lon="11.624730946955438"><ele>821.0</ele><time>2026-04-10T13:09:16Z</time></trkpt><trkpt lat="43.86308858518059" lon="11.624965512007217"><ele>821.0</ele><time>2026-04-10T13:09:17Z</time></trkpt><trkpt lat="43.86304867346729" lon="11.625231654214733"><ele>821.0</ele><time>2026-04-10T13:09:18Z</time></trkpt><trkpt lat="43.863011338316056" lon="11.62547870380853"><ele>821.0</ele><time>2026-04-10T13:09:19Z</time></trkpt><trkpt lat="43.86297645725776" lon="11.625707499908101"><ele>825.3333333333334</ele><time>2026-04-10T13:09:20Z</time></trkpt><trkpt lat="43.86293518458385" lon="11.625922364003312"><ele>829.6666666666667</ele><time>2026-04-10T13:09:21Z</time></trkpt><trkpt lat="43.86289184933251" lon="11.626130382234843"><ele>834.0</ele><time>2026-04-10T13:09:22Z</time></trkpt><trkpt lat="43.86282840830477" lon="11.626329740176224"><ele>835.75</ele><time>2026-04-10T13:09:23Z</time></trkpt><trkpt lat="43.86273678876671" lon="11.626496464929168"><ele>837.5</ele><time>2026-04-10T13:09:24Z</time></trkpt><trkpt lat="43.862642854115364" lon="11.62662392820337"><ele>839.25</ele><time>2026-04-10T13:09:25Z</time></trkpt><trkpt lat="43.86253183073784" lon="11.62667618231342"><ele>841.0</ele><time>2026-04-10T13:09:26Z</time></trkpt><trkpt lat="43.862419859011375" lon="11.626659548743246"><ele>837.0</ele><time>2026-04-10T13:09:27Z</time></trkpt><trkpt lat="43.86230707428618" lon="11.626563000282012"><ele>833.0</ele><time>2026-04-10T13:09:28Z</time></trkpt><trkpt lat="43.862204107222745" lon="11.626421872994685"><ele>829.0</ele><time>2026-04-10T13:09:29Z</time></trkpt><trkpt lat="43.8621594075721" lon="11.62624080339126"><ele>825.0</ele><time>2026-04-10T13:09:30Z</time></trkpt><trkpt lat="43.862077444526065" lon="11.626098027302321"><ele>827.3333333333333</ele><time>2026-04-10T13:09:31Z</time></trkpt><trkpt lat="43.86195758586481" lon="11.625982547969514"><ele>829.6666666666666</ele><time>2026-04-10T13:09:32.001Z</time></trkpt><trkpt lat="43.861792799949875" lon="11.625887195780207"><ele>832.0</ele><time>2026-04-10T13:09:33.001Z</time></trkpt><trkpt lat="43.86162277357933" lon="11.625783914221309"><ele>832.0</ele><time>2026-04-10T13:09:34.001Z</time></trkpt><trkpt lat="43.8614506113877" lon="11.62567136480882"><ele>832.0</ele><time>2026-04-10T13:09:35.001Z</time></trkpt><trkpt lat="43.86130138017283" lon="11.62553717753903"><ele>832.0</ele><time>2026-04-10T13:09:36.001Z</time></trkpt><trkpt lat="43.86117835535019" lon="11.625370698746815"><ele>825.0</ele><time>2026-04-10T13:09:37.001Z</time></trkpt><trkpt lat="43.86109480352499" lon="11.6251643335363"><ele>818.0</ele><time>2026-04-10T13:09:38.001Z</time></trkpt><trkpt lat="43.8610682336525" lon="11.624948723503337"><ele>811.0</ele><time>2026-04-10T13:09:39.001Z</time></trkpt><trkpt lat="43.86106083704662" lon="11.624746241928609"><ele>811.0</ele><time>2026-04-10T13:09:40.001Z</time></trkpt><trkpt lat="43.86101484176639" lon="11.624559163745667"><ele>811.0</ele><time>2026-04-10T13:09:41.001Z</time></trkpt><trkpt lat="43.860920426642416" lon="11.624413888993832"><ele>811.0</ele><time>2026-04-10T13:09:42.001Z</time></trkpt><trkpt lat="43.86080936100187" lon="11.62433717438569"><ele>811.0</ele><time>2026-04-10T13:09:43.001Z</time></trkpt><trkpt lat="43.86067634306646" lon="11.624352621638408"><ele>818.3333333333333</ele><time>2026-04-10T13:09:44.001Z</time></trkpt><trkpt lat="43.86052202041353" lon="11.624392850262554"><ele>825.6666666666667</ele><time>2026-04-10T13:09:45.001Z</time></trkpt><trkpt lat="43.860363356976244" lon="11.62446706454116"><ele>833.0</ele><time>2026-04-10T13:09:46.001Z</time></trkpt><trkpt lat="43.86022773540507" lon="11.624571533408185"><ele>840.0</ele><time>2026-04-10T13:09:47.001Z</time></trkpt><trkpt lat="43.86011031495792" lon="11.624662166234671"><ele>847.0</ele><time>2026-04-10T13:09:48.001Z</time></trkpt><trkpt lat="43.859977109677786" lon="11.62468643610063"><ele>854.0</ele><time>2026-04-10T13:09:49.001Z</time></trkpt><trkpt lat="43.8598502278394" lon="11.624631209221315"><ele>861.0</ele><time>2026-04-10T13:09:50.001Z</time></trkpt><trkpt lat="43.85973358805471" lon="11.624517513395073"><ele>855.6666666666667</ele><time>2026-04-10T13:09:51.001Z</time></trkpt><trkpt lat="43.859631575231006" lon="11.624384669342824"><ele>850.3333333333334</ele><time>2026-04-10T13:09:52.001Z</time></trkpt><trkpt lat="43.85955073196606" lon="11.62420988974858"><ele>845.0</ele><time>2026-04-10T13:09:53.001Z</time></trkpt><trkpt lat="43.85947920389825" lon="11.624008220038148"><ele>845.0</ele><time>2026-04-10T13:09:54.001Z</time></trkpt><trkpt lat="43.85941237912105" lon="11.623846315937408"><ele>845.0</ele><time>2026-04-10T13:09:55.001Z</time></trkpt><trkpt lat="43.859332150250324" lon="11.623721515117076"><ele>845.0</ele><time>2026-04-10T13:09:56.001Z</time></trkpt><trkpt lat="43.859220235987856" lon="11.623635686794723"><ele>845.0</ele><time>2026-04-10T13:09:57.001Z</time></trkpt><trkpt lat="43.85908340369338" lon="11.62362365814884"><ele>851.3333333333334</ele><time>2026-04-10T13:09:58.001Z</time></trkpt><trkpt lat="43.85894375584856" lon="11.623685328597086"><ele>857.6666666666667</ele><time>2026-04-10T13:09:59.001Z</time></trkpt><trkpt lat="43.85878963959492" lon="11.623779247039701"><ele>864.0</ele><time>2026-04-10T13:10:00.001Z</time></trkpt><trkpt lat="43.858615759004174" lon="11.623897341557594"><ele>865.0</ele><time>2026-04-10T13:10:01.001Z</time></trkpt><trkpt lat="43.858450234073835" lon="11.624023881413006"><ele>866.0</ele><time>2026-04-10T13:10:02.001Z</time></trkpt><trkpt lat="43.85830849070397" lon="11.62413331833443"><ele>867.0</ele><time>2026-04-10T13:10:03.001Z</time></trkpt><trkpt lat="43.85816803089381" lon="11.624176765856928"><ele>867.0</ele><time>2026-04-10T13:10:04.001Z</time></trkpt><trkpt lat="43.85803673989438" lon="11.624124326501946"><ele>867.0</ele><time>2026-04-10T13:10:05.001Z</time></trkpt><trkpt lat="43.857935731711976" lon="11.62400446804215"><ele>867.0</ele><time>2026-04-10T13:10:06.001Z</time></trkpt><trkpt lat="43.85786073194408" lon="11.623889087299828"><ele>867.0</ele><time>2026-04-10T13:10:07.001Z</time></trkpt><trkpt lat="43.85775820577154" lon="11.623798658231614"><ele>867.0</ele><time>2026-04-10T13:10:08.001Z</time></trkpt><trkpt lat="43.857629030759824" lon="11.623809974599075"><ele>867.0</ele><time>2026-04-10T13:10:09.001Z</time></trkpt><trkpt lat="43.85751423314184" lon="11.623898665096752"><ele>867.0</ele><time>2026-04-10T13:10:10.001Z</time></trkpt><trkpt lat="43.85744219463936" lon="11.624040258118276"><ele>867.0</ele><time>2026-04-10T13:10:11.001Z</time></trkpt><trkpt lat="43.85741666798483" lon="11.62422195676923"><ele>866.0</ele><time>2026-04-10T13:10:12.001Z</time></trkpt><trkpt lat="43.857435563139994" lon="11.62444938641462"><ele>865.0</ele><time>2026-04-10T13:10:13.001Z</time></trkpt><trkpt lat="43.85744163535537" lon="11.624705861415979"><ele>864.0</ele><time>2026-04-10T13:10:14.001Z</time></trkpt><trkpt lat="43.85744463130501" lon="11.624970280907055"><ele>867.3333333333333</ele><time>2026-04-10T13:10:15.001Z</time></trkpt><trkpt lat="43.85739496605605" lon="11.62523286976052"><ele>870.6666666666666</ele><time>2026-04-10T13:10:16.001Z</time></trkpt><trkpt lat="43.85730883733997" lon="11.625503600549544"><ele>874.0</ele><time>2026-04-10T13:10:17.001Z</time></trkpt><trkpt lat="43.85722026406418" lon="11.62578047483657"><ele>878.3333333333333</ele><time>2026-04-10T13:10:18.001Z</time></trkpt><trkpt lat="43.85713711404797" lon="11.626044568945398"><ele>882.6666666666667</ele><time>2026-04-10T13:10:19.001Z</time></trkpt><trkpt lat="43.85705641809335" lon="11.626299253162191"><ele>887.0</ele><time>2026-04-10T13:10:20.001Z</time></trkpt><trkpt lat="43.85698138993746" lon="11.626533197010586"><ele>892.3333333333334</ele><time>2026-04-10T13:10:21.001Z</time></trkpt><trkpt lat="43.85691090520659" lon="11.626764567809985"><ele>897.6666666666667</ele><time>2026-04-10T13:10:22.001Z</time></trkpt><trkpt lat="43.85685369781386" lon="11.627004680006717"><ele>903.0</ele><time>2026-04-10T13:10:23.001Z</time></trkpt><trkpt lat="43.85681523974452" lon="11.62725585588938"><ele>898.0</ele><time>2026-04-10T13:10:24.001Z</time></trkpt><trkpt lat="43.856783078026844" lon="11.627505745543791"><ele>893.0</ele><time>2026-04-10T13:10:25.001Z</time></trkpt><trkpt lat="43.856753708737386" lon="11.627757711276466"><ele>888.0</ele><time>2026-04-10T13:10:26.001Z</time></trkpt><trkpt lat="43.85672754852845" lon="11.627974457045067"><ele>888.0</ele><time>2026-04-10T13:10:27.001Z</time></trkpt><trkpt lat="43.85670260683066" lon="11.628181750873907"><ele>888.0</ele><time>2026-04-10T13:10:28.001Z</time></trkpt><trkpt lat="43.85668974533324" lon="11.628377117996152"><ele>888.0</ele><time>2026-04-10T13:10:29.001Z</time></trkpt><trkpt lat="43.85672888707961" lon="11.628568799583416"><ele>888.0</ele><time>2026-04-10T13:10:30.001Z</time></trkpt><trkpt lat="43.856805930016435" lon="11.628748346378568"><ele>899.0</ele><time>2026-04-10T13:10:31.002Z</time></trkpt><trkpt lat="43.85692626396215" lon="11.628903089194953"><ele>910.0</ele><time>2026-04-10T13:10:32.002Z</time></trkpt><trkpt lat="43.85701032148622" lon="11.629076268891053"><ele>921.0</ele><time>2026-04-10T13:10:33.002Z</time></trkpt><trkpt lat="43.857066123497376" lon="11.629253176148215"><ele>921.0</ele><time>2026-04-10T13:10:34.002Z</time></trkpt><trkpt lat="43.857072090583905" lon="11.629465685191251"><ele>921.0</ele><time>2026-04-10T13:10:35.002Z</time></trkpt><trkpt lat="43.857076343696725" lon="11.629676034752437"><ele>921.0</ele><time>2026-04-10T13:10:36.002Z</time></trkpt><trkpt lat="43.85707970974943" lon="11.629863197661521"><ele>921.0</ele><time>2026-04-10T13:10:37.002Z</time></trkpt><trkpt lat="43.85709930825236" lon="11.630039726061973"><ele>920.5</ele><time>2026-04-10T13:10:38.002Z</time></trkpt><trkpt lat="43.857100645984886" lon="11.630219447356897"><ele>920.0</ele><time>2026-04-10T13:10:39.002Z</time></trkpt><trkpt lat="43.85708710867969" lon="11.630419867857213"><ele>919.5</ele><time>2026-04-10T13:10:40.002Z</time></trkpt><trkpt lat="43.85703921617494" lon="11.630623719551863"><ele>919.0</ele><time>2026-04-10T13:10:41.002Z</time></trkpt><trkpt lat="43.85696964885895" lon="11.630853982676017"><ele>921.6666666666666</ele><time>2026-04-10T13:10:42.002Z</time></trkpt><trkpt lat="43.856890130657426" lon="11.631101664745255"><ele>924.3333333333333</ele><time>2026-04-10T13:10:43.002Z</time></trkpt><trkpt lat="43.856800792353965" lon="11.631362848455723"><ele>927.0</ele><time>2026-04-10T13:10:44.002Z</time></trkpt><trkpt lat="43.85671725886617" lon="11.63161978527694"><ele>927.6666666666667</ele><time>2026-04-10T13:10:45.002Z</time></trkpt><trkpt lat="43.85663199023805" lon="11.631862750245368"><ele>928.3333333333334</ele><time>2026-04-10T13:10:46.002Z</time></trkpt><trkpt lat="43.85654853455456" lon="11.63208448071895"><ele>929.0</ele><time>2026-04-10T13:10:47.002Z</time></trkpt><trkpt lat="43.8564620779508" lon="11.632295300623316"><ele>929.0</ele><time>2026-04-10T13:10:48.002Z</time></trkpt><trkpt lat="43.856379988805806" lon="11.632493854123709"><ele>929.0</ele><time>2026-04-10T13:10:49.001Z</time></trkpt><trkpt lat="43.85630561585482" lon="11.632667919466098"><ele>929.0</ele><time>2026-04-10T13:10:50.001Z</time></trkpt><trkpt lat="43.856207207519155" lon="11.632780254789466"><ele>929.0</ele><time>2026-04-10T13:10:51.001Z</time></trkpt><trkpt lat="43.85609361541517" lon="11.632858748689536"><ele>932.5</ele><time>2026-04-10T13:10:52.001Z</time></trkpt><trkpt lat="43.855963809184665" lon="11.632866774321414"><ele>936.0</ele><time>2026-04-10T13:10:53.001Z</time></trkpt><trkpt lat="43.855823142097236" lon="11.632836752081698"><ele>939.5</ele><time>2026-04-10T13:10:54.001Z</time></trkpt><trkpt lat="43.855679776857194" lon="11.632798605780323"><ele>943.0</ele><time>2026-04-10T13:10:55.001Z</time></trkpt><trkpt lat="43.8555323210513" lon="11.632769732022046"><ele>943.0</ele><time>2026-04-10T13:10:56.001Z</time></trkpt><trkpt lat="43.85539038539198" lon="11.632768021044471"><ele>943.0</ele><time>2026-04-10T13:10:57.001Z</time></trkpt><trkpt lat="43.85526160506083" lon="11.632818780534565"><ele>943.0</ele><time>2026-04-10T13:10:58.001Z</time></trkpt><trkpt lat="43.855144661016354" lon="11.632933447580607"><ele>943.0</ele><time>2026-04-10T13:10:59.001Z</time></trkpt><trkpt lat="43.855039100499866" lon="11.63310403414379"><ele>939.0</ele><time>2026-04-10T13:11:00.001Z</time></trkpt><trkpt lat="43.85491633570812" lon="11.63328016194114"><ele>935.0</ele><time>2026-04-10T13:11:01.001Z</time></trkpt><trkpt lat="43.8547956924394" lon="11.633474910163761"><ele>931.0</ele><time>2026-04-10T13:11:02.001Z</time></trkpt><trkpt lat="43.85467456853051" lon="11.6336708525738"><ele>941.3333333333333</ele><time>2026-04-10T13:11:03.001Z</time></trkpt><trkpt lat="43.854548792641616" lon="11.63387482257598"><ele>951.6666666666667</ele><time>2026-04-10T13:11:04.001Z</time></trkpt><trkpt lat="43.85441957625791" lon="11.634084324995976"><ele>962.0</ele><time>2026-04-10T13:11:05.001Z</time></trkpt><trkpt lat="43.854290945805836" lon="11.634293256691013"><ele>959.6666666666667</ele><time>2026-04-10T13:11:06.001Z</time></trkpt><trkpt lat="43.854168745357136" lon="11.634492526776473"><ele>957.3333333333333</ele><time>2026-04-10T13:11:07.001Z</time></trkpt><trkpt lat="43.85405606070021" lon="11.634675530226254"><ele>955.0</ele><time>2026-04-10T13:11:08.001Z</time></trkpt><trkpt lat="43.853952591515004" lon="11.634843288228433"><ele>955.0</ele><time>2026-04-10T13:11:09.001Z</time></trkpt><trkpt lat="43.853853885011574" lon="11.635003028500915"><ele>955.0</ele><time>2026-04-10T13:11:10.001Z</time></trkpt><trkpt lat="43.85376154893632" lon="11.63515038023849"><ele>955.0</ele><time>2026-04-10T13:11:11.001Z</time></trkpt><trkpt lat="43.85367077246749" lon="11.63527214647374"><ele>955.0</ele><time>2026-04-10T13:11:12.001Z</time></trkpt><trkpt lat="43.85355577783493" lon="11.635349521978602"><ele>952.75</ele><time>2026-04-10T13:11:13.001Z</time></trkpt><trkpt lat="43.853419723384974" lon="11.635342151540558"><ele>950.5</ele><time>2026-04-10T13:11:14.001Z</time></trkpt><trkpt lat="43.853305758056635" lon="11.635255398184743"><ele>948.25</ele><time>2026-04-10T13:11:15.001Z</time></trkpt><trkpt lat="43.8532177621258" lon="11.635115585033333"><ele>946.0</ele><time>2026-04-10T13:11:16.001Z</time></trkpt><trkpt lat="43.85312825553105" lon="11.63495921758659"><ele>946.0</ele><time>2026-04-10T13:11:17.001Z</time></trkpt><trkpt lat="43.85303268552175" lon="11.63481060062365"><ele>946.0</ele><time>2026-04-10T13:11:18.001Z</time></trkpt><trkpt lat="43.85290256480528" lon="11.634724934864337"><ele>946.0</ele><time>2026-04-10T13:11:19.001Z</time></trkpt><trkpt lat="43.85275556505822" lon="11.634686416485826"><ele>946.0</ele><time>2026-04-10T13:11:20.001Z</time></trkpt><trkpt lat="43.85260413648876" lon="11.63468059293793"><ele>951.0</ele><time>2026-04-10T13:11:21.001Z</time></trkpt><trkpt lat="43.85245049288068" lon="11.634700807573017"><ele>956.0</ele><time>2026-04-10T13:11:22.001Z</time></trkpt><trkpt lat="43.85229923483886" lon="11.63472159811947"><ele>961.0</ele><time>2026-04-10T13:11:23.001Z</time></trkpt><trkpt lat="43.852150052808945" lon="11.634736528179943"><ele>961.0</ele><time>2026-04-10T13:11:24.001Z</time></trkpt><trkpt lat="43.852013699469005" lon="11.63477191796284"><ele>961.0</ele><time>2026-04-10T13:11:25.001Z</time></trkpt><trkpt lat="43.85188551384422" lon="11.634852325908557"><ele>961.0</ele><time>2026-04-10T13:11:26.001Z</time></trkpt><trkpt lat="43.8517597530766" lon="11.63498873323131"><ele>961.0</ele><time>2026-04-10T13:11:27.001Z</time></trkpt><trkpt lat="43.85162369531514" lon="11.635139230567466"><ele>959.3333333333333</ele><time>2026-04-10T13:11:28.001Z</time></trkpt><trkpt lat="43.851491863790834" lon="11.635301645534978"><ele>957.6666666666667</ele><time>2026-04-10T13:11:29.001Z</time></trkpt><trkpt lat="43.851375007905155" lon="11.6354390916313"><ele>956.0</ele><time>2026-04-10T13:11:30.001Z</time></trkpt><trkpt lat="43.85125006907507" lon="11.635542376962208"><ele>957.25</ele><time>2026-04-10T13:11:31.001Z</time></trkpt><trkpt lat="43.85112403127509" lon="11.635629730689313"><ele>958.5</ele><time>2026-04-10T13:11:32.001Z</time></trkpt><trkpt lat="43.85097892832659" lon="11.635640908242094"><ele>959.75</ele><time>2026-04-10T13:11:33.001Z</time></trkpt><trkpt lat="43.850843035836675" lon="11.635666698446734"><ele>961.0</ele><time>2026-04-10T13:11:34.001Z</time></trkpt><trkpt lat="43.85071549025583" lon="11.635713060833767"><ele>961.0</ele><time>2026-04-10T13:11:35.001Z</time></trkpt><trkpt lat="43.85060546017031" lon="11.635797609649527"><ele>961.0</ele><time>2026-04-10T13:11:36.001Z</time></trkpt><trkpt lat="43.85051495208491" lon="11.635906778310527"><ele>961.0</ele><time>2026-04-10T13:11:37.001Z</time></trkpt><trkpt lat="43.850440504205466" lon="11.63602910183281"><ele>961.0</ele><time>2026-04-10T13:11:38.001Z</time></trkpt><trkpt lat="43.85035942449017" lon="11.636138926224056"><ele>959.5</ele><time>2026-04-10T13:11:39.001Z</time></trkpt><trkpt lat="43.85029239053089" lon="11.636269646368586"><ele>958.0</ele><time>2026-04-10T13:11:40.001Z</time></trkpt><trkpt lat="43.85022270914147" lon="11.636405791256026"><ele>956.5</ele><time>2026-04-10T13:11:41.001Z</time></trkpt><trkpt lat="43.85014853305192" lon="11.636550589075137"><ele>955.0</ele><time>2026-04-10T13:11:42.001Z</time></trkpt><trkpt lat="43.85007055430135" lon="11.636701084839098"><ele>955.0</ele><time>2026-04-10T13:11:43.001Z</time></trkpt><trkpt lat="43.84999343684763" lon="11.636849918233064"><ele>955.0</ele><time>2026-04-10T13:11:44.001Z</time></trkpt><trkpt lat="43.849917218744174" lon="11.636997018784754"><ele>955.0</ele><time>2026-04-10T13:11:45.001Z</time></trkpt><trkpt lat="43.84983582239802" lon="11.637153155481926"><ele>955.0</ele><time>2026-04-10T13:11:46.001Z</time></trkpt><trkpt lat="43.849752172390396" lon="11.637313615260604"><ele>957.75</ele><time>2026-04-10T13:11:47.001Z</time></trkpt><trkpt lat="43.84966608146132" lon="11.63747875721632"><ele>960.5</ele><time>2026-04-10T13:11:48.001Z</time></trkpt><trkpt lat="43.84957836790308" lon="11.637647956820908"><ele>963.25</ele><time>2026-04-10T13:11:49.001Z</time></trkpt><trkpt lat="43.84950441863601" lon="11.637821355519684"><ele>966.0</ele><time>2026-04-10T13:11:50.001Z</time></trkpt><trkpt lat="43.84942285287017" lon="11.63795823119157"><ele>968.75</ele><time>2026-04-10T13:11:51.001Z</time></trkpt><trkpt lat="43.849314527179196" lon="11.638042061991927"><ele>971.5</ele><time>2026-04-10T13:11:52.001Z</time></trkpt><trkpt lat="43.849183673981976" lon="11.638057196256094"><ele>974.25</ele><time>2026-04-10T13:11:53.001Z</time></trkpt><trkpt lat="43.84906289423442" lon="11.638012897580586"><ele>977.0</ele><time>2026-04-10T13:11:54.001Z</time></trkpt><trkpt lat="43.84895605750123" lon="11.637910729386592"><ele>970.5</ele><time>2026-04-10T13:11:55.001Z</time></trkpt><trkpt lat="43.84885347851135" lon="11.637826047391165"><ele>964.0</ele><time>2026-04-10T13:11:56.001Z</time></trkpt><trkpt lat="43.84873858525622" lon="11.637790497542099"><ele>957.5</ele><time>2026-04-10T13:11:57.001Z</time></trkpt><trkpt lat="43.84861688325259" lon="11.637814766499883"><ele>951.0</ele><time>2026-04-10T13:11:58.001Z</time></trkpt><trkpt lat="43.84849488297339" lon="11.637901262935435"><ele>946.3333333333333</ele><time>2026-04-10T13:11:59.001Z</time></trkpt><trkpt lat="43.84837108378758" lon="11.638015739156048"><ele>941.6666666666666</ele><time>2026-04-10T13:12:00.001Z</time></trkpt><trkpt lat="43.84823973905729" lon="11.638137530896365"><ele>937.0</ele><time>2026-04-10T13:12:01.001Z</time></trkpt><trkpt lat="43.848101614262056" lon="11.63826282287166"><ele>937.0</ele><time>2026-04-10T13:12:02.001Z</time></trkpt><trkpt lat="43.84795586596615" lon="11.63839687247995"><ele>937.0</ele><time>2026-04-10T13:12:03.001Z</time></trkpt><trkpt lat="43.84780626305806" lon="11.638534195722917"><ele>937.0</ele><time>2026-04-10T13:12:04.001Z</time></trkpt><trkpt lat="43.847657910850735" lon="11.638662629280317"><ele>936.0</ele><time>2026-04-10T13:12:05.001Z</time></trkpt><trkpt lat="43.84751634699314" lon="11.638790087986587"><ele>935.0</ele><time>2026-04-10T13:12:06.001Z</time></trkpt><trkpt lat="43.84737148850652" lon="11.638921407853472"><ele>934.0</ele><time>2026-04-10T13:12:07.001Z</time></trkpt><trkpt lat="43.84723162972717" lon="11.639055443453563"><ele>934.0</ele><time>2026-04-10T13:12:08.001Z</time></trkpt><trkpt lat="43.84708903133688" lon="11.639183127648577"><ele>934.0</ele><time>2026-04-10T13:12:09.001Z</time></trkpt><trkpt lat="43.84694956620609" lon="11.639308818257279"><ele>934.0</ele><time>2026-04-10T13:12:10.001Z</time></trkpt><trkpt lat="43.84680935006579" lon="11.639432707043966"><ele>931.6666666666666</ele><time>2026-04-10T13:12:11.001Z</time></trkpt><trkpt lat="43.84667127029889" lon="11.639563652317785"><ele>929.3333333333333</ele><time>2026-04-10T13:12:12.001Z</time></trkpt><trkpt lat="43.84653369856076" lon="11.639694739895575"><ele>927.0</ele><time>2026-04-10T13:12:13.001Z</time></trkpt><trkpt lat="43.84639788968957" lon="11.639823684169475"><ele>927.0</ele><time>2026-04-10T13:12:14.001Z</time></trkpt><trkpt lat="43.84626040418798" lon="11.63995045296125"><ele>927.0</ele><time>2026-04-10T13:12:15.001Z</time></trkpt><trkpt lat="43.8461211065526" lon="11.640076692286746"><ele>927.0</ele><time>2026-04-10T13:12:16.001Z</time></trkpt><trkpt lat="43.84597942925172" lon="11.640198869852782"><ele>925.5</ele><time>2026-04-10T13:12:17.001Z</time></trkpt><trkpt lat="43.84585482204355" lon="11.640284946947075"><ele>924.0</ele><time>2026-04-10T13:12:18.001Z</time></trkpt><trkpt lat="43.84573846645751" lon="11.640328240668879"><ele>922.5</ele><time>2026-04-10T13:12:19.002Z</time></trkpt><trkpt lat="43.845613072383365" lon="11.640308111313914"><ele>921.0</ele><time>2026-04-10T13:12:20.002Z</time></trkpt><trkpt lat="43.845479102958876" lon="11.64027297553069"><ele>921.0</ele><time>2026-04-10T13:12:21.002Z</time></trkpt><trkpt lat="43.84534716745734" lon="11.640265998770394"><ele>921.0</ele><time>2026-04-10T13:12:22.002Z</time></trkpt><trkpt lat="43.845222335570526" lon="11.640303694616723"><ele>921.0</ele><time>2026-04-10T13:12:23.002Z</time></trkpt><trkpt lat="43.84511501018745" lon="11.64039902978578"><ele>921.0</ele><time>2026-04-10T13:12:24.002Z</time></trkpt><trkpt lat="43.8450321805628" lon="11.640544803350556"><ele>915.25</ele><time>2026-04-10T13:12:25.002Z</time></trkpt><trkpt lat="43.844966481753" lon="11.640711404638926"><ele>909.5</ele><time>2026-04-10T13:12:26.002Z</time></trkpt><trkpt lat="43.844890097385736" lon="11.640865842010982"><ele>903.75</ele><time>2026-04-10T13:12:27.002Z</time></trkpt><trkpt lat="43.844837721814926" lon="11.641028540020166"><ele>898.0</ele><time>2026-04-10T13:12:28.002Z</time></trkpt><trkpt lat="43.84481793486055" lon="11.641212595283514"><ele>898.0</ele><time>2026-04-10T13:12:29.002Z</time></trkpt><trkpt lat="43.84484624793838" lon="11.64140544977613"><ele>898.0</ele><time>2026-04-10T13:12:30.002Z</time></trkpt><trkpt lat="43.84487663289969" lon="11.641597338072513"><ele>898.0</ele><time>2026-04-10T13:12:31.002Z</time></trkpt><trkpt lat="43.84491012325315" lon="11.641784102481274"><ele>898.0</ele><time>2026-04-10T13:12:32.002Z</time></trkpt><trkpt lat="43.8449432733382" lon="11.64197093607544"><ele>897.0</ele><time>2026-04-10T13:12:33.002Z</time></trkpt><trkpt lat="43.844969066468806" lon="11.642140995661903"><ele>896.0</ele><time>2026-04-10T13:12:34.002Z</time></trkpt><trkpt lat="43.84497950341941" lon="11.642308725099968"><ele>895.0</ele><time>2026-04-10T13:12:35.002Z</time></trkpt><trkpt lat="43.84494240532938" lon="11.64246531402237"><ele>894.0</ele><time>2026-04-10T13:12:36.002Z</time></trkpt><trkpt lat="43.844858942022185" lon="11.642587802949386"><ele>894.0</ele><time>2026-04-10T13:12:37.002Z</time></trkpt><trkpt lat="43.84476792149616" lon="11.642689545296815"><ele>894.0000000000001</ele><time>2026-04-10T13:12:38.002Z</time></trkpt><trkpt lat="43.844673124356" lon="11.642765943356489"><ele>894.0000000000001</ele><time>2026-04-10T13:12:39.002Z</time></trkpt><trkpt lat="43.84460103369131" lon="11.642873944748047"><ele>894.0</ele><time>2026-04-10T13:12:40.002Z</time></trkpt><trkpt lat="43.84455193070271" lon="11.643008132360348"><ele>894.0</ele><time>2026-04-10T13:12:41.002Z</time></trkpt><trkpt lat="43.84455367747967" lon="11.64316852987074"><ele>893.75</ele><time>2026-04-10T13:12:42.002Z</time></trkpt><trkpt lat="43.84464280682773" lon="11.64329753158954"><ele>893.5</ele><time>2026-04-10T13:12:43.002Z</time></trkpt><trkpt lat="43.844707451166876" lon="11.643435749644333"><ele>893.25</ele><time>2026-04-10T13:12:44.002Z</time></trkpt><trkpt lat="43.84478423293366" lon="11.643564273128217"><ele>893.0</ele><time>2026-04-10T13:12:45.002Z</time></trkpt><trkpt lat="43.84486274461254" lon="11.64369043285954"><ele>888.25</ele><time>2026-04-10T13:12:46.002Z</time></trkpt><trkpt lat="43.84493936329173" lon="11.643815860883512"><ele>883.5</ele><time>2026-04-10T13:12:47.002Z</time></trkpt><trkpt lat="43.845008789227435" lon="11.643948780666387"><ele>878.75</ele><time>2026-04-10T13:12:48.002Z</time></trkpt><trkpt lat="43.84505752847994" lon="11.644091580783105"><ele>874.0</ele><time>2026-04-10T13:12:49.002Z</time></trkpt><trkpt lat="43.8450795513979" lon="11.64424494330262"><ele>874.0</ele><time>2026-04-10T13:12:50.002Z</time></trkpt><trkpt lat="43.84509573340612" lon="11.644405638649653"><ele>874.0</ele><time>2026-04-10T13:12:51.002Z</time></trkpt><trkpt lat="43.84508201533892" lon="11.64456602630186"><ele>874.0</ele><time>2026-04-10T13:12:52.002Z</time></trkpt><trkpt lat="43.84507141209812" lon="11.644724744349018"><ele>874.0</ele><time>2026-04-10T13:12:53.002Z</time></trkpt><trkpt lat="43.845070123153114" lon="11.644884304123805"><ele>874.5</ele><time>2026-04-10T13:12:54.002Z</time></trkpt><trkpt lat="43.84509033657696" lon="11.64503540986579"><ele>875.0</ele><time>2026-04-10T13:12:55.001Z</time></trkpt><trkpt lat="43.8451742424588" lon="11.64515535887375"><ele>875.5</ele><time>2026-04-10T13:12:56.001Z</time></trkpt><trkpt lat="43.84530109991391" lon="11.645207766732995"><ele>876.0</ele><time>2026-04-10T13:12:57.001Z</time></trkpt><trkpt lat="43.84543620340182" lon="11.645233080467214"><ele>876.0</ele><time>2026-04-10T13:12:58.001Z</time></trkpt><trkpt lat="43.84557533204713" lon="11.645244333553963"><ele>876.0</ele><time>2026-04-10T13:12:59.001Z</time></trkpt><trkpt lat="43.845710543958006" lon="11.645232923054984"><ele>876.0</ele><time>2026-04-10T13:13:00.001Z</time></trkpt><trkpt lat="43.845842928873786" lon="11.645248109816428"><ele>876.0</ele><time>2026-04-10T13:13:01.001Z</time></trkpt><trkpt lat="43.845972128669914" lon="11.64526309020148"><ele>874.5</ele><time>2026-04-10T13:13:02.001Z</time></trkpt><trkpt lat="43.84609512107108" lon="11.64527753460988"><ele>873.0</ele><time>2026-04-10T13:13:03.001Z</time></trkpt><trkpt lat="43.84621642231306" lon="11.645289872435722"><ele>871.5</ele><time>2026-04-10T13:13:04.001Z</time></trkpt><trkpt lat="43.84633127872869" lon="11.645307909301652"><ele>870.0</ele><time>2026-04-10T13:13:05.001Z</time></trkpt><trkpt lat="43.84644948573433" lon="11.6453342001501"><ele>870.0</ele><time>2026-04-10T13:13:06.001Z</time></trkpt><trkpt lat="43.84654467189014" lon="11.64544027802788"><ele>870.0</ele><time>2026-04-10T13:13:07.001Z</time></trkpt><trkpt lat="43.84660066006733" lon="11.645580562546698"><ele>870.0</ele><time>2026-04-10T13:13:08.001Z</time></trkpt><trkpt lat="43.84659637339932" lon="11.645742104735724"><ele>870.0</ele><time>2026-04-10T13:13:09.001Z</time></trkpt><trkpt lat="43.84653749968641" lon="11.64587858900837"><ele>870.0</ele><time>2026-04-10T13:13:10.001Z</time></trkpt><trkpt lat="43.8464402055687" lon="11.645962938880697"><ele>870.0</ele><time>2026-04-10T13:13:11.001Z</time></trkpt><trkpt lat="43.84632942289259" lon="11.645978865131054"><ele>870.0</ele><time>2026-04-10T13:13:12.001Z</time></trkpt><trkpt lat="43.84622737113597" lon="11.645930346432943"><ele>870.0</ele><time>2026-04-10T13:13:13.001Z</time></trkpt><trkpt lat="43.846132198844906" lon="11.645834546942885"><ele>870.0</ele><time>2026-04-10T13:13:14.001Z</time></trkpt><trkpt lat="43.84602557329535" lon="11.645748577787485"><ele>870.0</ele><time>2026-04-10T13:13:15.001Z</time></trkpt><trkpt lat="43.84592170670778" lon="11.645676001024784"><ele>870.0</ele><time>2026-04-10T13:13:16.001Z</time></trkpt><trkpt lat="43.84580133538718" lon="11.645631304908814"><ele>870.0</ele><time>2026-04-10T13:13:17.001Z</time></trkpt><trkpt lat="43.84566847100222" lon="11.645620528361034"><ele>865.25</ele><time>2026-04-10T13:13:18.001Z</time></trkpt><trkpt lat="43.84553014479992" lon="11.645627116776474"><ele>860.5</ele><time>2026-04-10T13:13:19.001Z</time></trkpt><trkpt lat="43.84539257762207" lon="11.645636315423015"><ele>855.75</ele><time>2026-04-10T13:13:20.001Z</time></trkpt><trkpt lat="43.84525603505028" lon="11.645614896508071"><ele>851.0</ele><time>2026-04-10T13:13:21.001Z</time></trkpt><trkpt lat="43.845118743514824" lon="11.64561530853258"><ele>847.0</ele><time>2026-04-10T13:13:22.001Z</time></trkpt><trkpt lat="43.84497942547896" lon="11.645616188695506"><ele>843.0</ele><time>2026-04-10T13:13:23.001Z</time></trkpt><trkpt lat="43.84484447543552" lon="11.6456112595656"><ele>839.0</ele><time>2026-04-10T13:13:24.001Z</time></trkpt><trkpt lat="43.84472771418816" lon="11.645615269260121"><ele>835.0</ele><time>2026-04-10T13:13:25.001Z</time></trkpt><trkpt lat="43.844620781727166" lon="11.645582248236481"><ele>835.0</ele><time>2026-04-10T13:13:26.001Z</time></trkpt><trkpt lat="43.84453118759052" lon="11.64552984410717"><ele>835.0</ele><time>2026-04-10T13:13:27.001Z</time></trkpt><trkpt lat="43.84447041360105" lon="11.645439263615826"><ele>835.0</ele><time>2026-04-10T13:13:28.001Z</time></trkpt><trkpt lat="43.84445207720807" lon="11.645308072064473"><ele>835.0</ele><time>2026-04-10T13:13:29.001Z</time></trkpt><trkpt lat="43.84445804106065" lon="11.645169397015335"><ele>835.0</ele><time>2026-04-10T13:13:30.001Z</time></trkpt><trkpt lat="43.84448884866296" lon="11.645013805418136"><ele>841.25</ele><time>2026-04-10T13:13:31.001Z</time></trkpt><trkpt lat="43.8445296824403" lon="11.644858162306779"><ele>847.5</ele><time>2026-04-10T13:13:32.001Z</time></trkpt><trkpt lat="43.844559054810716" lon="11.64470671230354"><ele>853.75</ele><time>2026-04-10T13:13:33.001Z</time></trkpt><trkpt lat="43.84456490242115" lon="11.64454860798388"><ele>860.0</ele><time>2026-04-10T13:13:34.001Z</time></trkpt><trkpt lat="43.8445296169951" lon="11.644398111518159"><ele>863.5</ele><time>2026-04-10T13:13:35.001Z</time></trkpt><trkpt lat="43.844457979325895" lon="11.644259497624326"><ele>867.0</ele><time>2026-04-10T13:13:36.001Z</time></trkpt><trkpt lat="43.84436330376499" lon="11.644147063815598"><ele>870.5</ele><time>2026-04-10T13:13:37.001Z</time></trkpt><trkpt lat="43.844243113249135" lon="11.644071725615916"><ele>874.0</ele><time>2026-04-10T13:13:38.001Z</time></trkpt><trkpt lat="43.84412870573908" lon="11.643980468959978"><ele>864.0</ele><time>2026-04-10T13:13:39.001Z</time></trkpt><trkpt lat="43.84400605862596" lon="11.643903755867525"><ele>854.0</ele><time>2026-04-10T13:13:40.001Z</time></trkpt><trkpt lat="43.843887730551174" lon="11.643828515506927"><ele>844.0</ele><time>2026-04-10T13:13:41.001Z</time></trkpt><trkpt lat="43.84376828193113" lon="11.64377022124854"><ele>834.0</ele><time>2026-04-10T13:13:42.001Z</time></trkpt><trkpt lat="43.84367815953344" lon="11.643655976591772"><ele>839.25</ele><time>2026-04-10T13:13:43.001Z</time></trkpt><trkpt lat="43.84361579072694" lon="11.64350721449811"><ele>844.5</ele><time>2026-04-10T13:13:44.001Z</time></trkpt><trkpt lat="43.84357608381861" lon="11.64332288749922"><ele>849.75</ele><time>2026-04-10T13:13:45.001Z</time></trkpt><trkpt lat="43.84356807606631" lon="11.643112604769627"><ele>855.0</ele><time>2026-04-10T13:13:46.001Z</time></trkpt><trkpt lat="43.843570405552825" lon="11.642903503718035"><ele>854.5</ele><time>2026-04-10T13:13:47.001Z</time></trkpt><trkpt lat="43.84357355080483" lon="11.642701154800758"><ele>854.0</ele><time>2026-04-10T13:13:48.001Z</time></trkpt><trkpt lat="43.84358066671772" lon="11.64250114941937"><ele>853.5</ele><time>2026-04-10T13:13:49.001Z</time></trkpt><trkpt lat="43.84359006940152" lon="11.642307643275474"><ele>853.0</ele><time>2026-04-10T13:13:50.001Z</time></trkpt><trkpt lat="43.84357403897636" lon="11.642114022791295"><ele>853.25</ele><time>2026-04-10T13:13:51.001Z</time></trkpt><trkpt lat="43.84352519444229" lon="11.64193298297269"><ele>853.5</ele><time>2026-04-10T13:13:52.001Z</time></trkpt><trkpt lat="43.84344681134762" lon="11.641775104827516"><ele>853.75</ele><time>2026-04-10T13:13:53.001Z</time></trkpt><trkpt lat="43.843366460997785" lon="11.641620740226465"><ele>854.0</ele><time>2026-04-10T13:13:54.001Z</time></trkpt><trkpt lat="43.84328474079201" lon="11.64146923883687"><ele>845.25</ele><time>2026-04-10T13:13:55.001Z</time></trkpt><trkpt lat="43.84322184711745" lon="11.641298496194995"><ele>836.5</ele><time>2026-04-10T13:13:56.001Z</time></trkpt><trkpt lat="43.84315956625662" lon="11.641131781249943"><ele>827.75</ele><time>2026-04-10T13:13:57.001Z</time></trkpt><trkpt lat="43.843155221053046" lon="11.640940926053128"><ele>819.0</ele><time>2026-04-10T13:13:58.001Z</time></trkpt><trkpt lat="43.843170594165976" lon="11.640748687761418"><ele>819.0</ele><time>2026-04-10T13:13:59.001Z</time></trkpt><trkpt lat="43.843186536093434" lon="11.640558117790851"><ele>819.0</ele><time>2026-04-10T13:14:00.001Z</time></trkpt><trkpt lat="43.84319807321562" lon="11.640364997902017"><ele>819.0</ele><time>2026-04-10T13:14:01.001Z</time></trkpt><trkpt lat="43.84321480869098" lon="11.640171282225644"><ele>819.0</ele><time>2026-04-10T13:14:02.001Z</time></trkpt><trkpt lat="43.84324969704005" lon="11.639980366240103"><ele>820.25</ele><time>2026-04-10T13:14:03.001Z</time></trkpt><trkpt lat="43.843301939758504" lon="11.639799602034334"><ele>821.5</ele><time>2026-04-10T13:14:04.001Z</time></trkpt><trkpt lat="43.84336795852047" lon="11.639618870995374"><ele>822.75</ele><time>2026-04-10T13:14:05.001Z</time></trkpt><trkpt lat="43.84343487148364" lon="11.63942784079697"><ele>824.0</ele><time>2026-04-10T13:14:06.001Z</time></trkpt><trkpt lat="43.84350355342437" lon="11.63923074997189"><ele>824.0</ele><time>2026-04-10T13:14:07.001Z</time></trkpt><trkpt lat="43.84356794241117" lon="11.639039356552386"><ele>824.0</ele><time>2026-04-10T13:14:08.001Z</time></trkpt><trkpt lat="43.84363043522096" lon="11.638852110469758"><ele>824.0</ele><time>2026-04-10T13:14:09.001Z</time></trkpt><trkpt lat="43.843697011133074" lon="11.638672077831558"><ele>824.0</ele><time>2026-04-10T13:14:10.001Z</time></trkpt><trkpt lat="43.84377710745535" lon="11.638504449540976"><ele>818.75</ele><time>2026-04-10T13:14:11.001Z</time></trkpt><trkpt lat="43.843872798155516" lon="11.638354509963913"><ele>813.5</ele><time>2026-04-10T13:14:12.001Z</time></trkpt><trkpt lat="43.84397404754623" lon="11.638214872152446"><ele>808.25</ele><time>2026-04-10T13:14:13.001Z</time></trkpt><trkpt lat="43.84406831577151" lon="11.638074100847119"><ele>803.0</ele><time>2026-04-10T13:14:14.001Z</time></trkpt><trkpt lat="43.84414494671411" lon="11.637947368505682"><ele>803.0</ele><time>2026-04-10T13:14:15.001Z</time></trkpt><trkpt lat="43.84419750859962" lon="11.637820641766229"><ele>803.0</ele><time>2026-04-10T13:14:16.001Z</time></trkpt><trkpt lat="43.84420416424776" lon="11.63767559383908"><ele>803.0</ele><time>2026-04-10T13:14:17.001Z</time></trkpt><trkpt lat="43.844155763570456" lon="11.637545529269289"><ele>803.0</ele><time>2026-04-10T13:14:18.001Z</time></trkpt><trkpt lat="43.84406474011889" lon="11.637469875833759"><ele>803.0</ele><time>2026-04-10T13:14:19.001Z</time></trkpt><trkpt lat="43.843959896426576" lon="11.63747758432056"><ele>803.0</ele><time>2026-04-10T13:14:20.001Z</time></trkpt><trkpt lat="43.84385563419818" lon="11.637552785435137"><ele>803.0</ele><time>2026-04-10T13:14:21.001Z</time></trkpt><trkpt lat="43.84379045831499" lon="11.637722254397872"><ele>803.0</ele><time>2026-04-10T13:14:22.001Z</time></trkpt><trkpt lat="43.84372061249916" lon="11.637901213018091"><ele>803.0</ele><time>2026-04-10T13:14:23.001Z</time></trkpt><trkpt lat="43.84361744427975" lon="11.638041222792765"><ele>803.0</ele><time>2026-04-10T13:14:24.001Z</time></trkpt><trkpt lat="43.8435020114347" lon="11.638158217271148"><ele>803.0</ele><time>2026-04-10T13:14:25.001Z</time></trkpt><trkpt lat="43.84339259317517" lon="11.638286040239475"><ele>803.0</ele><time>2026-04-10T13:14:26.001Z</time></trkpt><trkpt lat="43.84327407796567" lon="11.638403346345346"><ele>803.0</ele><time>2026-04-10T13:14:27.001Z</time></trkpt><trkpt lat="43.8431407307274" lon="11.638507314335852"><ele>800.0</ele><time>2026-04-10T13:14:28.001Z</time></trkpt><trkpt lat="43.843019215875465" lon="11.638651358305065"><ele>797.0</ele><time>2026-04-10T13:14:29.001Z</time></trkpt><trkpt lat="43.84288063604627" lon="11.638777667362213"><ele>794.0</ele><time>2026-04-10T13:14:30.001Z</time></trkpt><trkpt lat="43.842740211458526" lon="11.63891303094578"><ele>785.6666666666667</ele><time>2026-04-10T13:14:31.001Z</time></trkpt><trkpt lat="43.84259948631954" lon="11.639054273089858"><ele>777.3333333333333</ele><time>2026-04-10T13:14:32.001Z</time></trkpt><trkpt lat="43.84246335971765" lon="11.639204659946259"><ele>769.0</ele><time>2026-04-10T13:14:33.001Z</time></trkpt><trkpt lat="43.84233374523413" lon="11.639378502992571"><ele>774.0</ele><time>2026-04-10T13:14:34.001Z</time></trkpt><trkpt lat="43.84220410688005" lon="11.639552687546743"><ele>779.0</ele><time>2026-04-10T13:14:35.001Z</time></trkpt><trkpt lat="43.84207483081508" lon="11.639715471513709"><ele>784.0</ele><time>2026-04-10T13:14:36.001Z</time></trkpt><trkpt lat="43.84194598827638" lon="11.639872276887466"><ele>784.0</ele><time>2026-04-10T13:14:37.001Z</time></trkpt><trkpt lat="43.84182029701676" lon="11.640029065969491"><ele>784.0</ele><time>2026-04-10T13:14:38.001Z</time></trkpt><trkpt lat="43.841693602727645" lon="11.640187425316181"><ele>784.0</ele><time>2026-04-10T13:14:39.001Z</time></trkpt><trkpt lat="43.8415960607313" lon="11.640376060753491"><ele>775.3333333333333</ele><time>2026-04-10T13:14:40.002Z</time></trkpt><trkpt lat="43.84153235886924" lon="11.64059475948007"><ele>766.6666666666666</ele><time>2026-04-10T13:14:41.002Z</time></trkpt><trkpt lat="43.8414906821161" lon="11.64081934269227"><ele>758.0</ele><time>2026-04-10T13:14:42.002Z</time></trkpt><trkpt lat="43.841455804149234" lon="11.641021978110947"><ele>755.0</ele><time>2026-04-10T13:14:43.002Z</time></trkpt><trkpt lat="43.84143265643732" lon="11.641194631766393"><ele>752.0</ele><time>2026-04-10T13:14:44.002Z</time></trkpt><trkpt lat="43.84144355967644" lon="11.641361288297311"><ele>749.0</ele><time>2026-04-10T13:14:45.002Z</time></trkpt><trkpt lat="43.84150034435892" lon="11.641534429237938"><ele>746.0</ele><time>2026-04-10T13:14:46.002Z</time></trkpt><trkpt lat="43.8416363781016" lon="11.641662697617946"><ele>746.0</ele><time>2026-04-10T13:14:47.002Z</time></trkpt><trkpt lat="43.84176722224891" lon="11.641779371647806"><ele>746.0</ele><time>2026-04-10T13:14:48.002Z</time></trkpt><trkpt lat="43.84189549902088" lon="11.641884289856732"><ele>746.0</ele><time>2026-04-10T13:14:49.002Z</time></trkpt><trkpt lat="43.8420192797529" lon="11.64199560873817"><ele>749.25</ele><time>2026-04-10T13:14:50.002Z</time></trkpt><trkpt lat="43.842131243248154" lon="11.642118842239203"><ele>752.5</ele><time>2026-04-10T13:14:51.002Z</time></trkpt><trkpt lat="43.84221789863727" lon="11.642273161328166"><ele>755.75</ele><time>2026-04-10T13:14:52.002Z</time></trkpt><trkpt lat="43.84226340149771" lon="11.642453566764505"><ele>759.0</ele><time>2026-04-10T13:14:53.002Z</time></trkpt><trkpt lat="43.84227143411155" lon="11.642639658223294"><ele>757.75</ele><time>2026-04-10T13:14:54.002Z</time></trkpt><trkpt lat="43.84224924670235" lon="11.64282922613599"><ele>756.5</ele><time>2026-04-10T13:14:55.002Z</time></trkpt><trkpt lat="43.84221618908628" lon="11.64302451764319"><ele>755.25</ele><time>2026-04-10T13:14:56.002Z</time></trkpt><trkpt lat="43.842186225232844" lon="11.643231146313525"><ele>754.0</ele><time>2026-04-10T13:14:57.002Z</time></trkpt><trkpt lat="43.84215926562843" lon="11.643436405642356"><ele>753.5</ele><time>2026-04-10T13:14:58.002Z</time></trkpt><trkpt lat="43.842134541353296" lon="11.643632084097927"><ele>753.0</ele><time>2026-04-10T13:14:59.002Z</time></trkpt><trkpt lat="43.84210389014332" lon="11.643825178968637"><ele>752.5</ele><time>2026-04-10T13:15:00.002Z</time></trkpt><trkpt lat="43.84207802606781" lon="11.644016469648385"><ele>752.0</ele><time>2026-04-10T13:15:01.001Z</time></trkpt><trkpt lat="43.842062166695165" lon="11.644207748152303"><ele>752.0</ele><time>2026-04-10T13:15:02.001Z</time></trkpt><trkpt lat="43.842070173905" lon="11.644396510768573"><ele>752.0</ele><time>2026-04-10T13:15:03.001Z</time></trkpt><trkpt lat="43.842093703210764" lon="11.644587072593287"><ele>752.0</ele><time>2026-04-10T13:15:04.001Z</time></trkpt><trkpt lat="43.84212294836172" lon="11.64477858617497"><ele>752.0</ele><time>2026-04-10T13:15:05.001Z</time></trkpt><trkpt lat="43.84213187002987" lon="11.644975599944809"><ele>751.8</ele><time>2026-04-10T13:15:06.001Z</time></trkpt><trkpt lat="43.842145356747594" lon="11.64515222415031"><ele>751.6</ele><time>2026-04-10T13:15:07Z</time></trkpt><trkpt lat="43.84214554306383" lon="11.64529629357821"><ele>751.4</ele><time>2026-04-10T13:15:08Z</time></trkpt><trkpt lat="43.8421270370734" lon="11.645428909734965"><ele>751.1999999999999</ele><time>2026-04-10T13:15:09Z</time></trkpt><trkpt lat="43.84204118705814" lon="11.645520424268543"><ele>751.0</ele><time>2026-04-10T13:15:10Z</time></trkpt><trkpt lat="43.841943068698484" lon="11.64551312878862"><ele>751.0</ele><time>2026-04-10T13:15:11Z</time></trkpt><trkpt lat="43.84185108996333" lon="11.645434849618526"><ele>751.0</ele><time>2026-04-10T13:15:12Z</time></trkpt><trkpt lat="43.841793221928306" lon="11.645298865128318"><ele>751.0</ele><time>2026-04-10T13:15:13Z</time></trkpt><trkpt lat="43.84174986783751" lon="11.645116576042126"><ele>751.0</ele><time>2026-04-10T13:15:14Z</time></trkpt><trkpt lat="43.84170273375535" lon="11.644924051349856"><ele>741.3333333333334</ele><time>2026-04-10T13:15:15Z</time></trkpt><trkpt lat="43.84165518450666" lon="11.644723416905824"><ele>731.6666666666666</ele><time>2026-04-10T13:15:16Z</time></trkpt><trkpt lat="43.84160270190186" lon="11.644533397211418"><ele>722.0</ele><time>2026-04-10T13:15:17Z</time></trkpt><trkpt lat="43.84154058931971" lon="11.644343094344922"><ele>722.0</ele><time>2026-04-10T13:15:18Z</time></trkpt><trkpt lat="43.84146924065153" lon="11.644162126539493"><ele>722.0</ele><time>2026-04-10T13:15:19Z</time></trkpt><trkpt lat="43.841388562265514" lon="11.64398897457954"><ele>722.0</ele><time>2026-04-10T13:15:20Z</time></trkpt><trkpt lat="43.84132826806951" lon="11.643805795541375"><ele>722.0</ele><time>2026-04-10T13:15:21Z</time></trkpt><trkpt lat="43.84127338371841" lon="11.643628000590379"><ele>722.5</ele><time>2026-04-10T13:15:22Z</time></trkpt><trkpt lat="43.84127495799118" lon="11.643425486593433"><ele>723.0</ele><time>2026-04-10T13:15:23Z</time></trkpt><trkpt lat="43.84133349142093" lon="11.643237525877224"><ele>723.5</ele><time>2026-04-10T13:15:24Z</time></trkpt><trkpt lat="43.841419757913414" lon="11.64307725626025"><ele>724.0</ele><time>2026-04-10T13:15:25Z</time></trkpt><trkpt lat="43.84149661217818" lon="11.64295379023582"><ele>724.0</ele><time>2026-04-10T13:15:26Z</time></trkpt><trkpt lat="43.841527964932915" lon="11.642816207356505"><ele>724.0</ele><time>2026-04-10T13:15:27Z</time></trkpt><trkpt lat="43.84149612914185" lon="11.642680207934593"><ele>724.0</ele><time>2026-04-10T13:15:28Z</time></trkpt><trkpt lat="43.841425147436205" lon="11.642570907204165"><ele>724.0</ele><time>2026-04-10T13:15:29Z</time></trkpt><trkpt lat="43.84133267540582" lon="11.642479760991398"><ele>724.0</ele><time>2026-04-10T13:15:30Z</time></trkpt><trkpt lat="43.84122068724936" lon="11.642462769474356"><ele>724.75</ele><time>2026-04-10T13:15:31Z</time></trkpt><trkpt lat="43.84112415640839" lon="11.642566796438667"><ele>725.5</ele><time>2026-04-10T13:15:32Z</time></trkpt><trkpt lat="43.84102551647306" lon="11.642668333453713"><ele>726.25</ele><time>2026-04-10T13:15:33Z</time></trkpt><trkpt lat="43.840952161688556" lon="11.64283375118825"><ele>727.0</ele><time>2026-04-10T13:15:34Z</time></trkpt><trkpt lat="43.840868126930445" lon="11.642985099856057"><ele>720.75</ele><time>2026-04-10T13:15:35Z</time></trkpt><trkpt lat="43.84079416819877" lon="11.64312889658424"><ele>714.5</ele><time>2026-04-10T13:15:36Z</time></trkpt><trkpt lat="43.84072170418993" lon="11.643267080598813"><ele>708.25</ele><time>2026-04-10T13:15:37Z</time></trkpt><trkpt lat="43.84065055027533" lon="11.643404629154837"><ele>702.0</ele><time>2026-04-10T13:15:38Z</time></trkpt><trkpt lat="43.84059868519596" lon="11.643559087906956"><ele>701.6666666666666</ele><time>2026-04-10T13:15:39Z</time></trkpt><trkpt lat="43.840576621703406" lon="11.643748079336346"><ele>701.3333333333333</ele><time>2026-04-10T13:15:40Z</time></trkpt><trkpt lat="43.840594118290376" lon="11.643962842431506"><ele>701.0</ele><time>2026-04-10T13:15:41Z</time></trkpt><trkpt lat="43.84061418923415" lon="11.644192424523213"><ele>701.0</ele><time>2026-04-10T13:15:42Z</time></trkpt><trkpt lat="43.84066254446174" lon="11.644413879925954"><ele>701.0</ele><time>2026-04-10T13:15:43Z</time></trkpt><trkpt lat="43.840691737333906" lon="11.644632199811333"><ele>701.0</ele><time>2026-04-10T13:15:44Z</time></trkpt><trkpt lat="43.840717154160295" lon="11.644840440749357"><ele>699.0</ele><time>2026-04-10T13:15:45Z</time></trkpt><trkpt lat="43.84074696497031" lon="11.64504286144843"><ele>697.0</ele><time>2026-04-10T13:15:46.001Z</time></trkpt><trkpt lat="43.84077633255281" lon="11.64523594240588"><ele>695.0</ele><time>2026-04-10T13:15:47.001Z</time></trkpt><trkpt lat="43.840800927305914" lon="11.645429572239195"><ele>693.0</ele><time>2026-04-10T13:15:48.001Z</time></trkpt><trkpt lat="43.84083393936443" lon="11.645621552258211"><ele>694.75</ele><time>2026-04-10T13:15:49.001Z</time></trkpt><trkpt lat="43.84090821798333" lon="11.645786012861976"><ele>696.5</ele><time>2026-04-10T13:15:50.001Z</time></trkpt><trkpt lat="43.84101272588434" lon="11.64593347357283"><ele>698.25</ele><time>2026-04-10T13:15:51.001Z</time></trkpt><trkpt lat="43.84111472555949" lon="11.64608787761601"><ele>700.0</ele><time>2026-04-10T13:15:52.001Z</time></trkpt><trkpt lat="43.84121755657178" lon="11.646225066262206"><ele>700.0</ele><time>2026-04-10T13:15:53.001Z</time></trkpt><trkpt lat="43.84130058658718" lon="11.6463864741603"><ele>700.0</ele><time>2026-04-10T13:15:54.001Z</time></trkpt><trkpt lat="43.84135639600738" lon="11.64656970953526"><ele>700.0</ele><time>2026-04-10T13:15:55.001Z</time></trkpt><trkpt lat="43.84136411088676" lon="11.646779909282843"><ele>700.0</ele><time>2026-04-10T13:15:56.001Z</time></trkpt><trkpt lat="43.84136495169783" lon="11.646986436892972"><ele>697.5</ele><time>2026-04-10T13:15:57.001Z</time></trkpt><trkpt lat="43.8413696424974" lon="11.647184615940091"><ele>695.0</ele><time>2026-04-10T13:15:58.001Z</time></trkpt><trkpt lat="43.84141134366226" lon="11.647382354982428"><ele>692.5</ele><time>2026-04-10T13:15:59.001Z</time></trkpt><trkpt lat="43.841464921433186" lon="11.647587143854281"><ele>690.0</ele><time>2026-04-10T13:16:00.001Z</time></trkpt><trkpt lat="43.841541921383616" lon="11.64778403424634"><ele>685.3333333333334</ele><time>2026-04-10T13:16:01.001Z</time></trkpt><trkpt lat="43.841622036022976" lon="11.647977693887354"><ele>680.6666666666667</ele><time>2026-04-10T13:16:02.001Z</time></trkpt><trkpt lat="43.84170825379949" lon="11.64815438840871"><ele>676.0</ele><time>2026-04-10T13:16:03.001Z</time></trkpt><trkpt lat="43.841755450848666" lon="11.648355307219564"><ele>683.0</ele><time>2026-04-10T13:16:04.001Z</time></trkpt><trkpt lat="43.841819219696305" lon="11.648556014796394"><ele>690.0</ele><time>2026-04-10T13:16:05.001Z</time></trkpt><trkpt lat="43.84185198554959" lon="11.648783258666167"><ele>697.0</ele><time>2026-04-10T13:16:06.001Z</time></trkpt><trkpt lat="43.84186682604788" lon="11.649016001683954"><ele>697.0</ele><time>2026-04-10T13:16:07.001Z</time></trkpt><trkpt lat="43.84185547585059" lon="11.649252590523536"><ele>697.0</ele><time>2026-04-10T13:16:08.001Z</time></trkpt><trkpt lat="43.84183163471682" lon="11.649483936173441"><ele>697.0</ele><time>2026-04-10T13:16:09.001Z</time></trkpt><trkpt lat="43.84180890167755" lon="11.649718335877242"><ele>686.0</ele><time>2026-04-10T13:16:10.001Z</time></trkpt><trkpt lat="43.84178839316428" lon="11.64995494684242"><ele>675.0</ele><time>2026-04-10T13:16:11.001Z</time></trkpt><trkpt lat="43.8417684121097" lon="11.650195062583332"><ele>664.0</ele><time>2026-04-10T13:16:12.001Z</time></trkpt><trkpt lat="43.8417462486008" lon="11.650436652687562"><ele>664.0</ele><time>2026-04-10T13:16:13.001Z</time></trkpt><trkpt lat="43.84172258666725" lon="11.650681693776042"><ele>664.0</ele><time>2026-04-10T13:16:14.001Z</time></trkpt><trkpt lat="43.841699971178365" lon="11.650931396815139"><ele>664.0</ele><time>2026-04-10T13:16:15.001Z</time></trkpt><trkpt lat="43.84167805151926" lon="11.651181080850167"><ele>663.0</ele><time>2026-04-10T13:16:16.001Z</time></trkpt><trkpt lat="43.84166183486493" lon="11.651425834307743"><ele>662.0</ele><time>2026-04-10T13:16:17.001Z</time></trkpt><trkpt lat="43.84164956735829" lon="11.65166090050122"><ele>661.0</ele><time>2026-04-10T13:16:18.001Z</time></trkpt><trkpt lat="43.84163795083656" lon="11.65189485647225"><ele>658.0</ele><time>2026-04-10T13:16:19.001Z</time></trkpt><trkpt lat="43.84162585938694" lon="11.652123674465631"><ele>655.0</ele><time>2026-04-10T13:16:20.001Z</time></trkpt><trkpt lat="43.84162632375273" lon="11.65234336474681"><ele>652.0</ele><time>2026-04-10T13:16:21.001Z</time></trkpt><trkpt lat="43.84167047942219" lon="11.652544722922286"><ele>652.0</ele><time>2026-04-10T13:16:22.001Z</time></trkpt><trkpt lat="43.84174644522104" lon="11.65271823752276"><ele>652.0</ele><time>2026-04-10T13:16:23.001Z</time></trkpt><trkpt lat="43.84180214621014" lon="11.652880407117566"><ele>652.0</ele><time>2026-04-10T13:16:24.001Z</time></trkpt><trkpt lat="43.841850390568176" lon="11.653011298058026"><ele>652.0</ele><time>2026-04-10T13:16:25.001Z</time></trkpt><trkpt lat="43.84185759388142" lon="11.653145844825973"><ele>651.2</ele><time>2026-04-10T13:16:26.001Z</time></trkpt><trkpt lat="43.84181219114293" lon="11.653284561045412"><ele>650.4000000000001</ele><time>2026-04-10T13:16:27.001Z</time></trkpt><trkpt lat="43.84173374359028" lon="11.653390079055402"><ele>649.5999999999999</ele><time>2026-04-10T13:16:28.001Z</time></trkpt><trkpt lat="43.84163619228814" lon="11.653449198073503"><ele>648.8</ele><time>2026-04-10T13:16:29.001Z</time></trkpt><trkpt lat="43.84151979811136" lon="11.653483375218809"><ele>648.0</ele><time>2026-04-10T13:16:30.001Z</time></trkpt><trkpt lat="43.84139655749293" lon="11.653533549027339"><ele>648.0</ele><time>2026-04-10T13:16:31.001Z</time></trkpt><trkpt lat="43.84126514707319" lon="11.653609042096308"><ele>648.0</ele><time>2026-04-10T13:16:32.001Z</time></trkpt><trkpt lat="43.84115063754494" lon="11.653733550854263"><ele>648.0</ele><time>2026-04-10T13:16:33.001Z</time></trkpt><trkpt lat="43.84104457247603" lon="11.653900707211513"><ele>648.0</ele><time>2026-04-10T13:16:34.001Z</time></trkpt><trkpt lat="43.8409381961241" lon="11.654059641231587"><ele>646.0</ele><time>2026-04-10T13:16:35.001Z</time></trkpt><trkpt lat="43.84083066866962" lon="11.654199684573845"><ele>644.0</ele><time>2026-04-10T13:16:36.001Z</time></trkpt><trkpt lat="43.840727139031344" lon="11.654336226963201"><ele>642.0</ele><time>2026-04-10T13:16:37.001Z</time></trkpt><trkpt lat="43.84062483592305" lon="11.654471111263467"><ele>640.0</ele><time>2026-04-10T13:16:38.001Z</time></trkpt><trkpt lat="43.840526954521124" lon="11.654607600727006"><ele>645.75</ele><time>2026-04-10T13:16:39.001Z</time></trkpt><trkpt lat="43.84043931190992" lon="11.654762379037614"><ele>651.5</ele><time>2026-04-10T13:16:40.001Z</time></trkpt><trkpt lat="43.840359219027484" lon="11.654936013637183"><ele>657.25</ele><time>2026-04-10T13:16:41.001Z</time></trkpt><trkpt lat="43.84027448227064" lon="11.655114887577868"><ele>663.0</ele><time>2026-04-10T13:16:42.001Z</time></trkpt><trkpt lat="43.840181661577425" lon="11.655291978793343"><ele>658.0</ele><time>2026-04-10T13:16:43.001Z</time></trkpt><trkpt lat="43.84008971046934" lon="11.655455005426887"><ele>653.0</ele><time>2026-04-10T13:16:44.001Z</time></trkpt><trkpt lat="43.83998379678337" lon="11.655593795347254"><ele>648.0</ele><time>2026-04-10T13:16:45.001Z</time></trkpt><trkpt lat="43.83984853966557" lon="11.655703053206002"><ele>648.0</ele><time>2026-04-10T13:16:46.001Z</time></trkpt><trkpt lat="43.839683403177254" lon="11.655763005943358"><ele>648.0</ele><time>2026-04-10T13:16:47.001Z</time></trkpt><trkpt lat="43.839513489286254" lon="11.655786648401259"><ele>648.0</ele><time>2026-04-10T13:16:48.001Z</time></trkpt><trkpt lat="43.83934193433022" lon="11.65579452255376"><ele>644.3333333333334</ele><time>2026-04-10T13:16:49.001Z</time></trkpt><trkpt lat="43.839179385433894" lon="11.655792974145344"><ele>640.6666666666667</ele><time>2026-04-10T13:16:50.001Z</time></trkpt><trkpt lat="43.83901836348228" lon="11.655798403814092"><ele>637.0</ele><time>2026-04-10T13:16:51.001Z</time></trkpt><trkpt lat="43.83885899299444" lon="11.655799519534032"><ele>637.0</ele><time>2026-04-10T13:16:52.001Z</time></trkpt><trkpt lat="43.83869593261092" lon="11.655797614721502"><ele>637.0</ele><time>2026-04-10T13:16:53.001Z</time></trkpt><trkpt lat="43.83853939806252" lon="11.655797023384967"><ele>637.0</ele><time>2026-04-10T13:16:54.001Z</time></trkpt><trkpt lat="43.838383114830876" lon="11.655798993852791"><ele>634.0</ele><time>2026-04-10T13:16:55.001Z</time></trkpt><trkpt lat="43.83823427894418" lon="11.655809842763702"><ele>631.0</ele><time>2026-04-10T13:16:56.001Z</time></trkpt><trkpt lat="43.83809606849048" lon="11.655861832917806"><ele>628.0</ele><time>2026-04-10T13:16:57.001Z</time></trkpt><trkpt lat="43.83797133344313" lon="11.655961047397845"><ele>625.0</ele><time>2026-04-10T13:16:58.001Z</time></trkpt><trkpt lat="43.8378675383337" lon="11.656101373197545"><ele>624.0</ele><time>2026-04-10T13:16:59.001Z</time></trkpt><trkpt lat="43.83778202780981" lon="11.656291987549396"><ele>623.0</ele><time>2026-04-10T13:17:00.001Z</time></trkpt><trkpt lat="43.83769739390267" lon="11.656507424534945"><ele>622.0</ele><time>2026-04-10T13:17:01.001Z</time></trkpt><trkpt lat="43.83760864944883" lon="11.65671580158775"><ele>622.0</ele><time>2026-04-10T13:17:02.001Z</time></trkpt><trkpt lat="43.83752344218888" lon="11.656907486638078"><ele>622.0</ele><time>2026-04-10T13:17:03.001Z</time></trkpt><trkpt lat="43.837439165002586" lon="11.6570985863666"><ele>622.0</ele><time>2026-04-10T13:17:04.001Z</time></trkpt><trkpt lat="43.83735454219844" lon="11.657292980602811"><ele>624.25</ele><time>2026-04-10T13:17:05.001Z</time></trkpt><trkpt lat="43.83727770747917" lon="11.657471199186165"><ele>626.5</ele><time>2026-04-10T13:17:06.001Z</time></trkpt><trkpt lat="43.83720479655225" lon="11.657646054494146"><ele>628.75</ele><time>2026-04-10T13:17:07Z</time></trkpt><trkpt lat="43.837131621386575" lon="11.657815183206377"><ele>631.0</ele><time>2026-04-10T13:17:08Z</time></trkpt><trkpt lat="43.837045877231155" lon="11.657965723793529"><ele>629.0</ele><time>2026-04-10T13:17:09Z</time></trkpt><trkpt lat="43.8369309848791" lon="11.658071743438759"><ele>627.0</ele><time>2026-04-10T13:17:10Z</time></trkpt><trkpt lat="43.83679150909113" lon="11.65814096763548"><ele>625.0</ele><time>2026-04-10T13:17:11Z</time></trkpt><trkpt lat="43.8366427625144" lon="11.658198250758044"><ele>623.0</ele><time>2026-04-10T13:17:12Z</time></trkpt><trkpt lat="43.836483763765195" lon="11.658246911012393"><ele>623.0</ele><time>2026-04-10T13:17:13Z</time></trkpt><trkpt lat="43.83632284943566" lon="11.658295719124709"><ele>623.0</ele><time>2026-04-10T13:17:14Z</time></trkpt><trkpt lat="43.83617445553553" lon="11.658341509887881"><ele>623.0</ele><time>2026-04-10T13:17:15Z</time></trkpt><trkpt lat="43.83603109525711" lon="11.658384093531355"><ele>624.75</ele><time>2026-04-10T13:17:16Z</time></trkpt><trkpt lat="43.83588293340207" lon="11.658428145515687"><ele>626.5</ele><time>2026-04-10T13:17:17Z</time></trkpt><trkpt lat="43.83574008154297" lon="11.658474629794732"><ele>628.25</ele><time>2026-04-10T13:17:18Z</time></trkpt><trkpt lat="43.83560625698601" lon="11.658542662470246"><ele>630.0</ele><time>2026-04-10T13:17:19Z</time></trkpt><trkpt lat="43.835483707825496" lon="11.658666371031138"><ele>630.0</ele><time>2026-04-10T13:17:20Z</time></trkpt><trkpt lat="43.83537523876522" lon="11.658832420819444"><ele>630.0</ele><time>2026-04-10T13:17:21Z</time></trkpt><trkpt lat="43.83527017095287" lon="11.658999699459539"><ele>630.0</ele><time>2026-04-10T13:17:22Z</time></trkpt><trkpt lat="43.83515198646242" lon="11.659134315350238"><ele>624.0</ele><time>2026-04-10T13:17:23Z</time></trkpt><trkpt lat="43.83501449295485" lon="11.659223826859726"><ele>618.0</ele><time>2026-04-10T13:17:24Z</time></trkpt><trkpt lat="43.834858088794306" lon="11.659257627481749"><ele>612.0</ele><time>2026-04-10T13:17:25Z</time></trkpt><trkpt lat="43.834698264773316" lon="11.659235911066455"><ele>612.0</ele><time>2026-04-10T13:17:26Z</time></trkpt><trkpt lat="43.834545616475445" lon="11.659191108256387"><ele>612.0</ele><time>2026-04-10T13:17:27Z</time></trkpt><trkpt lat="43.83439472986686" lon="11.659156896610739"><ele>612.0</ele><time>2026-04-10T13:17:28Z</time></trkpt><trkpt lat="43.83425034496898" lon="11.659144967497541"><ele>609.6666666666666</ele><time>2026-04-10T13:17:29Z</time></trkpt><trkpt lat="43.83409951369316" lon="11.659171078411168"><ele>607.3333333333333</ele><time>2026-04-10T13:17:30Z</time></trkpt><trkpt lat="43.83395156118235" lon="11.659228933136395"><ele>605.0</ele><time>2026-04-10T13:17:31Z</time></trkpt><trkpt lat="43.83380977172691" lon="11.659277399596686"><ele>605.0</ele><time>2026-04-10T13:17:32Z</time></trkpt><trkpt lat="43.83366660052823" lon="11.659321195353389"><ele>605.0</ele><time>2026-04-10T13:17:33Z</time></trkpt><trkpt lat="43.83351710466731" lon="11.659367273663536"><ele>605.0</ele><time>2026-04-10T13:17:34Z</time></trkpt><trkpt lat="43.83336937549741" lon="11.659414917353974"><ele>607.75</ele><time>2026-04-10T13:17:35Z</time></trkpt><trkpt lat="43.833231176734365" lon="11.659459937941847"><ele>610.5</ele><time>2026-04-10T13:17:36Z</time></trkpt><trkpt lat="43.833091447366314" lon="11.65950124444349"><ele>613.25</ele><time>2026-04-10T13:17:37Z</time></trkpt><trkpt lat="43.83294992160156" lon="11.659544804444788"><ele>616.0</ele><time>2026-04-10T13:17:38Z</time></trkpt><trkpt lat="43.83280784907666" lon="11.659591207473161"><ele>616.0</ele><time>2026-04-10T13:17:39Z</time></trkpt><trkpt lat="43.83266872218589" lon="11.659637706699417"><ele>616.0</ele><time>2026-04-10T13:17:40Z</time></trkpt><trkpt lat="43.83253346815221" lon="11.659683213848037"><ele>616.0</ele><time>2026-04-10T13:17:41Z</time></trkpt><trkpt lat="43.832400691104255" lon="11.659722430684262"><ele>616.0</ele><time>2026-04-10T13:17:42Z</time></trkpt><trkpt lat="43.83226815154213" lon="11.659733720813174"><ele>613.75</ele><time>2026-04-10T13:17:43Z</time></trkpt><trkpt lat="43.83213856713899" lon="11.659707251566566"><ele>611.5</ele><time>2026-04-10T13:17:44Z</time></trkpt><trkpt lat="43.832022533066194" lon="11.659639047450847"><ele>609.25</ele><time>2026-04-10T13:17:45Z</time></trkpt><trkpt lat="43.83192591224906" lon="11.659543547631545"><ele>607.0</ele><time>2026-04-10T13:17:46Z</time></trkpt><trkpt lat="43.831834049923735" lon="11.65944432522176"><ele>605.5</ele><time>2026-04-10T13:17:47Z</time></trkpt><trkpt lat="43.83173359698449" lon="11.6593372008494"><ele>604.0</ele><time>2026-04-10T13:17:48Z</time></trkpt><trkpt lat="43.831623586275775" lon="11.659230575207927"><ele>602.5</ele><time>2026-04-10T13:17:49Z</time></trkpt><trkpt lat="43.8315217732422" lon="11.659139598621687"><ele>601.0</ele><time>2026-04-10T13:17:50Z</time></trkpt><trkpt lat="43.83142073024406" lon="11.65906460453729"><ele>601.0</ele><time>2026-04-10T13:17:51Z</time></trkpt><trkpt lat="43.83130720176554" lon="11.659016989304346"><ele>601.0</ele><time>2026-04-10T13:17:52Z</time></trkpt><trkpt lat="43.83117954365353" lon="11.65900931806339"><ele>601.0</ele><time>2026-04-10T13:17:53.001Z</time></trkpt><trkpt lat="43.831041724086" lon="11.659036051888796"><ele>601.0</ele><time>2026-04-10T13:17:54.001Z</time></trkpt><trkpt lat="43.830907510955164" lon="11.65907510962953"><ele>602.5</ele><time>2026-04-10T13:17:55.001Z</time></trkpt><trkpt lat="43.83077052183919" lon="11.6590919925235"><ele>604.0</ele><time>2026-04-10T13:17:56.001Z</time></trkpt><trkpt lat="43.83064233275495" lon="11.659079192539963"><ele>605.5</ele><time>2026-04-10T13:17:57.001Z</time></trkpt><trkpt lat="43.830523894453755" lon="11.659040412716704"><ele>607.0</ele><time>2026-04-10T13:17:58.001Z</time></trkpt><trkpt lat="43.83041321833506" lon="11.658993993309503"><ele>607.0</ele><time>2026-04-10T13:17:59.001Z</time></trkpt><trkpt lat="43.83030155270686" lon="11.658992678001871"><ele>607.0</ele><time>2026-04-10T13:18:00.001Z</time></trkpt><trkpt lat="43.830194646350414" lon="11.659062575169084"><ele>607.0</ele><time>2026-04-10T13:18:01.001Z</time></trkpt><trkpt lat="43.83009120232806" lon="11.659176616049935"><ele>607.0</ele><time>2026-04-10T13:18:02.001Z</time></trkpt><trkpt lat="43.82998285330845" lon="11.659295951873272"><ele>603.75</ele><time>2026-04-10T13:18:03.001Z</time></trkpt><trkpt lat="43.82988911830726" lon="11.659401925190837"><ele>600.5</ele><time>2026-04-10T13:18:04.001Z</time></trkpt><trkpt lat="43.82979055781189" lon="11.659495336286513"><ele>597.25</ele><time>2026-04-10T13:18:05.001Z</time></trkpt><trkpt lat="43.82968570065462" lon="11.65956679670226"><ele>594.0</ele><time>2026-04-10T13:18:06.001Z</time></trkpt><trkpt lat="43.82958091555029" lon="11.659611096162285"><ele>594.0</ele><time>2026-04-10T13:18:07.001Z</time></trkpt><trkpt lat="43.82948210734787" lon="11.65961523328241"><ele>594.0</ele><time>2026-04-10T13:18:08.001Z</time></trkpt><trkpt lat="43.82938198573592" lon="11.659589834708248"><ele>594.0</ele><time>2026-04-10T13:18:09.001Z</time></trkpt><trkpt lat="43.829282084167936" lon="11.659522343333055"><ele>594.0</ele><time>2026-04-10T13:18:10.001Z</time></trkpt><trkpt lat="43.82919308057638" lon="11.659419860921451"><ele>594.0</ele><time>2026-04-10T13:18:11.001Z</time></trkpt><trkpt lat="43.829107775558526" lon="11.659304622543953"><ele>594.0</ele><time>2026-04-10T13:18:12.001Z</time></trkpt><trkpt lat="43.82901219280965" lon="11.659197920852847"><ele>594.0</ele><time>2026-04-10T13:18:13.001Z</time></trkpt><trkpt lat="43.82888695373278" lon="11.659121555410305"><ele>594.0</ele><time>2026-04-10T13:18:14.001Z</time></trkpt><trkpt lat="43.82874161146428" lon="11.659080441816284"><ele>594.0</ele><time>2026-04-10T13:18:15.001Z</time></trkpt><trkpt lat="43.82857849992431" lon="11.6590724569808"><ele>596.6666666666666</ele><time>2026-04-10T13:18:16.001Z</time></trkpt><trkpt lat="43.82841493829687" lon="11.659074933716827"><ele>599.3333333333333</ele><time>2026-04-10T13:18:17.001Z</time></trkpt><trkpt lat="43.82825083110321" lon="11.659074207098229"><ele>602.0</ele><time>2026-04-10T13:18:18.001Z</time></trkpt><trkpt lat="43.828089748451035" lon="11.659065392869278"><ele>602.0</ele><time>2026-04-10T13:18:19.001Z</time></trkpt><trkpt lat="43.82793348332758" lon="11.659057228560098"><ele>602.0</ele><time>2026-04-10T13:18:20.001Z</time></trkpt><trkpt lat="43.82778522840248" lon="11.659055349804289"><ele>602.0</ele><time>2026-04-10T13:18:21.001Z</time></trkpt><trkpt lat="43.827645994397926" lon="11.659055452081192"><ele>602.0</ele><time>2026-04-10T13:18:22.001Z</time></trkpt><trkpt lat="43.82751373018923" lon="11.65904775758174"><ele>602.75</ele><time>2026-04-10T13:18:23.001Z</time></trkpt><trkpt lat="43.82738679513994" lon="11.659018185980397"><ele>603.5</ele><time>2026-04-10T13:18:24.001Z</time></trkpt><trkpt lat="43.82726714041096" lon="11.658963775092372"><ele>604.25</ele><time>2026-04-10T13:18:25.001Z</time></trkpt><trkpt lat="43.827146875202025" lon="11.658898146720635"><ele>605.0</ele><time>2026-04-10T13:18:26.001Z</time></trkpt><trkpt lat="43.82702414126041" lon="11.658827180937651"><ele>605.0</ele><time>2026-04-10T13:18:27.001Z</time></trkpt><trkpt lat="43.82690429250765" lon="11.658757875260912"><ele>605.0</ele><time>2026-04-10T13:18:28.001Z</time></trkpt><trkpt lat="43.82678709887762" lon="11.658701285565279"><ele>605.0</ele><time>2026-04-10T13:18:29.001Z</time></trkpt><trkpt lat="43.826671972315886" lon="11.658661656681057"><ele>605.0</ele><time>2026-04-10T13:18:30.001Z</time></trkpt><trkpt lat="43.82655559760604" lon="11.658658428806108"><ele>605.25</ele><time>2026-04-10T13:18:31.001Z</time></trkpt><trkpt lat="43.82643311903974" lon="11.658701288965132"><ele>605.5</ele><time>2026-04-10T13:18:32.001Z</time></trkpt><trkpt lat="43.82631094428253" lon="11.6588000951571"><ele>605.75</ele><time>2026-04-10T13:18:33.001Z</time></trkpt><trkpt lat="43.82619505693522" lon="11.658930524589337"><ele>606.0</ele><time>2026-04-10T13:18:34.001Z</time></trkpt><trkpt lat="43.82610508609712" lon="11.659088902609787"><ele>606.0</ele><time>2026-04-10T13:18:35.001Z</time></trkpt><trkpt lat="43.82604778097822" lon="11.659268300018544"><ele>606.0</ele><time>2026-04-10T13:18:36.001Z</time></trkpt><trkpt lat="43.82600918436577" lon="11.65946487638715"><ele>606.0</ele><time>2026-04-10T13:18:37.001Z</time></trkpt><trkpt lat="43.82597554065103" lon="11.65967189586538"><ele>606.0</ele><time>2026-04-10T13:18:38.001Z</time></trkpt><trkpt lat="43.82593920974192" lon="11.659869039903088"><ele>605.5</ele><time>2026-04-10T13:18:39.001Z</time></trkpt><trkpt lat="43.82590058653941" lon="11.660056924822774"><ele>605.0</ele><time>2026-04-10T13:18:40.001Z</time></trkpt><trkpt lat="43.825861115663336" lon="11.660239937328305"><ele>604.5</ele><time>2026-04-10T13:18:41.001Z</time></trkpt><trkpt lat="43.825808071123326" lon="11.660408776204195"><ele>604.0</ele><time>2026-04-10T13:18:42.001Z</time></trkpt><trkpt lat="43.82573927935584" lon="11.660563616221536"><ele>604.0</ele><time>2026-04-10T13:18:43.001Z</time></trkpt><trkpt lat="43.82564675146215" lon="11.660701777181764"><ele>604.0</ele><time>2026-04-10T13:18:44.001Z</time></trkpt><trkpt lat="43.82553639327298" lon="11.660826138389382"><ele>604.0</ele><time>2026-04-10T13:18:45.001Z</time></trkpt><trkpt lat="43.82542003310183" lon="11.660946342319685"><ele>604.0</ele><time>2026-04-10T13:18:46.001Z</time></trkpt><trkpt lat="43.825299724755645" lon="11.661068541532499"><ele>601.3333333333334</ele><time>2026-04-10T13:18:47.001Z</time></trkpt><trkpt lat="43.8251736922731" lon="11.66119781211781"><ele>598.6666666666666</ele><time>2026-04-10T13:18:48.001Z</time></trkpt><trkpt lat="43.82504451154128" lon="11.66133234559534"><ele>596.0</ele><time>2026-04-10T13:18:49.001Z</time></trkpt><trkpt lat="43.824914379984" lon="11.66146682751167"><ele>596.0</ele><time>2026-04-10T13:18:50.001Z</time></trkpt><trkpt lat="43.82478800607259" lon="11.66159914800556"><ele>596.0</ele><time>2026-04-10T13:18:51.001Z</time></trkpt><trkpt lat="43.824664285433485" lon="11.661727446094893"><ele>596.0</ele><time>2026-04-10T13:18:52.001Z</time></trkpt><trkpt lat="43.824559153988275" lon="11.66186202033656"><ele>598.5</ele><time>2026-04-10T13:18:53.001Z</time></trkpt><trkpt lat="43.824483684596075" lon="11.662021519380025"><ele>601.0</ele><time>2026-04-10T13:18:54.001Z</time></trkpt><trkpt lat="43.8244400679845" lon="11.662209172318823"><ele>603.5</ele><time>2026-04-10T13:18:55.001Z</time></trkpt><trkpt lat="43.82441169843722" lon="11.662401086496445"><ele>606.0</ele><time>2026-04-10T13:18:56.001Z</time></trkpt><trkpt lat="43.824362270062764" lon="11.662574006965425"><ele>606.0</ele><time>2026-04-10T13:18:57.001Z</time></trkpt><trkpt lat="43.82432254353283" lon="11.662745037131867"><ele>606.0</ele><time>2026-04-10T13:18:58.001Z</time></trkpt><trkpt lat="43.82425883641325" lon="11.662889035607726"><ele>606.0</ele><time>2026-04-10T13:18:59.001Z</time></trkpt><trkpt lat="43.82416059905399" lon="11.663002050007314"><ele>606.0</ele><time>2026-04-10T13:19:00.001Z</time></trkpt><trkpt lat="43.82404052260232" lon="11.663073204898827"><ele>606.3333333333334</ele><time>2026-04-10T13:19:01.001Z</time></trkpt><trkpt lat="43.82389736148545" lon="11.663099402288964"><ele>606.6666666666667</ele><time>2026-04-10T13:19:02.001Z</time></trkpt><trkpt lat="43.82374665166704" lon="11.663135868485522"><ele>607.0</ele><time>2026-04-10T13:19:03.001Z</time></trkpt><trkpt lat="43.82358814796936" lon="11.663153371783178"><ele>605.0</ele><time>2026-04-10T13:19:04.001Z</time></trkpt><trkpt lat="43.82342927367584" lon="11.663177119560956"><ele>603.0</ele><time>2026-04-10T13:19:05.001Z</time></trkpt><trkpt lat="43.82327415319013" lon="11.663198003528489"><ele>601.0</ele><time>2026-04-10T13:19:06.001Z</time></trkpt><trkpt lat="43.82312054832068" lon="11.663217476206015"><ele>601.0</ele><time>2026-04-10T13:19:07.001Z</time></trkpt><trkpt lat="43.82296182924243" lon="11.663243822556877"><ele>601.0</ele><time>2026-04-10T13:19:08.001Z</time></trkpt><trkpt lat="43.8228005994424" lon="11.66325106673271"><ele>601.0</ele><time>2026-04-10T13:19:09.001Z</time></trkpt><trkpt lat="43.82264362385605" lon="11.663294037990248"><ele>596.6666666666667</ele><time>2026-04-10T13:19:10.001Z</time></trkpt><trkpt lat="43.822494492376094" lon="11.66331214564352"><ele>592.3333333333334</ele><time>2026-04-10T13:19:11.001Z</time></trkpt><trkpt lat="43.82235245834948" lon="11.663364063748965"><ele>588.0</ele><time>2026-04-10T13:19:12.001Z</time></trkpt><trkpt lat="43.82220701360946" lon="11.663440870942669"><ele>588.0</ele><time>2026-04-10T13:19:13Z</time></trkpt><trkpt lat="43.822068279529866" lon="11.663540265238286"><ele>588.0</ele><time>2026-04-10T13:19:14Z</time></trkpt><trkpt lat="43.82194128549853" lon="11.663625938747725"><ele>588.0</ele><time>2026-04-10T13:19:15Z</time></trkpt><trkpt lat="43.82183381882598" lon="11.663757751764932"><ele>588.0</ele><time>2026-04-10T13:19:16Z</time></trkpt><trkpt lat="43.821734944587234" lon="11.663909344260912"><ele>589.3333333333334</ele><time>2026-04-10T13:19:17Z</time></trkpt><trkpt lat="43.821642362676776" lon="11.664101859702349"><ele>590.6666666666667</ele><time>2026-04-10T13:19:18Z</time></trkpt><trkpt lat="43.8215707302179" lon="11.664303345600926"><ele>592.0</ele><time>2026-04-10T13:19:19Z</time></trkpt><trkpt lat="43.82150473244589" lon="11.664492203501359"><ele>597.25</ele><time>2026-04-10T13:19:20Z</time></trkpt><trkpt lat="43.821440134722536" lon="11.664665902137884"><ele>602.5</ele><time>2026-04-10T13:19:21Z</time></trkpt><trkpt lat="43.8213632492434" lon="11.664819847811044"><ele>607.75</ele><time>2026-04-10T13:19:22Z</time></trkpt><trkpt lat="43.82125755089861" lon="11.6649144683116"><ele>613.0</ele><time>2026-04-10T13:19:23Z</time></trkpt><trkpt lat="43.821132324766296" lon="11.664967285880188"><ele>613.0</ele><time>2026-04-10T13:19:24Z</time></trkpt><trkpt lat="43.82100476939333" lon="11.664964071420044"><ele>613.0</ele><time>2026-04-10T13:19:25Z</time></trkpt><trkpt lat="43.820884380387554" lon="11.664882430992913"><ele>613.0</ele><time>2026-04-10T13:19:26Z</time></trkpt><trkpt lat="43.82076949356626" lon="11.664759791778776"><ele>613.0</ele><time>2026-04-10T13:19:27Z</time></trkpt><trkpt lat="43.82066732896501" lon="11.664647433645346"><ele>610.0</ele><time>2026-04-10T13:19:28Z</time></trkpt><trkpt lat="43.82056404050008" lon="11.6645491123446"><ele>607.0</ele><time>2026-04-10T13:19:29Z</time></trkpt><trkpt lat="43.8204393028658" lon="11.66449985225658"><ele>604.0</ele><time>2026-04-10T13:19:30Z</time></trkpt><trkpt lat="43.82030821412617" lon="11.664493458118752"><ele>601.0</ele><time>2026-04-10T13:19:31Z</time></trkpt><trkpt lat="43.820186203991234" lon="11.664539926417737"><ele>597.0</ele><time>2026-04-10T13:19:32Z</time></trkpt><trkpt lat="43.82006865650328" lon="11.664615124616013"><ele>593.0</ele><time>2026-04-10T13:19:33Z</time></trkpt><trkpt lat="43.819969997241714" lon="11.664767783767136"><ele>589.0</ele><time>2026-04-10T13:19:34Z</time></trkpt><trkpt lat="43.819899392239755" lon="11.664951576655072"><ele>585.0</ele><time>2026-04-10T13:19:35Z</time></trkpt><trkpt lat="43.819842216050546" lon="11.665126705140315"><ele>588.5</ele><time>2026-04-10T13:19:36Z</time></trkpt><trkpt lat="43.819784316750884" lon="11.665315149637628"><ele>592.0</ele><time>2026-04-10T13:19:37Z</time></trkpt><trkpt lat="43.8197138769236" lon="11.665495997842934"><ele>595.5</ele><time>2026-04-10T13:19:38Z</time></trkpt><trkpt lat="43.81963073375959" lon="11.665642129585498"><ele>599.0</ele><time>2026-04-10T13:19:39Z</time></trkpt><trkpt lat="43.81954297406863" lon="11.665783762143555"><ele>599.0</ele><time>2026-04-10T13:19:40Z</time></trkpt><trkpt lat="43.81945886831706" lon="11.665921737307851"><ele>599.0</ele><time>2026-04-10T13:19:41Z</time></trkpt><trkpt lat="43.81937804254733" lon="11.666062654252174"><ele>599.0</ele><time>2026-04-10T13:19:42Z</time></trkpt><trkpt lat="43.81931655340086" lon="11.66621632487807"><ele>599.0</ele><time>2026-04-10T13:19:43Z</time></trkpt><trkpt lat="43.81931428298988" lon="11.666390203548684"><ele>600.5</ele><time>2026-04-10T13:19:44Z</time></trkpt><trkpt lat="43.81931781115467" lon="11.66656181847661"><ele>602.0</ele><time>2026-04-10T13:19:45Z</time></trkpt><trkpt lat="43.819339725851165" lon="11.666743190271692"><ele>603.5</ele><time>2026-04-10T13:19:46Z</time></trkpt><trkpt lat="43.819344369955076" lon="11.666939299506806"><ele>605.0</ele><time>2026-04-10T13:19:47Z</time></trkpt><trkpt lat="43.819365316742896" lon="11.667138510446751"><ele>605.0</ele><time>2026-04-10T13:19:48Z</time></trkpt><trkpt lat="43.81939966209428" lon="11.66732483405334"><ele>605.0</ele><time>2026-04-10T13:19:49Z</time></trkpt><trkpt lat="43.81941630689574" lon="11.66750428824085"><ele>605.0</ele><time>2026-04-10T13:19:50Z</time></trkpt><trkpt lat="43.819433657117784" lon="11.667684150628231"><ele>605.0</ele><time>2026-04-10T13:19:51Z</time></trkpt><trkpt lat="43.81944511971819" lon="11.66785916572942"><ele>603.25</ele><time>2026-04-10T13:19:52Z</time></trkpt><trkpt lat="43.81942385251564" lon="11.66803362472163"><ele>601.5</ele><time>2026-04-10T13:19:53Z</time></trkpt><trkpt lat="43.81935583684893" lon="11.668203857144489"><ele>599.75</ele><time>2026-04-10T13:19:54Z</time></trkpt><trkpt lat="43.819259510332365" lon="11.668351034138364"><ele>598.0</ele><time>2026-04-10T13:19:55Z</time></trkpt><trkpt lat="43.819145716575605" lon="11.668492431908405"><ele>597.75</ele><time>2026-04-10T13:19:56Z</time></trkpt><trkpt lat="43.81903162325266" lon="11.668631107410027"><ele>597.5</ele><time>2026-04-10T13:19:57Z</time></trkpt><trkpt lat="43.81891818677666" lon="11.668748471136974"><ele>597.25</ele><time>2026-04-10T13:19:58Z</time></trkpt><trkpt lat="43.81879261455098" lon="11.668832874706144"><ele>597.0</ele><time>2026-04-10T13:19:59Z</time></trkpt><trkpt lat="43.818640541005415" lon="11.668860813789873"><ele>594.0</ele><time>2026-04-10T13:20:00Z</time></trkpt><trkpt lat="43.81848245312271" lon="11.668852547668088"><ele>591.0</ele><time>2026-04-10T13:20:01Z</time></trkpt><trkpt lat="43.8183241901617" lon="11.668827282862368"><ele>588.0</ele><time>2026-04-10T13:20:02Z</time></trkpt><trkpt lat="43.818181345916116" lon="11.668810886882572"><ele>588.0</ele><time>2026-04-10T13:20:03Z</time></trkpt><trkpt lat="43.818045384518065" lon="11.668814690844593"><ele>588.0</ele><time>2026-04-10T13:20:04Z</time></trkpt><trkpt lat="43.81791695715179" lon="11.668867554521348"><ele>588.0</ele><time>2026-04-10T13:20:05Z</time></trkpt><trkpt lat="43.81781414628694" lon="11.668981930090919"><ele>588.0</ele><time>2026-04-10T13:20:06Z</time></trkpt><trkpt lat="43.81773936036232" lon="11.669151625713829"><ele>588.0</ele><time>2026-04-10T13:20:07Z</time></trkpt><trkpt lat="43.81770000287489" lon="11.669359907999313"><ele>588.0</ele><time>2026-04-10T13:20:08Z</time></trkpt><trkpt lat="43.81766919512433" lon="11.669592278178799"><ele>588.0</ele><time>2026-04-10T13:20:09Z</time></trkpt><trkpt lat="43.817638583863065" lon="11.669833796681129"><ele>585.0</ele><time>2026-04-10T13:20:10.001Z</time></trkpt><trkpt lat="43.8176024454109" lon="11.67007863826746"><ele>582.0</ele><time>2026-04-10T13:20:11.001Z</time></trkpt><trkpt lat="43.81756579280572" lon="11.670315672045497"><ele>579.0</ele><time>2026-04-10T13:20:12.001Z</time></trkpt><trkpt lat="43.817533247481535" lon="11.670539974974545"><ele>579.0</ele><time>2026-04-10T13:20:13.001Z</time></trkpt><trkpt lat="43.817504791108384" lon="11.670753635967499"><ele>579.0</ele><time>2026-04-10T13:20:14.001Z</time></trkpt><trkpt lat="43.817475458961546" lon="11.670963063775517"><ele>579.0</ele><time>2026-04-10T13:20:15.001Z</time></trkpt><trkpt lat="43.81743785267932" lon="11.67115790872829"><ele>581.75</ele><time>2026-04-10T13:20:16.001Z</time></trkpt><trkpt lat="43.81737843624389" lon="11.671327707800359"><ele>584.5</ele><time>2026-04-10T13:20:17.001Z</time></trkpt><trkpt lat="43.81730965669862" lon="11.671483319529512"><ele>587.25</ele><time>2026-04-10T13:20:18.001Z</time></trkpt><trkpt lat="43.81724091443948" lon="11.671636917670039"><ele>590.0</ele><time>2026-04-10T13:20:19.001Z</time></trkpt><trkpt lat="43.817188870783276" lon="11.6717906792206"><ele>589.75</ele><time>2026-04-10T13:20:20.001Z</time></trkpt><trkpt lat="43.81716453100026" lon="11.67195511725013"><ele>589.5</ele><time>2026-04-10T13:20:21.001Z</time></trkpt><trkpt lat="43.817178563363" lon="11.672127809372304"><ele>589.25</ele><time>2026-04-10T13:20:22.001Z</time></trkpt><trkpt lat="43.817229055379336" lon="11.67230858384212"><ele>589.0</ele><time>2026-04-10T13:20:23.001Z</time></trkpt><trkpt lat="43.81729005601196" lon="11.672483645336303"><ele>589.0</ele><time>2026-04-10T13:20:24.001Z</time></trkpt><trkpt lat="43.81733179925358" lon="11.672664059446078"><ele>589.0</ele><time>2026-04-10T13:20:25.001Z</time></trkpt><trkpt lat="43.81738323433975" lon="11.672825664422989"><ele>589.0</ele><time>2026-04-10T13:20:26.001Z</time></trkpt><trkpt lat="43.8174534432667" lon="11.672972215701021"><ele>589.0</ele><time>2026-04-10T13:20:27.001Z</time></trkpt><trkpt lat="43.817495305881124" lon="11.673122983753343"><ele>588.0</ele><time>2026-04-10T13:20:28.001Z</time></trkpt><trkpt lat="43.817501513088075" lon="11.673285881274099"><ele>587.0</ele><time>2026-04-10T13:20:29.001Z</time></trkpt><trkpt lat="43.81746930502759" lon="11.673456137615826"><ele>586.0</ele><time>2026-04-10T13:20:30.001Z</time></trkpt><trkpt lat="43.817397931769754" lon="11.673618106901921"><ele>585.0</ele><time>2026-04-10T13:20:31.001Z</time></trkpt><trkpt lat="43.81733101874714" lon="11.673780941530886"><ele>587.0</ele><time>2026-04-10T13:20:32.001Z</time></trkpt><trkpt lat="43.81727332964068" lon="11.673930569822739"><ele>589.0</ele><time>2026-04-10T13:20:33.001Z</time></trkpt><trkpt lat="43.817220987421514" lon="11.67408181375232"><ele>591.0</ele><time>2026-04-10T13:20:34.001Z</time></trkpt><trkpt lat="43.81717470001572" lon="11.674229186231807"><ele>593.0</ele><time>2026-04-10T13:20:35.001Z</time></trkpt><trkpt lat="43.817125804260236" lon="11.674368409584812"><ele>594.6</ele><time>2026-04-10T13:20:36.001Z</time></trkpt><trkpt lat="43.81705633477558" lon="11.674494075648525"><ele>596.1999999999999</ele><time>2026-04-10T13:20:37.001Z</time></trkpt><trkpt lat="43.816969529199206" lon="11.674599451233219"><ele>597.8</ele><time>2026-04-10T13:20:38.001Z</time></trkpt><trkpt lat="43.81687642042761" lon="11.67468091889309"><ele>599.4</ele><time>2026-04-10T13:20:39.001Z</time></trkpt><trkpt lat="43.81678588603516" lon="11.674759295457068"><ele>601.0</ele><time>2026-04-10T13:20:40.001Z</time></trkpt><trkpt lat="43.816703988494965" lon="11.67484780810238"><ele>598.4</ele><time>2026-04-10T13:20:41.001Z</time></trkpt><trkpt lat="43.81663545272713" lon="11.674959290863578"><ele>595.8</ele><time>2026-04-10T13:20:42.001Z</time></trkpt><trkpt lat="43.816585892725655" lon="11.675092323226515"><ele>593.1999999999999</ele><time>2026-04-10T13:20:43.001Z</time></trkpt><trkpt lat="43.81655859312975" lon="11.675236770876147"><ele>590.6</ele><time>2026-04-10T13:20:44.001Z</time></trkpt><trkpt lat="43.81653575264845" lon="11.6753650890302"><ele>588.0</ele><time>2026-04-10T13:20:45.001Z</time></trkpt><trkpt lat="43.81652049966232" lon="11.67547719933709"><ele>588.0</ele><time>2026-04-10T13:20:46.001Z</time></trkpt><trkpt lat="43.816497278933255" lon="11.675593762160336"><ele>588.0</ele><time>2026-04-10T13:20:47.001Z</time></trkpt><trkpt lat="43.81645683968134" lon="11.675716194946153"><ele>588.0</ele><time>2026-04-10T13:20:48.001Z</time></trkpt><trkpt lat="43.81637814933059" lon="11.675825088508592"><ele>588.0</ele><time>2026-04-10T13:20:49.001Z</time></trkpt><trkpt lat="43.81628591527736" lon="11.67594152546017"><ele>588.0</ele><time>2026-04-10T13:20:50.001Z</time></trkpt><trkpt lat="43.816152678620355" lon="11.676054661339919"><ele>585.6666666666666</ele><time>2026-04-10T13:20:51.001Z</time></trkpt><trkpt lat="43.81601177858305" lon="11.676178226908549"><ele>583.3333333333333</ele><time>2026-04-10T13:20:52.001Z</time></trkpt><trkpt lat="43.81588105188656" lon="11.676315330691928"><ele>581.0</ele><time>2026-04-10T13:20:53.001Z</time></trkpt><trkpt lat="43.81574345428772" lon="11.676417961839771"><ele>581.0</ele><time>2026-04-10T13:20:54.001Z</time></trkpt><trkpt lat="43.815604279703514" lon="11.67650949313964"><ele>581.0</ele><time>2026-04-10T13:20:55.001Z</time></trkpt><trkpt lat="43.815462525729885" lon="11.676567710766806"><ele>581.0</ele><time>2026-04-10T13:20:56.001Z</time></trkpt><trkpt lat="43.81532384910686" lon="11.676607465879842"><ele>581.0</ele><time>2026-04-10T13:20:57.001Z</time></trkpt><trkpt lat="43.815206590708534" lon="11.676692866020554"><ele>574.3333333333333</ele><time>2026-04-10T13:20:58.001Z</time></trkpt><trkpt lat="43.815106685129216" lon="11.676841778223169"><ele>567.6666666666666</ele><time>2026-04-10T13:20:59.001Z</time></trkpt><trkpt lat="43.81502223265732" lon="11.677036040992318"><ele>561.0</ele><time>2026-04-10T13:21:00.001Z</time></trkpt><trkpt lat="43.81493523850737" lon="11.677231329354305"><ele>561.0</ele><time>2026-04-10T13:21:01.001Z</time></trkpt><trkpt lat="43.81486360516235" lon="11.677422593533016"><ele>561.0</ele><time>2026-04-10T13:21:02.001Z</time></trkpt><trkpt lat="43.81483077279974" lon="11.677623529657579"><ele>561.0</ele><time>2026-04-10T13:21:03.001Z</time></trkpt><trkpt lat="43.81481581479473" lon="11.677821502734924"><ele>561.0</ele><time>2026-04-10T13:21:04.001Z</time></trkpt><trkpt lat="43.81481328500519" lon="11.677993979602281"><ele>563.5</ele><time>2026-04-10T13:21:05.001Z</time></trkpt><trkpt lat="43.81473888947493" lon="11.678124348943765"><ele>566.0</ele><time>2026-04-10T13:21:06.001Z</time></trkpt><trkpt lat="43.814624714519894" lon="11.678188200124977"><ele>568.5</ele><time>2026-04-10T13:21:07.001Z</time></trkpt><trkpt lat="43.81447836316103" lon="11.678233496233362"><ele>571.0</ele><time>2026-04-10T13:21:08.001Z</time></trkpt><trkpt lat="43.81434822578534" lon="11.678313241253646"><ele>565.6666666666667</ele><time>2026-04-10T13:21:09.001Z</time></trkpt><trkpt lat="43.814226553884744" lon="11.678425831149266"><ele>560.3333333333334</ele><time>2026-04-10T13:21:10.001Z</time></trkpt><trkpt lat="43.814117552289574" lon="11.67859026965978"><ele>555.0</ele><time>2026-04-10T13:21:11.001Z</time></trkpt><trkpt lat="43.81399897632309" lon="11.678795639370284"><ele>555.0</ele><time>2026-04-10T13:21:12.001Z</time></trkpt><trkpt lat="43.81387795472204" lon="11.679006153603181"><ele>555.0</ele><time>2026-04-10T13:21:13.001Z</time></trkpt><trkpt lat="43.81375830554212" lon="11.679212909670618"><ele>555.0</ele><time>2026-04-10T13:21:14.001Z</time></trkpt><trkpt lat="43.813645571038826" lon="11.679409838364268"><ele>550.3333333333334</ele><time>2026-04-10T13:21:15.001Z</time></trkpt><trkpt lat="43.81353416490691" lon="11.679601224116102"><ele>545.6666666666667</ele><time>2026-04-10T13:21:16.001Z</time></trkpt><trkpt lat="43.81342493952083" lon="11.6797906876411"><ele>541.0</ele><time>2026-04-10T13:21:17.001Z</time></trkpt><trkpt lat="43.81331486856318" lon="11.67997919337652"><ele>541.0</ele><time>2026-04-10T13:21:18.001Z</time></trkpt><trkpt lat="43.813201495166346" lon="11.680168039897408"><ele>541.0</ele><time>2026-04-10T13:21:19Z</time></trkpt><trkpt lat="43.813092154644345" lon="11.68035519587981"><ele>541.0</ele><time>2026-04-10T13:21:20Z</time></trkpt><trkpt lat="43.81298452610488" lon="11.680546324880613"><ele>546.6666666666667</ele><time>2026-04-10T13:21:21Z</time></trkpt><trkpt lat="43.81288423504125" lon="11.680759583407506"><ele>552.3333333333334</ele><time>2026-04-10T13:21:22Z</time></trkpt><trkpt lat="43.812796300852135" lon="11.680994040698017"><ele>558.0</ele><time>2026-04-10T13:21:23Z</time></trkpt><trkpt lat="43.812725338574495" lon="11.681230632874039"><ele>561.0</ele><time>2026-04-10T13:21:24Z</time></trkpt><trkpt lat="43.81266231837466" lon="11.681462028639592"><ele>564.0</ele><time>2026-04-10T13:21:25Z</time></trkpt><trkpt lat="43.81259919319095" lon="11.681690700556894"><ele>567.0</ele><time>2026-04-10T13:21:26Z</time></trkpt><trkpt lat="43.81253073808799" lon="11.681905682772639"><ele>556.0</ele><time>2026-04-10T13:21:27Z</time></trkpt><trkpt lat="43.8124434370504" lon="11.682106354220073"><ele>545.0</ele><time>2026-04-10T13:21:28Z</time></trkpt><trkpt lat="43.812342247818755" lon="11.682288659883572"><ele>534.0</ele><time>2026-04-10T13:21:29Z</time></trkpt><trkpt lat="43.812256320368135" lon="11.682477938878277"><ele>534.0</ele><time>2026-04-10T13:21:30Z</time></trkpt><trkpt lat="43.81220242128011" lon="11.682692414991857"><ele>534.0</ele><time>2026-04-10T13:21:31Z</time></trkpt><trkpt lat="43.81216519039237" lon="11.682907093689826"><ele>534.0</ele><time>2026-04-10T13:21:32Z</time></trkpt><trkpt lat="43.812136625785826" lon="11.683111504506332"><ele>533.25</ele><time>2026-04-10T13:21:33Z</time></trkpt><trkpt lat="43.81212715970588" lon="11.683285114569223"><ele>532.5</ele><time>2026-04-10T13:21:34Z</time></trkpt><trkpt lat="43.81215460593443" lon="11.68345945712796"><ele>531.75</ele><time>2026-04-10T13:21:35Z</time></trkpt><trkpt lat="43.81222401281335" lon="11.683612142694752"><ele>531.0</ele><time>2026-04-10T13:21:36Z</time></trkpt><trkpt lat="43.81232108318539" lon="11.683722847858107"><ele>531.75</ele><time>2026-04-10T13:21:37Z</time></trkpt><trkpt lat="43.81242153782438" lon="11.683823361416204"><ele>532.5</ele><time>2026-04-10T13:21:38Z</time></trkpt><trkpt lat="43.81252779402394" lon="11.683894778168234"><ele>533.25</ele><time>2026-04-10T13:21:39Z</time></trkpt><trkpt lat="43.812626934606584" lon="11.683975554028498"><ele>534.0</ele><time>2026-04-10T13:21:40Z</time></trkpt><trkpt lat="43.81268470034626" lon="11.684116362707226"><ele>534.0</ele><time>2026-04-10T13:21:41Z</time></trkpt><trkpt lat="43.81269809844919" lon="11.684270585794719"><ele>534.0</ele><time>2026-04-10T13:21:42Z</time></trkpt><trkpt lat="43.81273493037506" lon="11.684403673480602"><ele>534.0</ele><time>2026-04-10T13:21:43Z</time></trkpt><trkpt lat="43.812717599110606" lon="11.684543860580247"><ele>534.0</ele><time>2026-04-10T13:21:44Z</time></trkpt><trkpt lat="43.812647539941715" lon="11.684634544065261"><ele>534.0</ele><time>2026-04-10T13:21:45Z</time></trkpt><trkpt lat="43.81256132390027" lon="11.6846648410527"><ele>533.5</ele><time>2026-04-10T13:21:46Z</time></trkpt><trkpt lat="43.81246126615563" lon="11.684636062135178"><ele>533.0</ele><time>2026-04-10T13:21:47Z</time></trkpt><trkpt lat="43.81234626673537" lon="11.684594453156935"><ele>532.5</ele><time>2026-04-10T13:21:48Z</time></trkpt><trkpt lat="43.812212139880685" lon="11.684546681688278"><ele>532.0</ele><time>2026-04-10T13:21:49Z</time></trkpt><trkpt lat="43.81208524239446" lon="11.684491763378416"><ele>532.0</ele><time>2026-04-10T13:21:50Z</time></trkpt><trkpt lat="43.81196386761603" lon="11.684446209479058"><ele>532.0</ele><time>2026-04-10T13:21:51Z</time></trkpt><trkpt lat="43.81184294466392" lon="11.684408813601665"><ele>532.0</ele><time>2026-04-10T13:21:52Z</time></trkpt><trkpt lat="43.81174186418447" lon="11.684373899220418"><ele>532.0</ele><time>2026-04-10T13:21:53Z</time></trkpt><trkpt lat="43.81165263597286" lon="11.6843636032375"><ele>532.0</ele><time>2026-04-10T13:21:54Z</time></trkpt><trkpt lat="43.81156222656251" lon="11.684390261717041"><ele>530.75</ele><time>2026-04-10T13:21:55Z</time></trkpt><trkpt lat="43.81146864514925" lon="11.684421412282271"><ele>529.5</ele><time>2026-04-10T13:21:56Z</time></trkpt><trkpt lat="43.81138298122728" lon="11.684522912349525"><ele>528.25</ele><time>2026-04-10T13:21:57Z</time></trkpt><trkpt lat="43.811309992553944" lon="11.684673217740958"><ele>527.0</ele><time>2026-04-10T13:21:58Z</time></trkpt><trkpt lat="43.81124774359209" lon="11.684842078209691"><ele>527.0</ele><time>2026-04-10T13:21:59Z</time></trkpt><trkpt lat="43.81118379312036" lon="11.685024105386585"><ele>527.0</ele><time>2026-04-10T13:22:00Z</time></trkpt><trkpt lat="43.811120617608665" lon="11.685213669106291"><ele>527.0</ele><time>2026-04-10T13:22:01Z</time></trkpt><trkpt lat="43.81106073397573" lon="11.6853969155211"><ele>527.0</ele><time>2026-04-10T13:22:02Z</time></trkpt><trkpt lat="43.81100006187766" lon="11.685585467045389"><ele>519.6666666666666</ele><time>2026-04-10T13:22:03Z</time></trkpt><trkpt lat="43.810949626202294" lon="11.685791676104367"><ele>512.3333333333334</ele><time>2026-04-10T13:22:04Z</time></trkpt><trkpt lat="43.81091910198346" lon="11.686009239689424"><ele>505.0</ele><time>2026-04-10T13:22:05Z</time></trkpt><trkpt lat="43.81091971625396" lon="11.686237266157084"><ele>505.0</ele><time>2026-04-10T13:22:06Z</time></trkpt><trkpt lat="43.810923492640896" lon="11.686470013796024"><ele>505.0</ele><time>2026-04-10T13:22:07Z</time></trkpt><trkpt lat="43.810927761770515" lon="11.686702681485986"><ele>505.0</ele><time>2026-04-10T13:22:08Z</time></trkpt><trkpt lat="43.81093168219411" lon="11.686916344568306"><ele>505.25</ele><time>2026-04-10T13:22:09Z</time></trkpt><trkpt lat="43.81093627325621" lon="11.68712387260308"><ele>505.5</ele><time>2026-04-10T13:22:10Z</time></trkpt><trkpt lat="43.8109370439133" lon="11.687324954701864"><ele>505.75</ele><time>2026-04-10T13:22:11Z</time></trkpt><trkpt lat="43.810912853128826" lon="11.687522860923455"><ele>506.0</ele><time>2026-04-10T13:22:12Z</time></trkpt><trkpt lat="43.81085796856465" lon="11.68771335241803"><ele>510.3333333333333</ele><time>2026-04-10T13:22:13Z</time></trkpt><trkpt lat="43.81078163329994" lon="11.687917636240458"><ele>514.6666666666666</ele><time>2026-04-10T13:22:14Z</time></trkpt><trkpt lat="43.81070044567822" lon="11.688130588312452"><ele>519.0</ele><time>2026-04-10T13:22:15Z</time></trkpt><trkpt lat="43.810621146168984" lon="11.688311672723522"><ele>519.0</ele><time>2026-04-10T13:22:16Z</time></trkpt><trkpt lat="43.8105278939937" lon="11.688464854436127"><ele>519.0</ele><time>2026-04-10T13:22:17Z</time></trkpt><trkpt lat="43.81041892688627" lon="11.68859978321773"><ele>519.0</ele><time>2026-04-10T13:22:18Z</time></trkpt><trkpt lat="43.8102924986073" lon="11.68872194161846"><ele>519.0</ele><time>2026-04-10T13:22:19Z</time></trkpt><trkpt lat="43.81017656859372" lon="11.68886772511168"><ele>513.3333333333334</ele><time>2026-04-10T13:22:20Z</time></trkpt><trkpt lat="43.810069482643435" lon="11.689012099785927"><ele>507.6666666666667</ele><time>2026-04-10T13:22:21.001Z</time></trkpt><trkpt lat="43.80997683524577" lon="11.689176431054474"><ele>502.0</ele><time>2026-04-10T13:22:22.001Z</time></trkpt><trkpt lat="43.809899602998314" lon="11.689363277043043"><ele>503.25</ele><time>2026-04-10T13:22:23.001Z</time></trkpt><trkpt lat="43.809833358629064" lon="11.689549998504823"><ele>504.5</ele><time>2026-04-10T13:22:24.001Z</time></trkpt><trkpt lat="43.80977635010906" lon="11.689699993675186"><ele>505.75</ele><time>2026-04-10T13:22:25.001Z</time></trkpt><trkpt lat="43.809751029316025" lon="11.689830382594673"><ele>507.0</ele><time>2026-04-10T13:22:26.001Z</time></trkpt><trkpt lat="43.80975187295703" lon="11.689974191938306"><ele>507.0</ele><time>2026-04-10T13:22:27.001Z</time></trkpt><trkpt lat="43.80980348937285" lon="11.690100561011596"><ele>507.0</ele><time>2026-04-10T13:22:28.001Z</time></trkpt><trkpt lat="43.80990343329418" lon="11.69020863377432"><ele>507.0</ele><time>2026-04-10T13:22:29.001Z</time></trkpt><trkpt lat="43.81003421882715" lon="11.690234211344544"><ele>507.0</ele><time>2026-04-10T13:22:30.001Z</time></trkpt><trkpt lat="43.810151020158614" lon="11.690256077545303"><ele>509.40000000000003</ele><time>2026-04-10T13:22:31.001Z</time></trkpt><trkpt lat="43.810259433708865" lon="11.690271037898054"><ele>511.80000000000007</ele><time>2026-04-10T13:22:32.001Z</time></trkpt><trkpt lat="43.81035696795149" lon="11.690289531265162"><ele>514.2</ele><time>2026-04-10T13:22:33.001Z</time></trkpt><trkpt lat="43.81043421940266" lon="11.690359775972697"><ele>516.6</ele><time>2026-04-10T13:22:34.001Z</time></trkpt><trkpt lat="43.81047639645565" lon="11.690481676610549"><ele>519.0</ele><time>2026-04-10T13:22:35.001Z</time></trkpt><trkpt lat="43.81045250646358" lon="11.69061838687521"><ele>519.0</ele><time>2026-04-10T13:22:36.001Z</time></trkpt><trkpt lat="43.81039117650473" lon="11.690738137353431"><ele>519.0</ele><time>2026-04-10T13:22:37.001Z</time></trkpt><trkpt lat="43.81028312604508" lon="11.690803299808035"><ele>519.0</ele><time>2026-04-10T13:22:38.001Z</time></trkpt><trkpt lat="43.81015174399569" lon="11.690864416984525"><ele>519.0</ele><time>2026-04-10T13:22:39.001Z</time></trkpt><trkpt lat="43.80999993260319" lon="11.690949984812397"><ele>520.0</ele><time>2026-04-10T13:22:40.001Z</time></trkpt><trkpt lat="43.80983841448776" lon="11.69103457435881"><ele>521.0</ele><time>2026-04-10T13:22:41.001Z</time></trkpt><trkpt lat="43.80969479197" lon="11.691108213098563"><ele>522.0</ele><time>2026-04-10T13:22:42.001Z</time></trkpt><trkpt lat="43.80955871689976" lon="11.691181924740834"><ele>522.0</ele><time>2026-04-10T13:22:43.001Z</time></trkpt><trkpt lat="43.8094307768383" lon="11.691250695705966"><ele>522.0</ele><time>2026-04-10T13:22:44.001Z</time></trkpt><trkpt lat="43.8093031200546" lon="11.691307881324986"><ele>522.0</ele><time>2026-04-10T13:22:45.001Z</time></trkpt><trkpt lat="43.80917448846051" lon="11.691361252524576"><ele>522.0</ele><time>2026-04-10T13:22:46.001Z</time></trkpt><trkpt lat="43.80903888274901" lon="11.691422500818444"><ele>517.6666666666666</ele><time>2026-04-10T13:22:47.001Z</time></trkpt><trkpt lat="43.808905731699255" lon="11.69151210685367"><ele>513.3333333333333</ele><time>2026-04-10T13:22:48.001Z</time></trkpt><trkpt lat="43.80877841588637" lon="11.691632264601513"><ele>509.0</ele><time>2026-04-10T13:22:49.001Z</time></trkpt><trkpt lat="43.80866346653801" lon="11.691761308174788"><ele>509.0</ele><time>2026-04-10T13:22:50.001Z</time></trkpt><trkpt lat="43.808559521660705" lon="11.69188832952998"><ele>509.0</ele><time>2026-04-10T13:22:51.001Z</time></trkpt><trkpt lat="43.80845951738971" lon="11.692011017161205"><ele>509.0</ele><time>2026-04-10T13:22:52.001Z</time></trkpt><trkpt lat="43.808356472626876" lon="11.692121559029314"><ele>509.0</ele><time>2026-04-10T13:22:53.001Z</time></trkpt><trkpt lat="43.808241786926786" lon="11.69220957391224"><ele>507.25</ele><time>2026-04-10T13:22:54.001Z</time></trkpt><trkpt lat="43.80811480198612" lon="11.692265208747779"><ele>505.5</ele><time>2026-04-10T13:22:55.001Z</time></trkpt><trkpt lat="43.80798191605849" lon="11.692283076553068"><ele>503.75</ele><time>2026-04-10T13:22:56.001Z</time></trkpt><trkpt lat="43.80785371245469" lon="11.692284320651764"><ele>502.0</ele><time>2026-04-10T13:22:57.001Z</time></trkpt><trkpt lat="43.80773261825686" lon="11.692294510535135"><ele>499.40000000000003</ele><time>2026-04-10T13:22:58.001Z</time></trkpt><trkpt lat="43.80761967345679" lon="11.692322209278991"><ele>496.80000000000007</ele><time>2026-04-10T13:22:59.001Z</time></trkpt><trkpt lat="43.80751376878727" lon="11.692370495698578"><ele>494.2</ele><time>2026-04-10T13:23:00.001Z</time></trkpt><trkpt lat="43.807424712890956" lon="11.692457427502001"><ele>491.6</ele><time>2026-04-10T13:23:01.001Z</time></trkpt><trkpt lat="43.8073601652984" lon="11.692580004364068"><ele>489.0</ele><time>2026-04-10T13:23:02.001Z</time></trkpt><trkpt lat="43.80732107791837" lon="11.692729223242738"><ele>490.5</ele><time>2026-04-10T13:23:03.001Z</time></trkpt><trkpt lat="43.80732056282726" lon="11.692895894502556"><ele>492.0</ele><time>2026-04-10T13:23:04.001Z</time></trkpt><trkpt lat="43.80733977334858" lon="11.693076124573789"><ele>493.5</ele><time>2026-04-10T13:23:05.001Z</time></trkpt><trkpt lat="43.80735183010362" lon="11.693282078582623"><ele>495.0</ele><time>2026-04-10T13:23:06.001Z</time></trkpt><trkpt lat="43.80738163369437" lon="11.693479813127642"><ele>495.5</ele><time>2026-04-10T13:23:07.001Z</time></trkpt><trkpt lat="43.80742583767262" lon="11.693660538264847"><ele>496.0</ele><time>2026-04-10T13:23:08.001Z</time></trkpt><trkpt lat="43.807451522399425" lon="11.693844457745357"><ele>496.5</ele><time>2026-04-10T13:23:09.001Z</time></trkpt><trkpt lat="43.8074681947461" lon="11.694025613564445"><ele>497.0</ele><time>2026-04-10T13:23:10.001Z</time></trkpt><trkpt lat="43.80744836572282" lon="11.694209205321894"><ele>497.0</ele><time>2026-04-10T13:23:11.001Z</time></trkpt><trkpt lat="43.80738358589347" lon="11.694384849103887"><ele>497.0</ele><time>2026-04-10T13:23:12.001Z</time></trkpt><trkpt lat="43.80728805375275" lon="11.694548885794568"><ele>497.0</ele><time>2026-04-10T13:23:13.001Z</time></trkpt><trkpt lat="43.80717930902964" lon="11.6947186334825"><ele>500.0</ele><time>2026-04-10T13:23:14.001Z</time></trkpt><trkpt lat="43.807073217008174" lon="11.694906563836165"><ele>503.0</ele><time>2026-04-10T13:23:15.001Z</time></trkpt><trkpt lat="43.80697353325841" lon="11.695092758012269"><ele>506.0</ele><time>2026-04-10T13:23:16.001Z</time></trkpt><trkpt lat="43.80687850613986" lon="11.695268060064219"><ele>503.0</ele><time>2026-04-10T13:23:17.001Z</time></trkpt><trkpt lat="43.80679223844056" lon="11.695432279807585"><ele>500.0</ele><time>2026-04-10T13:23:18.001Z</time></trkpt><trkpt lat="43.806709199254904" lon="11.695592550082091"><ele>497.0</ele><time>2026-04-10T13:23:19.001Z</time></trkpt><trkpt lat="43.8066228480368" lon="11.695757507487025"><ele>494.0</ele><time>2026-04-10T13:23:20.001Z</time></trkpt><trkpt lat="43.806534363499374" lon="11.695918264411434"><ele>494.0</ele><time>2026-04-10T13:23:21.001Z</time></trkpt><trkpt lat="43.8064439577525" lon="11.696074638999917"><ele>494.0</ele><time>2026-04-10T13:23:22.001Z</time></trkpt><trkpt lat="43.80635393523633" lon="11.696225213970465"><ele>494.0</ele><time>2026-04-10T13:23:23.001Z</time></trkpt><trkpt lat="43.806263297918676" lon="11.69637774848147"><ele>494.0</ele><time>2026-04-10T13:23:24.001Z</time></trkpt><trkpt lat="43.806172474049355" lon="11.696534535036289"><ele>496.75</ele><time>2026-04-10T13:23:25Z</time></trkpt><trkpt lat="43.80608756284509" lon="11.696700139560509"><ele>499.5</ele><time>2026-04-10T13:23:26Z</time></trkpt><trkpt lat="43.80602506618151" lon="11.696879019719395"><ele>502.25</ele><time>2026-04-10T13:23:27Z</time></trkpt><trkpt lat="43.80599940415505" lon="11.697078542924737"><ele>505.0</ele><time>2026-04-10T13:23:28Z</time></trkpt><trkpt lat="43.806011898417935" lon="11.697290371070343"><ele>505.0</ele><time>2026-04-10T13:23:29Z</time></trkpt><trkpt lat="43.806049854968734" lon="11.697504821052176"><ele>505.0</ele><time>2026-04-10T13:23:30Z</time></trkpt><trkpt lat="43.80610152330062" lon="11.69772395183207"><ele>505.0</ele><time>2026-04-10T13:23:31Z</time></trkpt><trkpt lat="43.80613861841584" lon="11.697933327631784"><ele>504.25</ele><time>2026-04-10T13:23:32Z</time></trkpt><trkpt lat="43.80617567332072" lon="11.698125324962634"><ele>503.5</ele><time>2026-04-10T13:23:33Z</time></trkpt><trkpt lat="43.806182350885" lon="11.698312733711075"><ele>502.75</ele><time>2026-04-10T13:23:34Z</time></trkpt><trkpt lat="43.80617444111755" lon="11.698505031565775"><ele>502.0</ele><time>2026-04-10T13:23:35Z</time></trkpt><trkpt lat="43.80617375802709" lon="11.698710696424262"><ele>501.25</ele><time>2026-04-10T13:23:36Z</time></trkpt><trkpt lat="43.80615482468045" lon="11.69891919519609"><ele>500.5</ele><time>2026-04-10T13:23:37Z</time></trkpt><trkpt lat="43.80614030262152" lon="11.69912019159072"><ele>499.75</ele><time>2026-04-10T13:23:38Z</time></trkpt><trkpt lat="43.806132566451836" lon="11.699311303973355"><ele>499.0</ele><time>2026-04-10T13:23:39Z</time></trkpt><trkpt lat="43.80612124528135" lon="11.69949655463262"><ele>498.75</ele><time>2026-04-10T13:23:40Z</time></trkpt><trkpt lat="43.80610992268861" lon="11.699673718406059"><ele>498.5</ele><time>2026-04-10T13:23:41Z</time></trkpt><trkpt lat="43.806096542965214" lon="11.699854467835156"><ele>498.25</ele><time>2026-04-10T13:23:42Z</time></trkpt><trkpt lat="43.80607691927961" lon="11.700027593803998"><ele>498.0</ele><time>2026-04-10T13:23:43Z</time></trkpt><trkpt lat="43.806012764644514" lon="11.700190241583504"><ele>493.5</ele><time>2026-04-10T13:23:44Z</time></trkpt><trkpt lat="43.805952986593816" lon="11.70037214346602"><ele>489.0</ele><time>2026-04-10T13:23:45Z</time></trkpt><trkpt lat="43.80588958065944" lon="11.700545407539678"><ele>484.5</ele><time>2026-04-10T13:23:46Z</time></trkpt><trkpt lat="43.80582627227941" lon="11.700731274361518"><ele>480.0</ele><time>2026-04-10T13:23:47Z</time></trkpt><trkpt lat="43.80576570630645" lon="11.700911784395545"><ele>482.5</ele><time>2026-04-10T13:23:48Z</time></trkpt><trkpt lat="43.805702537475575" lon="11.701087631068827"><ele>485.0</ele><time>2026-04-10T13:23:49Z</time></trkpt><trkpt lat="43.805638345482166" lon="11.701255360487043"><ele>487.5</ele><time>2026-04-10T13:23:50Z</time></trkpt><trkpt lat="43.80557161861541" lon="11.701411810607743"><ele>490.0</ele><time>2026-04-10T13:23:51Z</time></trkpt><trkpt lat="43.80547306015973" lon="11.701533576798678"><ele>490.0</ele><time>2026-04-10T13:23:52Z</time></trkpt><trkpt lat="43.80537159678189" lon="11.70163477120687"><ele>490.0</ele><time>2026-04-10T13:23:53Z</time></trkpt><trkpt lat="43.80526027304768" lon="11.701763502230662"><ele>490.0</ele><time>2026-04-10T13:23:54Z</time></trkpt><trkpt lat="43.8051331586682" lon="11.701879941825398"><ele>490.0</ele><time>2026-04-10T13:23:55Z</time></trkpt><trkpt lat="43.80501636049331" lon="11.702014957843737"><ele>487.33333333333337</ele><time>2026-04-10T13:23:56Z</time></trkpt><trkpt lat="43.80490774568352" lon="11.702177274957672"><ele>484.66666666666663</ele><time>2026-04-10T13:23:57Z</time></trkpt><trkpt lat="43.80481132466408" lon="11.702329167446575"><ele>482.0</ele><time>2026-04-10T13:23:58Z</time></trkpt><trkpt lat="43.80470577278207" lon="11.702480367420035"><ele>482.0</ele><time>2026-04-10T13:23:59Z</time></trkpt><trkpt lat="43.804603942833104" lon="11.70262758541104"><ele>482.0</ele><time>2026-04-10T13:24:00Z</time></trkpt><trkpt lat="43.804482088095924" lon="11.70276614609731"><ele>482.0</ele><time>2026-04-10T13:24:01Z</time></trkpt><trkpt lat="43.804366714790206" lon="11.702916464558701"><ele>481.0</ele><time>2026-04-10T13:24:02Z</time></trkpt><trkpt lat="43.80425655901507" lon="11.703077650899106"><ele>480.0</ele><time>2026-04-10T13:24:03Z</time></trkpt><trkpt lat="43.80415205821449" lon="11.703237760594607"><ele>479.0</ele><time>2026-04-10T13:24:04Z</time></trkpt><trkpt lat="43.80405773385125" lon="11.70341033445009"><ele>481.3333333333333</ele><time>2026-04-10T13:24:05Z</time></trkpt><trkpt lat="43.80396688367236" lon="11.703591109120964"><ele>483.66666666666663</ele><time>2026-04-10T13:24:06Z</time></trkpt><trkpt lat="43.80386998801893" lon="11.703772093871821"><ele>486.0</ele><time>2026-04-10T13:24:07Z</time></trkpt><trkpt lat="43.80376684794621" lon="11.7039393066385"><ele>486.0</ele><time>2026-04-10T13:24:08Z</time></trkpt><trkpt lat="43.80365490102285" lon="11.7040949805499"><ele>486.0</ele><time>2026-04-10T13:24:09Z</time></trkpt><trkpt lat="43.80353126002937" lon="11.70424187296532"><ele>486.0</ele><time>2026-04-10T13:24:10Z</time></trkpt><trkpt lat="43.803404478114466" lon="11.704383575228283"><ele>483.75</ele><time>2026-04-10T13:24:11Z</time></trkpt><trkpt lat="43.80327465353357" lon="11.704527737938653"><ele>481.5</ele><time>2026-04-10T13:24:12Z</time></trkpt><trkpt lat="43.803152165949946" lon="11.70465833062587"><ele>479.25</ele><time>2026-04-10T13:24:13Z</time></trkpt><trkpt lat="43.80305252952907" lon="11.704763594543959"><ele>477.0</ele><time>2026-04-10T13:24:14Z</time></trkpt><trkpt lat="43.802970480645776" lon="11.70484085892286"><ele>477.0</ele><time>2026-04-10T13:24:15Z</time></trkpt><trkpt lat="43.80290461141815" lon="11.70489973725525"><ele>477.0</ele><time>2026-04-10T13:24:16Z</time></trkpt><trkpt lat="43.802822964301804" lon="11.704967520644724"><ele>477.0</ele><time>2026-04-10T13:24:18Z</time></trkpt><trkpt lat="43.80278264412463" lon="11.705039008285613"><ele>477.0</ele><time>2026-04-10T13:24:24.001Z</time></trkpt><trkpt lat="43.80286499410837" lon="11.705016574897561"><ele>477.0</ele><time>2026-04-10T13:24:27.001Z</time></trkpt><trkpt lat="43.80291993215781" lon="11.704952885704968"><ele>477.0</ele><time>2026-04-10T13:24:28.001Z</time></trkpt><trkpt lat="43.80303654415566" lon="11.704821763056875"><ele>477.0</ele><time>2026-04-10T13:24:29.001Z</time></trkpt><trkpt lat="43.803101452261004" lon="11.70475194216061"><ele>477.0</ele><time>2026-04-10T13:24:30.001Z</time></trkpt><trkpt lat="43.80316247266441" lon="11.704695716042396"><ele>477.0</ele><time>2026-04-10T13:24:31.001Z</time></trkpt><trkpt lat="43.80321430413515" lon="11.704643972047748"><ele>477.0</ele><time>2026-04-10T13:24:32.001Z</time></trkpt><trkpt lat="43.80326175534533" lon="11.704564643578783"><ele>477.0</ele><time>2026-04-10T13:24:34.001Z</time></trkpt><trkpt lat="43.80320131304899" lon="11.704499263872743"><ele>477.0</ele><time>2026-04-10T13:24:36.001Z</time></trkpt><trkpt lat="43.80307888694213" lon="11.704580931698716"><ele>477.0</ele><time>2026-04-10T13:24:38.001Z</time></trkpt><trkpt lat="43.80301319074957" lon="11.704650138582547"><ele>477.00000000000006</ele><time>2026-04-10T13:24:39.001Z</time></trkpt><trkpt lat="43.80293907522863" lon="11.704701368235094"><ele>477.00000000000006</ele><time>2026-04-10T13:24:40.001Z</time></trkpt><trkpt lat="43.80284926918882" lon="11.704738117887414"><ele>477.0</ele><time>2026-04-10T13:24:41.001Z</time></trkpt><trkpt lat="43.8027486369071" lon="11.704767793242315"><ele>477.0</ele><time>2026-04-10T13:24:42.001Z</time></trkpt><trkpt lat="43.802647246982325" lon="11.704805260897093"><ele>474.0</ele><time>2026-04-10T13:24:43.001Z</time></trkpt><trkpt lat="43.802546121145525" lon="11.704860178664497"><ele>471.00000000000006</ele><time>2026-04-10T13:24:44.001Z</time></trkpt><trkpt lat="43.80244885446927" lon="11.704920048372008"><ele>468.00000000000006</ele><time>2026-04-10T13:24:45.001Z</time></trkpt><trkpt lat="43.80235937944612" lon="11.704989599006579"><ele>465.0</ele><time>2026-04-10T13:24:46.001Z</time></trkpt><trkpt lat="43.802276139471196" lon="11.70508312470456"><ele>462.0</ele><time>2026-04-10T13:24:47.001Z</time></trkpt><trkpt lat="43.80219670913348" lon="11.705188266825502"><ele>464.6</ele><time>2026-04-10T13:24:48.001Z</time></trkpt><trkpt lat="43.802128735351644" lon="11.705298588570367"><ele>467.20000000000005</ele><time>2026-04-10T13:24:49.001Z</time></trkpt><trkpt lat="43.8020687314359" lon="11.705409195246672"><ele>469.8</ele><time>2026-04-10T13:24:50.001Z</time></trkpt><trkpt lat="43.80200886662339" lon="11.70551018391169"><ele>472.4</ele><time>2026-04-10T13:24:51.001Z</time></trkpt><trkpt lat="43.80193042326584" lon="11.705581905000242"><ele>475.0</ele><time>2026-04-10T13:24:52.001Z</time></trkpt><trkpt lat="43.80184245478488" lon="11.705627060006828"><ele>471.8571428571429</ele><time>2026-04-10T13:24:53.001Z</time></trkpt><trkpt lat="43.80175927588692" lon="11.705644599284408"><ele>468.7142857142858</ele><time>2026-04-10T13:24:54.001Z</time></trkpt><trkpt lat="43.801691495551275" lon="11.705655135749788"><ele>465.57142857142856</ele><time>2026-04-10T13:24:55.001Z</time></trkpt><trkpt lat="43.801628298800836" lon="11.705676420588999"><ele>462.42857142857144</ele><time>2026-04-10T13:24:56.001Z</time></trkpt><trkpt lat="43.8015632298237" lon="11.705703193727127"><ele>459.2857142857143</ele><time>2026-04-10T13:24:57.001Z</time></trkpt><trkpt lat="43.801508516627486" lon="11.705750058558841"><ele>456.1428571428571</ele><time>2026-04-10T13:24:58.001Z</time></trkpt><trkpt lat="43.80146096909515" lon="11.70581294457111"><ele>452.99999999999994</ele><time>2026-04-10T13:24:59.001Z</time></trkpt><trkpt lat="43.80137935544058" lon="11.70592249554396"><ele>453.0</ele><time>2026-04-10T13:25:01.001Z</time></trkpt><trkpt lat="43.8013195817768" lon="11.705982286678934"><ele>453.0</ele><time>2026-04-10T13:25:03.001Z</time></trkpt><trkpt lat="43.801213416264716" lon="11.705987344961397"><ele>453.0</ele><time>2026-04-10T13:25:05.001Z</time></trkpt><trkpt lat="43.801111920954455" lon="11.705924283138026"><ele>453.0</ele><time>2026-04-10T13:25:07.001Z</time></trkpt><trkpt lat="43.80105123108104" lon="11.705894444668155"><ele>453.0</ele><time>2026-04-10T13:25:08.001Z</time></trkpt><trkpt lat="43.8009791282621" lon="11.705858495441092"><ele>453.0</ele><time>2026-04-10T13:25:09.001Z</time></trkpt><trkpt lat="43.80090285068809" lon="11.705834910356312"><ele>451.6666666666667</ele><time>2026-04-10T13:25:10.001Z</time></trkpt><trkpt lat="43.80082927872435" lon="11.705821165274605"><ele>450.33333333333337</ele><time>2026-04-10T13:25:11.001Z</time></trkpt><trkpt lat="43.80075687493269" lon="11.705813790134838"><ele>449.0</ele><time>2026-04-10T13:25:12.001Z</time></trkpt><trkpt lat="43.80069223922587" lon="11.705812675997434"><ele>447.6666666666667</ele><time>2026-04-10T13:25:13.001Z</time></trkpt><trkpt lat="43.80060454873555" lon="11.705814983249676"><ele>446.33333333333337</ele><time>2026-04-10T13:25:15.001Z</time></trkpt><trkpt lat="43.80052117774186" lon="11.705834935189435"><ele>445.0</ele><time>2026-04-10T13:25:18.001Z</time></trkpt><trkpt lat="43.80041912777759" lon="11.705868797595604"><ele>445.0</ele><time>2026-04-10T13:25:21.001Z</time></trkpt><trkpt lat="43.80029834471951" lon="11.705850438905925"><ele>445.0</ele><time>2026-04-10T13:25:23.001Z</time></trkpt><trkpt lat="43.80018220050082" lon="11.705792203532376"><ele>445.0</ele><time>2026-04-10T13:25:25.001Z</time></trkpt><trkpt lat="43.800113987975536" lon="11.705769625583509"><ele>445.0</ele><time>2026-04-10T13:25:26.001Z</time></trkpt><trkpt lat="43.800039469698866" lon="11.705750001548022"><ele>445.0</ele><time>2026-04-10T13:25:27.001Z</time></trkpt><trkpt lat="43.79996453401397" lon="11.70574626647792"><ele>444.42857142857144</ele><time>2026-04-10T13:25:28.001Z</time></trkpt><trkpt lat="43.79989364305544" lon="11.70575552235665"><ele>443.85714285714283</ele><time>2026-04-10T13:25:29.001Z</time></trkpt><trkpt lat="43.7998293164723" lon="11.705787997185219"><ele>443.2857142857143</ele><time>2026-04-10T13:25:30.001Z</time></trkpt><trkpt lat="43.799774148087884" lon="11.705834276529183"><ele>442.7142857142857</ele><time>2026-04-10T13:25:31Z</time></trkpt><trkpt lat="43.79972304972827" lon="11.705891977320256"><ele>442.1428571428571</ele><time>2026-04-10T13:25:32Z</time></trkpt><trkpt lat="43.79966361041995" lon="11.705954802735723"><ele>441.57142857142856</ele><time>2026-04-10T13:25:33Z</time></trkpt><trkpt lat="43.799601023324755" lon="11.706024257083978"><ele>441.0</ele><time>2026-04-10T13:25:34Z</time></trkpt><trkpt lat="43.79954511211669" lon="11.706100286500657"><ele>441.0</ele><time>2026-04-10T13:25:35Z</time></trkpt><trkpt lat="43.79948875658076" lon="11.70617771571138"><ele>441.0</ele><time>2026-04-10T13:25:36Z</time></trkpt><trkpt lat="43.79943101716511" lon="11.706252422735746"><ele>441.0</ele><time>2026-04-10T13:25:37Z</time></trkpt><trkpt lat="43.799369739996514" lon="11.706324351389853"><ele>441.0</ele><time>2026-04-10T13:25:38Z</time></trkpt><trkpt lat="43.799310954093166" lon="11.706391484338328"><ele>441.0</ele><time>2026-04-10T13:25:39Z</time></trkpt><trkpt lat="43.79925145184779" lon="11.7064538216942"><ele>441.0</ele><time>2026-04-10T13:25:40Z</time></trkpt><trkpt lat="43.79918908126763" lon="11.70651620923584"><ele>440.6666666666667</ele><time>2026-04-10T13:25:41Z</time></trkpt><trkpt lat="43.79912348571576" lon="11.706588849238074"><ele>440.33333333333337</ele><time>2026-04-10T13:25:42Z</time></trkpt><trkpt lat="43.79905480006496" lon="11.706670103097817"><ele>440.0</ele><time>2026-04-10T13:25:43Z</time></trkpt><trkpt lat="43.7989893530861" lon="11.70675412146398"><ele>439.6666666666667</ele><time>2026-04-10T13:25:44Z</time></trkpt><trkpt lat="43.79892491673028" lon="11.706829984603171"><ele>439.33333333333337</ele><time>2026-04-10T13:25:45Z</time></trkpt><trkpt lat="43.79885297076149" lon="11.70689984073405"><ele>439.0</ele><time>2026-04-10T13:25:46Z</time></trkpt><trkpt lat="43.798780151880905" lon="11.706963063767223"><ele>439.00000000000006</ele><time>2026-04-10T13:25:47Z</time></trkpt><trkpt lat="43.79870461389594" lon="11.707016508666557"><ele>439.0</ele><time>2026-04-10T13:25:48Z</time></trkpt><trkpt lat="43.79862866202963" lon="11.707065969775556"><ele>439.0</ele><time>2026-04-10T13:25:49Z</time></trkpt><trkpt lat="43.79855088749422" lon="11.707126546270114"><ele>439.0</ele><time>2026-04-10T13:25:50Z</time></trkpt><trkpt lat="43.79846932734126" lon="11.70720435262718"><ele>439.00000000000006</ele><time>2026-04-10T13:25:51Z</time></trkpt><trkpt lat="43.798400148158585" lon="11.70728940506776"><ele>439.0</ele><time>2026-04-10T13:25:52Z</time></trkpt><trkpt lat="43.79833826614073" lon="11.707370231983106"><ele>439.0</ele><time>2026-04-10T13:25:53Z</time></trkpt><trkpt lat="43.79827561290415" lon="11.707455289296593"><ele>439.0</ele><time>2026-04-10T13:25:54Z</time></trkpt><trkpt lat="43.79820905876056" lon="11.707542798464061"><ele>439.0</ele><time>2026-04-10T13:25:55Z</time></trkpt><trkpt lat="43.79813284034811" lon="11.70762238771022"><ele>439.0</ele><time>2026-04-10T13:25:56Z</time></trkpt><trkpt lat="43.7980562954834" lon="11.707699423702906"><ele>439.0</ele><time>2026-04-10T13:25:57Z</time></trkpt><trkpt lat="43.79798197967378" lon="11.707757535127017"><ele>438.6</ele><time>2026-04-10T13:25:58Z</time></trkpt><trkpt lat="43.7979158712219" lon="11.707800248308374"><ele>438.2</ele><time>2026-04-10T13:25:59Z</time></trkpt><trkpt lat="43.797848737984445" lon="11.707908562388987"><ele>437.80000000000007</ele><time>2026-04-10T13:26:01Z</time></trkpt><trkpt lat="43.797789620932754" lon="11.707978115639163"><ele>437.40000000000003</ele><time>2026-04-10T13:28:52.001Z</time></trkpt><trkpt lat="43.797726365885644" lon="11.70805253735613"><ele>437.0</ele><time>2026-04-10T13:28:54.001Z</time></trkpt><trkpt lat="43.79762950266115" lon="11.708179894545644"><ele>436.99999999999994</ele><time>2026-04-10T13:28:56.001Z</time></trkpt><trkpt lat="43.79756223501229" lon="11.70825469151424"><ele>437.0</ele><time>2026-04-10T13:28:57.001Z</time></trkpt><trkpt lat="43.79749095439826" lon="11.708334996789544"><ele>437.0</ele><time>2026-04-10T13:28:58.001Z</time></trkpt><trkpt lat="43.797420744621625" lon="11.708414026695895"><ele>437.0</ele><time>2026-04-10T13:28:59.001Z</time></trkpt><trkpt lat="43.79735407236848" lon="11.708490734857742"><ele>436.99999999999994</ele><time>2026-04-10T13:29:00.001Z</time></trkpt><trkpt lat="43.797289306764355" lon="11.70856227796098"><ele>437.0</ele><time>2026-04-10T13:29:01.001Z</time></trkpt><trkpt lat="43.79721052270204" lon="11.708632391460352"><ele>437.20000000000005</ele><time>2026-04-10T13:29:02.001Z</time></trkpt><trkpt lat="43.79712611101174" lon="11.708700414986524"><ele>437.40000000000003</ele><time>2026-04-10T13:29:03.001Z</time></trkpt><trkpt lat="43.79703587923484" lon="11.708741679896285"><ele>437.59999999999997</ele><time>2026-04-10T13:29:04.001Z</time></trkpt><trkpt lat="43.79695244511252" lon="11.708792403162287"><ele>437.79999999999995</ele><time>2026-04-10T13:29:05.001Z</time></trkpt><trkpt lat="43.796864590007964" lon="11.708846161837227"><ele>438.0</ele><time>2026-04-10T13:29:06.001Z</time></trkpt><trkpt lat="43.796772249639716" lon="11.708924035084241"><ele>438.0</ele><time>2026-04-10T13:29:07.001Z</time></trkpt><trkpt lat="43.79666439447477" lon="11.708974531451265"><ele>437.99999999999994</ele><time>2026-04-10T13:29:08.001Z</time></trkpt><trkpt lat="43.796569127965455" lon="11.709031266446209"><ele>437.99999999999994</ele><time>2026-04-10T13:29:09.001Z</time></trkpt><trkpt lat="43.79648287874506" lon="11.709093499796941"><ele>438.0</ele><time>2026-04-10T13:29:10.001Z</time></trkpt><trkpt lat="43.79639677956379" lon="11.709149524857722"><ele>438.0</ele><time>2026-04-10T13:29:11.001Z</time></trkpt><trkpt lat="43.796316855233115" lon="11.709208950140551"><ele>438.0</ele><time>2026-04-10T13:29:12.001Z</time></trkpt><trkpt lat="43.79623922593234" lon="11.709289575283007"><ele>437.99999999999994</ele><time>2026-04-10T13:29:13.001Z</time></trkpt><trkpt lat="43.796161967544904" lon="11.709411618949082"><ele>437.99999999999994</ele><time>2026-04-10T13:29:14.001Z</time></trkpt><trkpt lat="43.79608806525899" lon="11.709541357327879"><ele>438.0</ele><time>2026-04-10T13:29:15.001Z</time></trkpt><trkpt lat="43.79602307802563" lon="11.709672786462658"><ele>438.0</ele><time>2026-04-10T13:29:16.001Z</time></trkpt><trkpt lat="43.79596404044031" lon="11.709796029138682"><ele>437.79999999999995</ele><time>2026-04-10T13:29:17.001Z</time></trkpt><trkpt lat="43.795906940586384" lon="11.709916400774766"><ele>437.59999999999997</ele><time>2026-04-10T13:29:18.001Z</time></trkpt><trkpt lat="43.79585754785413" lon="11.710030681802232"><ele>437.40000000000003</ele><time>2026-04-10T13:29:19.001Z</time></trkpt><trkpt lat="43.79582092257638" lon="11.710143382577703"><ele>437.20000000000005</ele><time>2026-04-10T13:29:20.001Z</time></trkpt><trkpt lat="43.79582208737745" lon="11.710258726387556"><ele>437.0</ele><time>2026-04-10T13:29:21.001Z</time></trkpt><trkpt lat="43.79584445836188" lon="11.71036864519983"><ele>437.0</ele><time>2026-04-10T13:29:22.001Z</time></trkpt><trkpt lat="43.79588935337912" lon="11.71047022276983"><ele>437.00000000000006</ele><time>2026-04-10T13:29:23.001Z</time></trkpt><trkpt lat="43.795963365136245" lon="11.710546839996947"><ele>437.00000000000006</ele><time>2026-04-10T13:29:24.001Z</time></trkpt><trkpt lat="43.7960502817219" lon="11.710619781224354"><ele>437.0</ele><time>2026-04-10T13:29:25.001Z</time></trkpt><trkpt lat="43.79614220710824" lon="11.710696250708587"><ele>437.0</ele><time>2026-04-10T13:29:26.001Z</time></trkpt><trkpt lat="43.79623755894999" lon="11.710780176738142"><ele>438.6</ele><time>2026-04-10T13:29:27.001Z</time></trkpt><trkpt lat="43.7963383288475" lon="11.710870633037816"><ele>440.20000000000005</ele><time>2026-04-10T13:29:28.001Z</time></trkpt><trkpt lat="43.79643309598136" lon="11.71095268024578"><ele>441.8</ele><time>2026-04-10T13:29:29.001Z</time></trkpt><trkpt lat="43.796521833913694" lon="11.711030914495861"><ele>443.4</ele><time>2026-04-10T13:29:30.001Z</time></trkpt><trkpt lat="43.796607927839105" lon="11.71111506857186"><ele>445.0</ele><time>2026-04-10T13:29:31.001Z</time></trkpt><trkpt lat="43.796688243237355" lon="11.71119804142877"><ele>445.0</ele><time>2026-04-10T13:29:32.001Z</time></trkpt><trkpt lat="43.79676356138196" lon="11.711268041372815"><ele>445.0</ele><time>2026-04-10T13:29:33.001Z</time></trkpt><trkpt lat="43.79682800017968" lon="11.71132805394371"><ele>445.0</ele><time>2026-04-10T13:29:34.001Z</time></trkpt><trkpt lat="43.79688267111592" lon="11.711380816316167"><ele>445.0</ele><time>2026-04-10T13:29:37.001Z</time></trkpt><trkpt lat="43.79693419689126" lon="11.711437310971577"><ele>445.0</ele><time>2026-04-10T13:29:41.001Z</time></trkpt><trkpt lat="43.79683866272677" lon="11.71164607824998"><ele>445.0</ele><time>2026-04-10T13:29:44.001Z</time></trkpt><trkpt lat="43.796756699457845" lon="11.711749772791238"><ele>445.0</ele><time>2026-04-10T13:29:45.001Z</time></trkpt><trkpt lat="43.7966679002053" lon="11.711876818564184"><ele>445.0</ele><time>2026-04-10T13:29:46.001Z</time></trkpt><trkpt lat="43.796579737455694" lon="11.711995397526426"><ele>445.0</ele><time>2026-04-10T13:29:47.001Z</time></trkpt><trkpt lat="43.79649346975148" lon="11.712105088181064"><ele>445.0</ele><time>2026-04-10T13:29:48.001Z</time></trkpt><trkpt lat="43.79640852345146" lon="11.712221270424473"><ele>445.0</ele><time>2026-04-10T13:29:49.001Z</time></trkpt><trkpt lat="43.796327076539136" lon="11.712337312054673"><ele>445.0</ele><time>2026-04-10T13:29:50.001Z</time></trkpt><trkpt lat="43.79624604942965" lon="11.712454312982182"><ele>445.0</ele><time>2026-04-10T13:29:51.001Z</time></trkpt><trkpt lat="43.79616540478636" lon="11.712570297912785"><ele>445.0</ele><time>2026-04-10T13:29:52.001Z</time></trkpt><trkpt lat="43.79608629843429" lon="11.712685211672937"><ele>445.0</ele><time>2026-04-10T13:29:53.001Z</time></trkpt><trkpt lat="43.7960056654914" lon="11.71279795184037"><ele>445.0</ele><time>2026-04-10T13:29:54.001Z</time></trkpt><trkpt lat="43.795926936380965" lon="11.71291148968972"><ele>445.0</ele><time>2026-04-10T13:29:55.001Z</time></trkpt><trkpt lat="43.795842953957866" lon="11.713032838215979"><ele>443.25</ele><time>2026-04-10T13:29:56.001Z</time></trkpt><trkpt lat="43.79575905430005" lon="11.713152620986424"><ele>441.5</ele><time>2026-04-10T13:29:57.001Z</time></trkpt><trkpt lat="43.79567455859864" lon="11.713275385335452"><ele>439.75</ele><time>2026-04-10T13:29:58.001Z</time></trkpt><trkpt lat="43.79558712521105" lon="11.71339559731196"><ele>438.0</ele><time>2026-04-10T13:29:59.001Z</time></trkpt><trkpt lat="43.79550764946043" lon="11.713511564271867"><ele>437.79999999999995</ele><time>2026-04-10T13:30:00.001Z</time></trkpt><trkpt lat="43.795427868325795" lon="11.713619854389524"><ele>437.59999999999997</ele><time>2026-04-10T13:30:01.001Z</time></trkpt><trkpt lat="43.795348171273346" lon="11.713728561025038"><ele>437.40000000000003</ele><time>2026-04-10T13:30:02.001Z</time></trkpt><trkpt lat="43.79527297260561" lon="11.713836403872389"><ele>437.20000000000005</ele><time>2026-04-10T13:30:03.001Z</time></trkpt><trkpt lat="43.79520075371079" lon="11.713941898570315"><ele>437.0</ele><time>2026-04-10T13:30:04.001Z</time></trkpt><trkpt lat="43.79512766059446" lon="11.71405142506372"><ele>437.0</ele><time>2026-04-10T13:30:05.001Z</time></trkpt><trkpt lat="43.79505802680272" lon="11.714160143796883"><ele>437.00000000000006</ele><time>2026-04-10T13:30:06.001Z</time></trkpt><trkpt lat="43.79499397744206" lon="11.714259767443231"><ele>437.00000000000006</ele><time>2026-04-10T13:30:07.001Z</time></trkpt><trkpt lat="43.79494233351456" lon="11.714345795083183"><ele>437.0</ele><time>2026-04-10T13:30:08.001Z</time></trkpt><trkpt lat="43.79488882249353" lon="11.714432555408823"><ele>437.0</ele><time>2026-04-10T13:30:09.001Z</time></trkpt><trkpt lat="43.79483480775966" lon="11.714540517209219"><ele>437.0</ele><time>2026-04-10T13:30:10.001Z</time></trkpt><trkpt lat="43.79478159636155" lon="11.714671940358297"><ele>437.0</ele><time>2026-04-10T13:30:11.001Z</time></trkpt><trkpt lat="43.79472199240746" lon="11.714811720183494"><ele>437.0</ele><time>2026-04-10T13:30:12.001Z</time></trkpt><trkpt lat="43.79465507608767" lon="11.714947398271459"><ele>437.0</ele><time>2026-04-10T13:30:13.001Z</time></trkpt><trkpt lat="43.79458204892317" lon="11.71507438834744"><ele>437.0</ele><time>2026-04-10T13:30:14.001Z</time></trkpt><trkpt lat="43.79451305738086" lon="11.715203564588844"><ele>437.0</ele><time>2026-04-10T13:30:15.001Z</time></trkpt><trkpt lat="43.79444315292262" lon="11.715330960436706"><ele>437.0</ele><time>2026-04-10T13:30:16.001Z</time></trkpt><trkpt lat="43.79437772037022" lon="11.715451723852237"><ele>437.0</ele><time>2026-04-10T13:30:17.001Z</time></trkpt><trkpt lat="43.794309200523344" lon="11.71557990541162"><ele>435.75</ele><time>2026-04-10T13:30:18.001Z</time></trkpt><trkpt lat="43.794234219374566" lon="11.715697475349106"><ele>434.5</ele><time>2026-04-10T13:30:19.001Z</time></trkpt><trkpt lat="43.7941528805424" lon="11.715814355136299"><ele>433.25</ele><time>2026-04-10T13:30:20.001Z</time></trkpt><trkpt lat="43.79407195910385" lon="11.715929753609602"><ele>432.0</ele><time>2026-04-10T13:30:21.001Z</time></trkpt><trkpt lat="43.79399249958103" lon="11.716050374740156"><ele>432.25</ele><time>2026-04-10T13:30:22.001Z</time></trkpt><trkpt lat="43.793903327604845" lon="11.716171144564077"><ele>432.5</ele><time>2026-04-10T13:30:23.001Z</time></trkpt><trkpt lat="43.79381133834433" lon="11.716289962330766"><ele>432.75</ele><time>2026-04-10T13:30:24.001Z</time></trkpt><trkpt lat="43.793715061187974" lon="11.716412104587805"><ele>433.0</ele><time>2026-04-10T13:30:25.001Z</time></trkpt><trkpt lat="43.79361286170625" lon="11.716536184410133"><ele>433.25</ele><time>2026-04-10T13:30:26.001Z</time></trkpt><trkpt lat="43.79350535748892" lon="11.716660424522097"><ele>433.5</ele><time>2026-04-10T13:30:27.001Z</time></trkpt><trkpt lat="43.793396204106685" lon="11.716781951051553"><ele>433.75</ele><time>2026-04-10T13:30:28.001Z</time></trkpt><trkpt lat="43.793287099792934" lon="11.71690683593027"><ele>434.0</ele><time>2026-04-10T13:30:29.001Z</time></trkpt><trkpt lat="43.79317850505551" lon="11.717030654297265"><ele>434.0</ele><time>2026-04-10T13:30:30.001Z</time></trkpt><trkpt lat="43.79307039461576" lon="11.71715617852509"><ele>434.0</ele><time>2026-04-10T13:30:31.001Z</time></trkpt><trkpt lat="43.7929607260854" lon="11.717283430105388"><ele>434.0</ele><time>2026-04-10T13:30:32.001Z</time></trkpt><trkpt lat="43.79284655260451" lon="11.717410451538957"><ele>434.0</ele><time>2026-04-10T13:30:33.001Z</time></trkpt><trkpt lat="43.79273334760203" lon="11.717537931300935"><ele>432.25</ele><time>2026-04-10T13:30:34.001Z</time></trkpt><trkpt lat="43.79261902196092" lon="11.717667515142592"><ele>430.5</ele><time>2026-04-10T13:30:35.001Z</time></trkpt><trkpt lat="43.792503576094894" lon="11.717795642969108"><ele>428.75</ele><time>2026-04-10T13:30:36.001Z</time></trkpt><trkpt lat="43.79238989436796" lon="11.717930915496252"><ele>427.0</ele><time>2026-04-10T13:30:37.001Z</time></trkpt><trkpt lat="43.7922749390071" lon="11.71806777776968"><ele>427.0</ele><time>2026-04-10T13:30:38.001Z</time></trkpt><trkpt lat="43.792159424961135" lon="11.718202471397703"><ele>427.0</ele><time>2026-04-10T13:30:39.001Z</time></trkpt><trkpt lat="43.792044568995806" lon="11.71833289074375"><ele>427.0</ele><time>2026-04-10T13:30:40.001Z</time></trkpt><trkpt lat="43.79193228390861" lon="11.718459778417397"><ele>427.0</ele><time>2026-04-10T13:30:41.001Z</time></trkpt><trkpt lat="43.791822585978466" lon="11.718582994506484"><ele>427.0</ele><time>2026-04-10T13:30:42.001Z</time></trkpt><trkpt lat="43.79171163117489" lon="11.718703533880053"><ele>427.0</ele><time>2026-04-10T13:30:43.001Z</time></trkpt><trkpt lat="43.79160200495762" lon="11.718823183029777"><ele>427.0</ele><time>2026-04-10T13:30:44.001Z</time></trkpt><trkpt lat="43.79150013990572" lon="11.718938631231017"><ele>427.0</ele><time>2026-04-10T13:30:45.001Z</time></trkpt><trkpt lat="43.791402551625985" lon="11.719049182055462"><ele>427.0</ele><time>2026-04-10T13:30:46.001Z</time></trkpt><trkpt lat="43.791304065630165" lon="11.719160065445145"><ele>427.0</ele><time>2026-04-10T13:30:47.001Z</time></trkpt><trkpt lat="43.79120242914274" lon="11.71927383416905"><ele>427.0</ele><time>2026-04-10T13:30:48.001Z</time></trkpt><trkpt lat="43.791109325385236" lon="11.71940163470303"><ele>427.0</ele><time>2026-04-10T13:30:49.001Z</time></trkpt><trkpt lat="43.7910227331314" lon="11.719559749576193"><ele>427.0</ele><time>2026-04-10T13:30:50.001Z</time></trkpt><trkpt lat="43.79094901397202" lon="11.719731188651874"><ele>427.0</ele><time>2026-04-10T13:30:51.001Z</time></trkpt><trkpt lat="43.790880558191475" lon="11.719915928765928"><ele>427.0</ele><time>2026-04-10T13:30:52.001Z</time></trkpt><trkpt lat="43.790813721230066" lon="11.7201056693948"><ele>427.0</ele><time>2026-04-10T13:30:53.001Z</time></trkpt><trkpt lat="43.790749260818494" lon="11.720296866012315"><ele>427.5</ele><time>2026-04-10T13:30:54.001Z</time></trkpt><trkpt lat="43.79068657405374" lon="11.720479590919638"><ele>428.0</ele><time>2026-04-10T13:30:55.001Z</time></trkpt><trkpt lat="43.790627769996114" lon="11.72064651567209"><ele>428.5</ele><time>2026-04-10T13:30:56.001Z</time></trkpt><trkpt lat="43.79056858574904" lon="11.720814509004878"><ele>429.0</ele><time>2026-04-10T13:30:57.001Z</time></trkpt><trkpt lat="43.790509447394655" lon="11.720983259893897"><ele>431.0</ele><time>2026-04-10T13:30:58.001Z</time></trkpt><trkpt lat="43.79044995376353" lon="11.72114166981325"><ele>433.0</ele><time>2026-04-10T13:30:59.001Z</time></trkpt><trkpt lat="43.7903899675778" lon="11.721290859903139"><ele>435.0</ele><time>2026-04-10T13:31:00.001Z</time></trkpt><trkpt lat="43.79031788343151" lon="11.72142237747313"><ele>437.0</ele><time>2026-04-10T13:31:01.001Z</time></trkpt><trkpt lat="43.790227880839595" lon="11.72152872925313"><ele>435.6</ele><time>2026-04-10T13:31:02.001Z</time></trkpt><trkpt lat="43.790131901208916" lon="11.721614996240891"><ele>434.20000000000005</ele><time>2026-04-10T13:31:03.001Z</time></trkpt><trkpt lat="43.79003763899962" lon="11.721686245878875"><ele>432.8</ele><time>2026-04-10T13:31:04.001Z</time></trkpt><trkpt lat="43.7899422603277" lon="11.721738518617247"><ele>431.4</ele><time>2026-04-10T13:31:05.001Z</time></trkpt><trkpt lat="43.789844098086405" lon="11.721771831108049"><ele>430.0</ele><time>2026-04-10T13:31:06.001Z</time></trkpt><trkpt lat="43.789740500581615" lon="11.721777782854277"><ele>430.0</ele><time>2026-04-10T13:31:07.001Z</time></trkpt><trkpt lat="43.78963080328552" lon="11.721784157822263"><ele>430.0</ele><time>2026-04-10T13:31:08.001Z</time></trkpt><trkpt lat="43.789514592551434" lon="11.721802859050515"><ele>430.0</ele><time>2026-04-10T13:31:09.001Z</time></trkpt><trkpt lat="43.789389730311854" lon="11.721816010859587"><ele>430.0</ele><time>2026-04-10T13:31:10.001Z</time></trkpt><trkpt lat="43.789263749896385" lon="11.72182572558489"><ele>429.5</ele><time>2026-04-10T13:31:11.001Z</time></trkpt><trkpt lat="43.78913978966188" lon="11.721831775198641"><ele>429.0</ele><time>2026-04-10T13:31:12.001Z</time></trkpt><trkpt lat="43.78901686624631" lon="11.721843567272124"><ele>428.5</ele><time>2026-04-10T13:31:13.001Z</time></trkpt><trkpt lat="43.78890073552009" lon="11.721853779073601"><ele>428.0</ele><time>2026-04-10T13:31:14.001Z</time></trkpt><trkpt lat="43.78879108164383" lon="11.72186024479209"><ele>428.0</ele><time>2026-04-10T13:31:15.001Z</time></trkpt><trkpt lat="43.788683129850476" lon="11.721871797266921"><ele>427.99999999999994</ele><time>2026-04-10T13:31:16.001Z</time></trkpt><trkpt lat="43.78857299872305" lon="11.721888377987154"><ele>427.99999999999994</ele><time>2026-04-10T13:31:17.001Z</time></trkpt><trkpt lat="43.788467855104116" lon="11.7219085184925"><ele>428.0</ele><time>2026-04-10T13:31:18.001Z</time></trkpt><trkpt lat="43.78836270434608" lon="11.721924874763836"><ele>428.0</ele><time>2026-04-10T13:31:19.001Z</time></trkpt><trkpt lat="43.78825831967317" lon="11.721941102762388"><ele>427.4</ele><time>2026-04-10T13:31:20.001Z</time></trkpt><trkpt lat="43.78816493207634" lon="11.721980039605356"><ele>426.79999999999995</ele><time>2026-04-10T13:31:21.001Z</time></trkpt><trkpt lat="43.78807217252697" lon="11.722019770132173"><ele>426.2</ele><time>2026-04-10T13:31:22.001Z</time></trkpt><trkpt lat="43.78797716594503" lon="11.722041199695862"><ele>425.6</ele><time>2026-04-10T13:31:23.001Z</time></trkpt><trkpt lat="43.78787616773132" lon="11.722060509800995"><ele>425.0</ele><time>2026-04-10T13:31:24.001Z</time></trkpt><trkpt lat="43.78776964410161" lon="11.722082933220959"><ele>424.5</ele><time>2026-04-10T13:31:25.001Z</time></trkpt><trkpt lat="43.78765042995996" lon="11.722104552669244"><ele>424.0</ele><time>2026-04-10T13:31:26.001Z</time></trkpt><trkpt lat="43.78753112894623" lon="11.722126142265004"><ele>423.5</ele><time>2026-04-10T13:31:27.001Z</time></trkpt><trkpt lat="43.78741495897008" lon="11.722157482318488"><ele>423.0</ele><time>2026-04-10T13:31:28.001Z</time></trkpt><trkpt lat="43.787283253582636" lon="11.722185668546512"><ele>423.0</ele><time>2026-04-10T13:31:29.001Z</time></trkpt><trkpt lat="43.78714759345822" lon="11.722211926293616"><ele>423.0</ele><time>2026-04-10T13:31:30.001Z</time></trkpt><trkpt lat="43.7870070956545" lon="11.722231810973694"><ele>423.0</ele><time>2026-04-10T13:31:31.001Z</time></trkpt><trkpt lat="43.78686917242525" lon="11.722257163450744"><ele>423.0</ele><time>2026-04-10T13:31:32.001Z</time></trkpt><trkpt lat="43.78673140315142" lon="11.722278047692848"><ele>422.25</ele><time>2026-04-10T13:31:33.001Z</time></trkpt><trkpt lat="43.786597632616065" lon="11.722299219744817"><ele>421.5</ele><time>2026-04-10T13:31:34.001Z</time></trkpt><trkpt lat="43.78646794103655" lon="11.722326128076125"><ele>420.75</ele><time>2026-04-10T13:31:35.001Z</time></trkpt><trkpt lat="43.786337391086725" lon="11.722346359463405"><ele>420.0</ele><time>2026-04-10T13:31:36.001Z</time></trkpt><trkpt lat="43.78620884660461" lon="11.722363676352874"><ele>420.0</ele><time>2026-04-10T13:31:37.001Z</time></trkpt><trkpt lat="43.78607949002867" lon="11.722388331554704"><ele>420.0</ele><time>2026-04-10T13:31:38.001Z</time></trkpt><trkpt lat="43.78594732195943" lon="11.72241606774269"><ele>420.0</ele><time>2026-04-10T13:31:39.001Z</time></trkpt><trkpt lat="43.785818159902334" lon="11.722444527930653"><ele>420.0</ele><time>2026-04-10T13:31:40.001Z</time></trkpt><trkpt lat="43.7856912842099" lon="11.722469887319724"><ele>418.75</ele><time>2026-04-10T13:31:41.001Z</time></trkpt><trkpt lat="43.78556374670854" lon="11.722485677031647"><ele>417.5</ele><time>2026-04-10T13:31:42.001Z</time></trkpt><trkpt lat="43.78543599839131" lon="11.722486278648311"><ele>416.25</ele><time>2026-04-10T13:31:43.001Z</time></trkpt><trkpt lat="43.78530909170154" lon="11.72247238828064"><ele>415.0</ele><time>2026-04-10T13:31:44.001Z</time></trkpt><trkpt lat="43.78517587612066" lon="11.722444558740392"><ele>414.75</ele><time>2026-04-10T13:31:45.001Z</time></trkpt><trkpt lat="43.78504103062899" lon="11.722414753837562"><ele>414.5</ele><time>2026-04-10T13:31:46.001Z</time></trkpt><trkpt lat="43.78491016728684" lon="11.722378973168768"><ele>414.25</ele><time>2026-04-10T13:31:47.001Z</time></trkpt><trkpt lat="43.78478104561917" lon="11.722337269053734"><ele>414.0</ele><time>2026-04-10T13:31:48.001Z</time></trkpt><trkpt lat="43.7846536983694" lon="11.722298309340074"><ele>414.0</ele><time>2026-04-10T13:31:49Z</time></trkpt><trkpt lat="43.784521187401744" lon="11.722274260888511"><ele>414.0</ele><time>2026-04-10T13:31:50Z</time></trkpt><trkpt lat="43.78438764533104" lon="11.722273710471317"><ele>414.0</ele><time>2026-04-10T13:31:51Z</time></trkpt><trkpt lat="43.78424913193903" lon="11.722307479743595"><ele>414.0</ele><time>2026-04-10T13:31:52Z</time></trkpt><trkpt lat="43.78410287425872" lon="11.72235086091997"><ele>413.0</ele><time>2026-04-10T13:31:53Z</time></trkpt><trkpt lat="43.78395420336449" lon="11.72239566652746"><ele>412.0</ele><time>2026-04-10T13:31:54Z</time></trkpt><trkpt lat="43.783803827773205" lon="11.722439816027768"><ele>411.0</ele><time>2026-04-10T13:31:55Z</time></trkpt><trkpt lat="43.78365846431134" lon="11.722479809125993"><ele>411.0</ele><time>2026-04-10T13:31:56Z</time></trkpt><trkpt lat="43.78352024496886" lon="11.722514679258872"><ele>411.0</ele><time>2026-04-10T13:31:57Z</time></trkpt><trkpt lat="43.78338697415079" lon="11.722552221153531"><ele>411.0</ele><time>2026-04-10T13:31:58Z</time></trkpt><trkpt lat="43.783250646657805" lon="11.722587107388222"><ele>411.0</ele><time>2026-04-10T13:31:59Z</time></trkpt><trkpt lat="43.783114062882646" lon="11.722624733246056"><ele>410.75</ele><time>2026-04-10T13:32:00Z</time></trkpt><trkpt lat="43.782978942528906" lon="11.722661337064682"><ele>410.5</ele><time>2026-04-10T13:32:01Z</time></trkpt><trkpt lat="43.78284918213126" lon="11.72270081845155"><ele>410.25</ele><time>2026-04-10T13:32:02Z</time></trkpt><trkpt lat="43.78272834684447" lon="11.722744185953175"><ele>410.0</ele><time>2026-04-10T13:32:03Z</time></trkpt><trkpt lat="43.782616214203976" lon="11.722795391040135"><ele>410.0</ele><time>2026-04-10T13:32:04Z</time></trkpt><trkpt lat="43.78250046050423" lon="11.722854701606833"><ele>410.0</ele><time>2026-04-10T13:32:05Z</time></trkpt><trkpt lat="43.78238430798351" lon="11.72293700169214"><ele>410.0</ele><time>2026-04-10T13:32:06Z</time></trkpt><trkpt lat="43.78227067090654" lon="11.723056838109171"><ele>410.0</ele><time>2026-04-10T13:32:07Z</time></trkpt><trkpt lat="43.782150707954685" lon="11.723181219245228"><ele>410.0</ele><time>2026-04-10T13:32:08Z</time></trkpt><trkpt lat="43.78202934461218" lon="11.723299872291632"><ele>410.0</ele><time>2026-04-10T13:32:09Z</time></trkpt><trkpt lat="43.78190967178427" lon="11.723411195467602"><ele>410.0</ele><time>2026-04-10T13:32:10Z</time></trkpt><trkpt lat="43.7817915407803" lon="11.7235229492551"><ele>410.0</ele><time>2026-04-10T13:32:11Z</time></trkpt><trkpt lat="43.781665305338215" lon="11.7236337192835"><ele>409.0</ele><time>2026-04-10T13:32:12Z</time></trkpt><trkpt lat="43.78141002428748" lon="11.723853931677374"><ele>408.0</ele><time>2026-04-10T13:32:14Z</time></trkpt><trkpt lat="43.78127863172214" lon="11.723957189592273"><ele>408.0</ele><time>2026-04-10T13:32:15Z</time></trkpt><trkpt lat="43.781150017893864" lon="11.724056992693558"><ele>408.0</ele><time>2026-04-10T13:32:16Z</time></trkpt><trkpt lat="43.78101897730663" lon="11.724154483627402"><ele>408.0</ele><time>2026-04-10T13:32:17Z</time></trkpt><trkpt lat="43.78088746304037" lon="11.724253100180633"><ele>408.0</ele><time>2026-04-10T13:32:18Z</time></trkpt><trkpt lat="43.78075383529761" lon="11.724351885955544"><ele>407.75</ele><time>2026-04-10T13:32:19Z</time></trkpt><trkpt lat="43.7806212935565" lon="11.724449707492033"><ele>407.5</ele><time>2026-04-10T13:32:20Z</time></trkpt><trkpt lat="43.78049055955924" lon="11.724544591181887"><ele>407.25</ele><time>2026-04-10T13:32:21Z</time></trkpt><trkpt lat="43.78036152316675" lon="11.724640851300864"><ele>407.0</ele><time>2026-04-10T13:32:22Z</time></trkpt><trkpt lat="43.7802307448512" lon="11.72473701421186"><ele>406.75</ele><time>2026-04-10T13:32:23Z</time></trkpt><trkpt lat="43.78009828455136" lon="11.724830184316504"><ele>406.5</ele><time>2026-04-10T13:32:24Z</time></trkpt><trkpt lat="43.77996652102065" lon="11.724910461271461"><ele>406.25</ele><time>2026-04-10T13:32:25Z</time></trkpt><trkpt lat="43.77983519675634" lon="11.724968717375958"><ele>406.0</ele><time>2026-04-10T13:32:26Z</time></trkpt><trkpt lat="43.779698652200246" lon="11.725005373255254"><ele>406.0</ele><time>2026-04-10T13:32:27Z</time></trkpt><trkpt lat="43.779563633430534" lon="11.72500993830622"><ele>406.0</ele><time>2026-04-10T13:32:28Z</time></trkpt><trkpt lat="43.77944014286401" lon="11.724992465263432"><ele>406.0</ele><time>2026-04-10T13:32:29Z</time></trkpt><trkpt lat="43.77932620352132" lon="11.724949050824105"><ele>406.0</ele><time>2026-04-10T13:32:30Z</time></trkpt><trkpt lat="43.779229511139505" lon="11.724868520550736"><ele>405.8</ele><time>2026-04-10T13:32:31Z</time></trkpt><trkpt lat="43.7791461811557" lon="11.724773485149711"><ele>405.6</ele><time>2026-04-10T13:32:32Z</time></trkpt><trkpt lat="43.779067618905245" lon="11.724705529604162"><ele>405.4</ele><time>2026-04-10T13:32:33Z</time></trkpt><trkpt lat="43.77899007021214" lon="11.724669730997782"><ele>405.2</ele><time>2026-04-10T13:32:34Z</time></trkpt><trkpt lat="43.778903065167235" lon="11.724713713275793"><ele>405.0</ele><time>2026-04-10T13:32:35Z</time></trkpt><trkpt lat="43.77882201021887" lon="11.72482059876058"><ele>405.0</ele><time>2026-04-10T13:32:36Z</time></trkpt><trkpt lat="43.778719054919236" lon="11.724905467901824"><ele>405.0</ele><time>2026-04-10T13:32:37Z</time></trkpt><trkpt lat="43.77859677696431" lon="11.724940512027944"><ele>405.0</ele><time>2026-04-10T13:32:38Z</time></trkpt><trkpt lat="43.77846459577779" lon="11.724934258819756"><ele>405.0</ele><time>2026-04-10T13:32:39Z</time></trkpt><trkpt lat="43.778321590802605" lon="11.724915676459643"><ele>404.33333333333337</ele><time>2026-04-10T13:32:40Z</time></trkpt><trkpt lat="43.778170798074036" lon="11.724906898752405"><ele>403.6666666666667</ele><time>2026-04-10T13:32:41Z</time></trkpt><trkpt lat="43.7780129980874" lon="11.72490704227503"><ele>403.0</ele><time>2026-04-10T13:32:42Z</time></trkpt><trkpt lat="43.77785240019533" lon="11.724917535561428"><ele>403.0</ele><time>2026-04-10T13:32:43Z</time></trkpt><trkpt lat="43.7776960807608" lon="11.72493797811156"><ele>403.0</ele><time>2026-04-10T13:32:44Z</time></trkpt><trkpt lat="43.77753658375389" lon="11.724962554930903"><ele>403.0</ele><time>2026-04-10T13:32:45Z</time></trkpt><trkpt lat="43.77736744564149" lon="11.724989609844396"><ele>402.33333333333337</ele><time>2026-04-10T13:32:46Z</time></trkpt><trkpt lat="43.77719316559291" lon="11.72503188909329"><ele>401.66666666666663</ele><time>2026-04-10T13:32:47Z</time></trkpt><trkpt lat="43.77701501016751" lon="11.725097218698659"><ele>401.0</ele><time>2026-04-10T13:32:48Z</time></trkpt><trkpt lat="43.7768376177493" lon="11.72517879805031"><ele>403.0</ele><time>2026-04-10T13:32:49Z</time></trkpt><trkpt lat="43.776661063596876" lon="11.725280577984567"><ele>405.0</ele><time>2026-04-10T13:32:50Z</time></trkpt><trkpt lat="43.77648705319243" lon="11.725401863411726"><ele>407.0</ele><time>2026-04-10T13:32:51Z</time></trkpt><trkpt lat="43.776313648397746" lon="11.725529287111245"><ele>407.0</ele><time>2026-04-10T13:32:52Z</time></trkpt><trkpt lat="43.77613973470297" lon="11.725657563656267"><ele>407.0</ele><time>2026-04-10T13:32:53Z</time></trkpt><trkpt lat="43.77596683530974" lon="11.725788654389026"><ele>407.0</ele><time>2026-04-10T13:32:54Z</time></trkpt><trkpt lat="43.77579477471685" lon="11.725914758063237"><ele>408.0</ele><time>2026-04-10T13:32:55Z</time></trkpt><trkpt lat="43.77562285556381" lon="11.726036182747603"><ele>409.0</ele><time>2026-04-10T13:32:56Z</time></trkpt><trkpt lat="43.775450447820695" lon="11.726159890299149"><ele>410.0</ele><time>2026-04-10T13:32:57Z</time></trkpt><trkpt lat="43.77527729555519" lon="11.72628489897474"><ele>407.3333333333333</ele><time>2026-04-10T13:32:58Z</time></trkpt><trkpt lat="43.77510144653192" lon="11.726410660922225"><ele>404.66666666666663</ele><time>2026-04-10T13:32:59Z</time></trkpt><trkpt lat="43.77492298676194" lon="11.726535298050614"><ele>402.0</ele><time>2026-04-10T13:33:00Z</time></trkpt><trkpt lat="43.77474229761913" lon="11.726664324630597"><ele>402.0</ele><time>2026-04-10T13:33:01Z</time></trkpt><trkpt lat="43.77456331876971" lon="11.726794681917454"><ele>402.0</ele><time>2026-04-10T13:33:02Z</time></trkpt><trkpt lat="43.77438741088177" lon="11.726925065741986"><ele>402.0</ele><time>2026-04-10T13:33:03Z</time></trkpt><trkpt lat="43.77421203458149" lon="11.727054632117177"><ele>402.0</ele><time>2026-04-10T13:33:04.001Z</time></trkpt><trkpt lat="43.77403716447503" lon="11.727177392983375"><ele>402.0</ele><time>2026-04-10T13:33:05.001Z</time></trkpt><trkpt lat="43.7738652248241" lon="11.72729868188569"><ele>402.0</ele><time>2026-04-10T13:33:06.001Z</time></trkpt><trkpt lat="43.77370197782172" lon="11.72741627936029"><ele>402.0</ele><time>2026-04-10T13:33:07.001Z</time></trkpt><trkpt lat="43.77354099827109" lon="11.72753071138667"><ele>402.0</ele><time>2026-04-10T13:33:08.001Z</time></trkpt><trkpt lat="43.773378172145215" lon="11.727645361091422"><ele>402.0</ele><time>2026-04-10T13:33:09.001Z</time></trkpt><trkpt lat="43.77321512519696" lon="11.727757273524238"><ele>403.33333333333337</ele><time>2026-04-10T13:33:10.001Z</time></trkpt><trkpt lat="43.773050845261594" lon="11.727866711269632"><ele>404.6666666666667</ele><time>2026-04-10T13:33:11.001Z</time></trkpt><trkpt lat="43.772888523495794" lon="11.727971058241849"><ele>406.0</ele><time>2026-04-10T13:33:12.001Z</time></trkpt><trkpt lat="43.772734127186936" lon="11.728060844447567"><ele>403.6666666666667</ele><time>2026-04-10T13:33:13.001Z</time></trkpt><trkpt lat="43.77258270724205" lon="11.728135397925035"><ele>401.33333333333337</ele><time>2026-04-10T13:33:14.001Z</time></trkpt><trkpt lat="43.772433034193945" lon="11.728207407374255"><ele>399.0</ele><time>2026-04-10T13:33:15.001Z</time></trkpt><trkpt lat="43.77228309836103" lon="11.728287036801266"><ele>399.0</ele><time>2026-04-10T13:33:16.001Z</time></trkpt><trkpt lat="43.77213433732699" lon="11.728362802178905"><ele>399.0</ele><time>2026-04-10T13:33:17.001Z</time></trkpt><trkpt lat="43.771993629090886" lon="11.728433639294892"><ele>399.0</ele><time>2026-04-10T13:33:18.001Z</time></trkpt><trkpt lat="43.77185916250984" lon="11.728502289951106"><ele>400.5</ele><time>2026-04-10T13:33:19.001Z</time></trkpt><trkpt lat="43.771731307662144" lon="11.728569156868858"><ele>402.0</ele><time>2026-04-10T13:33:20.001Z</time></trkpt><trkpt lat="43.77161101392582" lon="11.728631316617893"><ele>403.5</ele><time>2026-04-10T13:33:21.001Z</time></trkpt><trkpt lat="43.771494318855034" lon="11.728693768117916"><ele>405.0</ele><time>2026-04-10T13:33:22.001Z</time></trkpt><trkpt lat="43.77138576862475" lon="11.728770080315105"><ele>405.0</ele><time>2026-04-10T13:33:23.001Z</time></trkpt><trkpt lat="43.77129084197251" lon="11.72887245995804"><ele>405.0</ele><time>2026-04-10T13:33:24.001Z</time></trkpt><trkpt lat="43.77120626147964" lon="11.729004662616658"><ele>405.0</ele><time>2026-04-10T13:33:25.001Z</time></trkpt><trkpt lat="43.771123398308866" lon="11.729143071419498"><ele>405.0</ele><time>2026-04-10T13:33:26.001Z</time></trkpt><trkpt lat="43.77102195690205" lon="11.729263553682252"><ele>404.33333333333337</ele><time>2026-04-10T13:33:27.001Z</time></trkpt><trkpt lat="43.77088566502191" lon="11.729349638494268"><ele>403.6666666666667</ele><time>2026-04-10T13:33:28.001Z</time></trkpt><trkpt lat="43.770733930904136" lon="11.729405406628512"><ele>403.0</ele><time>2026-04-10T13:33:29.001Z</time></trkpt><trkpt lat="43.770575330330686" lon="11.72945828522127"><ele>403.0</ele><time>2026-04-10T13:33:30.001Z</time></trkpt><trkpt lat="43.7704121075587" lon="11.72952221183186"><ele>403.0</ele><time>2026-04-10T13:33:31.001Z</time></trkpt><trkpt lat="43.77024711369054" lon="11.729589427740816"><ele>403.0</ele><time>2026-04-10T13:33:32.001Z</time></trkpt><trkpt lat="43.77008749948762" lon="11.729658214716867"><ele>402.33333333333337</ele><time>2026-04-10T13:33:33.001Z</time></trkpt><trkpt lat="43.769928925254725" lon="11.72973482182855"><ele>401.66666666666663</ele><time>2026-04-10T13:33:34.001Z</time></trkpt><trkpt lat="43.769771810969985" lon="11.729815736124637"><ele>401.0</ele><time>2026-04-10T13:33:35.001Z</time></trkpt><trkpt lat="43.76961525074928" lon="11.729897435920616"><ele>401.0</ele><time>2026-04-10T13:33:36.001Z</time></trkpt><trkpt lat="43.76945236478119" lon="11.729975946483624"><ele>401.0</ele><time>2026-04-10T13:33:37.001Z</time></trkpt><trkpt lat="43.76928393708044" lon="11.730054025571388"><ele>401.0</ele><time>2026-04-10T13:33:38.001Z</time></trkpt><trkpt lat="43.76911149913683" lon="11.730136034437228"><ele>400.66666666666663</ele><time>2026-04-10T13:33:39.001Z</time></trkpt><trkpt lat="43.768938075844645" lon="11.730217873237192"><ele>400.33333333333337</ele><time>2026-04-10T13:33:40.001Z</time></trkpt><trkpt lat="43.76877005318176" lon="11.730294724496563"><ele>400.0</ele><time>2026-04-10T13:33:41.001Z</time></trkpt><trkpt lat="43.76860269651367" lon="11.730357667419552"><ele>402.33333333333337</ele><time>2026-04-10T13:33:42.001Z</time></trkpt><trkpt lat="43.76843568004594" lon="11.73039641663504"><ele>404.66666666666663</ele><time>2026-04-10T13:33:43.001Z</time></trkpt><trkpt lat="43.76826449586528" lon="11.730416060908174"><ele>407.0</ele><time>2026-04-10T13:33:44.001Z</time></trkpt><trkpt lat="43.76809264288012" lon="11.730426323070368"><ele>407.0</ele><time>2026-04-10T13:33:45.001Z</time></trkpt><trkpt lat="43.767919625126005" lon="11.730433264205491"><ele>407.0</ele><time>2026-04-10T13:33:46.001Z</time></trkpt><trkpt lat="43.76774593730826" lon="11.730442258217666"><ele>407.0</ele><time>2026-04-10T13:33:47.001Z</time></trkpt><trkpt lat="43.76757534800518" lon="11.730452619099804"><ele>406.66666666666663</ele><time>2026-04-10T13:33:48.001Z</time></trkpt><trkpt lat="43.76740498594939" lon="11.730472003538338"><ele>406.33333333333337</ele><time>2026-04-10T13:33:49.001Z</time></trkpt><trkpt lat="43.76723248444863" lon="11.730506929682056"><ele>406.0</ele><time>2026-04-10T13:33:50.001Z</time></trkpt><trkpt lat="43.767055358627836" lon="11.73056505420229"><ele>406.0</ele><time>2026-04-10T13:33:51.001Z</time></trkpt><trkpt lat="43.766878934580205" lon="11.730641542268613"><ele>406.0</ele><time>2026-04-10T13:33:52.001Z</time></trkpt><trkpt lat="43.766703060772585" lon="11.730732121970258"><ele>406.0</ele><time>2026-04-10T13:33:53.001Z</time></trkpt><trkpt lat="43.76653461565426" lon="11.730824295363668"><ele>406.6666666666667</ele><time>2026-04-10T13:33:54.001Z</time></trkpt><trkpt lat="43.76637706380217" lon="11.730910832462264"><ele>407.33333333333337</ele><time>2026-04-10T13:33:54.999Z</time></trkpt><trkpt lat="43.76621752440292" lon="11.73099416929495"><ele>408.0</ele><time>2026-04-10T13:33:55.999Z</time></trkpt><trkpt lat="43.76606402742755" lon="11.731076315347327"><ele>406.33333333333337</ele><time>2026-04-10T13:33:56.999Z</time></trkpt><trkpt lat="43.76591891683691" lon="11.731156760645955"><ele>404.6666666666667</ele><time>2026-04-10T13:33:57.999Z</time></trkpt><trkpt lat="43.76577453392297" lon="11.731246217601118"><ele>403.0</ele><time>2026-04-10T13:33:58.999Z</time></trkpt><trkpt lat="43.76563485784553" lon="11.731360295298522"><ele>403.0</ele><time>2026-04-10T13:33:59.999Z</time></trkpt><trkpt lat="43.76550207630139" lon="11.731477887144537"><ele>403.0</ele><time>2026-04-10T13:34:00.999Z</time></trkpt><trkpt lat="43.765373317665286" lon="11.731592427208765"><ele>403.0</ele><time>2026-04-10T13:34:01.999Z</time></trkpt><trkpt lat="43.76525223882748" lon="11.731703458176845"><ele>402.25</ele><time>2026-04-10T13:34:02.999Z</time></trkpt><trkpt lat="43.76513427454918" lon="11.731807790701133"><ele>401.5</ele><time>2026-04-10T13:34:03.999Z</time></trkpt><trkpt lat="43.76501076359407" lon="11.731914527080447"><ele>400.75</ele><time>2026-04-10T13:34:04.999Z</time></trkpt><trkpt lat="43.764882923236726" lon="11.732019610844418"><ele>400.0</ele><time>2026-04-10T13:34:05.999Z</time></trkpt><trkpt lat="43.764743917838445" lon="11.732114412293216"><ele>400.0</ele><time>2026-04-10T13:34:06.999Z</time></trkpt><trkpt lat="43.76459663299225" lon="11.732190632843032"><ele>400.0</ele><time>2026-04-10T13:34:07.999Z</time></trkpt><trkpt lat="43.76444211858627" lon="11.73225074383944"><ele>400.0</ele><time>2026-04-10T13:34:08.999Z</time></trkpt><trkpt lat="43.76428283231746" lon="11.7323044454559"><ele>399.33333333333337</ele><time>2026-04-10T13:34:10Z</time></trkpt><trkpt lat="43.76412147378075" lon="11.73235873633159"><ele>398.66666666666663</ele><time>2026-04-10T13:34:11Z</time></trkpt><trkpt lat="43.763960345597475" lon="11.732420075663743"><ele>398.0</ele><time>2026-04-10T13:34:12Z</time></trkpt><trkpt lat="43.76380278352782" lon="11.732477808927491"><ele>398.0</ele><time>2026-04-10T13:34:13Z</time></trkpt><trkpt lat="43.76365080996081" lon="11.732531374535276"><ele>398.0</ele><time>2026-04-10T13:34:14Z</time></trkpt><trkpt lat="43.76350032973631" lon="11.732582074120105"><ele>398.0</ele><time>2026-04-10T13:34:15Z</time></trkpt><trkpt lat="43.76335200318199" lon="11.732633019604958"><ele>397.66666666666663</ele><time>2026-04-10T13:34:16Z</time></trkpt><trkpt lat="43.763202520748074" lon="11.732684341912332"><ele>397.33333333333337</ele><time>2026-04-10T13:34:17Z</time></trkpt><trkpt lat="43.7630551307813" lon="11.732738908272012"><ele>397.0</ele><time>2026-04-10T13:34:18Z</time></trkpt><trkpt lat="43.76291084174837" lon="11.732794635895113"><ele>397.0</ele><time>2026-04-10T13:34:19Z</time></trkpt><trkpt lat="43.762768350544796" lon="11.732847260550631"><ele>397.0</ele><time>2026-04-10T13:34:20Z</time></trkpt><trkpt lat="43.762625417803804" lon="11.732897959938532"><ele>397.0</ele><time>2026-04-10T13:34:21Z</time></trkpt><trkpt lat="43.76248224240453" lon="11.732949420234903"><ele>397.0</ele><time>2026-04-10T13:34:22Z</time></trkpt><trkpt lat="43.762334143726505" lon="11.733000006678148"><ele>396.33333333333337</ele><time>2026-04-10T13:34:23Z</time></trkpt><trkpt lat="43.7621827198665" lon="11.73305079805885"><ele>395.66666666666663</ele><time>2026-04-10T13:34:24Z</time></trkpt><trkpt lat="43.76203001433384" lon="11.733101710927563"><ele>395.0</ele><time>2026-04-10T13:34:25Z</time></trkpt><trkpt lat="43.761880748147625" lon="11.733153053171339"><ele>394.5</ele><time>2026-04-10T13:34:26Z</time></trkpt><trkpt lat="43.76173546787363" lon="11.733202759757532"><ele>394.0</ele><time>2026-04-10T13:34:27Z</time></trkpt><trkpt lat="43.761593761329124" lon="11.733253550815036"><ele>393.5</ele><time>2026-04-10T13:34:28Z</time></trkpt><trkpt lat="43.76145640300781" lon="11.733310341104177"><ele>393.0</ele><time>2026-04-10T13:34:29Z</time></trkpt><trkpt lat="43.761326494470914" lon="11.733382593230315"><ele>393.0</ele><time>2026-04-10T13:34:30Z</time></trkpt><trkpt lat="43.761203624947285" lon="11.733474472722351"><ele>393.0</ele><time>2026-04-10T13:34:31Z</time></trkpt><trkpt lat="43.76108748566198" lon="11.733589722743535"><ele>393.0</ele><time>2026-04-10T13:34:32Z</time></trkpt><trkpt lat="43.76097473906231" lon="11.733709176703075"><ele>393.0</ele><time>2026-04-10T13:34:33Z</time></trkpt><trkpt lat="43.760869486582806" lon="11.733837846761489"><ele>392.75</ele><time>2026-04-10T13:34:34Z</time></trkpt><trkpt lat="43.760760684755176" lon="11.733977062824362"><ele>392.5</ele><time>2026-04-10T13:34:35Z</time></trkpt><trkpt lat="43.760651078864306" lon="11.734118849367796"><ele>392.25</ele><time>2026-04-10T13:34:36Z</time></trkpt><trkpt lat="43.760534991711125" lon="11.73425181544689"><ele>392.0</ele><time>2026-04-10T13:34:37Z</time></trkpt><trkpt lat="43.760412257448735" lon="11.734373329111696"><ele>391.3333333333333</ele><time>2026-04-10T13:34:38Z</time></trkpt><trkpt lat="43.760283723816926" lon="11.734482743655068"><ele>390.66666666666663</ele><time>2026-04-10T13:34:39Z</time></trkpt><trkpt lat="43.76014907025372" lon="11.73457937800816"><ele>390.0</ele><time>2026-04-10T13:34:40Z</time></trkpt><trkpt lat="43.760010354131786" lon="11.734658576749105"><ele>390.0</ele><time>2026-04-10T13:34:41Z</time></trkpt><trkpt lat="43.75987274425533" lon="11.734736193390598"><ele>390.0</ele><time>2026-04-10T13:34:42Z</time></trkpt><trkpt lat="43.759734385487405" lon="11.734816111927136"><ele>390.0</ele><time>2026-04-10T13:34:43Z</time></trkpt><trkpt lat="43.75959707154262" lon="11.73489144667701"><ele>390.0</ele><time>2026-04-10T13:34:44Z</time></trkpt><trkpt lat="43.75946089019866" lon="11.734965357141256"><ele>389.25</ele><time>2026-04-10T13:34:45Z</time></trkpt><trkpt lat="43.75932655830888" lon="11.735042807850881"><ele>388.5</ele><time>2026-04-10T13:34:46Z</time></trkpt><trkpt lat="43.75919179949767" lon="11.735125303468266"><ele>387.75</ele><time>2026-04-10T13:34:47Z</time></trkpt><trkpt lat="43.759051120575464" lon="11.735212049266375"><ele>387.0</ele><time>2026-04-10T13:34:48Z</time></trkpt><trkpt lat="43.758908540608985" lon="11.735297768326136"><ele>386.66666666666663</ele><time>2026-04-10T13:34:49Z</time></trkpt><trkpt lat="43.75876352126295" lon="11.735382363840445"><ele>386.3333333333333</ele><time>2026-04-10T13:34:50Z</time></trkpt><trkpt lat="43.75861821457636" lon="11.735467693122796"><ele>386.0</ele><time>2026-04-10T13:34:51Z</time></trkpt><trkpt lat="43.75847488553766" lon="11.735551958617389"><ele>384.66666666666663</ele><time>2026-04-10T13:34:52Z</time></trkpt><trkpt lat="43.7583311385159" lon="11.73562971224702"><ele>383.3333333333333</ele><time>2026-04-10T13:34:53Z</time></trkpt><trkpt lat="43.75818528686663" lon="11.735711897954841"><ele>382.0</ele><time>2026-04-10T13:34:54Z</time></trkpt><trkpt lat="43.75804227930422" lon="11.735798714024739"><ele>382.0</ele><time>2026-04-10T13:34:55Z</time></trkpt><trkpt lat="43.75789931835943" lon="11.73588188225365"><ele>382.0</ele><time>2026-04-10T13:34:56Z</time></trkpt><trkpt lat="43.75775601072209" lon="11.73596256231225"><ele>382.0</ele><time>2026-04-10T13:34:57Z</time></trkpt><trkpt lat="43.75761313116541" lon="11.736047721146896"><ele>382.3333333333333</ele><time>2026-04-10T13:34:58Z</time></trkpt><trkpt lat="43.75747164236064" lon="11.73613373843608"><ele>382.6666666666667</ele><time>2026-04-10T13:34:59Z</time></trkpt><trkpt lat="43.75733251245572" lon="11.736221553958814"><ele>383.0</ele><time>2026-04-10T13:35:00Z</time></trkpt><trkpt lat="43.75719655093168" lon="11.736305288151154"><ele>383.0</ele><time>2026-04-10T13:35:01Z</time></trkpt><trkpt lat="43.757061589502385" lon="11.736378471826914"><ele>383.0</ele><time>2026-04-10T13:35:02Z</time></trkpt><trkpt lat="43.75692379227935" lon="11.736422750935036"><ele>383.0</ele><time>2026-04-10T13:35:03Z</time></trkpt><trkpt lat="43.75678560780566" lon="11.73643480664704"><ele>383.0</ele><time>2026-04-10T13:35:04.001Z</time></trkpt><trkpt lat="43.7566540663905" lon="11.736422290065851"><ele>382.25</ele><time>2026-04-10T13:35:05.001Z</time></trkpt><trkpt lat="43.75652479538754" lon="11.73640027894918"><ele>381.5</ele><time>2026-04-10T13:35:06.001Z</time></trkpt><trkpt lat="43.756400942965676" lon="11.736379192345458"><ele>380.75</ele><time>2026-04-10T13:35:07.001Z</time></trkpt><trkpt lat="43.75627814100977" lon="11.736375457363886"><ele>380.0</ele><time>2026-04-10T13:35:08.001Z</time></trkpt><trkpt lat="43.756152506083446" lon="11.736405735328821"><ele>379.25</ele><time>2026-04-10T13:35:09.001Z</time></trkpt><trkpt lat="43.75602645656313" lon="11.73647525260524"><ele>378.5</ele><time>2026-04-10T13:35:10.001Z</time></trkpt><trkpt lat="43.75590446248089" lon="11.736577631707021"><ele>377.75</ele><time>2026-04-10T13:35:11.001Z</time></trkpt><trkpt lat="43.75578516429203" lon="11.736699597200314"><ele>377.0</ele><time>2026-04-10T13:35:12.001Z</time></trkpt><trkpt lat="43.75566688085364" lon="11.736837561798183"><ele>378.33333333333337</ele><time>2026-04-10T13:35:13.001Z</time></trkpt><trkpt lat="43.7555420163131" lon="11.7369806441741"><ele>379.6666666666667</ele><time>2026-04-10T13:35:14.001Z</time></trkpt><trkpt lat="43.755409212158675" lon="11.737130716753994"><ele>381.0</ele><time>2026-04-10T13:35:15.001Z</time></trkpt><trkpt lat="43.755272235586204" lon="11.73728106381172"><ele>379.0</ele><time>2026-04-10T13:35:16.001Z</time></trkpt><trkpt lat="43.75512982547157" lon="11.737426586772854"><ele>377.0</ele><time>2026-04-10T13:35:17.001Z</time></trkpt><trkpt lat="43.754985698391465" lon="11.737568966906256"><ele>375.0</ele><time>2026-04-10T13:35:18.001Z</time></trkpt><trkpt lat="43.75484044247054" lon="11.737707571197731"><ele>376.0</ele><time>2026-04-10T13:35:19.001Z</time></trkpt><trkpt lat="43.754691488555935" lon="11.73783879108762"><ele>377.0</ele><time>2026-04-10T13:35:20.001Z</time></trkpt><trkpt lat="43.75454510578389" lon="11.737969476534744"><ele>378.0</ele><time>2026-04-10T13:35:21.001Z</time></trkpt><trkpt lat="43.75440027730549" lon="11.738103098080927"><ele>377.0</ele><time>2026-04-10T13:35:22.001Z</time></trkpt><trkpt lat="43.754255173873794" lon="11.738236447663425"><ele>376.0</ele><time>2026-04-10T13:35:23.001Z</time></trkpt><trkpt lat="43.75411046576002" lon="11.738367070932693"><ele>375.0</ele><time>2026-04-10T13:35:24.001Z</time></trkpt><trkpt lat="43.753958609581815" lon="11.738510530480546"><ele>375.6666666666667</ele><time>2026-04-10T13:35:25.001Z</time></trkpt><trkpt lat="43.75380165371025" lon="11.738663014486155"><ele>376.33333333333337</ele><time>2026-04-10T13:35:26.001Z</time></trkpt><trkpt lat="43.75362825952224" lon="11.738800508799262"><ele>377.0</ele><time>2026-04-10T13:35:27.001Z</time></trkpt><trkpt lat="43.753455729359366" lon="11.738956710857225"><ele>376.33333333333337</ele><time>2026-04-10T13:35:28.001Z</time></trkpt><trkpt lat="43.75328371509129" lon="11.739114693852107"><ele>375.6666666666667</ele><time>2026-04-10T13:35:29.001Z</time></trkpt><trkpt lat="43.75311113189194" lon="11.739275426118299"><ele>375.0</ele><time>2026-04-10T13:35:30.001Z</time></trkpt><trkpt lat="43.7529443718551" lon="11.739451388543733"><ele>375.0</ele><time>2026-04-10T13:35:31.001Z</time></trkpt><trkpt lat="43.752764207341464" lon="11.739603875651191"><ele>375.0</ele><time>2026-04-10T13:35:32.001Z</time></trkpt><trkpt lat="43.752584836181725" lon="11.739762218871874"><ele>375.0</ele><time>2026-04-10T13:35:33.001Z</time></trkpt><trkpt lat="43.75240868581663" lon="11.739924505824971"><ele>374.3333333333333</ele><time>2026-04-10T13:35:34.001Z</time></trkpt><trkpt lat="43.752233706247274" lon="11.740085111996068"><ele>373.66666666666663</ele><time>2026-04-10T13:35:35.001Z</time></trkpt><trkpt lat="43.75206053105767" lon="11.740243144234848"><ele>373.0</ele><time>2026-04-10T13:35:36.001Z</time></trkpt><trkpt lat="43.75189066810478" lon="11.74039929191585"><ele>373.0</ele><time>2026-04-10T13:35:37.001Z</time></trkpt><trkpt lat="43.75172410185061" lon="11.740551834996568"><ele>373.0</ele><time>2026-04-10T13:35:38.001Z</time></trkpt><trkpt lat="43.751558348180446" lon="11.740703918855116"><ele>373.0</ele><time>2026-04-10T13:35:39.001Z</time></trkpt><trkpt lat="43.751396741820386" lon="11.740849394059738"><ele>373.0</ele><time>2026-04-10T13:35:40.001Z</time></trkpt><trkpt lat="43.751238656588356" lon="11.740996794382871"><ele>373.0</ele><time>2026-04-10T13:35:41.001Z</time></trkpt><trkpt lat="43.751081926753066" lon="11.74114552382441"><ele>373.0</ele><time>2026-04-10T13:35:42.001Z</time></trkpt><trkpt lat="43.75092159617428" lon="11.74128692549145"><ele>373.0</ele><time>2026-04-10T13:35:43.001Z</time></trkpt><trkpt lat="43.75076036129557" lon="11.741418067023815"><ele>373.0</ele><time>2026-04-10T13:35:44.001Z</time></trkpt><trkpt lat="43.750590175437196" lon="11.741526449573092"><ele>373.0</ele><time>2026-04-10T13:35:45.001Z</time></trkpt><trkpt lat="43.75041356381741" lon="11.741618305997822"><ele>373.0</ele><time>2026-04-10T13:35:46.001Z</time></trkpt><trkpt lat="43.7502301282752" lon="11.741693920341428"><ele>373.0</ele><time>2026-04-10T13:35:47.001Z</time></trkpt><trkpt lat="43.75004271278045" lon="11.741762876453146"><ele>373.0</ele><time>2026-04-10T13:35:48.001Z</time></trkpt><trkpt lat="43.74985304691302" lon="11.741840763217057"><ele>372.3333333333333</ele><time>2026-04-10T13:35:49.001Z</time></trkpt><trkpt lat="43.749663449072536" lon="11.741929231887271"><ele>371.6666666666667</ele><time>2026-04-10T13:35:50.001Z</time></trkpt><trkpt lat="43.749471207354595" lon="11.742034146354662"><ele>371.0</ele><time>2026-04-10T13:35:51.001Z</time></trkpt><trkpt lat="43.74928408809818" lon="11.742151751118003"><ele>370.0</ele><time>2026-04-10T13:35:52.001Z</time></trkpt><trkpt lat="43.74909481721789" lon="11.742273818944541"><ele>369.0</ele><time>2026-04-10T13:35:53.001Z</time></trkpt><trkpt lat="43.7489047382986" lon="11.742394438853928"><ele>368.0</ele><time>2026-04-10T13:35:54.001Z</time></trkpt><trkpt lat="43.74871532754818" lon="11.742510074734682"><ele>367.6666666666667</ele><time>2026-04-10T13:35:55.001Z</time></trkpt><trkpt lat="43.74853021309036" lon="11.742624329029233"><ele>367.3333333333333</ele><time>2026-04-10T13:35:56.001Z</time></trkpt><trkpt lat="43.74835702210221" lon="11.742732887776237"><ele>367.0</ele><time>2026-04-10T13:35:57.001Z</time></trkpt><trkpt lat="43.748192355897885" lon="11.742837415425374"><ele>367.0</ele><time>2026-04-10T13:35:58.001Z</time></trkpt><trkpt lat="43.748031102098174" lon="11.74293661403789"><ele>367.0</ele><time>2026-04-10T13:35:59.001Z</time></trkpt><trkpt lat="43.747872890826265" lon="11.743033198256184"><ele>367.0</ele><time>2026-04-10T13:36:00.001Z</time></trkpt><trkpt lat="43.74771407772189" lon="11.743131722788192"><ele>366.3333333333333</ele><time>2026-04-10T13:36:01Z</time></trkpt><trkpt lat="43.74755989542401" lon="11.74323278478694"><ele>365.6666666666667</ele><time>2026-04-10T13:36:02Z</time></trkpt><trkpt lat="43.74741495492676" lon="11.743331515264558"><ele>365.0</ele><time>2026-04-10T13:36:03Z</time></trkpt><trkpt lat="43.74727464808599" lon="11.74342724516667"><ele>365.0</ele><time>2026-04-10T13:36:04Z</time></trkpt><trkpt lat="43.74712479873863" lon="11.743498665401582"><ele>365.0</ele><time>2026-04-10T13:36:05Z</time></trkpt><trkpt lat="43.74698504279467" lon="11.743609164714808"><ele>365.0</ele><time>2026-04-10T13:36:06Z</time></trkpt><trkpt lat="43.746842747156194" lon="11.743694847251271"><ele>366.0</ele><time>2026-04-10T13:36:07Z</time></trkpt><trkpt lat="43.74670791991854" lon="11.743781917810118"><ele>367.0</ele><time>2026-04-10T13:36:08Z</time></trkpt><trkpt lat="43.746580383674036" lon="11.743865529383"><ele>368.0</ele><time>2026-04-10T13:36:09Z</time></trkpt><trkpt lat="43.746446986435124" lon="11.743945735966925"><ele>369.0</ele><time>2026-04-10T13:36:10Z</time></trkpt><trkpt lat="43.746316950970936" lon="11.744042255613257"><ele>369.0</ele><time>2026-04-10T13:36:11Z</time></trkpt><trkpt lat="43.74617694377388" lon="11.744124915264937"><ele>369.0</ele><time>2026-04-10T13:36:12Z</time></trkpt><trkpt lat="43.74605844101439" lon="11.744245849783377"><ele>369.0</ele><time>2026-04-10T13:36:13Z</time></trkpt><trkpt lat="43.74593405308436" lon="11.744341880718567"><ele>369.0</ele><time>2026-04-10T13:36:14Z</time></trkpt><trkpt lat="43.7458162388173" lon="11.744440513260477"><ele>368.5</ele><time>2026-04-10T13:36:15Z</time></trkpt><trkpt lat="43.74570201041501" lon="11.744536203340056"><ele>368.0</ele><time>2026-04-10T13:36:16Z</time></trkpt><trkpt lat="43.74559296910814" lon="11.744631667099029"><ele>367.5</ele><time>2026-04-10T13:36:17Z</time></trkpt><trkpt lat="43.74548724437177" lon="11.744722298763563"><ele>367.0</ele><time>2026-04-10T13:36:18Z</time></trkpt><trkpt lat="43.74538342738518" lon="11.744805715631983"><ele>367.0</ele><time>2026-04-10T13:36:19Z</time></trkpt><trkpt lat="43.745274857482194" lon="11.744886100208214"><ele>367.0</ele><time>2026-04-10T13:36:20Z</time></trkpt><trkpt lat="43.7451641463296" lon="11.74496435995944"><ele>367.0</ele><time>2026-04-10T13:36:21Z</time></trkpt><trkpt lat="43.745052656168596" lon="11.745042743995707"><ele>367.0</ele><time>2026-04-10T13:36:22Z</time></trkpt><trkpt lat="43.74494323235659" lon="11.745119930317522"><ele>366.8</ele><time>2026-04-10T13:36:23Z</time></trkpt><trkpt lat="43.744835034900376" lon="11.745194131326707"><ele>366.6</ele><time>2026-04-10T13:36:24Z</time></trkpt><trkpt lat="43.74473092072577" lon="11.745268334224745"><ele>366.40000000000003</ele><time>2026-04-10T13:36:25Z</time></trkpt><trkpt lat="43.7446348661956" lon="11.745342723665168"><ele>366.20000000000005</ele><time>2026-04-10T13:36:26Z</time></trkpt><trkpt lat="43.7445472093066" lon="11.745409606663289"><ele>366.0</ele><time>2026-04-10T13:36:27Z</time></trkpt><trkpt lat="43.74447816204638" lon="11.745453301406872"><ele>365.6666666666667</ele><time>2026-04-10T13:36:28Z</time></trkpt><trkpt lat="43.74437716824238" lon="11.745490867430965"><ele>365.3333333333333</ele><time>2026-04-10T13:36:30Z</time></trkpt><trkpt lat="43.7442796969865" lon="11.745513274767866"><ele>365.0</ele><time>2026-04-10T13:36:32Z</time></trkpt><trkpt lat="43.744208311040076" lon="11.74551417329894"><ele>364.66666666666663</ele><time>2026-04-10T13:36:34Z</time></trkpt><trkpt lat="43.744157477358" lon="11.745566200623307"><ele>364.3333333333333</ele><time>2026-04-10T13:36:36Z</time></trkpt><trkpt lat="43.74408734397268" lon="11.74560968913986"><ele>364.0</ele><time>2026-04-10T13:36:37Z</time></trkpt><trkpt lat="43.74400183749776" lon="11.745575485807295"><ele>364.0</ele><time>2026-04-10T13:36:39Z</time></trkpt><trkpt lat="43.743925666167435" lon="11.745539426528936"><ele>364.0</ele><time>2026-04-10T13:36:41Z</time></trkpt><trkpt lat="43.74392105151595" lon="11.745630343493504"><ele>364.0</ele><time>2026-04-10T13:36:43Z</time></trkpt><trkpt lat="43.743969869568744" lon="11.745723499257231"><ele>364.0</ele><time>2026-04-10T13:36:45Z</time></trkpt><trkpt lat="43.74384462745957" lon="11.745849893088208"><ele>364.0</ele><time>2026-04-10T13:36:46Z</time></trkpt><trkpt lat="43.74373650990942" lon="11.745955290583465"><ele>364.0</ele><time>2026-04-10T13:36:48Z</time></trkpt><trkpt lat="43.74367592167895" lon="11.746006421008657"><ele>364.0</ele><time>2026-04-10T13:36:49Z</time></trkpt><trkpt lat="43.743609008373085" lon="11.74605871181149"><ele>364.0</ele><time>2026-04-10T13:36:50Z</time></trkpt><trkpt lat="43.74353460336898" lon="11.746114031992867"><ele>364.0</ele><time>2026-04-10T13:36:51Z</time></trkpt><trkpt lat="43.74345127739826" lon="11.746167827303086"><ele>364.0</ele><time>2026-04-10T13:36:52Z</time></trkpt><trkpt lat="43.74336620367641" lon="11.746226376688504"><ele>364.0</ele><time>2026-04-10T13:36:53Z</time></trkpt><trkpt lat="43.74328243714494" lon="11.746285441852867"><ele>364.0</ele><time>2026-04-10T13:36:54Z</time></trkpt><trkpt lat="43.74320249453813" lon="11.746345603067844"><ele>364.0</ele><time>2026-04-10T13:36:55Z</time></trkpt><trkpt lat="43.74312442543936" lon="11.746408242678534"><ele>364.0</ele><time>2026-04-10T13:36:56Z</time></trkpt><trkpt lat="43.74304530799304" lon="11.746466581624967"><ele>364.0</ele><time>2026-04-10T13:36:57Z</time></trkpt><trkpt lat="43.74296037970254" lon="11.746526376349802"><ele>364.0</ele><time>2026-04-10T13:36:58Z</time></trkpt><trkpt lat="43.74287457716474" lon="11.746586528041272"><ele>364.0</ele><time>2026-04-10T13:36:59Z</time></trkpt><trkpt lat="43.74278979692543" lon="11.746647644787211"><ele>364.0</ele><time>2026-04-10T13:37:00Z</time></trkpt><trkpt lat="43.74270532201653" lon="11.74671772127577"><ele>364.0</ele><time>2026-04-10T13:37:01.001Z</time></trkpt><trkpt lat="43.742623657238845" lon="11.746793992225601"><ele>364.0</ele><time>2026-04-10T13:37:02.001Z</time></trkpt><trkpt lat="43.74254214288509" lon="11.746879121227543"><ele>364.0</ele><time>2026-04-10T13:37:03.001Z</time></trkpt><trkpt lat="43.74245892346753" lon="11.746971026060796"><ele>363.4</ele><time>2026-04-10T13:37:04.001Z</time></trkpt><trkpt lat="43.74237942253153" lon="11.747064812970079"><ele>362.79999999999995</ele><time>2026-04-10T13:37:05.001Z</time></trkpt><trkpt lat="43.74230088556206" lon="11.747159502103367"><ele>362.20000000000005</ele><time>2026-04-10T13:37:06.001Z</time></trkpt><trkpt lat="43.74222368151804" lon="11.747255546241979"><ele>361.6</ele><time>2026-04-10T13:37:07.001Z</time></trkpt><trkpt lat="43.742146719836256" lon="11.74735158172974"><ele>361.0</ele><time>2026-04-10T13:37:08.001Z</time></trkpt><trkpt lat="43.742068646289916" lon="11.747444083907936"><ele>361.0</ele><time>2026-04-10T13:37:09.001Z</time></trkpt><trkpt lat="43.741990343662984" lon="11.747535283610276"><ele>361.0</ele><time>2026-04-10T13:37:10.001Z</time></trkpt><trkpt lat="43.74191215318031" lon="11.74762919767592"><ele>361.0</ele><time>2026-04-10T13:37:11.001Z</time></trkpt><trkpt lat="43.74183113474699" lon="11.74772866803328"><ele>361.0</ele><time>2026-04-10T13:37:12.001Z</time></trkpt><trkpt lat="43.74174503697248" lon="11.747834034156707"><ele>361.0</ele><time>2026-04-10T13:37:13.001Z</time></trkpt><trkpt lat="43.74165791417437" lon="11.747941072024927"><ele>360.5</ele><time>2026-04-10T13:37:14.001Z</time></trkpt><trkpt lat="43.74156505567934" lon="11.748050509717133"><ele>360.0</ele><time>2026-04-10T13:37:15.001Z</time></trkpt><trkpt lat="43.74146919316931" lon="11.748158951323868"><ele>359.5</ele><time>2026-04-10T13:37:16.001Z</time></trkpt><trkpt lat="43.74137136453807" lon="11.748264368489071"><ele>359.0</ele><time>2026-04-10T13:37:17.001Z</time></trkpt><trkpt lat="43.74127171844584" lon="11.748373095336389"><ele>359.0</ele><time>2026-04-10T13:37:18.001Z</time></trkpt><trkpt lat="43.741161970533106" lon="11.748468315373572"><ele>359.0</ele><time>2026-04-10T13:37:19.001Z</time></trkpt><trkpt lat="43.74105289958873" lon="11.748572558648107"><ele>359.0</ele><time>2026-04-10T13:37:20.001Z</time></trkpt><trkpt lat="43.74095048266186" lon="11.748688364221218"><ele>359.0</ele><time>2026-04-10T13:37:21.001Z</time></trkpt><trkpt lat="43.74084328932895" lon="11.74878246037453"><ele>360.0</ele><time>2026-04-10T13:37:22.001Z</time></trkpt><trkpt lat="43.74074276763326" lon="11.748877817596203"><ele>361.0</ele><time>2026-04-10T13:37:23.001Z</time></trkpt><trkpt lat="43.74064671762161" lon="11.748973954535794"><ele>362.0</ele><time>2026-04-10T13:37:24.001Z</time></trkpt><trkpt lat="43.74055165947224" lon="11.749067733340482"><ele>363.0</ele><time>2026-04-10T13:37:25.001Z</time></trkpt><trkpt lat="43.740451196015016" lon="11.749143686658979"><ele>363.0</ele><time>2026-04-10T13:37:26.001Z</time></trkpt><trkpt lat="43.7403522409934" lon="11.749233827819863"><ele>363.0</ele><time>2026-04-10T13:37:27.001Z</time></trkpt><trkpt lat="43.74025376308101" lon="11.749327282111535"><ele>363.0</ele><time>2026-04-10T13:37:28.001Z</time></trkpt><trkpt lat="43.74015679899835" lon="11.74942360905293"><ele>363.0</ele><time>2026-04-10T13:37:29.001Z</time></trkpt><trkpt lat="43.74006303209136" lon="11.749512054846011"><ele>362.2</ele><time>2026-04-10T13:37:30.001Z</time></trkpt><trkpt lat="43.73997146563071" lon="11.749601100108153"><ele>361.4</ele><time>2026-04-10T13:37:31.001Z</time></trkpt><trkpt lat="43.73988607785482" lon="11.74969063032752"><ele>360.59999999999997</ele><time>2026-04-10T13:37:32.001Z</time></trkpt><trkpt lat="43.73980441075995" lon="11.749784092766747"><ele>359.79999999999995</ele><time>2026-04-10T13:37:33.001Z</time></trkpt><trkpt lat="43.73972742289136" lon="11.749884061270874"><ele>359.0</ele><time>2026-04-10T13:37:34.001Z</time></trkpt><trkpt lat="43.73965749653834" lon="11.749986521856169"><ele>359.0</ele><time>2026-04-10T13:37:35.001Z</time></trkpt><trkpt lat="43.73959215987741" lon="11.750091063899593"><ele>359.0</ele><time>2026-04-10T13:37:36.001Z</time></trkpt><trkpt lat="43.7395267603348" lon="11.750193601920977"><ele>359.0</ele><time>2026-04-10T13:37:37.001Z</time></trkpt><trkpt lat="43.7394626676711" lon="11.750293865696163"><ele>359.0</ele><time>2026-04-10T13:37:38.001Z</time></trkpt><trkpt lat="43.73940310924199" lon="11.750395716091404"><ele>359.0</ele><time>2026-04-10T13:37:39.001Z</time></trkpt><trkpt lat="43.73934222505016" lon="11.750500145603665"><ele>359.0</ele><time>2026-04-10T13:37:40.001Z</time></trkpt><trkpt lat="43.739279128304496" lon="11.75060855276057"><ele>359.0</ele><time>2026-04-10T13:37:41.001Z</time></trkpt><trkpt lat="43.739214801574036" lon="11.750717430270049"><ele>359.0</ele><time>2026-04-10T13:37:42.001Z</time></trkpt><trkpt lat="43.73915019633566" lon="11.75082743698443"><ele>359.0</ele><time>2026-04-10T13:37:43.001Z</time></trkpt><trkpt lat="43.73908279586154" lon="11.750937145904249"><ele>359.0</ele><time>2026-04-10T13:37:44.001Z</time></trkpt><trkpt lat="43.73901393374862" lon="11.751049447860526"><ele>359.0</ele><time>2026-04-10T13:37:45.001Z</time></trkpt><trkpt lat="43.738944498526834" lon="11.75116499649684"><ele>359.0</ele><time>2026-04-10T13:37:46.001Z</time></trkpt><trkpt lat="43.73887627771501" lon="11.751276359724127"><ele>359.0</ele><time>2026-04-10T13:37:47.001Z</time></trkpt><trkpt lat="43.738807866853385" lon="11.751382397626472"><ele>359.0</ele><time>2026-04-10T13:37:48.001Z</time></trkpt><trkpt lat="43.738740820584454" lon="11.75148809706651"><ele>359.0</ele><time>2026-04-10T13:37:49.001Z</time></trkpt><trkpt lat="43.73867323619478" lon="11.75159124431532"><ele>359.0</ele><time>2026-04-10T13:37:50.001Z</time></trkpt><trkpt lat="43.73860468354964" lon="11.751690507868203"><ele>359.0</ele><time>2026-04-10T13:37:51.001Z</time></trkpt><trkpt lat="43.73853642323978" lon="11.751785882280783"><ele>359.0</ele><time>2026-04-10T13:37:52.001Z</time></trkpt><trkpt lat="43.738468242167265" lon="11.751879617256883"><ele>359.0</ele><time>2026-04-10T13:37:53.001Z</time></trkpt><trkpt lat="43.73840333141514" lon="11.751968369372383"><ele>359.0</ele><time>2026-04-10T13:37:54.001Z</time></trkpt><trkpt lat="43.73834163288682" lon="11.75205505877129"><ele>358.6</ele><time>2026-04-10T13:37:55.001Z</time></trkpt><trkpt lat="43.738286302424996" lon="11.752141079956457"><ele>358.2</ele><time>2026-04-10T13:37:56.001Z</time></trkpt><trkpt lat="43.73824330880558" lon="11.75221448022415"><ele>357.8</ele><time>2026-04-10T13:37:57.001Z</time></trkpt><trkpt lat="43.738164670547086" lon="11.752341422028241"><ele>357.40000000000003</ele><time>2026-04-10T13:37:59.001Z</time></trkpt><trkpt lat="43.73808893883108" lon="11.75245150108171"><ele>357.0</ele><time>2026-04-10T13:38:01.001Z</time></trkpt><trkpt lat="43.737977555850065" lon="11.752518117292825"><ele>357.0</ele><time>2026-04-10T13:38:03.001Z</time></trkpt><trkpt lat="43.73788200572914" lon="11.752621749064854"><ele>357.0</ele><time>2026-04-10T13:38:05.001Z</time></trkpt><trkpt lat="43.73780807967242" lon="11.752750135106515"><ele>357.0</ele><time>2026-04-10T13:38:07Z</time></trkpt><trkpt lat="43.73777301400991" lon="11.752826898266992"><ele>357.0</ele><time>2026-04-10T13:38:08Z</time></trkpt><trkpt lat="43.73775366380753" lon="11.752917759089051"><ele>357.0</ele><time>2026-04-10T13:38:09Z</time></trkpt><trkpt lat="43.73769333697703" lon="11.752985564406746"><ele>356.57142857142856</ele><time>2026-04-10T13:38:10Z</time></trkpt><trkpt lat="43.737650039199046" lon="11.753056918070376"><ele>356.1428571428571</ele><time>2026-04-10T13:38:11Z</time></trkpt><trkpt lat="43.737603357406336" lon="11.75312484502563"><ele>355.7142857142857</ele><time>2026-04-10T13:38:12Z</time></trkpt><trkpt lat="43.737554432780406" lon="11.753190041094527"><ele>355.2857142857143</ele><time>2026-04-10T13:38:13Z</time></trkpt><trkpt lat="43.737502902042195" lon="11.753257199069292"><ele>354.85714285714283</ele><time>2026-04-10T13:38:14Z</time></trkpt><trkpt lat="43.73744854913024" lon="11.75333125254869"><ele>354.42857142857144</ele><time>2026-04-10T13:38:15Z</time></trkpt><trkpt lat="43.7374002586478" lon="11.753406617820758"><ele>354.0</ele><time>2026-04-10T13:38:16Z</time></trkpt><trkpt lat="43.737351042880995" lon="11.75348215598545"><ele>354.8333333333333</ele><time>2026-04-10T13:38:17Z</time></trkpt><trkpt lat="43.73729960864201" lon="11.753561855030378"><ele>355.6666666666667</ele><time>2026-04-10T13:38:18Z</time></trkpt><trkpt lat="43.7372428581127" lon="11.753652248447306"><ele>356.5</ele><time>2026-04-10T13:38:19Z</time></trkpt><trkpt lat="43.737180925957496" lon="11.753753150887421"><ele>357.33333333333337</ele><time>2026-04-10T13:38:20Z</time></trkpt><trkpt lat="43.737117654015414" lon="11.753842468737236"><ele>358.1666666666667</ele><time>2026-04-10T13:38:21Z</time></trkpt><trkpt lat="43.737052516645974" lon="11.753927932897847"><ele>359.0</ele><time>2026-04-10T13:38:22Z</time></trkpt><trkpt lat="43.736983873404434" lon="11.754016741973846"><ele>359.0</ele><time>2026-04-10T13:38:23Z</time></trkpt><trkpt lat="43.73691102356338" lon="11.754107411327661"><ele>359.0</ele><time>2026-04-10T13:38:24Z</time></trkpt><trkpt lat="43.73683390440695" lon="11.75419802054884"><ele>359.0</ele><time>2026-04-10T13:38:25Z</time></trkpt><trkpt lat="43.73675486048427" lon="11.754292113960652"><ele>359.0</ele><time>2026-04-10T13:38:26Z</time></trkpt><trkpt lat="43.736679281978994" lon="11.754381133776633"><ele>359.0</ele><time>2026-04-10T13:38:27Z</time></trkpt><trkpt lat="43.73660198586401" lon="11.75446910534319"><ele>358.6</ele><time>2026-04-10T13:38:28Z</time></trkpt><trkpt lat="43.73652447782258" lon="11.754560359626492"><ele>358.2</ele><time>2026-04-10T13:38:29Z</time></trkpt><trkpt lat="43.73644801804783" lon="11.754657735979684"><ele>357.8</ele><time>2026-04-10T13:38:30Z</time></trkpt><trkpt lat="43.736373140803614" lon="11.754754646674714"><ele>357.40000000000003</ele><time>2026-04-10T13:38:31Z</time></trkpt><trkpt lat="43.7362991526045" lon="11.754854915898425"><ele>357.0</ele><time>2026-04-10T13:38:32Z</time></trkpt><trkpt lat="43.73623245269771" lon="11.75496722490251"><ele>357.0</ele><time>2026-04-10T13:38:33Z</time></trkpt><trkpt lat="43.73616680736937" lon="11.755084952702008"><ele>357.0</ele><time>2026-04-10T13:38:34Z</time></trkpt><trkpt lat="43.73611275101715" lon="11.755204900101882"><ele>357.0</ele><time>2026-04-10T13:38:35Z</time></trkpt><trkpt lat="43.73605974345914" lon="11.755323431057729"><ele>357.0</ele><time>2026-04-10T13:38:36Z</time></trkpt><trkpt lat="43.736006720481534" lon="11.755442064512737"><ele>357.0</ele><time>2026-04-10T13:38:37Z</time></trkpt><trkpt lat="43.735953558780764" lon="11.75556486304873"><ele>357.0</ele><time>2026-04-10T13:38:38Z</time></trkpt><trkpt lat="43.73589942996056" lon="11.755680364636573"><ele>357.0</ele><time>2026-04-10T13:38:39Z</time></trkpt><trkpt lat="43.735845769175654" lon="11.755792328708454"><ele>357.0</ele><time>2026-04-10T13:38:40Z</time></trkpt><trkpt lat="43.73579052150705" lon="11.755899940117278"><ele>357.0</ele><time>2026-04-10T13:38:41Z</time></trkpt><trkpt lat="43.73572827094097" lon="11.756001959492517"><ele>357.0</ele><time>2026-04-10T13:38:42Z</time></trkpt><trkpt lat="43.735662962854896" lon="11.756097655235115"><ele>357.0</ele><time>2026-04-10T13:38:43Z</time></trkpt><trkpt lat="43.73559676143389" lon="11.756188836239769"><ele>357.0</ele><time>2026-04-10T13:38:44Z</time></trkpt><trkpt lat="43.73552341235378" lon="11.75628225721265"><ele>357.0</ele><time>2026-04-10T13:38:45Z</time></trkpt><trkpt lat="43.735447123294826" lon="11.75638309217828"><ele>357.0</ele><time>2026-04-10T13:38:46Z</time></trkpt><trkpt lat="43.73537233106313" lon="11.75649395764898"><ele>357.0</ele><time>2026-04-10T13:38:47Z</time></trkpt><trkpt lat="43.735303514246894" lon="11.756608125719339"><ele>357.0</ele><time>2026-04-10T13:38:48Z</time></trkpt><trkpt lat="43.735241321817" lon="11.756728045379594"><ele>357.0</ele><time>2026-04-10T13:38:49Z</time></trkpt><trkpt lat="43.73518428715688" lon="11.756848138041367"><ele>357.0</ele><time>2026-04-10T13:38:50Z</time></trkpt><trkpt lat="43.73513329598651" lon="11.756974106563934"><ele>357.0</ele><time>2026-04-10T13:38:51Z</time></trkpt><trkpt lat="43.73508422541952" lon="11.75710330899594"><ele>357.0</ele><time>2026-04-10T13:38:52Z</time></trkpt><trkpt lat="43.735036600974915" lon="11.757232921662998"><ele>357.20000000000005</ele><time>2026-04-10T13:38:53Z</time></trkpt><trkpt lat="43.73498663590484" lon="11.75735912519118"><ele>357.4</ele><time>2026-04-10T13:38:54Z</time></trkpt><trkpt lat="43.734925802913494" lon="11.757473380136622"><ele>357.6</ele><time>2026-04-10T13:38:55Z</time></trkpt><trkpt lat="43.73485959101853" lon="11.75757863066398"><ele>357.79999999999995</ele><time>2026-04-10T13:38:56Z</time></trkpt><trkpt lat="43.7347875752551" lon="11.757680991593682"><ele>358.0</ele><time>2026-04-10T13:38:57Z</time></trkpt><trkpt lat="43.734712402938904" lon="11.757785775915162"><ele>357.25</ele><time>2026-04-10T13:38:58Z</time></trkpt><trkpt lat="43.734639992171566" lon="11.757897573667327"><ele>356.5</ele><time>2026-04-10T13:38:59Z</time></trkpt><trkpt lat="43.73456671644212" lon="11.758021749583891"><ele>355.75</ele><time>2026-04-10T13:39:00Z</time></trkpt><trkpt lat="43.73449851424201" lon="11.758153749055554"><ele>355.0</ele><time>2026-04-10T13:39:01Z</time></trkpt><trkpt lat="43.7344386031037" lon="11.7582938085459"><ele>354.0</ele><time>2026-04-10T13:39:02.001Z</time></trkpt><trkpt lat="43.734381641961114" lon="11.758434942001504"><ele>353.0</ele><time>2026-04-10T13:39:03.001Z</time></trkpt><trkpt lat="43.73432970792363" lon="11.75858064589777"><ele>352.0</ele><time>2026-04-10T13:39:04.001Z</time></trkpt><trkpt lat="43.734283023742385" lon="11.758729683948115"><ele>351.0</ele><time>2026-04-10T13:39:05.001Z</time></trkpt><trkpt lat="43.73423521896626" lon="11.758877816124729"><ele>350.75</ele><time>2026-04-10T13:39:06.001Z</time></trkpt><trkpt lat="43.73419066793642" lon="11.75903421800321"><ele>350.5</ele><time>2026-04-10T13:39:07.001Z</time></trkpt><trkpt lat="43.73414357057408" lon="11.759199078181325"><ele>350.25</ele><time>2026-04-10T13:39:08.001Z</time></trkpt><trkpt lat="43.73409818661101" lon="11.75936784474563"><ele>350.0</ele><time>2026-04-10T13:39:09.001Z</time></trkpt><trkpt lat="43.734049075111145" lon="11.75953283257112"><ele>350.0</ele><time>2026-04-10T13:39:10.001Z</time></trkpt><trkpt lat="43.73399910366664" lon="11.759693724339769"><ele>350.0</ele><time>2026-04-10T13:39:11.001Z</time></trkpt><trkpt lat="43.7339478616487" lon="11.759856728749828"><ele>350.0</ele><time>2026-04-10T13:39:12.001Z</time></trkpt><trkpt lat="43.73388987408615" lon="11.760012241609143"><ele>350.0</ele><time>2026-04-10T13:39:13.001Z</time></trkpt><trkpt lat="43.73382217286553" lon="11.760166450030779"><ele>350.5</ele><time>2026-04-10T13:39:14.001Z</time></trkpt><trkpt lat="43.73375126257286" lon="11.760311132930852"><ele>351.0</ele><time>2026-04-10T13:39:15.001Z</time></trkpt><trkpt lat="43.733678189568515" lon="11.760449588013076"><ele>351.5</ele><time>2026-04-10T13:39:16.001Z</time></trkpt><trkpt lat="43.7336034527587" lon="11.760579743348254"><ele>352.0</ele><time>2026-04-10T13:39:17.001Z</time></trkpt><trkpt lat="43.733529524579914" lon="11.760708181398114"><ele>351.0</ele><time>2026-04-10T13:39:18.001Z</time></trkpt><trkpt lat="43.73345622781908" lon="11.760832622369565"><ele>350.0</ele><time>2026-04-10T13:39:19.001Z</time></trkpt><trkpt lat="43.73338786395095" lon="11.760959916731677"><ele>349.0</ele><time>2026-04-10T13:39:20.001Z</time></trkpt><trkpt lat="43.733322218504355" lon="11.761085198030056"><ele>348.0</ele><time>2026-04-10T13:39:21.001Z</time></trkpt><trkpt lat="43.73324649501196" lon="11.761198503172787"><ele>348.0</ele><time>2026-04-10T13:39:22.001Z</time></trkpt><trkpt lat="43.73318641874151" lon="11.761324860286756"><ele>348.0</ele><time>2026-04-10T13:39:23.001Z</time></trkpt><trkpt lat="43.73312980601474" lon="11.761452433451554"><ele>348.0</ele><time>2026-04-10T13:39:24.001Z</time></trkpt><trkpt lat="43.733080077465274" lon="11.761580178577113"><ele>348.0</ele><time>2026-04-10T13:39:25.001Z</time></trkpt><trkpt lat="43.733038739912956" lon="11.761718900733415"><ele>348.0</ele><time>2026-04-10T13:39:26.001Z</time></trkpt><trkpt lat="43.73300011468825" lon="11.761875659421912"><ele>348.25</ele><time>2026-04-10T13:39:27.001Z</time></trkpt><trkpt lat="43.73296125859412" lon="11.762036021781967"><ele>348.5</ele><time>2026-04-10T13:39:28.001Z</time></trkpt><trkpt lat="43.73292161400981" lon="11.762193170483773"><ele>348.75</ele><time>2026-04-10T13:39:29.001Z</time></trkpt><trkpt lat="43.73288424138377" lon="11.762345697899697"><ele>349.0</ele><time>2026-04-10T13:39:30.001Z</time></trkpt><trkpt lat="43.7328522352161" lon="11.762497479516444"><ele>349.0</ele><time>2026-04-10T13:39:31.001Z</time></trkpt><trkpt lat="43.73281599417395" lon="11.762642427820996"><ele>349.0</ele><time>2026-04-10T13:39:32.001Z</time></trkpt><trkpt lat="43.732780475453204" lon="11.762784440577672"><ele>349.0</ele><time>2026-04-10T13:39:33.001Z</time></trkpt><trkpt lat="43.732744988322594" lon="11.762925183765992"><ele>349.0</ele><time>2026-04-10T13:39:34.001Z</time></trkpt><trkpt lat="43.73270679345389" lon="11.763062850363163"><ele>349.0</ele><time>2026-04-10T13:39:35.001Z</time></trkpt><trkpt lat="43.732673202984" lon="11.763199809788471"><ele>348.2</ele><time>2026-04-10T13:39:36.001Z</time></trkpt><trkpt lat="43.73264200299982" lon="11.763330825378597"><ele>347.4</ele><time>2026-04-10T13:39:37.001Z</time></trkpt><trkpt lat="43.73261183266259" lon="11.763456869887946"><ele>346.6</ele><time>2026-04-10T13:39:38.001Z</time></trkpt><trkpt lat="43.732583398005424" lon="11.763578804123512"><ele>345.8</ele><time>2026-04-10T13:39:39.001Z</time></trkpt><trkpt lat="43.732552196499455" lon="11.76369492677154"><ele>345.0</ele><time>2026-04-10T13:39:40.001Z</time></trkpt><trkpt lat="43.73252156592103" lon="11.763809957731583"><ele>345.0</ele><time>2026-04-10T13:39:41.001Z</time></trkpt><trkpt lat="43.73249235162833" lon="11.763924271064118"><ele>345.0</ele><time>2026-04-10T13:39:42.001Z</time></trkpt><trkpt lat="43.73246249367308" lon="11.764039988595295"><ele>345.0</ele><time>2026-04-10T13:39:43.001Z</time></trkpt><trkpt lat="43.73243181881656" lon="11.764159264926114"><ele>345.0</ele><time>2026-04-10T13:39:44.001Z</time></trkpt><trkpt lat="43.73239981166926" lon="11.764279939628928"><ele>345.0</ele><time>2026-04-10T13:39:45.001Z</time></trkpt><trkpt lat="43.732364573691015" lon="11.764411300541441"><ele>345.0</ele><time>2026-04-10T13:39:46.001Z</time></trkpt><trkpt lat="43.73232995361369" lon="11.764556970987487"><ele>345.0</ele><time>2026-04-10T13:39:47.001Z</time></trkpt><trkpt lat="43.732291317383826" lon="11.764711139500317"><ele>345.0</ele><time>2026-04-10T13:39:48.001Z</time></trkpt><trkpt lat="43.73225330012112" lon="11.764868792031931"><ele>345.0</ele><time>2026-04-10T13:39:49.001Z</time></trkpt><trkpt lat="43.732216144648106" lon="11.76502489559643"><ele>345.0</ele><time>2026-04-10T13:39:50.001Z</time></trkpt><trkpt lat="43.73217598962831" lon="11.76518456306889"><ele>345.0</ele><time>2026-04-10T13:39:51.001Z</time></trkpt><trkpt lat="43.73213811366048" lon="11.765339615433879"><ele>345.0</ele><time>2026-04-10T13:39:52.001Z</time></trkpt><trkpt lat="43.732101915528936" lon="11.765489755307556"><ele>345.0</ele><time>2026-04-10T13:39:53.001Z</time></trkpt><trkpt lat="43.73207208197895" lon="11.765627158252638"><ele>345.0</ele><time>2026-04-10T13:39:54.001Z</time></trkpt><trkpt lat="43.732045168351625" lon="11.765751463688375"><ele>345.0</ele><time>2026-04-10T13:39:55.001Z</time></trkpt><trkpt lat="43.732021519878096" lon="11.765862470312404"><ele>345.0</ele><time>2026-04-10T13:39:56.001Z</time></trkpt><trkpt lat="43.73199816161732" lon="11.765966375922241"><ele>345.0</ele><time>2026-04-10T13:39:57.001Z</time></trkpt><trkpt lat="43.731973486792924" lon="11.766070095939261"><ele>345.0</ele><time>2026-04-10T13:39:58.001Z</time></trkpt><trkpt lat="43.73194854503344" lon="11.766169590612808"><ele>345.0</ele><time>2026-04-10T13:39:59.001Z</time></trkpt><trkpt lat="43.731910830157226" lon="11.766261510673038"><ele>345.1666666666667</ele><time>2026-04-10T13:40:00.001Z</time></trkpt><trkpt lat="43.73185663718184" lon="11.766339673208922"><ele>345.3333333333333</ele><time>2026-04-10T13:40:01.001Z</time></trkpt><trkpt lat="43.7317985933328" lon="11.766444772356357"><ele>345.5</ele><time>2026-04-10T13:40:02.001Z</time></trkpt><trkpt lat="43.73172081948643" lon="11.766465398226671"><ele>345.66666666666663</ele><time>2026-04-10T13:40:03.001Z</time></trkpt><trkpt lat="43.73165977349637" lon="11.766545410935095"><ele>345.8333333333333</ele><time>2026-04-10T13:40:04.001Z</time></trkpt><trkpt lat="43.731585361065186" lon="11.766596450833925"><ele>346.0</ele><time>2026-04-10T13:40:05.001Z</time></trkpt><trkpt lat="43.73151958734976" lon="11.766660802912924"><ele>346.0</ele><time>2026-04-10T13:40:06.002Z</time></trkpt><trkpt lat="43.73144831133688" lon="11.7667153010895"><ele>346.0</ele><time>2026-04-10T13:40:07.002Z</time></trkpt><trkpt lat="43.731371533171334" lon="11.76676570561328"><ele>346.0</ele><time>2026-04-10T13:40:08.002Z</time></trkpt><trkpt lat="43.73130249348774" lon="11.766817142720924"><ele>346.0</ele><time>2026-04-10T13:40:09.002Z</time></trkpt><trkpt lat="43.73123247903137" lon="11.766865796920632"><ele>346.0</ele><time>2026-04-10T13:40:10.002Z</time></trkpt><trkpt lat="43.73116186448919" lon="11.766914199578874"><ele>346.0</ele><time>2026-04-10T13:40:11.002Z</time></trkpt><trkpt lat="43.73109038152812" lon="11.766964795401108"><ele>345.8333333333333</ele><time>2026-04-10T13:40:12.002Z</time></trkpt><trkpt lat="43.73101837274761" lon="11.76701615296902"><ele>345.66666666666663</ele><time>2026-04-10T13:40:12.999Z</time></trkpt><trkpt lat="43.7309488871288" lon="11.767070247218559"><ele>345.5</ele><time>2026-04-10T13:40:13.999Z</time></trkpt><trkpt lat="43.73088715029822" lon="11.767118773564306"><ele>345.3333333333333</ele><time>2026-04-10T13:40:14.999Z</time></trkpt><trkpt lat="43.73082673481492" lon="11.767162993662449"><ele>345.1666666666667</ele><time>2026-04-10T13:40:15.999Z</time></trkpt><trkpt lat="43.730762913917175" lon="11.767183884135093"><ele>345.0</ele><time>2026-04-10T13:40:16.999Z</time></trkpt><trkpt lat="43.730654444035395" lon="11.767260838064246"><ele>345.0</ele><time>2026-04-10T13:40:18.999Z</time></trkpt><trkpt lat="43.73055968755386" lon="11.76732806305763"><ele>345.0</ele><time>2026-04-10T13:40:20.999Z</time></trkpt><trkpt lat="43.730496969235325" lon="11.767288054596447"><ele>345.0</ele><time>2026-04-10T13:40:22.999Z</time></trkpt><trkpt lat="43.73045476040846" lon="11.767118587188742"><ele>345.0</ele><time>2026-04-10T13:40:24.999Z</time></trkpt><trkpt lat="43.73041836478845" lon="11.767026251232373"><ele>345.0</ele><time>2026-04-10T13:40:25.999Z</time></trkpt><trkpt lat="43.73038649298647" lon="11.766929799819524"><ele>345.0</ele><time>2026-04-10T13:40:26.999Z</time></trkpt><trkpt lat="43.73035778465627" lon="11.766842748534648"><ele>345.0</ele><time>2026-04-10T13:40:27.999Z</time></trkpt><trkpt lat="43.73032802775341" lon="11.766757696205415"><ele>345.0</ele><time>2026-04-10T13:40:29Z</time></trkpt><trkpt lat="43.73029801621722" lon="11.766678790640936"><ele>345.0</ele><time>2026-04-10T13:40:30Z</time></trkpt><trkpt lat="43.730212397161566" lon="11.766573690737873"><ele>345.0</ele><time>2026-04-10T13:40:32Z</time></trkpt><trkpt lat="43.73013665020658" lon="11.766618915173517"><ele>345.0</ele><time>2026-04-10T13:40:33Z</time></trkpt><trkpt lat="43.7300601134424" lon="11.766679132036192"><ele>345.0</ele><time>2026-04-10T13:40:34Z</time></trkpt><trkpt lat="43.729978249322116" lon="11.766741957459692"><ele>345.0</ele><time>2026-04-10T13:40:35Z</time></trkpt><trkpt lat="43.729891379584416" lon="11.766801922445941"><ele>345.0</ele><time>2026-04-10T13:40:36Z</time></trkpt><trkpt lat="43.72980501083177" lon="11.766855660840315"><ele>345.0</ele><time>2026-04-10T13:40:37Z</time></trkpt><trkpt lat="43.72972219491179" lon="11.766906029910405"><ele>345.0</ele><time>2026-04-10T13:40:38Z</time></trkpt><trkpt lat="43.72964605701159" lon="11.76695440505322"><ele>344.8</ele><time>2026-04-10T13:40:39Z</time></trkpt><trkpt lat="43.72956310971335" lon="11.766991656204938"><ele>344.6</ele><time>2026-04-10T13:40:40Z</time></trkpt><trkpt lat="43.729470595442535" lon="11.767025120317971"><ele>344.4</ele><time>2026-04-10T13:40:41Z</time></trkpt><trkpt lat="43.72937168287253" lon="11.767043558018324"><ele>344.2</ele><time>2026-04-10T13:40:42Z</time></trkpt><trkpt lat="43.729272051055254" lon="11.767029937938725"><ele>344.0</ele><time>2026-04-10T13:40:43Z</time></trkpt><trkpt lat="43.72919009445547" lon="11.767032133278104"><ele>344.0</ele><time>2026-04-10T13:40:44Z</time></trkpt><trkpt lat="43.72909255303638" lon="11.767064477175687"><ele>344.0</ele><time>2026-04-10T13:40:45Z</time></trkpt><trkpt lat="43.72898547172514" lon="11.767125071296995"><ele>344.0</ele><time>2026-04-10T13:40:46Z</time></trkpt><trkpt lat="43.72887861946957" lon="11.767194112028388"><ele>344.0</ele><time>2026-04-10T13:40:47Z</time></trkpt><trkpt lat="43.728790278817485" lon="11.767283712587284"><ele>344.0</ele><time>2026-04-10T13:40:48Z</time></trkpt><trkpt lat="43.72869496907041" lon="11.767349198661764"><ele>344.0</ele><time>2026-04-10T13:40:49Z</time></trkpt><trkpt lat="43.72861664105092" lon="11.767453735444386"><ele>344.0</ele><time>2026-04-10T13:40:50Z</time></trkpt><trkpt lat="43.72852995484483" lon="11.767536044795385"><ele>344.0</ele><time>2026-04-10T13:40:51Z</time></trkpt><trkpt lat="43.728444709813246" lon="11.767617931692383"><ele>344.0</ele><time>2026-04-10T13:40:52Z</time></trkpt><trkpt lat="43.72835943357646" lon="11.767693807314402"><ele>344.0</ele><time>2026-04-10T13:40:53Z</time></trkpt><trkpt lat="43.72828226839585" lon="11.767770688043239"><ele>343.6666666666667</ele><time>2026-04-10T13:40:54Z</time></trkpt><trkpt lat="43.7282077723681" lon="11.767843172671661"><ele>343.33333333333337</ele><time>2026-04-10T13:40:55Z</time></trkpt><trkpt lat="43.728146559492316" lon="11.76790599374746"><ele>343.0</ele><time>2026-04-10T13:40:56Z</time></trkpt><trkpt lat="43.7280905366188" lon="11.76796606458334"><ele>342.6666666666667</ele><time>2026-04-10T13:40:57Z</time></trkpt><trkpt lat="43.72803602452333" lon="11.76801137857394"><ele>342.3333333333333</ele><time>2026-04-10T13:40:58Z</time></trkpt><trkpt lat="43.7279458698333" lon="11.76809438830952"><ele>342.0</ele><time>2026-04-10T13:41:00Z</time></trkpt><trkpt lat="43.727815793041" lon="11.767970444398875"><ele>341.0</ele><time>2026-04-10T13:41:01Z</time></trkpt><trkpt lat="43.72771724640575" lon="11.76793180830699"><ele>340.0</ele><time>2026-04-10T13:41:02Z</time></trkpt><trkpt lat="43.727618638647925" lon="11.767893373454529"><ele>339.0</ele><time>2026-04-10T13:41:03Z</time></trkpt><trkpt lat="43.72751849412227" lon="11.76785432883467"><ele>338.0</ele><time>2026-04-10T13:41:04Z</time></trkpt><trkpt lat="43.727421922520556" lon="11.76781656674058"><ele>337.0</ele><time>2026-04-10T13:41:05Z</time></trkpt><trkpt lat="43.727324640171965" lon="11.767778526688577"><ele>337.0</ele><time>2026-04-10T13:41:06Z</time></trkpt><trkpt lat="43.7272291174198" lon="11.76774117470321"><ele>337.0</ele><time>2026-04-10T13:41:07Z</time></trkpt><trkpt lat="43.72713207291406" lon="11.767703227668594"><ele>337.0</ele><time>2026-04-10T13:41:08Z</time></trkpt><trkpt lat="43.727035139969914" lon="11.767665066878088"><ele>337.0</ele><time>2026-04-10T13:41:09Z</time></trkpt><trkpt lat="43.72693692486262" lon="11.767645485375304"><ele>337.0</ele><time>2026-04-10T13:41:10Z</time></trkpt><trkpt lat="43.72685305838337" lon="11.767579509058292"><ele>340.0</ele><time>2026-04-10T13:41:11Z</time></trkpt><trkpt lat="43.72679831376035" lon="11.767466822785318"><ele>343.0</ele><time>2026-04-10T13:41:12Z</time></trkpt><trkpt lat="43.726781345196514" lon="11.767337500540991"><ele>346.0</ele><time>2026-04-10T13:41:13Z</time></trkpt><trkpt lat="43.726800600590316" lon="11.767192331108408"><ele>349.0</ele><time>2026-04-10T13:41:14.001Z</time></trkpt><trkpt lat="43.726838775752086" lon="11.76704350807663"><ele>352.0</ele><time>2026-04-10T13:41:15.001Z</time></trkpt><trkpt lat="43.7268664715408" lon="11.766904246896408"><ele>352.66666666666663</ele><time>2026-04-10T13:41:16.001Z</time></trkpt><trkpt lat="43.72688536254332" lon="11.766778159962044"><ele>353.3333333333333</ele><time>2026-04-10T13:41:17.001Z</time></trkpt><trkpt lat="43.72688551145426" lon="11.7666807844669"><ele>354.0</ele><time>2026-04-10T13:41:18.001Z</time></trkpt><trkpt lat="43.726853414707676" lon="11.766598291743701"><ele>354.6666666666667</ele><time>2026-04-10T13:41:19.001Z</time></trkpt><trkpt lat="43.726797512356086" lon="11.766543594254125"><ele>355.33333333333337</ele><time>2026-04-10T13:41:20.001Z</time></trkpt><trkpt lat="43.72668462946756" lon="11.766581694734382"><ele>356.0</ele><time>2026-04-10T13:41:22.001Z</time></trkpt><trkpt lat="43.72665659983871" lon="11.766746408850285"><ele>355.0</ele><time>2026-04-10T13:41:23.001Z</time></trkpt><trkpt lat="43.72659810702406" lon="11.766864320634946"><ele>354.0</ele><time>2026-04-10T13:41:24.001Z</time></trkpt><trkpt lat="43.726538597867496" lon="11.767010303768325"><ele>353.0</ele><time>2026-04-10T13:41:25.001Z</time></trkpt><trkpt lat="43.72647111163687" lon="11.767168312225655"><ele>352.0</ele><time>2026-04-10T13:41:26.001Z</time></trkpt><trkpt lat="43.726402347152465" lon="11.767329313466846"><ele>352.0</ele><time>2026-04-10T13:41:27.001Z</time></trkpt><trkpt lat="43.72634139244817" lon="11.767472029334323"><ele>352.0</ele><time>2026-04-10T13:41:28.001Z</time></trkpt><trkpt lat="43.72628631437578" lon="11.76760098610389"><ele>352.0</ele><time>2026-04-10T13:41:29.001Z</time></trkpt><trkpt lat="43.72622152290068" lon="11.767714204106206"><ele>352.0</ele><time>2026-04-10T13:41:30.001Z</time></trkpt><trkpt lat="43.72613612508785" lon="11.767801259656618"><ele>352.0</ele><time>2026-04-10T13:41:31.001Z</time></trkpt><trkpt lat="43.72603947628883" lon="11.767864098663347"><ele>354.16666666666663</ele><time>2026-04-10T13:41:32.001Z</time></trkpt><trkpt lat="43.72595810204873" lon="11.767940766817416"><ele>356.3333333333333</ele><time>2026-04-10T13:41:33.001Z</time></trkpt><trkpt lat="43.725883491434104" lon="11.767985191855747"><ele>358.5</ele><time>2026-04-10T13:41:34.001Z</time></trkpt><trkpt lat="43.72581205437012" lon="11.767984392257244"><ele>360.6666666666667</ele><time>2026-04-10T13:41:35.001Z</time></trkpt><trkpt lat="43.72573896639495" lon="11.767954161658556"><ele>362.83333333333337</ele><time>2026-04-10T13:41:36.001Z</time></trkpt><trkpt lat="43.72566574102118" lon="11.76789459315889"><ele>365.0</ele><time>2026-04-10T13:41:37.001Z</time></trkpt><trkpt lat="43.72558009732426" lon="11.767817550067631"><ele>365.0</ele><time>2026-04-10T13:41:38.001Z</time></trkpt><trkpt lat="43.7254928575076" lon="11.767756016618467"><ele>365.0</ele><time>2026-04-10T13:41:39.001Z</time></trkpt><trkpt lat="43.725405347746644" lon="11.767729206759876"><ele>365.0</ele><time>2026-04-10T13:41:40.001Z</time></trkpt><trkpt lat="43.72531303990018" lon="11.767745156744203"><ele>365.0</ele><time>2026-04-10T13:41:41.001Z</time></trkpt><trkpt lat="43.72522833575336" lon="11.767819768654297"><ele>365.0</ele><time>2026-04-10T13:41:42.001Z</time></trkpt><trkpt lat="43.725189788031535" lon="11.767945234866545"><ele>365.0</ele><time>2026-04-10T13:41:43.001Z</time></trkpt><trkpt lat="43.725199859138634" lon="11.768096373144386"><ele>365.0</ele><time>2026-04-10T13:41:44.001Z</time></trkpt><trkpt lat="43.72525001385516" lon="11.76824394637873"><ele>365.0</ele><time>2026-04-10T13:41:45.001Z</time></trkpt><trkpt lat="43.72527308831855" lon="11.768379602164774"><ele>365.0</ele><time>2026-04-10T13:41:46.001Z</time></trkpt><trkpt lat="43.72524316123705" lon="11.76849959860668"><ele>365.0</ele><time>2026-04-10T13:41:47.001Z</time></trkpt><trkpt lat="43.725163115828664" lon="11.76855882051311"><ele>368.4</ele><time>2026-04-10T13:41:48.001Z</time></trkpt><trkpt lat="43.72507970738986" lon="11.768535977448975"><ele>371.8</ele><time>2026-04-10T13:41:49.001Z</time></trkpt><trkpt lat="43.72502469005566" lon="11.768438649363166"><ele>375.20000000000005</ele><time>2026-04-10T13:41:50.001Z</time></trkpt><trkpt lat="43.72499597826046" lon="11.768325291094062"><ele>378.6</ele><time>2026-04-10T13:41:51.001Z</time></trkpt><trkpt lat="43.72497138082638" lon="11.768165314213656"><ele>382.0</ele><time>2026-04-10T13:41:52.001Z</time></trkpt><trkpt lat="43.72494764957521" lon="11.767998379462858"><ele>382.25</ele><time>2026-04-10T13:41:53.001Z</time></trkpt><trkpt lat="43.72491140518617" lon="11.767845723555059"><ele>382.5</ele><time>2026-04-10T13:41:54.001Z</time></trkpt><trkpt lat="43.724871909519415" lon="11.7676848690005"><ele>382.75</ele><time>2026-04-10T13:41:55.001Z</time></trkpt><trkpt lat="43.72483266512174" lon="11.767529533854715"><ele>383.0</ele><time>2026-04-10T13:41:56.001Z</time></trkpt><trkpt lat="43.724798502407175" lon="11.76738086732872"><ele>382.2</ele><time>2026-04-10T13:41:57.001Z</time></trkpt><trkpt lat="43.72477763874051" lon="11.76723621704247"><ele>381.4</ele><time>2026-04-10T13:41:58.001Z</time></trkpt><trkpt lat="43.724781094179086" lon="11.767093897557324"><ele>380.59999999999997</ele><time>2026-04-10T13:41:59.001Z</time></trkpt><trkpt lat="43.72482862361265" lon="11.766967704322411"><ele>379.79999999999995</ele><time>2026-04-10T13:42:00.001Z</time></trkpt><trkpt lat="43.72489954780747" lon="11.766870409347492"><ele>379.0</ele><time>2026-04-10T13:42:01.001Z</time></trkpt><trkpt lat="43.724954259939466" lon="11.766784372232527"><ele>381.0</ele><time>2026-04-10T13:42:02.001Z</time></trkpt><trkpt lat="43.72496965722517" lon="11.766663401078755"><ele>383.0</ele><time>2026-04-10T13:42:03.001Z</time></trkpt><trkpt lat="43.72493341036947" lon="11.766530631593767"><ele>385.0</ele><time>2026-04-10T13:42:04.001Z</time></trkpt><trkpt lat="43.72485360536023" lon="11.766444294329373"><ele>387.0</ele><time>2026-04-10T13:42:05.001Z</time></trkpt><trkpt lat="43.72474643549097" lon="11.766417757693727"><ele>389.0</ele><time>2026-04-10T13:42:06.001Z</time></trkpt><trkpt lat="43.72463293087989" lon="11.766464756096997"><ele>389.0</ele><time>2026-04-10T13:42:07.001Z</time></trkpt><trkpt lat="43.724543337521254" lon="11.766504378491632"><ele>389.0</ele><time>2026-04-10T13:42:08.001Z</time></trkpt><trkpt lat="43.724467561801305" lon="11.766555860823315"><ele>389.0</ele><time>2026-04-10T13:42:09.001Z</time></trkpt><trkpt lat="43.72440591672619" lon="11.766616778700623"><ele>389.0</ele><time>2026-04-10T13:42:10.001Z</time></trkpt><trkpt lat="43.72434456766769" lon="11.766721289042982"><ele>389.0</ele><time>2026-04-10T13:42:11.002Z</time></trkpt><trkpt lat="43.72430396772826" lon="11.76686829525944"><ele>392.25</ele><time>2026-04-10T13:42:12.002Z</time></trkpt><trkpt lat="43.724292207783876" lon="11.767040985914694"><ele>395.5</ele><time>2026-04-10T13:42:13.002Z</time></trkpt><trkpt lat="43.72430013592597" lon="11.767233078106456"><ele>398.75</ele><time>2026-04-10T13:42:14.002Z</time></trkpt><trkpt lat="43.72431265132941" lon="11.76741531597544"><ele>402.0</ele><time>2026-04-10T13:42:15.002Z</time></trkpt><trkpt lat="43.72431609482572" lon="11.767592819780335"><ele>403.0</ele><time>2026-04-10T13:42:16.002Z</time></trkpt><trkpt lat="43.72431330121033" lon="11.767763975490372"><ele>404.0</ele><time>2026-04-10T13:42:17.002Z</time></trkpt><trkpt lat="43.7243200031831" lon="11.767924262311473"><ele>405.0</ele><time>2026-04-10T13:42:18.002Z</time></trkpt><trkpt lat="43.72432871859299" lon="11.768063430924979"><ele>406.0</ele><time>2026-04-10T13:42:18.999Z</time></trkpt><trkpt lat="43.724340005449044" lon="11.768193732880121"><ele>407.0</ele><time>2026-04-10T13:42:19.999Z</time></trkpt><trkpt lat="43.72434611244176" lon="11.768316919640801"><ele>406.99999999999994</ele><time>2026-04-10T13:42:20.999Z</time></trkpt><trkpt lat="43.72434576389638" lon="11.768440328773417"><ele>407.0</ele><time>2026-04-10T13:42:21.999Z</time></trkpt><trkpt lat="43.72434543707072" lon="11.768565198982383"><ele>407.0</ele><time>2026-04-10T13:42:22.999Z</time></trkpt><trkpt lat="43.72434296622324" lon="11.768698634877431"><ele>407.0</ele><time>2026-04-10T13:42:23.999Z</time></trkpt><trkpt lat="43.724308464248836" lon="11.768800102702766"><ele>406.99999999999994</ele><time>2026-04-10T13:42:24.999Z</time></trkpt><trkpt lat="43.724249615765935" lon="11.768880891734725"><ele>407.0</ele><time>2026-04-10T13:42:25.999Z</time></trkpt><trkpt lat="43.72416201892346" lon="11.768936148972678"><ele>405.40000000000003</ele><time>2026-04-10T13:42:26.999Z</time></trkpt><trkpt lat="43.724047050400394" lon="11.768981885224985"><ele>403.8</ele><time>2026-04-10T13:42:27.999Z</time></trkpt><trkpt lat="43.72392754141234" lon="11.769031289656658"><ele>402.2</ele><time>2026-04-10T13:42:28.999Z</time></trkpt><trkpt lat="43.72383550793916" lon="11.769081651345042"><ele>400.6</ele><time>2026-04-10T13:42:29.999Z</time></trkpt><trkpt lat="43.72376177274528" lon="11.769111909118227"><ele>399.0</ele><time>2026-04-10T13:42:30.999Z</time></trkpt><trkpt lat="43.723699157054575" lon="11.769077353543137"><ele>399.0</ele><time>2026-04-10T13:42:31.999Z</time></trkpt><trkpt lat="43.723673846662116" lon="11.768993939554752"><ele>399.0</ele><time>2026-04-10T13:42:32.999Z</time></trkpt><trkpt lat="43.72370399009865" lon="11.768897061580393"><ele>399.0</ele><time>2026-04-10T13:42:33.999Z</time></trkpt><trkpt lat="43.723762473361205" lon="11.768828990078628"><ele>399.0</ele><time>2026-04-10T13:42:34.999Z</time></trkpt><trkpt lat="43.72385870119539" lon="11.768783698316534"><ele>399.0</ele><time>2026-04-10T13:42:35.999Z</time></trkpt><trkpt lat="43.72394773269607" lon="11.768725671487687"><ele>399.0</ele><time>2026-04-10T13:42:37Z</time></trkpt><trkpt lat="43.72399840426149" lon="11.76862168997442"><ele>400.6</ele><time>2026-04-10T13:42:38Z</time></trkpt><trkpt lat="43.72403079127145" lon="11.768490777072467"><ele>402.2</ele><time>2026-04-10T13:42:39Z</time></trkpt><trkpt lat="43.72402832716471" lon="11.768353055891524"><ele>403.8</ele><time>2026-04-10T13:42:40Z</time></trkpt><trkpt lat="43.72398936219008" lon="11.768222124578992"><ele>405.40000000000003</ele><time>2026-04-10T13:42:41Z</time></trkpt><trkpt lat="43.72392719564026" lon="11.768080521927017"><ele>407.0</ele><time>2026-04-10T13:42:42Z</time></trkpt><trkpt lat="43.723856164328645" lon="11.767925873882396"><ele>407.0</ele><time>2026-04-10T13:42:43Z</time></trkpt><trkpt lat="43.72378978705347" lon="11.767779116571932"><ele>407.0</ele><time>2026-04-10T13:42:44Z</time></trkpt><trkpt lat="43.72373416012987" lon="11.767640207775553"><ele>407.0</ele><time>2026-04-10T13:42:45Z</time></trkpt><trkpt lat="43.72367690329303" lon="11.767506436192027"><ele>407.0</ele><time>2026-04-10T13:42:46Z</time></trkpt><trkpt lat="43.7236155846872" lon="11.767369931427057"><ele>410.8</ele><time>2026-04-10T13:42:47Z</time></trkpt><trkpt lat="43.723553347408696" lon="11.7672219384268"><ele>414.6</ele><time>2026-04-10T13:42:48Z</time></trkpt><trkpt lat="43.7235045903494" lon="11.767083166497619"><ele>418.40000000000003</ele><time>2026-04-10T13:42:49Z</time></trkpt><trkpt lat="43.72345454765032" lon="11.76694678706462"><ele>422.20000000000005</ele><time>2026-04-10T13:42:50Z</time></trkpt><trkpt lat="43.72340474716643" lon="11.766822616412687"><ele>426.0</ele><time>2026-04-10T13:42:51Z</time></trkpt><trkpt lat="43.723368043932226" lon="11.76670106258785"><ele>426.0</ele><time>2026-04-10T13:42:52Z</time></trkpt><trkpt lat="43.72336482069671" lon="11.766585349650404"><ele>426.0</ele><time>2026-04-10T13:42:53Z</time></trkpt><trkpt lat="43.72335890977413" lon="11.766461005664821"><ele>426.0</ele><time>2026-04-10T13:42:54Z</time></trkpt><trkpt lat="43.723340549182005" lon="11.76635420231387"><ele>426.0</ele><time>2026-04-10T13:42:55Z</time></trkpt><trkpt lat="43.72331001811436" lon="11.766268863628385"><ele>426.0</ele><time>2026-04-10T13:42:56Z</time></trkpt><trkpt lat="43.72327438087463" lon="11.766185829168993"><ele>426.0</ele><time>2026-04-10T13:42:57Z</time></trkpt><trkpt lat="43.723208357169305" lon="11.766076645526102"><ele>426.0</ele><time>2026-04-10T13:42:59Z</time></trkpt><trkpt lat="43.72315700569842" lon="11.765993586027781"><ele>426.0</ele><time>2026-04-10T13:43:01Z</time></trkpt><trkpt lat="43.7231180841874" lon="11.765895546288565"><ele>426.0</ele><time>2026-04-10T13:43:04Z</time></trkpt><trkpt lat="43.722988312726294" lon="11.765970749200914"><ele>426.0</ele><time>2026-04-10T13:43:06Z</time></trkpt><trkpt lat="43.72291752993764" lon="11.766053543316822"><ele>426.0</ele><time>2026-04-10T13:43:08Z</time></trkpt><trkpt lat="43.722858210176554" lon="11.766113471763541"><ele>426.0</ele><time>2026-04-10T13:43:10Z</time></trkpt><trkpt lat="43.72279846697467" lon="11.766173571550004"><ele>426.0</ele><time>2026-04-10T13:43:13Z</time></trkpt><trkpt lat="43.72287490726102" lon="11.766312081062033"><ele>426.0</ele><time>2026-04-10T13:43:15.001Z</time></trkpt><trkpt lat="43.72293051493799" lon="11.766371976424592"><ele>426.0</ele><time>2026-04-10T13:43:16.001Z</time></trkpt><trkpt lat="43.72298762937598" lon="11.766425398465742"><ele>426.0</ele><time>2026-04-10T13:43:17.001Z</time></trkpt><trkpt lat="43.72302662465604" lon="11.766505720121629"><ele>426.0</ele><time>2026-04-10T13:43:18.001Z</time></trkpt><trkpt lat="43.72308661229421" lon="11.766571575396592"><ele>426.0</ele><time>2026-04-10T13:43:19.001Z</time></trkpt><trkpt lat="43.72310283933937" lon="11.766677401818574"><ele>426.0</ele><time>2026-04-10T13:43:20.001Z</time></trkpt><trkpt lat="43.723116150760035" lon="11.766781100411094"><ele>426.0</ele><time>2026-04-10T13:43:21.001Z</time></trkpt><trkpt lat="43.72312068031506" lon="11.76688313527874"><ele>426.0</ele><time>2026-04-10T13:43:22.001Z</time></trkpt><trkpt lat="43.72306861347535" lon="11.767012986505812"><ele>426.0</ele><time>2026-04-10T13:43:24.001Z</time></trkpt><trkpt lat="43.72304948706673" lon="11.767136425746635"><ele>426.0</ele><time>2026-04-10T13:43:26.001Z</time></trkpt><trkpt lat="43.7230165393384" lon="11.76723030336161"><ele>426.6</ele><time>2026-04-10T13:43:28.001Z</time></trkpt><trkpt lat="43.72288853439081" lon="11.767115620599627"><ele>427.20000000000005</ele><time>2026-04-10T13:43:32.001Z</time></trkpt><trkpt lat="43.72285665695299" lon="11.767010812607948"><ele>427.79999999999995</ele><time>2026-04-10T13:43:33.001Z</time></trkpt><trkpt lat="43.7228240151739" lon="11.766929066345917"><ele>428.4</ele><time>2026-04-10T13:43:34.001Z</time></trkpt><trkpt lat="43.7227261365506" lon="11.766858909839723"><ele>429.0</ele><time>2026-04-10T13:43:36.001Z</time></trkpt><trkpt lat="43.72263637498784" lon="11.766907408467786"><ele>429.0</ele><time>2026-04-10T13:43:38.001Z</time></trkpt><trkpt lat="43.72260491607435" lon="11.767032660019177"><ele>429.0</ele><time>2026-04-10T13:43:40.001Z</time></trkpt><trkpt lat="43.72262858958872" lon="11.767130538080208"><ele>429.0</ele><time>2026-04-10T13:43:42.001Z</time></trkpt><trkpt lat="43.72267703573077" lon="11.767203396402099"><ele>429.0</ele><time>2026-04-10T13:43:45.001Z</time></trkpt><trkpt lat="43.72272906432633" lon="11.767255662946932"><ele>429.0</ele><time>2026-04-10T13:43:50.001Z</time></trkpt><trkpt lat="43.72266991265277" lon="11.767221669337578"><ele>429.0</ele><time>2026-04-10T13:45:54.002Z</time></trkpt><trkpt lat="43.7225803032593" lon="11.767266939407381"><ele>429.0</ele><time>2026-04-10T13:46:20.002Z</time></trkpt><trkpt lat="43.72263264682104" lon="11.767217250871877"><ele>429.0</ele><time>2026-04-10T13:47:20.001Z</time></trkpt><trkpt lat="43.72269499905757" lon="11.767236618857991"><ele>429.0</ele><time>2026-04-10T13:47:29.001Z</time></trkpt><trkpt lat="43.72276041079048" lon="11.767243271935092"><ele>429.0</ele><time>2026-04-10T13:47:40.001Z</time></trkpt><trkpt lat="43.72282413748488" lon="11.767198202793434"><ele>429.0</ele><time>2026-04-10T13:47:58.002Z</time></trkpt><trkpt lat="43.72288602099275" lon="11.76717605069533"><ele>429.0</ele><time>2026-04-10T13:48:22.002Z</time></trkpt><trkpt lat="43.72291897887017" lon="11.767099868761761"><ele>429.0</ele><time>2026-04-10T13:48:44Z</time></trkpt><trkpt lat="43.7228763429027" lon="11.767020400011171"><ele>429.57142857142856</ele><time>2026-04-10T13:48:51Z</time></trkpt><trkpt lat="43.72293939143019" lon="11.767059048385617"><ele>430.14285714285717</ele><time>2026-04-10T13:49:06Z</time></trkpt><trkpt lat="43.722869693164185" lon="11.766984457790237"><ele>430.71428571428567</ele><time>2026-04-10T14:21:30.001Z</time></trkpt><trkpt lat="43.72285066308547" lon="11.767068040634435"><ele>431.2857142857143</ele><time>2026-04-10T14:21:54.001Z</time></trkpt><trkpt lat="43.722842962576664" lon="11.76716477523489"><ele>431.85714285714283</ele><time>2026-04-10T14:22:27Z</time></trkpt><trkpt lat="43.72279333369552" lon="11.767220652236718"><ele>432.4285714285714</ele><time>2026-04-10T14:22:42Z</time></trkpt><trkpt lat="43.722867557709016" lon="11.767247450974644"><ele>433.0</ele><time>2026-04-10T14:29:36.001Z</time></trkpt><trkpt lat="43.72294532801716" lon="11.767284149806198"><ele>433.0</ele><time>2026-04-10T14:29:38.001Z</time></trkpt><trkpt lat="43.723017262348876" lon="11.767274910612523"><ele>432.99999999999994</ele><time>2026-04-10T14:29:40.001Z</time></trkpt><trkpt lat="43.72306457669095" lon="11.76714902471716"><ele>432.99999999999994</ele><time>2026-04-10T14:29:42.001Z</time></trkpt><trkpt lat="43.723077876113486" lon="11.767016423092654"><ele>433.0</ele><time>2026-04-10T14:29:44.001Z</time></trkpt><trkpt lat="43.72308181583882" lon="11.766882925898475"><ele>433.0</ele><time>2026-04-10T14:29:46.001Z</time></trkpt><trkpt lat="43.72307011601826" lon="11.766726329569769"><ele>431.83333333333337</ele><time>2026-04-10T14:29:48.001Z</time></trkpt><trkpt lat="43.72305690675617" lon="11.766569310912615"><ele>430.6666666666667</ele><time>2026-04-10T14:29:50.001Z</time></trkpt><trkpt lat="43.72302954611665" lon="11.766447867078641"><ele>429.5</ele><time>2026-04-10T14:29:52.001Z</time></trkpt><trkpt lat="43.72298804789117" lon="11.766380723070444"><ele>428.33333333333337</ele><time>2026-04-10T14:29:53.001Z</time></trkpt><trkpt lat="43.72292611724049" lon="11.766303891990521"><ele>427.1666666666667</ele><time>2026-04-10T14:29:55.001Z</time></trkpt><trkpt lat="43.72288164622364" lon="11.766200988062964"><ele>426.0</ele><time>2026-04-10T14:29:58.001Z</time></trkpt><trkpt lat="43.72293998886046" lon="11.766071807222604"><ele>425.8</ele><time>2026-04-10T14:30:02.001Z</time></trkpt><trkpt lat="43.723010779330565" lon="11.765997435523929"><ele>425.6</ele><time>2026-04-10T14:30:04.002Z</time></trkpt><trkpt lat="43.72306066000395" lon="11.765926094884831"><ele>425.4</ele><time>2026-04-10T14:30:07.002Z</time></trkpt><trkpt lat="43.72295018939956" lon="11.76583369449717"><ele>425.2</ele><time>2026-04-10T14:30:09.002Z</time></trkpt><trkpt lat="43.72284577840722" lon="11.765840180314148"><ele>425.0</ele><time>2026-04-10T14:30:11.002Z</time></trkpt><trkpt lat="43.722780162828634" lon="11.765812605004465"><ele>424.85714285714283</ele><time>2026-04-10T14:30:12.002Z</time></trkpt><trkpt lat="43.722709132607044" lon="11.765807275232659"><ele>424.71428571428567</ele><time>2026-04-10T14:30:13.002Z</time></trkpt><trkpt lat="43.722639540472436" lon="11.765801743114809"><ele>424.57142857142856</ele><time>2026-04-10T14:30:14.002Z</time></trkpt><trkpt lat="43.722565389908056" lon="11.765799756932907"><ele>424.42857142857144</ele><time>2026-04-10T14:30:15.002Z</time></trkpt><trkpt lat="43.72249398574659" lon="11.76579887914184"><ele>424.2857142857143</ele><time>2026-04-10T14:30:16.002Z</time></trkpt><trkpt lat="43.7224239527433" lon="11.76579944799947"><ele>424.14285714285717</ele><time>2026-04-10T14:30:17.002Z</time></trkpt><trkpt lat="43.72235445581116" lon="11.765802200737228"><ele>424.0</ele><time>2026-04-10T14:30:18.002Z</time></trkpt><trkpt lat="43.72220501435964" lon="11.76582923095606"><ele>424.00000000000006</ele><time>2026-04-10T14:30:20.002Z</time></trkpt><trkpt lat="43.7221403045762" lon="11.765888025005852"><ele>424.0</ele><time>2026-04-10T14:30:21.002Z</time></trkpt><trkpt lat="43.72208083953821" lon="11.765936376483367"><ele>424.0</ele><time>2026-04-10T14:30:22.002Z</time></trkpt><trkpt lat="43.721988985022335" lon="11.765964373894246"><ele>424.0</ele><time>2026-04-10T14:30:24.002Z</time></trkpt><trkpt lat="43.721916223137015" lon="11.766000138287422"><ele>424.00000000000006</ele><time>2026-04-10T14:30:26.002Z</time></trkpt><trkpt lat="43.72185258918035" lon="11.766077132844519"><ele>424.0</ele><time>2026-04-10T14:30:28.002Z</time></trkpt><trkpt lat="43.721761993921504" lon="11.766103028529129"><ele>423.6666666666667</ele><time>2026-04-10T14:30:30.002Z</time></trkpt><trkpt lat="43.72166861344918" lon="11.76612030825613"><ele>423.33333333333337</ele><time>2026-04-10T14:30:32.002Z</time></trkpt><trkpt lat="43.72159262611445" lon="11.76615654157176"><ele>423.0</ele><time>2026-04-10T14:30:34.002Z</time></trkpt><trkpt lat="43.721505073902215" lon="11.76625679980641"><ele>422.66666666666663</ele><time>2026-04-10T14:30:36.002Z</time></trkpt><trkpt lat="43.721502105842546" lon="11.766351921501569"><ele>422.3333333333333</ele><time>2026-04-10T14:30:37.001Z</time></trkpt><trkpt lat="43.721560880110864" lon="11.766449518933273"><ele>422.0</ele><time>2026-04-10T14:30:38.001Z</time></trkpt><trkpt lat="43.721583218986915" lon="11.766540657829164"><ele>422.0</ele><time>2026-04-10T14:30:39.001Z</time></trkpt><trkpt lat="43.721616627169226" lon="11.766624752708124"><ele>422.0</ele><time>2026-04-10T14:30:40.001Z</time></trkpt><trkpt lat="43.72164706021283" lon="11.766705427657895"><ele>422.0</ele><time>2026-04-10T14:30:41.001Z</time></trkpt><trkpt lat="43.72167933452715" lon="11.766789283170462"><ele>422.0</ele><time>2026-04-10T14:30:42.001Z</time></trkpt><trkpt lat="43.72171317598351" lon="11.766866302259794"><ele>422.0</ele><time>2026-04-10T14:30:43.001Z</time></trkpt><trkpt lat="43.72175003279635" lon="11.766939154399829"><ele>422.0</ele><time>2026-04-10T14:30:44.001Z</time></trkpt><trkpt lat="43.72181655714456" lon="11.767010357006221"><ele>422.0</ele><time>2026-04-10T14:30:45.001Z</time></trkpt><trkpt lat="43.72186912110125" lon="11.767100751216423"><ele>423.16666666666663</ele><time>2026-04-10T14:30:46.001Z</time></trkpt><trkpt lat="43.72192317491721" lon="11.767190566595175"><ele>424.3333333333333</ele><time>2026-04-10T14:30:47.001Z</time></trkpt><trkpt lat="43.72197485324004" lon="11.767282609309456"><ele>425.5</ele><time>2026-04-10T14:30:48.001Z</time></trkpt><trkpt lat="43.722023603836476" lon="11.767373710042246"><ele>426.66666666666663</ele><time>2026-04-10T14:30:49.001Z</time></trkpt><trkpt lat="43.72206502500501" lon="11.767476320532232"><ele>427.8333333333333</ele><time>2026-04-10T14:30:50Z</time></trkpt><trkpt lat="43.72211328461737" lon="11.767570903553949"><ele>429.0</ele><time>2026-04-10T14:30:51Z</time></trkpt><trkpt lat="43.72216224126284" lon="11.767670561977573"><ele>425.79999999999995</ele><time>2026-04-10T14:30:52Z</time></trkpt><trkpt lat="43.72220859092691" lon="11.767773192076172"><ele>422.59999999999997</ele><time>2026-04-10T14:30:53Z</time></trkpt><trkpt lat="43.722257683862225" lon="11.767891753217558"><ele>419.4</ele><time>2026-04-10T14:30:54Z</time></trkpt><trkpt lat="43.72230881553184" lon="11.768009141453755"><ele>416.2</ele><time>2026-04-10T14:30:55Z</time></trkpt><trkpt lat="43.72235939844604" lon="11.768118251776746"><ele>413.0</ele><time>2026-04-10T14:30:56Z</time></trkpt><trkpt lat="43.72239325636054" lon="11.768239712208812"><ele>413.0</ele><time>2026-04-10T14:30:57Z</time></trkpt><trkpt lat="43.72244726357319" lon="11.768371307655812"><ele>413.0</ele><time>2026-04-10T14:30:58Z</time></trkpt><trkpt lat="43.72251334619207" lon="11.768511838069996"><ele>413.0</ele><time>2026-04-10T14:30:59Z</time></trkpt><trkpt lat="43.722570624004" lon="11.768656321775675"><ele>413.0</ele><time>2026-04-10T14:31:00Z</time></trkpt><trkpt lat="43.722628519666976" lon="11.768794224568703"><ele>412.5</ele><time>2026-04-10T14:31:01Z</time></trkpt><trkpt lat="43.72268448873014" lon="11.76893688491994"><ele>412.0</ele><time>2026-04-10T14:31:02Z</time></trkpt><trkpt lat="43.722738705358424" lon="11.769071939616593"><ele>411.5</ele><time>2026-04-10T14:31:03Z</time></trkpt><trkpt lat="43.722788712543334" lon="11.769220179692498"><ele>411.0</ele><time>2026-04-10T14:31:04Z</time></trkpt><trkpt lat="43.722834016873" lon="11.769359093176348"><ele>406.5</ele><time>2026-04-10T14:31:05Z</time></trkpt><trkpt lat="43.722881672620154" lon="11.769502113765185"><ele>402.0</ele><time>2026-04-10T14:31:06Z</time></trkpt><trkpt lat="43.72292245749578" lon="11.76965887251822"><ele>397.5</ele><time>2026-04-10T14:31:07Z</time></trkpt><trkpt lat="43.72297265183642" lon="11.7698005896959"><ele>393.0</ele><time>2026-04-10T14:31:08Z</time></trkpt><trkpt lat="43.723048541347566" lon="11.7699159391409"><ele>393.0</ele><time>2026-04-10T14:31:09Z</time></trkpt><trkpt lat="43.72314051417921" lon="11.769998330108962"><ele>393.0</ele><time>2026-04-10T14:31:10Z</time></trkpt><trkpt lat="43.72324000514249" lon="11.770064905781762"><ele>393.0</ele><time>2026-04-10T14:31:11.001Z</time></trkpt><trkpt lat="43.72334316992561" lon="11.770104923220243"><ele>393.0</ele><time>2026-04-10T14:31:12.001Z</time></trkpt><trkpt lat="43.72343821792875" lon="11.770097289719363"><ele>393.0</ele><time>2026-04-10T14:31:13.001Z</time></trkpt><trkpt lat="43.723536434188304" lon="11.770073184223497"><ele>389.2</ele><time>2026-04-10T14:31:14.001Z</time></trkpt><trkpt lat="43.72361630755966" lon="11.769990428148324"><ele>385.4</ele><time>2026-04-10T14:31:15.001Z</time></trkpt><trkpt lat="43.723685755670374" lon="11.769876204920429"><ele>381.59999999999997</ele><time>2026-04-10T14:31:16.001Z</time></trkpt><trkpt lat="43.72374937578837" lon="11.769765148181369"><ele>377.79999999999995</ele><time>2026-04-10T14:31:17.001Z</time></trkpt><trkpt lat="43.72382120908315" lon="11.769663512388474"><ele>374.0</ele><time>2026-04-10T14:31:18.001Z</time></trkpt><trkpt lat="43.72389648637831" lon="11.76957667604789"><ele>374.0</ele><time>2026-04-10T14:31:19.001Z</time></trkpt><trkpt lat="43.72397274789516" lon="11.76949313549926"><ele>374.0</ele><time>2026-04-10T14:31:20.001Z</time></trkpt><trkpt lat="43.72405399720585" lon="11.76941760879847"><ele>374.0</ele><time>2026-04-10T14:31:21.001Z</time></trkpt><trkpt lat="43.72414465178555" lon="11.76935815222629"><ele>374.0</ele><time>2026-04-10T14:31:22.001Z</time></trkpt><trkpt lat="43.72424051456012" lon="11.769319362722014"><ele>374.0</ele><time>2026-04-10T14:31:23.001Z</time></trkpt><trkpt lat="43.72433806685803" lon="11.769291865498428"><ele>375.6</ele><time>2026-04-10T14:31:24.001Z</time></trkpt><trkpt lat="43.724438471598994" lon="11.769276697598022"><ele>377.2</ele><time>2026-04-10T14:31:25.001Z</time></trkpt><trkpt lat="43.72454522909363" lon="11.769296598045564"><ele>378.8</ele><time>2026-04-10T14:31:26.001Z</time></trkpt><trkpt lat="43.72464312581579" lon="11.76933621987052"><ele>380.40000000000003</ele><time>2026-04-10T14:31:27.001Z</time></trkpt><trkpt lat="43.72473767808451" lon="11.769367972730437"><ele>382.0</ele><time>2026-04-10T14:31:28.001Z</time></trkpt><trkpt lat="43.72484145156036" lon="11.769404557593111"><ele>378.3333333333333</ele><time>2026-04-10T14:31:29.001Z</time></trkpt><trkpt lat="43.72494520984564" lon="11.769438088142575"><ele>374.66666666666663</ele><time>2026-04-10T14:31:30.001Z</time></trkpt><trkpt lat="43.725039062622784" lon="11.769463019770315"><ele>371.0</ele><time>2026-04-10T14:31:31.001Z</time></trkpt><trkpt lat="43.72512432506317" lon="11.769478819854614"><ele>367.3333333333333</ele><time>2026-04-10T14:31:32.001Z</time></trkpt><trkpt lat="43.72520547320592" lon="11.769488649152493"><ele>363.6666666666667</ele><time>2026-04-10T14:31:33.001Z</time></trkpt><trkpt lat="43.72527760727707" lon="11.769492228378027"><ele>360.0</ele><time>2026-04-10T14:31:34.001Z</time></trkpt><trkpt lat="43.72535406709168" lon="11.769487709246015"><ele>360.3333333333333</ele><time>2026-04-10T14:31:35.001Z</time></trkpt><trkpt lat="43.725428473189034" lon="11.769460931051503"><ele>360.6666666666667</ele><time>2026-04-10T14:31:36.001Z</time></trkpt><trkpt lat="43.725502564639015" lon="11.769416243364848"><ele>361.0</ele><time>2026-04-10T14:31:37.001Z</time></trkpt><trkpt lat="43.725567469578586" lon="11.769346261227666"><ele>361.33333333333337</ele><time>2026-04-10T14:31:38.001Z</time></trkpt><trkpt lat="43.72563004418307" lon="11.769245721797295"><ele>361.6666666666667</ele><time>2026-04-10T14:31:39.001Z</time></trkpt><trkpt lat="43.725670902014244" lon="11.769129217014829"><ele>362.0</ele><time>2026-04-10T14:31:40.001Z</time></trkpt><trkpt lat="43.72570443760135" lon="11.769001098313444"><ele>362.0</ele><time>2026-04-10T14:31:41.001Z</time></trkpt><trkpt lat="43.725736279494" lon="11.768861499981263"><ele>362.0</ele><time>2026-04-10T14:31:42.001Z</time></trkpt><trkpt lat="43.7257655201616" lon="11.76872216508945"><ele>362.0</ele><time>2026-04-10T14:31:43.001Z</time></trkpt><trkpt lat="43.725790331085676" lon="11.768583690153816"><ele>362.0</ele><time>2026-04-10T14:31:44.001Z</time></trkpt><trkpt lat="43.72580740780778" lon="11.768463369728186"><ele>362.0</ele><time>2026-04-10T14:31:45.001Z</time></trkpt><trkpt lat="43.72582085695954" lon="11.768348055376872"><ele>362.5</ele><time>2026-04-10T14:31:46.001Z</time></trkpt><trkpt lat="43.72583826566294" lon="11.768234843909942"><ele>363.0</ele><time>2026-04-10T14:31:47.001Z</time></trkpt><trkpt lat="43.72586416732961" lon="11.768132843146796"><ele>363.5</ele><time>2026-04-10T14:31:48.001Z</time></trkpt><trkpt lat="43.72591080732313" lon="11.768042910394929"><ele>364.0</ele><time>2026-04-10T14:31:49.001Z</time></trkpt><trkpt lat="43.72596782227262" lon="11.767962512338347"><ele>364.5</ele><time>2026-04-10T14:31:50.001Z</time></trkpt><trkpt lat="43.72604208163513" lon="11.767900736865663"><ele>365.0</ele><time>2026-04-10T14:31:51.001Z</time></trkpt><trkpt lat="43.72611802476042" lon="11.7678470182732"><ele>362.4</ele><time>2026-04-10T14:31:52.001Z</time></trkpt><trkpt lat="43.72619536950183" lon="11.767789534381244"><ele>359.8</ele><time>2026-04-10T14:31:53.001Z</time></trkpt><trkpt lat="43.726263855463074" lon="11.767704534407917"><ele>357.20000000000005</ele><time>2026-04-10T14:31:54.001Z</time></trkpt><trkpt lat="43.72631796882184" lon="11.767581829847112"><ele>354.6</ele><time>2026-04-10T14:31:55.001Z</time></trkpt><trkpt lat="43.726372490716" lon="11.767453405763144"><ele>352.0</ele><time>2026-04-10T14:31:56.001Z</time></trkpt><trkpt lat="43.72642616608422" lon="11.767323322961145"><ele>352.0</ele><time>2026-04-10T14:31:57.001Z</time></trkpt><trkpt lat="43.72649588958673" lon="11.767200781574402"><ele>352.0</ele><time>2026-04-10T14:31:58.001Z</time></trkpt><trkpt lat="43.72654035565667" lon="11.767054751993602"><ele>352.0</ele><time>2026-04-10T14:31:59.001Z</time></trkpt><trkpt lat="43.72659893678212" lon="11.766930254566033"><ele>352.0</ele><time>2026-04-10T14:32:00.001Z</time></trkpt><trkpt lat="43.726644386684" lon="11.76682254658242"><ele>352.0</ele><time>2026-04-10T14:32:01.001Z</time></trkpt><trkpt lat="43.72667656777147" lon="11.766725890898028"><ele>352.0</ele><time>2026-04-10T14:32:02.001Z</time></trkpt><trkpt lat="43.726711564756265" lon="11.766648292638862"><ele>352.0</ele><time>2026-04-10T14:32:03.001Z</time></trkpt><trkpt lat="43.72681314959555" lon="11.766601455766049"><ele>352.0</ele><time>2026-04-10T14:32:05.001Z</time></trkpt><trkpt lat="43.726863117085394" lon="11.76670850351083"><ele>352.0</ele><time>2026-04-10T14:32:06.001Z</time></trkpt><trkpt lat="43.72683533935795" lon="11.76681700225273"><ele>352.0</ele><time>2026-04-10T14:32:07.001Z</time></trkpt><trkpt lat="43.72681651229169" lon="11.766946398579512"><ele>352.0</ele><time>2026-04-10T14:32:08.001Z</time></trkpt><trkpt lat="43.72678741784731" lon="11.767077667815688"><ele>352.0</ele><time>2026-04-10T14:32:09.001Z</time></trkpt><trkpt lat="43.7267616999476" lon="11.76720418701139"><ele>352.0</ele><time>2026-04-10T14:32:10.001Z</time></trkpt><trkpt lat="43.72674914100427" lon="11.767337420639237"><ele>352.0</ele><time>2026-04-10T14:32:11.001Z</time></trkpt><trkpt lat="43.72677327045983" lon="11.767467577159522"><ele>352.0</ele><time>2026-04-10T14:32:12.001Z</time></trkpt><trkpt lat="43.72682059869058" lon="11.767576176537531"><ele>352.0</ele><time>2026-04-10T14:32:13.001Z</time></trkpt><trkpt lat="43.726891556413946" lon="11.767648769169114"><ele>349.0</ele><time>2026-04-10T14:32:14.001Z</time></trkpt><trkpt lat="43.72698919665075" lon="11.767699429535284"><ele>346.0</ele><time>2026-04-10T14:32:15.001Z</time></trkpt><trkpt lat="43.72709656883634" lon="11.767729854929751"><ele>343.0</ele><time>2026-04-10T14:32:16.001Z</time></trkpt><trkpt lat="43.72721379065843" lon="11.76776429386315"><ele>340.0</ele><time>2026-04-10T14:32:17.001Z</time></trkpt><trkpt lat="43.727323754875876" lon="11.767804058210851"><ele>337.0</ele><time>2026-04-10T14:32:18.001Z</time></trkpt><trkpt lat="43.727424202540945" lon="11.767842531576704"><ele>337.0</ele><time>2026-04-10T14:32:19.001Z</time></trkpt><trkpt lat="43.72751718010079" lon="11.767879628845439"><ele>337.0</ele><time>2026-04-10T14:32:20.001Z</time></trkpt><trkpt lat="43.72760596179789" lon="11.767916316010528"><ele>337.0</ele><time>2026-04-10T14:32:21.001Z</time></trkpt><trkpt lat="43.72768782730359" lon="11.767951857260178"><ele>337.0</ele><time>2026-04-10T14:32:22.001Z</time></trkpt><trkpt lat="43.727768834659" lon="11.767990019766355"><ele>337.0</ele><time>2026-04-10T14:32:23.001Z</time></trkpt><trkpt lat="43.72785263983601" lon="11.768022114700385"><ele>337.0</ele><time>2026-04-10T14:32:24.001Z</time></trkpt><trkpt lat="43.72792927136139" lon="11.768063062326295"><ele>337.8333333333333</ele><time>2026-04-10T14:32:25.001Z</time></trkpt><trkpt lat="43.72799533024378" lon="11.768122565769922"><ele>338.66666666666663</ele><time>2026-04-10T14:32:26.001Z</time></trkpt><trkpt lat="43.72807427662564" lon="11.768222088501792"><ele>339.5</ele><time>2026-04-10T14:32:28.001Z</time></trkpt><trkpt lat="43.7281312824561" lon="11.768303274503472"><ele>340.3333333333333</ele><time>2026-04-10T14:32:30.001Z</time></trkpt><trkpt lat="43.72817558236729" lon="11.768371057198992"><ele>341.1666666666667</ele><time>2026-04-10T14:32:32.001Z</time></trkpt><trkpt lat="43.728233526471655" lon="11.768489658191156"><ele>342.0</ele><time>2026-04-10T14:32:34.001Z</time></trkpt><trkpt lat="43.728272432922516" lon="11.768577828174319"><ele>342.5</ele><time>2026-04-10T14:32:36.002Z</time></trkpt><trkpt lat="43.72832877993438" lon="11.768637039991583"><ele>343.0</ele><time>2026-04-10T14:32:42.002Z</time></trkpt><trkpt lat="43.728382590917604" lon="11.768714873700365"><ele>343.5</ele><time>2026-04-10T14:33:03Z</time></trkpt><trkpt lat="43.7284386637262" lon="11.768791394693338"><ele>344.0</ele><time>2026-04-10T14:33:06Z</time></trkpt><trkpt lat="43.72834149997742" lon="11.769072129195415"><ele>344.0</ele><time>2026-04-10T14:33:12Z</time></trkpt><trkpt lat="43.72825533106424" lon="11.769193834045934"><ele>344.0</ele><time>2026-04-10T14:33:14Z</time></trkpt><trkpt lat="43.728211748606434" lon="11.76926099359316"><ele>344.0</ele><time>2026-04-10T14:33:15Z</time></trkpt><trkpt lat="43.728171141833165" lon="11.769331652865974"><ele>344.0</ele><time>2026-04-10T14:33:16Z</time></trkpt><trkpt lat="43.72812990466065" lon="11.769403507994681"><ele>344.0</ele><time>2026-04-10T14:33:17Z</time></trkpt><trkpt lat="43.72808682512615" lon="11.769473260543549"><ele>344.0</ele><time>2026-04-10T14:33:18Z</time></trkpt><trkpt lat="43.728043949572" lon="11.769539872850263"><ele>345.28571428571433</ele><time>2026-04-10T14:33:19Z</time></trkpt><trkpt lat="43.72800086079596" lon="11.769604915449484"><ele>346.57142857142856</ele><time>2026-04-10T14:33:20Z</time></trkpt><trkpt lat="43.72795612498478" lon="11.769675233206623"><ele>347.8571428571429</ele><time>2026-04-10T14:33:21Z</time></trkpt><trkpt lat="43.72791128466063" lon="11.769748738669541"><ele>349.14285714285717</ele><time>2026-04-10T14:33:22Z</time></trkpt><trkpt lat="43.72786570630805" lon="11.769826694718722"><ele>350.42857142857144</ele><time>2026-04-10T14:33:23Z</time></trkpt><trkpt lat="43.72782114315142" lon="11.769909079896438"><ele>351.7142857142857</ele><time>2026-04-10T14:33:24Z</time></trkpt><trkpt lat="43.7277772898374" lon="11.769985675596471"><ele>353.0</ele><time>2026-04-10T14:33:25Z</time></trkpt><trkpt lat="43.72773297929665" lon="11.770057474381444"><ele>351.5</ele><time>2026-04-10T14:33:26Z</time></trkpt><trkpt lat="43.72769081589755" lon="11.770129504913129"><ele>350.0</ele><time>2026-04-10T14:33:27Z</time></trkpt><trkpt lat="43.72764547716963" lon="11.77020385748162"><ele>348.5</ele><time>2026-04-10T14:33:28Z</time></trkpt><trkpt lat="43.72759746699563" lon="11.770282208569819"><ele>347.0</ele><time>2026-04-10T14:33:29Z</time></trkpt><trkpt lat="43.72754487669989" lon="11.770371841877141"><ele>345.5</ele><time>2026-04-10T14:33:30Z</time></trkpt><trkpt lat="43.72749374686244" lon="11.770466506417545"><ele>344.0</ele><time>2026-04-10T14:33:31Z</time></trkpt><trkpt lat="43.727447218665965" lon="11.770559311088062"><ele>344.00000000000006</ele><time>2026-04-10T14:33:32Z</time></trkpt><trkpt lat="43.72740454184175" lon="11.770649979353431"><ele>344.0</ele><time>2026-04-10T14:33:33Z</time></trkpt><trkpt lat="43.72736690304382" lon="11.77074129500721"><ele>344.0</ele><time>2026-04-10T14:33:34Z</time></trkpt><trkpt lat="43.72733575122783" lon="11.770837100613198"><ele>344.0</ele><time>2026-04-10T14:33:35Z</time></trkpt><trkpt lat="43.72731028523001" lon="11.770932601536321"><ele>344.0</ele><time>2026-04-10T14:33:36Z</time></trkpt><trkpt lat="43.727284648968826" lon="11.77102677425956"><ele>344.00000000000006</ele><time>2026-04-10T14:33:37Z</time></trkpt><trkpt lat="43.7272597889019" lon="11.771117353976894"><ele>344.0</ele><time>2026-04-10T14:33:38Z</time></trkpt><trkpt lat="43.72723377137973" lon="11.771205424072491"><ele>344.4</ele><time>2026-04-10T14:33:39Z</time></trkpt><trkpt lat="43.72721079214206" lon="11.77128749130905"><ele>344.79999999999995</ele><time>2026-04-10T14:33:40Z</time></trkpt><trkpt lat="43.72716886442612" lon="11.771433605289497"><ele>345.20000000000005</ele><time>2026-04-10T14:33:42Z</time></trkpt><trkpt lat="43.727128590378975" lon="11.771571323313573"><ele>345.6</ele><time>2026-04-10T14:33:44.001Z</time></trkpt><trkpt lat="43.72708529002295" lon="11.771718784038356"><ele>346.0</ele><time>2026-04-10T14:33:46.001Z</time></trkpt><trkpt lat="43.72704684178722" lon="11.771847704206893"><ele>345.5</ele><time>2026-04-10T14:33:48.001Z</time></trkpt><trkpt lat="43.727015992205736" lon="11.771948864820692"><ele>345.0</ele><time>2026-04-10T14:33:50.001Z</time></trkpt><trkpt lat="43.726990118484046" lon="11.772039666567832"><ele>344.5</ele><time>2026-04-10T14:33:52.001Z</time></trkpt><trkpt lat="43.72696278853984" lon="11.772121422851601"><ele>344.0</ele><time>2026-04-10T14:33:54.001Z</time></trkpt><trkpt lat="43.72694151673945" lon="11.772210105325113"><ele>343.5</ele><time>2026-04-10T14:33:57.001Z</time></trkpt><trkpt lat="43.72689662235054" lon="11.772322048428471"><ele>343.0</ele><time>2026-04-10T14:34:00.001Z</time></trkpt><trkpt lat="43.726808724983556" lon="11.772441385454133"><ele>342.5</ele><time>2026-04-10T14:34:02.001Z</time></trkpt><trkpt lat="43.726779689326406" lon="11.772527094862022"><ele>342.0</ele><time>2026-04-10T14:34:03.001Z</time></trkpt><trkpt lat="43.72676954505317" lon="11.772628314915492"><ele>341.5</ele><time>2026-04-10T14:34:04.001Z</time></trkpt><trkpt lat="43.72676826755263" lon="11.772743089459391"><ele>341.0</ele><time>2026-04-10T14:34:05.001Z</time></trkpt><trkpt lat="43.72675586270732" lon="11.772866441544133"><ele>340.5</ele><time>2026-04-10T14:34:06.001Z</time></trkpt><trkpt lat="43.72671879648602" lon="11.773000219256783"><ele>340.0</ele><time>2026-04-10T14:34:07.001Z</time></trkpt><trkpt lat="43.72666343580634" lon="11.773151637090583"><ele>340.0</ele><time>2026-04-10T14:34:08.001Z</time></trkpt><trkpt lat="43.72659467887667" lon="11.773312363549541"><ele>340.0</ele><time>2026-04-10T14:34:09.001Z</time></trkpt><trkpt lat="43.726523575968436" lon="11.773460393638285"><ele>340.0</ele><time>2026-04-10T14:34:10.001Z</time></trkpt><trkpt lat="43.72645210635465" lon="11.773599358185805"><ele>340.0</ele><time>2026-04-10T14:34:11.001Z</time></trkpt><trkpt lat="43.72638521613824" lon="11.773726174124288"><ele>341.8</ele><time>2026-04-10T14:34:12.001Z</time></trkpt><trkpt lat="43.72632229738482" lon="11.773846640215178"><ele>343.6</ele><time>2026-04-10T14:34:13.001Z</time></trkpt><trkpt lat="43.72626155035093" lon="11.773961675139033"><ele>345.4</ele><time>2026-04-10T14:34:14.001Z</time></trkpt><trkpt lat="43.72620183766612" lon="11.774071012921475"><ele>347.2</ele><time>2026-04-10T14:34:15.001Z</time></trkpt><trkpt lat="43.726136893474354" lon="11.774183506729969"><ele>349.0</ele><time>2026-04-10T14:34:16.001Z</time></trkpt><trkpt lat="43.72606214481544" lon="11.774296752913157"><ele>347.6</ele><time>2026-04-10T14:34:17.001Z</time></trkpt><trkpt lat="43.7259776361544" lon="11.774399894208695"><ele>346.2</ele><time>2026-04-10T14:34:18.001Z</time></trkpt><trkpt lat="43.72588359799752" lon="11.774484347556298"><ele>344.8</ele><time>2026-04-10T14:34:19.001Z</time></trkpt><trkpt lat="43.72578325163078" lon="11.774552338246224"><ele>343.40000000000003</ele><time>2026-04-10T14:34:20.001Z</time></trkpt><trkpt lat="43.72568921588129" lon="11.77460549152037"><ele>342.0</ele><time>2026-04-10T14:34:21.001Z</time></trkpt><trkpt lat="43.72559434828442" lon="11.774654769051045"><ele>342.0</ele><time>2026-04-10T14:34:22.001Z</time></trkpt><trkpt lat="43.72549386880565" lon="11.77469955007872"><ele>342.0</ele><time>2026-04-10T14:34:23.001Z</time></trkpt><trkpt lat="43.72538992703235" lon="11.774744866951002"><ele>342.0</ele><time>2026-04-10T14:34:24.001Z</time></trkpt><trkpt lat="43.72528142869608" lon="11.77479187973268"><ele>342.0</ele><time>2026-04-10T14:34:25.001Z</time></trkpt><trkpt lat="43.72516948479868" lon="11.774838267295161"><ele>342.0</ele><time>2026-04-10T14:34:26.001Z</time></trkpt><trkpt lat="43.72505462736111" lon="11.774881169544466"><ele>342.0</ele><time>2026-04-10T14:34:27.001Z</time></trkpt><trkpt lat="43.72494154586203" lon="11.774921271205042"><ele>342.0</ele><time>2026-04-10T14:34:28.001Z</time></trkpt><trkpt lat="43.724830602303655" lon="11.774966597105799"><ele>342.0</ele><time>2026-04-10T14:34:29.001Z</time></trkpt><trkpt lat="43.72472371013396" lon="11.775005888929625"><ele>342.0</ele><time>2026-04-10T14:34:30.001Z</time></trkpt><trkpt lat="43.72462653268446" lon="11.775040287797959"><ele>342.0</ele><time>2026-04-10T14:34:31.001Z</time></trkpt><trkpt lat="43.724535666524496" lon="11.775070905460701"><ele>342.0</ele><time>2026-04-10T14:34:32.001Z</time></trkpt><trkpt lat="43.724444226812594" lon="11.775101450848563"><ele>342.0</ele><time>2026-04-10T14:34:33.001Z</time></trkpt><trkpt lat="43.724351154841436" lon="11.775133686433668"><ele>342.0</ele><time>2026-04-10T14:34:34.001Z</time></trkpt><trkpt lat="43.72425240422209" lon="11.775167186581518"><ele>342.0</ele><time>2026-04-10T14:34:35.001Z</time></trkpt><trkpt lat="43.724146761138485" lon="11.77520170123871"><ele>342.0</ele><time>2026-04-10T14:34:36.001Z</time></trkpt><trkpt lat="43.72403413728592" lon="11.775234552725475"><ele>342.0</ele><time>2026-04-10T14:34:37.001Z</time></trkpt><trkpt lat="43.72391751845365" lon="11.775267109798019"><ele>342.0</ele><time>2026-04-10T14:34:38.001Z</time></trkpt><trkpt lat="43.723795568660194" lon="11.775302833693047"><ele>342.0</ele><time>2026-04-10T14:34:39.001Z</time></trkpt><trkpt lat="43.72365784057117" lon="11.775346155077097"><ele>342.0</ele><time>2026-04-10T14:34:40.001Z</time></trkpt><trkpt lat="43.723515624337836" lon="11.775393553115316"><ele>341.5</ele><time>2026-04-10T14:34:41.001Z</time></trkpt><trkpt lat="43.72337682856053" lon="11.775443493516796"><ele>341.0</ele><time>2026-04-10T14:34:42.001Z</time></trkpt><trkpt lat="43.72324070919272" lon="11.775497065331113"><ele>340.5</ele><time>2026-04-10T14:34:43.001Z</time></trkpt><trkpt lat="43.72310831371176" lon="11.775553974822229"><ele>340.0</ele><time>2026-04-10T14:34:44.001Z</time></trkpt><trkpt lat="43.722981389578" lon="11.775615792063903"><ele>340.0</ele><time>2026-04-10T14:34:45.001Z</time></trkpt><trkpt lat="43.72285774625759" lon="11.77568217998078"><ele>340.0</ele><time>2026-04-10T14:34:46.001Z</time></trkpt><trkpt lat="43.722740803299594" lon="11.775762791540007"><ele>340.0</ele><time>2026-04-10T14:34:47.001Z</time></trkpt><trkpt lat="43.722630717513624" lon="11.775852494466866"><ele>340.0</ele><time>2026-04-10T14:34:48.001Z</time></trkpt><trkpt lat="43.72252569523594" lon="11.775949302044852"><ele>339.66666666666663</ele><time>2026-04-10T14:34:48.999Z</time></trkpt><trkpt lat="43.72242272570122" lon="11.776059450089058"><ele>339.3333333333333</ele><time>2026-04-10T14:34:49.999Z</time></trkpt><trkpt lat="43.72228609890352" lon="11.776198672697788"><ele>339.0</ele><time>2026-04-10T14:34:50.999Z</time></trkpt><trkpt lat="43.72215509815445" lon="11.77637553277035"><ele>339.0</ele><time>2026-04-10T14:34:51.999Z</time></trkpt><trkpt lat="43.7220222294021" lon="11.776586058037866"><ele>339.0</ele><time>2026-04-10T14:34:52.999Z</time></trkpt><trkpt lat="43.72191327905014" lon="11.776849646272916"><ele>339.0</ele><time>2026-04-10T14:34:53.999Z</time></trkpt><trkpt lat="43.72179139038892" lon="11.77712729310027"><ele>336.5</ele><time>2026-04-10T14:34:54.999Z</time></trkpt><trkpt lat="43.72168307569743" lon="11.777431240300855"><ele>334.0</ele><time>2026-04-10T14:34:55.999Z</time></trkpt><trkpt lat="43.72158319168714" lon="11.777716682947245"><ele>334.0</ele><time>2026-04-10T14:34:56.999Z</time></trkpt><trkpt lat="43.72147321786411" lon="11.77797885781017"><ele>334.0</ele><time>2026-04-10T14:34:57.999Z</time></trkpt><trkpt lat="43.721342390250314" lon="11.778217051331769"><ele>334.0</ele><time>2026-04-10T14:34:58.999Z</time></trkpt><trkpt lat="43.721189018745726" lon="11.77843524456367"><ele>334.0</ele><time>2026-04-10T14:34:59.999Z</time></trkpt><trkpt lat="43.72101258726228" lon="11.778640237320584"><ele>334.0</ele><time>2026-04-10T14:35:00.999Z</time></trkpt><trkpt lat="43.720813834509684" lon="11.778827412063753"><ele>334.0</ele><time>2026-04-10T14:35:01.999Z</time></trkpt><trkpt lat="43.72059750239511" lon="11.779004685733673"><ele>334.0</ele><time>2026-04-10T14:35:02.999Z</time></trkpt><trkpt lat="43.72037127686087" lon="11.779168103080861"><ele>334.0</ele><time>2026-04-10T14:35:03.999Z</time></trkpt><trkpt lat="43.72015180409837" lon="11.77933778743281"><ele>334.0</ele><time>2026-04-10T14:35:04.999Z</time></trkpt><trkpt lat="43.719939036721584" lon="11.779508024346969"><ele>334.0</ele><time>2026-04-10T14:35:05.999Z</time></trkpt><trkpt lat="43.71973278063925" lon="11.779667112662892"><ele>334.0</ele><time>2026-04-10T14:35:06.999Z</time></trkpt><trkpt lat="43.719527582377665" lon="11.779829350332461"><ele>333.5</ele><time>2026-04-10T14:35:08Z</time></trkpt><trkpt lat="43.71932462586006" lon="11.779990162945001"><ele>333.0</ele><time>2026-04-10T14:35:09Z</time></trkpt><trkpt lat="43.71912297019374" lon="11.78014977366884"><ele>333.0</ele><time>2026-04-10T14:35:10Z</time></trkpt><trkpt lat="43.71892529578323" lon="11.780307449952312"><ele>333.0</ele><time>2026-04-10T14:35:11Z</time></trkpt><trkpt lat="43.718726638365226" lon="11.780465051343993"><ele>332.0</ele><time>2026-04-10T14:35:12Z</time></trkpt><trkpt lat="43.71852390642026" lon="11.780626149349217"><ele>331.0</ele><time>2026-04-10T14:35:13Z</time></trkpt><trkpt lat="43.7183241571908" lon="11.780787025681125"><ele>331.0</ele><time>2026-04-10T14:35:14Z</time></trkpt><trkpt lat="43.71812234062019" lon="11.780955180615852"><ele>331.0</ele><time>2026-04-10T14:35:15Z</time></trkpt><trkpt lat="43.71791742163974" lon="11.78112714276339"><ele>331.5</ele><time>2026-04-10T14:35:16Z</time></trkpt><trkpt lat="43.71770801402183" lon="11.781298136727699"><ele>332.0</ele><time>2026-04-10T14:35:17Z</time></trkpt><trkpt lat="43.71749894245865" lon="11.78145972554148"><ele>332.0</ele><time>2026-04-10T14:35:18Z</time></trkpt><trkpt lat="43.71729377439091" lon="11.781612686433542"><ele>332.0</ele><time>2026-04-10T14:35:19Z</time></trkpt><trkpt lat="43.71709099517006" lon="11.781768443643763"><ele>331.5</ele><time>2026-04-10T14:35:20Z</time></trkpt><trkpt lat="43.71689136820129" lon="11.781924191168173"><ele>331.0</ele><time>2026-04-10T14:35:21Z</time></trkpt><trkpt lat="43.716693255405524" lon="11.782079455927768"><ele>331.0</ele><time>2026-04-10T14:35:22Z</time></trkpt><trkpt lat="43.71649596659789" lon="11.782236305415886"><ele>331.0</ele><time>2026-04-10T14:35:23Z</time></trkpt><trkpt lat="43.71629810868882" lon="11.782391473374142"><ele>331.0</ele><time>2026-04-10T14:35:24Z</time></trkpt><trkpt lat="43.71609968164702" lon="11.782545195847103"><ele>331.0</ele><time>2026-04-10T14:35:25Z</time></trkpt><trkpt lat="43.71590159141169" lon="11.78269573389165"><ele>331.66666666666663</ele><time>2026-04-10T14:35:26Z</time></trkpt><trkpt lat="43.71570267132105" lon="11.782839036527152"><ele>332.3333333333333</ele><time>2026-04-10T14:35:27Z</time></trkpt><trkpt lat="43.715501013369746" lon="11.7829733066326"><ele>333.0</ele><time>2026-04-10T14:35:28Z</time></trkpt><trkpt lat="43.7152975346317" lon="11.783102648844952"><ele>332.6666666666667</ele><time>2026-04-10T14:35:29Z</time></trkpt><trkpt lat="43.71509385380765" lon="11.783227419757232"><ele>332.33333333333337</ele><time>2026-04-10T14:35:30Z</time></trkpt><trkpt lat="43.714888211249146" lon="11.78334626527324"><ele>332.0</ele><time>2026-04-10T14:35:31Z</time></trkpt><trkpt lat="43.71468124673913" lon="11.783462978234732"><ele>332.6666666666667</ele><time>2026-04-10T14:35:32Z</time></trkpt><trkpt lat="43.71447515590655" lon="11.783576208969524"><ele>333.3333333333333</ele><time>2026-04-10T14:35:33Z</time></trkpt><trkpt lat="43.71426953047208" lon="11.783691495697598"><ele>334.0</ele><time>2026-04-10T14:35:34Z</time></trkpt><trkpt lat="43.71406265938094" lon="11.783807209723458"><ele>334.0</ele><time>2026-04-10T14:35:35Z</time></trkpt><trkpt lat="43.71386352067416" lon="11.78391295180622"><ele>334.0</ele><time>2026-04-10T14:35:36Z</time></trkpt><trkpt lat="43.713673592656164" lon="11.784009139524356"><ele>334.0</ele><time>2026-04-10T14:35:37Z</time></trkpt><trkpt lat="43.71349134548453" lon="11.78410413437707"><ele>333.3333333333333</ele><time>2026-04-10T14:35:38Z</time></trkpt><trkpt lat="43.7133142638229" lon="11.784204358774392"><ele>332.6666666666667</ele><time>2026-04-10T14:35:39Z</time></trkpt><trkpt lat="43.713142098512414" lon="11.784306948828172"><ele>332.0</ele><time>2026-04-10T14:35:40Z</time></trkpt><trkpt lat="43.712972334158664" lon="11.784400109261908"><ele>333.0</ele><time>2026-04-10T14:35:41Z</time></trkpt><trkpt lat="43.7128023863863" lon="11.784492122403908"><ele>334.0</ele><time>2026-04-10T14:35:42Z</time></trkpt><trkpt lat="43.712637894421384" lon="11.78458095972912"><ele>335.0</ele><time>2026-04-10T14:35:43Z</time></trkpt><trkpt lat="43.71247878021914" lon="11.784670342564485"><ele>335.0</ele><time>2026-04-10T14:35:44Z</time></trkpt><trkpt lat="43.71231927091635" lon="11.784759703369302"><ele>335.0</ele><time>2026-04-10T14:35:45Z</time></trkpt><trkpt lat="43.71216150718786" lon="11.784849713021472"><ele>335.0</ele><time>2026-04-10T14:35:46Z</time></trkpt><trkpt lat="43.71200444380799" lon="11.78493939698338"><ele>335.6666666666667</ele><time>2026-04-10T14:35:47Z</time></trkpt><trkpt lat="43.71185152992372" lon="11.78503134880844"><ele>336.3333333333333</ele><time>2026-04-10T14:35:48Z</time></trkpt><trkpt lat="43.71170655584453" lon="11.785124114579483"><ele>337.0</ele><time>2026-04-10T14:35:49Z</time></trkpt><trkpt lat="43.711563891133196" lon="11.78522264723328"><ele>337.0</ele><time>2026-04-10T14:35:50Z</time></trkpt><trkpt lat="43.7114215385745" lon="11.785330888423966"><ele>337.0</ele><time>2026-04-10T14:35:51Z</time></trkpt><trkpt lat="43.71128141777229" lon="11.785451364149813"><ele>337.0</ele><time>2026-04-10T14:35:52Z</time></trkpt><trkpt lat="43.711147037722434" lon="11.785587889828033"><ele>337.3333333333333</ele><time>2026-04-10T14:35:53Z</time></trkpt><trkpt lat="43.711015596676795" lon="11.785734274177404"><ele>337.6666666666667</ele><time>2026-04-10T14:35:54Z</time></trkpt><trkpt lat="43.71088449670091" lon="11.78588710605704"><ele>338.0</ele><time>2026-04-10T14:35:55.001Z</time></trkpt><trkpt lat="43.71075694735655" lon="11.786053422257348"><ele>338.0</ele><time>2026-04-10T14:35:56.001Z</time></trkpt><trkpt lat="43.71063251087993" lon="11.786239181645586"><ele>338.0</ele><time>2026-04-10T14:35:57.001Z</time></trkpt><trkpt lat="43.710513053753544" lon="11.786432036319104"><ele>338.0</ele><time>2026-04-10T14:35:58.001Z</time></trkpt><trkpt lat="43.710395590192995" lon="11.786632201524231"><ele>338.0</ele><time>2026-04-10T14:35:59.001Z</time></trkpt><trkpt lat="43.71027991788509" lon="11.786837870362234"><ele>338.0</ele><time>2026-04-10T14:36:00.001Z</time></trkpt><trkpt lat="43.71016367265177" lon="11.787042955435151"><ele>338.0</ele><time>2026-04-10T14:36:01.001Z</time></trkpt><trkpt lat="43.71004699383675" lon="11.787250421004599"><ele>337.6666666666667</ele><time>2026-04-10T14:36:02.001Z</time></trkpt><trkpt lat="43.709931404529584" lon="11.787458745603976"><ele>337.3333333333333</ele><time>2026-04-10T14:36:03.001Z</time></trkpt><trkpt lat="43.70981367149094" lon="11.787667522700882"><ele>337.0</ele><time>2026-04-10T14:36:04.001Z</time></trkpt><trkpt lat="43.70969752225009" lon="11.787869433079905"><ele>337.0</ele><time>2026-04-10T14:36:05.001Z</time></trkpt><trkpt lat="43.70958190612698" lon="11.788068800796776"><ele>337.0</ele><time>2026-04-10T14:36:06.001Z</time></trkpt><trkpt lat="43.709466357231996" lon="11.788263934775028"><ele>337.0</ele><time>2026-04-10T14:36:07.001Z</time></trkpt><trkpt lat="43.709348933018056" lon="11.788457594054616"><ele>336.3333333333333</ele><time>2026-04-10T14:36:08.001Z</time></trkpt><trkpt lat="43.70922552601278" lon="11.788643496099088"><ele>335.6666666666667</ele><time>2026-04-10T14:36:09.001Z</time></trkpt><trkpt lat="43.70909874970947" lon="11.788811642098391"><ele>335.0</ele><time>2026-04-10T14:36:10.001Z</time></trkpt><trkpt lat="43.708965526067026" lon="11.78896212931035"><ele>335.0</ele><time>2026-04-10T14:36:11.001Z</time></trkpt><trkpt lat="43.708826903985" lon="11.789104113901702"><ele>335.0</ele><time>2026-04-10T14:36:12.001Z</time></trkpt><trkpt lat="43.7086849436678" lon="11.789240340283808"><ele>335.0</ele><time>2026-04-10T14:36:13.001Z</time></trkpt><trkpt lat="43.70853785597724" lon="11.789368906329399"><ele>334.6666666666667</ele><time>2026-04-10T14:36:14.001Z</time></trkpt><trkpt lat="43.70838430181522" lon="11.789490528532353"><ele>334.3333333333333</ele><time>2026-04-10T14:36:15.001Z</time></trkpt><trkpt lat="43.70822992906674" lon="11.789610795622677"><ele>334.0</ele><time>2026-04-10T14:36:16.001Z</time></trkpt><trkpt lat="43.70807478686013" lon="11.789731329592751"><ele>334.0</ele><time>2026-04-10T14:36:17.001Z</time></trkpt><trkpt lat="43.70790821267323" lon="11.789864050056469"><ele>334.0</ele><time>2026-04-10T14:36:18.001Z</time></trkpt><trkpt lat="43.70773097498095" lon="11.790015307177704"><ele>334.0</ele><time>2026-04-10T14:36:19.001Z</time></trkpt><trkpt lat="43.7075449829155" lon="11.790181431057267"><ele>334.0</ele><time>2026-04-10T14:36:20.001Z</time></trkpt><trkpt lat="43.707352621626505" lon="11.790364846501951"><ele>334.0</ele><time>2026-04-10T14:36:21.001Z</time></trkpt><trkpt lat="43.70714918725819" lon="11.790561053105408"><ele>334.0</ele><time>2026-04-10T14:36:22.001Z</time></trkpt><trkpt lat="43.706934295534325" lon="11.790765901502864"><ele>334.0</ele><time>2026-04-10T14:36:23.001Z</time></trkpt><trkpt lat="43.706711771633216" lon="11.790965054062013"><ele>335.0</ele><time>2026-04-10T14:36:24.001Z</time></trkpt><trkpt lat="43.706489379359546" lon="11.791153467504081"><ele>336.0</ele><time>2026-04-10T14:36:25.001Z</time></trkpt><trkpt lat="43.706274186768766" lon="11.791328943220064"><ele>333.0</ele><time>2026-04-10T14:36:26.001Z</time></trkpt><trkpt lat="43.70606687005096" lon="11.791503386475442"><ele>330.0</ele><time>2026-04-10T14:36:27.001Z</time></trkpt><trkpt lat="43.70586487011365" lon="11.791676195735144"><ele>332.5</ele><time>2026-04-10T14:36:28.001Z</time></trkpt><trkpt lat="43.705669319982086" lon="11.791845809181051"><ele>335.0</ele><time>2026-04-10T14:36:29.001Z</time></trkpt><trkpt lat="43.70547866884623" lon="11.792011322416696"><ele>335.0</ele><time>2026-04-10T14:36:30.001Z</time></trkpt><trkpt lat="43.70529079719091" lon="11.792171355918613"><ele>335.0</ele><time>2026-04-10T14:36:31.001Z</time></trkpt><trkpt lat="43.70510444109226" lon="11.792323262492186"><ele>335.0</ele><time>2026-04-10T14:36:32.001Z</time></trkpt><trkpt lat="43.7049199453182" lon="11.792462297108923"><ele>336.0</ele><time>2026-04-10T14:36:33.001Z</time></trkpt><trkpt lat="43.70473056780005" lon="11.792584502306637"><ele>337.0</ele><time>2026-04-10T14:36:34.001Z</time></trkpt><trkpt lat="43.70454137444917" lon="11.79269101440647"><ele>338.0</ele><time>2026-04-10T14:36:35.001Z</time></trkpt><trkpt lat="43.704358333841704" lon="11.792774878903728"><ele>335.33333333333337</ele><time>2026-04-10T14:36:36.001Z</time></trkpt><trkpt lat="43.70418311259957" lon="11.792840931321386"><ele>332.6666666666667</ele><time>2026-04-10T14:36:37.001Z</time></trkpt><trkpt lat="43.70400847027437" lon="11.792902673764178"><ele>330.0</ele><time>2026-04-10T14:36:38.001Z</time></trkpt><trkpt lat="43.70384714971495" lon="11.792965458583232"><ele>330.0</ele><time>2026-04-10T14:36:39.001Z</time></trkpt><trkpt lat="43.70368286874263" lon="11.793029675548025"><ele>330.0</ele><time>2026-04-10T14:36:40.001Z</time></trkpt><trkpt lat="43.70351532956969" lon="11.793097668562238"><ele>330.0</ele><time>2026-04-10T14:36:41.001Z</time></trkpt><trkpt lat="43.703337300052254" lon="11.793169743256872"><ele>328.6666666666667</ele><time>2026-04-10T14:36:42.001Z</time></trkpt><trkpt lat="43.70314844136261" lon="11.793245670838013"><ele>327.33333333333337</ele><time>2026-04-10T14:36:43.001Z</time></trkpt><trkpt lat="43.7029537791209" lon="11.79332179094743"><ele>326.0</ele><time>2026-04-10T14:36:44.001Z</time></trkpt><trkpt lat="43.70275322582135" lon="11.793402089577365"><ele>326.33333333333337</ele><time>2026-04-10T14:36:45.001Z</time></trkpt><trkpt lat="43.702550237213046" lon="11.793486967939792"><ele>326.6666666666667</ele><time>2026-04-10T14:36:46.001Z</time></trkpt><trkpt lat="43.70235226885796" lon="11.79358612334401"><ele>327.0</ele><time>2026-04-10T14:36:47.001Z</time></trkpt><trkpt lat="43.702153379899194" lon="11.793701888689682"><ele>327.0</ele><time>2026-04-10T14:36:48.001Z</time></trkpt><trkpt lat="43.70195730628794" lon="11.79383675015919"><ele>327.0</ele><time>2026-04-10T14:36:49.001Z</time></trkpt><trkpt lat="43.70176527299351" lon="11.79398371726442"><ele>327.0</ele><time>2026-04-10T14:36:50.001Z</time></trkpt><trkpt lat="43.70157955449213" lon="11.794150575041197"><ele>326.0</ele><time>2026-04-10T14:36:51.001Z</time></trkpt><trkpt lat="43.701403117486095" lon="11.794338700987778"><ele>325.0</ele><time>2026-04-10T14:36:52.001Z</time></trkpt><trkpt lat="43.70122935556651" lon="11.794532365404372"><ele>324.0</ele><time>2026-04-10T14:36:53.001Z</time></trkpt><trkpt lat="43.70106420206417" lon="11.794743003934714"><ele>324.0</ele><time>2026-04-10T14:36:54.001Z</time></trkpt><trkpt lat="43.70090578421102" lon="11.794964405288313"><ele>324.0</ele><time>2026-04-10T14:36:54.999Z</time></trkpt><trkpt lat="43.70074928689703" lon="11.795193079905411"><ele>324.5</ele><time>2026-04-10T14:36:55.999Z</time></trkpt><trkpt lat="43.70058815615479" lon="11.79542086943406"><ele>325.0</ele><time>2026-04-10T14:36:56.999Z</time></trkpt><trkpt lat="43.700431979986625" lon="11.795652316531317"><ele>325.0</ele><time>2026-04-10T14:36:57.999Z</time></trkpt><trkpt lat="43.70027624994566" lon="11.795890375123628"><ele>325.0</ele><time>2026-04-10T14:36:58.999Z</time></trkpt><trkpt lat="43.700118099315986" lon="11.796126038691844"><ele>324.0</ele><time>2026-04-10T14:36:59.999Z</time></trkpt><trkpt lat="43.6999601734178" lon="11.796363530940285"><ele>323.0</ele><time>2026-04-10T14:37:00.999Z</time></trkpt><trkpt lat="43.69980090787624" lon="11.796598999051117"><ele>323.0</ele><time>2026-04-10T14:37:01.999Z</time></trkpt><trkpt lat="43.69963935450065" lon="11.796832937687086"><ele>323.0</ele><time>2026-04-10T14:37:02.999Z</time></trkpt><trkpt lat="43.69947931039026" lon="11.797065024906727"><ele>324.0</ele><time>2026-04-10T14:37:03.999Z</time></trkpt><trkpt lat="43.699318573692686" lon="11.797288641513523"><ele>325.0</ele><time>2026-04-10T14:37:04.999Z</time></trkpt><trkpt lat="43.69915324296959" lon="11.797508020088008"><ele>326.0</ele><time>2026-04-10T14:37:05.999Z</time></trkpt><trkpt lat="43.698979862133655" lon="11.79771309738577"><ele>327.0</ele><time>2026-04-10T14:37:06.999Z</time></trkpt><trkpt lat="43.698801954578066" lon="11.79789988216025"><ele>327.0</ele><time>2026-04-10T14:37:07.999Z</time></trkpt><trkpt lat="43.69862455389967" lon="11.798070012989566"><ele>327.0</ele><time>2026-04-10T14:37:09Z</time></trkpt><trkpt lat="43.698447884330626" lon="11.798222928304057"><ele>327.0</ele><time>2026-04-10T14:37:10Z</time></trkpt><trkpt lat="43.69827948148569" lon="11.798358130587866"><ele>326.0</ele><time>2026-04-10T14:37:11Z</time></trkpt><trkpt lat="43.69811584538484" lon="11.798485437508715"><ele>325.0</ele><time>2026-04-10T14:37:12Z</time></trkpt><trkpt lat="43.697957821575514" lon="11.798603191981694"><ele>324.0</ele><time>2026-04-10T14:37:13Z</time></trkpt><trkpt lat="43.697804358577635" lon="11.798715600535939"><ele>324.0</ele><time>2026-04-10T14:37:14Z</time></trkpt><trkpt lat="43.697654886536014" lon="11.79882739521165"><ele>324.0</ele><time>2026-04-10T14:37:15Z</time></trkpt><trkpt lat="43.697510885770384" lon="11.79893775176327"><ele>324.0</ele><time>2026-04-10T14:37:16Z</time></trkpt><trkpt lat="43.69737209827042" lon="11.799044662167557"><ele>324.0</ele><time>2026-04-10T14:37:17Z</time></trkpt><trkpt lat="43.69724096852739" lon="11.799146645875556"><ele>324.0</ele><time>2026-04-10T14:37:18Z</time></trkpt><trkpt lat="43.69711485436483" lon="11.79924098904173"><ele>324.0</ele><time>2026-04-10T14:37:19Z</time></trkpt><trkpt lat="43.69699920076543" lon="11.799324883113856"><ele>324.0</ele><time>2026-04-10T14:37:20Z</time></trkpt><trkpt lat="43.69689529650969" lon="11.799398330819475"><ele>323.79999999999995</ele><time>2026-04-10T14:37:21Z</time></trkpt><trkpt lat="43.69679851993047" lon="11.799467144838038"><ele>323.59999999999997</ele><time>2026-04-10T14:37:22Z</time></trkpt><trkpt lat="43.69670086708086" lon="11.799538411306226"><ele>323.4</ele><time>2026-04-10T14:37:23Z</time></trkpt><trkpt lat="43.69660266634319" lon="11.799604562912009"><ele>323.2</ele><time>2026-04-10T14:37:24Z</time></trkpt><trkpt lat="43.69649697531411" lon="11.799654281205052"><ele>323.0</ele><time>2026-04-10T14:37:25Z</time></trkpt><trkpt lat="43.69638879041812" lon="11.799673062022586"><ele>323.0</ele><time>2026-04-10T14:37:26Z</time></trkpt><trkpt lat="43.69627896933672" lon="11.799680614593314"><ele>323.0</ele><time>2026-04-10T14:37:27Z</time></trkpt><trkpt lat="43.69617985060418" lon="11.7996854384893"><ele>323.0</ele><time>2026-04-10T14:37:28Z</time></trkpt><trkpt lat="43.69605905184579" lon="11.799708935580991"><ele>323.0</ele><time>2026-04-10T14:37:30Z</time></trkpt><trkpt lat="43.6959684577473" lon="11.799831707185175"><ele>323.0</ele><time>2026-04-10T14:37:32Z</time></trkpt><trkpt lat="43.695936411774895" lon="11.799920253973387"><ele>323.0</ele><time>2026-04-10T14:37:33Z</time></trkpt><trkpt lat="43.69591230157484" lon="11.800026993716033"><ele>323.0</ele><time>2026-04-10T14:37:34Z</time></trkpt><trkpt lat="43.69589293583392" lon="11.80015930591141"><ele>323.0</ele><time>2026-04-10T14:37:35Z</time></trkpt><trkpt lat="43.69585777538614" lon="11.800315895660278"><ele>323.0</ele><time>2026-04-10T14:37:36Z</time></trkpt><trkpt lat="43.695791449958065" lon="11.800472060680615"><ele>323.33333333333337</ele><time>2026-04-10T14:37:37Z</time></trkpt><trkpt lat="43.69567918257961" lon="11.80060389428918"><ele>323.6666666666667</ele><time>2026-04-10T14:37:38Z</time></trkpt><trkpt lat="43.69556620004551" lon="11.800764776365279"><ele>324.0</ele><time>2026-04-10T14:37:39Z</time></trkpt><trkpt lat="43.69546277052059" lon="11.800942648738564"><ele>324.3333333333333</ele><time>2026-04-10T14:37:40Z</time></trkpt><trkpt lat="43.69533206171612" lon="11.801109809556294"><ele>324.66666666666663</ele><time>2026-04-10T14:37:41Z</time></trkpt><trkpt lat="43.69520971082037" lon="11.80127505280022"><ele>325.0</ele><time>2026-04-10T14:37:42Z</time></trkpt><trkpt lat="43.69509424717375" lon="11.80143139577541"><ele>325.3333333333333</ele><time>2026-04-10T14:37:43Z</time></trkpt><trkpt lat="43.69497786222614" lon="11.801592244969312"><ele>325.6666666666667</ele><time>2026-04-10T14:37:44Z</time></trkpt><trkpt lat="43.69486154596004" lon="11.801753570755066"><ele>326.0</ele><time>2026-04-10T14:37:45Z</time></trkpt><trkpt lat="43.6947365156717" lon="11.80191699751312"><ele>325.33333333333337</ele><time>2026-04-10T14:37:46Z</time></trkpt><trkpt lat="43.694604881730704" lon="11.802070929552672"><ele>324.6666666666667</ele><time>2026-04-10T14:37:47Z</time></trkpt><trkpt lat="43.69446571676804" lon="11.802213959204378"><ele>324.0</ele><time>2026-04-10T14:37:48Z</time></trkpt><trkpt lat="43.694322296432176" lon="11.80235483947031"><ele>323.6666666666667</ele><time>2026-04-10T14:37:49Z</time></trkpt><trkpt lat="43.69417693844125" lon="11.80249170535921"><ele>323.33333333333337</ele><time>2026-04-10T14:37:50Z</time></trkpt><trkpt lat="43.694029301293746" lon="11.802631130899822"><ele>323.0</ele><time>2026-04-10T14:37:51.001Z</time></trkpt><trkpt lat="43.69388100119757" lon="11.802776274354143"><ele>323.0</ele><time>2026-04-10T14:37:52.001Z</time></trkpt><trkpt lat="43.69372522768945" lon="11.802928720980326"><ele>323.0</ele><time>2026-04-10T14:37:53.001Z</time></trkpt><trkpt lat="43.69357135980493" lon="11.80307629443808"><ele>323.0</ele><time>2026-04-10T14:37:54.001Z</time></trkpt><trkpt lat="43.69341829548698" lon="11.803225582981037"><ele>323.0</ele><time>2026-04-10T14:37:55.001Z</time></trkpt><trkpt lat="43.69327077389536" lon="11.803377969095653"><ele>323.0</ele><time>2026-04-10T14:37:56.001Z</time></trkpt><trkpt lat="43.69312660222007" lon="11.803540838095289"><ele>323.0</ele><time>2026-04-10T14:37:57.001Z</time></trkpt><trkpt lat="43.69298955342984" lon="11.803711828947906"><ele>323.0</ele><time>2026-04-10T14:37:58.001Z</time></trkpt><trkpt lat="43.69286046412723" lon="11.80388888020817"><ele>323.0</ele><time>2026-04-10T14:37:59.001Z</time></trkpt><trkpt lat="43.692738105787384" lon="11.80407285770289"><ele>323.0</ele><time>2026-04-10T14:38:00.001Z</time></trkpt><trkpt lat="43.69262126946114" lon="11.804263456541495"><ele>323.33333333333337</ele><time>2026-04-10T14:38:01.001Z</time></trkpt><trkpt lat="43.69250730944557" lon="11.804463473782878"><ele>323.6666666666667</ele><time>2026-04-10T14:38:02.001Z</time></trkpt><trkpt lat="43.69239536333665" lon="11.804674709449488"><ele>324.0</ele><time>2026-04-10T14:38:03.001Z</time></trkpt><trkpt lat="43.69229294841191" lon="11.804890777272343"><ele>324.0</ele><time>2026-04-10T14:38:04.001Z</time></trkpt><trkpt lat="43.69220264639046" lon="11.805105282642137"><ele>324.0</ele><time>2026-04-10T14:38:05.001Z</time></trkpt><trkpt lat="43.69212300509068" lon="11.805318691551015"><ele>324.0</ele><time>2026-04-10T14:38:06.001Z</time></trkpt><trkpt lat="43.69204707683781" lon="11.805534226525996"><ele>323.6666666666667</ele><time>2026-04-10T14:38:07.001Z</time></trkpt><trkpt lat="43.691978852866896" lon="11.8057499748881"><ele>323.33333333333337</ele><time>2026-04-10T14:38:08.001Z</time></trkpt><trkpt lat="43.691917786684996" lon="11.805971375236503"><ele>323.0</ele><time>2026-04-10T14:38:09.001Z</time></trkpt><trkpt lat="43.69186489078803" lon="11.806205000508074"><ele>322.33333333333337</ele><time>2026-04-10T14:38:10.001Z</time></trkpt><trkpt lat="43.69181798777636" lon="11.806446159024876"><ele>321.6666666666667</ele><time>2026-04-10T14:38:11.001Z</time></trkpt><trkpt lat="43.691773095343976" lon="11.806704766063826"><ele>321.0</ele><time>2026-04-10T14:38:12.001Z</time></trkpt><trkpt lat="43.691708681161515" lon="11.806977277046597"><ele>321.0</ele><time>2026-04-10T14:38:13.001Z</time></trkpt><trkpt lat="43.691652665067764" lon="11.807273368345399"><ele>321.0</ele><time>2026-04-10T14:38:14.001Z</time></trkpt><trkpt lat="43.691593618884085" lon="11.8075873030349"><ele>321.5</ele><time>2026-04-10T14:38:15.001Z</time></trkpt><trkpt lat="43.691534250713076" lon="11.807906956033458"><ele>322.0</ele><time>2026-04-10T14:38:16.001Z</time></trkpt><trkpt lat="43.691486725446154" lon="11.808223865513542"><ele>322.0</ele><time>2026-04-10T14:38:17.001Z</time></trkpt><trkpt lat="43.69142745682532" lon="11.808523039969447"><ele>322.0</ele><time>2026-04-10T14:38:18.001Z</time></trkpt><trkpt lat="43.69136824059389" lon="11.80881798192018"><ele>322.0</ele><time>2026-04-10T14:38:19.001Z</time></trkpt><trkpt lat="43.6913061035702" lon="11.809103158274906"><ele>322.3333333333333</ele><time>2026-04-10T14:38:20.001Z</time></trkpt><trkpt lat="43.69123829088805" lon="11.809375755256868"><ele>322.6666666666667</ele><time>2026-04-10T14:38:21.001Z</time></trkpt><trkpt lat="43.69114554633462" lon="11.809616863446717"><ele>323.0</ele><time>2026-04-10T14:38:22.001Z</time></trkpt><trkpt lat="43.69105815438445" lon="11.809861286261766"><ele>322.33333333333337</ele><time>2026-04-10T14:38:23.001Z</time></trkpt><trkpt lat="43.69096081458257" lon="11.810096501707326"><ele>321.6666666666667</ele><time>2026-04-10T14:38:24.001Z</time></trkpt><trkpt lat="43.69084925965027" lon="11.810339493719539"><ele>321.0</ele><time>2026-04-10T14:38:25.001Z</time></trkpt><trkpt lat="43.69071785853598" lon="11.81060028283439"><ele>321.0</ele><time>2026-04-10T14:38:26.001Z</time></trkpt><trkpt lat="43.690571156748796" lon="11.810850355948286"><ele>321.0</ele><time>2026-04-10T14:38:27.001Z</time></trkpt><trkpt lat="43.69041606326133" lon="11.811104079253951"><ele>322.5</ele><time>2026-04-10T14:38:28.001Z</time></trkpt><trkpt lat="43.69025969863578" lon="11.811355261243857"><ele>324.0</ele><time>2026-04-10T14:38:29.001Z</time></trkpt><trkpt lat="43.69011377530583" lon="11.811607094075697"><ele>322.0</ele><time>2026-04-10T14:38:30.001Z</time></trkpt><trkpt lat="43.689960938642756" lon="11.811844107983012"><ele>320.0</ele><time>2026-04-10T14:38:31.001Z</time></trkpt><trkpt lat="43.689823846217585" lon="11.812088049404435"><ele>320.0</ele><time>2026-04-10T14:38:32.001Z</time></trkpt><trkpt lat="43.68970482887805" lon="11.812349165570895"><ele>320.0</ele><time>2026-04-10T14:38:33.001Z</time></trkpt><trkpt lat="43.68960081629316" lon="11.81262366884338"><ele>320.0</ele><time>2026-04-10T14:38:34.001Z</time></trkpt><trkpt lat="43.689508776993875" lon="11.8129083977663"><ele>320.0</ele><time>2026-04-10T14:38:35.001Z</time></trkpt><trkpt lat="43.68943285368118" lon="11.813199202433426"><ele>320.0</ele><time>2026-04-10T14:38:36.001Z</time></trkpt><trkpt lat="43.68937148781654" lon="11.813496884818822"><ele>320.0</ele><time>2026-04-10T14:38:37.001Z</time></trkpt><trkpt lat="43.6893274253709" lon="11.813797384743827"><ele>320.0</ele><time>2026-04-10T14:38:38.001Z</time></trkpt><trkpt lat="43.68930021422052" lon="11.814102442471485"><ele>320.0</ele><time>2026-04-10T14:38:39.001Z</time></trkpt><trkpt lat="43.68928614960991" lon="11.814410308776191"><ele>320.0</ele><time>2026-04-10T14:38:40.001Z</time></trkpt><trkpt lat="43.68929054026232" lon="11.814717834783702"><ele>320.33333333333337</ele><time>2026-04-10T14:38:41.001Z</time></trkpt><trkpt lat="43.68931504498402" lon="11.815017658284914"><ele>320.6666666666667</ele><time>2026-04-10T14:38:42.001Z</time></trkpt><trkpt lat="43.68935525240354" lon="11.815306055799157"><ele>321.0</ele><time>2026-04-10T14:38:43.001Z</time></trkpt><trkpt lat="43.68940443600205" lon="11.815587814242024"><ele>320.6666666666667</ele><time>2026-04-10T14:38:44.001Z</time></trkpt><trkpt lat="43.68945849340495" lon="11.815868135613993"><ele>320.33333333333337</ele><time>2026-04-10T14:38:45.001Z</time></trkpt><trkpt lat="43.6895108006321" lon="11.816139529995825"><ele>320.0</ele><time>2026-04-10T14:38:46.002Z</time></trkpt><trkpt lat="43.68956400860926" lon="11.816408960428204"><ele>320.0</ele><time>2026-04-10T14:38:47.002Z</time></trkpt><trkpt lat="43.68961385951158" lon="11.81666513258507"><ele>320.0</ele><time>2026-04-10T14:38:48.002Z</time></trkpt><trkpt lat="43.689662037036314" lon="11.816907647703328"><ele>320.0</ele><time>2026-04-10T14:38:49.002Z</time></trkpt><trkpt lat="43.68970689578677" lon="11.817144004602955"><ele>319.6666666666667</ele><time>2026-04-10T14:38:50.002Z</time></trkpt><trkpt lat="43.689751569693165" lon="11.817373531581508"><ele>319.3333333333333</ele><time>2026-04-10T14:38:51.002Z</time></trkpt><trkpt lat="43.68979743706049" lon="11.817603664290521"><ele>319.0</ele><time>2026-04-10T14:38:52.002Z</time></trkpt><trkpt lat="43.689843828241735" lon="11.817825593104551"><ele>318.66666666666663</ele><time>2026-04-10T14:38:53.002Z</time></trkpt><trkpt lat="43.68988855690908" lon="11.818037133505488"><ele>318.3333333333333</ele><time>2026-04-10T14:38:54.002Z</time></trkpt><trkpt lat="43.68992643563701" lon="11.81823860844244"><ele>318.0</ele><time>2026-04-10T14:38:55.002Z</time></trkpt><trkpt lat="43.68996494584976" lon="11.818427602498637"><ele>318.25</ele><time>2026-04-10T14:38:56.002Z</time></trkpt><trkpt lat="43.689987257675476" lon="11.818609376371834"><ele>318.5</ele><time>2026-04-10T14:38:57.002Z</time></trkpt><trkpt lat="43.69002133595076" lon="11.818780976140962"><ele>318.75</ele><time>2026-04-10T14:38:58.002Z</time></trkpt><trkpt lat="43.69005245200976" lon="11.818937659794535"><ele>319.0</ele><time>2026-04-10T14:38:59.002Z</time></trkpt><trkpt lat="43.690188609258115" lon="11.819045324649837"><ele>319.0</ele><time>2026-04-10T14:39:00.002Z</time></trkpt><trkpt lat="43.690238704453776" lon="11.819182728175667"><ele>319.0</ele><time>2026-04-10T14:39:01Z</time></trkpt><trkpt lat="43.69028175594047" lon="11.819316324983316"><ele>319.0</ele><time>2026-04-10T14:39:02Z</time></trkpt><trkpt lat="43.69031772414672" lon="11.819449416233473"><ele>319.0</ele><time>2026-04-10T14:39:03Z</time></trkpt><trkpt lat="43.690356728716026" lon="11.819582839750417"><ele>319.0</ele><time>2026-04-10T14:39:04Z</time></trkpt><trkpt lat="43.690405516413136" lon="11.819710287938852"><ele>322.79999999999995</ele><time>2026-04-10T14:39:05Z</time></trkpt><trkpt lat="43.69046726320685" lon="11.819821725816261"><ele>326.59999999999997</ele><time>2026-04-10T14:39:06Z</time></trkpt><trkpt lat="43.69053617028095" lon="11.819917385171289"><ele>330.4</ele><time>2026-04-10T14:39:07Z</time></trkpt><trkpt lat="43.69060136013769" lon="11.82002319040703"><ele>334.2</ele><time>2026-04-10T14:39:08Z</time></trkpt><trkpt lat="43.690633146841726" lon="11.820148995311477"><ele>338.0</ele><time>2026-04-10T14:39:09Z</time></trkpt><trkpt lat="43.69062299890218" lon="11.820275355376937"><ele>341.0</ele><time>2026-04-10T14:39:10Z</time></trkpt><trkpt lat="43.690592630937225" lon="11.820392564337327"><ele>344.0</ele><time>2026-04-10T14:39:11Z</time></trkpt><trkpt lat="43.690563419299586" lon="11.82051623823027"><ele>347.0</ele><time>2026-04-10T14:39:12Z</time></trkpt><trkpt lat="43.69053299025983" lon="11.820650920329864"><ele>350.0</ele><time>2026-04-10T14:39:13Z</time></trkpt><trkpt lat="43.69048731952414" lon="11.820793380141405"><ele>353.0</ele><time>2026-04-10T14:39:14Z</time></trkpt><trkpt lat="43.690418394776756" lon="11.820929886285699"><ele>358.0</ele><time>2026-04-10T14:39:15Z</time></trkpt><trkpt lat="43.690334013308885" lon="11.821062603580202"><ele>363.0</ele><time>2026-04-10T14:39:16Z</time></trkpt><trkpt lat="43.69023786408884" lon="11.821218486103604"><ele>368.0</ele><time>2026-04-10T14:39:17Z</time></trkpt><trkpt lat="43.690117195853965" lon="11.821408448882337"><ele>362.0</ele><time>2026-04-10T14:39:18Z</time></trkpt><trkpt lat="43.68996504810546" lon="11.821615507591341"><ele>356.0</ele><time>2026-04-10T14:39:19Z</time></trkpt><trkpt lat="43.68980106589044" lon="11.821844285079493"><ele>350.0</ele><time>2026-04-10T14:39:20Z</time></trkpt><trkpt lat="43.68964875792969" lon="11.822094576226002"><ele>350.0</ele><time>2026-04-10T14:39:21Z</time></trkpt><trkpt lat="43.68951128978079" lon="11.822317704240136"><ele>350.0</ele><time>2026-04-10T14:39:22Z</time></trkpt><trkpt lat="43.689379746475076" lon="11.82252893987882"><ele>350.0</ele><time>2026-04-10T14:39:23Z</time></trkpt><trkpt lat="43.68925145572937" lon="11.822730745586847"><ele>344.0</ele><time>2026-04-10T14:39:24Z</time></trkpt><trkpt lat="43.68913256778214" lon="11.82292273073992"><ele>338.0</ele><time>2026-04-10T14:39:25Z</time></trkpt><trkpt lat="43.68901909704649" lon="11.82310657170581"><ele>332.0</ele><time>2026-04-10T14:39:26Z</time></trkpt><trkpt lat="43.68890846619211" lon="11.823285822038816"><ele>332.0</ele><time>2026-04-10T14:39:27Z</time></trkpt><trkpt lat="43.68880014918423" lon="11.823455035005265"><ele>332.0</ele><time>2026-04-10T14:39:28Z</time></trkpt><trkpt lat="43.688699948973515" lon="11.823623985622808"><ele>332.0</ele><time>2026-04-10T14:39:29Z</time></trkpt><trkpt lat="43.68860614920654" lon="11.823778066853897"><ele>330.0</ele><time>2026-04-10T14:39:30Z</time></trkpt><trkpt lat="43.688519178505814" lon="11.823921323786545"><ele>328.0</ele><time>2026-04-10T14:39:31Z</time></trkpt><trkpt lat="43.68843361609077" lon="11.824056638989472"><ele>326.0</ele><time>2026-04-10T14:39:32Z</time></trkpt><trkpt lat="43.68835451034136" lon="11.824182891805805"><ele>324.0</ele><time>2026-04-10T14:39:33Z</time></trkpt><trkpt lat="43.688287938746875" lon="11.824292439593625"><ele>324.4</ele><time>2026-04-10T14:39:34Z</time></trkpt><trkpt lat="43.68822111339482" lon="11.824400373056497"><ele>324.79999999999995</ele><time>2026-04-10T14:39:35Z</time></trkpt><trkpt lat="43.68815224765567" lon="11.824509916031506"><ele>325.20000000000005</ele><time>2026-04-10T14:39:36Z</time></trkpt><trkpt lat="43.688084180124946" lon="11.824616538647064"><ele>325.6</ele><time>2026-04-10T14:39:37Z</time></trkpt><trkpt lat="43.68800976944658" lon="11.824733839338304"><ele>326.0</ele><time>2026-04-10T14:39:38Z</time></trkpt><trkpt lat="43.68793467363744" lon="11.82485057688531"><ele>326.0</ele><time>2026-04-10T14:39:39Z</time></trkpt><trkpt lat="43.687861750861586" lon="11.824968283784825"><ele>326.0</ele><time>2026-04-10T14:39:40Z</time></trkpt><trkpt lat="43.687789347240276" lon="11.82508502113749"><ele>326.0</ele><time>2026-04-10T14:39:41Z</time></trkpt><trkpt lat="43.687711661717" lon="11.825195616295401"><ele>326.0</ele><time>2026-04-10T14:39:42.001Z</time></trkpt><trkpt lat="43.68762336128258" lon="11.82528990078199"><ele>326.0</ele><time>2026-04-10T14:39:43.001Z</time></trkpt><trkpt lat="43.68752678378229" lon="11.825356305771829"><ele>324.8</ele><time>2026-04-10T14:39:44.001Z</time></trkpt><trkpt lat="43.6874318507012" lon="11.825413320919463"><ele>323.6</ele><time>2026-04-10T14:39:45.001Z</time></trkpt><trkpt lat="43.687359527723835" lon="11.825504323098869"><ele>322.4</ele><time>2026-04-10T14:39:46.001Z</time></trkpt><trkpt lat="43.687311919612924" lon="11.82562618662603"><ele>321.2</ele><time>2026-04-10T14:39:47.001Z</time></trkpt><trkpt lat="43.687261769216484" lon="11.825745323961623"><ele>320.0</ele><time>2026-04-10T14:39:48.001Z</time></trkpt><trkpt lat="43.687177524654125" lon="11.8258350341298"><ele>320.0</ele><time>2026-04-10T14:39:49.001Z</time></trkpt><trkpt lat="43.68706759658297" lon="11.825878012493911"><ele>320.0</ele><time>2026-04-10T14:39:50.001Z</time></trkpt><trkpt lat="43.68694866385033" lon="11.825902635340054"><ele>320.0</ele><time>2026-04-10T14:39:51.001Z</time></trkpt><trkpt lat="43.686826342849336" lon="11.825937211330093"><ele>320.0</ele><time>2026-04-10T14:39:52.001Z</time></trkpt><trkpt lat="43.686703706847986" lon="11.825979081163707"><ele>323.75</ele><time>2026-04-10T14:39:53.001Z</time></trkpt><trkpt lat="43.68657998207172" lon="11.826017288494814"><ele>327.5</ele><time>2026-04-10T14:39:54.001Z</time></trkpt><trkpt lat="43.68646191019529" lon="11.826051788417203"><ele>331.25</ele><time>2026-04-10T14:39:55.001Z</time></trkpt><trkpt lat="43.686343996224174" lon="11.826089741613327"><ele>335.0</ele><time>2026-04-10T14:39:56.001Z</time></trkpt><trkpt lat="43.686222678793136" lon="11.826127775386652"><ele>335.0</ele><time>2026-04-10T14:39:57.001Z</time></trkpt><trkpt lat="43.68609537337411" lon="11.8261684537999"><ele>335.0</ele><time>2026-04-10T14:39:58.001Z</time></trkpt><trkpt lat="43.685967365664574" lon="11.826211181801915"><ele>335.0</ele><time>2026-04-10T14:39:59.001Z</time></trkpt><trkpt lat="43.685842296418365" lon="11.826255488670343"><ele>335.0</ele><time>2026-04-10T14:40:00.001Z</time></trkpt><trkpt lat="43.685716631538675" lon="11.826296196801755"><ele>335.0</ele><time>2026-04-10T14:40:01.001Z</time></trkpt><trkpt lat="43.68558198096983" lon="11.826329289762013"><ele>335.0</ele><time>2026-04-10T14:40:02.001Z</time></trkpt><trkpt lat="43.68544016152206" lon="11.82635065188021"><ele>335.0</ele><time>2026-04-10T14:40:03.001Z</time></trkpt><trkpt lat="43.68529374629513" lon="11.826375983386464"><ele>335.0</ele><time>2026-04-10T14:40:04.001Z</time></trkpt><trkpt lat="43.685137871363196" lon="11.826405051988967"><ele>332.0</ele><time>2026-04-10T14:40:05.001Z</time></trkpt><trkpt lat="43.68497340306369" lon="11.826463186446654"><ele>329.0</ele><time>2026-04-10T14:40:06.001Z</time></trkpt><trkpt lat="43.68480561009991" lon="11.826550752823573"><ele>326.0</ele><time>2026-04-10T14:40:07.001Z</time></trkpt><trkpt lat="43.68464145919225" lon="11.826650281717015"><ele>326.0</ele><time>2026-04-10T14:40:08.001Z</time></trkpt><trkpt lat="43.68448453353996" lon="11.82675104831492"><ele>326.0</ele><time>2026-04-10T14:40:09.001Z</time></trkpt><trkpt lat="43.68432954122118" lon="11.826844386159912"><ele>326.0</ele><time>2026-04-10T14:40:10.001Z</time></trkpt><trkpt lat="43.68417698060611" lon="11.82693356554263"><ele>325.6666666666667</ele><time>2026-04-10T14:40:11.001Z</time></trkpt><trkpt lat="43.68402854265735" lon="11.827021261989334"><ele>325.3333333333333</ele><time>2026-04-10T14:40:12.001Z</time></trkpt><trkpt lat="43.683884523322185" lon="11.82710911848887"><ele>325.0</ele><time>2026-04-10T14:40:13.001Z</time></trkpt><trkpt lat="43.68374609922976" lon="11.82719922142766"><ele>325.0</ele><time>2026-04-10T14:40:14.001Z</time></trkpt><trkpt lat="43.6836222328028" lon="11.827282036883169"><ele>325.0</ele><time>2026-04-10T14:40:15.001Z</time></trkpt><trkpt lat="43.68350836708799" lon="11.827389274830763"><ele>325.0</ele><time>2026-04-10T14:40:16.001Z</time></trkpt><trkpt lat="43.683399290148245" lon="11.827500837418707"><ele>325.0</ele><time>2026-04-10T14:40:17.001Z</time></trkpt><trkpt lat="43.68329801480493" lon="11.827612126756835"><ele>325.6</ele><time>2026-04-10T14:40:18.001Z</time></trkpt><trkpt lat="43.68320304543472" lon="11.827724072098762"><ele>326.2</ele><time>2026-04-10T14:40:19.001Z</time></trkpt><trkpt lat="43.68312265921581" lon="11.827822109726826"><ele>326.79999999999995</ele><time>2026-04-10T14:40:20.001Z</time></trkpt><trkpt lat="43.68306565493496" lon="11.827899296620142"><ele>327.4</ele><time>2026-04-10T14:40:21.001Z</time></trkpt><trkpt lat="43.683016003037864" lon="11.82795824181099"><ele>328.0</ele><time>2026-04-10T14:40:22.001Z</time></trkpt><trkpt lat="43.6829338005362" lon="11.828066246874991"><ele>328.0</ele><time>2026-04-10T14:40:24.001Z</time></trkpt><trkpt lat="43.68284843175556" lon="11.828196353391386"><ele>328.0</ele><time>2026-04-10T14:40:26.001Z</time></trkpt><trkpt lat="43.682793910474714" lon="11.82825779308438"><ele>328.0</ele><time>2026-04-10T14:40:27.001Z</time></trkpt><trkpt lat="43.682744957800395" lon="11.828339546631751"><ele>328.0</ele><time>2026-04-10T14:40:28.001Z</time></trkpt><trkpt lat="43.682698694532974" lon="11.828430605917585"><ele>328.0</ele><time>2026-04-10T14:40:29.001Z</time></trkpt><trkpt lat="43.68265089384635" lon="11.82853195506552"><ele>328.0</ele><time>2026-04-10T14:40:30.001Z</time></trkpt><trkpt lat="43.68260067055481" lon="11.828637855101222"><ele>327.59999999999997</ele><time>2026-04-10T14:40:31.001Z</time></trkpt><trkpt lat="43.68254278463169" lon="11.828744118771073"><ele>327.2</ele><time>2026-04-10T14:40:32.001Z</time></trkpt><trkpt lat="43.682483151860325" lon="11.828851000220807"><ele>326.8</ele><time>2026-04-10T14:40:33.001Z</time></trkpt><trkpt lat="43.68242168738193" lon="11.828949926806994"><ele>326.4</ele><time>2026-04-10T14:40:34.001Z</time></trkpt><trkpt lat="43.68236160950751" lon="11.829050813696805"><ele>326.0</ele><time>2026-04-10T14:40:35.001Z</time></trkpt><trkpt lat="43.682295074112396" lon="11.829146328684077"><ele>326.0</ele><time>2026-04-10T14:40:36.002Z</time></trkpt><trkpt lat="43.682221339938486" lon="11.829220026929251"><ele>326.0</ele><time>2026-04-10T14:40:37.002Z</time></trkpt><trkpt lat="43.68214885134329" lon="11.829283618860117"><ele>326.0</ele><time>2026-04-10T14:40:38.002Z</time></trkpt><trkpt lat="43.68206971706453" lon="11.829329039983135"><ele>326.0</ele><time>2026-04-10T14:40:39.002Z</time></trkpt><trkpt lat="43.68200146688596" lon="11.829367644324064"><ele>326.0</ele><time>2026-04-10T14:40:40.002Z</time></trkpt><trkpt lat="43.68194205749757" lon="11.829398829367893"><ele>326.0</ele><time>2026-04-10T14:40:41.002Z</time></trkpt><trkpt lat="43.681823937647856" lon="11.82946657724649"><ele>325.0</ele><time>2026-04-10T14:40:43.002Z</time></trkpt><trkpt lat="43.68174952325149" lon="11.829508241853615"><ele>324.0</ele><time>2026-04-10T14:40:44.002Z</time></trkpt><trkpt lat="43.681665632070874" lon="11.82955808909285"><ele>323.0</ele><time>2026-04-10T14:40:45.002Z</time></trkpt><trkpt lat="43.68157443717045" lon="11.82961325489345"><ele>322.0</ele><time>2026-04-10T14:40:46.002Z</time></trkpt><trkpt lat="43.68148604842226" lon="11.829667619439629"><ele>321.0</ele><time>2026-04-10T14:40:47.002Z</time></trkpt><trkpt lat="43.68140044476738" lon="11.829714425763214"><ele>321.0</ele><time>2026-04-10T14:40:48.002Z</time></trkpt><trkpt lat="43.681320593208156" lon="11.829758395277285"><ele>321.0</ele><time>2026-04-10T14:40:49.002Z</time></trkpt><trkpt lat="43.68124529301697" lon="11.829804295197222"><ele>321.0</ele><time>2026-04-10T14:40:50.002Z</time></trkpt><trkpt lat="43.68117137574213" lon="11.829848010197473"><ele>321.0</ele><time>2026-04-10T14:40:51.002Z</time></trkpt><trkpt lat="43.68109519203903" lon="11.829891107924134"><ele>321.0</ele><time>2026-04-10T14:40:52.002Z</time></trkpt><trkpt lat="43.681025027766864" lon="11.829930664395144"><ele>321.0</ele><time>2026-04-10T14:40:53.002Z</time></trkpt><trkpt lat="43.680961800963466" lon="11.829967718748865"><ele>321.0</ele><time>2026-04-10T14:40:54.002Z</time></trkpt><trkpt lat="43.68086588980687" lon="11.83003569930863"><ele>321.0</ele><time>2026-04-10T14:40:56.002Z</time></trkpt><trkpt lat="43.68074702720208" lon="11.830112781892206"><ele>321.0</ele><time>2026-04-10T14:40:58.002Z</time></trkpt><trkpt lat="43.68067088789396" lon="11.830154496665328"><ele>321.0</ele><time>2026-04-10T14:40:59.002Z</time></trkpt><trkpt lat="43.68057853964728" lon="11.830202482804877"><ele>321.0</ele><time>2026-04-10T14:41:00.002Z</time></trkpt><trkpt lat="43.6804853152138" lon="11.830259203084564"><ele>321.25</ele><time>2026-04-10T14:41:01.002Z</time></trkpt><trkpt lat="43.68037636199693" lon="11.830327394945957"><ele>321.5</ele><time>2026-04-10T14:41:02.002Z</time></trkpt><trkpt lat="43.680261935172624" lon="11.83039876963812"><ele>321.75</ele><time>2026-04-10T14:41:03.002Z</time></trkpt><trkpt lat="43.68014287086145" lon="11.830468673243905"><ele>322.0</ele><time>2026-04-10T14:41:04.002Z</time></trkpt><trkpt lat="43.68002231357492" lon="11.830536966464006"><ele>321.5</ele><time>2026-04-10T14:41:05.002Z</time></trkpt><trkpt lat="43.679901647016074" lon="11.830608765095157"><ele>321.0</ele><time>2026-04-10T14:41:06.002Z</time></trkpt><trkpt lat="43.679781084463734" lon="11.83068135946506"><ele>320.5</ele><time>2026-04-10T14:41:07Z</time></trkpt><trkpt lat="43.67966680587679" lon="11.830750354266288"><ele>320.0</ele><time>2026-04-10T14:41:08Z</time></trkpt><trkpt lat="43.67955226754488" lon="11.830804899743313"><ele>320.0</ele><time>2026-04-10T14:41:09Z</time></trkpt><trkpt lat="43.679438064867426" lon="11.830843838264217"><ele>320.0</ele><time>2026-04-10T14:41:10Z</time></trkpt><trkpt lat="43.679320593561314" lon="11.830862411574236"><ele>320.0</ele><time>2026-04-10T14:41:11Z</time></trkpt><trkpt lat="43.67920469630943" lon="11.830857742544282"><ele>320.0</ele><time>2026-04-10T14:41:12Z</time></trkpt><trkpt lat="43.67909162891822" lon="11.830823809928736"><ele>321.75</ele><time>2026-04-10T14:41:13Z</time></trkpt><trkpt lat="43.678972440083975" lon="11.830771603365683"><ele>323.5</ele><time>2026-04-10T14:41:14Z</time></trkpt><trkpt lat="43.678848646806124" lon="11.830709280386928"><ele>325.25</ele><time>2026-04-10T14:41:15Z</time></trkpt><trkpt lat="43.678725032518685" lon="11.83063936897353"><ele>327.0</ele><time>2026-04-10T14:41:16Z</time></trkpt><trkpt lat="43.67859564968048" lon="11.830568714828996"><ele>329.25</ele><time>2026-04-10T14:41:17Z</time></trkpt><trkpt lat="43.67847313011937" lon="11.830500964810694"><ele>331.5</ele><time>2026-04-10T14:41:18Z</time></trkpt><trkpt lat="43.678356031439144" lon="11.830437476486829"><ele>333.75</ele><time>2026-04-10T14:41:19Z</time></trkpt><trkpt lat="43.678238472676426" lon="11.830381650197847"><ele>336.0</ele><time>2026-04-10T14:41:20Z</time></trkpt><trkpt lat="43.678116193592764" lon="11.830339159657894"><ele>336.0</ele><time>2026-04-10T14:41:21Z</time></trkpt><trkpt lat="43.677988802149244" lon="11.8303181729043"><ele>336.0</ele><time>2026-04-10T14:41:22Z</time></trkpt><trkpt lat="43.6778529283679" lon="11.830324915335696"><ele>336.0</ele><time>2026-04-10T14:41:23Z</time></trkpt><trkpt lat="43.67771402155609" lon="11.830368016261467"><ele>336.0</ele><time>2026-04-10T14:41:24Z</time></trkpt><trkpt lat="43.67757799895701" lon="11.830448908210268"><ele>336.3333333333333</ele><time>2026-04-10T14:41:25Z</time></trkpt><trkpt lat="43.67744170099761" lon="11.830547416812959"><ele>336.66666666666663</ele><time>2026-04-10T14:41:26Z</time></trkpt><trkpt lat="43.677301147710736" lon="11.8306817273765"><ele>337.0</ele><time>2026-04-10T14:41:27Z</time></trkpt><trkpt lat="43.67715769053291" lon="11.830827246212117"><ele>337.0</ele><time>2026-04-10T14:41:28Z</time></trkpt><trkpt lat="43.677007007570104" lon="11.830968144133342"><ele>337.0</ele><time>2026-04-10T14:41:29Z</time></trkpt><trkpt lat="43.67685172914704" lon="11.83111389874931"><ele>337.0</ele><time>2026-04-10T14:41:30Z</time></trkpt><trkpt lat="43.676693276793664" lon="11.831264137946128"><ele>335.3333333333333</ele><time>2026-04-10T14:41:31Z</time></trkpt><trkpt lat="43.67653361111759" lon="11.831419989162237"><ele>333.6666666666667</ele><time>2026-04-10T14:41:32Z</time></trkpt><trkpt lat="43.67637347501445" lon="11.831578537297148"><ele>332.0</ele><time>2026-04-10T14:41:33Z</time></trkpt><trkpt lat="43.676213202556646" lon="11.831736224518703"><ele>331.6666666666667</ele><time>2026-04-10T14:41:34Z</time></trkpt><trkpt lat="43.676042597962834" lon="11.831871875724735"><ele>331.3333333333333</ele><time>2026-04-10T14:41:35Z</time></trkpt><trkpt lat="43.67589514262138" lon="11.832039026460462"><ele>331.0</ele><time>2026-04-10T14:41:36Z</time></trkpt><trkpt lat="43.67574039508504" lon="11.832185974438486"><ele>331.0</ele><time>2026-04-10T14:41:37Z</time></trkpt><trkpt lat="43.6755775377561" lon="11.83231289037102"><ele>331.0</ele><time>2026-04-10T14:41:38Z</time></trkpt><trkpt lat="43.675421136179715" lon="11.83246130608927"><ele>331.0</ele><time>2026-04-10T14:41:39Z</time></trkpt><trkpt lat="43.67526586265856" lon="11.832608652770748"><ele>330.66666666666663</ele><time>2026-04-10T14:41:40Z</time></trkpt><trkpt lat="43.67510975992935" lon="11.832756784821896"><ele>330.3333333333333</ele><time>2026-04-10T14:41:41Z</time></trkpt><trkpt lat="43.674952660757555" lon="11.83290586244058"><ele>330.0</ele><time>2026-04-10T14:41:42Z</time></trkpt><trkpt lat="43.674793182126876" lon="11.83305719803205"><ele>330.0</ele><time>2026-04-10T14:41:43Z</time></trkpt><trkpt lat="43.67463623875921" lon="11.833206127814403"><ele>330.0</ele><time>2026-04-10T14:41:44Z</time></trkpt><trkpt lat="43.674488010879394" lon="11.83337340592953"><ele>330.0</ele><time>2026-04-10T14:41:45Z</time></trkpt><trkpt lat="43.67432885899496" lon="11.833516256391324"><ele>329.3333333333333</ele><time>2026-04-10T14:41:46Z</time></trkpt><trkpt lat="43.67417085963746" lon="11.83365642576755"><ele>328.66666666666663</ele><time>2026-04-10T14:41:47.001Z</time></trkpt><trkpt lat="43.67401464743977" lon="11.833791643474699"><ele>328.0</ele><time>2026-04-10T14:41:48.001Z</time></trkpt><trkpt lat="43.67385770460261" lon="11.833924419885106"><ele>328.0</ele><time>2026-04-10T14:41:49.001Z</time></trkpt><trkpt lat="43.67370504963916" lon="11.834054988362716"><ele>328.0</ele><time>2026-04-10T14:41:50.001Z</time></trkpt><trkpt lat="43.67355473778185" lon="11.83418827204467"><ele>328.0</ele><time>2026-04-10T14:41:51.001Z</time></trkpt><trkpt lat="43.67340632347873" lon="11.834317718431834"><ele>328.3333333333333</ele><time>2026-04-10T14:41:52.001Z</time></trkpt><trkpt lat="43.67326216704139" lon="11.834454833558382"><ele>328.6666666666667</ele><time>2026-04-10T14:41:53.001Z</time></trkpt><trkpt lat="43.673125749316064" lon="11.834598097290591"><ele>329.0</ele><time>2026-04-10T14:41:54.001Z</time></trkpt><trkpt lat="43.67299148683239" lon="11.834745974158036"><ele>329.0</ele><time>2026-04-10T14:41:55.001Z</time></trkpt><trkpt lat="43.6728645783532" lon="11.834908914618739"><ele>329.0</ele><time>2026-04-10T14:41:56.001Z</time></trkpt><trkpt lat="43.672728648588425" lon="11.835060427905484"><ele>329.0</ele><time>2026-04-10T14:41:57.001Z</time></trkpt><trkpt lat="43.67261689552692" lon="11.835253304780272"><ele>327.33333333333337</ele><time>2026-04-10T14:41:58.001Z</time></trkpt><trkpt lat="43.67249685686023" lon="11.835438178574917"><ele>325.6666666666667</ele><time>2026-04-10T14:41:59.001Z</time></trkpt><trkpt lat="43.67238599411993" lon="11.83563373085116"><ele>324.0</ele><time>2026-04-10T14:42:00.001Z</time></trkpt><trkpt lat="43.6722789566633" lon="11.835833421862757"><ele>326.6666666666667</ele><time>2026-04-10T14:42:01.001Z</time></trkpt><trkpt lat="43.67217381519542" lon="11.836031916860884"><ele>329.33333333333337</ele><time>2026-04-10T14:42:02.001Z</time></trkpt><trkpt lat="43.67206808396045" lon="11.83622707383111"><ele>332.0</ele><time>2026-04-10T14:42:03.001Z</time></trkpt><trkpt lat="43.67196714304429" lon="11.83641606118565"><ele>331.0</ele><time>2026-04-10T14:42:04.001Z</time></trkpt><trkpt lat="43.67186870913729" lon="11.836601199369875"><ele>330.0</ele><time>2026-04-10T14:42:05.001Z</time></trkpt><trkpt lat="43.6717701250347" lon="11.83679193825728"><ele>329.0</ele><time>2026-04-10T14:42:06.001Z</time></trkpt><trkpt lat="43.67167212898522" lon="11.836981708720536"><ele>329.0</ele><time>2026-04-10T14:42:07.001Z</time></trkpt><trkpt lat="43.67157692647802" lon="11.83716909173395"><ele>329.0</ele><time>2026-04-10T14:42:08.001Z</time></trkpt><trkpt lat="43.67147908411647" lon="11.837347422925616"><ele>329.0</ele><time>2026-04-10T14:42:09.001Z</time></trkpt><trkpt lat="43.67137700902771" lon="11.83750848531019"><ele>331.5</ele><time>2026-04-10T14:42:10.001Z</time></trkpt><trkpt lat="43.671268499696794" lon="11.837653836533324"><ele>334.0</ele><time>2026-04-10T14:42:11.001Z</time></trkpt><trkpt lat="43.67115447295868" lon="11.837774781522644"><ele>336.5</ele><time>2026-04-10T14:42:12.001Z</time></trkpt><trkpt lat="43.671035604315136" lon="11.837871505676116"><ele>339.0</ele><time>2026-04-10T14:42:13.001Z</time></trkpt><trkpt lat="43.67092342006777" lon="11.837943956348948"><ele>339.0</ele><time>2026-04-10T14:42:14.001Z</time></trkpt><trkpt lat="43.67081766302112" lon="11.838005032500899"><ele>339.0</ele><time>2026-04-10T14:42:15.001Z</time></trkpt><trkpt lat="43.67070988786963" lon="11.83806725266514"><ele>339.0</ele><time>2026-04-10T14:42:16.001Z</time></trkpt><trkpt lat="43.6706012993462" lon="11.83812941155342"><ele>339.0</ele><time>2026-04-10T14:42:17.001Z</time></trkpt><trkpt lat="43.67048687501896" lon="11.8381947178838"><ele>339.0</ele><time>2026-04-10T14:42:18.001Z</time></trkpt><trkpt lat="43.67037646670647" lon="11.838259871760517"><ele>339.0</ele><time>2026-04-10T14:42:19.001Z</time></trkpt><trkpt lat="43.67026211395236" lon="11.838324917146863"><ele>339.0</ele><time>2026-04-10T14:42:20.001Z</time></trkpt><trkpt lat="43.67014333406239" lon="11.838394867071006"><ele>339.0</ele><time>2026-04-10T14:42:21.001Z</time></trkpt><trkpt lat="43.670024529907806" lon="11.838467765192881"><ele>340.75</ele><time>2026-04-10T14:42:22.001Z</time></trkpt><trkpt lat="43.669903848235016" lon="11.838538497570473"><ele>342.5</ele><time>2026-04-10T14:42:23.001Z</time></trkpt><trkpt lat="43.66978218665852" lon="11.83861029046495"><ele>344.25</ele><time>2026-04-10T14:42:24.001Z</time></trkpt><trkpt lat="43.669656068029845" lon="11.83868096569126"><ele>346.0</ele><time>2026-04-10T14:42:25.001Z</time></trkpt><trkpt lat="43.669527895694664" lon="11.83875575441029"><ele>343.0</ele><time>2026-04-10T14:42:26.001Z</time></trkpt><trkpt lat="43.66939804970453" lon="11.838829869922852"><ele>340.0</ele><time>2026-04-10T14:42:27.001Z</time></trkpt><trkpt lat="43.66926660664705" lon="11.838905919220108"><ele>337.0</ele><time>2026-04-10T14:42:28.001Z</time></trkpt><trkpt lat="43.66913027770628" lon="11.83898438175694"><ele>334.0</ele><time>2026-04-10T14:42:29.001Z</time></trkpt><trkpt lat="43.66898824311625" lon="11.839064225162534"><ele>334.0</ele><time>2026-04-10T14:42:30.001Z</time></trkpt><trkpt lat="43.66883582922776" lon="11.839159023728543"><ele>334.0</ele><time>2026-04-10T14:42:31.001Z</time></trkpt><trkpt lat="43.668666134681764" lon="11.839249753350451"><ele>334.0</ele><time>2026-04-10T14:42:32.001Z</time></trkpt><trkpt lat="43.66849506034229" lon="11.839352756768585"><ele>340.0</ele><time>2026-04-10T14:42:33.001Z</time></trkpt><trkpt lat="43.66831490451686" lon="11.83947327756114"><ele>346.0</ele><time>2026-04-10T14:42:34.001Z</time></trkpt><trkpt lat="43.668134418225144" lon="11.839611146495823"><ele>352.0</ele><time>2026-04-10T14:42:35.001Z</time></trkpt><trkpt lat="43.66798230912585" lon="11.839735230712021"><ele>352.0</ele><time>2026-04-10T14:42:36.001Z</time></trkpt><trkpt lat="43.66785094484209" lon="11.839861108760326"><ele>352.0</ele><time>2026-04-10T14:42:37.001Z</time></trkpt><trkpt lat="43.66771961251272" lon="11.839971265942921"><ele>352.0</ele><time>2026-04-10T14:42:38.001Z</time></trkpt><trkpt lat="43.66759594526938" lon="11.840074550937775"><ele>355.5</ele><time>2026-04-10T14:42:39.001Z</time></trkpt><trkpt lat="43.66747908811808" lon="11.840172855200631"><ele>359.0</ele><time>2026-04-10T14:42:40.001Z</time></trkpt><trkpt lat="43.66735779823091" lon="11.840264574319857"><ele>362.5</ele><time>2026-04-10T14:42:41.001Z</time></trkpt><trkpt lat="43.66723415049159" lon="11.84034571959581"><ele>366.0</ele><time>2026-04-10T14:42:42.001Z</time></trkpt><trkpt lat="43.66710746869762" lon="11.84040626659063"><ele>366.0</ele><time>2026-04-10T14:42:43.001Z</time></trkpt><trkpt lat="43.66698098406116" lon="11.840449391940487"><ele>366.0</ele><time>2026-04-10T14:42:44.002Z</time></trkpt><trkpt lat="43.66685149619052" lon="11.840475833791814"><ele>366.0</ele><time>2026-04-10T14:42:45.002Z</time></trkpt><trkpt lat="43.66671724714458" lon="11.840485424662688"><ele>366.0</ele><time>2026-04-10T14:42:46.002Z</time></trkpt><trkpt lat="43.666588679872795" lon="11.84048051900962"><ele>363.0</ele><time>2026-04-10T14:42:47.002Z</time></trkpt><trkpt lat="43.66646654217079" lon="11.840467378315937"><ele>360.0</ele><time>2026-04-10T14:42:48.002Z</time></trkpt><trkpt lat="43.66634130462011" lon="11.840453794153719"><ele>357.0</ele><time>2026-04-10T14:42:49.002Z</time></trkpt><trkpt lat="43.666213164129644" lon="11.84044065713989"><ele>354.0</ele><time>2026-04-10T14:42:50.002Z</time></trkpt><trkpt lat="43.66608211176391" lon="11.840432558257003"><ele>353.0</ele><time>2026-04-10T14:42:51.002Z</time></trkpt><trkpt lat="43.66594974675532" lon="11.840424878843187"><ele>352.0</ele><time>2026-04-10T14:42:52.002Z</time></trkpt><trkpt lat="43.66581482695342" lon="11.840417147096778"><ele>351.0</ele><time>2026-04-10T14:42:53.002Z</time></trkpt><trkpt lat="43.66568042182948" lon="11.840413701319331"><ele>350.0</ele><time>2026-04-10T14:42:54.002Z</time></trkpt><trkpt lat="43.665552040928695" lon="11.840417348471075"><ele>350.0</ele><time>2026-04-10T14:42:55.002Z</time></trkpt><trkpt lat="43.66542385009177" lon="11.840443081777925"><ele>350.0</ele><time>2026-04-10T14:42:56.002Z</time></trkpt><trkpt lat="43.66529784017112" lon="11.84050351626707"><ele>350.0</ele><time>2026-04-10T14:42:57.002Z</time></trkpt><trkpt lat="43.66517583234804" lon="11.840594932449122"><ele>350.0</ele><time>2026-04-10T14:42:58.002Z</time></trkpt><trkpt lat="43.66505058508014" lon="11.840686732712719"><ele>347.25</ele><time>2026-04-10T14:42:59.002Z</time></trkpt><trkpt lat="43.664915630855695" lon="11.840744461182712"><ele>344.5</ele><time>2026-04-10T14:43:00.002Z</time></trkpt><trkpt lat="43.664773011542195" lon="11.840755600888487"><ele>341.75</ele><time>2026-04-10T14:43:01.002Z</time></trkpt><trkpt lat="43.664634032259166" lon="11.840742538817999"><ele>339.0</ele><time>2026-04-10T14:43:02.002Z</time></trkpt><trkpt lat="43.66450094156261" lon="11.840732724311895"><ele>338.75</ele><time>2026-04-10T14:43:03.002Z</time></trkpt><trkpt lat="43.66436394117387" lon="11.840718832620283"><ele>338.5</ele><time>2026-04-10T14:43:04.002Z</time></trkpt><trkpt lat="43.66422307072339" lon="11.840703355512977"><ele>338.25</ele><time>2026-04-10T14:43:05.002Z</time></trkpt><trkpt lat="43.66408078218786" lon="11.840689755070573"><ele>338.0</ele><time>2026-04-10T14:43:06.002Z</time></trkpt><trkpt lat="43.66393767937566" lon="11.84067983333046"><ele>338.0</ele><time>2026-04-10T14:43:07.002Z</time></trkpt><trkpt lat="43.663797766612156" lon="11.840665452137442"><ele>338.0</ele><time>2026-04-10T14:43:08.002Z</time></trkpt><trkpt lat="43.66367299146453" lon="11.840652830034095"><ele>338.0</ele><time>2026-04-10T14:43:09.002Z</time></trkpt><trkpt lat="43.66357848586281" lon="11.840646279128228"><ele>338.0</ele><time>2026-04-10T14:43:10.002Z</time></trkpt><trkpt lat="43.66347765317724" lon="11.84063809203018"><ele>337.0</ele><time>2026-04-10T14:43:11.002Z</time></trkpt><trkpt lat="43.66337471061146" lon="11.840627280423236"><ele>336.0</ele><time>2026-04-10T14:43:12.002Z</time></trkpt><trkpt lat="43.6632738990094" lon="11.84061540509063"><ele>335.0</ele><time>2026-04-10T14:43:13Z</time></trkpt><trkpt lat="43.66317330222634" lon="11.840604739604956"><ele>334.0</ele><time>2026-04-10T14:43:14Z</time></trkpt><trkpt lat="43.66306732672381" lon="11.840596018900376"><ele>333.0</ele><time>2026-04-10T14:43:15Z</time></trkpt><trkpt lat="43.66295021414993" lon="11.84058789548006"><ele>333.0</ele><time>2026-04-10T14:43:16Z</time></trkpt><trkpt lat="43.66282442056177" lon="11.840578061837482"><ele>333.0</ele><time>2026-04-10T14:43:17Z</time></trkpt><trkpt lat="43.66269771663232" lon="11.840565055545992"><ele>333.0</ele><time>2026-04-10T14:43:18Z</time></trkpt><trkpt lat="43.66257448030119" lon="11.840552297287557"><ele>333.0</ele><time>2026-04-10T14:43:19Z</time></trkpt><trkpt lat="43.66244962304815" lon="11.840542894603992"><ele>333.3333333333333</ele><time>2026-04-10T14:43:20Z</time></trkpt><trkpt lat="43.66231651857321" lon="11.840530673718032"><ele>333.66666666666663</ele><time>2026-04-10T14:43:21Z</time></trkpt><trkpt lat="43.66215940159017" lon="11.84051177743682"><ele>334.0</ele><time>2026-04-10T14:43:22Z</time></trkpt><trkpt lat="43.66198570150423" lon="11.84047000259155"><ele>333.0</ele><time>2026-04-10T14:43:23Z</time></trkpt><trkpt lat="43.661813147360554" lon="11.84040726702574"><ele>332.0</ele><time>2026-04-10T14:43:24Z</time></trkpt><trkpt lat="43.66164265772804" lon="11.840306034711693"><ele>331.0</ele><time>2026-04-10T14:43:25Z</time></trkpt><trkpt lat="43.661466804708645" lon="11.840218018799188"><ele>325.0</ele><time>2026-04-10T14:43:26Z</time></trkpt><trkpt lat="43.66129844947749" lon="11.840115667666678"><ele>319.0</ele><time>2026-04-10T14:43:27Z</time></trkpt><trkpt lat="43.66113881559737" lon="11.840005064396935"><ele>313.0</ele><time>2026-04-10T14:43:28Z</time></trkpt><trkpt lat="43.6609878220834" lon="11.83989097681426"><ele>313.0</ele><time>2026-04-10T14:43:29Z</time></trkpt><trkpt lat="43.66083194003501" lon="11.839794887965045"><ele>313.0</ele><time>2026-04-10T14:43:30Z</time></trkpt><trkpt lat="43.66068560168127" lon="11.839684019998918"><ele>313.0</ele><time>2026-04-10T14:43:31Z</time></trkpt><trkpt lat="43.66054823595968" lon="11.839594695629916"><ele>313.0</ele><time>2026-04-10T14:43:32Z</time></trkpt><trkpt lat="43.660409776570354" lon="11.839523324762133"><ele>313.0</ele><time>2026-04-10T14:43:33Z</time></trkpt><trkpt lat="43.66027869104999" lon="11.839465681253877"><ele>313.0</ele><time>2026-04-10T14:43:34Z</time></trkpt><trkpt lat="43.66015224933551" lon="11.839418704013418"><ele>313.0</ele><time>2026-04-10T14:43:35Z</time></trkpt><trkpt lat="43.66002667390938" lon="11.839380219525985"><ele>315.0</ele><time>2026-04-10T14:43:36Z</time></trkpt><trkpt lat="43.65989960172528" lon="11.839349664898204"><ele>317.0</ele><time>2026-04-10T14:43:37Z</time></trkpt><trkpt lat="43.6597706478266" lon="11.839324941881543"><ele>319.0</ele><time>2026-04-10T14:43:38Z</time></trkpt><trkpt lat="43.65964118318162" lon="11.839309764559113"><ele>321.0</ele><time>2026-04-10T14:43:39Z</time></trkpt><trkpt lat="43.659509513992184" lon="11.83930573437184"><ele>321.25</ele><time>2026-04-10T14:43:40Z</time></trkpt><trkpt lat="43.659381175043144" lon="11.839312000045522"><ele>321.5</ele><time>2026-04-10T14:43:41Z</time></trkpt><trkpt lat="43.65926238253121" lon="11.839325817970327"><ele>321.75</ele><time>2026-04-10T14:43:42Z</time></trkpt><trkpt lat="43.65914746280378" lon="11.839324495936014"><ele>322.0</ele><time>2026-04-10T14:43:43Z</time></trkpt><trkpt lat="43.659034645275646" lon="11.839342468452097"><ele>322.0</ele><time>2026-04-10T14:43:44Z</time></trkpt><trkpt lat="43.6589361900727" lon="11.839381511272034"><ele>322.0</ele><time>2026-04-10T14:43:45Z</time></trkpt><trkpt lat="43.6588363858425" lon="11.839392644243238"><ele>322.0</ele><time>2026-04-10T14:43:46Z</time></trkpt><trkpt lat="43.658734334187564" lon="11.839400517819337"><ele>322.0</ele><time>2026-04-10T14:43:47Z</time></trkpt><trkpt lat="43.65863029976926" lon="11.839409743158514"><ele>322.0</ele><time>2026-04-10T14:43:48Z</time></trkpt><trkpt lat="43.658524341188006" lon="11.839415840159505"><ele>321.6</ele><time>2026-04-10T14:43:49Z</time></trkpt><trkpt lat="43.658418681267406" lon="11.839422228237506"><ele>321.20000000000005</ele><time>2026-04-10T14:43:50Z</time></trkpt><trkpt lat="43.65831692588583" lon="11.839422255096489"><ele>320.8</ele><time>2026-04-10T14:43:51Z</time></trkpt><trkpt lat="43.65822319524536" lon="11.839414548934789"><ele>320.4</ele><time>2026-04-10T14:43:52Z</time></trkpt><trkpt lat="43.65813197697157" lon="11.839400588553302"><ele>320.0</ele><time>2026-04-10T14:43:53Z</time></trkpt><trkpt lat="43.658042294042005" lon="11.839385128738606"><ele>320.0</ele><time>2026-04-10T14:43:54Z</time></trkpt><trkpt lat="43.65795462784185" lon="11.839367746850703"><ele>320.0</ele><time>2026-04-10T14:43:55Z</time></trkpt><trkpt lat="43.65787054269226" lon="11.839348786005504"><ele>320.0</ele><time>2026-04-10T14:43:56Z</time></trkpt><trkpt lat="43.6577871815071" lon="11.839329527813854"><ele>320.0</ele><time>2026-04-10T14:43:57Z</time></trkpt><trkpt lat="43.65770351788637" lon="11.83931165718236"><ele>320.0</ele><time>2026-04-10T14:43:58Z</time></trkpt><trkpt lat="43.65761202088424" lon="11.839292075599007"><ele>320.0</ele><time>2026-04-10T14:43:59Z</time></trkpt><trkpt lat="43.65751781469058" lon="11.83927511171696"><ele>317.4</ele><time>2026-04-10T14:44:00Z</time></trkpt><trkpt lat="43.657420872152954" lon="11.839257579084357"><ele>314.8</ele><time>2026-04-10T14:44:01Z</time></trkpt><trkpt lat="43.6573195729089" lon="11.839240519008534"><ele>312.2</ele><time>2026-04-10T14:44:02Z</time></trkpt><trkpt lat="43.6572220689184" lon="11.83922163587685"><ele>309.6</ele><time>2026-04-10T14:44:03.001Z</time></trkpt><trkpt lat="43.657126632712846" lon="11.839200823181315"><ele>307.0</ele><time>2026-04-10T14:44:04.001Z</time></trkpt><trkpt lat="43.657033560384455" lon="11.839177280716974"><ele>307.6</ele><time>2026-04-10T14:44:05.001Z</time></trkpt><trkpt lat="43.65694209966821" lon="11.839155979971775"><ele>308.2</ele><time>2026-04-10T14:44:06.001Z</time></trkpt><trkpt lat="43.65685306601629" lon="11.839132969649178"><ele>308.8</ele><time>2026-04-10T14:44:07.001Z</time></trkpt><trkpt lat="43.65676270328483" lon="11.839111863367208"><ele>309.4</ele><time>2026-04-10T14:44:08.001Z</time></trkpt><trkpt lat="43.65666451783285" lon="11.839089452514893"><ele>310.0</ele><time>2026-04-10T14:44:09.001Z</time></trkpt><trkpt lat="43.65656256746852" lon="11.839057302260805"><ele>310.0</ele><time>2026-04-10T14:44:10.001Z</time></trkpt><trkpt lat="43.65644404056938" lon="11.839006517306382"><ele>310.0</ele><time>2026-04-10T14:44:11.001Z</time></trkpt><trkpt lat="43.65631858823413" lon="11.838940488365033"><ele>310.0</ele><time>2026-04-10T14:44:12.001Z</time></trkpt><trkpt lat="43.656179042415374" lon="11.8388337545254"><ele>310.0</ele><time>2026-04-10T14:44:13.001Z</time></trkpt><trkpt lat="43.656017513360645" lon="11.838727543225884"><ele>310.3333333333333</ele><time>2026-04-10T14:44:14.001Z</time></trkpt><trkpt lat="43.65584875319844" lon="11.838616577205281"><ele>310.6666666666667</ele><time>2026-04-10T14:44:15.001Z</time></trkpt><trkpt lat="43.65568793704491" lon="11.838510618986158"><ele>311.0</ele><time>2026-04-10T14:44:16.001Z</time></trkpt><trkpt lat="43.65554379691449" lon="11.838413826880144"><ele>309.5</ele><time>2026-04-10T14:44:17.001Z</time></trkpt><trkpt lat="43.655410845212174" lon="11.838325066090635"><ele>308.0</ele><time>2026-04-10T14:44:18.001Z</time></trkpt><trkpt lat="43.655298945424704" lon="11.838250359919547"><ele>306.5</ele><time>2026-04-10T14:44:19.001Z</time></trkpt><trkpt lat="43.65519174246506" lon="11.838201221910698"><ele>305.0</ele><time>2026-04-10T14:44:20.001Z</time></trkpt><trkpt lat="43.65510677797303" lon="11.838134881144082"><ele>305.0</ele><time>2026-04-10T14:44:21.001Z</time></trkpt><trkpt lat="43.65502859755644" lon="11.838078610712786"><ele>305.0</ele><time>2026-04-10T14:44:22.001Z</time></trkpt><trkpt lat="43.65496060865759" lon="11.838027292311523"><ele>305.0</ele><time>2026-04-10T14:44:23.001Z</time></trkpt><trkpt lat="43.65489635415812" lon="11.837980565948092"><ele>305.0</ele><time>2026-04-10T14:44:24.001Z</time></trkpt><trkpt lat="43.65483469578833" lon="11.837935132287859"><ele>305.0</ele><time>2026-04-10T14:44:25.001Z</time></trkpt><trkpt lat="43.65477611727501" lon="11.837891877685509"><ele>305.0</ele><time>2026-04-10T14:44:26.001Z</time></trkpt><trkpt lat="43.654695273689654" lon="11.837832576671532"><ele>305.0</ele><time>2026-04-10T14:44:28.001Z</time></trkpt><trkpt lat="43.65460740511675" lon="11.837763935451944"><ele>305.0</ele><time>2026-04-10T14:44:40.001Z</time></trkpt><trkpt lat="43.654513187706115" lon="11.837679601649382"><ele>305.0</ele><time>2026-04-10T14:44:42.001Z</time></trkpt><trkpt lat="43.654459776256466" lon="11.837627277570896"><ele>305.0</ele><time>2026-04-10T14:44:43.001Z</time></trkpt><trkpt lat="43.65440073125783" lon="11.837569890365176"><ele>305.0</ele><time>2026-04-10T14:44:44.001Z</time></trkpt><trkpt lat="43.654325302762395" lon="11.837500046742495"><ele>305.0</ele><time>2026-04-10T14:44:45.001Z</time></trkpt><trkpt lat="43.65423443864958" lon="11.837396236189882"><ele>305.0</ele><time>2026-04-10T14:44:46.001Z</time></trkpt><trkpt lat="43.65411503583874" lon="11.83728277555811"><ele>305.0</ele><time>2026-04-10T14:44:47.001Z</time></trkpt><trkpt lat="43.653987371820335" lon="11.837162616480772"><ele>305.0</ele><time>2026-04-10T14:44:48.001Z</time></trkpt><trkpt lat="43.65385735682836" lon="11.837056159768139"><ele>305.0</ele><time>2026-04-10T14:44:49.001Z</time></trkpt><trkpt lat="43.65374648214973" lon="11.836941111278414"><ele>305.0</ele><time>2026-04-10T14:44:50.001Z</time></trkpt><trkpt lat="43.65365069125248" lon="11.836848247346257"><ele>305.0</ele><time>2026-04-10T14:44:51.001Z</time></trkpt><trkpt lat="43.65357136047075" lon="11.836772335761633"><ele>305.0</ele><time>2026-04-10T14:44:52.001Z</time></trkpt><trkpt lat="43.65349353023745" lon="11.83670011366923"><ele>305.0</ele><time>2026-04-10T14:44:53.001Z</time></trkpt><trkpt lat="43.6534127673352" lon="11.836625771735054"><ele>305.0</ele><time>2026-04-10T14:44:54.001Z</time></trkpt><trkpt lat="43.653329309331845" lon="11.836548639975346"><ele>305.0</ele><time>2026-04-10T14:44:55.001Z</time></trkpt><trkpt lat="43.653244383830334" lon="11.836468862160942"><ele>305.0</ele><time>2026-04-10T14:44:56.001Z</time></trkpt><trkpt lat="43.653160940536026" lon="11.836389366947579"><ele>305.0</ele><time>2026-04-10T14:44:57.001Z</time></trkpt><trkpt lat="43.65307944628086" lon="11.836306719262149"><ele>305.0</ele><time>2026-04-10T14:44:58.001Z</time></trkpt><trkpt lat="43.652998181677596" lon="11.836230919841201"><ele>305.0</ele><time>2026-04-10T14:44:59.002Z</time></trkpt><trkpt lat="43.65291808619354" lon="11.83615495409874"><ele>305.0</ele><time>2026-04-10T14:45:00.002Z</time></trkpt><trkpt lat="43.65283781997308" lon="11.83608063869904"><ele>305.0</ele><time>2026-04-10T14:45:01.002Z</time></trkpt><trkpt lat="43.65276272965424" lon="11.836011964271968"><ele>305.0</ele><time>2026-04-10T14:45:02.002Z</time></trkpt><trkpt lat="43.65269497781128" lon="11.835959254479352"><ele>305.0</ele><time>2026-04-10T14:45:03.002Z</time></trkpt><trkpt lat="43.65263445714959" lon="11.835903033269073"><ele>305.0</ele><time>2026-04-10T14:45:04.002Z</time></trkpt><trkpt lat="43.652574395721246" lon="11.83585793005641"><ele>305.5</ele><time>2026-04-10T14:45:05.002Z</time></trkpt><trkpt lat="43.65251095470183" lon="11.835815550365513"><ele>306.0</ele><time>2026-04-10T14:45:06.002Z</time></trkpt><trkpt lat="43.652448990903224" lon="11.835771514811706"><ele>306.5</ele><time>2026-04-10T14:45:07.002Z</time></trkpt><trkpt lat="43.65238673249203" lon="11.835738808763983"><ele>307.0</ele><time>2026-04-10T14:45:08.002Z</time></trkpt><trkpt lat="43.652292755104526" lon="11.835690961988034"><ele>307.5</ele><time>2026-04-10T14:45:10.002Z</time></trkpt><trkpt lat="43.6522221846037" lon="11.835653530552625"><ele>308.0</ele><time>2026-04-10T14:45:12.002Z</time></trkpt><trkpt lat="43.65215782229948" lon="11.835619314582505"><ele>308.0</ele><time>2026-04-10T14:45:14.002Z</time></trkpt><trkpt lat="43.652082384821846" lon="11.83558628047715"><ele>308.0</ele><time>2026-04-10T14:45:16.002Z</time></trkpt><trkpt lat="43.651994810607405" lon="11.835553643199528"><ele>308.0</ele><time>2026-04-10T14:45:18.002Z</time></trkpt><trkpt lat="43.651906791693335" lon="11.83549609623133"><ele>308.0</ele><time>2026-04-10T14:45:20Z</time></trkpt><trkpt lat="43.65185290736128" lon="11.83545103840125"><ele>308.0</ele><time>2026-04-10T14:45:21Z</time></trkpt><trkpt lat="43.65178114869961" lon="11.83542172960902"><ele>308.0</ele><time>2026-04-10T14:45:22Z</time></trkpt><trkpt lat="43.65168524071372" lon="11.83539027252"><ele>307.6</ele><time>2026-04-10T14:45:23Z</time></trkpt><trkpt lat="43.651583148208445" lon="11.835352357858683"><ele>307.20000000000005</ele><time>2026-04-10T14:45:24Z</time></trkpt><trkpt lat="43.65148432209385" lon="11.835308194894443"><ele>306.8</ele><time>2026-04-10T14:45:25Z</time></trkpt><trkpt lat="43.651393163470274" lon="11.835262458840772"><ele>306.40000000000003</ele><time>2026-04-10T14:45:26Z</time></trkpt><trkpt lat="43.65130362872417" lon="11.835219423546855"><ele>306.0</ele><time>2026-04-10T14:45:27Z</time></trkpt><trkpt lat="43.6512164242099" lon="11.835178068617925"><ele>305.8</ele><time>2026-04-10T14:45:28Z</time></trkpt><trkpt lat="43.65112585155128" lon="11.83513448557023"><ele>305.6</ele><time>2026-04-10T14:45:29Z</time></trkpt><trkpt lat="43.65102907698043" lon="11.835090714525345"><ele>305.4</ele><time>2026-04-10T14:45:30Z</time></trkpt><trkpt lat="43.65093237292801" lon="11.835046581361635"><ele>305.2</ele><time>2026-04-10T14:45:31Z</time></trkpt><trkpt lat="43.65084118198797" lon="11.835005454895553"><ele>305.0</ele><time>2026-04-10T14:45:32Z</time></trkpt><trkpt lat="43.650749346869375" lon="11.834965389276295"><ele>304.8</ele><time>2026-04-10T14:45:33Z</time></trkpt><trkpt lat="43.650653736411336" lon="11.834920625659668"><ele>304.6</ele><time>2026-04-10T14:45:34Z</time></trkpt><trkpt lat="43.65055555944986" lon="11.834877540026978"><ele>304.4</ele><time>2026-04-10T14:45:35Z</time></trkpt><trkpt lat="43.65045327195114" lon="11.834832886555606"><ele>304.2</ele><time>2026-04-10T14:45:36Z</time></trkpt><trkpt lat="43.65035184356301" lon="11.83478758290078"><ele>304.0</ele><time>2026-04-10T14:45:37Z</time></trkpt><trkpt lat="43.65024603523431" lon="11.834743737902315"><ele>304.0</ele><time>2026-04-10T14:45:38Z</time></trkpt><trkpt lat="43.65013686512784" lon="11.834705106172677"><ele>304.0</ele><time>2026-04-10T14:45:39Z</time></trkpt><trkpt lat="43.6500239167844" lon="11.834679855861555"><ele>304.0</ele><time>2026-04-10T14:45:40Z</time></trkpt><trkpt lat="43.649903863245754" lon="11.834665893596798"><ele>304.0</ele><time>2026-04-10T14:45:41Z</time></trkpt><trkpt lat="43.649779365337984" lon="11.83466095431451"><ele>304.0</ele><time>2026-04-10T14:45:42Z</time></trkpt><trkpt lat="43.6496539402862" lon="11.834665263386432"><ele>304.0</ele><time>2026-04-10T14:45:43Z</time></trkpt><trkpt lat="43.649533932717986" lon="11.834667880218136"><ele>304.0</ele><time>2026-04-10T14:45:44Z</time></trkpt><trkpt lat="43.64941757022037" lon="11.834681328873048"><ele>304.0</ele><time>2026-04-10T14:45:45Z</time></trkpt><trkpt lat="43.64930519003086" lon="11.834690320015142"><ele>304.0</ele><time>2026-04-10T14:45:46Z</time></trkpt><trkpt lat="43.64920052936402" lon="11.834697942381137"><ele>304.0</ele><time>2026-04-10T14:45:47Z</time></trkpt><trkpt lat="43.649111318858175" lon="11.834701857429692"><ele>304.0</ele><time>2026-04-10T14:45:48Z</time></trkpt><trkpt lat="43.64903898669585" lon="11.834713528824253"><ele>304.0</ele><time>2026-04-10T14:45:49Z</time></trkpt><trkpt lat="43.64897052117828" lon="11.83472221794071"><ele>304.0</ele><time>2026-04-10T14:45:50Z</time></trkpt><trkpt lat="43.648905419206955" lon="11.834730237993583"><ele>304.0</ele><time>2026-04-10T14:45:51Z</time></trkpt><trkpt lat="43.64883584080091" lon="11.834739692259808"><ele>304.0</ele><time>2026-04-10T14:45:52Z</time></trkpt><trkpt lat="43.648756288243156" lon="11.834751099380801"><ele>304.0</ele><time>2026-04-10T14:45:53Z</time></trkpt><trkpt lat="43.6486553568581" lon="11.834768409441436"><ele>304.0</ele><time>2026-04-10T14:45:54Z</time></trkpt><trkpt lat="43.64851923623169" lon="11.834767681619281"><ele>304.0</ele><time>2026-04-10T14:45:55Z</time></trkpt><trkpt lat="43.64836626016011" lon="11.83478617090962"><ele>304.0</ele><time>2026-04-10T14:45:56Z</time></trkpt><trkpt lat="43.64817813801853" lon="11.834821260864992"><ele>304.0</ele><time>2026-04-10T14:45:57Z</time></trkpt><trkpt lat="43.647973623112755" lon="11.834822716416744"><ele>304.0</ele><time>2026-04-10T14:45:58Z</time></trkpt><trkpt lat="43.64775214501974" lon="11.834840990442752"><ele>303.3333333333333</ele><time>2026-04-10T14:45:59Z</time></trkpt><trkpt lat="43.64752390926301" lon="11.834865123624716"><ele>302.6666666666667</ele><time>2026-04-10T14:46:00Z</time></trkpt><trkpt lat="43.64730584116147" lon="11.834884720259312"><ele>302.0</ele><time>2026-04-10T14:46:01Z</time></trkpt><trkpt lat="43.64709981667758" lon="11.834906095671103"><ele>301.33333333333337</ele><time>2026-04-10T14:46:02Z</time></trkpt><trkpt lat="43.64689748645448" lon="11.834927705489038"><ele>300.6666666666667</ele><time>2026-04-10T14:46:03Z</time></trkpt><trkpt lat="43.64670171812243" lon="11.834945557208945"><ele>300.0</ele><time>2026-04-10T14:46:04Z</time></trkpt><trkpt lat="43.64651546688498" lon="11.834961789071908"><ele>300.0</ele><time>2026-04-10T14:46:05Z</time></trkpt><trkpt lat="43.64633467906146" lon="11.834979120469777"><ele>300.0</ele><time>2026-04-10T14:46:06.001Z</time></trkpt><trkpt lat="43.64615604281113" lon="11.834995334600114"><ele>300.0</ele><time>2026-04-10T14:46:07.001Z</time></trkpt><trkpt lat="43.64598188709712" lon="11.83501162981882"><ele>301.3333333333333</ele><time>2026-04-10T14:46:08.001Z</time></trkpt><trkpt lat="43.645810635304635" lon="11.835028226656485"><ele>302.66666666666663</ele><time>2026-04-10T14:46:09.001Z</time></trkpt><trkpt lat="43.64564282435188" lon="11.83504488551409"><ele>304.0</ele><time>2026-04-10T14:46:10.001Z</time></trkpt><trkpt lat="43.645478875624896" lon="11.835058877428631"><ele>304.0</ele><time>2026-04-10T14:46:11.001Z</time></trkpt><trkpt lat="43.64532043379636" lon="11.835068904792472"><ele>304.0</ele><time>2026-04-10T14:46:12.001Z</time></trkpt><trkpt lat="43.64516450036931" lon="11.835080097758986"><ele>304.0</ele><time>2026-04-10T14:46:13.001Z</time></trkpt><trkpt lat="43.64501230272787" lon="11.835093957937339"><ele>304.0</ele><time>2026-04-10T14:46:14.001Z</time></trkpt><trkpt lat="43.644865937516755" lon="11.835109815869867"><ele>304.0</ele><time>2026-04-10T14:46:15.001Z</time></trkpt><trkpt lat="43.644723768781894" lon="11.83512385752809"><ele>304.0</ele><time>2026-04-10T14:46:16.001Z</time></trkpt><trkpt lat="43.64459185169533" lon="11.835134964752674"><ele>304.0</ele><time>2026-04-10T14:46:17.001Z</time></trkpt><trkpt lat="43.64446389769734" lon="11.835149623418685"><ele>304.8</ele><time>2026-04-10T14:46:18.001Z</time></trkpt><trkpt lat="43.6443415405324" lon="11.835164983510268"><ele>305.59999999999997</ele><time>2026-04-10T14:46:19.001Z</time></trkpt><trkpt lat="43.644238900282176" lon="11.835181790842318"><ele>306.4</ele><time>2026-04-10T14:46:20.001Z</time></trkpt><trkpt lat="43.64414433684333" lon="11.835203065222588"><ele>307.2</ele><time>2026-04-10T14:46:21.001Z</time></trkpt><trkpt lat="43.64404735364272" lon="11.83523540507597"><ele>308.0</ele><time>2026-04-10T14:46:22.001Z</time></trkpt><trkpt lat="43.64395394904322" lon="11.835274743084733"><ele>308.0</ele><time>2026-04-10T14:46:23.001Z</time></trkpt><trkpt lat="43.64386058765245" lon="11.83532001293179"><ele>308.0</ele><time>2026-04-10T14:46:24.001Z</time></trkpt><trkpt lat="43.64375698460772" lon="11.835374306370399"><ele>308.0</ele><time>2026-04-10T14:46:25.001Z</time></trkpt><trkpt lat="43.64365060639753" lon="11.835430388162832"><ele>308.0</ele><time>2026-04-10T14:46:26.001Z</time></trkpt><trkpt lat="43.643549893750695" lon="11.835485036099913"><ele>308.0</ele><time>2026-04-10T14:46:27.001Z</time></trkpt><trkpt lat="43.64345372465913" lon="11.835540539023851"><ele>307.33333333333337</ele><time>2026-04-10T14:46:28.001Z</time></trkpt><trkpt lat="43.64336050088194" lon="11.835592732834078"><ele>306.6666666666667</ele><time>2026-04-10T14:46:29.001Z</time></trkpt><trkpt lat="43.64327812410915" lon="11.83564096339387"><ele>306.0</ele><time>2026-04-10T14:46:30.001Z</time></trkpt><trkpt lat="43.64320707405901" lon="11.835680386643599"><ele>305.3333333333333</ele><time>2026-04-10T14:46:31.001Z</time></trkpt><trkpt lat="43.64314320694167" lon="11.835714533219333"><ele>304.66666666666663</ele><time>2026-04-10T14:46:32.001Z</time></trkpt><trkpt lat="43.64308415032231" lon="11.835748622350746"><ele>304.0</ele><time>2026-04-10T14:46:33.001Z</time></trkpt><trkpt lat="43.642974579692904" lon="11.8358071958555"><ele>304.0</ele><time>2026-04-10T14:46:35.001Z</time></trkpt><trkpt lat="43.642876722775526" lon="11.835860342938545"><ele>304.0</ele><time>2026-04-10T14:46:37.001Z</time></trkpt><trkpt lat="43.642786087091785" lon="11.835907251106953"><ele>304.0</ele><time>2026-04-10T14:46:39.001Z</time></trkpt><trkpt lat="43.64266176691448" lon="11.835977584089168"><ele>304.0</ele><time>2026-04-10T14:46:41.001Z</time></trkpt><trkpt lat="43.642585879922116" lon="11.83603788709442"><ele>304.0</ele><time>2026-04-10T14:46:42.001Z</time></trkpt><trkpt lat="43.64251135476536" lon="11.836099869665155"><ele>304.2</ele><time>2026-04-10T14:46:43.001Z</time></trkpt><trkpt lat="43.64243752921678" lon="11.836155275515535"><ele>304.4</ele><time>2026-04-10T14:46:44.001Z</time></trkpt><trkpt lat="43.642365098303024" lon="11.83620482066256"><ele>304.6</ele><time>2026-04-10T14:46:45.001Z</time></trkpt><trkpt lat="43.642268030481446" lon="11.83626989268818"><ele>304.8</ele><time>2026-04-10T14:46:47.001Z</time></trkpt><trkpt lat="43.642189354960465" lon="11.83632778025963"><ele>305.0</ele><time>2026-04-10T14:46:50.001Z</time></trkpt><trkpt lat="43.64210266251713" lon="11.836395076686042"><ele>305.0</ele><time>2026-04-10T14:46:52.001Z</time></trkpt><trkpt lat="43.64203471338343" lon="11.83645162074855"><ele>305.0</ele><time>2026-04-10T14:46:53.001Z</time></trkpt><trkpt lat="43.64195495480258" lon="11.836516347099261"><ele>305.0</ele><time>2026-04-10T14:46:54.001Z</time></trkpt><trkpt lat="43.64187249151548" lon="11.836578623835804"><ele>305.0</ele><time>2026-04-10T14:46:55.001Z</time></trkpt><trkpt lat="43.6417942649568" lon="11.836636815242867"><ele>305.0</ele><time>2026-04-10T14:46:56.001Z</time></trkpt><trkpt lat="43.641709503159014" lon="11.836697278352403"><ele>305.2</ele><time>2026-04-10T14:46:57.001Z</time></trkpt><trkpt lat="43.641615757111175" lon="11.83676225095525"><ele>305.4</ele><time>2026-04-10T14:46:58.001Z</time></trkpt><trkpt lat="43.64151662088702" lon="11.836831064834723"><ele>305.6</ele><time>2026-04-10T14:46:59.001Z</time></trkpt><trkpt lat="43.64141847217748" lon="11.836898066203142"><ele>305.8</ele><time>2026-04-10T14:47:00.001Z</time></trkpt><trkpt lat="43.6413216202814" lon="11.836962520937627"><ele>306.0</ele><time>2026-04-10T14:47:01.002Z</time></trkpt><trkpt lat="43.64122185722485" lon="11.837026616916075"><ele>305.0</ele><time>2026-04-10T14:47:02.002Z</time></trkpt><trkpt lat="43.64110848514789" lon="11.837095947143425"><ele>304.0</ele><time>2026-04-10T14:47:03.002Z</time></trkpt><trkpt lat="43.640974729324874" lon="11.837170506413651"><ele>303.0</ele><time>2026-04-10T14:47:04.002Z</time></trkpt><trkpt lat="43.64081999798242" lon="11.837247559248443"><ele>302.0</ele><time>2026-04-10T14:47:05.002Z</time></trkpt><trkpt lat="43.64065827144218" lon="11.837324108301646"><ele>302.0</ele><time>2026-04-10T14:47:06.002Z</time></trkpt><trkpt lat="43.640493710405586" lon="11.837402478773203"><ele>302.0</ele><time>2026-04-10T14:47:07.002Z</time></trkpt><trkpt lat="43.640324194708555" lon="11.837483752839713"><ele>302.0</ele><time>2026-04-10T14:47:08.002Z</time></trkpt><trkpt lat="43.64015804615471" lon="11.8375639651004"><ele>302.0</ele><time>2026-04-10T14:47:09.002Z</time></trkpt><trkpt lat="43.639995596676286" lon="11.837639634300206"><ele>302.0</ele><time>2026-04-10T14:47:10.002Z</time></trkpt><trkpt lat="43.639827949574865" lon="11.8377214633582"><ele>302.0</ele><time>2026-04-10T14:47:11.002Z</time></trkpt><trkpt lat="43.63964827020306" lon="11.837812801516181"><ele>301.33333333333337</ele><time>2026-04-10T14:47:12.002Z</time></trkpt><trkpt lat="43.639457218392735" lon="11.837904291107197"><ele>300.6666666666667</ele><time>2026-04-10T14:47:13.002Z</time></trkpt><trkpt lat="43.63925380789164" lon="11.837992027766125"><ele>300.0</ele><time>2026-04-10T14:47:14.002Z</time></trkpt><trkpt lat="43.63903402382607" lon="11.838058296073696"><ele>300.0</ele><time>2026-04-10T14:47:15.002Z</time></trkpt><trkpt lat="43.63880163519115" lon="11.83816272354344"><ele>300.0</ele><time>2026-04-10T14:47:16.002Z</time></trkpt><trkpt lat="43.63857415201565" lon="11.838266261340353"><ele>299.5</ele><time>2026-04-10T14:47:17.002Z</time></trkpt><trkpt lat="43.63835169539384" lon="11.838380448692698"><ele>299.0</ele><time>2026-04-10T14:47:18.002Z</time></trkpt><trkpt lat="43.63812919776018" lon="11.838478922528653"><ele>301.33333333333337</ele><time>2026-04-10T14:47:19.002Z</time></trkpt><trkpt lat="43.63792559344633" lon="11.838572757330962"><ele>303.6666666666667</ele><time>2026-04-10T14:47:20.002Z</time></trkpt><trkpt lat="43.63773273405887" lon="11.83867063545805"><ele>306.0</ele><time>2026-04-10T14:47:21.002Z</time></trkpt><trkpt lat="43.63754569801882" lon="11.838772132222877"><ele>306.0</ele><time>2026-04-10T14:47:22.002Z</time></trkpt><trkpt lat="43.63736556709201" lon="11.838873962892709"><ele>306.0</ele><time>2026-04-10T14:47:23.002Z</time></trkpt><trkpt lat="43.637190167218776" lon="11.83897649906763"><ele>306.0</ele><time>2026-04-10T14:47:24.002Z</time></trkpt><trkpt lat="43.637012450985054" lon="11.839064388992435"><ele>305.0</ele><time>2026-04-10T14:47:25Z</time></trkpt><trkpt lat="43.63683955838519" lon="11.83913098669213"><ele>304.0</ele><time>2026-04-10T14:47:26Z</time></trkpt><trkpt lat="43.636667403675624" lon="11.839181017234516"><ele>303.0</ele><time>2026-04-10T14:47:27Z</time></trkpt><trkpt lat="43.63649178706332" lon="11.839229986410421"><ele>303.0</ele><time>2026-04-10T14:47:28Z</time></trkpt><trkpt lat="43.636313520088684" lon="11.839287770773792"><ele>303.0</ele><time>2026-04-10T14:47:29Z</time></trkpt><trkpt lat="43.63613631443687" lon="11.83935838942597"><ele>303.0</ele><time>2026-04-10T14:47:30Z</time></trkpt><trkpt lat="43.63594955154084" lon="11.83943770380935"><ele>306.6666666666667</ele><time>2026-04-10T14:47:31Z</time></trkpt><trkpt lat="43.63576530677798" lon="11.839529903528566"><ele>310.33333333333337</ele><time>2026-04-10T14:47:32Z</time></trkpt><trkpt lat="43.6355926198348" lon="11.83963677429366"><ele>314.0</ele><time>2026-04-10T14:47:33Z</time></trkpt><trkpt lat="43.63542934537694" lon="11.83975615979652"><ele>314.0</ele><time>2026-04-10T14:47:34Z</time></trkpt><trkpt lat="43.63527437410691" lon="11.839890718912264"><ele>314.0</ele><time>2026-04-10T14:47:35Z</time></trkpt><trkpt lat="43.635127703174845" lon="11.840036532837702"><ele>314.0</ele><time>2026-04-10T14:47:36Z</time></trkpt><trkpt lat="43.634988077092295" lon="11.840196475376976"><ele>314.0</ele><time>2026-04-10T14:47:37Z</time></trkpt><trkpt lat="43.63486498868909" lon="11.840362390410473"><ele>314.0</ele><time>2026-04-10T14:47:38Z</time></trkpt><trkpt lat="43.63474288756204" lon="11.840528224720732"><ele>314.0</ele><time>2026-04-10T14:47:39Z</time></trkpt><trkpt lat="43.634621941596386" lon="11.840693315789"><ele>314.0</ele><time>2026-04-10T14:47:40Z</time></trkpt><trkpt lat="43.634496498664646" lon="11.840863412734079"><ele>314.0</ele><time>2026-04-10T14:47:41Z</time></trkpt><trkpt lat="43.6343730134389" lon="11.841040621286753"><ele>314.0</ele><time>2026-04-10T14:47:42Z</time></trkpt><trkpt lat="43.634250262132575" lon="11.841213156167539"><ele>312.0</ele><time>2026-04-10T14:47:43Z</time></trkpt><trkpt lat="43.63412779266108" lon="11.841388268677575"><ele>310.0</ele><time>2026-04-10T14:47:44Z</time></trkpt><trkpt lat="43.63401755077275" lon="11.841572693426121"><ele>308.0</ele><time>2026-04-10T14:47:45Z</time></trkpt><trkpt lat="43.63393111040388" lon="11.84177509020585"><ele>311.33333333333337</ele><time>2026-04-10T14:47:46Z</time></trkpt><trkpt lat="43.633859805518796" lon="11.841988534891891"><ele>314.6666666666667</ele><time>2026-04-10T14:47:47Z</time></trkpt><trkpt lat="43.63378756459423" lon="11.842204379260888"><ele>318.0</ele><time>2026-04-10T14:47:48Z</time></trkpt><trkpt lat="43.633709335190254" lon="11.842417075097636"><ele>311.3333333333333</ele><time>2026-04-10T14:47:49Z</time></trkpt><trkpt lat="43.63362476588067" lon="11.842633858935127"><ele>304.66666666666663</ele><time>2026-04-10T14:47:50Z</time></trkpt><trkpt lat="43.633547987675804" lon="11.842852509731065"><ele>298.0</ele><time>2026-04-10T14:47:51Z</time></trkpt><trkpt lat="43.633471350812385" lon="11.843060239108908"><ele>298.0</ele><time>2026-04-10T14:47:52Z</time></trkpt><trkpt lat="43.63339382698649" lon="11.843264862180707"><ele>298.0</ele><time>2026-04-10T14:47:53Z</time></trkpt><trkpt lat="43.63332102515331" lon="11.843467626911275"><ele>298.0</ele><time>2026-04-10T14:47:54Z</time></trkpt><trkpt lat="43.633249468552194" lon="11.84367097017413"><ele>298.0</ele><time>2026-04-10T14:47:55Z</time></trkpt><trkpt lat="43.63317638624213" lon="11.843876825018587"><ele>298.0</ele><time>2026-04-10T14:47:56Z</time></trkpt><trkpt lat="43.63310147732691" lon="11.844086502425109"><ele>298.0</ele><time>2026-04-10T14:47:57Z</time></trkpt><trkpt lat="43.63302806756201" lon="11.844305020733055"><ele>299.3333333333333</ele><time>2026-04-10T14:47:58Z</time></trkpt><trkpt lat="43.63296439553755" lon="11.844532709311803"><ele>300.6666666666667</ele><time>2026-04-10T14:47:59Z</time></trkpt><trkpt lat="43.63292060842377" lon="11.844759579668084"><ele>302.0</ele><time>2026-04-10T14:48:00Z</time></trkpt><trkpt lat="43.632905176776006" lon="11.845001607499718"><ele>302.33333333333337</ele><time>2026-04-10T14:48:01Z</time></trkpt><trkpt lat="43.632914026650205" lon="11.845267004982155"><ele>302.6666666666667</ele><time>2026-04-10T14:48:02Z</time></trkpt><trkpt lat="43.63294487641334" lon="11.845552378990927"><ele>303.0</ele><time>2026-04-10T14:48:03Z</time></trkpt><trkpt lat="43.63299466003967" lon="11.845856453657689"><ele>302.5</ele><time>2026-04-10T14:48:04Z</time></trkpt><trkpt lat="43.63305180190538" lon="11.846173945694543"><ele>302.0</ele><time>2026-04-10T14:48:05Z</time></trkpt><trkpt lat="43.633114769208824" lon="11.84650814915869"><ele>301.5</ele><time>2026-04-10T14:48:06Z</time></trkpt><trkpt lat="43.63318421644904" lon="11.846863434681495"><ele>301.0</ele><time>2026-04-10T14:48:07Z</time></trkpt><trkpt lat="43.63322427013444" lon="11.847244189669064"><ele>301.0</ele><time>2026-04-10T14:48:08.001Z</time></trkpt><trkpt lat="43.633284454719785" lon="11.847623123999034"><ele>301.0</ele><time>2026-04-10T14:48:09.001Z</time></trkpt><trkpt lat="43.6333454703009" lon="11.847992758517295"><ele>300.0</ele><time>2026-04-10T14:48:10.001Z</time></trkpt><trkpt lat="43.63340578292781" lon="11.848364500695185"><ele>299.0</ele><time>2026-04-10T14:48:11.001Z</time></trkpt><trkpt lat="43.63346619748162" lon="11.848742044060097"><ele>297.5</ele><time>2026-04-10T14:48:12.016Z</time></trkpt><trkpt lat="43.63352634887983" lon="11.8491166530875"><ele>296.0</ele><time>2026-04-10T14:48:13.015Z</time></trkpt><trkpt lat="43.63358447870743" lon="11.849475033760665"><ele>296.0</ele><time>2026-04-10T14:48:14.001Z</time></trkpt><trkpt lat="43.63362198279947" lon="11.849705093300742"><ele>296.0</ele><time>2026-04-10T14:48:15.001Z</time></trkpt><trkpt lat="43.63366589050051" lon="11.850014824434103"><ele>296.0</ele><time>2026-04-10T14:48:16.001Z</time></trkpt><trkpt lat="43.63371524915621" lon="11.850325357203992"><ele>303.5</ele><time>2026-04-10T14:48:17.001Z</time></trkpt><trkpt lat="43.63374090591411" lon="11.850640237190516"><ele>311.0</ele><time>2026-04-10T14:48:18.001Z</time></trkpt><trkpt lat="43.63373681803947" lon="11.850956660531194"><ele>311.0</ele><time>2026-04-10T14:48:19.001Z</time></trkpt><trkpt lat="43.633729420268494" lon="11.851266208058176"><ele>311.0</ele><time>2026-04-10T14:48:20.001Z</time></trkpt><trkpt lat="43.633706654801074" lon="11.851570058691376"><ele>311.0</ele><time>2026-04-10T14:48:21.001Z</time></trkpt><trkpt lat="43.63366881660553" lon="11.851867917353953"><ele>308.6666666666667</ele><time>2026-04-10T14:48:22.001Z</time></trkpt><trkpt lat="43.633614139453314" lon="11.852161161592669"><ele>306.3333333333333</ele><time>2026-04-10T14:48:23.001Z</time></trkpt><trkpt lat="43.63354623753503" lon="11.852453870958742"><ele>304.0</ele><time>2026-04-10T14:48:24.001Z</time></trkpt><trkpt lat="43.63345952649676" lon="11.852738780778544"><ele>304.0</ele><time>2026-04-10T14:48:25.001Z</time></trkpt><trkpt lat="43.63336150340647" lon="11.85300621020639"><ele>304.0</ele><time>2026-04-10T14:48:26.001Z</time></trkpt><trkpt lat="43.63326566538922" lon="11.853273915146"><ele>304.0</ele><time>2026-04-10T14:48:27.001Z</time></trkpt><trkpt lat="43.63313653383801" lon="11.853511489614394"><ele>303.0</ele><time>2026-04-10T14:48:28.001Z</time></trkpt><trkpt lat="43.633000603958244" lon="11.853738265045868"><ele>302.0</ele><time>2026-04-10T14:48:29.001Z</time></trkpt><trkpt lat="43.63285599979611" lon="11.853953721919922"><ele>301.0</ele><time>2026-04-10T14:48:30.001Z</time></trkpt><trkpt lat="43.63270080868151" lon="11.854156118043871"><ele>302.66666666666663</ele><time>2026-04-10T14:48:31.001Z</time></trkpt><trkpt lat="43.632527964586586" lon="11.854350461473905"><ele>304.3333333333333</ele><time>2026-04-10T14:48:32.001Z</time></trkpt><trkpt lat="43.632343962630195" lon="11.854528354595718"><ele>306.0</ele><time>2026-04-10T14:48:33.001Z</time></trkpt><trkpt lat="43.632150251806415" lon="11.854693872431248"><ele>306.0</ele><time>2026-04-10T14:48:34.001Z</time></trkpt><trkpt lat="43.63198087331568" lon="11.854897314322187"><ele>306.0</ele><time>2026-04-10T14:48:35.001Z</time></trkpt><trkpt lat="43.631726704857904" lon="11.854961647664942"><ele>302.0</ele><time>2026-04-10T14:48:36.001Z</time></trkpt><trkpt lat="43.63150053544884" lon="11.855057725667722"><ele>298.0</ele><time>2026-04-10T14:48:37.001Z</time></trkpt><trkpt lat="43.63128050179627" lon="11.855128358703793"><ele>303.3333333333333</ele><time>2026-04-10T14:48:38.001Z</time></trkpt><trkpt lat="43.631073418905984" lon="11.855176471267466"><ele>308.6666666666667</ele><time>2026-04-10T14:48:39.001Z</time></trkpt><trkpt lat="43.63086437159944" lon="11.855225209990444"><ele>314.0</ele><time>2026-04-10T14:48:40.001Z</time></trkpt><trkpt lat="43.6306563389044" lon="11.855265229197919"><ele>314.0</ele><time>2026-04-10T14:48:41.001Z</time></trkpt><trkpt lat="43.63044385915531" lon="11.855307205793778"><ele>314.0</ele><time>2026-04-10T14:48:42.001Z</time></trkpt><trkpt lat="43.63022183753158" lon="11.855346012403343"><ele>314.0</ele><time>2026-04-10T14:48:43.001Z</time></trkpt><trkpt lat="43.62999934436306" lon="11.855366415557242"><ele>315.33333333333337</ele><time>2026-04-10T14:48:44.001Z</time></trkpt><trkpt lat="43.62977664324865" lon="11.855347777782702"><ele>316.6666666666667</ele><time>2026-04-10T14:48:45.001Z</time></trkpt><trkpt lat="43.62956065899649" lon="11.855278988770262"><ele>318.0</ele><time>2026-04-10T14:48:46.001Z</time></trkpt><trkpt lat="43.62935172518372" lon="11.8551839154192"><ele>312.6666666666667</ele><time>2026-04-10T14:48:47.001Z</time></trkpt><trkpt lat="43.629155084552174" lon="11.855115280831944"><ele>307.33333333333337</ele><time>2026-04-10T14:48:48.001Z</time></trkpt><trkpt lat="43.62896904856542" lon="11.855045259611584"><ele>302.0</ele><time>2026-04-10T14:48:49.001Z</time></trkpt><trkpt lat="43.628793913238304" lon="11.85496999741985"><ele>302.33333333333337</ele><time>2026-04-10T14:48:50.001Z</time></trkpt><trkpt lat="43.62863346084845" lon="11.854870127410093"><ele>302.6666666666667</ele><time>2026-04-10T14:48:51.001Z</time></trkpt><trkpt lat="43.62849552402514" lon="11.85473236462725"><ele>303.0</ele><time>2026-04-10T14:48:52.001Z</time></trkpt><trkpt lat="43.62836729496265" lon="11.854555225061421"><ele>303.0</ele><time>2026-04-10T14:48:53.001Z</time></trkpt><trkpt lat="43.62823861060173" lon="11.854364594506897"><ele>303.0</ele><time>2026-04-10T14:48:54.001Z</time></trkpt><trkpt lat="43.62810542334816" lon="11.854169487747171"><ele>303.0</ele><time>2026-04-10T14:48:55.001Z</time></trkpt><trkpt lat="43.62796704427165" lon="11.853969151608117"><ele>305.0</ele><time>2026-04-10T14:48:56.001Z</time></trkpt><trkpt lat="43.62782716366532" lon="11.853769584621428"><ele>307.0</ele><time>2026-04-10T14:48:57.001Z</time></trkpt><trkpt lat="43.627688551248255" lon="11.853568619609142"><ele>309.0</ele><time>2026-04-10T14:48:58.001Z</time></trkpt><trkpt lat="43.62755224928388" lon="11.853366164797958"><ele>305.0</ele><time>2026-04-10T14:48:59.001Z</time></trkpt><trkpt lat="43.62741446335753" lon="11.853172766025953"><ele>301.0</ele><time>2026-04-10T14:49:00.001Z</time></trkpt><trkpt lat="43.62726305231381" lon="11.85298862927685"><ele>297.0</ele><time>2026-04-10T14:49:01.002Z</time></trkpt><trkpt lat="43.62709881648625" lon="11.852810923641748"><ele>297.6666666666667</ele><time>2026-04-10T14:49:02.002Z</time></trkpt><trkpt lat="43.626926540273175" lon="11.852648533043466"><ele>298.33333333333337</ele><time>2026-04-10T14:49:03.002Z</time></trkpt><trkpt lat="43.62674490407091" lon="11.852494029925708"><ele>299.0</ele><time>2026-04-10T14:49:04.002Z</time></trkpt><trkpt lat="43.62654834178341" lon="11.852353027439458"><ele>299.0</ele><time>2026-04-10T14:49:05.002Z</time></trkpt><trkpt lat="43.626336373461925" lon="11.852227183347468"><ele>299.0</ele><time>2026-04-10T14:49:06.002Z</time></trkpt><trkpt lat="43.62611818834024" lon="11.85211450922749"><ele>305.5</ele><time>2026-04-10T14:49:07.002Z</time></trkpt><trkpt lat="43.625895863636906" lon="11.85201114191371"><ele>312.0</ele><time>2026-04-10T14:49:08.002Z</time></trkpt><trkpt lat="43.62567252439656" lon="11.85190947973394"><ele>312.0</ele><time>2026-04-10T14:49:09.002Z</time></trkpt><trkpt lat="43.625448762285515" lon="11.851806108857508"><ele>312.0</ele><time>2026-04-10T14:49:10.002Z</time></trkpt><trkpt lat="43.62522626602005" lon="11.85170607086063"><ele>304.5</ele><time>2026-04-10T14:49:11.002Z</time></trkpt><trkpt lat="43.625008007660256" lon="11.851608402345153"><ele>297.0</ele><time>2026-04-10T14:49:12.002Z</time></trkpt><trkpt lat="43.62479032109437" lon="11.85151571689353"><ele>297.0</ele><time>2026-04-10T14:49:13.002Z</time></trkpt><trkpt lat="43.62457232696887" lon="11.851436856130352"><ele>297.0</ele><time>2026-04-10T14:49:14.002Z</time></trkpt><trkpt lat="43.62435014163733" lon="11.851381187722842"><ele>298.5</ele><time>2026-04-10T14:49:15.002Z</time></trkpt><trkpt lat="43.62412607130019" lon="11.851340920124347"><ele>300.0</ele><time>2026-04-10T14:49:16.002Z</time></trkpt><trkpt lat="43.62390087821747" lon="11.85131775811942"><ele>300.0</ele><time>2026-04-10T14:49:17.002Z</time></trkpt><trkpt lat="43.62367626693965" lon="11.851315794770576"><ele>300.0</ele><time>2026-04-10T14:49:18.002Z</time></trkpt><trkpt lat="43.623453160196775" lon="11.851328965187387"><ele>300.0</ele><time>2026-04-10T14:49:19.002Z</time></trkpt><trkpt lat="43.623236607789124" lon="11.851364542273634"><ele>299.0</ele><time>2026-04-10T14:49:20.002Z</time></trkpt><trkpt lat="43.62302234953523" lon="11.851413779336191"><ele>298.0</ele><time>2026-04-10T14:49:21.002Z</time></trkpt><trkpt lat="43.62281210720613" lon="11.851480161441533"><ele>297.0</ele><time>2026-04-10T14:49:22.002Z</time></trkpt><trkpt lat="43.622607088454394" lon="11.85156032252359"><ele>295.6666666666667</ele><time>2026-04-10T14:49:23.002Z</time></trkpt><trkpt lat="43.622407252339926" lon="11.851652554894748"><ele>294.33333333333337</ele><time>2026-04-10T14:49:24.002Z</time></trkpt><trkpt lat="43.62221193754617" lon="11.851762761204279"><ele>293.0</ele><time>2026-04-10T14:49:25.002Z</time></trkpt><trkpt lat="43.62202224357075" lon="11.851892864722751"><ele>292.0</ele><time>2026-04-10T14:49:26.002Z</time></trkpt><trkpt lat="43.62184339964375" lon="11.852040688228536"><ele>291.0</ele><time>2026-04-10T14:49:27.002Z</time></trkpt><trkpt lat="43.62167073354776" lon="11.852203657698391"><ele>290.0</ele><time>2026-04-10T14:49:28.002Z</time></trkpt><trkpt lat="43.62150203632134" lon="11.852373571322737"><ele>290.0</ele><time>2026-04-10T14:49:29.002Z</time></trkpt><trkpt lat="43.621343630220764" lon="11.852555600508456"><ele>290.0</ele><time>2026-04-10T14:49:30.002Z</time></trkpt><trkpt lat="43.62119299288252" lon="11.852746173134252"><ele>290.0</ele><time>2026-04-10T14:49:31Z</time></trkpt><trkpt lat="43.62104801355371" lon="11.852950557419348"><ele>289.6666666666667</ele><time>2026-04-10T14:49:32Z</time></trkpt><trkpt lat="43.62091288106387" lon="11.853168080312496"><ele>289.3333333333333</ele><time>2026-04-10T14:49:33Z</time></trkpt><trkpt lat="43.62078408766647" lon="11.853395757877655"><ele>289.0</ele><time>2026-04-10T14:49:34Z</time></trkpt><trkpt lat="43.62065937269218" lon="11.85362500252275"><ele>289.0</ele><time>2026-04-10T14:49:35Z</time></trkpt><trkpt lat="43.62053808776619" lon="11.853857825135929"><ele>289.0</ele><time>2026-04-10T14:49:36Z</time></trkpt><trkpt lat="43.62041839180064" lon="11.854094084580508"><ele>289.0</ele><time>2026-04-10T14:49:37Z</time></trkpt><trkpt lat="43.620300127924324" lon="11.85433423004648"><ele>288.3333333333333</ele><time>2026-04-10T14:49:38Z</time></trkpt><trkpt lat="43.620180295501804" lon="11.854576471209592"><ele>287.6666666666667</ele><time>2026-04-10T14:49:39Z</time></trkpt><trkpt lat="43.62006057034383" lon="11.854817657819071"><ele>287.0</ele><time>2026-04-10T14:49:40Z</time></trkpt><trkpt lat="43.619938934884566" lon="11.855060695977816"><ele>288.6666666666667</ele><time>2026-04-10T14:49:41Z</time></trkpt><trkpt lat="43.619815554141205" lon="11.8553056887087"><ele>290.3333333333333</ele><time>2026-04-10T14:49:42Z</time></trkpt><trkpt lat="43.61969172334274" lon="11.855553611426522"><ele>292.0</ele><time>2026-04-10T14:49:43Z</time></trkpt><trkpt lat="43.619567370749564" lon="11.855801101836093"><ele>290.3333333333333</ele><time>2026-04-10T14:49:44Z</time></trkpt><trkpt lat="43.61944078050327" lon="11.856055349915502"><ele>288.6666666666667</ele><time>2026-04-10T14:49:45Z</time></trkpt><trkpt lat="43.619313563331474" lon="11.856311772182654"><ele>287.0</ele><time>2026-04-10T14:49:46Z</time></trkpt><trkpt lat="43.61918340050751" lon="11.856569406610657"><ele>288.5</ele><time>2026-04-10T14:49:47Z</time></trkpt><trkpt lat="43.619052204526604" lon="11.856826352355252"><ele>290.0</ele><time>2026-04-10T14:49:48Z</time></trkpt><trkpt lat="43.618920540937594" lon="11.857085757342741"><ele>290.0</ele><time>2026-04-10T14:49:49Z</time></trkpt><trkpt lat="43.61878770508601" lon="11.857346025075676"><ele>290.0</ele><time>2026-04-10T14:49:50Z</time></trkpt><trkpt lat="43.61865339972173" lon="11.857614381699277"><ele>288.0</ele><time>2026-04-10T14:49:51Z</time></trkpt><trkpt lat="43.618519480925634" lon="11.857887636865645"><ele>286.0</ele><time>2026-04-10T14:49:52Z</time></trkpt><trkpt lat="43.61838470824603" lon="11.858163168941223"><ele>286.0</ele><time>2026-04-10T14:49:53Z</time></trkpt><trkpt lat="43.61824720917468" lon="11.858438802085805"><ele>286.0</ele><time>2026-04-10T14:49:54Z</time></trkpt><trkpt lat="43.618106711519104" lon="11.858719497627108"><ele>290.0</ele><time>2026-04-10T14:49:55Z</time></trkpt><trkpt lat="43.617965446246764" lon="11.858999844716863"><ele>294.0</ele><time>2026-04-10T14:49:56Z</time></trkpt><trkpt lat="43.617823945538596" lon="11.859278852346948"><ele>291.0</ele><time>2026-04-10T14:49:57Z</time></trkpt><trkpt lat="43.61768902577883" lon="11.85955434900841"><ele>288.0</ele><time>2026-04-10T14:49:58Z</time></trkpt><trkpt lat="43.6175608087571" lon="11.859819802089374"><ele>288.0</ele><time>2026-04-10T14:49:59Z</time></trkpt><trkpt lat="43.61743827793099" lon="11.860074392731581"><ele>288.0</ele><time>2026-04-10T14:50:00Z</time></trkpt><trkpt lat="43.6173177199041" lon="11.860326592887168"><ele>288.0</ele><time>2026-04-10T14:50:01Z</time></trkpt><trkpt lat="43.61720237513617" lon="11.860573583504024"><ele>288.0</ele><time>2026-04-10T14:50:02Z</time></trkpt><trkpt lat="43.61708998447652" lon="11.860819887560078"><ele>288.0</ele><time>2026-04-10T14:50:03Z</time></trkpt><trkpt lat="43.61698010623521" lon="11.861064586844241"><ele>288.0</ele><time>2026-04-10T14:50:04Z</time></trkpt><trkpt lat="43.616877556706385" lon="11.861296450464497"><ele>288.0</ele><time>2026-04-10T14:50:05Z</time></trkpt><trkpt lat="43.61678354856886" lon="11.861513396736767"><ele>288.0</ele><time>2026-04-10T14:50:06Z</time></trkpt><trkpt lat="43.616689537724014" lon="11.861730238541172"><ele>288.0</ele><time>2026-04-10T14:50:07Z</time></trkpt><trkpt lat="43.61659824977112" lon="11.861945713093625"><ele>290.6666666666667</ele><time>2026-04-10T14:50:08Z</time></trkpt><trkpt lat="43.616510600483174" lon="11.862157190613205"><ele>293.33333333333337</ele><time>2026-04-10T14:50:09Z</time></trkpt><trkpt lat="43.616421777674525" lon="11.862367574949026"><ele>296.0</ele><time>2026-04-10T14:50:10Z</time></trkpt><trkpt lat="43.61633132380938" lon="11.862576013272147"><ele>295.6666666666667</ele><time>2026-04-10T14:50:11Z</time></trkpt><trkpt lat="43.616239768503185" lon="11.862782556785948"><ele>295.3333333333333</ele><time>2026-04-10T14:50:12Z</time></trkpt><trkpt lat="43.61614878742831" lon="11.86298639060292"><ele>295.0</ele><time>2026-04-10T14:50:13Z</time></trkpt><trkpt lat="43.61605642337799" lon="11.863182336136356"><ele>295.0</ele><time>2026-04-10T14:50:14Z</time></trkpt><trkpt lat="43.61596048993477" lon="11.86337147499581"><ele>295.0</ele><time>2026-04-10T14:50:15Z</time></trkpt><trkpt lat="43.615860369081545" lon="11.863554936634973"><ele>295.0</ele><time>2026-04-10T14:50:16Z</time></trkpt><trkpt lat="43.61575174796572" lon="11.863730756796196"><ele>298.3333333333333</ele><time>2026-04-10T14:50:17Z</time></trkpt><trkpt lat="43.615632595072896" lon="11.863899240026385"><ele>301.6666666666667</ele><time>2026-04-10T14:50:18Z</time></trkpt><trkpt lat="43.61549902891585" lon="11.864066638870288"><ele>305.0</ele><time>2026-04-10T14:50:19.001Z</time></trkpt><trkpt lat="43.615358839271515" lon="11.864225502244683"><ele>302.0</ele><time>2026-04-10T14:50:20.001Z</time></trkpt><trkpt lat="43.61521616976279" lon="11.864366180724753"><ele>299.0</ele><time>2026-04-10T14:50:21.001Z</time></trkpt><trkpt lat="43.615070511577194" lon="11.86449474686021"><ele>296.0</ele><time>2026-04-10T14:50:22.001Z</time></trkpt><trkpt lat="43.614922541851584" lon="11.864615189394796"><ele>296.0</ele><time>2026-04-10T14:50:23.001Z</time></trkpt><trkpt lat="43.61477038761498" lon="11.864722026327248"><ele>296.0</ele><time>2026-04-10T14:50:24.001Z</time></trkpt><trkpt lat="43.61461569332218" lon="11.864816761648825"><ele>296.0</ele><time>2026-04-10T14:50:25.001Z</time></trkpt><trkpt lat="43.61445955455869" lon="11.864899368890834"><ele>294.0</ele><time>2026-04-10T14:50:26.001Z</time></trkpt><trkpt lat="43.61430550425378" lon="11.864972019761627"><ele>292.0</ele><time>2026-04-10T14:50:27.001Z</time></trkpt><trkpt lat="43.61414787850604" lon="11.86502960890793"><ele>290.0</ele><time>2026-04-10T14:50:28.001Z</time></trkpt><trkpt lat="43.613989967624846" lon="11.865077011846424"><ele>290.0</ele><time>2026-04-10T14:50:29.001Z</time></trkpt><trkpt lat="43.61382717226418" lon="11.865112239142823"><ele>290.0</ele><time>2026-04-10T14:50:30.001Z</time></trkpt><trkpt lat="43.6136645418811" lon="11.86513667295308"><ele>290.0</ele><time>2026-04-10T14:50:31.001Z</time></trkpt><trkpt lat="43.61350159195802" lon="11.86514938033183"><ele>292.0</ele><time>2026-04-10T14:50:32.001Z</time></trkpt><trkpt lat="43.61333699675684" lon="11.865149271514728"><ele>294.0</ele><time>2026-04-10T14:50:33.001Z</time></trkpt><trkpt lat="43.61317057953403" lon="11.865141957576302"><ele>296.0</ele><time>2026-04-10T14:50:34.001Z</time></trkpt><trkpt lat="43.61299812716704" lon="11.865124616243062"><ele>293.33333333333337</ele><time>2026-04-10T14:50:35.001Z</time></trkpt><trkpt lat="43.6128106928122" lon="11.865102177123218"><ele>290.6666666666667</ele><time>2026-04-10T14:50:36.001Z</time></trkpt><trkpt lat="43.612621011621485" lon="11.865076719972075"><ele>288.0</ele><time>2026-04-10T14:50:37.001Z</time></trkpt><trkpt lat="43.61243353990329" lon="11.865051905143117"><ele>288.0</ele><time>2026-04-10T14:50:38.001Z</time></trkpt><trkpt lat="43.61224955191389" lon="11.865028156033592"><ele>288.0</ele><time>2026-04-10T14:50:39.001Z</time></trkpt><trkpt lat="43.612064356339545" lon="11.865007263548074"><ele>288.0</ele><time>2026-04-10T14:50:40.001Z</time></trkpt><trkpt lat="43.611879137841754" lon="11.864986238509312"><ele>287.0</ele><time>2026-04-10T14:50:41.001Z</time></trkpt><trkpt lat="43.61169248925351" lon="11.86496371792829"><ele>286.0</ele><time>2026-04-10T14:50:42.001Z</time></trkpt><trkpt lat="43.61150508315592" lon="11.864939844513557"><ele>285.0</ele><time>2026-04-10T14:50:43.001Z</time></trkpt><trkpt lat="43.611314917291615" lon="11.864917517447594"><ele>285.0</ele><time>2026-04-10T14:50:44.001Z</time></trkpt><trkpt lat="43.61112464332083" lon="11.864895799490858"><ele>285.0</ele><time>2026-04-10T14:50:45.001Z</time></trkpt><trkpt lat="43.61093537639223" lon="11.864873245720185"><ele>285.0</ele><time>2026-04-10T14:50:46.001Z</time></trkpt><trkpt lat="43.61074717727174" lon="11.864849874061587"><ele>285.0</ele><time>2026-04-10T14:50:47.001Z</time></trkpt><trkpt lat="43.61055764333589" lon="11.864827792098128"><ele>285.0</ele><time>2026-04-10T14:50:48.001Z</time></trkpt><trkpt lat="43.610367439002026" lon="11.864806070511603"><ele>285.0</ele><time>2026-04-10T14:50:49.001Z</time></trkpt><trkpt lat="43.610177808072166" lon="11.864782638501476"><ele>284.6666666666667</ele><time>2026-04-10T14:50:50.001Z</time></trkpt><trkpt lat="43.60998984821208" lon="11.864759882681975"><ele>284.33333333333337</ele><time>2026-04-10T14:50:51.001Z</time></trkpt><trkpt lat="43.60980514015639" lon="11.864737058084776"><ele>284.0</ele><time>2026-04-10T14:50:52.001Z</time></trkpt><trkpt lat="43.609622925265064" lon="11.864715010764726"><ele>284.33333333333337</ele><time>2026-04-10T14:50:53.001Z</time></trkpt><trkpt lat="43.60944392576578" lon="11.864694944041696"><ele>284.6666666666667</ele><time>2026-04-10T14:50:54.001Z</time></trkpt><trkpt lat="43.609264290650906" lon="11.864675602024743"><ele>285.0</ele><time>2026-04-10T14:50:55.001Z</time></trkpt><trkpt lat="43.609085197581024" lon="11.86465363736234"><ele>285.0</ele><time>2026-04-10T14:50:56.001Z</time></trkpt><trkpt lat="43.608907373503456" lon="11.864631435099936"><ele>285.0</ele><time>2026-04-10T14:50:57.001Z</time></trkpt><trkpt lat="43.60872805568019" lon="11.86461197120634"><ele>285.0</ele><time>2026-04-10T14:50:58.001Z</time></trkpt><trkpt lat="43.60855378104057" lon="11.86459615894024"><ele>287.3333333333333</ele><time>2026-04-10T14:50:59.001Z</time></trkpt><trkpt lat="43.608385041168894" lon="11.864583701070536"><ele>289.66666666666663</ele><time>2026-04-10T14:51:00.001Z</time></trkpt><trkpt lat="43.60822131015755" lon="11.864576178376987"><ele>292.0</ele><time>2026-04-10T14:51:01.001Z</time></trkpt><trkpt lat="43.60806444724589" lon="11.864576006147004"><ele>292.0</ele><time>2026-04-10T14:51:02.001Z</time></trkpt><trkpt lat="43.607913799669404" lon="11.864584324452062"><ele>292.0</ele><time>2026-04-10T14:51:03.001Z</time></trkpt><trkpt lat="43.60776654448739" lon="11.86460124250168"><ele>292.0</ele><time>2026-04-10T14:51:04.001Z</time></trkpt><trkpt lat="43.607625363413234" lon="11.864623651445777"><ele>292.0</ele><time>2026-04-10T14:51:05.001Z</time></trkpt><trkpt lat="43.607492430029225" lon="11.86464987174434"><ele>291.5</ele><time>2026-04-10T14:51:06.001Z</time></trkpt><trkpt lat="43.60737752931867" lon="11.864676699698773"><ele>291.0</ele><time>2026-04-10T14:51:07.001Z</time></trkpt><trkpt lat="43.607268207105406" lon="11.864708782814265"><ele>290.5</ele><time>2026-04-10T14:51:08.001Z</time></trkpt><trkpt lat="43.60715876288475" lon="11.864746493600164"><ele>290.0</ele><time>2026-04-10T14:51:09.002Z</time></trkpt><trkpt lat="43.60704059525148" lon="11.864788715478833"><ele>289.5</ele><time>2026-04-10T14:51:10.002Z</time></trkpt><trkpt lat="43.606913848459506" lon="11.864834795117257"><ele>289.0</ele><time>2026-04-10T14:51:11.002Z</time></trkpt><trkpt lat="43.6067763298304" lon="11.864880751452729"><ele>288.5</ele><time>2026-04-10T14:51:12.002Z</time></trkpt><trkpt lat="43.60664303309202" lon="11.864926324561077"><ele>288.0</ele><time>2026-04-10T14:51:13.002Z</time></trkpt><trkpt lat="43.60651985693089" lon="11.864966194060418"><ele>288.0</ele><time>2026-04-10T14:51:14.002Z</time></trkpt><trkpt lat="43.606402886393234" lon="11.86500617856884"><ele>288.0</ele><time>2026-04-10T14:51:15.002Z</time></trkpt><trkpt lat="43.6062787976713" lon="11.865048355340837"><ele>288.0</ele><time>2026-04-10T14:51:16.002Z</time></trkpt><trkpt lat="43.60614922290876" lon="11.865092989068136"><ele>288.0</ele><time>2026-04-10T14:51:17.002Z</time></trkpt><trkpt lat="43.60601558436956" lon="11.865135537749305"><ele>292.0</ele><time>2026-04-10T14:51:18.002Z</time></trkpt><trkpt lat="43.60587908744586" lon="11.865177327417483"><ele>296.0</ele><time>2026-04-10T14:51:19.002Z</time></trkpt><trkpt lat="43.60574770596702" lon="11.865219036217361"><ele>300.0</ele><time>2026-04-10T14:51:20.002Z</time></trkpt><trkpt lat="43.60562200400336" lon="11.865253950313967"><ele>304.0</ele><time>2026-04-10T14:51:21.002Z</time></trkpt><trkpt lat="43.60550162922129" lon="11.865287969150893"><ele>304.0</ele><time>2026-04-10T14:51:22.002Z</time></trkpt><trkpt lat="43.60538601833497" lon="11.865323747659165"><ele>304.0</ele><time>2026-04-10T14:51:23.002Z</time></trkpt><trkpt lat="43.60528176214993" lon="11.865356577744258"><ele>304.0</ele><time>2026-04-10T14:51:24.002Z</time></trkpt><trkpt lat="43.60518890585154" lon="11.865389220724449"><ele>304.0</ele><time>2026-04-10T14:51:25.002Z</time></trkpt><trkpt lat="43.605096527236" lon="11.865374869664324"><ele>304.0</ele><time>2026-04-10T14:51:26.002Z</time></trkpt><trkpt lat="43.60502520960206" lon="11.8654022072184"><ele>302.0</ele><time>2026-04-10T14:51:27.002Z</time></trkpt><trkpt lat="43.6049226675588" lon="11.865445960141466"><ele>300.0</ele><time>2026-04-10T14:51:29.002Z</time></trkpt><trkpt lat="43.60485906134352" lon="11.865475926914767"><ele>298.0</ele><time>2026-04-10T14:51:31.002Z</time></trkpt><trkpt lat="43.604776670131336" lon="11.865511613236686"><ele>296.0</ele><time>2026-04-10T14:51:36.002Z</time></trkpt><trkpt lat="43.60471453468195" lon="11.865544562739153"><ele>294.0</ele><time>2026-04-10T14:51:37Z</time></trkpt><trkpt lat="43.604621340010574" lon="11.865597957375977"><ele>292.0</ele><time>2026-04-10T14:51:38Z</time></trkpt><trkpt lat="43.60449758164339" lon="11.865659094996277"><ele>290.0</ele><time>2026-04-10T14:51:39Z</time></trkpt><trkpt lat="43.60435855328597" lon="11.86572773538131"><ele>288.0</ele><time>2026-04-10T14:51:40Z</time></trkpt><trkpt lat="43.604209709421724" lon="11.865801309673818"><ele>286.0</ele><time>2026-04-10T14:51:41Z</time></trkpt><trkpt lat="43.60405238204773" lon="11.865865501208638"><ele>286.0</ele><time>2026-04-10T14:51:42Z</time></trkpt><trkpt lat="43.603890845617606" lon="11.865903411949171"><ele>286.0</ele><time>2026-04-10T14:51:43Z</time></trkpt><trkpt lat="43.60372834922263" lon="11.865925963059565"><ele>286.0</ele><time>2026-04-10T14:51:44Z</time></trkpt><trkpt lat="43.60356732846629" lon="11.865949098317836"><ele>293.0</ele><time>2026-04-10T14:51:45Z</time></trkpt><trkpt lat="43.60340569788617" lon="11.865970208041658"><ele>300.0</ele><time>2026-04-10T14:51:46Z</time></trkpt><trkpt lat="43.603241893346585" lon="11.865996405738583"><ele>307.0</ele><time>2026-04-10T14:51:47Z</time></trkpt><trkpt lat="43.60307709579759" lon="11.866023343334323"><ele>307.0</ele><time>2026-04-10T14:51:48Z</time></trkpt><trkpt lat="43.60290949452386" lon="11.866059275625386"><ele>307.0</ele><time>2026-04-10T14:51:49Z</time></trkpt><trkpt lat="43.6027385726322" lon="11.866105787569897"><ele>307.0</ele><time>2026-04-10T14:51:50Z</time></trkpt><trkpt lat="43.60256576112245" lon="11.86615804030411"><ele>304.66666666666663</ele><time>2026-04-10T14:51:51Z</time></trkpt><trkpt lat="43.60239832675352" lon="11.86621714697914"><ele>302.3333333333333</ele><time>2026-04-10T14:51:52Z</time></trkpt><trkpt lat="43.60223681307456" lon="11.86627866542366"><ele>300.0</ele><time>2026-04-10T14:51:53Z</time></trkpt><trkpt lat="43.6020914877805" lon="11.866342859567375"><ele>298.3333333333333</ele><time>2026-04-10T14:51:54Z</time></trkpt><trkpt lat="43.601953481456896" lon="11.866415026593351"><ele>296.66666666666663</ele><time>2026-04-10T14:51:55Z</time></trkpt><trkpt lat="43.60181539673188" lon="11.866497879115263"><ele>295.0</ele><time>2026-04-10T14:51:56Z</time></trkpt><trkpt lat="43.60167616004812" lon="11.86659319944999"><ele>295.0</ele><time>2026-04-10T14:51:57Z</time></trkpt><trkpt lat="43.601527496269945" lon="11.866702519396357"><ele>295.0</ele><time>2026-04-10T14:51:58Z</time></trkpt><trkpt lat="43.60137653563565" lon="11.866819102505142"><ele>295.0</ele><time>2026-04-10T14:51:59Z</time></trkpt><trkpt lat="43.601221756152555" lon="11.86693511513811"><ele>295.0</ele><time>2026-04-10T14:52:00Z</time></trkpt><trkpt lat="43.60106937539672" lon="11.867046407212948"><ele>295.0</ele><time>2026-04-10T14:52:01Z</time></trkpt><trkpt lat="43.60092469342758" lon="11.867155405936497"><ele>295.0</ele><time>2026-04-10T14:52:02Z</time></trkpt><trkpt lat="43.60079014997054" lon="11.867264014992418"><ele>295.0</ele><time>2026-04-10T14:52:03Z</time></trkpt><trkpt lat="43.60066186300114" lon="11.867384407238006"><ele>295.0</ele><time>2026-04-10T14:52:04Z</time></trkpt><trkpt lat="43.60053869800494" lon="11.867529016217135"><ele>295.0</ele><time>2026-04-10T14:52:05Z</time></trkpt><trkpt lat="43.600419427622974" lon="11.867696109374537"><ele>293.3333333333333</ele><time>2026-04-10T14:52:06Z</time></trkpt><trkpt lat="43.6003017682258" lon="11.86787659280244"><ele>291.6666666666667</ele><time>2026-04-10T14:52:07Z</time></trkpt><trkpt lat="43.60018550016431" lon="11.868048744018138"><ele>290.0</ele><time>2026-04-10T14:52:08Z</time></trkpt><trkpt lat="43.600067860441875" lon="11.86821006708917"><ele>290.0</ele><time>2026-04-10T14:52:09Z</time></trkpt><trkpt lat="43.59995480325389" lon="11.868366406317865"><ele>290.0</ele><time>2026-04-10T14:52:10Z</time></trkpt><trkpt lat="43.59985400315648" lon="11.868526812358416"><ele>290.0</ele><time>2026-04-10T14:52:11Z</time></trkpt><trkpt lat="43.59977672806824" lon="11.868697770032277"><ele>289.0</ele><time>2026-04-10T14:52:12Z</time></trkpt><trkpt lat="43.599723212320924" lon="11.868895329412481"><ele>288.0</ele><time>2026-04-10T14:52:13Z</time></trkpt><trkpt lat="43.59969395671093" lon="11.869109865196215"><ele>287.0</ele><time>2026-04-10T14:52:14Z</time></trkpt><trkpt lat="43.59967608781098" lon="11.869352099638265"><ele>286.33333333333337</ele><time>2026-04-10T14:52:15Z</time></trkpt><trkpt lat="43.59966577903481" lon="11.869622339576207"><ele>285.6666666666667</ele><time>2026-04-10T14:52:16Z</time></trkpt><trkpt lat="43.59964943887635" lon="11.869900990656092"><ele>285.0</ele><time>2026-04-10T14:52:17Z</time></trkpt><trkpt lat="43.59962963726274" lon="11.870177567272933"><ele>287.6666666666667</ele><time>2026-04-10T14:52:18Z</time></trkpt><trkpt lat="43.59960664457821" lon="11.870455100452347"><ele>290.33333333333337</ele><time>2026-04-10T14:52:19.001Z</time></trkpt><trkpt lat="43.599581458314645" lon="11.870732191365875"><ele>293.0</ele><time>2026-04-10T14:52:20.001Z</time></trkpt><trkpt lat="43.59955472768835" lon="11.871009588090844"><ele>295.0</ele><time>2026-04-10T14:52:21.001Z</time></trkpt><trkpt lat="43.599527098959214" lon="11.871284526795488"><ele>297.0</ele><time>2026-04-10T14:52:22.001Z</time></trkpt><trkpt lat="43.59949837155372" lon="11.87155612522497"><ele>299.0</ele><time>2026-04-10T14:52:23.001Z</time></trkpt><trkpt lat="43.599458643377204" lon="11.871822005320478"><ele>291.33333333333337</ele><time>2026-04-10T14:52:24.001Z</time></trkpt><trkpt lat="43.59940008272345" lon="11.872064470050974"><ele>283.6666666666667</ele><time>2026-04-10T14:52:25.001Z</time></trkpt><trkpt lat="43.59934558259516" lon="11.872311620715822"><ele>276.0</ele><time>2026-04-10T14:52:26.001Z</time></trkpt><trkpt lat="43.599291559135125" lon="11.872562346452884"><ele>278.3333333333333</ele><time>2026-04-10T14:52:27.001Z</time></trkpt><trkpt lat="43.59924494391713" lon="11.87281955189019"><ele>280.66666666666663</ele><time>2026-04-10T14:52:28.001Z</time></trkpt><trkpt lat="43.599200126852466" lon="11.873079742990976"><ele>283.0</ele><time>2026-04-10T14:52:29.001Z</time></trkpt><trkpt lat="43.5991558437376" lon="11.873342140023288"><ele>287.0</ele><time>2026-04-10T14:52:30.001Z</time></trkpt><trkpt lat="43.59910822189478" lon="11.873598693154298"><ele>291.0</ele><time>2026-04-10T14:52:31.001Z</time></trkpt><trkpt lat="43.599048662014255" lon="11.873853288812386"><ele>295.0</ele><time>2026-04-10T14:52:32.001Z</time></trkpt><trkpt lat="43.598977739584875" lon="11.874104198854972"><ele>298.66666666666663</ele><time>2026-04-10T14:52:33.001Z</time></trkpt><trkpt lat="43.59890125834597" lon="11.87434511197011"><ele>302.3333333333333</ele><time>2026-04-10T14:52:34.001Z</time></trkpt><trkpt lat="43.59882786001229" lon="11.874581353742158"><ele>306.0</ele><time>2026-04-10T14:52:35.001Z</time></trkpt><trkpt lat="43.59876113610617" lon="11.874817408731325"><ele>306.0</ele><time>2026-04-10T14:52:36.001Z</time></trkpt><trkpt lat="43.598698571319346" lon="11.87504927958883"><ele>306.0</ele><time>2026-04-10T14:52:37.001Z</time></trkpt><trkpt lat="43.59862619482316" lon="11.87527767686728"><ele>306.0</ele><time>2026-04-10T14:52:38.001Z</time></trkpt><trkpt lat="43.59853870664073" lon="11.875489059437733"><ele>305.6666666666667</ele><time>2026-04-10T14:52:39.001Z</time></trkpt><trkpt lat="43.59844330104632" lon="11.875703179763832"><ele>305.33333333333337</ele><time>2026-04-10T14:52:40.001Z</time></trkpt><trkpt lat="43.59834579890779" lon="11.875919099049261"><ele>305.0</ele><time>2026-04-10T14:52:41.001Z</time></trkpt><trkpt lat="43.5982377657082" lon="11.876127352052572"><ele>305.0</ele><time>2026-04-10T14:52:42.001Z</time></trkpt><trkpt lat="43.598121213266516" lon="11.876325464950833"><ele>305.0</ele><time>2026-04-10T14:52:43.001Z</time></trkpt><trkpt lat="43.597992012115455" lon="11.876506284466066"><ele>305.0</ele><time>2026-04-10T14:52:44.001Z</time></trkpt><trkpt lat="43.59785780217444" lon="11.876678000688287"><ele>300.33333333333337</ele><time>2026-04-10T14:52:45.001Z</time></trkpt><trkpt lat="43.59773434605491" lon="11.876860483100957"><ele>295.6666666666667</ele><time>2026-04-10T14:52:46.001Z</time></trkpt><trkpt lat="43.59761762620077" lon="11.877061060219582"><ele>291.0</ele><time>2026-04-10T14:52:47.001Z</time></trkpt><trkpt lat="43.59750840725096" lon="11.87726596130524"><ele>291.0</ele><time>2026-04-10T14:52:48.001Z</time></trkpt><trkpt lat="43.59740125004057" lon="11.877461128544898"><ele>291.0</ele><time>2026-04-10T14:52:49.001Z</time></trkpt><trkpt lat="43.59729276912495" lon="11.877657191966088"><ele>291.0</ele><time>2026-04-10T14:52:50.001Z</time></trkpt><trkpt lat="43.59717692701529" lon="11.877851507295295"><ele>289.6666666666667</ele><time>2026-04-10T14:52:51.001Z</time></trkpt><trkpt lat="43.59704111889853" lon="11.87803647626515"><ele>288.33333333333337</ele><time>2026-04-10T14:52:52.001Z</time></trkpt><trkpt lat="43.59688936633352" lon="11.878194138244968"><ele>287.0</ele><time>2026-04-10T14:52:53.001Z</time></trkpt><trkpt lat="43.596723710631416" lon="11.878329700318137"><ele>292.33333333333337</ele><time>2026-04-10T14:52:54.001Z</time></trkpt><trkpt lat="43.596546765335724" lon="11.878452249980526"><ele>297.6666666666667</ele><time>2026-04-10T14:52:55.001Z</time></trkpt><trkpt lat="43.59636166455764" lon="11.878566602162401"><ele>303.0</ele><time>2026-04-10T14:52:56.001Z</time></trkpt><trkpt lat="43.59617728142925" lon="11.878676264509352"><ele>299.3333333333333</ele><time>2026-04-10T14:52:57.001Z</time></trkpt><trkpt lat="43.595991238015664" lon="11.878774083638378"><ele>295.66666666666663</ele><time>2026-04-10T14:52:58.001Z</time></trkpt><trkpt lat="43.595796147349155" lon="11.878851984525056"><ele>292.0</ele><time>2026-04-10T14:52:59.001Z</time></trkpt><trkpt lat="43.595594771576316" lon="11.87891591980372"><ele>292.0</ele><time>2026-04-10T14:53:00.001Z</time></trkpt><trkpt lat="43.59538776218102" lon="11.878977197711492"><ele>292.0</ele><time>2026-04-10T14:53:01.001Z</time></trkpt><trkpt lat="43.59517940900295" lon="11.879037851110636"><ele>292.0</ele><time>2026-04-10T14:53:02.001Z</time></trkpt><trkpt lat="43.59497981208967" lon="11.87909208879168"><ele>289.0</ele><time>2026-04-10T14:53:03.001Z</time></trkpt><trkpt lat="43.59479462086588" lon="11.879125270157378"><ele>286.0</ele><time>2026-04-10T14:53:04.001Z</time></trkpt><trkpt lat="43.594606512764884" lon="11.879152999397256"><ele>283.0</ele><time>2026-04-10T14:53:05.001Z</time></trkpt><trkpt lat="43.59442028605527" lon="11.87918129572843"><ele>281.0</ele><time>2026-04-10T14:53:06.001Z</time></trkpt><trkpt lat="43.594236672346725" lon="11.879219914922716"><ele>279.0</ele><time>2026-04-10T14:53:07.002Z</time></trkpt><trkpt lat="43.59405783485201" lon="11.87924924577411"><ele>277.0</ele><time>2026-04-10T14:53:08.002Z</time></trkpt><trkpt lat="43.59388702970363" lon="11.879186958075039"><ele>277.0</ele><time>2026-04-10T14:53:09.002Z</time></trkpt><trkpt lat="43.59370609269502" lon="11.87909718410199"><ele>277.0</ele><time>2026-04-10T14:53:10.002Z</time></trkpt><trkpt lat="43.59351145040054" lon="11.879005455258522"><ele>277.0</ele><time>2026-04-10T14:53:11.002Z</time></trkpt><trkpt lat="43.59331642140677" lon="11.878896521917047"><ele>277.0</ele><time>2026-04-10T14:53:12.002Z</time></trkpt><trkpt lat="43.59312224222291" lon="11.878805540131717"><ele>277.0</ele><time>2026-04-10T14:53:13.002Z</time></trkpt><trkpt lat="43.592933016649205" lon="11.878722282329777"><ele>277.0</ele><time>2026-04-10T14:53:14.002Z</time></trkpt><trkpt lat="43.59274606477441" lon="11.878642487172758"><ele>278.3333333333333</ele><time>2026-04-10T14:53:15.002Z</time></trkpt><trkpt lat="43.59255942648355" lon="11.878562005141786"><ele>279.6666666666667</ele><time>2026-04-10T14:53:16.002Z</time></trkpt><trkpt lat="43.59237371664132" lon="11.878455064804733"><ele>281.0</ele><time>2026-04-10T14:53:17.002Z</time></trkpt><trkpt lat="43.59218410543207" lon="11.878341058610328"><ele>278.0</ele><time>2026-04-10T14:53:18.002Z</time></trkpt><trkpt lat="43.59198153827731" lon="11.878216517837874"><ele>275.0</ele><time>2026-04-10T14:53:19.002Z</time></trkpt><trkpt lat="43.59178092451681" lon="11.878091072502684"><ele>272.0</ele><time>2026-04-10T14:53:20.002Z</time></trkpt><trkpt lat="43.59158319045832" lon="11.877985982414994"><ele>272.0</ele><time>2026-04-10T14:53:21.002Z</time></trkpt><trkpt lat="43.59140470416516" lon="11.877869881360954"><ele>272.0</ele><time>2026-04-10T14:53:22.002Z</time></trkpt><trkpt lat="43.59122510195845" lon="11.877755039277522"><ele>272.0</ele><time>2026-04-10T14:53:23.002Z</time></trkpt><trkpt lat="43.591045564476055" lon="11.877641753397809"><ele>271.33333333333337</ele><time>2026-04-10T14:53:24.002Z</time></trkpt><trkpt lat="43.590856704407905" lon="11.87753485311292"><ele>270.6666666666667</ele><time>2026-04-10T14:53:25.002Z</time></trkpt><trkpt lat="43.590663727340434" lon="11.877436089576209"><ele>270.0</ele><time>2026-04-10T14:53:26.002Z</time></trkpt><trkpt lat="43.590466089765066" lon="11.87735133524244"><ele>271.0</ele><time>2026-04-10T14:53:27.002Z</time></trkpt><trkpt lat="43.59027623244348" lon="11.877283084911635"><ele>272.0</ele><time>2026-04-10T14:53:28.002Z</time></trkpt><trkpt lat="43.5900998125157" lon="11.877195875834209"><ele>273.0</ele><time>2026-04-10T14:53:29.002Z</time></trkpt><trkpt lat="43.58992101168378" lon="11.877128412287595"><ele>273.0</ele><time>2026-04-10T14:53:30.002Z</time></trkpt><trkpt lat="43.5897391897769" lon="11.8770778905353"><ele>273.0</ele><time>2026-04-10T14:53:31.002Z</time></trkpt><trkpt lat="43.589580551402356" lon="11.87698769066204"><ele>273.0</ele><time>2026-04-10T14:53:32.002Z</time></trkpt><trkpt lat="43.589420581553796" lon="11.876888680551337"><ele>274.3333333333333</ele><time>2026-04-10T14:53:33.002Z</time></trkpt><trkpt lat="43.5892669923924" lon="11.876741389862762"><ele>275.66666666666663</ele><time>2026-04-10T14:53:34.002Z</time></trkpt><trkpt lat="43.589123951740206" lon="11.87656837527494"><ele>277.0</ele><time>2026-04-10T14:53:35.002Z</time></trkpt><trkpt lat="43.58897628612596" lon="11.876392459204776"><ele>277.0</ele><time>2026-04-10T14:53:36.002Z</time></trkpt><trkpt lat="43.588816301168876" lon="11.876222023137839"><ele>277.0</ele><time>2026-04-10T14:53:37.002Z</time></trkpt><trkpt lat="43.588661761523866" lon="11.876033715662732"><ele>277.0</ele><time>2026-04-10T14:53:38.002Z</time></trkpt><trkpt lat="43.588498720742315" lon="11.875871569405835"><ele>276.66666666666663</ele><time>2026-04-10T14:53:39.002Z</time></trkpt><trkpt lat="43.58832870369824" lon="11.875742223245776"><ele>276.3333333333333</ele><time>2026-04-10T14:53:40.002Z</time></trkpt><trkpt lat="43.588166023488114" lon="11.875622216365143"><ele>276.0</ele><time>2026-04-10T14:53:41.002Z</time></trkpt><trkpt lat="43.58800679302673" lon="11.87550757251321"><ele>277.0</ele><time>2026-04-10T14:53:42.002Z</time></trkpt><trkpt lat="43.58784139565917" lon="11.875430496590644"><ele>278.0</ele><time>2026-04-10T14:53:43Z</time></trkpt><trkpt lat="43.58768176355919" lon="11.875357229687985"><ele>279.0</ele><time>2026-04-10T14:53:44Z</time></trkpt><trkpt lat="43.58752673641006" lon="11.875286076300174"><ele>279.0</ele><time>2026-04-10T14:53:45Z</time></trkpt><trkpt lat="43.58737343429077" lon="11.875212137398545"><ele>279.0</ele><time>2026-04-10T14:53:46Z</time></trkpt><trkpt lat="43.58722248639899" lon="11.8751356202733"><ele>279.0</ele><time>2026-04-10T14:53:47Z</time></trkpt><trkpt lat="43.5870715483153" lon="11.875072317618379"><ele>277.5</ele><time>2026-04-10T14:53:48Z</time></trkpt><trkpt lat="43.586930893486475" lon="11.87498886360715"><ele>276.0</ele><time>2026-04-10T14:53:49Z</time></trkpt><trkpt lat="43.58680543497436" lon="11.874912691404859"><ele>274.5</ele><time>2026-04-10T14:53:50Z</time></trkpt><trkpt lat="43.58669321673945" lon="11.874846500645601"><ele>273.0</ele><time>2026-04-10T14:53:51Z</time></trkpt><trkpt lat="43.586593300473176" lon="11.874792131705476"><ele>273.0</ele><time>2026-04-10T14:53:52Z</time></trkpt><trkpt lat="43.58650356322199" lon="11.874741792095682"><ele>273.0</ele><time>2026-04-10T14:53:53Z</time></trkpt><trkpt lat="43.58643350161329" lon="11.874677608219542"><ele>273.0</ele><time>2026-04-10T14:53:54Z</time></trkpt><trkpt lat="43.586346009354735" lon="11.87462572452119"><ele>273.0</ele><time>2026-04-10T14:53:56Z</time></trkpt><trkpt lat="43.58632751702342" lon="11.87485746672386"><ele>273.0</ele><time>2026-04-10T14:53:57Z</time></trkpt><trkpt lat="43.586302083141206" lon="11.874972821080233"><ele>274.0</ele><time>2026-04-10T14:53:58Z</time></trkpt><trkpt lat="43.58627854884796" lon="11.875104548757836"><ele>275.0</ele><time>2026-04-10T14:53:59Z</time></trkpt><trkpt lat="43.586246105076256" lon="11.875257292473092"><ele>276.0</ele><time>2026-04-10T14:54:00Z</time></trkpt><trkpt lat="43.58623323586313" lon="11.875435139620695"><ele>277.0</ele><time>2026-04-10T14:54:01Z</time></trkpt><trkpt lat="43.58618060676254" lon="11.875611430668515"><ele>276.3333333333333</ele><time>2026-04-10T14:54:02Z</time></trkpt><trkpt lat="43.58614399243424" lon="11.875811497914187"><ele>275.6666666666667</ele><time>2026-04-10T14:54:03Z</time></trkpt><trkpt lat="43.58608325096029" lon="11.8760071807608"><ele>275.0</ele><time>2026-04-10T14:54:04Z</time></trkpt><trkpt lat="43.586026020709966" lon="11.876196370169449"><ele>276.0</ele><time>2026-04-10T14:54:05Z</time></trkpt><trkpt lat="43.58598000312668" lon="11.876379844167575"><ele>277.0</ele><time>2026-04-10T14:54:06Z</time></trkpt><trkpt lat="43.585959160082304" lon="11.876569367402972"><ele>278.0</ele><time>2026-04-10T14:54:07Z</time></trkpt><trkpt lat="43.58598648219805" lon="11.876751513926202"><ele>279.0</ele><time>2026-04-10T14:54:08Z</time></trkpt><trkpt lat="43.5860545784316" lon="11.876912236441397"><ele>281.0</ele><time>2026-04-10T14:54:09Z</time></trkpt><trkpt lat="43.58615480411234" lon="11.877061109741232"><ele>283.0</ele><time>2026-04-10T14:54:10Z</time></trkpt><trkpt lat="43.58627539696514" lon="11.877204148177725"><ele>285.0</ele><time>2026-04-10T14:54:11Z</time></trkpt><trkpt lat="43.58640644288708" lon="11.87735341428082"><ele>285.6666666666667</ele><time>2026-04-10T14:54:12Z</time></trkpt><trkpt lat="43.58654152875856" lon="11.877514767494672"><ele>286.33333333333337</ele><time>2026-04-10T14:54:13Z</time></trkpt><trkpt lat="43.58667821514371" lon="11.877682114874327"><ele>287.0</ele><time>2026-04-10T14:54:14Z</time></trkpt><trkpt lat="43.58680782427347" lon="11.877845334056765"><ele>289.33333333333337</ele><time>2026-04-10T14:54:15.001Z</time></trkpt><trkpt lat="43.58692386017588" lon="11.877997484958836"><ele>291.6666666666667</ele><time>2026-04-10T14:54:16.001Z</time></trkpt><trkpt lat="43.58701539250035" lon="11.878164792974717"><ele>294.0</ele><time>2026-04-10T14:54:17.001Z</time></trkpt><trkpt lat="43.587067587563865" lon="11.878363748648034"><ele>295.6666666666667</ele><time>2026-04-10T14:54:18.001Z</time></trkpt><trkpt lat="43.58708241729953" lon="11.878584196919462"><ele>297.33333333333337</ele><time>2026-04-10T14:54:19.001Z</time></trkpt><trkpt lat="43.587065003934505" lon="11.878814505200793"><ele>299.0</ele><time>2026-04-10T14:54:20.001Z</time></trkpt><trkpt lat="43.587042256150994" lon="11.879055591933051"><ele>299.33333333333337</ele><time>2026-04-10T14:54:21.001Z</time></trkpt><trkpt lat="43.58702663655753" lon="11.879310701009821"><ele>299.6666666666667</ele><time>2026-04-10T14:54:22.001Z</time></trkpt><trkpt lat="43.58701212369097" lon="11.87957026772925"><ele>300.0</ele><time>2026-04-10T14:54:23.001Z</time></trkpt><trkpt lat="43.58699737521847" lon="11.879835410904152"><ele>301.6666666666667</ele><time>2026-04-10T14:54:24.001Z</time></trkpt><trkpt lat="43.58698171608184" lon="11.880096617229984"><ele>303.33333333333337</ele><time>2026-04-10T14:54:25.001Z</time></trkpt><trkpt lat="43.58696608368648" lon="11.880335122604864"><ele>305.0</ele><time>2026-04-10T14:54:26.001Z</time></trkpt><trkpt lat="43.58694993819546" lon="11.880558914485977"><ele>306.5</ele><time>2026-04-10T14:54:27.001Z</time></trkpt><trkpt lat="43.586942742265144" lon="11.880766809024987"><ele>308.0</ele><time>2026-04-10T14:54:28.001Z</time></trkpt><trkpt lat="43.58696261043168" lon="11.880960220263349"><ele>309.5</ele><time>2026-04-10T14:54:29.001Z</time></trkpt><trkpt lat="43.587013739047705" lon="11.881131898611603"><ele>311.0</ele><time>2026-04-10T14:54:30.001Z</time></trkpt><trkpt lat="43.58708686686153" lon="11.881279496281932"><ele>312.0</ele><time>2026-04-10T14:54:31.001Z</time></trkpt><trkpt lat="43.587175840974226" lon="11.881437303748102"><ele>313.0</ele><time>2026-04-10T14:54:32.001Z</time></trkpt><trkpt lat="43.587271443791195" lon="11.881604128177482"><ele>314.0</ele><time>2026-04-10T14:54:33.001Z</time></trkpt><trkpt lat="43.58737387223654" lon="11.881786984264313"><ele>316.6666666666667</ele><time>2026-04-10T14:54:34.001Z</time></trkpt><trkpt lat="43.58747133960299" lon="11.881985976587425"><ele>319.3333333333333</ele><time>2026-04-10T14:54:35.001Z</time></trkpt><trkpt lat="43.587544566957405" lon="11.882200742205628"><ele>322.0</ele><time>2026-04-10T14:54:36.001Z</time></trkpt><trkpt lat="43.58758794445415" lon="11.882430493860836"><ele>323.0</ele><time>2026-04-10T14:54:37.001Z</time></trkpt><trkpt lat="43.587612979226805" lon="11.882690224380294"><ele>324.0</ele><time>2026-04-10T14:54:38.001Z</time></trkpt><trkpt lat="43.58763549530802" lon="11.882979115617562"><ele>325.0</ele><time>2026-04-10T14:54:39.001Z</time></trkpt><trkpt lat="43.587656039511344" lon="11.883237645138268"><ele>328.3333333333333</ele><time>2026-04-10T14:54:40.001Z</time></trkpt><trkpt lat="43.587672656570916" lon="11.883472327340785"><ele>331.6666666666667</ele><time>2026-04-10T14:54:41.001Z</time></trkpt><trkpt lat="43.587679865794804" lon="11.883700242131994"><ele>335.0</ele><time>2026-04-10T14:54:42.001Z</time></trkpt><trkpt lat="43.587672945137" lon="11.883940675080853"><ele>335.0</ele><time>2026-04-10T14:54:43.001Z</time></trkpt><trkpt lat="43.58765783149224" lon="11.884183910604788"><ele>335.0</ele><time>2026-04-10T14:54:44.001Z</time></trkpt><trkpt lat="43.58763894788174" lon="11.884420474873473"><ele>335.0</ele><time>2026-04-10T14:54:45.001Z</time></trkpt><trkpt lat="43.587625866927176" lon="11.884649657578409"><ele>337.33333333333337</ele><time>2026-04-10T14:54:46.001Z</time></trkpt><trkpt lat="43.58763335780652" lon="11.884886687997637"><ele>339.6666666666667</ele><time>2026-04-10T14:54:47.001Z</time></trkpt><trkpt lat="43.58766971794869" lon="11.885123926888847"><ele>342.0</ele><time>2026-04-10T14:54:48.001Z</time></trkpt><trkpt lat="43.58772597571427" lon="11.885365025925907"><ele>344.3333333333333</ele><time>2026-04-10T14:54:49.001Z</time></trkpt><trkpt lat="43.58777393525818" lon="11.885608324694031"><ele>346.66666666666663</ele><time>2026-04-10T14:54:50.001Z</time></trkpt><trkpt lat="43.5877991263951" lon="11.885866873826021"><ele>349.0</ele><time>2026-04-10T14:54:51.001Z</time></trkpt><trkpt lat="43.587808474208195" lon="11.886135582149704"><ele>349.66666666666663</ele><time>2026-04-10T14:54:52.001Z</time></trkpt><trkpt lat="43.587816908002054" lon="11.88641325348904"><ele>350.3333333333333</ele><time>2026-04-10T14:54:53.001Z</time></trkpt><trkpt lat="43.58782878759766" lon="11.88669758107564"><ele>351.0</ele><time>2026-04-10T14:54:54.001Z</time></trkpt><trkpt lat="43.58784305649701" lon="11.886985597908792"><ele>346.6666666666667</ele><time>2026-04-10T14:54:55.001Z</time></trkpt><trkpt lat="43.58786487790313" lon="11.887270731141967"><ele>342.33333333333337</ele><time>2026-04-10T14:54:56.001Z</time></trkpt><trkpt lat="43.58789322166928" lon="11.887551033508228"><ele>338.0</ele><time>2026-04-10T14:54:57.001Z</time></trkpt><trkpt lat="43.58791391986571" lon="11.88782443722312"><ele>338.0</ele><time>2026-04-10T14:54:58.001Z</time></trkpt><trkpt lat="43.58797097327996" lon="11.888068703147548"><ele>338.0</ele><time>2026-04-10T14:54:59.001Z</time></trkpt><trkpt lat="43.588071695263295" lon="11.888286644317805"><ele>338.0</ele><time>2026-04-10T14:55:00.001Z</time></trkpt><trkpt lat="43.588179239359036" lon="11.888504349152832"><ele>339.6666666666667</ele><time>2026-04-10T14:55:01.001Z</time></trkpt><trkpt lat="43.5882611811134" lon="11.888735503539982"><ele>341.3333333333333</ele><time>2026-04-10T14:55:02.001Z</time></trkpt><trkpt lat="43.58828937730527" lon="11.888931358863163"><ele>343.0</ele><time>2026-04-10T14:55:03.001Z</time></trkpt><trkpt lat="43.58834415188884" lon="11.889088038219256"><ele>343.0</ele><time>2026-04-10T14:55:04.001Z</time></trkpt><trkpt lat="43.58844586558162" lon="11.889242627563867"><ele>343.0</ele><time>2026-04-10T14:55:05.001Z</time></trkpt><trkpt lat="43.5885551854232" lon="11.889389871958402"><ele>343.0</ele><time>2026-04-10T14:55:06.002Z</time></trkpt><trkpt lat="43.58867279203071" lon="11.889486290587618"><ele>343.0</ele><time>2026-04-10T14:55:07.002Z</time></trkpt><trkpt lat="43.58881340783829" lon="11.889506328001772"><ele>344.75</ele><time>2026-04-10T14:55:08.002Z</time></trkpt><trkpt lat="43.58895191152225" lon="11.889530766530761"><ele>346.5</ele><time>2026-04-10T14:55:09.002Z</time></trkpt><trkpt lat="43.589071795965594" lon="11.889611675085792"><ele>348.25</ele><time>2026-04-10T14:55:10.002Z</time></trkpt><trkpt lat="43.589177543922965" lon="11.889768157315551"><ele>350.0</ele><time>2026-04-10T14:55:11.002Z</time></trkpt><trkpt lat="43.58928662662606" lon="11.889926953150692"><ele>350.0</ele><time>2026-04-10T14:55:12.002Z</time></trkpt><trkpt lat="43.5893720608298" lon="11.890067144123972"><ele>350.0</ele><time>2026-04-10T14:55:13.002Z</time></trkpt><trkpt lat="43.58947043434523" lon="11.890185157938372"><ele>350.0</ele><time>2026-04-10T14:55:14.002Z</time></trkpt><trkpt lat="43.58962318832898" lon="11.89021127061065"><ele>350.0</ele><time>2026-04-10T14:55:15.002Z</time></trkpt><trkpt lat="43.58978379202765" lon="11.890219695914801"><ele>356.0</ele><time>2026-04-10T14:55:16.002Z</time></trkpt><trkpt lat="43.589934730850466" lon="11.890270681177928"><ele>362.0</ele><time>2026-04-10T14:55:17.002Z</time></trkpt><trkpt lat="43.59009327083106" lon="11.890387147483677"><ele>368.0</ele><time>2026-04-10T14:55:18.002Z</time></trkpt><trkpt lat="43.59025980603968" lon="11.890527218664076"><ele>368.0</ele><time>2026-04-10T14:55:19.002Z</time></trkpt><trkpt lat="43.59039639792014" lon="11.890643085402711"><ele>368.0</ele><time>2026-04-10T14:55:20.002Z</time></trkpt><trkpt lat="43.59051264970688" lon="11.890748472291486"><ele>368.0</ele><time>2026-04-10T14:55:21.002Z</time></trkpt><trkpt lat="43.59061433141795" lon="11.890859769459015"><ele>368.0</ele><time>2026-04-10T14:55:22.002Z</time></trkpt><trkpt lat="43.590720052274975" lon="11.891003721162312"><ele>370.0</ele><time>2026-04-10T14:55:23.002Z</time></trkpt><trkpt lat="43.59080152724058" lon="11.89120415294743"><ele>372.0</ele><time>2026-04-10T14:55:24.002Z</time></trkpt><trkpt lat="43.59087325892884" lon="11.891424453702669"><ele>374.0</ele><time>2026-04-10T14:55:25.002Z</time></trkpt><trkpt lat="43.590938672951346" lon="11.891629693392158"><ele>376.5</ele><time>2026-04-10T14:55:26.002Z</time></trkpt><trkpt lat="43.59098338595893" lon="11.891807578130386"><ele>379.0</ele><time>2026-04-10T14:55:27.002Z</time></trkpt><trkpt lat="43.591004117678814" lon="11.891986452166666"><ele>381.5</ele><time>2026-04-10T14:55:28.002Z</time></trkpt><trkpt lat="43.59099589557309" lon="11.89216186497139"><ele>384.0</ele><time>2026-04-10T14:55:29.002Z</time></trkpt><trkpt lat="43.59094801450218" lon="11.89232109350786"><ele>384.0</ele><time>2026-04-10T14:55:30.002Z</time></trkpt><trkpt lat="43.590860646050125" lon="11.892426024228932"><ele>384.0</ele><time>2026-04-10T14:55:31.002Z</time></trkpt><trkpt lat="43.590736921414624" lon="11.89249179095542"><ele>384.0</ele><time>2026-04-10T14:55:32.002Z</time></trkpt><trkpt lat="43.590583554520535" lon="11.892536920262346"><ele>384.0</ele><time>2026-04-10T14:55:33.002Z</time></trkpt><trkpt lat="43.590409444329026" lon="11.892577915836148"><ele>390.0</ele><time>2026-04-10T14:55:34.002Z</time></trkpt><trkpt lat="43.59022948557181" lon="11.892642938793388"><ele>396.0</ele><time>2026-04-10T14:55:35.002Z</time></trkpt><trkpt lat="43.59005250851622" lon="11.892711445057875"><ele>402.0</ele><time>2026-04-10T14:55:36.002Z</time></trkpt><trkpt lat="43.58990296993633" lon="11.892761057345258"><ele>402.0</ele><time>2026-04-10T14:55:37.002Z</time></trkpt><trkpt lat="43.58976864705018" lon="11.892804972062306"><ele>402.0</ele><time>2026-04-10T14:55:38.002Z</time></trkpt><trkpt lat="43.5896511988265" lon="11.892857592806298"><ele>402.0</ele><time>2026-04-10T14:55:39.002Z</time></trkpt><trkpt lat="43.5895395836058" lon="11.892945944720111"><ele>402.0</ele><time>2026-04-10T14:55:40.002Z</time></trkpt><trkpt lat="43.58944093494521" lon="11.893078220805338"><ele>401.5</ele><time>2026-04-10T14:55:41.002Z</time></trkpt><trkpt lat="43.589375862204115" lon="11.893239958384402"><ele>401.0</ele><time>2026-04-10T14:55:42.002Z</time></trkpt><trkpt lat="43.589349934552665" lon="11.893415453134379"><ele>400.5</ele><time>2026-04-10T14:55:43.002Z</time></trkpt><trkpt lat="43.58936326413836" lon="11.893616301820924"><ele>400.0</ele><time>2026-04-10T14:55:44.002Z</time></trkpt><trkpt lat="43.58941264392256" lon="11.893828841276983"><ele>402.0</ele><time>2026-04-10T14:55:45.002Z</time></trkpt><trkpt lat="43.58948975949433" lon="11.894055443780433"><ele>404.0</ele><time>2026-04-10T14:55:46.002Z</time></trkpt><trkpt lat="43.58958015437144" lon="11.894301819869735"><ele>406.0</ele><time>2026-04-10T14:55:47.002Z</time></trkpt><trkpt lat="43.58968210763687" lon="11.894564540062783"><ele>411.5</ele><time>2026-04-10T14:55:48.002Z</time></trkpt><trkpt lat="43.589796052752554" lon="11.894835650091649"><ele>417.0</ele><time>2026-04-10T14:55:49Z</time></trkpt><trkpt lat="43.589923225318806" lon="11.89511211688556"><ele>421.5</ele><time>2026-04-10T14:55:50Z</time></trkpt><trkpt lat="43.59005798528751" lon="11.895389209706506"><ele>426.0</ele><time>2026-04-10T14:55:51Z</time></trkpt><trkpt lat="43.59015969572463" lon="11.895653781369159"><ele>426.0</ele><time>2026-04-10T14:55:52Z</time></trkpt><trkpt lat="43.590260525484986" lon="11.895878734455223"><ele>426.0</ele><time>2026-04-10T14:55:53Z</time></trkpt><trkpt lat="43.590369130928806" lon="11.896087305526121"><ele>426.0</ele><time>2026-04-10T14:55:54Z</time></trkpt><trkpt lat="43.59046017858874" lon="11.896297365847929"><ele>428.33333333333337</ele><time>2026-04-10T14:55:55Z</time></trkpt><trkpt lat="43.590554464901544" lon="11.896496927656166"><ele>430.6666666666667</ele><time>2026-04-10T14:55:56Z</time></trkpt><trkpt lat="43.59064216585226" lon="11.896689546937683"><ele>433.0</ele><time>2026-04-10T14:55:57Z</time></trkpt><trkpt lat="43.59071362934051" lon="11.896890921964516"><ele>436.25</ele><time>2026-04-10T14:55:58Z</time></trkpt><trkpt lat="43.590812931835686" lon="11.897065389513667"><ele>439.5</ele><time>2026-04-10T14:55:59Z</time></trkpt><trkpt lat="43.59089194476117" lon="11.897240429853424"><ele>442.75</ele><time>2026-04-10T14:56:00Z</time></trkpt><trkpt lat="43.59098049996456" lon="11.897382992248728"><ele>446.0</ele><time>2026-04-10T14:56:01Z</time></trkpt><trkpt lat="43.591097277217756" lon="11.897507680947582"><ele>450.3333333333333</ele><time>2026-04-10T14:56:02Z</time></trkpt><trkpt lat="43.591238147166045" lon="11.897606510909588"><ele>454.66666666666663</ele><time>2026-04-10T14:56:03Z</time></trkpt><trkpt lat="43.59139525584291" lon="11.897685529419556"><ele>459.0</ele><time>2026-04-10T14:56:04Z</time></trkpt><trkpt lat="43.591558723310015" lon="11.897750471593431"><ele>459.0</ele><time>2026-04-10T14:56:05Z</time></trkpt><trkpt lat="43.59171566426449" lon="11.897828755956587"><ele>459.0</ele><time>2026-04-10T14:56:06Z</time></trkpt><trkpt lat="43.591882653423504" lon="11.897901277281083"><ele>459.0</ele><time>2026-04-10T14:56:07Z</time></trkpt><trkpt lat="43.592039958557" lon="11.897987044132528"><ele>459.66666666666663</ele><time>2026-04-10T14:56:08Z</time></trkpt><trkpt lat="43.5921965045783" lon="11.898054473889818"><ele>460.3333333333333</ele><time>2026-04-10T14:56:09Z</time></trkpt><trkpt lat="43.59234625140188" lon="11.89809594556253"><ele>461.0</ele><time>2026-04-10T14:56:10Z</time></trkpt><trkpt lat="43.5924966371742" lon="11.898108752228826"><ele>461.0</ele><time>2026-04-10T14:56:11Z</time></trkpt><trkpt lat="43.59265455688223" lon="11.898101290957033"><ele>461.0</ele><time>2026-04-10T14:56:12Z</time></trkpt><trkpt lat="43.592811328259685" lon="11.898094404049147"><ele>461.0</ele><time>2026-04-10T14:56:13Z</time></trkpt><trkpt lat="43.592951793938035" lon="11.898089347783337"><ele>462.5</ele><time>2026-04-10T14:56:14Z</time></trkpt><trkpt lat="43.593083232563025" lon="11.898090599913573"><ele>464.0</ele><time>2026-04-10T14:56:15Z</time></trkpt><trkpt lat="43.59321139552961" lon="11.898110886612587"><ele>465.5</ele><time>2026-04-10T14:56:16Z</time></trkpt><trkpt lat="43.59333151137719" lon="11.898172718261096"><ele>467.0</ele><time>2026-04-10T14:56:17Z</time></trkpt><trkpt lat="43.59342391556255" lon="11.898269737610438"><ele>467.0</ele><time>2026-04-10T14:56:18Z</time></trkpt><trkpt lat="43.59350228851221" lon="11.898342245364992"><ele>467.00000000000006</ele><time>2026-04-10T14:56:19Z</time></trkpt><trkpt lat="43.59353144800153" lon="11.898465458929467"><ele>467.00000000000006</ele><time>2026-04-10T14:56:20Z</time></trkpt><trkpt lat="43.59351787450835" lon="11.898596801196703"><ele>467.0</ele><time>2026-04-10T14:56:21Z</time></trkpt><trkpt lat="43.593446868405955" lon="11.898704441194022"><ele>467.0</ele><time>2026-04-10T14:56:22Z</time></trkpt><trkpt lat="43.593319971323524" lon="11.898747223016748"><ele>472.0</ele><time>2026-04-10T14:56:23Z</time></trkpt><trkpt lat="43.59318726380168" lon="11.898848612803116"><ele>477.0</ele><time>2026-04-10T14:56:24Z</time></trkpt><trkpt lat="43.59304488471743" lon="11.898976448378386"><ele>482.0</ele><time>2026-04-10T14:56:25.001Z</time></trkpt><trkpt lat="43.59288712063841" lon="11.899108555689303"><ele>481.3333333333333</ele><time>2026-04-10T14:56:26.001Z</time></trkpt><trkpt lat="43.59272295961211" lon="11.899238628062031"><ele>480.66666666666663</ele><time>2026-04-10T14:56:27.001Z</time></trkpt><trkpt lat="43.59258099581026" lon="11.899349270772714"><ele>480.0</ele><time>2026-04-10T14:56:28.001Z</time></trkpt><trkpt lat="43.59245741382729" lon="11.89943775192154"><ele>484.75</ele><time>2026-04-10T14:56:29.001Z</time></trkpt><trkpt lat="43.59232905004557" lon="11.89947747307328"><ele>489.5</ele><time>2026-04-10T14:56:30.001Z</time></trkpt><trkpt lat="43.59220293205186" lon="11.899431899553973"><ele>494.25</ele><time>2026-04-10T14:56:31.001Z</time></trkpt><trkpt lat="43.59208597218174" lon="11.899430298682066"><ele>499.0</ele><time>2026-04-10T14:56:32.001Z</time></trkpt><trkpt lat="43.59198608766911" lon="11.89941789191485"><ele>499.25</ele><time>2026-04-10T14:56:33.001Z</time></trkpt><trkpt lat="43.59188960884687" lon="11.899480772879311"><ele>499.5</ele><time>2026-04-10T14:56:34.001Z</time></trkpt><trkpt lat="43.591785382768165" lon="11.899600854790666"><ele>499.75</ele><time>2026-04-10T14:56:35.001Z</time></trkpt><trkpt lat="43.591670163797794" lon="11.899715197510593"><ele>500.0</ele><time>2026-04-10T14:56:36.001Z</time></trkpt><trkpt lat="43.5915364983982" lon="11.8997418224603"><ele>500.0</ele><time>2026-04-10T14:56:37.001Z</time></trkpt><trkpt lat="43.591405966212115" lon="11.899799567026738"><ele>500.0</ele><time>2026-04-10T14:56:38.001Z</time></trkpt><trkpt lat="43.59126715834236" lon="11.899802753217175"><ele>500.0</ele><time>2026-04-10T14:56:39.001Z</time></trkpt><trkpt lat="43.59114015080282" lon="11.899808013377093"><ele>500.0</ele><time>2026-04-10T14:56:40.001Z</time></trkpt><trkpt lat="43.59100994826605" lon="11.89983427467545"><ele>499.3333333333333</ele><time>2026-04-10T14:56:41.001Z</time></trkpt><trkpt lat="43.59086863092039" lon="11.899890271870245"><ele>498.66666666666663</ele><time>2026-04-10T14:56:42.001Z</time></trkpt><trkpt lat="43.590723997659694" lon="11.899975479835224"><ele>498.0</ele><time>2026-04-10T14:56:43.001Z</time></trkpt><trkpt lat="43.5905884458702" lon="11.90008124882425"><ele>500.25</ele><time>2026-04-10T14:56:44.001Z</time></trkpt><trkpt lat="43.59046318673256" lon="11.900196345529732"><ele>502.5</ele><time>2026-04-10T14:56:45.001Z</time></trkpt><trkpt lat="43.59035163495154" lon="11.90031606257612"><ele>504.75</ele><time>2026-04-10T14:56:46.001Z</time></trkpt><trkpt lat="43.5902563158515" lon="11.900441098383812"><ele>507.0</ele><time>2026-04-10T14:56:47.001Z</time></trkpt><trkpt lat="43.59018014448795" lon="11.900562086357926"><ele>507.0</ele><time>2026-04-10T14:56:48.001Z</time></trkpt><trkpt lat="43.59010646182321" lon="11.900659981009374"><ele>507.00000000000006</ele><time>2026-04-10T14:56:49.001Z</time></trkpt><trkpt lat="43.59005426916879" lon="11.900769682527033"><ele>507.00000000000006</ele><time>2026-04-10T14:56:50.001Z</time></trkpt><trkpt lat="43.58999495013639" lon="11.900878608459886"><ele>507.0</ele><time>2026-04-10T14:56:51.001Z</time></trkpt><trkpt lat="43.58992642298175" lon="11.900977977962045"><ele>507.0</ele><time>2026-04-10T14:56:52.001Z</time></trkpt><trkpt lat="43.58987259441274" lon="11.901089632599886"><ele>508.6</ele><time>2026-04-10T14:56:53.001Z</time></trkpt><trkpt lat="43.58984889967383" lon="11.90120350315329"><ele>510.20000000000005</ele><time>2026-04-10T14:56:54.001Z</time></trkpt><trkpt lat="43.589849244900854" lon="11.90133189362889"><ele>511.8</ele><time>2026-04-10T14:56:55.001Z</time></trkpt><trkpt lat="43.589849480737236" lon="11.901481461919678"><ele>513.4</ele><time>2026-04-10T14:56:56.001Z</time></trkpt><trkpt lat="43.58982465942582" lon="11.901636260598929"><ele>515.0</ele><time>2026-04-10T14:56:57.001Z</time></trkpt><trkpt lat="43.58980272454802" lon="11.901805925140366"><ele>517.5</ele><time>2026-04-10T14:56:58.001Z</time></trkpt><trkpt lat="43.589774126048816" lon="11.901993263330368"><ele>520.0</ele><time>2026-04-10T14:56:59.001Z</time></trkpt><trkpt lat="43.58972249023481" lon="11.902176032210713"><ele>522.5</ele><time>2026-04-10T14:57:00.001Z</time></trkpt><trkpt lat="43.58967703558048" lon="11.902339116319704"><ele>525.0</ele><time>2026-04-10T14:57:01.001Z</time></trkpt><trkpt lat="43.589619148977675" lon="11.902481534709231"><ele>524.75</ele><time>2026-04-10T14:57:02.001Z</time></trkpt><trkpt lat="43.589573166949926" lon="11.902619080209066"><ele>524.5</ele><time>2026-04-10T14:57:03.001Z</time></trkpt><trkpt lat="43.58953095615998" lon="11.902766382841987"><ele>524.25</ele><time>2026-04-10T14:57:04.001Z</time></trkpt><trkpt lat="43.58945800613078" lon="11.902900000634617"><ele>524.0</ele><time>2026-04-10T14:57:05.001Z</time></trkpt><trkpt lat="43.589371688280124" lon="11.90302893784718"><ele>524.0</ele><time>2026-04-10T14:57:06.001Z</time></trkpt><trkpt lat="43.5892884179866" lon="11.903139949350967"><ele>524.0</ele><time>2026-04-10T14:57:07.001Z</time></trkpt><trkpt lat="43.5891925448871" lon="11.903235123276858"><ele>524.0</ele><time>2026-04-10T14:57:08.001Z</time></trkpt><trkpt lat="43.589084898028844" lon="11.903277186680896"><ele>524.0</ele><time>2026-04-10T14:57:09.001Z</time></trkpt><trkpt lat="43.58898495073796" lon="11.90325527481318"><ele>524.0</ele><time>2026-04-10T14:57:10.001Z</time></trkpt><trkpt lat="43.58890263281241" lon="11.903201772657484"><ele>524.0</ele><time>2026-04-10T14:57:11.001Z</time></trkpt><trkpt lat="43.588828355384244" lon="11.903141610495364"><ele>524.0</ele><time>2026-04-10T14:57:12.001Z</time></trkpt><trkpt lat="43.58875848311195" lon="11.903088937596042"><ele>524.0</ele><time>2026-04-10T14:57:13.001Z</time></trkpt><trkpt lat="43.58868692157643" lon="11.903053572092698"><ele>524.0</ele><time>2026-04-10T14:57:14.001Z</time></trkpt><trkpt lat="43.588600092087184" lon="11.90306301764938"><ele>524.0</ele><time>2026-04-10T14:57:15.002Z</time></trkpt><trkpt lat="43.58851542401908" lon="11.90310391592801"><ele>524.0</ele><time>2026-04-10T14:57:16.002Z</time></trkpt><trkpt lat="43.588447939916506" lon="11.903193681949885"><ele>524.0</ele><time>2026-04-10T14:57:17.002Z</time></trkpt><trkpt lat="43.588413029862096" lon="11.903316630264383"><ele>524.0</ele><time>2026-04-10T14:57:18.002Z</time></trkpt><trkpt lat="43.58839679385751" lon="11.903471869989335"><ele>524.0</ele><time>2026-04-10T14:57:19.002Z</time></trkpt><trkpt lat="43.58837039623809" lon="11.903639708401727"><ele>524.0</ele><time>2026-04-10T14:57:20.002Z</time></trkpt><trkpt lat="43.588349976403656" lon="11.903814614904405"><ele>526.25</ele><time>2026-04-10T14:57:21.002Z</time></trkpt><trkpt lat="43.58833108657916" lon="11.904003881412283"><ele>528.5</ele><time>2026-04-10T14:57:22.002Z</time></trkpt><trkpt lat="43.58828232020674" lon="11.904177529586397"><ele>530.75</ele><time>2026-04-10T14:57:23.002Z</time></trkpt><trkpt lat="43.588231863266074" lon="11.904316819413715"><ele>533.0</ele><time>2026-04-10T14:57:24.002Z</time></trkpt><trkpt lat="43.58818037841421" lon="11.904449317383316"><ele>535.1999999999999</ele><time>2026-04-10T14:57:25.002Z</time></trkpt><trkpt lat="43.588135552035276" lon="11.904564469484882"><ele>537.4</ele><time>2026-04-10T14:57:26.002Z</time></trkpt><trkpt lat="43.58810714496496" lon="11.904681563865834"><ele>539.5999999999999</ele><time>2026-04-10T14:57:27.002Z</time></trkpt><trkpt lat="43.58809235038535" lon="11.904791488956187"><ele>541.8</ele><time>2026-04-10T14:57:28.002Z</time></trkpt><trkpt lat="43.58813114689066" lon="11.904901916560076"><ele>544.0</ele><time>2026-04-10T14:57:29.002Z</time></trkpt><trkpt lat="43.58823365436437" lon="11.904939549253235"><ele>544.0</ele><time>2026-04-10T14:57:30.002Z</time></trkpt><trkpt lat="43.588328203129734" lon="11.904954630435585"><ele>544.0</ele><time>2026-04-10T14:57:31.002Z</time></trkpt><trkpt lat="43.588413754958225" lon="11.904971686563602"><ele>544.0</ele><time>2026-04-10T14:57:32.002Z</time></trkpt><trkpt lat="43.588491390077465" lon="11.904991992669455"><ele>544.0</ele><time>2026-04-10T14:57:33.002Z</time></trkpt><trkpt lat="43.58855076962848" lon="11.905103252880329"><ele>544.0</ele><time>2026-04-10T14:57:35.002Z</time></trkpt><trkpt lat="43.588570690186565" lon="11.905278040112853"><ele>543.8</ele><time>2026-04-10T14:57:37.002Z</time></trkpt><trkpt lat="43.58859971766222" lon="11.905381717583598"><ele>543.5999999999999</ele><time>2026-04-10T14:57:38.002Z</time></trkpt><trkpt lat="43.588626207195254" lon="11.905497364081356"><ele>543.4</ele><time>2026-04-10T14:57:39.002Z</time></trkpt><trkpt lat="43.58862753115825" lon="11.905647847054885"><ele>543.1999999999999</ele><time>2026-04-10T14:57:40.002Z</time></trkpt><trkpt lat="43.58866693660153" lon="11.905801052205964"><ele>543.0</ele><time>2026-04-10T14:57:41.002Z</time></trkpt><trkpt lat="43.58882028325754" lon="11.90584390874248"><ele>544.25</ele><time>2026-04-10T14:57:42.002Z</time></trkpt><trkpt lat="43.58890668454491" lon="11.905906486661125"><ele>545.5</ele><time>2026-04-10T14:57:43.002Z</time></trkpt><trkpt lat="43.58901662682901" lon="11.905941247088686"><ele>546.75</ele><time>2026-04-10T14:57:44.002Z</time></trkpt><trkpt lat="43.589139439853774" lon="11.905973115337401"><ele>548.0</ele><time>2026-04-10T14:57:45.002Z</time></trkpt><trkpt lat="43.58924466199807" lon="11.906060682508405"><ele>548.0</ele><time>2026-04-10T14:57:46.002Z</time></trkpt><trkpt lat="43.589367530371" lon="11.906128818938534"><ele>548.0</ele><time>2026-04-10T14:57:47.002Z</time></trkpt><trkpt lat="43.58950987895026" lon="11.906137089810114"><ele>548.0</ele><time>2026-04-10T14:57:48.002Z</time></trkpt><trkpt lat="43.58965847225437" lon="11.906155847974288"><ele>548.0</ele><time>2026-04-10T14:57:49.002Z</time></trkpt><trkpt lat="43.58979029832131" lon="11.906248094955412"><ele>552.3333333333333</ele><time>2026-04-10T14:57:50.002Z</time></trkpt><trkpt lat="43.5899377670166" lon="11.906351904228197"><ele>556.6666666666666</ele><time>2026-04-10T14:57:51.002Z</time></trkpt><trkpt lat="43.59009407545947" lon="11.906458920083676"><ele>561.0</ele><time>2026-04-10T14:57:52.002Z</time></trkpt><trkpt lat="43.59026702158354" lon="11.906538363909771"><ele>566.3333333333334</ele><time>2026-04-10T14:57:53.002Z</time></trkpt><trkpt lat="43.590440010493175" lon="11.906641079368104"><ele>571.6666666666667</ele><time>2026-04-10T14:57:54.002Z</time></trkpt><trkpt lat="43.59060842498539" lon="11.906722387369296"><ele>577.0</ele><time>2026-04-10T14:57:55Z</time></trkpt><trkpt lat="43.5907669964528" lon="11.906794053321407"><ele>577.0</ele><time>2026-04-10T14:57:56Z</time></trkpt><trkpt lat="43.590898281605476" lon="11.906908950281602"><ele>577.0</ele><time>2026-04-10T14:57:57Z</time></trkpt><trkpt lat="43.591017838077256" lon="11.907038011892347"><ele>577.0</ele><time>2026-04-10T14:57:58Z</time></trkpt><trkpt lat="43.591130796671045" lon="11.907198611445063"><ele>583.3333333333334</ele><time>2026-04-10T14:57:59Z</time></trkpt><trkpt lat="43.59124342085678" lon="11.907370098312438"><ele>589.6666666666666</ele><time>2026-04-10T14:58:00Z</time></trkpt><trkpt lat="43.59136693774885" lon="11.907537232826584"><ele>596.0</ele><time>2026-04-10T14:58:01Z</time></trkpt><trkpt lat="43.591477283970654" lon="11.907712065570228"><ele>596.0</ele><time>2026-04-10T14:58:02Z</time></trkpt><trkpt lat="43.59158791878108" lon="11.907880310261582"><ele>596.0</ele><time>2026-04-10T14:58:03Z</time></trkpt><trkpt lat="43.59166785094259" lon="11.908050469807511"><ele>596.0</ele><time>2026-04-10T14:58:04Z</time></trkpt><trkpt lat="43.59174117398364" lon="11.90818906312708"><ele>596.0</ele><time>2026-04-10T14:58:05Z</time></trkpt><trkpt lat="43.59179849051988" lon="11.90830858346212"><ele>598.8</ele><time>2026-04-10T14:58:06Z</time></trkpt><trkpt lat="43.591851001457925" lon="11.908432030535874"><ele>601.6</ele><time>2026-04-10T14:58:07Z</time></trkpt><trkpt lat="43.59189605671273" lon="11.908549479728865"><ele>604.4</ele><time>2026-04-10T14:58:08Z</time></trkpt><trkpt lat="43.591874540118646" lon="11.908674826963367"><ele>607.2</ele><time>2026-04-10T14:58:09Z</time></trkpt><trkpt lat="43.591805493770146" lon="11.90876322219154"><ele>610.0</ele><time>2026-04-10T14:58:10Z</time></trkpt><trkpt lat="43.59170732959092" lon="11.908794261221685"><ele>610.0</ele><time>2026-04-10T14:58:11Z</time></trkpt><trkpt lat="43.59158784090352" lon="11.908758493140782"><ele>610.0</ele><time>2026-04-10T14:58:12Z</time></trkpt><trkpt lat="43.591457089873344" lon="11.908715623079551"><ele>610.0</ele><time>2026-04-10T14:58:13Z</time></trkpt><trkpt lat="43.591309888459726" lon="11.908675149588314"><ele>610.0</ele><time>2026-04-10T14:58:14Z</time></trkpt><trkpt lat="43.59117969411867" lon="11.908650477684413"><ele>610.4</ele><time>2026-04-10T14:58:15Z</time></trkpt><trkpt lat="43.5910712874536" lon="11.908632246047324"><ele>610.8</ele><time>2026-04-10T14:58:16Z</time></trkpt><trkpt lat="43.590974188919176" lon="11.908651025356347"><ele>611.2</ele><time>2026-04-10T14:58:17Z</time></trkpt><trkpt lat="43.59090799777765" lon="11.90873319759608"><ele>611.6</ele><time>2026-04-10T14:58:18Z</time></trkpt><trkpt lat="43.59088148498053" lon="11.908837468748017"><ele>612.0</ele><time>2026-04-10T14:58:19Z</time></trkpt><trkpt lat="43.59090904158616" lon="11.90894692496144"><ele>612.0</ele><time>2026-04-10T14:58:20Z</time></trkpt><trkpt lat="43.59096690428972" lon="11.909052638416478"><ele>612.0</ele><time>2026-04-10T14:58:21Z</time></trkpt><trkpt lat="43.591072720405286" lon="11.909083647614215"><ele>612.0</ele><time>2026-04-10T14:58:22Z</time></trkpt><trkpt lat="43.59120176830726" lon="11.909053926425042"><ele>612.0</ele><time>2026-04-10T14:58:23.001Z</time></trkpt><trkpt lat="43.5913256446576" lon="11.909033030088896"><ele>611.6666666666666</ele><time>2026-04-10T14:58:24.001Z</time></trkpt><trkpt lat="43.5914253468276" lon="11.909020495102116"><ele>611.3333333333334</ele><time>2026-04-10T14:58:25.001Z</time></trkpt><trkpt lat="43.59150265288106" lon="11.909018396566905"><ele>611.0</ele><time>2026-04-10T14:58:26.001Z</time></trkpt><trkpt lat="43.59154834254383" lon="11.909097127961497"><ele>610.6666666666667</ele><time>2026-04-10T14:58:27.001Z</time></trkpt><trkpt lat="43.591552700399475" lon="11.909187581730954"><ele>610.3333333333334</ele><time>2026-04-10T14:58:28.001Z</time></trkpt><trkpt lat="43.591506558066044" lon="11.909271702997136"><ele>610.0</ele><time>2026-04-10T14:58:29.001Z</time></trkpt><trkpt lat="43.59142131857939" lon="11.909281531669295"><ele>610.0</ele><time>2026-04-10T14:58:30.001Z</time></trkpt><trkpt lat="43.591312243320544" lon="11.909241885743198"><ele>610.0</ele><time>2026-04-10T14:58:31.001Z</time></trkpt><trkpt lat="43.59118799721634" lon="11.90920265451451"><ele>610.0</ele><time>2026-04-10T14:58:32.001Z</time></trkpt><trkpt lat="43.59104775374753" lon="11.909208348727855"><ele>610.0</ele><time>2026-04-10T14:58:33.001Z</time></trkpt><trkpt lat="43.59088979131397" lon="11.909256169320956"><ele>618.0</ele><time>2026-04-10T14:58:34.001Z</time></trkpt><trkpt lat="43.59074195243239" lon="11.909312666854792"><ele>626.0</ele><time>2026-04-10T14:58:35.001Z</time></trkpt><trkpt lat="43.59059201398872" lon="11.909399387268211"><ele>634.0</ele><time>2026-04-10T14:58:36.001Z</time></trkpt><trkpt lat="43.59043500770592" lon="11.909492052595008"><ele>632.0</ele><time>2026-04-10T14:58:37.001Z</time></trkpt><trkpt lat="43.59027929845557" lon="11.9095898989445"><ele>630.0</ele><time>2026-04-10T14:58:38.001Z</time></trkpt><trkpt lat="43.590124987456704" lon="11.909694167389791"><ele>628.0</ele><time>2026-04-10T14:58:39.001Z</time></trkpt><trkpt lat="43.58996388778272" lon="11.909798524120822"><ele>628.0</ele><time>2026-04-10T14:58:40.001Z</time></trkpt><trkpt lat="43.58980804857509" lon="11.90990034962604"><ele>628.0</ele><time>2026-04-10T14:58:41.001Z</time></trkpt><trkpt lat="43.58965966154123" lon="11.909998518557991"><ele>628.0</ele><time>2026-04-10T14:58:42.001Z</time></trkpt><trkpt lat="43.589520660208095" lon="11.910095662851239"><ele>631.3333333333334</ele><time>2026-04-10T14:58:43.001Z</time></trkpt><trkpt lat="43.589385884137215" lon="11.910201543217758"><ele>634.6666666666666</ele><time>2026-04-10T14:58:44.001Z</time></trkpt><trkpt lat="43.58925835298532" lon="11.910324951114754"><ele>638.0</ele><time>2026-04-10T14:58:45.001Z</time></trkpt><trkpt lat="43.589138137529645" lon="11.910470092152377"><ele>638.0</ele><time>2026-04-10T14:58:46.001Z</time></trkpt><trkpt lat="43.58902463642017" lon="11.910639480574934"><ele>638.0</ele><time>2026-04-10T14:58:47.001Z</time></trkpt><trkpt lat="43.588918978378246" lon="11.9108274117085"><ele>638.0</ele><time>2026-04-10T14:58:48.001Z</time></trkpt><trkpt lat="43.588825794288944" lon="11.911008965222768"><ele>637.3333333333333</ele><time>2026-04-10T14:58:49.001Z</time></trkpt><trkpt lat="43.58875370711514" lon="11.91118294026742"><ele>636.6666666666666</ele><time>2026-04-10T14:58:50.001Z</time></trkpt><trkpt lat="43.58869613323517" lon="11.911382212787517"><ele>636.0</ele><time>2026-04-10T14:58:51.001Z</time></trkpt><trkpt lat="43.588670368989476" lon="11.91158527427586"><ele>638.75</ele><time>2026-04-10T14:58:52.001Z</time></trkpt><trkpt lat="43.5886714075249" lon="11.911773572152946"><ele>641.5</ele><time>2026-04-10T14:58:53.001Z</time></trkpt><trkpt lat="43.58870983910518" lon="11.911947122072705"><ele>644.25</ele><time>2026-04-10T14:58:54.001Z</time></trkpt><trkpt lat="43.58872240395218" lon="11.912099241593062"><ele>647.0</ele><time>2026-04-10T14:58:55.001Z</time></trkpt><trkpt lat="43.588675201591045" lon="11.912223254840795"><ele>647.0</ele><time>2026-04-10T14:58:56.001Z</time></trkpt><trkpt lat="43.588580201666055" lon="11.91230827937697"><ele>647.0</ele><time>2026-04-10T14:58:57.001Z</time></trkpt><trkpt lat="43.58846914049459" lon="11.912402375126238"><ele>647.0</ele><time>2026-04-10T14:58:58.001Z</time></trkpt><trkpt lat="43.58836289858029" lon="11.912516896363726"><ele>647.0</ele><time>2026-04-10T14:58:59.001Z</time></trkpt><trkpt lat="43.58827611272349" lon="11.912621916934842"><ele>648.6</ele><time>2026-04-10T14:59:00.001Z</time></trkpt><trkpt lat="43.588193279755025" lon="11.912716475224808"><ele>650.2</ele><time>2026-04-10T14:59:01.001Z</time></trkpt><trkpt lat="43.58811567445145" lon="11.912804737129221"><ele>651.8</ele><time>2026-04-10T14:59:02.001Z</time></trkpt><trkpt lat="43.58804944152943" lon="11.912896710487322"><ele>653.4</ele><time>2026-04-10T14:59:03.001Z</time></trkpt><trkpt lat="43.587999699338084" lon="11.912990043365092"><ele>655.0</ele><time>2026-04-10T14:59:04.001Z</time></trkpt><trkpt lat="43.58796078225569" lon="11.913088720683145"><ele>655.0</ele><time>2026-04-10T14:59:05.001Z</time></trkpt><trkpt lat="43.58793199230247" lon="11.913187362882969"><ele>655.0</ele><time>2026-04-10T14:59:06.001Z</time></trkpt><trkpt lat="43.5879094052731" lon="11.913285652971162"><ele>655.0</ele><time>2026-04-10T14:59:07.001Z</time></trkpt><trkpt lat="43.58789947878402" lon="11.913383693709898"><ele>655.0</ele><time>2026-04-10T14:59:08.001Z</time></trkpt><trkpt lat="43.58789963600424" lon="11.913477604672837"><ele>655.0</ele><time>2026-04-10T14:59:09.001Z</time></trkpt><trkpt lat="43.58790268724829" lon="11.913577216207555"><ele>655.0</ele><time>2026-04-10T14:59:10.001Z</time></trkpt><trkpt lat="43.5879249136221" lon="11.913700742482657"><ele>655.75</ele><time>2026-04-10T14:59:11.001Z</time></trkpt><trkpt lat="43.58796068214877" lon="11.913832524642745"><ele>656.5</ele><time>2026-04-10T14:59:12.001Z</time></trkpt><trkpt lat="43.5880131115675" lon="11.913984550693929"><ele>657.25</ele><time>2026-04-10T14:59:13.001Z</time></trkpt><trkpt lat="43.58806605576003" lon="11.914146053261563"><ele>658.0</ele><time>2026-04-10T14:59:14.001Z</time></trkpt><trkpt lat="43.58810988255888" lon="11.914290295031432"><ele>656.2</ele><time>2026-04-10T14:59:15.001Z</time></trkpt><trkpt lat="43.58814983221888" lon="11.914423200997824"><ele>654.4</ele><time>2026-04-10T14:59:16.001Z</time></trkpt><trkpt lat="43.58819696227105" lon="11.914545696694647"><ele>652.6</ele><time>2026-04-10T14:59:17.002Z</time></trkpt><trkpt lat="43.58823755464535" lon="11.914672000622412"><ele>650.8000000000001</ele><time>2026-04-10T14:59:18.002Z</time></trkpt><trkpt lat="43.58831501360373" lon="11.914755821406485"><ele>649.0</ele><time>2026-04-10T14:59:19.002Z</time></trkpt><trkpt lat="43.588391623371" lon="11.914835104903771"><ele>649.0</ele><time>2026-04-10T14:59:20.002Z</time></trkpt><trkpt lat="43.5884826388305" lon="11.914906536185512"><ele>649.0</ele><time>2026-04-10T14:59:21.002Z</time></trkpt><trkpt lat="43.58857515264928" lon="11.914988315409166"><ele>649.0</ele><time>2026-04-10T14:59:22.002Z</time></trkpt><trkpt lat="43.58865846874593" lon="11.915083372486947"><ele>649.0</ele><time>2026-04-10T14:59:23.002Z</time></trkpt><trkpt lat="43.588718038428155" lon="11.915211973512474"><ele>649.0</ele><time>2026-04-10T14:59:24.002Z</time></trkpt><trkpt lat="43.58876287105278" lon="11.91534705048336"><ele>653.1666666666667</ele><time>2026-04-10T14:59:25.002Z</time></trkpt><trkpt lat="43.588789343727804" lon="11.915484187569216"><ele>657.3333333333334</ele><time>2026-04-10T14:59:26.002Z</time></trkpt><trkpt lat="43.58884960072202" lon="11.915594281354057"><ele>661.5</ele><time>2026-04-10T14:59:27.002Z</time></trkpt><trkpt lat="43.58891045306809" lon="11.915675953960175"><ele>665.6666666666666</ele><time>2026-04-10T14:59:28.002Z</time></trkpt><trkpt lat="43.58896256671786" lon="11.9157523695512"><ele>669.8333333333333</ele><time>2026-04-10T14:59:29.002Z</time></trkpt><trkpt lat="43.58901077844923" lon="11.915815208960614"><ele>674.0</ele><time>2026-04-10T14:59:30.002Z</time></trkpt><trkpt lat="43.589020372946074" lon="11.915929142197303"><ele>675.0</ele><time>2026-04-10T14:59:31.002Z</time></trkpt><trkpt lat="43.58900155764972" lon="11.916051783287605"><ele>676.0</ele><time>2026-04-10T14:59:32.002Z</time></trkpt><trkpt lat="43.588929501471114" lon="11.916135401832502"><ele>677.0</ele><time>2026-04-10T14:59:33.002Z</time></trkpt><trkpt lat="43.58886745469696" lon="11.916248754921652"><ele>678.0</ele><time>2026-04-10T14:59:34.002Z</time></trkpt><trkpt lat="43.588799872261845" lon="11.916376163151583"><ele>679.0</ele><time>2026-04-10T14:59:35.002Z</time></trkpt><trkpt lat="43.5887210922734" lon="11.916507568096954"><ele>673.6</ele><time>2026-04-10T14:59:36.002Z</time></trkpt><trkpt lat="43.5886524362805" lon="11.916639438999221"><ele>668.2</ele><time>2026-04-10T14:59:37.002Z</time></trkpt><trkpt lat="43.58859116932366" lon="11.91676967747937"><ele>662.8000000000001</ele><time>2026-04-10T14:59:38.002Z</time></trkpt><trkpt lat="43.58853254244545" lon="11.916896822710315"><ele>657.4000000000001</ele><time>2026-04-10T14:59:39.002Z</time></trkpt><trkpt lat="43.58849139589032" lon="11.917027213149058"><ele>652.0</ele><time>2026-04-10T14:59:40.002Z</time></trkpt><trkpt lat="43.588467497150646" lon="11.917179983760441"><ele>652.0</ele><time>2026-04-10T14:59:41.002Z</time></trkpt><trkpt lat="43.58846279506187" lon="11.917346270048728"><ele>652.0</ele><time>2026-04-10T14:59:42.002Z</time></trkpt><trkpt lat="43.58848480390946" lon="11.917493714437493"><ele>652.0</ele><time>2026-04-10T14:59:43.002Z</time></trkpt><trkpt lat="43.58852552848256" lon="11.917612543321612"><ele>652.0</ele><time>2026-04-10T14:59:44.002Z</time></trkpt><trkpt lat="43.58856931501748" lon="11.917702206689547"><ele>652.0</ele><time>2026-04-10T14:59:45.002Z</time></trkpt><trkpt lat="43.588666879127" lon="11.917689339890401"><ele>655.0</ele><time>2026-04-10T14:59:46.002Z</time></trkpt><trkpt lat="43.588770400616994" lon="11.917648902872932"><ele>658.0</ele><time>2026-04-10T14:59:47.002Z</time></trkpt><trkpt lat="43.58888847813847" lon="11.917626140913795"><ele>661.0</ele><time>2026-04-10T14:59:48.002Z</time></trkpt><trkpt lat="43.589006257641586" lon="11.917589626679645"><ele>664.0</ele><time>2026-04-10T14:59:49.002Z</time></trkpt><trkpt lat="43.589107589360275" lon="11.917562827547274"><ele>666.0</ele><time>2026-04-10T14:59:50.002Z</time></trkpt><trkpt lat="43.58920990470289" lon="11.917547189996114"><ele>668.0</ele><time>2026-04-10T14:59:51.002Z</time></trkpt><trkpt lat="43.589306857289806" lon="11.917546606373802"><ele>670.0</ele><time>2026-04-10T14:59:52.002Z</time></trkpt><trkpt lat="43.589393054331794" lon="11.917550345200459"><ele>672.0</ele><time>2026-04-10T14:59:53.002Z</time></trkpt><trkpt lat="43.58947350999136" lon="11.917559893370365"><ele>674.0</ele><time>2026-04-10T14:59:54.002Z</time></trkpt><trkpt lat="43.589543949722604" lon="11.917591377212428"><ele>676.0</ele><time>2026-04-10T14:59:55.002Z</time></trkpt><trkpt lat="43.58955144396307" lon="11.917720742157549"><ele>673.5999999999999</ele><time>2026-04-10T14:59:56.002Z</time></trkpt><trkpt lat="43.589528369679115" lon="11.917820804492308"><ele>671.2</ele><time>2026-04-10T14:59:57.002Z</time></trkpt><trkpt lat="43.589462371953175" lon="11.917919445548652"><ele>668.8</ele><time>2026-04-10T14:59:58.002Z</time></trkpt><trkpt lat="43.589380104153946" lon="11.918022265916264"><ele>666.4000000000001</ele><time>2026-04-10T14:59:59.002Z</time></trkpt><trkpt lat="43.58930325332521" lon="11.918135328381481"><ele>664.0</ele><time>2026-04-10T15:00:00.002Z</time></trkpt><trkpt lat="43.58925339830019" lon="11.918258639075638"><ele>664.0</ele><time>2026-04-10T15:00:01Z</time></trkpt><trkpt lat="43.58922941723569" lon="11.918395464260513"><ele>664.0</ele><time>2026-04-10T15:00:02Z</time></trkpt><trkpt lat="43.58922354997405" lon="11.918544036291632"><ele>664.0</ele><time>2026-04-10T15:00:03Z</time></trkpt><trkpt lat="43.5892088803831" lon="11.918687976994104"><ele>664.0</ele><time>2026-04-10T15:00:04Z</time></trkpt><trkpt lat="43.58918889132423" lon="11.918820481618797"><ele>664.0</ele><time>2026-04-10T15:00:05Z</time></trkpt><trkpt lat="43.58917832306986" lon="11.918947509795277"><ele>664.0</ele><time>2026-04-10T15:00:06Z</time></trkpt><trkpt lat="43.589185936645066" lon="11.9190595721362"><ele>664.0</ele><time>2026-04-10T15:00:07Z</time></trkpt><trkpt lat="43.58923062203583" lon="11.919166245479087"><ele>664.0</ele><time>2026-04-10T15:00:08Z</time></trkpt><trkpt lat="43.58931543158095" lon="11.919265464904285"><ele>664.0</ele><time>2026-04-10T15:00:09Z</time></trkpt><trkpt lat="43.58941422574892" lon="11.919365564096005"><ele>664.0</ele><time>2026-04-10T15:00:10Z</time></trkpt><trkpt lat="43.58948710935097" lon="11.919484371315855"><ele>664.0</ele><time>2026-04-10T15:00:11Z</time></trkpt><trkpt lat="43.58956259567744" lon="11.919573970385052"><ele>664.0</ele><time>2026-04-10T15:00:12Z</time></trkpt><trkpt lat="43.58962476280228" lon="11.919650592356813"><ele>664.0</ele><time>2026-04-10T15:00:13Z</time></trkpt><trkpt lat="43.58965809746406" lon="11.919729911665684"><ele>664.0</ele><time>2026-04-10T15:00:14Z</time></trkpt><trkpt lat="43.589608232678195" lon="11.919895370443557"><ele>664.0</ele><time>2026-04-10T15:00:16Z</time></trkpt><trkpt lat="43.58949990650725" lon="11.919965785912565"><ele>664.0</ele><time>2026-04-10T15:00:17Z</time></trkpt><trkpt lat="43.58936172026825" lon="11.920031920433047"><ele>664.0</ele><time>2026-04-10T15:00:18Z</time></trkpt><trkpt lat="43.58922036138031" lon="11.9201038767214"><ele>664.0</ele><time>2026-04-10T15:00:19Z</time></trkpt><trkpt lat="43.589075219460796" lon="11.920154420604101"><ele>664.0</ele><time>2026-04-10T15:00:20Z</time></trkpt><trkpt lat="43.588936165244164" lon="11.920166173911287"><ele>668.0</ele><time>2026-04-10T15:00:21Z</time></trkpt><trkpt lat="43.58880079529025" lon="11.920160122399285"><ele>672.0</ele><time>2026-04-10T15:00:22Z</time></trkpt><trkpt lat="43.58868445655684" lon="11.920166308386626"><ele>676.0</ele><time>2026-04-10T15:00:23Z</time></trkpt><trkpt lat="43.58857972612781" lon="11.920188609032188"><ele>680.0</ele><time>2026-04-10T15:00:24Z</time></trkpt><trkpt lat="43.58848214576492" lon="11.920249209454276"><ele>680.0</ele><time>2026-04-10T15:00:25Z</time></trkpt><trkpt lat="43.58841555626317" lon="11.920338255238777"><ele>680.0</ele><time>2026-04-10T15:00:26Z</time></trkpt><trkpt lat="43.58837202702081" lon="11.920427257787859"><ele>680.0</ele><time>2026-04-10T15:00:27Z</time></trkpt><trkpt lat="43.58841935683976" lon="11.9205504334532"><ele>680.0</ele><time>2026-04-10T15:00:28Z</time></trkpt><trkpt lat="43.58846699430316" lon="11.92063887647114"><ele>680.0</ele><time>2026-04-10T15:00:29Z</time></trkpt><trkpt lat="43.588586592074776" lon="11.920638975282555"><ele>680.0</ele><time>2026-04-10T15:00:30Z</time></trkpt><trkpt lat="43.58866739271845" lon="11.920532281817632"><ele>680.0</ele><time>2026-04-10T15:00:31Z</time></trkpt><trkpt lat="43.5887296729598" lon="11.920437882220535"><ele>680.0</ele><time>2026-04-10T15:00:32Z</time></trkpt><trkpt lat="43.58880844754077" lon="11.920546553839406"><ele>680.0</ele><time>2026-04-10T15:00:34Z</time></trkpt><trkpt lat="43.58877274504526" lon="11.92063702555585"><ele>680.0</ele><time>2026-04-10T15:00:35Z</time></trkpt><trkpt lat="43.58868893379838" lon="11.920707688430035"><ele>680.0</ele><time>2026-04-10T15:00:36.001Z</time></trkpt><trkpt lat="43.58858543010932" lon="11.92078824136904"><ele>680.0</ele><time>2026-04-10T15:00:37.001Z</time></trkpt><trkpt lat="43.58847232499231" lon="11.920893615764182"><ele>680.0</ele><time>2026-04-10T15:00:38.001Z</time></trkpt><trkpt lat="43.5883767913713" lon="11.921007421176602"><ele>680.0</ele><time>2026-04-10T15:00:39.001Z</time></trkpt><trkpt lat="43.58828962697996" lon="11.92111116254036"><ele>683.0</ele><time>2026-04-10T15:00:40.001Z</time></trkpt><trkpt lat="43.58820677957476" lon="11.921201270907734"><ele>686.0</ele><time>2026-04-10T15:00:41.001Z</time></trkpt><trkpt lat="43.58813878199824" lon="11.921290848376882"><ele>689.0</ele><time>2026-04-10T15:00:42.001Z</time></trkpt><trkpt lat="43.58810116810163" lon="11.921423025083229"><ele>692.0</ele><time>2026-04-10T15:00:43.001Z</time></trkpt><trkpt lat="43.5880896414341" lon="11.921597669109394"><ele>695.0</ele><time>2026-04-10T15:00:44.001Z</time></trkpt><trkpt lat="43.588073666449525" lon="11.921763449131419"><ele>697.4</ele><time>2026-04-10T15:00:45.001Z</time></trkpt><trkpt lat="43.58803388723461" lon="11.921897137841256"><ele>699.8</ele><time>2026-04-10T15:00:46.001Z</time></trkpt><trkpt lat="43.58795805978049" lon="11.922004529749621"><ele>702.2</ele><time>2026-04-10T15:00:47.001Z</time></trkpt><trkpt lat="43.587857200928305" lon="11.922092932715847"><ele>704.6</ele><time>2026-04-10T15:00:48.001Z</time></trkpt><trkpt lat="43.587754788234754" lon="11.92216264088721"><ele>707.0</ele><time>2026-04-10T15:00:49.001Z</time></trkpt><trkpt lat="43.58766045238496" lon="11.922234407097525"><ele>702.6</ele><time>2026-04-10T15:00:50.001Z</time></trkpt><trkpt lat="43.58758657025313" lon="11.922320944950782"><ele>698.2</ele><time>2026-04-10T15:00:51.001Z</time></trkpt><trkpt lat="43.58754459923004" lon="11.92244962998183"><ele>693.8</ele><time>2026-04-10T15:00:52.001Z</time></trkpt><trkpt lat="43.58754724004291" lon="11.922606690230449"><ele>689.4</ele><time>2026-04-10T15:00:53.001Z</time></trkpt><trkpt lat="43.5875517844062" lon="11.922783557034155"><ele>685.0</ele><time>2026-04-10T15:00:54.001Z</time></trkpt><trkpt lat="43.587559950763456" lon="11.922936216042814"><ele>685.0</ele><time>2026-04-10T15:00:55.001Z</time></trkpt><trkpt lat="43.58756292552848" lon="11.923089650410569"><ele>685.0</ele><time>2026-04-10T15:00:56.001Z</time></trkpt><trkpt lat="43.587520406201975" lon="11.923243035043107"><ele>685.0</ele><time>2026-04-10T15:00:57.001Z</time></trkpt><trkpt lat="43.587445466234215" lon="11.923376460280519"><ele>685.0</ele><time>2026-04-10T15:00:58.001Z</time></trkpt><trkpt lat="43.58734941845899" lon="11.923490866082702"><ele>686.5</ele><time>2026-04-10T15:00:59.001Z</time></trkpt><trkpt lat="43.587260168877" lon="11.923620667756849"><ele>688.0</ele><time>2026-04-10T15:01:00.001Z</time></trkpt><trkpt lat="43.587208319691676" lon="11.923784530183097"><ele>689.5</ele><time>2026-04-10T15:01:01.001Z</time></trkpt><trkpt lat="43.587179361327166" lon="11.92395641702746"><ele>691.0</ele><time>2026-04-10T15:01:02.001Z</time></trkpt><trkpt lat="43.587162808308506" lon="11.924113022038105"><ele>691.75</ele><time>2026-04-10T15:01:03.001Z</time></trkpt><trkpt lat="43.58712520724837" lon="11.924250555448321"><ele>692.5</ele><time>2026-04-10T15:01:04.001Z</time></trkpt><trkpt lat="43.58702906913642" lon="11.924333705801153"><ele>693.25</ele><time>2026-04-10T15:01:05.001Z</time></trkpt><trkpt lat="43.586911189656284" lon="11.92436757816359"><ele>694.0</ele><time>2026-04-10T15:01:06.001Z</time></trkpt><trkpt lat="43.58679356425186" lon="11.924387856629291"><ele>694.0</ele><time>2026-04-10T15:01:07.001Z</time></trkpt><trkpt lat="43.58668465016754" lon="11.924407378853248"><ele>694.0</ele><time>2026-04-10T15:01:08.001Z</time></trkpt><trkpt lat="43.58658010444237" lon="11.924442082194886"><ele>694.0</ele><time>2026-04-10T15:01:09.001Z</time></trkpt><trkpt lat="43.58648332105784" lon="11.924532075398727"><ele>694.0</ele><time>2026-04-10T15:01:10.001Z</time></trkpt><trkpt lat="43.5864092582275" lon="11.924669872320168"><ele>694.0</ele><time>2026-04-10T15:01:11.001Z</time></trkpt><trkpt lat="43.586345927240906" lon="11.924828339796914"><ele>694.0</ele><time>2026-04-10T15:01:12.001Z</time></trkpt><trkpt lat="43.58627479380298" lon="11.924949697801244"><ele>694.0</ele><time>2026-04-10T15:01:13.001Z</time></trkpt><trkpt lat="43.58618476866397" lon="11.925046049023404"><ele>694.0</ele><time>2026-04-10T15:01:14.001Z</time></trkpt><trkpt lat="43.58610344995096" lon="11.925135688996269"><ele>693.0</ele><time>2026-04-10T15:01:15.001Z</time></trkpt><trkpt lat="43.58604593061326" lon="11.925259863978901"><ele>692.0</ele><time>2026-04-10T15:01:16.001Z</time></trkpt><trkpt lat="43.586005025939734" lon="11.925424081342173"><ele>691.0</ele><time>2026-04-10T15:01:17.001Z</time></trkpt><trkpt lat="43.58596860117363" lon="11.925605751065769"><ele>690.0</ele><time>2026-04-10T15:01:18.001Z</time></trkpt><trkpt lat="43.5859388444905" lon="11.925781320790502"><ele>692.75</ele><time>2026-04-10T15:01:19.001Z</time></trkpt><trkpt lat="43.585934709640966" lon="11.925953976456439"><ele>695.5</ele><time>2026-04-10T15:01:20.001Z</time></trkpt><trkpt lat="43.58593792892285" lon="11.926120640947085"><ele>698.25</ele><time>2026-04-10T15:01:21.001Z</time></trkpt><trkpt lat="43.58592860145666" lon="11.926268198857668"><ele>701.0</ele><time>2026-04-10T15:01:22.001Z</time></trkpt><trkpt lat="43.585896228071036" lon="11.926397962858882"><ele>701.0</ele><time>2026-04-10T15:01:23.001Z</time></trkpt><trkpt lat="43.58581943000375" lon="11.92647638698485"><ele>701.0</ele><time>2026-04-10T15:01:24.001Z</time></trkpt><trkpt lat="43.58571881373951" lon="11.926478670567917"><ele>701.0</ele><time>2026-04-10T15:01:25.001Z</time></trkpt><trkpt lat="43.58563208455988" lon="11.926401536940416"><ele>701.0</ele><time>2026-04-10T15:01:26.001Z</time></trkpt><trkpt lat="43.585586785287745" lon="11.926288553230485"><ele>701.0</ele><time>2026-04-10T15:01:27.001Z</time></trkpt><trkpt lat="43.58554531723593" lon="11.926161917779494"><ele>701.0</ele><time>2026-04-10T15:01:28.001Z</time></trkpt><trkpt lat="43.58546067215536" lon="11.926075724362198"><ele>701.0</ele><time>2026-04-10T15:01:29.001Z</time></trkpt><trkpt lat="43.58535569553222" lon="11.92604860941252"><ele>701.0</ele><time>2026-04-10T15:01:30.001Z</time></trkpt><trkpt lat="43.585244197998264" lon="11.926081563982493"><ele>701.0</ele><time>2026-04-10T15:01:31.001Z</time></trkpt><trkpt lat="43.585122168750424" lon="11.926153823762363"><ele>700.75</ele><time>2026-04-10T15:01:32.002Z</time></trkpt><trkpt lat="43.584998269360185" lon="11.92624937416041"><ele>700.5</ele><time>2026-04-10T15:01:33.002Z</time></trkpt><trkpt lat="43.584878432016914" lon="11.926338254303385"><ele>700.25</ele><time>2026-04-10T15:01:34.002Z</time></trkpt><trkpt lat="43.58476058302362" lon="11.926417348013567"><ele>700.0</ele><time>2026-04-10T15:01:35.002Z</time></trkpt><trkpt lat="43.58464528021192" lon="11.926472895825244"><ele>700.0</ele><time>2026-04-10T15:01:36.002Z</time></trkpt><trkpt lat="43.5845355185211" lon="11.92650350161842"><ele>700.0</ele><time>2026-04-10T15:01:37.002Z</time></trkpt><trkpt lat="43.58443656643782" lon="11.926560019818009"><ele>700.0</ele><time>2026-04-10T15:01:38.002Z</time></trkpt><trkpt lat="43.584345467546946" lon="11.926662013445908"><ele>700.0</ele><time>2026-04-10T15:01:39.002Z</time></trkpt><trkpt lat="43.584263940753495" lon="11.926805389141169"><ele>699.75</ele><time>2026-04-10T15:01:40.002Z</time></trkpt><trkpt lat="43.584197376925445" lon="11.926973346196945"><ele>699.5</ele><time>2026-04-10T15:01:41.002Z</time></trkpt><trkpt lat="43.58414724638952" lon="11.927157275046955"><ele>699.25</ele><time>2026-04-10T15:01:42.002Z</time></trkpt><trkpt lat="43.58410720048196" lon="11.927331712843575"><ele>699.0</ele><time>2026-04-10T15:01:43.002Z</time></trkpt><trkpt lat="43.58407721114427" lon="11.927499605461414"><ele>701.25</ele><time>2026-04-10T15:01:44.002Z</time></trkpt><trkpt lat="43.58406524811208" lon="11.927673174468321"><ele>703.5</ele><time>2026-04-10T15:01:45.002Z</time></trkpt><trkpt lat="43.58408231118681" lon="11.92785486292239"><ele>705.75</ele><time>2026-04-10T15:01:46.002Z</time></trkpt><trkpt lat="43.58408232817385" lon="11.92804872019352"><ele>708.0</ele><time>2026-04-10T15:01:47.002Z</time></trkpt><trkpt lat="43.584088657406305" lon="11.928245709623155"><ele>710.5</ele><time>2026-04-10T15:01:48.002Z</time></trkpt><trkpt lat="43.584028343386294" lon="11.92842300829993"><ele>713.0</ele><time>2026-04-10T15:01:49.002Z</time></trkpt><trkpt lat="43.5839751322368" lon="11.928585197546969"><ele>715.5</ele><time>2026-04-10T15:01:50.002Z</time></trkpt><trkpt lat="43.58391671805835" lon="11.928742586483468"><ele>718.0</ele><time>2026-04-10T15:01:51.002Z</time></trkpt><trkpt lat="43.583813040081" lon="11.928840862192681"><ele>718.0</ele><time>2026-04-10T15:01:52.002Z</time></trkpt><trkpt lat="43.583686111824704" lon="11.928833633557723"><ele>718.0</ele><time>2026-04-10T15:01:53.002Z</time></trkpt><trkpt lat="43.58356301626863" lon="11.92886992562955"><ele>718.0</ele><time>2026-04-10T15:01:54.002Z</time></trkpt><trkpt lat="43.58343978022373" lon="11.92893694659198"><ele>718.0</ele><time>2026-04-10T15:01:55.002Z</time></trkpt><trkpt lat="43.58331311970636" lon="11.929053515333168"><ele>718.3333333333334</ele><time>2026-04-10T15:01:56.002Z</time></trkpt><trkpt lat="43.5831806887505" lon="11.929177781890285"><ele>718.6666666666666</ele><time>2026-04-10T15:01:57.002Z</time></trkpt><trkpt lat="43.58305062319132" lon="11.92929556031349"><ele>719.0</ele><time>2026-04-10T15:01:58.002Z</time></trkpt><trkpt lat="43.58292853981407" lon="11.929404665383405"><ele>716.0</ele><time>2026-04-10T15:01:59.002Z</time></trkpt><trkpt lat="43.58281533463668" lon="11.929510182665885"><ele>713.0</ele><time>2026-04-10T15:02:00.002Z</time></trkpt><trkpt lat="43.58270824200421" lon="11.929612615019973"><ele>710.0</ele><time>2026-04-10T15:02:01.002Z</time></trkpt><trkpt lat="43.58260320608259" lon="11.929705141246385"><ele>707.0</ele><time>2026-04-10T15:02:02.002Z</time></trkpt><trkpt lat="43.582493057197624" lon="11.929770214645288"><ele>707.0</ele><time>2026-04-10T15:02:03.002Z</time></trkpt><trkpt lat="43.5823742829707" lon="11.929794221961666"><ele>707.0</ele><time>2026-04-10T15:02:04.002Z</time></trkpt><trkpt lat="43.58225844540795" lon="11.929777968652962"><ele>707.0</ele><time>2026-04-10T15:02:05.002Z</time></trkpt><trkpt lat="43.58213643664287" lon="11.929737195016806"><ele>707.0</ele><time>2026-04-10T15:02:06.002Z</time></trkpt><trkpt lat="43.582018864549795" lon="11.92970490687329"><ele>705.6</ele><time>2026-04-10T15:02:07Z</time></trkpt><trkpt lat="43.5819106240984" lon="11.929708553804257"><ele>704.2</ele><time>2026-04-10T15:02:08Z</time></trkpt><trkpt lat="43.58183363131095" lon="11.929768880702781"><ele>702.8</ele><time>2026-04-10T15:02:09Z</time></trkpt><trkpt lat="43.58179406203755" lon="11.929878421274353"><ele>701.4</ele><time>2026-04-10T15:02:10Z</time></trkpt><trkpt lat="43.58179278183891" lon="11.93002831027234"><ele>700.0</ele><time>2026-04-10T15:02:11Z</time></trkpt><trkpt lat="43.58181001249547" lon="11.930219936219247"><ele>699.25</ele><time>2026-04-10T15:02:12Z</time></trkpt><trkpt lat="43.581825103175575" lon="11.930410762619017"><ele>698.5</ele><time>2026-04-10T15:02:13Z</time></trkpt><trkpt lat="43.58183641730316" lon="11.930593358461367"><ele>697.75</ele><time>2026-04-10T15:02:14Z</time></trkpt><trkpt lat="43.58184933647739" lon="11.930775281919448"><ele>697.0</ele><time>2026-04-10T15:02:15Z</time></trkpt><trkpt lat="43.58185812018656" lon="11.930958472330927"><ele>696.25</ele><time>2026-04-10T15:02:16Z</time></trkpt><trkpt lat="43.58186240828036" lon="11.931143859439361"><ele>695.5</ele><time>2026-04-10T15:02:17Z</time></trkpt><trkpt lat="43.58184303223734" lon="11.931327325539081"><ele>694.75</ele><time>2026-04-10T15:02:18Z</time></trkpt><trkpt lat="43.58179964441135" lon="11.931503982147587"><ele>694.0</ele><time>2026-04-10T15:02:19Z</time></trkpt><trkpt lat="43.58175810165459" lon="11.931678678701283"><ele>693.25</ele><time>2026-04-10T15:02:20Z</time></trkpt><trkpt lat="43.58171634528363" lon="11.93185660687282"><ele>692.5</ele><time>2026-04-10T15:02:21Z</time></trkpt><trkpt lat="43.58167402817323" lon="11.9320338122909"><ele>691.75</ele><time>2026-04-10T15:02:22Z</time></trkpt><trkpt lat="43.58163355141458" lon="11.932211728422724"><ele>691.0</ele><time>2026-04-10T15:02:23Z</time></trkpt><trkpt lat="43.581611420624704" lon="11.932396120486045"><ele>689.75</ele><time>2026-04-10T15:02:24Z</time></trkpt><trkpt lat="43.58161128382814" lon="11.93258330259329"><ele>688.5</ele><time>2026-04-10T15:02:25Z</time></trkpt><trkpt lat="43.581619883751436" lon="11.932767577849393"><ele>687.25</ele><time>2026-04-10T15:02:26Z</time></trkpt><trkpt lat="43.581633116167055" lon="11.932945883428886"><ele>686.0</ele><time>2026-04-10T15:02:27Z</time></trkpt><trkpt lat="43.58166142088588" lon="11.93311452714453"><ele>686.0</ele><time>2026-04-10T15:02:28Z</time></trkpt><trkpt lat="43.58171290592424" lon="11.933275130098044"><ele>686.0</ele><time>2026-04-10T15:02:29Z</time></trkpt><trkpt lat="43.581785002437805" lon="11.933429932412086"><ele>686.0</ele><time>2026-04-10T15:02:30Z</time></trkpt><trkpt lat="43.581864690082945" lon="11.933588252794067"><ele>686.0</ele><time>2026-04-10T15:02:31Z</time></trkpt><trkpt lat="43.581944451844684" lon="11.933751963786293"><ele>692.0</ele><time>2026-04-10T15:02:32Z</time></trkpt><trkpt lat="43.58202748510948" lon="11.933921784415764"><ele>698.0</ele><time>2026-04-10T15:02:33Z</time></trkpt><trkpt lat="43.5821106698678" lon="11.93409671499944"><ele>704.0</ele><time>2026-04-10T15:02:34Z</time></trkpt><trkpt lat="43.58219811035834" lon="11.934267706016234"><ele>704.0</ele><time>2026-04-10T15:02:35Z</time></trkpt><trkpt lat="43.582277430710214" lon="11.934448747264998"><ele>704.0</ele><time>2026-04-10T15:02:36Z</time></trkpt><trkpt lat="43.5823747574288" lon="11.934610557332578"><ele>704.0</ele><time>2026-04-10T15:02:37Z</time></trkpt><trkpt lat="43.58247204741523" lon="11.934766571112357"><ele>704.0</ele><time>2026-04-10T15:02:38Z</time></trkpt><trkpt lat="43.58256749518266" lon="11.934919630705657"><ele>704.0</ele><time>2026-04-10T15:02:39Z</time></trkpt><trkpt lat="43.58265654725512" lon="11.935053810415093"><ele>704.0</ele><time>2026-04-10T15:02:40Z</time></trkpt><trkpt lat="43.58273496315935" lon="11.935165024233818"><ele>704.0</ele><time>2026-04-10T15:02:41Z</time></trkpt><trkpt lat="43.582753718104264" lon="11.935309599106589"><ele>705.75</ele><time>2026-04-10T15:02:42Z</time></trkpt><trkpt lat="43.582719864013505" lon="11.93546826172026"><ele>707.5</ele><time>2026-04-10T15:02:43Z</time></trkpt><trkpt lat="43.58264229379598" lon="11.935616818771022"><ele>709.25</ele><time>2026-04-10T15:02:44Z</time></trkpt><trkpt lat="43.58255840583134" lon="11.93576158235775"><ele>711.0</ele><time>2026-04-10T15:02:45.001Z</time></trkpt><trkpt lat="43.58249105192847" lon="11.935924715907516"><ele>714.25</ele><time>2026-04-10T15:02:46.001Z</time></trkpt><trkpt lat="43.582432496666115" lon="11.936101212132256"><ele>717.5</ele><time>2026-04-10T15:02:47.001Z</time></trkpt><trkpt lat="43.58237223757175" lon="11.936260112583957"><ele>720.75</ele><time>2026-04-10T15:02:48.001Z</time></trkpt><trkpt lat="43.58228320233837" lon="11.936394390537574"><ele>724.0</ele><time>2026-04-10T15:02:49.001Z</time></trkpt><trkpt lat="43.58218048585219" lon="11.93650841539689"><ele>724.0</ele><time>2026-04-10T15:02:50.001Z</time></trkpt><trkpt lat="43.58209303261142" lon="11.936641312100113"><ele>724.0</ele><time>2026-04-10T15:02:51.001Z</time></trkpt><trkpt lat="43.582035327845645" lon="11.936796889224283"><ele>724.0</ele><time>2026-04-10T15:02:52.001Z</time></trkpt><trkpt lat="43.58201252446305" lon="11.936961146971562"><ele>724.0</ele><time>2026-04-10T15:02:53.001Z</time></trkpt><trkpt lat="43.582022635018376" lon="11.937147672044897"><ele>725.0</ele><time>2026-04-10T15:02:54.001Z</time></trkpt><trkpt lat="43.58205536319503" lon="11.937320337440356"><ele>726.0</ele><time>2026-04-10T15:02:55.001Z</time></trkpt><trkpt lat="43.58210979424914" lon="11.937452203423547"><ele>727.0</ele><time>2026-04-10T15:02:56.001Z</time></trkpt><trkpt lat="43.5821787290047" lon="11.937543634166893"><ele>728.0</ele><time>2026-04-10T15:02:57.001Z</time></trkpt><trkpt lat="43.582248789350814" lon="11.937606122552241"><ele>729.0</ele><time>2026-04-10T15:02:58.001Z</time></trkpt><trkpt lat="43.58231475772306" lon="11.93765610073736"><ele>726.8000000000001</ele><time>2026-04-10T15:02:59.001Z</time></trkpt><trkpt lat="43.5823838454232" lon="11.937702211312542"><ele>724.6</ele><time>2026-04-10T15:03:00.001Z</time></trkpt><trkpt lat="43.58246202936547" lon="11.937745957377237"><ele>722.4</ele><time>2026-04-10T15:03:01.001Z</time></trkpt><trkpt lat="43.58254689088331" lon="11.937796024161297"><ele>720.2</ele><time>2026-04-10T15:03:02.001Z</time></trkpt><trkpt lat="43.58263878320447" lon="11.937847879009265"><ele>718.0</ele><time>2026-04-10T15:03:03.001Z</time></trkpt><trkpt lat="43.58273724954803" lon="11.937898751314775"><ele>718.0</ele><time>2026-04-10T15:03:04.001Z</time></trkpt><trkpt lat="43.582837050562375" lon="11.937949620082168"><ele>718.0</ele><time>2026-04-10T15:03:05.001Z</time></trkpt><trkpt lat="43.58293043546397" lon="11.938001849959765"><ele>718.0</ele><time>2026-04-10T15:03:06.001Z</time></trkpt><trkpt lat="43.58302031926187" lon="11.93804604352072"><ele>718.0</ele><time>2026-04-10T15:03:07.001Z</time></trkpt><trkpt lat="43.58311448575047" lon="11.938060059558914"><ele>718.0</ele><time>2026-04-10T15:03:08.001Z</time></trkpt><trkpt lat="43.58320539617753" lon="11.938043455629053"><ele>719.0</ele><time>2026-04-10T15:03:09.001Z</time></trkpt><trkpt lat="43.583289243617436" lon="11.937986341893046"><ele>720.0</ele><time>2026-04-10T15:03:10.001Z</time></trkpt><trkpt lat="43.583366432003295" lon="11.937893640010783"><ele>721.0</ele><time>2026-04-10T15:03:11.001Z</time></trkpt><trkpt lat="43.5834536845126" lon="11.937805402348705"><ele>722.0</ele><time>2026-04-10T15:03:12.001Z</time></trkpt><trkpt lat="43.58354109190269" lon="11.937696370094049"><ele>723.0</ele><time>2026-04-10T15:03:13.001Z</time></trkpt><trkpt lat="43.58363293548206" lon="11.93758180411253"><ele>721.5</ele><time>2026-04-10T15:03:14.001Z</time></trkpt><trkpt lat="43.58372504921802" lon="11.937461122691303"><ele>720.0</ele><time>2026-04-10T15:03:15.001Z</time></trkpt><trkpt lat="43.583806297995864" lon="11.937336888767696"><ele>718.5</ele><time>2026-04-10T15:03:16.001Z</time></trkpt><trkpt lat="43.58391816876347" lon="11.937270733518606"><ele>717.0</ele><time>2026-04-10T15:03:17.001Z</time></trkpt><trkpt lat="43.584035265185754" lon="11.937227703324654"><ele>717.0</ele><time>2026-04-10T15:03:18.001Z</time></trkpt><trkpt lat="43.58416113607947" lon="11.93720657690894"><ele>717.0</ele><time>2026-04-10T15:03:19.001Z</time></trkpt><trkpt lat="43.58429194255207" lon="11.937175910997562"><ele>717.0</ele><time>2026-04-10T15:03:20.001Z</time></trkpt><trkpt lat="43.58443008866852" lon="11.9371591597644"><ele>717.0</ele><time>2026-04-10T15:03:21.001Z</time></trkpt><trkpt lat="43.58457292007281" lon="11.937135798910319"><ele>715.75</ele><time>2026-04-10T15:03:22.001Z</time></trkpt><trkpt lat="43.58471485871978" lon="11.937112722250905"><ele>714.5</ele><time>2026-04-10T15:03:23.001Z</time></trkpt><trkpt lat="43.5848501642621" lon="11.937087765280351"><ele>713.25</ele><time>2026-04-10T15:03:24.001Z</time></trkpt><trkpt lat="43.58498928683713" lon="11.937066806516205"><ele>712.0</ele><time>2026-04-10T15:03:25.001Z</time></trkpt><trkpt lat="43.585120696932485" lon="11.937052426022085"><ele>712.0</ele><time>2026-04-10T15:03:26.001Z</time></trkpt><trkpt lat="43.58524431050499" lon="11.937041586528265"><ele>712.0</ele><time>2026-04-10T15:03:27.001Z</time></trkpt><trkpt lat="43.585346736757266" lon="11.937046893782336"><ele>712.0</ele><time>2026-04-10T15:03:28.001Z</time></trkpt><trkpt lat="43.58543487165688" lon="11.937088253977759"><ele>712.0</ele><time>2026-04-10T15:03:29.001Z</time></trkpt><trkpt lat="43.585498436792925" lon="11.937176389085995"><ele>712.0</ele><time>2026-04-10T15:03:30.001Z</time></trkpt><trkpt lat="43.585521911231375" lon="11.937314519466279"><ele>712.75</ele><time>2026-04-10T15:03:31.001Z</time></trkpt><trkpt lat="43.58547793366346" lon="11.937452387581185"><ele>713.5</ele><time>2026-04-10T15:03:32.001Z</time></trkpt><trkpt lat="43.58539348619632" lon="11.93755575826154"><ele>714.25</ele><time>2026-04-10T15:03:33.001Z</time></trkpt><trkpt lat="43.58533801774769" lon="11.93771150401582"><ele>715.0</ele><time>2026-04-10T15:03:34.001Z</time></trkpt><trkpt lat="43.585254682613844" lon="11.937862881578967"><ele>715.0</ele><time>2026-04-10T15:03:35.001Z</time></trkpt><trkpt lat="43.58517353473833" lon="11.938037480565185"><ele>715.0</ele><time>2026-04-10T15:03:36.001Z</time></trkpt><trkpt lat="43.58509537625939" lon="11.938216394954743"><ele>715.0</ele><time>2026-04-10T15:03:37.001Z</time></trkpt><trkpt lat="43.585011213918186" lon="11.938393264368303"><ele>717.25</ele><time>2026-04-10T15:03:38.001Z</time></trkpt><trkpt lat="43.58492822334067" lon="11.938555310895959"><ele>719.5</ele><time>2026-04-10T15:03:39.001Z</time></trkpt><trkpt lat="43.58485703878406" lon="11.938697704867465"><ele>721.75</ele><time>2026-04-10T15:03:40.001Z</time></trkpt><trkpt lat="43.584795916689565" lon="11.938838800124834"><ele>724.0</ele><time>2026-04-10T15:03:41.002Z</time></trkpt><trkpt lat="43.58474751325284" lon="11.938966051456868"><ele>724.0</ele><time>2026-04-10T15:03:42.002Z</time></trkpt><trkpt lat="43.58472464166697" lon="11.939108565375951"><ele>724.0</ele><time>2026-04-10T15:03:43.002Z</time></trkpt><trkpt lat="43.58474088607368" lon="11.939266891497567"><ele>724.0</ele><time>2026-04-10T15:03:44.002Z</time></trkpt><trkpt lat="43.58478452145755" lon="11.939415024422766"><ele>724.0</ele><time>2026-04-10T15:03:45.002Z</time></trkpt><trkpt lat="43.58481929346807" lon="11.939596192418543"><ele>723.75</ele><time>2026-04-10T15:03:46.002Z</time></trkpt><trkpt lat="43.58483834828468" lon="11.93977277579714"><ele>723.5</ele><time>2026-04-10T15:03:47.002Z</time></trkpt><trkpt lat="43.5848595276272" lon="11.939957852916931"><ele>723.25</ele><time>2026-04-10T15:03:48.002Z</time></trkpt><trkpt lat="43.58488899370799" lon="11.940161325002293"><ele>723.0</ele><time>2026-04-10T15:03:49.002Z</time></trkpt><trkpt lat="43.58492122411594" lon="11.940362740347613"><ele>723.0</ele><time>2026-04-10T15:03:50.002Z</time></trkpt><trkpt lat="43.58494177384264" lon="11.940548000072074"><ele>723.0</ele><time>2026-04-10T15:03:51.002Z</time></trkpt><trkpt lat="43.58496479816082" lon="11.940714010233144"><ele>723.0</ele><time>2026-04-10T15:03:52.002Z</time></trkpt><trkpt lat="43.58500434435727" lon="11.940873401750977"><ele>723.0</ele><time>2026-04-10T15:03:53.002Z</time></trkpt><trkpt lat="43.58507340789516" lon="11.941007922009998"><ele>723.75</ele><time>2026-04-10T15:03:54.002Z</time></trkpt><trkpt lat="43.58516078936401" lon="11.941139677736619"><ele>724.5</ele><time>2026-04-10T15:03:55.002Z</time></trkpt><trkpt lat="43.58526724408323" lon="11.941267001713205"><ele>725.25</ele><time>2026-04-10T15:03:56.002Z</time></trkpt><trkpt lat="43.5853873325263" lon="11.941381182275894"><ele>726.0</ele><time>2026-04-10T15:03:57.002Z</time></trkpt><trkpt lat="43.58550935303327" lon="11.941476557716454"><ele>726.0</ele><time>2026-04-10T15:03:58.002Z</time></trkpt><trkpt lat="43.58562825730148" lon="11.941561896290438"><ele>726.0</ele><time>2026-04-10T15:03:59.002Z</time></trkpt><trkpt lat="43.585740914583795" lon="11.941645843764405"><ele>726.0</ele><time>2026-04-10T15:04:00.002Z</time></trkpt><trkpt lat="43.58585584903018" lon="11.941738789838926"><ele>726.0</ele><time>2026-04-10T15:04:01.002Z</time></trkpt><trkpt lat="43.585961508856464" lon="11.941844516770399"><ele>726.75</ele><time>2026-04-10T15:04:02.002Z</time></trkpt><trkpt lat="43.58605561078327" lon="11.941971110485309"><ele>727.5</ele><time>2026-04-10T15:04:03.002Z</time></trkpt><trkpt lat="43.58613942624338" lon="11.942106137843135"><ele>728.25</ele><time>2026-04-10T15:04:04.002Z</time></trkpt><trkpt lat="43.58621640462121" lon="11.942254990473607"><ele>729.0</ele><time>2026-04-10T15:04:05.002Z</time></trkpt><trkpt lat="43.58628672006798" lon="11.942395583704018"><ele>729.0</ele><time>2026-04-10T15:04:06.002Z</time></trkpt><trkpt lat="43.586357586549" lon="11.94254622338841"><ele>729.0</ele><time>2026-04-10T15:04:07.002Z</time></trkpt><trkpt lat="43.58642189396238" lon="11.942695243361463"><ele>729.0</ele><time>2026-04-10T15:04:08.002Z</time></trkpt><trkpt lat="43.58646546107644" lon="11.942852596882934"><ele>729.0</ele><time>2026-04-10T15:04:09.002Z</time></trkpt><trkpt lat="43.586487014542215" lon="11.94300886911621"><ele>728.6</ele><time>2026-04-10T15:04:10.002Z</time></trkpt><trkpt lat="43.58646936137342" lon="11.943165763412242"><ele>728.2</ele><time>2026-04-10T15:04:11.002Z</time></trkpt><trkpt lat="43.58642790125329" lon="11.943304797697005"><ele>727.8000000000001</ele><time>2026-04-10T15:04:12.002Z</time></trkpt><trkpt lat="43.58636070518421" lon="11.94342374244672"><ele>727.4000000000001</ele><time>2026-04-10T15:04:13Z</time></trkpt><trkpt lat="43.58628018585905" lon="11.943517458980848"><ele>727.0</ele><time>2026-04-10T15:04:14Z</time></trkpt><trkpt lat="43.586166405307175" lon="11.943518412774221"><ele>731.0</ele><time>2026-04-10T15:04:15Z</time></trkpt><trkpt lat="43.58605356350655" lon="11.943507191767758"><ele>735.0</ele><time>2026-04-10T15:04:16Z</time></trkpt><trkpt lat="43.585912924546065" lon="11.943463785532808"><ele>739.0</ele><time>2026-04-10T15:04:17Z</time></trkpt><trkpt lat="43.585790717216724" lon="11.943433328020136"><ele>743.0</ele><time>2026-04-10T15:04:18Z</time></trkpt><trkpt lat="43.58566182063568" lon="11.943404168241692"><ele>743.0</ele><time>2026-04-10T15:04:19Z</time></trkpt><trkpt lat="43.58552697058973" lon="11.943419461840941"><ele>743.0</ele><time>2026-04-10T15:04:20Z</time></trkpt><trkpt lat="43.58538169037009" lon="11.943454940178944"><ele>743.0</ele><time>2026-04-10T15:04:21Z</time></trkpt><trkpt lat="43.58524683783373" lon="11.943473370551592"><ele>743.0</ele><time>2026-04-10T15:04:22Z</time></trkpt><trkpt lat="43.58511992556368" lon="11.943522780430635"><ele>740.5</ele><time>2026-04-10T15:04:23Z</time></trkpt><trkpt lat="43.58498731054743" lon="11.943563006464878"><ele>738.0</ele><time>2026-04-10T15:04:24Z</time></trkpt><trkpt lat="43.58486607510039" lon="11.943612548556844"><ele>735.5</ele><time>2026-04-10T15:04:25Z</time></trkpt><trkpt lat="43.58475084825305" lon="11.943658956481753"><ele>733.0</ele><time>2026-04-10T15:04:26Z</time></trkpt><trkpt lat="43.584634514806005" lon="11.943702192516923"><ele>733.0</ele><time>2026-04-10T15:04:27Z</time></trkpt><trkpt lat="43.584527838542876" lon="11.943756882960878"><ele>733.0</ele><time>2026-04-10T15:04:28Z</time></trkpt><trkpt lat="43.58443601071888" lon="11.943811928532304"><ele>733.0</ele><time>2026-04-10T15:04:29Z</time></trkpt><trkpt lat="43.584377413774156" lon="11.943944260138432"><ele>733.0</ele><time>2026-04-10T15:04:30Z</time></trkpt><trkpt lat="43.58432460083068" lon="11.944094342083943"><ele>733.0</ele><time>2026-04-10T15:04:31Z</time></trkpt><trkpt lat="43.58427919998621" lon="11.944259764022618"><ele>727.5</ele><time>2026-04-10T15:04:32Z</time></trkpt><trkpt lat="43.584240861342835" lon="11.944434166343957"><ele>722.0</ele><time>2026-04-10T15:04:33Z</time></trkpt><trkpt lat="43.58422019758706" lon="11.944614569618796"><ele>716.5</ele><time>2026-04-10T15:04:34Z</time></trkpt><trkpt lat="43.584215236503375" lon="11.94479761692228"><ele>711.0</ele><time>2026-04-10T15:04:35Z</time></trkpt><trkpt lat="43.58421059010334" lon="11.94495815687952"><ele>711.5</ele><time>2026-04-10T15:04:36Z</time></trkpt><trkpt lat="43.58415573982384" lon="11.945093680743552"><ele>712.0</ele><time>2026-04-10T15:04:37Z</time></trkpt><trkpt lat="43.58406209063024" lon="11.945185209938966"><ele>712.5</ele><time>2026-04-10T15:04:38Z</time></trkpt><trkpt lat="43.58398403472855" lon="11.94530867233573"><ele>713.0</ele><time>2026-04-10T15:04:39Z</time></trkpt><trkpt lat="43.58390271479824" lon="11.945425095470153"><ele>713.0</ele><time>2026-04-10T15:04:40Z</time></trkpt><trkpt lat="43.58384900566967" lon="11.945560353481293"><ele>713.0</ele><time>2026-04-10T15:04:41Z</time></trkpt><trkpt lat="43.58380809578187" lon="11.945714666246333"><ele>713.0</ele><time>2026-04-10T15:04:42Z</time></trkpt><trkpt lat="43.58379438845468" lon="11.945877897069353"><ele>713.0</ele><time>2026-04-10T15:04:43Z</time></trkpt><trkpt lat="43.58382112643371" lon="11.946050760256208"><ele>710.25</ele><time>2026-04-10T15:04:44.001Z</time></trkpt><trkpt lat="43.58387159282814" lon="11.94622092433025"><ele>707.5</ele><time>2026-04-10T15:04:45.001Z</time></trkpt><trkpt lat="43.58393734858387" lon="11.946370213024736"><ele>704.75</ele><time>2026-04-10T15:04:46.001Z</time></trkpt><trkpt lat="43.584020622061225" lon="11.946502650092794"><ele>702.0</ele><time>2026-04-10T15:04:47.001Z</time></trkpt><trkpt lat="43.58412553839267" lon="11.946606516738573"><ele>702.0</ele><time>2026-04-10T15:04:48.001Z</time></trkpt><trkpt lat="43.58423447677764" lon="11.946699468436048"><ele>702.0</ele><time>2026-04-10T15:04:49.001Z</time></trkpt><trkpt lat="43.584338860150325" lon="11.946789757552805"><ele>702.0</ele><time>2026-04-10T15:04:50.001Z</time></trkpt><trkpt lat="43.58444216597891" lon="11.946876464710241"><ele>702.0</ele><time>2026-04-10T15:04:51.001Z</time></trkpt><trkpt lat="43.58453854363843" lon="11.946958966074678"><ele>706.4000000000001</ele><time>2026-04-10T15:04:52.001Z</time></trkpt><trkpt lat="43.58460324433397" lon="11.947042807966668"><ele>710.8000000000001</ele><time>2026-04-10T15:04:53.001Z</time></trkpt><trkpt lat="43.58465909248811" lon="11.947116122863287"><ele>715.2</ele><time>2026-04-10T15:04:54.001Z</time></trkpt><trkpt lat="43.58466567698744" lon="11.947235420414911"><ele>719.6</ele><time>2026-04-10T15:04:55.001Z</time></trkpt><trkpt lat="43.58461870235903" lon="11.94734860580975"><ele>724.0</ele><time>2026-04-10T15:04:56.001Z</time></trkpt><trkpt lat="43.584539803723644" lon="11.947441548022711"><ele>721.25</ele><time>2026-04-10T15:04:57.001Z</time></trkpt><trkpt lat="43.584423843346244" lon="11.947519421264467"><ele>718.5</ele><time>2026-04-10T15:04:58.001Z</time></trkpt><trkpt lat="43.58432387555387" lon="11.947618708569044"><ele>715.75</ele><time>2026-04-10T15:04:59.001Z</time></trkpt><trkpt lat="43.58422270695172" lon="11.947714964521637"><ele>713.0</ele><time>2026-04-10T15:05:00.001Z</time></trkpt><trkpt lat="43.584115618900455" lon="11.947779798942367"><ele>713.0</ele><time>2026-04-10T15:05:01.001Z</time></trkpt><trkpt lat="43.58400329380456" lon="11.947811373019672"><ele>713.0</ele><time>2026-04-10T15:05:02.001Z</time></trkpt><trkpt lat="43.58388611998037" lon="11.947840197220811"><ele>713.0</ele><time>2026-04-10T15:05:03.001Z</time></trkpt><trkpt lat="43.583767024822315" lon="11.947872230843602"><ele>713.0</ele><time>2026-04-10T15:05:04.001Z</time></trkpt><trkpt lat="43.58365258661125" lon="11.947893057937668"><ele>708.25</ele><time>2026-04-10T15:05:05.001Z</time></trkpt><trkpt lat="43.583549605378956" lon="11.947904434079433"><ele>703.5</ele><time>2026-04-10T15:05:06.001Z</time></trkpt><trkpt lat="43.58344894446945" lon="11.947946298070022"><ele>698.75</ele><time>2026-04-10T15:05:07.001Z</time></trkpt><trkpt lat="43.583354075347486" lon="11.948032612318297"><ele>694.0</ele><time>2026-04-10T15:05:08.001Z</time></trkpt><trkpt lat="43.58326744326495" lon="11.948161991564051"><ele>694.0</ele><time>2026-04-10T15:05:09.001Z</time></trkpt><trkpt lat="43.58316677391447" lon="11.948291491436581"><ele>694.0</ele><time>2026-04-10T15:05:10.001Z</time></trkpt><trkpt lat="43.58304256283136" lon="11.948392939027055"><ele>694.0</ele><time>2026-04-10T15:05:11.001Z</time></trkpt><trkpt lat="43.582913551049344" lon="11.948475455491645"><ele>694.0</ele><time>2026-04-10T15:05:12.001Z</time></trkpt><trkpt lat="43.582788414792674" lon="11.948572596820313"><ele>692.5</ele><time>2026-04-10T15:05:13.001Z</time></trkpt><trkpt lat="43.58267942112413" lon="11.948690618115712"><ele>691.0</ele><time>2026-04-10T15:05:14.001Z</time></trkpt><trkpt lat="43.58258423314787" lon="11.948816042314895"><ele>689.5</ele><time>2026-04-10T15:05:15.001Z</time></trkpt><trkpt lat="43.58249149681675" lon="11.948954375418259"><ele>688.0</ele><time>2026-04-10T15:05:16.001Z</time></trkpt><trkpt lat="43.58241020025386" lon="11.949112697893266"><ele>690.0</ele><time>2026-04-10T15:05:17.001Z</time></trkpt><trkpt lat="43.58234022387374" lon="11.949291178554626"><ele>692.0</ele><time>2026-04-10T15:05:18.001Z</time></trkpt><trkpt lat="43.58226946997684" lon="11.949478941332735"><ele>694.0</ele><time>2026-04-10T15:05:19.001Z</time></trkpt><trkpt lat="43.58220062019485" lon="11.949663871558116"><ele>694.0</ele><time>2026-04-10T15:05:20.001Z</time></trkpt><trkpt lat="43.58214570546994" lon="11.949846503621457"><ele>694.0</ele><time>2026-04-10T15:05:21.001Z</time></trkpt><trkpt lat="43.58210016004472" lon="11.95003235952109"><ele>694.0</ele><time>2026-04-10T15:05:22.001Z</time></trkpt><trkpt lat="43.58204121641852" lon="11.950214213898061"><ele>694.0</ele><time>2026-04-10T15:05:23.001Z</time></trkpt><trkpt lat="43.581962817649966" lon="11.950378445570326"><ele>691.75</ele><time>2026-04-10T15:05:24.001Z</time></trkpt><trkpt lat="43.581861691197034" lon="11.95051265665616"><ele>689.5</ele><time>2026-04-10T15:05:25.001Z</time></trkpt><trkpt lat="43.58174999549194" lon="11.950640266836368"><ele>687.25</ele><time>2026-04-10T15:05:26.001Z</time></trkpt><trkpt lat="43.58164234146853" lon="11.950768828773"><ele>685.0</ele><time>2026-04-10T15:05:27.001Z</time></trkpt><trkpt lat="43.58153919963809" lon="11.950903391614588"><ele>685.0</ele><time>2026-04-10T15:05:28.001Z</time></trkpt><trkpt lat="43.581433175145584" lon="11.951035529918144"><ele>685.0</ele><time>2026-04-10T15:05:29.001Z</time></trkpt><trkpt lat="43.581317098383494" lon="11.951160692815506"><ele>685.0</ele><time>2026-04-10T15:05:30.001Z</time></trkpt><trkpt lat="43.581194703869805" lon="11.951271774028145"><ele>685.0</ele><time>2026-04-10T15:05:31.001Z</time></trkpt><trkpt lat="43.581094382317964" lon="11.95137682021209"><ele>681.25</ele><time>2026-04-10T15:05:32.001Z</time></trkpt><trkpt lat="43.58101377458204" lon="11.951519759807093"><ele>677.5</ele><time>2026-04-10T15:05:33.001Z</time></trkpt><trkpt lat="43.58095864434553" lon="11.951681823372901"><ele>673.75</ele><time>2026-04-10T15:05:34.001Z</time></trkpt><trkpt lat="43.580899663711726" lon="11.951843672022642"><ele>670.0</ele><time>2026-04-10T15:05:35.001Z</time></trkpt><trkpt lat="43.580835327227" lon="11.95199988697051"><ele>670.0</ele><time>2026-04-10T15:05:36.001Z</time></trkpt><trkpt lat="43.58076509149166" lon="11.952155715613086"><ele>670.0</ele><time>2026-04-10T15:05:37.001Z</time></trkpt><trkpt lat="43.58069463837212" lon="11.952313433147417"><ele>670.0</ele><time>2026-04-10T15:05:38.001Z</time></trkpt><trkpt lat="43.58061607447573" lon="11.952461814324481"><ele>670.0</ele><time>2026-04-10T15:05:39.001Z</time></trkpt><trkpt lat="43.58051942723329" lon="11.952603335487645"><ele>670.75</ele><time>2026-04-10T15:05:40.001Z</time></trkpt><trkpt lat="43.580410142524315" lon="11.952735210010792"><ele>671.5</ele><time>2026-04-10T15:05:41.001Z</time></trkpt><trkpt lat="43.580285045931916" lon="11.952847450155685"><ele>672.25</ele><time>2026-04-10T15:05:42.001Z</time></trkpt><trkpt lat="43.58015823631608" lon="11.952949714894187"><ele>673.0</ele><time>2026-04-10T15:05:43.001Z</time></trkpt><trkpt lat="43.58003229941787" lon="11.953044298476481"><ele>670.25</ele><time>2026-04-10T15:05:44.001Z</time></trkpt><trkpt lat="43.57992866594237" lon="11.95317285265823"><ele>667.5</ele><time>2026-04-10T15:05:45.001Z</time></trkpt><trkpt lat="43.57978578660469" lon="11.953211632848323"><ele>664.75</ele><time>2026-04-10T15:05:46.001Z</time></trkpt><trkpt lat="43.57966394112992" lon="11.953304861120516"><ele>662.0</ele><time>2026-04-10T15:05:47.002Z</time></trkpt><trkpt lat="43.57954335638625" lon="11.953405487254608"><ele>657.5</ele><time>2026-04-10T15:05:48.002Z</time></trkpt><trkpt lat="43.57942355126915" lon="11.953500062563744"><ele>653.0</ele><time>2026-04-10T15:05:49.002Z</time></trkpt><trkpt lat="43.579303897596624" lon="11.953594605708195"><ele>648.5</ele><time>2026-04-10T15:05:50.002Z</time></trkpt><trkpt lat="43.57919105655573" lon="11.95368533949789"><ele>644.0</ele><time>2026-04-10T15:05:51.002Z</time></trkpt><trkpt lat="43.579091372958786" lon="11.953790330927559"><ele>644.0</ele><time>2026-04-10T15:05:52.002Z</time></trkpt><trkpt lat="43.57900717547882" lon="11.953919407851858"><ele>644.0</ele><time>2026-04-10T15:05:53.002Z</time></trkpt><trkpt lat="43.578935681456436" lon="11.95406359015784"><ele>644.0</ele><time>2026-04-10T15:05:54.002Z</time></trkpt><trkpt lat="43.578881292845054" lon="11.9542280172773"><ele>644.0</ele><time>2026-04-10T15:05:55.002Z</time></trkpt><trkpt lat="43.57885036642604" lon="11.954409088499787"><ele>642.5</ele><time>2026-04-10T15:05:56.002Z</time></trkpt><trkpt lat="43.578852889169056" lon="11.954585814688741"><ele>641.0</ele><time>2026-04-10T15:05:57.002Z</time></trkpt><trkpt lat="43.57888850808451" lon="11.954759722753366"><ele>639.5</ele><time>2026-04-10T15:05:58.002Z</time></trkpt><trkpt lat="43.57896519235614" lon="11.954913752948807"><ele>638.0</ele><time>2026-04-10T15:05:59.002Z</time></trkpt><trkpt lat="43.579046731592335" lon="11.95506055612308"><ele>635.1999999999999</ele><time>2026-04-10T15:06:00.002Z</time></trkpt><trkpt lat="43.5791286120529" lon="11.955207094489772"><ele>632.4</ele><time>2026-04-10T15:06:01.002Z</time></trkpt><trkpt lat="43.579187438442574" lon="11.955342326529587"><ele>629.5999999999999</ele><time>2026-04-10T15:06:02.002Z</time></trkpt><trkpt lat="43.579206275099004" lon="11.955478175812447"><ele>626.8</ele><time>2026-04-10T15:06:03.002Z</time></trkpt><trkpt lat="43.57918286541845" lon="11.955599080341202"><ele>624.0</ele><time>2026-04-10T15:06:04.002Z</time></trkpt><trkpt lat="43.579111891306546" lon="11.955689158555284"><ele>624.0</ele><time>2026-04-10T15:06:05.002Z</time></trkpt><trkpt lat="43.57901166852524" lon="11.955746397457938"><ele>624.0</ele><time>2026-04-10T15:06:06.002Z</time></trkpt><trkpt lat="43.57889264062501" lon="11.955779380458388"><ele>624.0</ele><time>2026-04-10T15:06:07.002Z</time></trkpt><trkpt lat="43.578762261203956" lon="11.955810101818333"><ele>624.0</ele><time>2026-04-10T15:06:08.002Z</time></trkpt><trkpt lat="43.57862858701719" lon="11.955847490855762"><ele>620.6</ele><time>2026-04-10T15:06:09.002Z</time></trkpt><trkpt lat="43.57849813809378" lon="11.955870942772005"><ele>617.2</ele><time>2026-04-10T15:06:10.002Z</time></trkpt><trkpt lat="43.57838011702169" lon="11.955878010899749"><ele>613.8000000000001</ele><time>2026-04-10T15:06:11.002Z</time></trkpt><trkpt lat="43.578276842241806" lon="11.955885961848477"><ele>610.4</ele><time>2026-04-10T15:06:12.002Z</time></trkpt><trkpt lat="43.578192804421114" lon="11.955930184890217"><ele>607.0</ele><time>2026-04-10T15:06:13.002Z</time></trkpt><trkpt lat="43.578147451795836" lon="11.956019472106329"><ele>607.0</ele><time>2026-04-10T15:06:14.002Z</time></trkpt><trkpt lat="43.578139539023695" lon="11.956131295785859"><ele>607.0</ele><time>2026-04-10T15:06:15.002Z</time></trkpt><trkpt lat="43.57816655153233" lon="11.956231382361457"><ele>607.0</ele><time>2026-04-10T15:06:16.002Z</time></trkpt><trkpt lat="43.57822120374984" lon="11.956305079745597"><ele>607.0</ele><time>2026-04-10T15:06:17.002Z</time></trkpt><trkpt lat="43.57829060745088" lon="11.95635755892186"><ele>607.0</ele><time>2026-04-10T15:06:18.002Z</time></trkpt><trkpt lat="43.57836982240453" lon="11.956369038881093"><ele>607.0</ele><time>2026-04-10T15:06:19Z</time></trkpt><trkpt lat="43.578443028837306" lon="11.956338105307593"><ele>607.0</ele><time>2026-04-10T15:06:20Z</time></trkpt><trkpt lat="43.578537637998046" lon="11.95627142649977"><ele>607.0</ele><time>2026-04-10T15:06:21Z</time></trkpt><trkpt lat="43.57864495338583" lon="11.956193224682895"><ele>607.0</ele><time>2026-04-10T15:06:22Z</time></trkpt><trkpt lat="43.57876583920503" lon="11.956113111979844"><ele>607.0</ele><time>2026-04-10T15:06:23Z</time></trkpt><trkpt lat="43.578897796306805" lon="11.956044001759096"><ele>608.0</ele><time>2026-04-10T15:06:24Z</time></trkpt><trkpt lat="43.5790324615934" lon="11.95599301621387"><ele>609.0</ele><time>2026-04-10T15:06:25Z</time></trkpt><trkpt lat="43.57917309709914" lon="11.955973758425944"><ele>610.0</ele><time>2026-04-10T15:06:26Z</time></trkpt><trkpt lat="43.57931767089162" lon="11.955967223472019"><ele>611.0</ele><time>2026-04-10T15:06:27Z</time></trkpt><trkpt lat="43.57945456540422" lon="11.955955300751036"><ele>613.75</ele><time>2026-04-10T15:06:28Z</time></trkpt><trkpt lat="43.579578238895046" lon="11.955940273295576"><ele>616.5</ele><time>2026-04-10T15:06:29Z</time></trkpt><trkpt lat="43.57969150380147" lon="11.9559084385258"><ele>619.25</ele><time>2026-04-10T15:06:30Z</time></trkpt><trkpt lat="43.57979962576462" lon="11.955881142886517"><ele>622.0</ele><time>2026-04-10T15:06:31Z</time></trkpt><trkpt lat="43.579907258771485" lon="11.955883895773557"><ele>622.0</ele><time>2026-04-10T15:06:32Z</time></trkpt><trkpt lat="43.58001338441894" lon="11.955914740507996"><ele>622.0</ele><time>2026-04-10T15:06:33Z</time></trkpt><trkpt lat="43.58012006933638" lon="11.95597794302869"><ele>622.0</ele><time>2026-04-10T15:06:34Z</time></trkpt><trkpt lat="43.580219000262915" lon="11.956077720514394"><ele>622.0</ele><time>2026-04-10T15:06:35Z</time></trkpt><trkpt lat="43.580298830548244" lon="11.956199791876697"><ele>626.0</ele><time>2026-04-10T15:06:36Z</time></trkpt><trkpt lat="43.580350442949374" lon="11.956341269933663"><ele>630.0</ele><time>2026-04-10T15:06:37Z</time></trkpt><trkpt lat="43.58037757193496" lon="11.956504343813029"><ele>634.0</ele><time>2026-04-10T15:06:38Z</time></trkpt><trkpt lat="43.58037648490233" lon="11.95668022450623"><ele>638.0</ele><time>2026-04-10T15:06:39Z</time></trkpt><trkpt lat="43.580349949018206" lon="11.956855837411878"><ele>634.75</ele><time>2026-04-10T15:06:40Z</time></trkpt><trkpt lat="43.58030686803094" lon="11.957026523811773"><ele>631.5</ele><time>2026-04-10T15:06:41Z</time></trkpt><trkpt lat="43.58025201140874" lon="11.957192914191598"><ele>628.25</ele><time>2026-04-10T15:06:42Z</time></trkpt><trkpt lat="43.58017304142536" lon="11.957359228916607"><ele>625.0</ele><time>2026-04-10T15:06:43Z</time></trkpt><trkpt lat="43.58008053045995" lon="11.957523086799899"><ele>627.6666666666667</ele><time>2026-04-10T15:06:44Z</time></trkpt><trkpt lat="43.579974853379774" lon="11.957689463532077"><ele>630.3333333333334</ele><time>2026-04-10T15:06:45Z</time></trkpt><trkpt lat="43.57986015138996" lon="11.957851058741578"><ele>633.0</ele><time>2026-04-10T15:06:46Z</time></trkpt><trkpt lat="43.57974126279177" lon="11.957996461998903"><ele>633.0</ele><time>2026-04-10T15:06:47Z</time></trkpt><trkpt lat="43.57963400794538" lon="11.958137596548287"><ele>633.0</ele><time>2026-04-10T15:06:48Z</time></trkpt><trkpt lat="43.5795396410427" lon="11.958274108382518"><ele>633.0</ele><time>2026-04-10T15:06:49Z</time></trkpt><trkpt lat="43.57945550295343" lon="11.958419128554056"><ele>633.0</ele><time>2026-04-10T15:06:50Z</time></trkpt><trkpt lat="43.57939013018027" lon="11.958583755057523"><ele>631.25</ele><time>2026-04-10T15:06:51Z</time></trkpt><trkpt lat="43.57935029712646" lon="11.958773485671685"><ele>629.5</ele><time>2026-04-10T15:06:52Z</time></trkpt><trkpt lat="43.579327912238284" lon="11.958978958040326"><ele>627.75</ele><time>2026-04-10T15:06:53Z</time></trkpt><trkpt lat="43.57932000821706" lon="11.959182919655467"><ele>626.0</ele><time>2026-04-10T15:06:54Z</time></trkpt><trkpt lat="43.57931605153669" lon="11.959374708419096"><ele>624.5</ele><time>2026-04-10T15:06:55Z</time></trkpt><trkpt lat="43.57932484246343" lon="11.95955877788381"><ele>623.0</ele><time>2026-04-10T15:06:56Z</time></trkpt><trkpt lat="43.57936131990323" lon="11.959727525379963"><ele>621.5</ele><time>2026-04-10T15:06:57Z</time></trkpt><trkpt lat="43.579431289597615" lon="11.959877566593741"><ele>620.0</ele><time>2026-04-10T15:06:58Z</time></trkpt><trkpt lat="43.57952336382033" lon="11.960005052442565"><ele>622.5</ele><time>2026-04-10T15:06:59.001Z</time></trkpt><trkpt lat="43.579630017706364" lon="11.960111380487797"><ele>625.0</ele><time>2026-04-10T15:07:00.001Z</time></trkpt><trkpt lat="43.579741455997656" lon="11.960207347095757"><ele>627.5</ele><time>2026-04-10T15:07:01.001Z</time></trkpt><trkpt lat="43.57985788836611" lon="11.960294627430544"><ele>630.0</ele><time>2026-04-10T15:07:02.001Z</time></trkpt><trkpt lat="43.57997665192136" lon="11.960367545810827"><ele>630.0</ele><time>2026-04-10T15:07:03.001Z</time></trkpt><trkpt lat="43.58007735417468" lon="11.960439308331647"><ele>630.0</ele><time>2026-04-10T15:07:04.001Z</time></trkpt><trkpt lat="43.58014029133862" lon="11.960528888015654"><ele>630.0</ele><time>2026-04-10T15:07:05.001Z</time></trkpt><trkpt lat="43.580159565028204" lon="11.960648908449087"><ele>630.0</ele><time>2026-04-10T15:07:06.001Z</time></trkpt><trkpt lat="43.58012803282211" lon="11.960767954306492"><ele>630.0</ele><time>2026-04-10T15:07:07.001Z</time></trkpt><trkpt lat="43.580048344599106" lon="11.960849611944246"><ele>632.6</ele><time>2026-04-10T15:07:08.001Z</time></trkpt><trkpt lat="43.57995073786495" lon="11.960888091321928"><ele>635.2</ele><time>2026-04-10T15:07:09.001Z</time></trkpt><trkpt lat="43.579843142785364" lon="11.960906719626204"><ele>637.8</ele><time>2026-04-10T15:07:10.001Z</time></trkpt><trkpt lat="43.579749734072536" lon="11.960966100248516"><ele>640.4</ele><time>2026-04-10T15:07:11.001Z</time></trkpt><trkpt lat="43.579676206211246" lon="11.961053876973587"><ele>643.0</ele><time>2026-04-10T15:07:12.001Z</time></trkpt><trkpt lat="43.57960490678945" lon="11.961168233553051"><ele>643.0</ele><time>2026-04-10T15:07:13.001Z</time></trkpt><trkpt lat="43.57953927113685" lon="11.961275430797064"><ele>643.0</ele><time>2026-04-10T15:07:14.001Z</time></trkpt><trkpt lat="43.57948844533515" lon="11.9614041286057"><ele>643.0</ele><time>2026-04-10T15:07:15.001Z</time></trkpt><trkpt lat="43.57944969565771" lon="11.961557736219952"><ele>643.0</ele><time>2026-04-10T15:07:16.001Z</time></trkpt><trkpt lat="43.57943186692814" lon="11.961741284817462"><ele>635.0</ele><time>2026-04-10T15:07:17.001Z</time></trkpt><trkpt lat="43.57942279251675" lon="11.961946219758529"><ele>627.0</ele><time>2026-04-10T15:07:18.001Z</time></trkpt><trkpt lat="43.57941133230986" lon="11.96215215293276"><ele>619.0</ele><time>2026-04-10T15:07:19.001Z</time></trkpt><trkpt lat="43.57937915458974" lon="11.962343343116414"><ele>611.0</ele><time>2026-04-10T15:07:20.001Z</time></trkpt><trkpt lat="43.579360225617236" lon="11.962533162021995"><ele>611.0</ele><time>2026-04-10T15:07:21.001Z</time></trkpt><trkpt lat="43.579353484538245" lon="11.962721316555337"><ele>611.0</ele><time>2026-04-10T15:07:22.001Z</time></trkpt><trkpt lat="43.57935536942718" lon="11.962911281143825"><ele>611.0</ele><time>2026-04-10T15:07:23.001Z</time></trkpt><trkpt lat="43.579326531177195" lon="11.96310232672715"><ele>611.0</ele><time>2026-04-10T15:07:24.001Z</time></trkpt><trkpt lat="43.579275112442005" lon="11.963279693290682"><ele>612.3333333333333</ele><time>2026-04-10T15:07:25.001Z</time></trkpt><trkpt lat="43.57920627000955" lon="11.963458181331363"><ele>613.6666666666666</ele><time>2026-04-10T15:07:26.001Z</time></trkpt><trkpt lat="43.579131273423606" lon="11.963647537768558"><ele>615.0</ele><time>2026-04-10T15:07:27.001Z</time></trkpt><trkpt lat="43.5790555179078" lon="11.9638408955412"><ele>615.0</ele><time>2026-04-10T15:07:28.001Z</time></trkpt><trkpt lat="43.57897778564015" lon="11.964043419076004"><ele>615.0</ele><time>2026-04-10T15:07:29.001Z</time></trkpt><trkpt lat="43.57890468946534" lon="11.96424071106856"><ele>615.0</ele><time>2026-04-10T15:07:30.001Z</time></trkpt><trkpt lat="43.578830052045056" lon="11.964432305647408"><ele>614.6666666666666</ele><time>2026-04-10T15:07:31.001Z</time></trkpt><trkpt lat="43.57874989079166" lon="11.964624005111082"><ele>614.3333333333333</ele><time>2026-04-10T15:07:32.001Z</time></trkpt><trkpt lat="43.57867051622268" lon="11.964811125800333"><ele>614.0</ele><time>2026-04-10T15:07:33.001Z</time></trkpt><trkpt lat="43.57858999678187" lon="11.964996851842944"><ele>610.5</ele><time>2026-04-10T15:07:34.001Z</time></trkpt><trkpt lat="43.5785100874508" lon="11.965168357822092"><ele>607.0</ele><time>2026-04-10T15:07:35.001Z</time></trkpt><trkpt lat="43.57843992440341" lon="11.965332967597218"><ele>603.5</ele><time>2026-04-10T15:07:36.001Z</time></trkpt><trkpt lat="43.57839041119039" lon="11.965480825488568"><ele>600.0</ele><time>2026-04-10T15:07:37.001Z</time></trkpt><trkpt lat="43.5783645727809" lon="11.96562358921995"><ele>600.0</ele><time>2026-04-10T15:07:38.001Z</time></trkpt><trkpt lat="43.5783769930172" lon="11.965758487225054"><ele>600.0</ele><time>2026-04-10T15:07:39.001Z</time></trkpt><trkpt lat="43.57843895672566" lon="11.965863362413492"><ele>600.0</ele><time>2026-04-10T15:07:40.001Z</time></trkpt><trkpt lat="43.578538658907476" lon="11.965906291053885"><ele>600.0</ele><time>2026-04-10T15:07:41.001Z</time></trkpt><trkpt lat="43.57865925694709" lon="11.96589998299292"><ele>600.0</ele><time>2026-04-10T15:07:42.001Z</time></trkpt><trkpt lat="43.57878612770195" lon="11.965855301176392"><ele>601.0</ele><time>2026-04-10T15:07:43.001Z</time></trkpt><trkpt lat="43.57892602544338" lon="11.965816531965269"><ele>602.0</ele><time>2026-04-10T15:07:44.001Z</time></trkpt><trkpt lat="43.57905650584941" lon="11.965805069973682"><ele>603.0</ele><time>2026-04-10T15:07:45.001Z</time></trkpt><trkpt lat="43.57919358367514" lon="11.965797283778995"><ele>604.0</ele><time>2026-04-10T15:07:46.001Z</time></trkpt><trkpt lat="43.579338582893" lon="11.965792140540046"><ele>604.0</ele><time>2026-04-10T15:07:47.001Z</time></trkpt><trkpt lat="43.579479059251895" lon="11.96579331381966"><ele>604.0</ele><time>2026-04-10T15:07:48.001Z</time></trkpt><trkpt lat="43.57962009452164" lon="11.965802966646573"><ele>604.0</ele><time>2026-04-10T15:07:49.001Z</time></trkpt><trkpt lat="43.579759784251635" lon="11.965834466331868"><ele>604.0</ele><time>2026-04-10T15:07:50.001Z</time></trkpt><trkpt lat="43.57989404997653" lon="11.96589707338837"><ele>603.5</ele><time>2026-04-10T15:07:51.001Z</time></trkpt><trkpt lat="43.58003297963204" lon="11.965962469468032"><ele>603.0</ele><time>2026-04-10T15:07:52.001Z</time></trkpt><trkpt lat="43.58017669227243" lon="11.966005614979265"><ele>602.5</ele><time>2026-04-10T15:07:53.001Z</time></trkpt><trkpt lat="43.5803135001548" lon="11.96605531238686"><ele>602.0</ele><time>2026-04-10T15:07:54.001Z</time></trkpt><trkpt lat="43.580451077781404" lon="11.966102105278827"><ele>602.0</ele><time>2026-04-10T15:07:55.001Z</time></trkpt><trkpt lat="43.58059822254663" lon="11.9661426048839"><ele>602.0</ele><time>2026-04-10T15:07:56.001Z</time></trkpt><trkpt lat="43.58071931242683" lon="11.966182109219071"><ele>602.0</ele><time>2026-04-10T15:07:57.001Z</time></trkpt><trkpt lat="43.580794685448936" lon="11.966274059104483"><ele>602.0</ele><time>2026-04-10T15:07:58.001Z</time></trkpt><trkpt lat="43.580836466540624" lon="11.966400133196526"><ele>602.0</ele><time>2026-04-10T15:07:59.001Z</time></trkpt><trkpt lat="43.58084210309952" lon="11.966537399712115"><ele>602.0</ele><time>2026-04-10T15:08:00.001Z</time></trkpt><trkpt lat="43.58078533804401" lon="11.966670667850012"><ele>602.0</ele><time>2026-04-10T15:08:01.001Z</time></trkpt><trkpt lat="43.58069508000034" lon="11.966754267599091"><ele>602.0</ele><time>2026-04-10T15:08:02.002Z</time></trkpt><trkpt lat="43.580582816092935" lon="11.966797408029029"><ele>602.0</ele><time>2026-04-10T15:08:03.002Z</time></trkpt><trkpt lat="43.58046469455523" lon="11.966802038127426"><ele>601.5</ele><time>2026-04-10T15:08:04.002Z</time></trkpt><trkpt lat="43.58034606516596" lon="11.966852383293428"><ele>601.0</ele><time>2026-04-10T15:08:05.002Z</time></trkpt><trkpt lat="43.5802328483303" lon="11.966980544676405"><ele>600.5</ele><time>2026-04-10T15:08:06.002Z</time></trkpt><trkpt lat="43.58013255826866" lon="11.967125397559732"><ele>600.0</ele><time>2026-04-10T15:08:07.002Z</time></trkpt><trkpt lat="43.58003885106419" lon="11.967295969410273"><ele>600.0</ele><time>2026-04-10T15:08:08.002Z</time></trkpt><trkpt lat="43.57993817412517" lon="11.967465071757664"><ele>600.0</ele><time>2026-04-10T15:08:09.002Z</time></trkpt><trkpt lat="43.579835439584706" lon="11.967628525736929"><ele>600.0</ele><time>2026-04-10T15:08:10.002Z</time></trkpt><trkpt lat="43.57973422059834" lon="11.967791506219575"><ele>599.6666666666666</ele><time>2026-04-10T15:08:11.002Z</time></trkpt><trkpt lat="43.57963750072551" lon="11.967963074003675"><ele>599.3333333333333</ele><time>2026-04-10T15:08:12.002Z</time></trkpt><trkpt lat="43.579541096184656" lon="11.968136050917929"><ele>599.0</ele><time>2026-04-10T15:08:13.002Z</time></trkpt><trkpt lat="43.57944249553399" lon="11.96830366585497"><ele>602.6666666666666</ele><time>2026-04-10T15:08:14.002Z</time></trkpt><trkpt lat="43.579342295329894" lon="11.968471180255031"><ele>606.3333333333334</ele><time>2026-04-10T15:08:15.002Z</time></trkpt><trkpt lat="43.57924692784969" lon="11.968637410646817"><ele>610.0</ele><time>2026-04-10T15:08:16.002Z</time></trkpt><trkpt lat="43.57916072475072" lon="11.96879459779936"><ele>610.0</ele><time>2026-04-10T15:08:17.002Z</time></trkpt><trkpt lat="43.5790779242512" lon="11.96895104058123"><ele>610.0</ele><time>2026-04-10T15:08:18.002Z</time></trkpt><trkpt lat="43.578999682569574" lon="11.969111420387247"><ele>610.0</ele><time>2026-04-10T15:08:19.002Z</time></trkpt><trkpt lat="43.57892731503875" lon="11.969277197170676"><ele>610.0</ele><time>2026-04-10T15:08:20.002Z</time></trkpt><trkpt lat="43.57887570154708" lon="11.969451526063319"><ele>609.0</ele><time>2026-04-10T15:08:21.002Z</time></trkpt><trkpt lat="43.57886095158827" lon="11.969631596290265"><ele>608.0</ele><time>2026-04-10T15:08:22.002Z</time></trkpt><trkpt lat="43.57887558353497" lon="11.96980469101083"><ele>607.0</ele><time>2026-04-10T15:08:23.002Z</time></trkpt><trkpt lat="43.57891641951115" lon="11.96998066588292"><ele>606.0</ele><time>2026-04-10T15:08:24.002Z</time></trkpt><trkpt lat="43.578981830154795" lon="11.970130580739685"><ele>606.0</ele><time>2026-04-10T15:08:25.001Z</time></trkpt><trkpt lat="43.57907433160252" lon="11.970249934275897"><ele>606.0</ele><time>2026-04-10T15:08:26.001Z</time></trkpt><trkpt lat="43.57918857253307" lon="11.970337691397557"><ele>606.0</ele><time>2026-04-10T15:08:27.001Z</time></trkpt><trkpt lat="43.57930968140393" lon="11.970409520288285"><ele>606.0</ele><time>2026-04-10T15:08:28.001Z</time></trkpt><trkpt lat="43.57941753885716" lon="11.970501459234463"><ele>606.0</ele><time>2026-04-10T15:08:29.001Z</time></trkpt><trkpt lat="43.57949119226981" lon="11.970635543853817"><ele>606.0</ele><time>2026-04-10T15:08:30.001Z</time></trkpt><trkpt lat="43.57951939961942" lon="11.970796838676952"><ele>606.0</ele><time>2026-04-10T15:08:31.001Z</time></trkpt><trkpt lat="43.579512823375545" lon="11.970980218073375"><ele>606.0</ele><time>2026-04-10T15:08:32.001Z</time></trkpt><trkpt lat="43.57950439083529" lon="11.971167945571036"><ele>605.5</ele><time>2026-04-10T15:08:33.001Z</time></trkpt><trkpt lat="43.57950434752957" lon="11.97136206346722"><ele>605.0</ele><time>2026-04-10T15:08:34.001Z</time></trkpt><trkpt lat="43.57950014155829" lon="11.971564452767245"><ele>604.5</ele><time>2026-04-10T15:08:35.001Z</time></trkpt><trkpt lat="43.57948153614703" lon="11.971758829274755"><ele>604.0</ele><time>2026-04-10T15:08:36.001Z</time></trkpt><trkpt lat="43.57944722192062" lon="11.971954918825547"><ele>604.0</ele><time>2026-04-10T15:08:37.001Z</time></trkpt><trkpt lat="43.57940587356838" lon="11.972142143674997"><ele>604.0</ele><time>2026-04-10T15:08:38.001Z</time></trkpt><trkpt lat="43.57935662130392" lon="11.97232038693624"><ele>604.0</ele><time>2026-04-10T15:08:39.001Z</time></trkpt><trkpt lat="43.57931144763221" lon="11.972490181849615"><ele>604.0</ele><time>2026-04-10T15:08:40.001Z</time></trkpt><trkpt lat="43.57927989440904" lon="11.972662253000085"><ele>602.5</ele><time>2026-04-10T15:08:41.001Z</time></trkpt><trkpt lat="43.57927183549912" lon="11.972840027807699"><ele>601.0</ele><time>2026-04-10T15:08:42.001Z</time></trkpt><trkpt lat="43.579283383396216" lon="11.97302458681543"><ele>599.5</ele><time>2026-04-10T15:08:43.001Z</time></trkpt><trkpt lat="43.57931239433698" lon="11.973204461190466"><ele>598.0</ele><time>2026-04-10T15:08:44.001Z</time></trkpt><trkpt lat="43.57935632283864" lon="11.973377986825243"><ele>598.75</ele><time>2026-04-10T15:08:45.001Z</time></trkpt><trkpt lat="43.57941220126272" lon="11.973547840111259"><ele>599.5</ele><time>2026-04-10T15:08:46.001Z</time></trkpt><trkpt lat="43.57948790671424" lon="11.973702883930216"><ele>600.25</ele><time>2026-04-10T15:08:47.001Z</time></trkpt><trkpt lat="43.57959210705065" lon="11.973826329562765"><ele>601.0</ele><time>2026-04-10T15:08:48.001Z</time></trkpt><trkpt lat="43.57970988516728" lon="11.973929401161827"><ele>601.0</ele><time>2026-04-10T15:08:49.001Z</time></trkpt><trkpt lat="43.57982072729066" lon="11.974044501702185"><ele>601.0</ele><time>2026-04-10T15:08:50.001Z</time></trkpt><trkpt lat="43.579927699766" lon="11.974168256201416"><ele>601.0</ele><time>2026-04-10T15:08:51.001Z</time></trkpt><trkpt lat="43.58002659259632" lon="11.974306254784713"><ele>601.0</ele><time>2026-04-10T15:08:52.001Z</time></trkpt><trkpt lat="43.58011583136842" lon="11.974455546524144"><ele>599.0</ele><time>2026-04-10T15:08:53.001Z</time></trkpt><trkpt lat="43.58018872551352" lon="11.974618991574408"><ele>597.0</ele><time>2026-04-10T15:08:54.001Z</time></trkpt><trkpt lat="43.580236831104564" lon="11.974796653312273"><ele>595.0</ele><time>2026-04-10T15:08:55.001Z</time></trkpt><trkpt lat="43.58025152470575" lon="11.974986504135906"><ele>593.0</ele><time>2026-04-10T15:08:56.001Z</time></trkpt><trkpt lat="43.580240797138025" lon="11.975173072149099"><ele>593.0</ele><time>2026-04-10T15:08:57.001Z</time></trkpt><trkpt lat="43.58021087147158" lon="11.975357290148708"><ele>593.0</ele><time>2026-04-10T15:08:58.001Z</time></trkpt><trkpt lat="43.580171780756785" lon="11.975540058441663"><ele>593.0</ele><time>2026-04-10T15:08:59.001Z</time></trkpt><trkpt lat="43.580122014436085" lon="11.975727635214552"><ele>593.0</ele><time>2026-04-10T15:09:00.001Z</time></trkpt><trkpt lat="43.58006215852151" lon="11.975913529255212"><ele>597.25</ele><time>2026-04-10T15:09:01.001Z</time></trkpt><trkpt lat="43.57999202170845" lon="11.97609396712564"><ele>601.5</ele><time>2026-04-10T15:09:02.001Z</time></trkpt><trkpt lat="43.57991339714831" lon="11.976267804822623"><ele>605.75</ele><time>2026-04-10T15:09:03.001Z</time></trkpt><trkpt lat="43.57983320889818" lon="11.976406335618305"><ele>610.0</ele><time>2026-04-10T15:09:04.001Z</time></trkpt><trkpt lat="43.579729487703" lon="11.976502958984332"><ele>610.0</ele><time>2026-04-10T15:09:05.001Z</time></trkpt><trkpt lat="43.57960165144245" lon="11.976557920920389"><ele>610.0</ele><time>2026-04-10T15:09:06.001Z</time></trkpt><trkpt lat="43.57946338232642" lon="11.976602988630415"><ele>610.0</ele><time>2026-04-10T15:09:07.001Z</time></trkpt><trkpt lat="43.57933817251407" lon="11.976644001326429"><ele>610.0</ele><time>2026-04-10T15:09:08.001Z</time></trkpt><trkpt lat="43.579229491560746" lon="11.976698338759682"><ele>609.5</ele><time>2026-04-10T15:09:09.001Z</time></trkpt><trkpt lat="43.579142931689724" lon="11.97678757420994"><ele>609.0</ele><time>2026-04-10T15:09:10.001Z</time></trkpt><trkpt lat="43.57906788286748" lon="11.976896091422306"><ele>608.5</ele><time>2026-04-10T15:09:11.001Z</time></trkpt><trkpt lat="43.579007305823026" lon="11.977041732310472"><ele>608.0</ele><time>2026-04-10T15:09:12.001Z</time></trkpt><trkpt lat="43.578958918262586" lon="11.977209502290057"><ele>608.0</ele><time>2026-04-10T15:09:13.001Z</time></trkpt><trkpt lat="43.578917242049556" lon="11.97739939675475"><ele>608.0</ele><time>2026-04-10T15:09:14.001Z</time></trkpt><trkpt lat="43.57887890136096" lon="11.977600606173635"><ele>608.0</ele><time>2026-04-10T15:09:15.001Z</time></trkpt><trkpt lat="43.57884001492975" lon="11.977821954299763"><ele>608.6666666666666</ele><time>2026-04-10T15:09:16.001Z</time></trkpt><trkpt lat="43.57879611080325" lon="11.97804746599365"><ele>609.3333333333334</ele><time>2026-04-10T15:09:17.001Z</time></trkpt><trkpt lat="43.57875492445942" lon="11.978266881934164"><ele>610.0</ele><time>2026-04-10T15:09:18.001Z</time></trkpt><trkpt lat="43.57871073266723" lon="11.978486070140018"><ele>600.6666666666667</ele><time>2026-04-10T15:09:19.001Z</time></trkpt><trkpt lat="43.57866747941427" lon="11.978703064348842"><ele>591.3333333333334</ele><time>2026-04-10T15:09:20.001Z</time></trkpt><trkpt lat="43.57862353021991" lon="11.978919473643913"><ele>582.0</ele><time>2026-04-10T15:09:21.001Z</time></trkpt><trkpt lat="43.57857656102312" lon="11.979130788239358"><ele>582.0</ele><time>2026-04-10T15:09:22.001Z</time></trkpt><trkpt lat="43.57853150465635" lon="11.97934415891434"><ele>582.0</ele><time>2026-04-10T15:09:23.001Z</time></trkpt><trkpt lat="43.57849680267521" lon="11.979544456583847"><ele>582.0</ele><time>2026-04-10T15:09:24.001Z</time></trkpt><trkpt lat="43.57847655261176" lon="11.979718562408303"><ele>582.0</ele><time>2026-04-10T15:09:25.001Z</time></trkpt><trkpt lat="43.578489722374044" lon="11.979897838776019"><ele>578.3333333333334</ele><time>2026-04-10T15:09:26.001Z</time></trkpt><trkpt lat="43.57854222030929" lon="11.980080204282597"><ele>574.6666666666667</ele><time>2026-04-10T15:09:27.001Z</time></trkpt><trkpt lat="43.5786233481637" lon="11.980263986655208"><ele>571.0</ele><time>2026-04-10T15:09:28.001Z</time></trkpt><trkpt lat="43.57870994273429" lon="11.98046127708443"><ele>578.6666666666667</ele><time>2026-04-10T15:09:29.001Z</time></trkpt><trkpt lat="43.57877113990422" lon="11.980658919955484"><ele>586.3333333333334</ele><time>2026-04-10T15:09:30.001Z</time></trkpt><trkpt lat="43.57880859610368" lon="11.98086262239708"><ele>594.0</ele><time>2026-04-10T15:09:31.001Z</time></trkpt><trkpt lat="43.578833857619145" lon="11.981070624435175"><ele>594.0</ele><time>2026-04-10T15:09:32.001Z</time></trkpt><trkpt lat="43.578836014910706" lon="11.98127626555892"><ele>594.0</ele><time>2026-04-10T15:09:33.001Z</time></trkpt><trkpt lat="43.57882679536795" lon="11.981485084058237"><ele>594.0</ele><time>2026-04-10T15:09:34.001Z</time></trkpt><trkpt lat="43.57882906633577" lon="11.981684064800701"><ele>594.0</ele><time>2026-04-10T15:09:35.001Z</time></trkpt><trkpt lat="43.578850599611805" lon="11.981878686859483"><ele>590.75</ele><time>2026-04-10T15:09:36.001Z</time></trkpt><trkpt lat="43.57889450279662" lon="11.98206139491226"><ele>587.5</ele><time>2026-04-10T15:09:37.001Z</time></trkpt><trkpt lat="43.57896615261522" lon="11.982229134445062"><ele>584.25</ele><time>2026-04-10T15:09:38.001Z</time></trkpt><trkpt lat="43.579051084838895" lon="11.982389446438273"><ele>581.0</ele><time>2026-04-10T15:09:39.001Z</time></trkpt><trkpt lat="43.57913160085162" lon="11.982551915608754"><ele>577.0</ele><time>2026-04-10T15:09:40.001Z</time></trkpt><trkpt lat="43.57921115499947" lon="11.982710029974596"><ele>573.0</ele><time>2026-04-10T15:09:41.001Z</time></trkpt><trkpt lat="43.57929690285" lon="11.982855600109666"><ele>569.0</ele><time>2026-04-10T15:09:42.001Z</time></trkpt><trkpt lat="43.57940603270226" lon="11.982972524755576"><ele>565.0</ele><time>2026-04-10T15:09:43.002Z</time></trkpt><trkpt lat="43.5795536810647" lon="11.983029731986623"><ele>565.0</ele><time>2026-04-10T15:09:44.002Z</time></trkpt><trkpt lat="43.57970468440981" lon="11.983082182587655"><ele>565.0</ele><time>2026-04-10T15:09:45.002Z</time></trkpt><trkpt lat="43.57987001287888" lon="11.983090061814318"><ele>565.0</ele><time>2026-04-10T15:09:46.002Z</time></trkpt><trkpt lat="43.58003727400727" lon="11.983085520528656"><ele>565.0</ele><time>2026-04-10T15:09:47.002Z</time></trkpt><trkpt lat="43.580197002851776" lon="11.98307407338396"><ele>565.0</ele><time>2026-04-10T15:09:48.002Z</time></trkpt><trkpt lat="43.58035597009282" lon="11.983062184930878"><ele>565.0</ele><time>2026-04-10T15:09:49.002Z</time></trkpt><trkpt lat="43.58050817290693" lon="11.98307512921915"><ele>565.0</ele><time>2026-04-10T15:09:50.002Z</time></trkpt><trkpt lat="43.580657534032014" lon="11.983091160352549"><ele>565.0</ele><time>2026-04-10T15:09:51.002Z</time></trkpt><trkpt lat="43.580801517133914" lon="11.983127838013656"><ele>565.0</ele><time>2026-04-10T15:09:52.002Z</time></trkpt><trkpt lat="43.580938596521904" lon="11.983194381789998"><ele>565.0</ele><time>2026-04-10T15:09:53.002Z</time></trkpt><trkpt lat="43.58106353588466" lon="11.983303345555587"><ele>565.3333333333334</ele><time>2026-04-10T15:09:54.002Z</time></trkpt><trkpt lat="43.58117130913953" lon="11.98344417815215"><ele>565.6666666666666</ele><time>2026-04-10T15:09:55.002Z</time></trkpt><trkpt lat="43.581260922995824" lon="11.983617807671454"><ele>566.0</ele><time>2026-04-10T15:09:56.002Z</time></trkpt><trkpt lat="43.58134173238666" lon="11.983817444227904"><ele>566.0</ele><time>2026-04-10T15:09:57.002Z</time></trkpt><trkpt lat="43.58141527691922" lon="11.98403893486546"><ele>566.0</ele><time>2026-04-10T15:09:58.002Z</time></trkpt><trkpt lat="43.58147717510307" lon="11.984274895855387"><ele>566.0</ele><time>2026-04-10T15:09:59.002Z</time></trkpt><trkpt lat="43.581517338258884" lon="11.984518262132253"><ele>564.0</ele><time>2026-04-10T15:10:00.002Z</time></trkpt><trkpt lat="43.58154753774989" lon="11.984758291527685"><ele>562.0</ele><time>2026-04-10T15:10:01.002Z</time></trkpt><trkpt lat="43.58156459839375" lon="11.984997981781849"><ele>560.0</ele><time>2026-04-10T15:10:02.002Z</time></trkpt><trkpt lat="43.58158228143284" lon="11.985247394205423"><ele>558.3333333333333</ele><time>2026-04-10T15:10:03.002Z</time></trkpt><trkpt lat="43.581590636256514" lon="11.985503953444406"><ele>556.6666666666666</ele><time>2026-04-10T15:10:04.002Z</time></trkpt><trkpt lat="43.58160402250762" lon="11.985764096556142"><ele>555.0</ele><time>2026-04-10T15:10:05.002Z</time></trkpt><trkpt lat="43.581615080695215" lon="11.986013931424468"><ele>555.0</ele><time>2026-04-10T15:10:06.002Z</time></trkpt><trkpt lat="43.58162707190624" lon="11.986259948992727"><ele>555.0</ele><time>2026-04-10T15:10:07.002Z</time></trkpt><trkpt lat="43.5816380462824" lon="11.986497668232037"><ele>555.0</ele><time>2026-04-10T15:10:08.002Z</time></trkpt><trkpt lat="43.5816487971664" lon="11.98673649776011"><ele>554.0</ele><time>2026-04-10T15:10:09.002Z</time></trkpt><trkpt lat="43.58165680067291" lon="11.986970075057638"><ele>553.0</ele><time>2026-04-10T15:10:10.002Z</time></trkpt><trkpt lat="43.58166218219766" lon="11.987197630885907"><ele>552.0</ele><time>2026-04-10T15:10:11.002Z</time></trkpt><trkpt lat="43.58167263418756" lon="11.987408078384695"><ele>549.5</ele><time>2026-04-10T15:10:12.002Z</time></trkpt><trkpt lat="43.581699339183814" lon="11.98758863226248"><ele>547.0</ele><time>2026-04-10T15:10:13.002Z</time></trkpt><trkpt lat="43.58175280802801" lon="11.987753343733713"><ele>544.5</ele><time>2026-04-10T15:10:14.002Z</time></trkpt><trkpt lat="43.58184334962602" lon="11.987899760370473"><ele>542.0</ele><time>2026-04-10T15:10:15.002Z</time></trkpt><trkpt lat="43.581963971589765" lon="11.988000682199681"><ele>543.25</ele><time>2026-04-10T15:10:16.002Z</time></trkpt><trkpt lat="43.58209417051135" lon="11.98806950616575"><ele>544.5</ele><time>2026-04-10T15:10:17.002Z</time></trkpt><trkpt lat="43.5822408424702" lon="11.988134925827108"><ele>545.75</ele><time>2026-04-10T15:10:18.002Z</time></trkpt><trkpt lat="43.58238322397406" lon="11.988217355566752"><ele>547.0</ele><time>2026-04-10T15:10:19.002Z</time></trkpt><trkpt lat="43.58252900740583" lon="11.988303371447499"><ele>544.3333333333334</ele><time>2026-04-10T15:10:20.002Z</time></trkpt><trkpt lat="43.582677461009666" lon="11.988381021366031"><ele>541.6666666666666</ele><time>2026-04-10T15:10:21.002Z</time></trkpt><trkpt lat="43.58282479167729" lon="11.988461621586477"><ele>539.0</ele><time>2026-04-10T15:10:22.002Z</time></trkpt><trkpt lat="43.582972980322154" lon="11.98854721238293"><ele>539.0</ele><time>2026-04-10T15:10:23.002Z</time></trkpt><trkpt lat="43.58311905486735" lon="11.9886323698205"><ele>539.0</ele><time>2026-04-10T15:10:24.002Z</time></trkpt><trkpt lat="43.58326339383758" lon="11.988712762681752"><ele>539.0</ele><time>2026-04-10T15:10:25.002Z</time></trkpt><trkpt lat="43.583405261760056" lon="11.988797802629861"><ele>539.0</ele><time>2026-04-10T15:10:26.002Z</time></trkpt><trkpt lat="43.58354882590914" lon="11.988879149096212"><ele>539.0</ele><time>2026-04-10T15:10:27.002Z</time></trkpt><trkpt lat="43.58368799410623" lon="11.988965895260922"><ele>539.0</ele><time>2026-04-10T15:10:28.002Z</time></trkpt><trkpt lat="43.58379864318301" lon="11.989064114487952"><ele>539.0</ele><time>2026-04-10T15:10:29.002Z</time></trkpt><trkpt lat="43.58388352236964" lon="11.989181772242139"><ele>536.25</ele><time>2026-04-10T15:10:30.002Z</time></trkpt><trkpt lat="43.58392657395861" lon="11.9893289552563"><ele>533.5</ele><time>2026-04-10T15:10:31.002Z</time></trkpt><trkpt lat="43.58395103058145" lon="11.989474771285359"><ele>530.75</ele><time>2026-04-10T15:10:32.002Z</time></trkpt><trkpt lat="43.58394904601663" lon="11.989633894910272"><ele>528.0</ele><time>2026-04-10T15:10:33.002Z</time></trkpt><trkpt lat="43.5839516961272" lon="11.989803487027407"><ele>528.0</ele><time>2026-04-10T15:10:34.002Z</time></trkpt><trkpt lat="43.58393438008004" lon="11.989978619038935"><ele>528.0</ele><time>2026-04-10T15:10:35.002Z</time></trkpt><trkpt lat="43.58390102515064" lon="11.99015432734685"><ele>528.0</ele><time>2026-04-10T15:10:36.002Z</time></trkpt><trkpt lat="43.58381955430618" lon="11.990303857331865"><ele>528.0</ele><time>2026-04-10T15:10:37.002Z</time></trkpt><trkpt lat="43.58372647299414" lon="11.990442869534391"><ele>527.1999999999999</ele><time>2026-04-10T15:10:38.002Z</time></trkpt><trkpt lat="43.58363867726339" lon="11.990577979085938"><ele>526.4</ele><time>2026-04-10T15:10:39.002Z</time></trkpt><trkpt lat="43.58356585324511" lon="11.990686697205394"><ele>525.5999999999999</ele><time>2026-04-10T15:10:40.002Z</time></trkpt><trkpt lat="43.58350291227131" lon="11.990781807221964"><ele>524.8</ele><time>2026-04-10T15:10:41.002Z</time></trkpt><trkpt lat="43.58347500647231" lon="11.990878967958478"><ele>524.0</ele><time>2026-04-10T15:10:42.002Z</time></trkpt><trkpt lat="43.58348040237475" lon="11.990972308784425"><ele>523.0</ele><time>2026-04-10T15:10:43.002Z</time></trkpt><trkpt lat="43.5835457933244" lon="11.991053881774736"><ele>522.0</ele><time>2026-04-10T15:10:44.002Z</time></trkpt><trkpt lat="43.58364153659384" lon="11.991021713582382"><ele>521.0</ele><time>2026-04-10T15:10:45.002Z</time></trkpt><trkpt lat="43.583724160320315" lon="11.990947460071476"><ele>520.0</ele><time>2026-04-10T15:10:46.002Z</time></trkpt><trkpt lat="43.58379582626435" lon="11.99083942079135"><ele>519.0</ele><time>2026-04-10T15:10:47.002Z</time></trkpt><trkpt lat="43.58386399065902" lon="11.990731679861172"><ele>519.0</ele><time>2026-04-10T15:10:48.002Z</time></trkpt><trkpt lat="43.58394608807546" lon="11.990647609437957"><ele>519.0</ele><time>2026-04-10T15:10:49.002Z</time></trkpt><trkpt lat="43.58404809603195" lon="11.990619776178695"><ele>519.0</ele><time>2026-04-10T15:10:50.001Z</time></trkpt><trkpt lat="43.58414837540386" lon="11.99066700033469"><ele>519.0</ele><time>2026-04-10T15:10:51.001Z</time></trkpt><trkpt lat="43.58422227770682" lon="11.990780161735197"><ele>519.0</ele><time>2026-04-10T15:10:52.001Z</time></trkpt><trkpt lat="43.5842958025706" lon="11.990912069522954"><ele>517.75</ele><time>2026-04-10T15:10:53.001Z</time></trkpt><trkpt lat="43.584373624323234" lon="11.991055494648384"><ele>516.5</ele><time>2026-04-10T15:10:54.001Z</time></trkpt><trkpt lat="43.58444591363986" lon="11.991194310527117"><ele>515.25</ele><time>2026-04-10T15:10:55.001Z</time></trkpt><trkpt lat="43.584514367076295" lon="11.991325011223987"><ele>514.0</ele><time>2026-04-10T15:10:56.001Z</time></trkpt><trkpt lat="43.58458237666607" lon="11.99145457308067"><ele>516.5</ele><time>2026-04-10T15:10:57.001Z</time></trkpt><trkpt lat="43.58463293413016" lon="11.991593261599988"><ele>519.0</ele><time>2026-04-10T15:10:58.001Z</time></trkpt><trkpt lat="43.584645683330535" lon="11.991747585453716"><ele>521.5</ele><time>2026-04-10T15:10:59.001Z</time></trkpt><trkpt lat="43.58461032776544" lon="11.991892140525534"><ele>524.0</ele><time>2026-04-10T15:11:00.001Z</time></trkpt><trkpt lat="43.58452388254066" lon="11.991998029927057"><ele>522.0</ele><time>2026-04-10T15:11:01.001Z</time></trkpt><trkpt lat="43.58444011269571" lon="11.992139084603112"><ele>520.0</ele><time>2026-04-10T15:11:02.001Z</time></trkpt><trkpt lat="43.58433054478845" lon="11.992267089496517"><ele>518.0</ele><time>2026-04-10T15:11:03.001Z</time></trkpt><trkpt lat="43.58421795303659" lon="11.992371112053828"><ele>516.0</ele><time>2026-04-10T15:11:04.001Z</time></trkpt><trkpt lat="43.58409979763793" lon="11.992445424655862"><ele>516.0</ele><time>2026-04-10T15:11:05.001Z</time></trkpt><trkpt lat="43.58397230317804" lon="11.992500565814856"><ele>516.0</ele><time>2026-04-10T15:11:06.001Z</time></trkpt><trkpt lat="43.58383970545577" lon="11.992571585123754"><ele>516.0</ele><time>2026-04-10T15:11:07.001Z</time></trkpt><trkpt lat="43.58370555939325" lon="11.992646811573186"><ele>516.0</ele><time>2026-04-10T15:11:08.001Z</time></trkpt><trkpt lat="43.58356245459692" lon="11.992720798290135"><ele>514.0</ele><time>2026-04-10T15:11:09.001Z</time></trkpt><trkpt lat="43.583419370923174" lon="11.992795823381659"><ele>512.0</ele><time>2026-04-10T15:11:10.001Z</time></trkpt><trkpt lat="43.58327655994344" lon="11.99287383599436"><ele>510.0</ele><time>2026-04-10T15:11:11.001Z</time></trkpt><trkpt lat="43.58313730104914" lon="11.992954402488175"><ele>510.0</ele><time>2026-04-10T15:11:12.001Z</time></trkpt><trkpt lat="43.58299866932123" lon="11.993043480429556"><ele>510.0</ele><time>2026-04-10T15:11:13.001Z</time></trkpt><trkpt lat="43.58287134108728" lon="11.993167451501181"><ele>510.0</ele><time>2026-04-10T15:11:14.001Z</time></trkpt><trkpt lat="43.582761324412566" lon="11.993333889870355"><ele>508.66666666666663</ele><time>2026-04-10T15:11:15.001Z</time></trkpt><trkpt lat="43.582673568839354" lon="11.993518927563846"><ele>507.3333333333333</ele><time>2026-04-10T15:11:16.001Z</time></trkpt><trkpt lat="43.58259237691674" lon="11.99370800107423"><ele>506.0</ele><time>2026-04-10T15:11:17.001Z</time></trkpt><trkpt lat="43.582518366972295" lon="11.99390374127244"><ele>506.0</ele><time>2026-04-10T15:11:18.001Z</time></trkpt><trkpt lat="43.5824542277085" lon="11.99410740120633"><ele>506.0</ele><time>2026-04-10T15:11:19.001Z</time></trkpt><trkpt lat="43.58239326007503" lon="11.994316859989441"><ele>506.0</ele><time>2026-04-10T15:11:20.001Z</time></trkpt><trkpt lat="43.58233702546601" lon="11.994530445472492"><ele>507.3333333333333</ele><time>2026-04-10T15:11:21.001Z</time></trkpt><trkpt lat="43.58228408190818" lon="11.994743765580482"><ele>508.66666666666663</ele><time>2026-04-10T15:11:22.001Z</time></trkpt><trkpt lat="43.582234995308376" lon="11.994950394937852"><ele>510.0</ele><time>2026-04-10T15:11:23.001Z</time></trkpt><trkpt lat="43.58217359898153" lon="11.995139926606"><ele>509.25</ele><time>2026-04-10T15:11:24.001Z</time></trkpt><trkpt lat="43.58213584046293" lon="11.995337736703352"><ele>508.5</ele><time>2026-04-10T15:11:25.001Z</time></trkpt><trkpt lat="43.58208326256701" lon="11.995526350157192"><ele>507.75</ele><time>2026-04-10T15:11:26.001Z</time></trkpt><trkpt lat="43.582034909050094" lon="11.995712209730778"><ele>507.0</ele><time>2026-04-10T15:11:27.001Z</time></trkpt><trkpt lat="43.58199171026113" lon="11.995888091007552"><ele>507.0</ele><time>2026-04-10T15:11:28.001Z</time></trkpt><trkpt lat="43.58194873511442" lon="11.99604965502561"><ele>507.0</ele><time>2026-04-10T15:11:29.001Z</time></trkpt><trkpt lat="43.58191266789231" lon="11.996167468750077"><ele>507.0</ele><time>2026-04-10T15:11:30.001Z</time></trkpt><trkpt lat="43.58187942575419" lon="11.99624803347909"><ele>507.0</ele><time>2026-04-10T15:11:31.001Z</time></trkpt><trkpt lat="43.581837259929934" lon="11.996316438670618"><ele>507.0</ele><time>2026-04-10T15:11:32.001Z</time></trkpt><trkpt lat="43.58177370469704" lon="11.99635946958647"><ele>507.0</ele><time>2026-04-10T15:11:33.001Z</time></trkpt><trkpt lat="43.58169427724259" lon="11.996399077065394"><ele>507.0</ele><time>2026-04-10T15:11:34.001Z</time></trkpt><trkpt lat="43.581621182730736" lon="11.996481776099829"><ele>507.00000000000006</ele><time>2026-04-10T15:11:35.001Z</time></trkpt><trkpt lat="43.58157523202769" lon="11.996601751256948"><ele>507.00000000000006</ele><time>2026-04-10T15:11:36.001Z</time></trkpt><trkpt lat="43.5815692956097" lon="11.996739069186443"><ele>507.0</ele><time>2026-04-10T15:11:37.001Z</time></trkpt><trkpt lat="43.58160905037496" lon="11.996874275423854"><ele>507.0</ele><time>2026-04-10T15:11:38.001Z</time></trkpt><trkpt lat="43.58166924933292" lon="11.997004120367942"><ele>506.0</ele><time>2026-04-10T15:11:39.001Z</time></trkpt><trkpt lat="43.58172481452826" lon="11.997142793026201"><ele>505.0</ele><time>2026-04-10T15:11:40.001Z</time></trkpt><trkpt lat="43.58175700522511" lon="11.997301145925325"><ele>504.0</ele><time>2026-04-10T15:11:41.001Z</time></trkpt><trkpt lat="43.58176120006107" lon="11.997472245248712"><ele>503.0</ele><time>2026-04-10T15:11:42.001Z</time></trkpt><trkpt lat="43.58173646680301" lon="11.997644878133126"><ele>501.75</ele><time>2026-04-10T15:11:43.001Z</time></trkpt><trkpt lat="43.581680249817026" lon="11.997806039362217"><ele>500.5</ele><time>2026-04-10T15:11:44.001Z</time></trkpt><trkpt lat="43.58158765440989" lon="11.997941238412453"><ele>499.25</ele><time>2026-04-10T15:11:45.001Z</time></trkpt><trkpt lat="43.58150129318069" lon="11.998079085934402"><ele>498.0</ele><time>2026-04-10T15:11:46.001Z</time></trkpt><trkpt lat="43.581444066643385" lon="11.998221476109325"><ele>496.5</ele><time>2026-04-10T15:11:47.001Z</time></trkpt><trkpt lat="43.58141771680942" lon="11.99839447608961"><ele>495.0</ele><time>2026-04-10T15:11:48.001Z</time></trkpt><trkpt lat="43.5814237556425" lon="11.998567913387538"><ele>493.5</ele><time>2026-04-10T15:11:49.001Z</time></trkpt><trkpt lat="43.58143955822628" lon="11.998748770323452"><ele>492.0</ele><time>2026-04-10T15:11:50.001Z</time></trkpt><trkpt lat="43.58145737092277" lon="11.99892451943432"><ele>492.0</ele><time>2026-04-10T15:11:51.001Z</time></trkpt><trkpt lat="43.58148304961464" lon="11.999096965697575"><ele>492.0</ele><time>2026-04-10T15:11:52.001Z</time></trkpt><trkpt lat="43.581535607958415" lon="11.999264436497633"><ele>492.0</ele><time>2026-04-10T15:11:53.001Z</time></trkpt><trkpt lat="43.581612131664016" lon="11.9994246149687"><ele>492.0</ele><time>2026-04-10T15:11:54.001Z</time></trkpt><trkpt lat="43.58170426372077" lon="11.999580707423496"><ele>492.0</ele><time>2026-04-10T15:11:55.001Z</time></trkpt><trkpt lat="43.58180173765188" lon="11.99972537225091"><ele>492.0</ele><time>2026-04-10T15:11:56.001Z</time></trkpt><trkpt lat="43.5819080829514" lon="11.99986536589667"><ele>492.0</ele><time>2026-04-10T15:11:57.001Z</time></trkpt><trkpt lat="43.5820057008189" lon="12.000012342113804"><ele>492.0</ele><time>2026-04-10T15:11:58.001Z</time></trkpt><trkpt lat="43.58208608794252" lon="12.00019346451655"><ele>492.0</ele><time>2026-04-10T15:11:59.001Z</time></trkpt><trkpt lat="43.58214431792932" lon="12.000390617776176"><ele>492.0</ele><time>2026-04-10T15:12:00.001Z</time></trkpt><trkpt lat="43.582181003380065" lon="12.000577588291506"><ele>492.0</ele><time>2026-04-10T15:12:01.001Z</time></trkpt><trkpt lat="43.58221048596877" lon="12.000732733520463"><ele>492.0</ele><time>2026-04-10T15:12:02.001Z</time></trkpt><trkpt lat="43.582223882507456" lon="12.000865149438715"><ele>491.0</ele><time>2026-04-10T15:12:03.002Z</time></trkpt><trkpt lat="43.58220561668444" lon="12.000980971491714"><ele>490.00000000000006</ele><time>2026-04-10T15:12:04.002Z</time></trkpt><trkpt lat="43.58214420173795" lon="12.001072549457056"><ele>489.00000000000006</ele><time>2026-04-10T15:12:05.002Z</time></trkpt><trkpt lat="43.582041941145945" lon="12.00114152286848"><ele>488.0</ele><time>2026-04-10T15:12:06.002Z</time></trkpt><trkpt lat="43.58191777865724" lon="12.001219890469452"><ele>487.0</ele><time>2026-04-10T15:12:07.002Z</time></trkpt><trkpt lat="43.581783055944065" lon="12.001323036906486"><ele>482.33333333333337</ele><time>2026-04-10T15:12:08.002Z</time></trkpt><trkpt lat="43.58164928977423" lon="12.001431751023294"><ele>477.66666666666663</ele><time>2026-04-10T15:12:09.002Z</time></trkpt><trkpt lat="43.58152411476747" lon="12.001542682171584"><ele>473.0</ele><time>2026-04-10T15:12:10.002Z</time></trkpt><trkpt lat="43.581399816243696" lon="12.001660587245794"><ele>474.0</ele><time>2026-04-10T15:12:11.002Z</time></trkpt><trkpt lat="43.58127694426516" lon="12.001786719415712"><ele>475.0</ele><time>2026-04-10T15:12:12.002Z</time></trkpt><trkpt lat="43.5811603701193" lon="12.00191169848518"><ele>476.0</ele><time>2026-04-10T15:12:13.002Z</time></trkpt><trkpt lat="43.581052170136836" lon="12.002047206753309"><ele>477.0</ele><time>2026-04-10T15:12:14.002Z</time></trkpt><trkpt lat="43.58095495103725" lon="12.002203458306656"><ele>475.33333333333337</ele><time>2026-04-10T15:12:15.002Z</time></trkpt><trkpt lat="43.58087595168504" lon="12.002379679631659"><ele>473.6666666666667</ele><time>2026-04-10T15:12:16.002Z</time></trkpt><trkpt lat="43.580798987596886" lon="12.002574448183271"><ele>472.0</ele><time>2026-04-10T15:12:17.002Z</time></trkpt><trkpt lat="43.580723020883454" lon="12.002767043423411"><ele>472.0</ele><time>2026-04-10T15:12:18.002Z</time></trkpt><trkpt lat="43.58063926112609" lon="12.00295234718453"><ele>472.0</ele><time>2026-04-10T15:12:19.002Z</time></trkpt><trkpt lat="43.58055223880733" lon="12.003136804216373"><ele>472.0</ele><time>2026-04-10T15:12:20.002Z</time></trkpt><trkpt lat="43.58046505870375" lon="12.00332095503191"><ele>472.33333333333337</ele><time>2026-04-10T15:12:21.002Z</time></trkpt><trkpt lat="43.58038045308761" lon="12.00350038920202"><ele>472.66666666666663</ele><time>2026-04-10T15:12:22.002Z</time></trkpt><trkpt lat="43.580297844683805" lon="12.003678922629078"><ele>473.0</ele><time>2026-04-10T15:12:23.002Z</time></trkpt><trkpt lat="43.58022651757709" lon="12.003870384714265"><ele>468.3333333333333</ele><time>2026-04-10T15:12:24.002Z</time></trkpt><trkpt lat="43.58016950522229" lon="12.004084940130804"><ele>463.66666666666663</ele><time>2026-04-10T15:12:25.002Z</time></trkpt><trkpt lat="43.58012286237064" lon="12.004315558143944"><ele>459.0</ele><time>2026-04-10T15:12:26.002Z</time></trkpt><trkpt lat="43.58007990640408" lon="12.004540516048714"><ele>459.0</ele><time>2026-04-10T15:12:27.002Z</time></trkpt><trkpt lat="43.580037916351316" lon="12.00476315145401"><ele>459.0</ele><time>2026-04-10T15:12:28.002Z</time></trkpt><trkpt lat="43.579994899393874" lon="12.004987762384777"><ele>459.0</ele><time>2026-04-10T15:12:29.002Z</time></trkpt><trkpt lat="43.579950042975206" lon="12.005214204544487"><ele>458.33333333333337</ele><time>2026-04-10T15:12:30.002Z</time></trkpt><trkpt lat="43.57990744361839" lon="12.005442618515513"><ele>457.6666666666667</ele><time>2026-04-10T15:12:31.002Z</time></trkpt><trkpt lat="43.57986284580163" lon="12.005669957238457"><ele>457.0</ele><time>2026-04-10T15:12:32.002Z</time></trkpt><trkpt lat="43.579818308922476" lon="12.005897428077265"><ele>455.33333333333337</ele><time>2026-04-10T15:12:33.002Z</time></trkpt><trkpt lat="43.57975694568949" lon="12.00611720227107"><ele>453.66666666666663</ele><time>2026-04-10T15:12:34.002Z</time></trkpt><trkpt lat="43.57967151199567" lon="12.006317309461805"><ele>452.0</ele><time>2026-04-10T15:12:35.002Z</time></trkpt><trkpt lat="43.57956346619202" lon="12.006494223697251"><ele>448.3333333333333</ele><time>2026-04-10T15:12:36.002Z</time></trkpt><trkpt lat="43.57945684676369" lon="12.006666872285539"><ele>444.66666666666663</ele><time>2026-04-10T15:12:37.002Z</time></trkpt><trkpt lat="43.57937058905053" lon="12.006856222839001"><ele>441.0</ele><time>2026-04-10T15:12:38.002Z</time></trkpt><trkpt lat="43.57931080000329" lon="12.007040719082909"><ele>441.0</ele><time>2026-04-10T15:12:39.002Z</time></trkpt><trkpt lat="43.57928688884626" lon="12.007232126598053"><ele>441.0</ele><time>2026-04-10T15:12:40.002Z</time></trkpt><trkpt lat="43.57928832595122" lon="12.007432300170183"><ele>441.0</ele><time>2026-04-10T15:12:41.002Z</time></trkpt><trkpt lat="43.579307719787266" lon="12.00763009098999"><ele>441.0</ele><time>2026-04-10T15:12:42.002Z</time></trkpt><trkpt lat="43.57932448941339" lon="12.007828222512513"><ele>440.0</ele><time>2026-04-10T15:12:43.001Z</time></trkpt><trkpt lat="43.579335217236945" lon="12.00802418810248"><ele>439.0</ele><time>2026-04-10T15:12:44.001Z</time></trkpt><trkpt lat="43.57933994852721" lon="12.008225920305536"><ele>438.0</ele><time>2026-04-10T15:12:45.001Z</time></trkpt><trkpt lat="43.579339139183034" lon="12.008438938160488"><ele>437.0</ele><time>2026-04-10T15:12:46.001Z</time></trkpt><trkpt lat="43.57933933837389" lon="12.008657179652761"><ele>436.3333333333333</ele><time>2026-04-10T15:12:47.001Z</time></trkpt><trkpt lat="43.57933376544645" lon="12.008869204274186"><ele>435.66666666666663</ele><time>2026-04-10T15:12:48.001Z</time></trkpt><trkpt lat="43.57932015583108" lon="12.00907596232576"><ele>435.0</ele><time>2026-04-10T15:12:49.001Z</time></trkpt><trkpt lat="43.57929083804741" lon="12.009275794228989"><ele>435.0</ele><time>2026-04-10T15:12:50.001Z</time></trkpt><trkpt lat="43.579245699157994" lon="12.009469212798763"><ele>435.0</ele><time>2026-04-10T15:12:51.001Z</time></trkpt><trkpt lat="43.57919228159551" lon="12.009660826366499"><ele>435.0</ele><time>2026-04-10T15:12:52.001Z</time></trkpt><trkpt lat="43.57912914106277" lon="12.009852243204243"><ele>435.0</ele><time>2026-04-10T15:12:53.001Z</time></trkpt><trkpt lat="43.57906186163199" lon="12.010045194003746"><ele>438.33333333333337</ele><time>2026-04-10T15:12:54.001Z</time></trkpt><trkpt lat="43.57899976498302" lon="12.010250863162595"><ele>441.6666666666667</ele><time>2026-04-10T15:12:55.001Z</time></trkpt><trkpt lat="43.578941501949956" lon="12.010445061583074"><ele>445.0</ele><time>2026-04-10T15:12:56.001Z</time></trkpt><trkpt lat="43.57887311422693" lon="12.010619411820654"><ele>445.0</ele><time>2026-04-10T15:12:57.001Z</time></trkpt><trkpt lat="43.57878205490838" lon="12.010775601400669"><ele>445.0</ele><time>2026-04-10T15:12:58.001Z</time></trkpt><trkpt lat="43.578669264174835" lon="12.010903583437928"><ele>445.0</ele><time>2026-04-10T15:12:59.001Z</time></trkpt><trkpt lat="43.57855138247161" lon="12.011018035066318"><ele>445.0</ele><time>2026-04-10T15:13:00.001Z</time></trkpt><trkpt lat="43.578440674395" lon="12.011126068821468"><ele>442.75</ele><time>2026-04-10T15:13:01.001Z</time></trkpt><trkpt lat="43.578318285657886" lon="12.011232697355194"><ele>440.5</ele><time>2026-04-10T15:13:02.001Z</time></trkpt><trkpt lat="43.578192028886455" lon="12.011341974962315"><ele>438.25</ele><time>2026-04-10T15:13:03.001Z</time></trkpt><trkpt lat="43.57806392205512" lon="12.011459260823685"><ele>436.0</ele><time>2026-04-10T15:13:04.001Z</time></trkpt><trkpt lat="43.577939442368326" lon="12.011585968053742"><ele>436.33333333333337</ele><time>2026-04-10T15:13:05.001Z</time></trkpt><trkpt lat="43.57781558886827" lon="12.01172073967458"><ele>436.66666666666663</ele><time>2026-04-10T15:13:06.001Z</time></trkpt><trkpt lat="43.57769248715161" lon="12.011849604478986"><ele>437.0</ele><time>2026-04-10T15:13:07.001Z</time></trkpt><trkpt lat="43.57757000116232" lon="12.011975987058646"><ele>437.0</ele><time>2026-04-10T15:13:08.001Z</time></trkpt><trkpt lat="43.57744987801104" lon="12.01209578045762"><ele>437.0</ele><time>2026-04-10T15:13:09.001Z</time></trkpt><trkpt lat="43.5773428631155" lon="12.012211880231071"><ele>437.0</ele><time>2026-04-10T15:13:10.001Z</time></trkpt><trkpt lat="43.577260821596894" lon="12.012339772066388"><ele>437.0</ele><time>2026-04-10T15:13:11.001Z</time></trkpt><trkpt lat="43.57722118860366" lon="12.012498388862523"><ele>439.25</ele><time>2026-04-10T15:13:12.001Z</time></trkpt><trkpt lat="43.577218178026584" lon="12.012680987756482"><ele>441.5</ele><time>2026-04-10T15:13:13.001Z</time></trkpt><trkpt lat="43.57724875679024" lon="12.012864003312245"><ele>443.75</ele><time>2026-04-10T15:13:14.001Z</time></trkpt><trkpt lat="43.57727945497332" lon="12.013058349052882"><ele>446.0</ele><time>2026-04-10T15:13:15.001Z</time></trkpt><trkpt lat="43.577291948354905" lon="12.01324793503661"><ele>448.5</ele><time>2026-04-10T15:13:16.001Z</time></trkpt><trkpt lat="43.57728835024451" lon="12.01343542757103"><ele>451.0</ele><time>2026-04-10T15:13:17.001Z</time></trkpt><trkpt lat="43.57726805939496" lon="12.013619177250488"><ele>453.5</ele><time>2026-04-10T15:13:18.001Z</time></trkpt><trkpt lat="43.57723820792327" lon="12.0138044907239"><ele>456.0</ele><time>2026-04-10T15:13:19.001Z</time></trkpt><trkpt lat="43.57720040613721" lon="12.013986209835384"><ele>456.0</ele><time>2026-04-10T15:13:20.001Z</time></trkpt><trkpt lat="43.5771409676803" lon="12.014142796809736"><ele>456.0</ele><time>2026-04-10T15:13:21.001Z</time></trkpt><trkpt lat="43.57704718861516" lon="12.014264339571268"><ele>456.0</ele><time>2026-04-10T15:13:22.001Z</time></trkpt><trkpt lat="43.57693204703472" lon="12.014341424008892"><ele>456.0</ele><time>2026-04-10T15:13:23.001Z</time></trkpt><trkpt lat="43.57680466696205" lon="12.01444210529988"><ele>454.0</ele><time>2026-04-10T15:13:24.001Z</time></trkpt><trkpt lat="43.57669678039177" lon="12.014534196227256"><ele>452.0</ele><time>2026-04-10T15:13:25.001Z</time></trkpt><trkpt lat="43.57662315302176" lon="12.014633837300698"><ele>450.0</ele><time>2026-04-10T15:13:26.001Z</time></trkpt><trkpt lat="43.57658956609414" lon="12.014751778243811"><ele>448.0</ele><time>2026-04-10T15:13:27.001Z</time></trkpt><trkpt lat="43.576617761295104" lon="12.014898221058049"><ele>446.0</ele><time>2026-04-10T15:13:28.001Z</time></trkpt><trkpt lat="43.576643405836265" lon="12.015072669406765"><ele>446.0</ele><time>2026-04-10T15:13:29.001Z</time></trkpt><trkpt lat="43.576658733927445" lon="12.0152553780801"><ele>446.0</ele><time>2026-04-10T15:13:30.001Z</time></trkpt><trkpt lat="43.57666700400634" lon="12.015420603990197"><ele>446.0</ele><time>2026-04-10T15:13:31.001Z</time></trkpt><trkpt lat="43.57666669165611" lon="12.015565071935878"><ele>446.0</ele><time>2026-04-10T15:13:32.001Z</time></trkpt><trkpt lat="43.57664419281695" lon="12.015676594521814"><ele>446.0</ele><time>2026-04-10T15:13:33.001Z</time></trkpt><trkpt lat="43.576587261618684" lon="12.015756970393218"><ele>446.0</ele><time>2026-04-10T15:13:34.001Z</time></trkpt><trkpt lat="43.576501949570186" lon="12.015795128881525"><ele>446.0</ele><time>2026-04-10T15:13:35.001Z</time></trkpt><trkpt lat="43.57642429955092" lon="12.015767482173912"><ele>446.0</ele><time>2026-04-10T15:13:36.001Z</time></trkpt><trkpt lat="43.57635501789549" lon="12.015672718980746"><ele>446.0</ele><time>2026-04-10T15:13:37.001Z</time></trkpt><trkpt lat="43.57627576396943" lon="12.01552373163778"><ele>446.0</ele><time>2026-04-10T15:13:38.001Z</time></trkpt><trkpt lat="43.57621069089025" lon="12.015376547462896"><ele>442.8</ele><time>2026-04-10T15:13:39.001Z</time></trkpt><trkpt lat="43.576132985081514" lon="12.015249206206017"><ele>439.6</ele><time>2026-04-10T15:13:40.001Z</time></trkpt><trkpt lat="43.576070113412705" lon="12.015145636060838"><ele>436.4</ele><time>2026-04-10T15:13:41.001Z</time></trkpt><trkpt lat="43.575990738670264" lon="12.015061202974131"><ele>433.2</ele><time>2026-04-10T15:13:42.001Z</time></trkpt><trkpt lat="43.57588174534869" lon="12.015021549990179"><ele>430.0</ele><time>2026-04-10T15:13:43.001Z</time></trkpt><trkpt lat="43.575765120284395" lon="12.015024577215238"><ele>430.0</ele><time>2026-04-10T15:13:44.001Z</time></trkpt><trkpt lat="43.57564699147871" lon="12.015063262735424"><ele>430.0</ele><time>2026-04-10T15:13:45.001Z</time></trkpt><trkpt lat="43.57553466458897" lon="12.015140509271312"><ele>430.0</ele><time>2026-04-10T15:13:46.001Z</time></trkpt><trkpt lat="43.57542039379693" lon="12.015239937925859"><ele>430.0</ele><time>2026-04-10T15:13:47.001Z</time></trkpt><trkpt lat="43.57529938981217" lon="12.015366500520658"><ele>426.75</ele><time>2026-04-10T15:13:48.001Z</time></trkpt><trkpt lat="43.57518203038078" lon="12.015491282590624"><ele>423.5</ele><time>2026-04-10T15:13:49.001Z</time></trkpt><trkpt lat="43.57506666817734" lon="12.015610225662444"><ele>420.25</ele><time>2026-04-10T15:13:50.001Z</time></trkpt><trkpt lat="43.57496393772729" lon="12.015714764433238"><ele>417.0</ele><time>2026-04-10T15:13:51.001Z</time></trkpt><trkpt lat="43.57488381721692" lon="12.015814516919987"><ele>418.0</ele><time>2026-04-10T15:13:52.001Z</time></trkpt><trkpt lat="43.57483351574629" lon="12.015933156628199"><ele>419.0</ele><time>2026-04-10T15:13:53.001Z</time></trkpt><trkpt lat="43.574823801104486" lon="12.016076661347872"><ele>420.0</ele><time>2026-04-10T15:13:54.001Z</time></trkpt><trkpt lat="43.57485339628315" lon="12.016233587472469"><ele>421.0</ele><time>2026-04-10T15:13:55.001Z</time></trkpt><trkpt lat="43.574904406497" lon="12.016387495954541"><ele>422.0</ele><time>2026-04-10T15:13:56.001Z</time></trkpt><trkpt lat="43.574961114949204" lon="12.016533139042844"><ele>421.99999999999994</ele><time>2026-04-10T15:13:57.001Z</time></trkpt><trkpt lat="43.574992592622635" lon="12.01665174199356"><ele>422.0</ele><time>2026-04-10T15:13:58.001Z</time></trkpt><trkpt lat="43.57499111061745" lon="12.016751559674434"><ele>422.0</ele><time>2026-04-10T15:13:59.001Z</time></trkpt><trkpt lat="43.57495161876429" lon="12.016838128859092"><ele>422.0</ele><time>2026-04-10T15:14:00.001Z</time></trkpt><trkpt lat="43.57487758570285" lon="12.016901145272628"><ele>421.99999999999994</ele><time>2026-04-10T15:14:01.001Z</time></trkpt><trkpt lat="43.57478601269515" lon="12.016972455200015"><ele>422.0</ele><time>2026-04-10T15:14:02.001Z</time></trkpt><trkpt lat="43.574693045056144" lon="12.01703927728894"><ele>422.75</ele><time>2026-04-10T15:14:03.001Z</time></trkpt><trkpt lat="43.57457927910686" lon="12.017070503063495"><ele>423.5</ele><time>2026-04-10T15:14:04.001Z</time></trkpt><trkpt lat="43.57446076755191" lon="12.017059270787126"><ele>424.25</ele><time>2026-04-10T15:14:05.001Z</time></trkpt><trkpt lat="43.57434695141399" lon="12.01704018068093"><ele>425.0</ele><time>2026-04-10T15:14:06.001Z</time></trkpt><trkpt lat="43.57423915952601" lon="12.01709498935975"><ele>423.75</ele><time>2026-04-10T15:14:07.001Z</time></trkpt><trkpt lat="43.5741371021068" lon="12.0172004519165"><ele>422.5</ele><time>2026-04-10T15:14:08.001Z</time></trkpt><trkpt lat="43.57401372517413" lon="12.01733824802098"><ele>421.25</ele><time>2026-04-10T15:14:09.001Z</time></trkpt><trkpt lat="43.5738949963275" lon="12.01748658043331"><ele>420.0</ele><time>2026-04-10T15:14:10.001Z</time></trkpt><trkpt lat="43.57378056569082" lon="12.017643640862723"><ele>424.33333333333337</ele><time>2026-04-10T15:14:11.001Z</time></trkpt><trkpt lat="43.57366172993787" lon="12.017798568710859"><ele>428.6666666666667</ele><time>2026-04-10T15:14:12.001Z</time></trkpt><trkpt lat="43.57354231723043" lon="12.017952088198946"><ele>433.0</ele><time>2026-04-10T15:14:13.001Z</time></trkpt><trkpt lat="43.57342575809026" lon="12.018102913669203"><ele>433.0</ele><time>2026-04-10T15:14:14.001Z</time></trkpt><trkpt lat="43.573312765793915" lon="12.018246247579812"><ele>433.0</ele><time>2026-04-10T15:14:15.001Z</time></trkpt><trkpt lat="43.57321340168409" lon="12.01837197247518"><ele>433.0</ele><time>2026-04-10T15:14:16.001Z</time></trkpt><trkpt lat="43.57312357868008" lon="12.018512062658063"><ele>433.0</ele><time>2026-04-10T15:14:17.001Z</time></trkpt><trkpt lat="43.57305449667224" lon="12.018674358451602"><ele>428.5</ele><time>2026-04-10T15:14:18.001Z</time></trkpt><trkpt lat="43.57302377458039" lon="12.01885639218054"><ele>424.0</ele><time>2026-04-10T15:14:19.001Z</time></trkpt><trkpt lat="43.57299038293284" lon="12.019018969794022"><ele>419.5</ele><time>2026-04-10T15:14:20.001Z</time></trkpt><trkpt lat="43.57292678744986" lon="12.01914123245531"><ele>415.0</ele><time>2026-04-10T15:14:21.001Z</time></trkpt><trkpt lat="43.572821652141776" lon="12.019201854180553"><ele>415.0</ele><time>2026-04-10T15:14:22.001Z</time></trkpt><trkpt lat="43.57269396151217" lon="12.019176032346635"><ele>415.0</ele><time>2026-04-10T15:14:23.001Z</time></trkpt><trkpt lat="43.57255029811532" lon="12.019117378946266"><ele>415.0</ele><time>2026-04-10T15:14:24.001Z</time></trkpt><trkpt lat="43.57238623247259" lon="12.019096677956309"><ele>415.0</ele><time>2026-04-10T15:14:25.001Z</time></trkpt><trkpt lat="43.57221851837595" lon="12.019075910346226"><ele>423.6666666666667</ele><time>2026-04-10T15:14:26.001Z</time></trkpt><trkpt lat="43.57206169387121" lon="12.019057653918155"><ele>432.33333333333337</ele><time>2026-04-10T15:14:27.001Z</time></trkpt><trkpt lat="43.5719117559228" lon="12.019052418431698"><ele>441.0</ele><time>2026-04-10T15:14:28.001Z</time></trkpt><trkpt lat="43.571763932946006" lon="12.019053187773244"><ele>442.0</ele><time>2026-04-10T15:14:29.001Z</time></trkpt><trkpt lat="43.57161664904424" lon="12.019042423678707"><ele>443.0</ele><time>2026-04-10T15:14:30.001Z</time></trkpt><trkpt lat="43.57147100677161" lon="12.01900371234612"><ele>444.0</ele><time>2026-04-10T15:14:31.001Z</time></trkpt><trkpt lat="43.571326937113895" lon="12.018919134804412"><ele>438.0</ele><time>2026-04-10T15:14:32.001Z</time></trkpt><trkpt lat="43.571174807539485" lon="12.01882489834872"><ele>432.0</ele><time>2026-04-10T15:14:33.001Z</time></trkpt><trkpt lat="43.57104616335911" lon="12.018695672576186"><ele>426.0</ele><time>2026-04-10T15:14:34.001Z</time></trkpt><trkpt lat="43.57091604686777" lon="12.018598477991825"><ele>426.0</ele><time>2026-04-10T15:14:35.001Z</time></trkpt><trkpt lat="43.570796717306344" lon="12.018534419173209"><ele>426.0</ele><time>2026-04-10T15:14:36.001Z</time></trkpt><trkpt lat="43.57067828211462" lon="12.018514591409893"><ele>426.0</ele><time>2026-04-10T15:14:37.001Z</time></trkpt><trkpt lat="43.57057773994574" lon="12.018559603086299"><ele>426.0</ele><time>2026-04-10T15:14:38.001Z</time></trkpt><trkpt lat="43.57049373784028" lon="12.018639909244547"><ele>426.0</ele><time>2026-04-10T15:14:39.001Z</time></trkpt><trkpt lat="43.57042050094771" lon="12.01875019064291"><ele>426.0</ele><time>2026-04-10T15:14:40.001Z</time></trkpt><trkpt lat="43.570332830977854" lon="12.0188692533594"><ele>426.0</ele><time>2026-04-10T15:14:41.001Z</time></trkpt><trkpt lat="43.57024338190699" lon="12.018984359149893"><ele>426.0</ele><time>2026-04-10T15:14:42.001Z</time></trkpt><trkpt lat="43.570156360373886" lon="12.019109033851958"><ele>421.0</ele><time>2026-04-10T15:14:43.001Z</time></trkpt><trkpt lat="43.570064928915414" lon="12.01923214790245"><ele>416.0</ele><time>2026-04-10T15:14:44.001Z</time></trkpt><trkpt lat="43.56997086820721" lon="12.019355994794822"><ele>411.0</ele><time>2026-04-10T15:14:45.001Z</time></trkpt><trkpt lat="43.56987639774214" lon="12.019482475764214"><ele>406.0</ele><time>2026-04-10T15:14:46.001Z</time></trkpt><trkpt lat="43.569780907719554" lon="12.019614359863665"><ele>406.0</ele><time>2026-04-10T15:14:47.001Z</time></trkpt><trkpt lat="43.56967929021802" lon="12.019754196764698"><ele>406.0</ele><time>2026-04-10T15:14:48.001Z</time></trkpt><trkpt lat="43.56958340519935" lon="12.019896578674318"><ele>406.0</ele><time>2026-04-10T15:14:49.001Z</time></trkpt><trkpt lat="43.56949307760995" lon="12.02004132530334"><ele>406.0</ele><time>2026-04-10T15:14:50.001Z</time></trkpt><trkpt lat="43.56940681827221" lon="12.020185582287718"><ele>409.25</ele><time>2026-04-10T15:14:51.001Z</time></trkpt><trkpt lat="43.56931361069406" lon="12.020329373634645"><ele>412.5</ele><time>2026-04-10T15:14:52.001Z</time></trkpt><trkpt lat="43.569218286725516" lon="12.02047309089748"><ele>415.75</ele><time>2026-04-10T15:14:53.001Z</time></trkpt><trkpt lat="43.5691196019602" lon="12.02061068220222"><ele>419.0</ele><time>2026-04-10T15:14:54.001Z</time></trkpt><trkpt lat="43.56901926126079" lon="12.020735550690116"><ele>421.5</ele><time>2026-04-10T15:14:55.001Z</time></trkpt><trkpt lat="43.56890292720699" lon="12.020841716154354"><ele>424.0</ele><time>2026-04-10T15:14:56.001Z</time></trkpt><trkpt lat="43.5687751869288" lon="12.020919836779317"><ele>426.5</ele><time>2026-04-10T15:14:57.001Z</time></trkpt><trkpt lat="43.56864065774482" lon="12.020948532688974"><ele>429.0</ele><time>2026-04-10T15:14:58.001Z</time></trkpt><trkpt lat="43.568500975960326" lon="12.02095360286088"><ele>430.33333333333337</ele><time>2026-04-10T15:14:59.001Z</time></trkpt><trkpt lat="43.56835655436084" lon="12.02094280129748"><ele>431.6666666666667</ele><time>2026-04-10T15:15:00.001Z</time></trkpt><trkpt lat="43.56820502905838" lon="12.020930410456616"><ele>433.0</ele><time>2026-04-10T15:15:01.001Z</time></trkpt><trkpt lat="43.568050766363086" lon="12.020901883196709"><ele>433.0</ele><time>2026-04-10T15:15:02.001Z</time></trkpt><trkpt lat="43.56791241452409" lon="12.020862800000671"><ele>433.0</ele><time>2026-04-10T15:15:03.001Z</time></trkpt><trkpt lat="43.56779260895065" lon="12.020803095052699"><ele>433.0</ele><time>2026-04-10T15:15:04.001Z</time></trkpt><trkpt lat="43.567678608483405" lon="12.020751863821248"><ele>433.0</ele><time>2026-04-10T15:15:05.001Z</time></trkpt><trkpt lat="43.567571645774095" lon="12.020725081712717"><ele>434.4</ele><time>2026-04-10T15:15:06.001Z</time></trkpt><trkpt lat="43.5674738889496" lon="12.020749520844427"><ele>435.79999999999995</ele><time>2026-04-10T15:15:07.001Z</time></trkpt><trkpt lat="43.567388649025844" lon="12.020824899214185"><ele>437.2</ele><time>2026-04-10T15:15:08.001Z</time></trkpt><trkpt lat="43.56733856791336" lon="12.020957215478614"><ele>438.6</ele><time>2026-04-10T15:15:09.001Z</time></trkpt><trkpt lat="43.56730666267691" lon="12.021123908239854"><ele>440.0</ele><time>2026-04-10T15:15:10.001Z</time></trkpt><trkpt lat="43.567268677946494" lon="12.021302599484823"><ele>440.0</ele><time>2026-04-10T15:15:11.001Z</time></trkpt><trkpt lat="43.56723561829111" lon="12.021472784588747"><ele>440.0</ele><time>2026-04-10T15:15:12.001Z</time></trkpt><trkpt lat="43.567226958545994" lon="12.021635263916206"><ele>440.0</ele><time>2026-04-10T15:15:13.001Z</time></trkpt><trkpt lat="43.567264388686816" lon="12.021804695583182"><ele>440.0</ele><time>2026-04-10T15:15:14.001Z</time></trkpt><trkpt lat="43.56732468988802" lon="12.021966065566993"><ele>442.0</ele><time>2026-04-10T15:15:15.001Z</time></trkpt><trkpt lat="43.56740104659361" lon="12.022123702446407"><ele>444.0</ele><time>2026-04-10T15:15:16.001Z</time></trkpt><trkpt lat="43.567495005909905" lon="12.022260741010864"><ele>446.0</ele><time>2026-04-10T15:15:17.001Z</time></trkpt><trkpt lat="43.567604998795204" lon="12.022377793754163"><ele>448.0</ele><time>2026-04-10T15:15:18.001Z</time></trkpt><trkpt lat="43.56772574253238" lon="12.022494006454792"><ele>449.33333333333337</ele><time>2026-04-10T15:15:19Z</time></trkpt><trkpt lat="43.56785115690333" lon="12.022619374769683"><ele>450.66666666666663</ele><time>2026-04-10T15:15:20Z</time></trkpt><trkpt lat="43.5679873930896" lon="12.022744490344854"><ele>452.0</ele><time>2026-04-10T15:15:21Z</time></trkpt><trkpt lat="43.56812225279659" lon="12.022881665438543"><ele>456.3333333333333</ele><time>2026-04-10T15:15:22Z</time></trkpt><trkpt lat="43.56824299369234" lon="12.023003204788635"><ele>460.66666666666663</ele><time>2026-04-10T15:15:23Z</time></trkpt><trkpt lat="43.56834595714956" lon="12.023140566257606"><ele>465.0</ele><time>2026-04-10T15:15:24Z</time></trkpt><trkpt lat="43.568424445492454" lon="12.023328611052538"><ele>466.25</ele><time>2026-04-10T15:15:25Z</time></trkpt><trkpt lat="43.56844754311717" lon="12.023475583541648"><ele>467.5</ele><time>2026-04-10T15:15:26Z</time></trkpt><trkpt lat="43.56842886743308" lon="12.023624064823045"><ele>468.75</ele><time>2026-04-10T15:15:27Z</time></trkpt><trkpt lat="43.56837177174279" lon="12.023766864934554"><ele>470.0</ele><time>2026-04-10T15:15:28Z</time></trkpt><trkpt lat="43.56826713084139" lon="12.023897012604104"><ele>470.0</ele><time>2026-04-10T15:15:29Z</time></trkpt><trkpt lat="43.568140030234126" lon="12.024001448387352"><ele>470.0</ele><time>2026-04-10T15:15:30Z</time></trkpt><trkpt lat="43.567991686703536" lon="12.024072872414212"><ele>470.0</ele><time>2026-04-10T15:15:31Z</time></trkpt><trkpt lat="43.56783219964752" lon="12.024128272435348"><ele>472.5</ele><time>2026-04-10T15:15:32Z</time></trkpt><trkpt lat="43.567681243295624" lon="12.024152429530744"><ele>475.0</ele><time>2026-04-10T15:15:33Z</time></trkpt><trkpt lat="43.56754826999595" lon="12.02416322009175"><ele>477.5</ele><time>2026-04-10T15:15:34Z</time></trkpt><trkpt lat="43.567424058081784" lon="12.024168752022032"><ele>480.0</ele><time>2026-04-10T15:15:35Z</time></trkpt><trkpt lat="43.567306759274324" lon="12.02416128609319"><ele>478.4</ele><time>2026-04-10T15:15:36Z</time></trkpt><trkpt lat="43.56720426198306" lon="12.02414166039842"><ele>476.8</ele><time>2026-04-10T15:15:37Z</time></trkpt><trkpt lat="43.56710855553576" lon="12.02414395003759"><ele>475.20000000000005</ele><time>2026-04-10T15:15:38Z</time></trkpt><trkpt lat="43.56701216149436" lon="12.024193220966682"><ele>473.6</ele><time>2026-04-10T15:15:39Z</time></trkpt><trkpt lat="43.56692375931486" lon="12.024299792287495"><ele>472.0</ele><time>2026-04-10T15:15:40Z</time></trkpt><trkpt lat="43.56687678753246" lon="12.024432681492641"><ele>472.0</ele><time>2026-04-10T15:15:41Z</time></trkpt><trkpt lat="43.5668611575064" lon="12.024593437214032"><ele>472.0</ele><time>2026-04-10T15:15:42Z</time></trkpt><trkpt lat="43.56682970561343" lon="12.024763708868061"><ele>472.0</ele><time>2026-04-10T15:15:43Z</time></trkpt><trkpt lat="43.566740300494494" lon="12.024903896006084"><ele>472.0</ele><time>2026-04-10T15:15:44Z</time></trkpt><trkpt lat="43.566645031063615" lon="12.025015115370195"><ele>474.75</ele><time>2026-04-10T15:15:45Z</time></trkpt><trkpt lat="43.56656054632694" lon="12.025128848716433"><ele>477.5</ele><time>2026-04-10T15:15:46Z</time></trkpt><trkpt lat="43.56648592019192" lon="12.025248786158798"><ele>480.25</ele><time>2026-04-10T15:15:47Z</time></trkpt><trkpt lat="43.5664049807191" lon="12.025365333278847"><ele>483.0</ele><time>2026-04-10T15:15:48Z</time></trkpt><trkpt lat="43.56631598675431" lon="12.025455947982142"><ele>483.0</ele><time>2026-04-10T15:15:49Z</time></trkpt><trkpt lat="43.56620738105574" lon="12.02549578560913"><ele>482.99999999999994</ele><time>2026-04-10T15:15:50Z</time></trkpt><trkpt lat="43.566099308996144" lon="12.025497844498215"><ele>482.99999999999994</ele><time>2026-04-10T15:15:51Z</time></trkpt><trkpt lat="43.565997485131184" lon="12.025510708068161"><ele>483.0</ele><time>2026-04-10T15:15:52Z</time></trkpt><trkpt lat="43.56590623578413" lon="12.02555145776367"><ele>483.0</ele><time>2026-04-10T15:15:53Z</time></trkpt><trkpt lat="43.56583488772679" lon="12.02563472987055"><ele>482.2</ele><time>2026-04-10T15:15:54Z</time></trkpt><trkpt lat="43.56578525111741" lon="12.025772316075512"><ele>481.4</ele><time>2026-04-10T15:15:55Z</time></trkpt><trkpt lat="43.565735575464906" lon="12.02591174004556"><ele>480.59999999999997</ele><time>2026-04-10T15:15:56Z</time></trkpt><trkpt lat="43.565671295022774" lon="12.02602310990651"><ele>479.79999999999995</ele><time>2026-04-10T15:15:57Z</time></trkpt><trkpt lat="43.56558147902184" lon="12.026120349305044"><ele>479.0</ele><time>2026-04-10T15:15:58Z</time></trkpt><trkpt lat="43.56547875547293" lon="12.02620178644471"><ele>479.0</ele><time>2026-04-10T15:15:59Z</time></trkpt><trkpt lat="43.565370903481714" lon="12.02626433208759"><ele>479.0</ele><time>2026-04-10T15:16:00Z</time></trkpt><trkpt lat="43.56525806594016" lon="12.02632496593015"><ele>479.0</ele><time>2026-04-10T15:16:01Z</time></trkpt><trkpt lat="43.56513631064603" lon="12.026383278725813"><ele>479.0</ele><time>2026-04-10T15:16:02Z</time></trkpt><trkpt lat="43.565019779098584" lon="12.026428368575264"><ele>476.5</ele><time>2026-04-10T15:16:03Z</time></trkpt><trkpt lat="43.56489443614353" lon="12.02647401142501"><ele>474.0</ele><time>2026-04-10T15:16:04Z</time></trkpt><trkpt lat="43.56477507238971" lon="12.026505052002507"><ele>471.5</ele><time>2026-04-10T15:16:05Z</time></trkpt><trkpt lat="43.56465022820813" lon="12.026539256757777"><ele>469.0</ele><time>2026-04-10T15:16:06Z</time></trkpt><trkpt lat="43.56452401913863" lon="12.026575989053411"><ele>469.0</ele><time>2026-04-10T15:16:07Z</time></trkpt><trkpt lat="43.56439369812953" lon="12.026629782619743"><ele>469.0</ele><time>2026-04-10T15:16:08Z</time></trkpt><trkpt lat="43.564262677900096" lon="12.026679497250091"><ele>469.0</ele><time>2026-04-10T15:16:09Z</time></trkpt><trkpt lat="43.564137359900165" lon="12.026728807315491"><ele>469.0</ele><time>2026-04-10T15:16:10Z</time></trkpt><trkpt lat="43.564007593308254" lon="12.026801893249822"><ele>472.75</ele><time>2026-04-10T15:16:11Z</time></trkpt><trkpt lat="43.56387294511029" lon="12.02686652169745"><ele>476.5</ele><time>2026-04-10T15:16:12Z</time></trkpt><trkpt lat="43.563754169404824" lon="12.026942826321317"><ele>480.25</ele><time>2026-04-10T15:16:13Z</time></trkpt><trkpt lat="43.56365058353588" lon="12.02703228500403"><ele>484.0</ele><time>2026-04-10T15:16:14.001Z</time></trkpt><trkpt lat="43.56354074027917" lon="12.027122578473458"><ele>485.25</ele><time>2026-04-10T15:16:15.001Z</time></trkpt><trkpt lat="43.563440499673355" lon="12.02723094062497"><ele>486.5</ele><time>2026-04-10T15:16:16.001Z</time></trkpt><trkpt lat="43.563332935106516" lon="12.027323730292004"><ele>487.75</ele><time>2026-04-10T15:16:17.001Z</time></trkpt><trkpt lat="43.56324306725656" lon="12.027400824799981"><ele>489.0</ele><time>2026-04-10T15:16:18.001Z</time></trkpt><trkpt lat="43.56312080966982" lon="12.027471735494366"><ele>488.25</ele><time>2026-04-10T15:16:19.001Z</time></trkpt><trkpt lat="43.562995920923534" lon="12.027531167182945"><ele>487.5</ele><time>2026-04-10T15:16:20.001Z</time></trkpt><trkpt lat="43.56285820341132" lon="12.027579590025756"><ele>486.75</ele><time>2026-04-10T15:16:21.001Z</time></trkpt><trkpt lat="43.56272102008302" lon="12.027648374060256"><ele>486.0</ele><time>2026-04-10T15:16:22.001Z</time></trkpt><trkpt lat="43.56259607532425" lon="12.027706687346157"><ele>486.0</ele><time>2026-04-10T15:16:23.001Z</time></trkpt><trkpt lat="43.56247907706128" lon="12.027767368406762"><ele>486.0</ele><time>2026-04-10T15:16:24.001Z</time></trkpt><trkpt lat="43.56237044844898" lon="12.027850041587316"><ele>486.0</ele><time>2026-04-10T15:16:25.001Z</time></trkpt><trkpt lat="43.562269139995465" lon="12.02794286916575"><ele>486.0</ele><time>2026-04-10T15:16:26.001Z</time></trkpt><trkpt lat="43.56215668106637" lon="12.02802964337382"><ele>486.0</ele><time>2026-04-10T15:16:27.001Z</time></trkpt><trkpt lat="43.56204944502179" lon="12.028142984701201"><ele>486.0</ele><time>2026-04-10T15:16:28.001Z</time></trkpt><trkpt lat="43.56194576917132" lon="12.028280162529692"><ele>486.0</ele><time>2026-04-10T15:16:29.001Z</time></trkpt><trkpt lat="43.56184921860835" lon="12.028429589563311"><ele>486.0</ele><time>2026-04-10T15:16:30.001Z</time></trkpt><trkpt lat="43.56175449230657" lon="12.02858099775999"><ele>483.0</ele><time>2026-04-10T15:16:31.001Z</time></trkpt><trkpt lat="43.56166011677525" lon="12.028729425780337"><ele>480.0</ele><time>2026-04-10T15:16:32.001Z</time></trkpt><trkpt lat="43.5615355292658" lon="12.028820517583535"><ele>477.0</ele><time>2026-04-10T15:16:33.001Z</time></trkpt><trkpt lat="43.5613994485803" lon="12.02890016934858"><ele>474.0</ele><time>2026-04-10T15:16:34.001Z</time></trkpt><trkpt lat="43.5612668220494" lon="12.029008141359352"><ele>474.66666666666663</ele><time>2026-04-10T15:16:35.001Z</time></trkpt><trkpt lat="43.56111958430969" lon="12.029100782185271"><ele>475.3333333333333</ele><time>2026-04-10T15:16:36.001Z</time></trkpt><trkpt lat="43.56097461347964" lon="12.029192224781362"><ele>476.0</ele><time>2026-04-10T15:16:37.001Z</time></trkpt><trkpt lat="43.560836742039285" lon="12.029269039566652"><ele>476.0</ele><time>2026-04-10T15:16:38.001Z</time></trkpt><trkpt lat="43.56070788957177" lon="12.029345645997198"><ele>476.0</ele><time>2026-04-10T15:16:39.001Z</time></trkpt><trkpt lat="43.56059132201417" lon="12.02944843037331"><ele>476.0</ele><time>2026-04-10T15:16:40.001Z</time></trkpt><trkpt lat="43.56049113530941" lon="12.029584257031832"><ele>476.0</ele><time>2026-04-10T15:16:41.001Z</time></trkpt><trkpt lat="43.56040319478125" lon="12.029740620084414"><ele>476.0</ele><time>2026-04-10T15:16:42.001Z</time></trkpt><trkpt lat="43.56031227042036" lon="12.029915859985605"><ele>476.0</ele><time>2026-04-10T15:16:43.001Z</time></trkpt><trkpt lat="43.56021811303339" lon="12.03010345569612"><ele>476.0</ele><time>2026-04-10T15:16:44.001Z</time></trkpt><trkpt lat="43.56012728248635" lon="12.030291120717274"><ele>478.0</ele><time>2026-04-10T15:16:45.001Z</time></trkpt><trkpt lat="43.56003511350657" lon="12.030476459142866"><ele>480.0</ele><time>2026-04-10T15:16:46.001Z</time></trkpt><trkpt lat="43.55994451034038" lon="12.030652678195194"><ele>482.0</ele><time>2026-04-10T15:16:47.001Z</time></trkpt><trkpt lat="43.5598518592232" lon="12.030829223144456"><ele>482.0</ele><time>2026-04-10T15:16:48.001Z</time></trkpt><trkpt lat="43.55976594219012" lon="12.031000365543253"><ele>482.0</ele><time>2026-04-10T15:16:49.001Z</time></trkpt><trkpt lat="43.55968339418354" lon="12.031172831987993"><ele>482.0</ele><time>2026-04-10T15:16:50.001Z</time></trkpt><trkpt lat="43.559597769542" lon="12.03135306809505"><ele>482.66666666666663</ele><time>2026-04-10T15:16:51.001Z</time></trkpt><trkpt lat="43.55951748365173" lon="12.031543644184838"><ele>483.33333333333337</ele><time>2026-04-10T15:16:52.001Z</time></trkpt><trkpt lat="43.55943715203299" lon="12.031731152691016"><ele>484.0</ele><time>2026-04-10T15:16:53.001Z</time></trkpt><trkpt lat="43.55935342786272" lon="12.031922511871851"><ele>484.0</ele><time>2026-04-10T15:16:54.001Z</time></trkpt><trkpt lat="43.55925982049737" lon="12.032104006998106"><ele>484.0</ele><time>2026-04-10T15:16:55.001Z</time></trkpt><trkpt lat="43.55917986735566" lon="12.03229852226845"><ele>484.0</ele><time>2026-04-10T15:16:56.001Z</time></trkpt><trkpt lat="43.55909457521449" lon="12.03247951447963"><ele>483.0</ele><time>2026-04-10T15:16:57.001Z</time></trkpt><trkpt lat="43.559000288463245" lon="12.032663087899877"><ele>482.0</ele><time>2026-04-10T15:16:58.001Z</time></trkpt><trkpt lat="43.55890161839695" lon="12.03284593545495"><ele>481.0</ele><time>2026-04-10T15:16:59.001Z</time></trkpt><trkpt lat="43.55879930742691" lon="12.03302963850984"><ele>481.0</ele><time>2026-04-10T15:17:00.001Z</time></trkpt><trkpt lat="43.55869734003759" lon="12.033215512200705"><ele>481.0</ele><time>2026-04-10T15:17:01.001Z</time></trkpt><trkpt lat="43.55859518989397" lon="12.033409159055884"><ele>481.0</ele><time>2026-04-10T15:17:02.001Z</time></trkpt><trkpt lat="43.55849360784762" lon="12.033605935809142"><ele>481.0</ele><time>2026-04-10T15:17:03Z</time></trkpt><trkpt lat="43.55839104307676" lon="12.033807905873823"><ele>481.0</ele><time>2026-04-10T15:17:04Z</time></trkpt><trkpt lat="43.55828708042295" lon="12.034013289359926"><ele>481.0</ele><time>2026-04-10T15:17:05Z</time></trkpt><trkpt lat="43.558182187836145" lon="12.034219483503312"><ele>481.6666666666667</ele><time>2026-04-10T15:17:06Z</time></trkpt><trkpt lat="43.558060750335514" lon="12.034407392271412"><ele>482.33333333333337</ele><time>2026-04-10T15:17:07Z</time></trkpt><trkpt lat="43.55796057969547" lon="12.034616555082014"><ele>483.0</ele><time>2026-04-10T15:17:08Z</time></trkpt><trkpt lat="43.557842111930945" lon="12.034805331375113"><ele>483.33333333333337</ele><time>2026-04-10T15:17:09Z</time></trkpt><trkpt lat="43.557722154760384" lon="12.034996029759142"><ele>483.6666666666667</ele><time>2026-04-10T15:17:10Z</time></trkpt><trkpt lat="43.557599644392596" lon="12.035189746862113"><ele>484.0</ele><time>2026-04-10T15:17:11Z</time></trkpt><trkpt lat="43.557476587836405" lon="12.03537970648442"><ele>484.0</ele><time>2026-04-10T15:17:12Z</time></trkpt><trkpt lat="43.55736122579195" lon="12.035554822167343"><ele>484.0</ele><time>2026-04-10T15:17:13Z</time></trkpt><trkpt lat="43.557253262950276" lon="12.035719655693157"><ele>484.0</ele><time>2026-04-10T15:17:14Z</time></trkpt><trkpt lat="43.5571405692622" lon="12.035880961384546"><ele>486.0</ele><time>2026-04-10T15:17:15Z</time></trkpt><trkpt lat="43.55702087923132" lon="12.036049187608477"><ele>488.0</ele><time>2026-04-10T15:17:16Z</time></trkpt><trkpt lat="43.55690244907808" lon="12.03621889541179"><ele>490.0</ele><time>2026-04-10T15:17:17Z</time></trkpt><trkpt lat="43.556790477571624" lon="12.036393730785884"><ele>490.0</ele><time>2026-04-10T15:17:18Z</time></trkpt><trkpt lat="43.55668631962546" lon="12.036567206118379"><ele>490.0</ele><time>2026-04-10T15:17:19Z</time></trkpt><trkpt lat="43.556587910542746" lon="12.0367379422682"><ele>490.0</ele><time>2026-04-10T15:17:20Z</time></trkpt><trkpt lat="43.556486823572875" lon="12.036906355493839"><ele>489.0</ele><time>2026-04-10T15:17:21Z</time></trkpt><trkpt lat="43.556384573958425" lon="12.037072883655558"><ele>488.0</ele><time>2026-04-10T15:17:22Z</time></trkpt><trkpt lat="43.556273137526475" lon="12.037240562024504"><ele>487.0</ele><time>2026-04-10T15:17:23Z</time></trkpt><trkpt lat="43.556124573479885" lon="12.037372874002488"><ele>486.0</ele><time>2026-04-10T15:17:24Z</time></trkpt><trkpt lat="43.55596848526718" lon="12.037513980829344"><ele>485.0</ele><time>2026-04-10T15:17:25Z</time></trkpt><trkpt lat="43.55580738010127" lon="12.03767296326508"><ele>484.0</ele><time>2026-04-10T15:17:26Z</time></trkpt><trkpt lat="43.555633317524176" lon="12.037815569621179"><ele>484.0</ele><time>2026-04-10T15:17:27Z</time></trkpt><trkpt lat="43.55544723631207" lon="12.037936269518614"><ele>484.0</ele><time>2026-04-10T15:17:28Z</time></trkpt><trkpt lat="43.55526999595093" lon="12.038062208842325"><ele>484.0</ele><time>2026-04-10T15:17:29Z</time></trkpt><trkpt lat="43.55509597591529" lon="12.038183424091223"><ele>483.0</ele><time>2026-04-10T15:17:30Z</time></trkpt><trkpt lat="43.55492134627599" lon="12.03829525977846"><ele>482.0</ele><time>2026-04-10T15:17:31Z</time></trkpt><trkpt lat="43.55474578219788" lon="12.038401100390423"><ele>481.0</ele><time>2026-04-10T15:17:32Z</time></trkpt><trkpt lat="43.55457760640602" lon="12.038520613681495"><ele>480.0</ele><time>2026-04-10T15:17:33Z</time></trkpt><trkpt lat="43.55440807810993" lon="12.038605963940174"><ele>479.0</ele><time>2026-04-10T15:17:34Z</time></trkpt><trkpt lat="43.55424200421555" lon="12.038684603614941"><ele>478.0</ele><time>2026-04-10T15:17:35Z</time></trkpt><trkpt lat="43.55408090615668" lon="12.038763488728502"><ele>478.0</ele><time>2026-04-10T15:17:36Z</time></trkpt><trkpt lat="43.55393047099187" lon="12.038846296534206"><ele>478.0</ele><time>2026-04-10T15:17:37Z</time></trkpt><trkpt lat="43.55378613624878" lon="12.03888876763215"><ele>478.0</ele><time>2026-04-10T15:17:38Z</time></trkpt><trkpt lat="43.553638468076436" lon="12.038935213050117"><ele>476.5</ele><time>2026-04-10T15:17:39Z</time></trkpt><trkpt lat="43.553483871521756" lon="12.03897165590413"><ele>475.0</ele><time>2026-04-10T15:17:40Z</time></trkpt><trkpt lat="43.55332936617377" lon="12.03896019163031"><ele>473.5</ele><time>2026-04-10T15:17:41Z</time></trkpt><trkpt lat="43.553196822253824" lon="12.038923084696835"><ele>472.0</ele><time>2026-04-10T15:17:42Z</time></trkpt><trkpt lat="43.553067154117635" lon="12.03885111164804"><ele>472.0</ele><time>2026-04-10T15:17:43Z</time></trkpt><trkpt lat="43.55294639885747" lon="12.038739802123944"><ele>472.0</ele><time>2026-04-10T15:17:44Z</time></trkpt><trkpt lat="43.55282781814495" lon="12.038619425841953"><ele>472.0</ele><time>2026-04-10T15:17:45Z</time></trkpt><trkpt lat="43.55270703076285" lon="12.038520386957401"><ele>472.0</ele><time>2026-04-10T15:17:46Z</time></trkpt><trkpt lat="43.552586266950534" lon="12.038419774655862"><ele>470.75</ele><time>2026-04-10T15:17:47Z</time></trkpt><trkpt lat="43.55245639211075" lon="12.038361753680025"><ele>469.5</ele><time>2026-04-10T15:17:48Z</time></trkpt><trkpt lat="43.55231363280389" lon="12.038317785223152"><ele>468.25</ele><time>2026-04-10T15:17:49Z</time></trkpt><trkpt lat="43.552157910009576" lon="12.038285022586882"><ele>467.0</ele><time>2026-04-10T15:17:50Z</time></trkpt><trkpt lat="43.551988655184616" lon="12.038288198540378"><ele>467.66666666666663</ele><time>2026-04-10T15:17:51Z</time></trkpt><trkpt lat="43.55182127854036" lon="12.038352587688426"><ele>468.33333333333337</ele><time>2026-04-10T15:17:52Z</time></trkpt><trkpt lat="43.55164393618732" lon="12.03839057151095"><ele>469.0</ele><time>2026-04-10T15:17:53Z</time></trkpt><trkpt lat="43.55146490862196" lon="12.03847712316429"><ele>469.0</ele><time>2026-04-10T15:17:54Z</time></trkpt><trkpt lat="43.55128952440396" lon="12.038593134728938"><ele>469.0</ele><time>2026-04-10T15:17:55Z</time></trkpt><trkpt lat="43.5511257376362" lon="12.038744463873257"><ele>469.0</ele><time>2026-04-10T15:17:56Z</time></trkpt><trkpt lat="43.550962627277855" lon="12.038876278368342"><ele>470.0</ele><time>2026-04-10T15:17:57Z</time></trkpt><trkpt lat="43.55080079323304" lon="12.038972830803395"><ele>471.0</ele><time>2026-04-10T15:17:58Z</time></trkpt><trkpt lat="43.55066180607953" lon="12.039076973886345"><ele>472.0</ele><time>2026-04-10T15:17:59Z</time></trkpt><trkpt lat="43.55053515936558" lon="12.039179059834042"><ele>472.0</ele><time>2026-04-10T15:18:00Z</time></trkpt><trkpt lat="43.55041507445397" lon="12.039269804158648"><ele>472.0</ele><time>2026-04-10T15:18:01Z</time></trkpt><trkpt lat="43.55029166432889" lon="12.039344142757889"><ele>472.0</ele><time>2026-04-10T15:18:02Z</time></trkpt><trkpt lat="43.550159687921195" lon="12.039416721977737"><ele>472.0</ele><time>2026-04-10T15:18:03Z</time></trkpt><trkpt lat="43.55002205242703" lon="12.03949003020279"><ele>475.0</ele><time>2026-04-10T15:18:04Z</time></trkpt><trkpt lat="43.54987778009037" lon="12.039572438414094"><ele>478.0</ele><time>2026-04-10T15:18:05Z</time></trkpt><trkpt lat="43.54974511126261" lon="12.039688911868806"><ele>481.0</ele><time>2026-04-10T15:18:06Z</time></trkpt><trkpt lat="43.54962109725554" lon="12.03981866136351"><ele>478.6666666666667</ele><time>2026-04-10T15:18:07Z</time></trkpt><trkpt lat="43.54950338802661" lon="12.039975023996"><ele>476.33333333333337</ele><time>2026-04-10T15:18:08Z</time></trkpt><trkpt lat="43.54939454723082" lon="12.040144288592051"><ele>474.0</ele><time>2026-04-10T15:18:09Z</time></trkpt><trkpt lat="43.54929427341321" lon="12.04030191783194"><ele>474.0</ele><time>2026-04-10T15:18:10Z</time></trkpt><trkpt lat="43.54918650244941" lon="12.040463614458387"><ele>474.0</ele><time>2026-04-10T15:18:11Z</time></trkpt><trkpt lat="43.549076069535126" lon="12.040641618875725"><ele>474.0</ele><time>2026-04-10T15:18:12Z</time></trkpt><trkpt lat="43.548976187244534" lon="12.040830249141218"><ele>474.0</ele><time>2026-04-10T15:18:13Z</time></trkpt><trkpt lat="43.54888344925352" lon="12.041008050325873"><ele>474.0</ele><time>2026-04-10T15:18:14Z</time></trkpt><trkpt lat="43.54878827880584" lon="12.041172718179398"><ele>474.0</ele><time>2026-04-10T15:18:15Z</time></trkpt><trkpt lat="43.54868288492544" lon="12.041339441016927"><ele>474.0</ele><time>2026-04-10T15:18:16Z</time></trkpt><trkpt lat="43.54856999283232" lon="12.041513422927213"><ele>474.0</ele><time>2026-04-10T15:18:17Z</time></trkpt><trkpt lat="43.54845536558793" lon="12.041695117908487"><ele>474.0</ele><time>2026-04-10T15:18:18Z</time></trkpt><trkpt lat="43.548339424106835" lon="12.041881010835075"><ele>474.33333333333337</ele><time>2026-04-10T15:18:19Z</time></trkpt><trkpt lat="43.548225946238965" lon="12.042062953781706"><ele>474.6666666666667</ele><time>2026-04-10T15:18:20Z</time></trkpt><trkpt lat="43.54811949506789" lon="12.042240424482547"><ele>475.0</ele><time>2026-04-10T15:18:21Z</time></trkpt><trkpt lat="43.54801256277362" lon="12.042414551666418"><ele>473.33333333333337</ele><time>2026-04-10T15:18:22Z</time></trkpt><trkpt lat="43.54790275112943" lon="12.0425747282109"><ele>471.66666666666663</ele><time>2026-04-10T15:18:23Z</time></trkpt><trkpt lat="43.54779761896732" lon="12.042743092058409"><ele>470.0</ele><time>2026-04-10T15:18:24Z</time></trkpt><trkpt lat="43.54767762943904" lon="12.042899537714776"><ele>470.0</ele><time>2026-04-10T15:18:25Z</time></trkpt><trkpt lat="43.547559852086316" lon="12.043051328331487"><ele>470.0</ele><time>2026-04-10T15:18:26Z</time></trkpt><trkpt lat="43.547451756449036" lon="12.043201580393916"><ele>470.0</ele><time>2026-04-10T15:18:27Z</time></trkpt><trkpt lat="43.54735382624421" lon="12.043375771492173"><ele>471.3333333333333</ele><time>2026-04-10T15:18:28Z</time></trkpt><trkpt lat="43.54727100605283" lon="12.043572768725182"><ele>472.66666666666663</ele><time>2026-04-10T15:18:29Z</time></trkpt><trkpt lat="43.54718580668968" lon="12.043776204480935"><ele>474.0</ele><time>2026-04-10T15:18:30Z</time></trkpt><trkpt lat="43.547097868104004" lon="12.04398329426172"><ele>473.5</ele><time>2026-04-10T15:18:31Z</time></trkpt><trkpt lat="43.54701617257344" lon="12.04417131594197"><ele>473.0</ele><time>2026-04-10T15:18:32Z</time></trkpt><trkpt lat="43.546940339250376" lon="12.044349028814443"><ele>472.5</ele><time>2026-04-10T15:18:33Z</time></trkpt><trkpt lat="43.54687633661438" lon="12.04451859458735"><ele>472.0</ele><time>2026-04-10T15:18:34Z</time></trkpt><trkpt lat="43.54682707196405" lon="12.04470198206554"><ele>472.0</ele><time>2026-04-10T15:18:35Z</time></trkpt><trkpt lat="43.546798626278886" lon="12.044900931391371"><ele>472.0</ele><time>2026-04-10T15:18:36Z</time></trkpt><trkpt lat="43.54677937179783" lon="12.045106169504818"><ele>472.0</ele><time>2026-04-10T15:18:37Z</time></trkpt><trkpt lat="43.546744923221645" lon="12.045301590169949"><ele>472.0</ele><time>2026-04-10T15:18:38Z</time></trkpt><trkpt lat="43.54666573282574" lon="12.045482761367962"><ele>474.0</ele><time>2026-04-10T15:18:39Z</time></trkpt><trkpt lat="43.54659649113132" lon="12.045669787201568"><ele>476.0</ele><time>2026-04-10T15:18:40Z</time></trkpt><trkpt lat="43.54649753811253" lon="12.045829270458974"><ele>478.0</ele><time>2026-04-10T15:18:41Z</time></trkpt><trkpt lat="43.54639134204504" lon="12.045978603358016"><ele>479.5</ele><time>2026-04-10T15:18:42Z</time></trkpt><trkpt lat="43.546284385064936" lon="12.046122103992316"><ele>481.0</ele><time>2026-04-10T15:18:43Z</time></trkpt><trkpt lat="43.54617943102034" lon="12.046263671307063"><ele>482.5</ele><time>2026-04-10T15:18:44Z</time></trkpt><trkpt lat="43.54606727104006" lon="12.046379327819192"><ele>484.0</ele><time>2026-04-10T15:18:45Z</time></trkpt><trkpt lat="43.54596522290214" lon="12.046505915781408"><ele>482.25</ele><time>2026-04-10T15:18:46Z</time></trkpt><trkpt lat="43.54586501989626" lon="12.046630215036801"><ele>480.5</ele><time>2026-04-10T15:18:47Z</time></trkpt><trkpt lat="43.54577780430026" lon="12.046763266944724"><ele>478.75</ele><time>2026-04-10T15:18:48Z</time></trkpt><trkpt lat="43.54568049880703" lon="12.04687616129622"><ele>477.0</ele><time>2026-04-10T15:18:49Z</time></trkpt><trkpt lat="43.54558780646752" lon="12.046989423049528"><ele>477.0</ele><time>2026-04-10T15:18:50Z</time></trkpt><trkpt lat="43.545514744843985" lon="12.047132426407991"><ele>477.0</ele><time>2026-04-10T15:18:51Z</time></trkpt><trkpt lat="43.54543431872492" lon="12.047255428195795"><ele>477.0</ele><time>2026-04-10T15:18:52Z</time></trkpt><trkpt lat="43.545359013146275" lon="12.047380887299916"><ele>477.0</ele><time>2026-04-10T15:18:53Z</time></trkpt><trkpt lat="43.54527998856787" lon="12.047504759743495"><ele>476.0</ele><time>2026-04-10T15:18:54Z</time></trkpt><trkpt lat="43.545195449595354" lon="12.04762979445498"><ele>475.0</ele><time>2026-04-10T15:18:55Z</time></trkpt><trkpt lat="43.545101103108465" lon="12.0477536727372"><ele>474.0</ele><time>2026-04-10T15:18:56Z</time></trkpt><trkpt lat="43.545008260920355" lon="12.047876429845045"><ele>473.0</ele><time>2026-04-10T15:18:57Z</time></trkpt><trkpt lat="43.544916814565156" lon="12.04800817688731"><ele>473.0</ele><time>2026-04-10T15:18:58Z</time></trkpt><trkpt lat="43.54482497541508" lon="12.04814253506922"><ele>473.0</ele><time>2026-04-10T15:18:59Z</time></trkpt><trkpt lat="43.54472737937201" lon="12.048276041454484"><ele>473.0</ele><time>2026-04-10T15:19:00Z</time></trkpt><trkpt lat="43.54462906893959" lon="12.048409193988846"><ele>473.0</ele><time>2026-04-10T15:19:01Z</time></trkpt><trkpt lat="43.544532687755115" lon="12.048543806985563"><ele>472.0</ele><time>2026-04-10T15:19:02Z</time></trkpt><trkpt lat="43.544429890242746" lon="12.04866771724743"><ele>471.0</ele><time>2026-04-10T15:19:03Z</time></trkpt><trkpt lat="43.544322414194355" lon="12.048777182868"><ele>470.0</ele><time>2026-04-10T15:19:04Z</time></trkpt><trkpt lat="43.54420782527943" lon="12.048874612131463"><ele>469.0</ele><time>2026-04-10T15:19:05Z</time></trkpt><trkpt lat="43.544088724397845" lon="12.048954380106089"><ele>469.0</ele><time>2026-04-10T15:19:06Z</time></trkpt><trkpt lat="43.543964971898035" lon="12.049007581233479"><ele>469.0</ele><time>2026-04-10T15:19:07Z</time></trkpt><trkpt lat="43.54384620053594" lon="12.049050435715602"><ele>469.0</ele><time>2026-04-10T15:19:08Z</time></trkpt><trkpt lat="43.54372741303061" lon="12.049089498795292"><ele>469.0</ele><time>2026-04-10T15:19:09Z</time></trkpt><trkpt lat="43.54360689930425" lon="12.049131212021807"><ele>467.75</ele><time>2026-04-10T15:19:10Z</time></trkpt><trkpt lat="43.54348227509108" lon="12.049189468855277"><ele>466.5</ele><time>2026-04-10T15:19:11Z</time></trkpt><trkpt lat="43.54335185103164" lon="12.049240094614296"><ele>465.25</ele><time>2026-04-10T15:19:12Z</time></trkpt><trkpt lat="43.5432445019701" lon="12.049358969199023"><ele>464.0</ele><time>2026-04-10T15:19:13Z</time></trkpt><trkpt lat="43.543140682943374" lon="12.049474871770826"><ele>464.0</ele><time>2026-04-10T15:19:14Z</time></trkpt><trkpt lat="43.543040804715666" lon="12.049602132572538"><ele>464.0</ele><time>2026-04-10T15:19:15Z</time></trkpt><trkpt lat="43.5429305873621" lon="12.049708152870865"><ele>464.0</ele><time>2026-04-10T15:19:16Z</time></trkpt><trkpt lat="43.54282970740469" lon="12.04982671074181"><ele>464.0</ele><time>2026-04-10T15:19:17Z</time></trkpt><trkpt lat="43.542742961848376" lon="12.049958826697436"><ele>463.0</ele><time>2026-04-10T15:19:18Z</time></trkpt><trkpt lat="43.542640067003965" lon="12.050049319363197"><ele>462.0</ele><time>2026-04-10T15:19:19Z</time></trkpt><trkpt lat="43.5425457999104" lon="12.050159632822606"><ele>461.0</ele><time>2026-04-10T15:19:20Z</time></trkpt><trkpt lat="43.54247376145624" lon="12.050287555124608"><ele>460.0</ele><time>2026-04-10T15:19:21Z</time></trkpt><trkpt lat="43.542386902332744" lon="12.050388836143066"><ele>460.0</ele><time>2026-04-10T15:19:22Z</time></trkpt><trkpt lat="43.54230475940367" lon="12.050475112115397"><ele>460.0</ele><time>2026-04-10T15:19:23Z</time></trkpt><trkpt lat="43.542210503422254" lon="12.050566867285887"><ele>460.0</ele><time>2026-04-10T15:19:24Z</time></trkpt><trkpt lat="43.54211802287272" lon="12.050656745335276"><ele>460.0</ele><time>2026-04-10T15:19:25Z</time></trkpt><trkpt lat="43.54200981848133" lon="12.050712354423762"><ele>460.0</ele><time>2026-04-10T15:19:26Z</time></trkpt><trkpt lat="43.54190767609391" lon="12.050779190235778"><ele>460.5</ele><time>2026-04-10T15:19:27Z</time></trkpt><trkpt lat="43.54180428298229" lon="12.050844760068083"><ele>461.0</ele><time>2026-04-10T15:19:28Z</time></trkpt><trkpt lat="43.541698085820165" lon="12.050909031237124"><ele>461.5</ele><time>2026-04-10T15:19:29Z</time></trkpt><trkpt lat="43.54159460555435" lon="12.050984141732775"><ele>462.0</ele><time>2026-04-10T15:19:30Z</time></trkpt><trkpt lat="43.541485989837035" lon="12.051049929953352"><ele>462.0</ele><time>2026-04-10T15:19:31Z</time></trkpt><trkpt lat="43.54140436825377" lon="12.051109334087798"><ele>462.0</ele><time>2026-04-10T15:19:32Z</time></trkpt><trkpt lat="43.54132514824441" lon="12.051148480620506"><ele>462.0</ele><time>2026-04-10T15:19:33Z</time></trkpt><trkpt lat="43.541258958481144" lon="12.05118978337341"><ele>462.0</ele><time>2026-04-10T15:19:34Z</time></trkpt><trkpt lat="43.54119229112202" lon="12.051228938689535"><ele>462.0</ele><time>2026-04-10T15:19:35Z</time></trkpt><trkpt lat="43.54109796201912" lon="12.051285439957098"><ele>462.0</ele><time>2026-04-10T15:19:37Z</time></trkpt><trkpt lat="43.54103165933143" lon="12.051320614043924"><ele>459.8333333333333</ele><time>2026-04-10T15:19:39Z</time></trkpt><trkpt lat="43.54095831132585" lon="12.051359134713184"><ele>457.66666666666663</ele><time>2026-04-10T15:19:42Z</time></trkpt><trkpt lat="43.54088006234414" lon="12.051388016472323"><ele>455.5</ele><time>2026-04-10T15:19:45Z</time></trkpt><trkpt lat="43.54079671039969" lon="12.051444964751242"><ele>453.3333333333333</ele><time>2026-04-10T15:19:48Z</time></trkpt><trkpt lat="43.54073269532801" lon="12.051503682643617"><ele>451.16666666666663</ele><time>2026-04-10T15:19:50Z</time></trkpt><trkpt lat="43.54065617667282" lon="12.051575898866083"><ele>449.0</ele><time>2026-04-10T15:19:52Z</time></trkpt><trkpt lat="43.54055022295393" lon="12.051677250441223"><ele>448.66666666666663</ele><time>2026-04-10T15:19:54Z</time></trkpt><trkpt lat="43.54048684051566" lon="12.051721064809083"><ele>448.3333333333333</ele><time>2026-04-10T15:19:55Z</time></trkpt><trkpt lat="43.540429873101836" lon="12.05176464847365"><ele>448.0</ele><time>2026-04-10T15:19:56Z</time></trkpt><trkpt lat="43.54033550788976" lon="12.051854132381527"><ele>447.66666666666663</ele><time>2026-04-10T15:19:58Z</time></trkpt><trkpt lat="43.54027980335868" lon="12.051913923042688"><ele>447.3333333333333</ele><time>2026-04-10T15:20:00Z</time></trkpt><trkpt lat="43.54021313490009" lon="12.051986209035247"><ele>447.0</ele><time>2026-04-10T15:20:03Z</time></trkpt><trkpt lat="43.540153708784466" lon="12.052052248482918"><ele>445.99999999999994</ele><time>2026-04-10T15:20:07Z</time></trkpt><trkpt lat="43.54010630377357" lon="12.052119109188473"><ele>445.0</ele><time>2026-04-10T15:20:11Z</time></trkpt><trkpt lat="43.54004842761081" lon="12.052171018977054"><ele>444.0</ele><time>2026-04-10T15:20:14Z</time></trkpt><trkpt lat="43.54009936820372" lon="12.052105539298587"><ele>443.0</ele><time>2026-04-10T15:21:18Z</time></trkpt><trkpt lat="43.54015735089966" lon="12.052048032463386"><ele>442.0</ele><time>2026-04-10T15:21:26Z</time></trkpt><trkpt lat="43.540127953000685" lon="12.052126614797045"><ele>440.99999999999994</ele><time>2026-04-10T15:22:43Z</time></trkpt><trkpt lat="43.5400669522451" lon="12.052189235600345"><ele>440.0</ele><time>2026-04-10T15:23:55Z</time></trkpt><trkpt lat="43.54015331664794" lon="12.05220354606414"><ele>439.99999999999994</ele><time>2026-04-10T15:25:43Z</time></trkpt><trkpt lat="43.54018999444361" lon="12.052293781419221"><ele>440.0</ele><time>2026-04-10T15:25:45Z</time></trkpt><trkpt lat="43.540235935855925" lon="12.052366455826316"><ele>440.0</ele><time>2026-04-10T15:25:47Z</time></trkpt><trkpt lat="43.54028246532509" lon="12.052458834317878"><ele>440.0</ele><time>2026-04-10T15:25:49Z</time></trkpt><trkpt lat="43.540328584032245" lon="12.052567070333808"><ele>439.99999999999994</ele><time>2026-04-10T15:25:51Z</time></trkpt><trkpt lat="43.54037643145986" lon="12.052700465413773"><ele>440.0</ele><time>2026-04-10T15:25:53Z</time></trkpt><trkpt lat="43.54042902704714" lon="12.052820440977149"><ele>440.4</ele><time>2026-04-10T15:25:55Z</time></trkpt><trkpt lat="43.540461462286196" lon="12.052948141906269"><ele>440.8</ele><time>2026-04-10T15:25:57Z</time></trkpt><trkpt lat="43.54050944280158" lon="12.05307002590923"><ele>441.20000000000005</ele><time>2026-04-10T15:25:59Z</time></trkpt><trkpt lat="43.54055387265208" lon="12.053182890097355"><ele>441.6</ele><time>2026-04-10T15:26:01Z</time></trkpt><trkpt lat="43.540613827855886" lon="12.053336348482281"><ele>442.0</ele><time>2026-04-10T15:26:03Z</time></trkpt><trkpt lat="43.54064458787064" lon="12.053416126337838"><ele>438.5</ele><time>2026-04-10T15:26:04Z</time></trkpt><trkpt lat="43.54069425279997" lon="12.053544935057078"><ele>435.0</ele><time>2026-04-10T15:26:06Z</time></trkpt><trkpt lat="43.54077642154964" lon="12.05373442427844"><ele>431.5</ele><time>2026-04-10T15:26:09Z</time></trkpt><trkpt lat="43.540827382878504" lon="12.05385305800915"><ele>428.0</ele><time>2026-04-10T15:26:11Z</time></trkpt><trkpt lat="43.540867640288866" lon="12.053976653389084"><ele>427.99999999999994</ele><time>2026-04-10T15:26:13Z</time></trkpt><trkpt lat="43.54089914577157" lon="12.054085430527737"><ele>428.0</ele><time>2026-04-10T15:26:15Z</time></trkpt><trkpt lat="43.54093697316499" lon="12.054186183701216"><ele>428.0</ele><time>2026-04-10T15:26:17Z</time></trkpt><trkpt lat="43.540980380583925" lon="12.054281284660632"><ele>428.0</ele><time>2026-04-10T15:26:19Z</time></trkpt><trkpt lat="43.541008798424706" lon="12.054377848424894"><ele>427.99999999999994</ele><time>2026-04-10T15:26:21Z</time></trkpt><trkpt lat="43.54104615792525" lon="12.054477516841192"><ele>428.0</ele><time>2026-04-10T15:26:23Z</time></trkpt><trkpt lat="43.54109046372081" lon="12.054596153582265"><ele>426.66666666666663</ele><time>2026-04-10T15:26:25Z</time></trkpt><trkpt lat="43.54113632687236" lon="12.054719512380641"><ele>425.3333333333333</ele><time>2026-04-10T15:26:27Z</time></trkpt><trkpt lat="43.54118358064686" lon="12.0548466115861"><ele>424.0</ele><time>2026-04-10T15:26:29Z</time></trkpt><trkpt lat="43.54123196484826" lon="12.054976320206716"><ele>422.66666666666663</ele><time>2026-04-10T15:26:31Z</time></trkpt><trkpt lat="43.541261115233254" lon="12.05505445187578"><ele>421.3333333333333</ele><time>2026-04-10T15:26:32Z</time></trkpt><trkpt lat="43.54130643530252" lon="12.055133274883604"><ele>420.0</ele><time>2026-04-10T15:26:33Z</time></trkpt><trkpt lat="43.54133090077494" lon="12.055214448797853"><ele>418.2857142857143</ele><time>2026-04-10T15:26:34Z</time></trkpt><trkpt lat="43.54136589274796" lon="12.055300768164935"><ele>416.57142857142856</ele><time>2026-04-10T15:26:35Z</time></trkpt><trkpt lat="43.54138824331119" lon="12.055383377387695"><ele>414.8571428571429</ele><time>2026-04-10T15:26:36Z</time></trkpt><trkpt lat="43.54142008763459" lon="12.05546079460897"><ele>413.1428571428571</ele><time>2026-04-10T15:26:37Z</time></trkpt><trkpt lat="43.54145141159058" lon="12.05554714237571"><ele>411.42857142857144</ele><time>2026-04-10T15:26:38Z</time></trkpt><trkpt lat="43.54147974471253" lon="12.055625104071872"><ele>409.7142857142857</ele><time>2026-04-10T15:26:39Z</time></trkpt><trkpt lat="43.541509037804516" lon="12.05570310400814"><ele>408.0</ele><time>2026-04-10T15:26:40Z</time></trkpt><trkpt lat="43.54154160582914" lon="12.055795070562343"><ele>405.8333333333333</ele><time>2026-04-10T15:26:41Z</time></trkpt><trkpt lat="43.5415773009776" lon="12.055892504295077"><ele>403.66666666666663</ele><time>2026-04-10T15:26:42Z</time></trkpt><trkpt lat="43.54161783869179" lon="12.055995242627574"><ele>401.5</ele><time>2026-04-10T15:26:43Z</time></trkpt><trkpt lat="43.54165727086801" lon="12.056098581109143"><ele>399.3333333333333</ele><time>2026-04-10T15:26:44Z</time></trkpt><trkpt lat="43.54169790943491" lon="12.056207620955758"><ele>397.16666666666663</ele><time>2026-04-10T15:26:45Z</time></trkpt><trkpt lat="43.54173847026516" lon="12.05632291754641"><ele>395.0</ele><time>2026-04-10T15:26:46Z</time></trkpt><trkpt lat="43.54177788201826" lon="12.056436560503302"><ele>395.0</ele><time>2026-04-10T15:26:47Z</time></trkpt><trkpt lat="43.541820602940156" lon="12.056553470233153"><ele>395.0</ele><time>2026-04-10T15:26:48Z</time></trkpt><trkpt lat="43.54186465505648" lon="12.056665706929367"><ele>395.0</ele><time>2026-04-10T15:26:49Z</time></trkpt><trkpt lat="43.54190874250494" lon="12.05677908286127"><ele>395.0</ele><time>2026-04-10T15:26:50Z</time></trkpt><trkpt lat="43.541951104449474" lon="12.056895688913828"><ele>395.0</ele><time>2026-04-10T15:26:51Z</time></trkpt><trkpt lat="43.54199319793672" lon="12.057011569412989"><ele>395.4</ele><time>2026-04-10T15:26:52Z</time></trkpt><trkpt lat="43.542037497829845" lon="12.057128379155477"><ele>395.8</ele><time>2026-04-10T15:26:53Z</time></trkpt><trkpt lat="43.5420822439874" lon="12.057238499981063"><ele>396.20000000000005</ele><time>2026-04-10T15:26:54Z</time></trkpt><trkpt lat="43.54212498359137" lon="12.05735192590712"><ele>396.6</ele><time>2026-04-10T15:26:55Z</time></trkpt><trkpt lat="43.542168517772815" lon="12.057467702892211"><ele>397.0</ele><time>2026-04-10T15:26:56Z</time></trkpt><trkpt lat="43.54221352339186" lon="12.057576817503666"><ele>393.8</ele><time>2026-04-10T15:26:57Z</time></trkpt><trkpt lat="43.54226041796712" lon="12.057689396392917"><ele>390.6</ele><time>2026-04-10T15:26:58Z</time></trkpt><trkpt lat="43.54230262594606" lon="12.057803196936256"><ele>387.40000000000003</ele><time>2026-04-10T15:26:59Z</time></trkpt><trkpt lat="43.5423446708665" lon="12.057916803788496"><ele>384.20000000000005</ele><time>2026-04-10T15:27:00Z</time></trkpt><trkpt lat="43.54238866228458" lon="12.058030765089022"><ele>381.0</ele><time>2026-04-10T15:27:01Z</time></trkpt><trkpt lat="43.54243309058552" lon="12.0581444991457"><ele>381.0</ele><time>2026-04-10T15:27:02Z</time></trkpt><trkpt lat="43.542478438056406" lon="12.058260041412268"><ele>381.0</ele><time>2026-04-10T15:27:03Z</time></trkpt><trkpt lat="43.54250172556074" lon="12.058388474426993"><ele>381.0</ele><time>2026-04-10T15:27:04Z</time></trkpt><trkpt lat="43.542545179337864" lon="12.058505109280926"><ele>381.0</ele><time>2026-04-10T15:27:05Z</time></trkpt><trkpt lat="43.54258829444537" lon="12.058620835126785"><ele>381.0</ele><time>2026-04-10T15:27:06Z</time></trkpt><trkpt lat="43.542630736587455" lon="12.058736042315534"><ele>377.8</ele><time>2026-04-10T15:27:07Z</time></trkpt><trkpt lat="43.542677647136394" lon="12.058863525674994"><ele>374.6</ele><time>2026-04-10T15:27:08Z</time></trkpt><trkpt lat="43.54272644829405" lon="12.058996146778087"><ele>371.4</ele><time>2026-04-10T15:27:09Z</time></trkpt><trkpt lat="43.542776974104946" lon="12.059131617675098"><ele>368.2</ele><time>2026-04-10T15:27:10Z</time></trkpt><trkpt lat="43.54283043891123" lon="12.059272868739548"><ele>365.0</ele><time>2026-04-10T15:27:11Z</time></trkpt><trkpt lat="43.542883646254914" lon="12.059413440207582"><ele>362.0</ele><time>2026-04-10T15:27:12Z</time></trkpt><trkpt lat="43.54294214798277" lon="12.059554377516879"><ele>359.0</ele><time>2026-04-10T15:27:13Z</time></trkpt><trkpt lat="43.54299747340168" lon="12.05969325451215"><ele>356.0</ele><time>2026-04-10T15:27:14Z</time></trkpt><trkpt lat="43.54304910573337" lon="12.059833122794263"><ele>353.0</ele><time>2026-04-10T15:27:15Z</time></trkpt><trkpt lat="43.54309916411641" lon="12.059974628778678"><ele>351.75</ele><time>2026-04-10T15:27:16Z</time></trkpt><trkpt lat="43.543149591739436" lon="12.060118128096715"><ele>350.5</ele><time>2026-04-10T15:27:17Z</time></trkpt><trkpt lat="43.54320129706242" lon="12.060258530901072"><ele>349.25</ele><time>2026-04-10T15:27:18Z</time></trkpt><trkpt lat="43.543252214985216" lon="12.060396481110889"><ele>348.0</ele><time>2026-04-10T15:27:18.999Z</time></trkpt><trkpt lat="43.543305209523645" lon="12.0605336569384"><ele>348.0</ele><time>2026-04-10T15:27:19.999Z</time></trkpt><trkpt lat="43.54335289285593" lon="12.060663850375358"><ele>348.0</ele><time>2026-04-10T15:27:20.999Z</time></trkpt><trkpt lat="43.5433921003913" lon="12.060773519100284"><ele>348.0</ele><time>2026-04-10T15:27:21.999Z</time></trkpt><trkpt lat="43.54342789229826" lon="12.060864008607602"><ele>348.0</ele><time>2026-04-10T15:27:22.999Z</time></trkpt><trkpt lat="43.54346214299032" lon="12.060960692665963"><ele>348.0</ele><time>2026-04-10T15:27:23.999Z</time></trkpt><trkpt lat="43.5434949040439" lon="12.061054587514997"><ele>348.0</ele><time>2026-04-10T15:27:24.999Z</time></trkpt><trkpt lat="43.543534009345116" lon="12.06115594272294"><ele>347.3333333333333</ele><time>2026-04-10T15:27:25.999Z</time></trkpt><trkpt lat="43.54357251868932" lon="12.06125632727655"><ele>346.6666666666667</ele><time>2026-04-10T15:27:26.999Z</time></trkpt><trkpt lat="43.54361071489658" lon="12.061358539583637"><ele>346.0</ele><time>2026-04-10T15:27:27.999Z</time></trkpt><trkpt lat="43.54364018086978" lon="12.061442618814763"><ele>345.33333333333337</ele><time>2026-04-10T15:27:28.999Z</time></trkpt><trkpt lat="43.54368833366726" lon="12.061565307163029"><ele>344.6666666666667</ele><time>2026-04-10T15:27:30.999Z</time></trkpt><trkpt lat="43.543729803774355" lon="12.061645941180755"><ele>344.0</ele><time>2026-04-10T15:27:32.999Z</time></trkpt><trkpt lat="43.54375728342397" lon="12.06172586457328"><ele>342.6</ele><time>2026-04-10T15:28:13Z</time></trkpt><trkpt lat="43.54380114279659" lon="12.061838525410936"><ele>341.2</ele><time>2026-04-10T15:28:16Z</time></trkpt><trkpt lat="43.543850585748416" lon="12.06195825068251"><ele>339.8</ele><time>2026-04-10T15:28:18Z</time></trkpt><trkpt lat="43.543910693996956" lon="12.06210819559876"><ele>338.40000000000003</ele><time>2026-04-10T15:28:20Z</time></trkpt><trkpt lat="43.543947342787526" lon="12.0621976690966"><ele>337.0</ele><time>2026-04-10T15:28:21Z</time></trkpt><trkpt lat="43.54400456306986" lon="12.062327311642635"><ele>336.0</ele><time>2026-04-10T15:28:22Z</time></trkpt><trkpt lat="43.54406734279641" lon="12.062495866032103"><ele>335.0</ele><time>2026-04-10T15:28:23Z</time></trkpt><trkpt lat="43.54413641963583" lon="12.062688228562884"><ele>334.0</ele><time>2026-04-10T15:28:24Z</time></trkpt><trkpt lat="43.54421625125523" lon="12.062899624366423"><ele>334.0</ele><time>2026-04-10T15:28:25Z</time></trkpt><trkpt lat="43.54428099041874" lon="12.063136296698898"><ele>334.0</ele><time>2026-04-10T15:28:26Z</time></trkpt><trkpt lat="43.5443795248883" lon="12.063359793833257"><ele>334.0</ele><time>2026-04-10T15:28:27Z</time></trkpt><trkpt lat="43.54446523024384" lon="12.063600672446409"><ele>332.3333333333333</ele><time>2026-04-10T15:28:28Z</time></trkpt><trkpt lat="43.54455415554961" lon="12.06384322449627"><ele>330.6666666666667</ele><time>2026-04-10T15:28:29Z</time></trkpt><trkpt lat="43.54464532069332" lon="12.064083857906464"><ele>329.0</ele><time>2026-04-10T15:28:30Z</time></trkpt><trkpt lat="43.544732815980474" lon="12.064315900669712"><ele>328.33333333333337</ele><time>2026-04-10T15:28:31Z</time></trkpt><trkpt lat="43.5448164670735" lon="12.064541050788463"><ele>327.6666666666667</ele><time>2026-04-10T15:28:32Z</time></trkpt><trkpt lat="43.544898442838935" lon="12.064764489660353"><ele>327.0</ele><time>2026-04-10T15:28:33Z</time></trkpt><trkpt lat="43.544980603986346" lon="12.064985571860214"><ele>326.3333333333333</ele><time>2026-04-10T15:28:34Z</time></trkpt><trkpt lat="43.54506326120674" lon="12.06520642511101"><ele>325.66666666666663</ele><time>2026-04-10T15:28:35Z</time></trkpt><trkpt lat="43.5451451781107" lon="12.065423886745075"><ele>325.0</ele><time>2026-04-10T15:28:36Z</time></trkpt><trkpt lat="43.54522410424429" lon="12.065637547520605"><ele>324.66666666666663</ele><time>2026-04-10T15:28:37Z</time></trkpt><trkpt lat="43.54530244675072" lon="12.065843678908033"><ele>324.3333333333333</ele><time>2026-04-10T15:28:38Z</time></trkpt><trkpt lat="43.54538031371714" lon="12.066045874880233"><ele>324.0</ele><time>2026-04-10T15:28:39Z</time></trkpt><trkpt lat="43.54545688041681" lon="12.066245379471278"><ele>323.6666666666667</ele><time>2026-04-10T15:28:40Z</time></trkpt><trkpt lat="43.545530842359845" lon="12.066448245223558"><ele>323.33333333333337</ele><time>2026-04-10T15:28:41Z</time></trkpt><trkpt lat="43.545606036180196" lon="12.066648185741455"><ele>323.0</ele><time>2026-04-10T15:28:42Z</time></trkpt><trkpt lat="43.545682762571" lon="12.066850166111204"><ele>322.6666666666667</ele><time>2026-04-10T15:28:43Z</time></trkpt><trkpt lat="43.54576097448319" lon="12.067055037691084"><ele>322.3333333333333</ele><time>2026-04-10T15:28:44Z</time></trkpt><trkpt lat="43.545842110769875" lon="12.067263296507592"><ele>322.0</ele><time>2026-04-10T15:28:45Z</time></trkpt><trkpt lat="43.54592506573265" lon="12.067477358439982"><ele>321.0</ele><time>2026-04-10T15:28:46Z</time></trkpt><trkpt lat="43.54600988457296" lon="12.067697240782095"><ele>320.0</ele><time>2026-04-10T15:28:47Z</time></trkpt><trkpt lat="43.54609545945131" lon="12.067925307518216"><ele>319.0</ele><time>2026-04-10T15:28:48Z</time></trkpt><trkpt lat="43.54618330043111" lon="12.068157559155338"><ele>319.0</ele><time>2026-04-10T15:28:49Z</time></trkpt><trkpt lat="43.546273972093665" lon="12.068393545381056"><ele>319.0</ele><time>2026-04-10T15:28:50Z</time></trkpt><trkpt lat="43.546365313146445" lon="12.068631173520394"><ele>319.0</ele><time>2026-04-10T15:28:51Z</time></trkpt><trkpt lat="43.54645725105278" lon="12.06887260867119"><ele>318.66666666666663</ele><time>2026-04-10T15:28:52Z</time></trkpt><trkpt lat="43.54654938536519" lon="12.06911938576779"><ele>318.3333333333333</ele><time>2026-04-10T15:28:53Z</time></trkpt><trkpt lat="43.54664324290699" lon="12.069371189337868"><ele>318.0</ele><time>2026-04-10T15:28:54Z</time></trkpt><trkpt lat="43.5467370559499" lon="12.069622203231363"><ele>318.0</ele><time>2026-04-10T15:28:55Z</time></trkpt><trkpt lat="43.546833062517884" lon="12.06987410632387"><ele>318.0</ele><time>2026-04-10T15:28:56Z</time></trkpt><trkpt lat="43.54692957352072" lon="12.0701286026707"><ele>318.0</ele><time>2026-04-10T15:28:57Z</time></trkpt><trkpt lat="43.54702650348077" lon="12.070382989305521"><ele>318.0</ele><time>2026-04-10T15:28:58Z</time></trkpt><trkpt lat="43.547122301242304" lon="12.070638215434677"><ele>318.0</ele><time>2026-04-10T15:28:59Z</time></trkpt><trkpt lat="43.54721881721039" lon="12.070893989773706"><ele>318.0</ele><time>2026-04-10T15:29:00Z</time></trkpt><trkpt lat="43.54731506769013" lon="12.071150750865812"><ele>318.0</ele><time>2026-04-10T15:29:01Z</time></trkpt><trkpt lat="43.54741434714933" lon="12.071412162398127"><ele>318.0</ele><time>2026-04-10T15:29:02Z</time></trkpt><trkpt lat="43.54751701389028" lon="12.07167779579507"><ele>318.0</ele><time>2026-04-10T15:29:03Z</time></trkpt><trkpt lat="43.54761516295822" lon="12.071938766913215"><ele>317.6666666666667</ele><time>2026-04-10T15:29:04Z</time></trkpt><trkpt lat="43.54771453872409" lon="12.072200111482251"><ele>317.33333333333337</ele><time>2026-04-10T15:29:05Z</time></trkpt><trkpt lat="43.54781400962203" lon="12.072463343204657"><ele>317.0</ele><time>2026-04-10T15:29:06Z</time></trkpt><trkpt lat="43.547913940371764" lon="12.072726849451044"><ele>317.6666666666667</ele><time>2026-04-10T15:29:07Z</time></trkpt><trkpt lat="43.54801421732934" lon="12.072989139791018"><ele>318.3333333333333</ele><time>2026-04-10T15:29:08Z</time></trkpt><trkpt lat="43.54811376813274" lon="12.073251135036491"><ele>319.0</ele><time>2026-04-10T15:29:09Z</time></trkpt><trkpt lat="43.54821331002082" lon="12.073509385610775"><ele>319.0</ele><time>2026-04-10T15:29:10Z</time></trkpt><trkpt lat="43.54831072249916" lon="12.073765477619194"><ele>319.0</ele><time>2026-04-10T15:29:11Z</time></trkpt><trkpt lat="43.548411323203986" lon="12.074024712331417"><ele>319.0</ele><time>2026-04-10T15:29:12Z</time></trkpt><trkpt lat="43.548509571250825" lon="12.074285079744556"><ele>319.0</ele><time>2026-04-10T15:29:13Z</time></trkpt><trkpt lat="43.54860386756995" lon="12.07454144624016"><ele>319.0</ele><time>2026-04-10T15:29:14Z</time></trkpt><trkpt lat="43.54869790360512" lon="12.074797752908607"><ele>319.0</ele><time>2026-04-10T15:29:15Z</time></trkpt><trkpt lat="43.54879446025584" lon="12.07505490596641"><ele>319.3333333333333</ele><time>2026-04-10T15:29:16Z</time></trkpt><trkpt lat="43.54889114795015" lon="12.07531093117076"><ele>319.6666666666667</ele><time>2026-04-10T15:29:17Z</time></trkpt><trkpt lat="43.54898870274654" lon="12.075563582614926"><ele>320.0</ele><time>2026-04-10T15:29:18Z</time></trkpt><trkpt lat="43.54908420871111" lon="12.075814801640687"><ele>319.0</ele><time>2026-04-10T15:29:19Z</time></trkpt><trkpt lat="43.54917990539499" lon="12.076064811275979"><ele>318.0</ele><time>2026-04-10T15:29:20Z</time></trkpt><trkpt lat="43.549273705136684" lon="12.0763131676784"><ele>317.0</ele><time>2026-04-10T15:29:21Z</time></trkpt><trkpt lat="43.5493687685608" lon="12.076559464688522"><ele>317.0</ele><time>2026-04-10T15:29:22Z</time></trkpt><trkpt lat="43.549462901223954" lon="12.076801188439166"><ele>317.0</ele><time>2026-04-10T15:29:23Z</time></trkpt><trkpt lat="43.54955648500081" lon="12.077044036736277"><ele>317.0</ele><time>2026-04-10T15:29:24Z</time></trkpt><trkpt lat="43.54964742455687" lon="12.077286495675256"><ele>317.33333333333337</ele><time>2026-04-10T15:29:24.998Z</time></trkpt><trkpt lat="43.54973781380932" lon="12.07752417679407"><ele>317.6666666666667</ele><time>2026-04-10T15:29:25.998Z</time></trkpt><trkpt lat="43.549826698002526" lon="12.07775763887362"><ele>318.0</ele><time>2026-04-10T15:29:26.998Z</time></trkpt><trkpt lat="43.54991510561822" lon="12.077991471024832"><ele>318.0</ele><time>2026-04-10T15:29:27.998Z</time></trkpt><trkpt lat="43.55000259461676" lon="12.078226039500036"><ele>318.0</ele><time>2026-04-10T15:29:28.998Z</time></trkpt><trkpt lat="43.55008993905811" lon="12.078455665412555"><ele>318.0</ele><time>2026-04-10T15:29:29.998Z</time></trkpt><trkpt lat="43.55017860673059" lon="12.078682647588707"><ele>317.6666666666667</ele><time>2026-04-10T15:29:30.998Z</time></trkpt><trkpt lat="43.55026519871767" lon="12.078914727415514"><ele>317.33333333333337</ele><time>2026-04-10T15:29:31.998Z</time></trkpt><trkpt lat="43.55034860253461" lon="12.079142940236741"><ele>317.0</ele><time>2026-04-10T15:29:32.999Z</time></trkpt><trkpt lat="43.55043208602165" lon="12.079372252953931"><ele>317.0</ele><time>2026-04-10T15:29:33.999Z</time></trkpt><trkpt lat="43.550518783749204" lon="12.079599375954157"><ele>317.0</ele><time>2026-04-10T15:29:34.999Z</time></trkpt><trkpt lat="43.55060754632671" lon="12.079821724095734"><ele>317.0</ele><time>2026-04-10T15:29:35.999Z</time></trkpt><trkpt lat="43.550693044631366" lon="12.080047563178821"><ele>317.0</ele><time>2026-04-10T15:29:36.999Z</time></trkpt><trkpt lat="43.550778227924916" lon="12.080274740089122"><ele>317.0</ele><time>2026-04-10T15:29:37.999Z</time></trkpt><trkpt lat="43.55086471729909" lon="12.080503260294808"><ele>317.0</ele><time>2026-04-10T15:29:38.999Z</time></trkpt><trkpt lat="43.5509518800341" lon="12.080730100831243"><ele>316.6666666666667</ele><time>2026-04-10T15:29:39.999Z</time></trkpt><trkpt lat="43.551039603059806" lon="12.080957603198982"><ele>316.3333333333333</ele><time>2026-04-10T15:29:40.999Z</time></trkpt><trkpt lat="43.55112878328227" lon="12.081187898440012"><ele>316.0</ele><time>2026-04-10T15:29:41.999Z</time></trkpt><trkpt lat="43.55121896939292" lon="12.081421166519581"><ele>316.0</ele><time>2026-04-10T15:29:42.999Z</time></trkpt><trkpt lat="43.551310257048286" lon="12.081657753980322"><ele>316.0</ele><time>2026-04-10T15:29:43.999Z</time></trkpt><trkpt lat="43.551403049152704" lon="12.081902595172524"><ele>316.0</ele><time>2026-04-10T15:29:44.999Z</time></trkpt><trkpt lat="43.5514940832607" lon="12.082149974838753"><ele>316.0</ele><time>2026-04-10T15:29:45.999Z</time></trkpt><trkpt lat="43.55158622155118" lon="12.08239804162651"><ele>316.0</ele><time>2026-04-10T15:29:46.999Z</time></trkpt><trkpt lat="43.551680934679474" lon="12.082645154366107"><ele>316.0</ele><time>2026-04-10T15:29:47.999Z</time></trkpt><trkpt lat="43.55177680560925" lon="12.082893421156852"><ele>316.0</ele><time>2026-04-10T15:29:48.999Z</time></trkpt><trkpt lat="43.55187349481575" lon="12.083138526882577"><ele>316.0</ele><time>2026-04-10T15:29:49.999Z</time></trkpt><trkpt lat="43.55196465441406" lon="12.083386094695385"><ele>316.0</ele><time>2026-04-10T15:29:50.999Z</time></trkpt><trkpt lat="43.55205886393968" lon="12.083633811974"><ele>316.0</ele><time>2026-04-10T15:29:51.999Z</time></trkpt><trkpt lat="43.55215308694874" lon="12.083882805741895"><ele>316.0</ele><time>2026-04-10T15:29:52.999Z</time></trkpt><trkpt lat="43.55224745788554" lon="12.084130710411598"><ele>316.0</ele><time>2026-04-10T15:29:53.999Z</time></trkpt><trkpt lat="43.552344046510775" lon="12.084382823032069"><ele>316.3333333333333</ele><time>2026-04-10T15:29:54.999Z</time></trkpt><trkpt lat="43.552441125800065" lon="12.084632677368527"><ele>316.6666666666667</ele><time>2026-04-10T15:29:55.999Z</time></trkpt><trkpt lat="43.55253618787381" lon="12.084888910107974"><ele>317.0</ele><time>2026-04-10T15:29:56.999Z</time></trkpt><trkpt lat="43.552630774336606" lon="12.085143189333724"><ele>317.0</ele><time>2026-04-10T15:29:57.999Z</time></trkpt><trkpt lat="43.552724288848296" lon="12.085401229296611"><ele>317.0</ele><time>2026-04-10T15:29:58.999Z</time></trkpt><trkpt lat="43.552820488589425" lon="12.085656277819782"><ele>317.0</ele><time>2026-04-10T15:29:59.999Z</time></trkpt><trkpt lat="43.55291718900207" lon="12.085909963496654"><ele>316.33333333333337</ele><time>2026-04-10T15:30:00.999Z</time></trkpt><trkpt lat="43.55301402619977" lon="12.086162035218214"><ele>315.6666666666667</ele><time>2026-04-10T15:30:01.999Z</time></trkpt><trkpt lat="43.55311159689399" lon="12.08641387561467"><ele>315.0</ele><time>2026-04-10T15:30:02.999Z</time></trkpt><trkpt lat="43.55320856361501" lon="12.08666366936319"><ele>314.6666666666667</ele><time>2026-04-10T15:30:03.999Z</time></trkpt><trkpt lat="43.55330562965999" lon="12.0869138905351"><ele>314.33333333333337</ele><time>2026-04-10T15:30:04.999Z</time></trkpt><trkpt lat="43.55340293581676" lon="12.087165999966704"><ele>314.0</ele><time>2026-04-10T15:30:05.999Z</time></trkpt><trkpt lat="43.55350195085029" lon="12.087417099887587"><ele>314.33333333333337</ele><time>2026-04-10T15:30:06.999Z</time></trkpt><trkpt lat="43.55359596508879" lon="12.087671709477865"><ele>314.6666666666667</ele><time>2026-04-10T15:30:07.999Z</time></trkpt><trkpt lat="43.5536917588266" lon="12.087925511159984"><ele>315.0</ele><time>2026-04-10T15:30:09Z</time></trkpt><trkpt lat="43.55378637466556" lon="12.088180410535035"><ele>315.0</ele><time>2026-04-10T15:30:10Z</time></trkpt><trkpt lat="43.55388266262378" lon="12.08843604842189"><ele>315.0</ele><time>2026-04-10T15:30:11Z</time></trkpt><trkpt lat="43.55397721952748" lon="12.088692657715042"><ele>315.0</ele><time>2026-04-10T15:30:12Z</time></trkpt><trkpt lat="43.55407348313391" lon="12.088947877557347"><ele>315.3333333333333</ele><time>2026-04-10T15:30:13Z</time></trkpt><trkpt lat="43.55417211874849" lon="12.089201218052636"><ele>315.66666666666663</ele><time>2026-04-10T15:30:14Z</time></trkpt><trkpt lat="43.55426713139104" lon="12.089455111550928"><ele>316.0</ele><time>2026-04-10T15:30:15Z</time></trkpt><trkpt lat="43.55436218163172" lon="12.089706187008765"><ele>315.66666666666663</ele><time>2026-04-10T15:30:16Z</time></trkpt><trkpt lat="43.55445820983324" lon="12.089957123541735"><ele>315.3333333333333</ele><time>2026-04-10T15:30:17Z</time></trkpt><trkpt lat="43.55455198467443" lon="12.090206099794141"><ele>315.0</ele><time>2026-04-10T15:30:18Z</time></trkpt><trkpt lat="43.55464487126407" lon="12.090456962922715"><ele>315.0</ele><time>2026-04-10T15:30:19Z</time></trkpt><trkpt lat="43.5547371698877" lon="12.090706307230718"><ele>315.0</ele><time>2026-04-10T15:30:20Z</time></trkpt><trkpt lat="43.554830275303644" lon="12.09095453040292"><ele>315.0</ele><time>2026-04-10T15:30:21Z</time></trkpt><trkpt lat="43.554925533262576" lon="12.09120377166034"><ele>315.0</ele><time>2026-04-10T15:30:22Z</time></trkpt><trkpt lat="43.55501983208257" lon="12.091451828299288"><ele>315.0</ele><time>2026-04-10T15:30:23Z</time></trkpt><trkpt lat="43.55511612123633" lon="12.091695710573504"><ele>315.0</ele><time>2026-04-10T15:30:24Z</time></trkpt><trkpt lat="43.55521344902329" lon="12.091940754938532"><ele>315.0</ele><time>2026-04-10T15:30:25Z</time></trkpt><trkpt lat="43.55530876647929" lon="12.092189922230473"><ele>315.0</ele><time>2026-04-10T15:30:26Z</time></trkpt><trkpt lat="43.555404634967786" lon="12.092444687622686"><ele>315.0</ele><time>2026-04-10T15:30:27Z</time></trkpt><trkpt lat="43.5554993034903" lon="12.092696581575987"><ele>314.3333333333333</ele><time>2026-04-10T15:30:28Z</time></trkpt><trkpt lat="43.555591190826384" lon="12.092947669267833"><ele>313.66666666666663</ele><time>2026-04-10T15:30:29Z</time></trkpt><trkpt lat="43.55568170056362" lon="12.093194864675791"><ele>313.0</ele><time>2026-04-10T15:30:30Z</time></trkpt><trkpt lat="43.55577138129614" lon="12.093431004977662"><ele>313.0</ele><time>2026-04-10T15:30:31Z</time></trkpt><trkpt lat="43.55585920223097" lon="12.093660531331134"><ele>313.0</ele><time>2026-04-10T15:30:32Z</time></trkpt><trkpt lat="43.555942146744144" lon="12.093884528147363"><ele>313.0</ele><time>2026-04-10T15:30:33Z</time></trkpt><trkpt lat="43.556018947286944" lon="12.094094000817865"><ele>313.3333333333333</ele><time>2026-04-10T15:30:34Z</time></trkpt><trkpt lat="43.55610000505232" lon="12.094303922525349"><ele>313.6666666666667</ele><time>2026-04-10T15:30:35Z</time></trkpt><trkpt lat="43.55617759444786" lon="12.094504352426936"><ele>314.0</ele><time>2026-04-10T15:30:36Z</time></trkpt><trkpt lat="43.5562505918334" lon="12.094705012647726"><ele>313.33333333333337</ele><time>2026-04-10T15:30:37Z</time></trkpt><trkpt lat="43.556323178685794" lon="12.094898606799864"><ele>312.6666666666667</ele><time>2026-04-10T15:30:38Z</time></trkpt><trkpt lat="43.55639652499871" lon="12.095094027118211"><ele>312.0</ele><time>2026-04-10T15:30:39Z</time></trkpt><trkpt lat="43.55647316937222" lon="12.09529338627455"><ele>312.0</ele><time>2026-04-10T15:30:40Z</time></trkpt><trkpt lat="43.556551307250466" lon="12.095498107032851"><ele>312.0</ele><time>2026-04-10T15:30:41Z</time></trkpt><trkpt lat="43.5566305831941" lon="12.095705930558571"><ele>312.0</ele><time>2026-04-10T15:30:42Z</time></trkpt><trkpt lat="43.5567111118702" lon="12.09591299928548"><ele>311.6666666666667</ele><time>2026-04-10T15:30:43Z</time></trkpt><trkpt lat="43.55678793207307" lon="12.09611502070406"><ele>311.33333333333337</ele><time>2026-04-10T15:30:44Z</time></trkpt><trkpt lat="43.55686617220767" lon="12.096322937626693"><ele>311.0</ele><time>2026-04-10T15:30:45Z</time></trkpt><trkpt lat="43.55694615651937" lon="12.096529922641507"><ele>311.33333333333337</ele><time>2026-04-10T15:30:46Z</time></trkpt><trkpt lat="43.55702480958131" lon="12.09673296881026"><ele>311.6666666666667</ele><time>2026-04-10T15:30:47Z</time></trkpt><trkpt lat="43.55709858365089" lon="12.096935791941965"><ele>312.0</ele><time>2026-04-10T15:30:48Z</time></trkpt><trkpt lat="43.55717164719246" lon="12.097140591243775"><ele>312.0</ele><time>2026-04-10T15:30:49Z</time></trkpt><trkpt lat="43.55724816058125" lon="12.097347949610693"><ele>312.0</ele><time>2026-04-10T15:30:50Z</time></trkpt><trkpt lat="43.55732516945713" lon="12.097553706581428"><ele>312.0</ele><time>2026-04-10T15:30:51Z</time></trkpt><trkpt lat="43.55740316216764" lon="12.097757097157942"><ele>311.6666666666667</ele><time>2026-04-10T15:30:52Z</time></trkpt><trkpt lat="43.55748259129431" lon="12.097957545777158"><ele>311.33333333333337</ele><time>2026-04-10T15:30:53Z</time></trkpt><trkpt lat="43.55755787605129" lon="12.098153924584768"><ele>311.0</ele><time>2026-04-10T15:30:54Z</time></trkpt><trkpt lat="43.55763105928296" lon="12.09834985721817"><ele>311.0</ele><time>2026-04-10T15:30:55Z</time></trkpt><trkpt lat="43.55770079415304" lon="12.098539474443855"><ele>311.0</ele><time>2026-04-10T15:30:56Z</time></trkpt><trkpt lat="43.55777094690941" lon="12.09872601150426"><ele>311.0</ele><time>2026-04-10T15:30:57Z</time></trkpt><trkpt lat="43.55784028131802" lon="12.098907593565052"><ele>311.25</ele><time>2026-04-10T15:30:58Z</time></trkpt><trkpt lat="43.55790867949166" lon="12.099086454941963"><ele>311.5</ele><time>2026-04-10T15:30:59Z</time></trkpt><trkpt lat="43.557979917731046" lon="12.099266696316333"><ele>311.75</ele><time>2026-04-10T15:31:00Z</time></trkpt><trkpt lat="43.55804888972069" lon="12.099446508369217"><ele>312.0</ele><time>2026-04-10T15:31:01Z</time></trkpt><trkpt lat="43.55811992276421" lon="12.099631894807883"><ele>312.0</ele><time>2026-04-10T15:31:02Z</time></trkpt><trkpt lat="43.55819369436002" lon="12.099819642721808"><ele>312.0</ele><time>2026-04-10T15:31:03Z</time></trkpt><trkpt lat="43.558266952652" lon="12.100012695592163"><ele>312.0</ele><time>2026-04-10T15:31:04Z</time></trkpt><trkpt lat="43.558338993544304" lon="12.100203608015471"><ele>312.3333333333333</ele><time>2026-04-10T15:31:05Z</time></trkpt><trkpt lat="43.558411800918385" lon="12.100394394772778"><ele>312.66666666666663</ele><time>2026-04-10T15:31:06Z</time></trkpt><trkpt lat="43.55848352264851" lon="12.100583524496153"><ele>313.0</ele><time>2026-04-10T15:31:07Z</time></trkpt><trkpt lat="43.55855348415253" lon="12.100765801007325"><ele>313.0</ele><time>2026-04-10T15:31:08Z</time></trkpt><trkpt lat="43.558619778056766" lon="12.100943160144153"><ele>313.0</ele><time>2026-04-10T15:31:09Z</time></trkpt><trkpt lat="43.55868438074209" lon="12.101118144436253"><ele>313.0</ele><time>2026-04-10T15:31:10Z</time></trkpt><trkpt lat="43.55874935345422" lon="12.10129042322322"><ele>313.0</ele><time>2026-04-10T15:31:11Z</time></trkpt><trkpt lat="43.55881671919279" lon="12.10146627053085"><ele>313.25</ele><time>2026-04-10T15:31:12Z</time></trkpt><trkpt lat="43.55888284371098" lon="12.10163855532992"><ele>313.5</ele><time>2026-04-10T15:31:13Z</time></trkpt><trkpt lat="43.55894603719959" lon="12.101805669932606"><ele>313.75</ele><time>2026-04-10T15:31:14Z</time></trkpt><trkpt lat="43.55900775352422" lon="12.101967830032626"><ele>314.0</ele><time>2026-04-10T15:31:15Z</time></trkpt><trkpt lat="43.559067127415794" lon="12.102125431183428"><ele>314.0</ele><time>2026-04-10T15:31:16Z</time></trkpt><trkpt lat="43.5591243596287" lon="12.102277078922787"><ele>314.0</ele><time>2026-04-10T15:31:17Z</time></trkpt><trkpt lat="43.559176464106486" lon="12.10242500853895"><ele>314.0</ele><time>2026-04-10T15:31:18Z</time></trkpt><trkpt lat="43.55922064840401" lon="12.102569186154026"><ele>314.0</ele><time>2026-04-10T15:31:19Z</time></trkpt><trkpt lat="43.559254531320384" lon="12.102712484806382"><ele>314.0</ele><time>2026-04-10T15:31:20Z</time></trkpt><trkpt lat="43.55927537693348" lon="12.102848955097931"><ele>314.0</ele><time>2026-04-10T15:31:21Z</time></trkpt><trkpt lat="43.5592834569547" lon="12.102978754180388"><ele>314.0</ele><time>2026-04-10T15:31:22Z</time></trkpt><trkpt lat="43.55928861421656" lon="12.103104870578159"><ele>314.0</ele><time>2026-04-10T15:31:23Z</time></trkpt><trkpt lat="43.55928954655798" lon="12.103226431476848"><ele>314.0</ele><time>2026-04-10T15:31:24Z</time></trkpt><trkpt lat="43.55929447325143" lon="12.103346930586673"><ele>314.0</ele><time>2026-04-10T15:31:25Z</time></trkpt><trkpt lat="43.55931775096679" lon="12.103458276002446"><ele>314.0</ele><time>2026-04-10T15:31:26Z</time></trkpt><trkpt lat="43.55935511932608" lon="12.103563102574721"><ele>314.0</ele><time>2026-04-10T15:31:27Z</time></trkpt><trkpt lat="43.55941156729432" lon="12.103651111638142"><ele>314.0</ele><time>2026-04-10T15:31:28Z</time></trkpt><trkpt lat="43.55948342247079" lon="12.103726185861804"><ele>314.0</ele><time>2026-04-10T15:31:29Z</time></trkpt><trkpt lat="43.55956525183029" lon="12.103802192784176"><ele>314.0</ele><time>2026-04-10T15:31:30Z</time></trkpt><trkpt lat="43.559646573668765" lon="12.103885189220273"><ele>314.0</ele><time>2026-04-10T15:31:30.998Z</time></trkpt><trkpt lat="43.55972615537428" lon="12.103985072212282"><ele>314.0</ele><time>2026-04-10T15:31:31.998Z</time></trkpt><trkpt lat="43.55979057025037" lon="12.10409344225922"><ele>314.0</ele><time>2026-04-10T15:31:32.998Z</time></trkpt><trkpt lat="43.559845059997734" lon="12.104205769832934"><ele>314.0</ele><time>2026-04-10T15:31:33.998Z</time></trkpt><trkpt lat="43.55989560900271" lon="12.104317307695714"><ele>314.0</ele><time>2026-04-10T15:31:34.998Z</time></trkpt><trkpt lat="43.55994178330773" lon="12.104430287582272"><ele>313.83333333333337</ele><time>2026-04-10T15:31:35.998Z</time></trkpt><trkpt lat="43.559984065289285" lon="12.104542176421218"><ele>313.6666666666667</ele><time>2026-04-10T15:31:36.998Z</time></trkpt><trkpt lat="43.56002668335012" lon="12.104649508101097"><ele>313.5</ele><time>2026-04-10T15:31:37.998Z</time></trkpt><trkpt lat="43.56006748634107" lon="12.104755555792568"><ele>313.3333333333333</ele><time>2026-04-10T15:31:38.998Z</time></trkpt><trkpt lat="43.56010774867231" lon="12.104863852608183"><ele>313.16666666666663</ele><time>2026-04-10T15:31:39.998Z</time></trkpt><trkpt lat="43.5601470622749" lon="12.104975850660368"><ele>313.0</ele><time>2026-04-10T15:31:40.998Z</time></trkpt><trkpt lat="43.560184220310674" lon="12.105084884580116"><ele>313.0</ele><time>2026-04-10T15:31:41.998Z</time></trkpt><trkpt lat="43.56022450746162" lon="12.10520140699405"><ele>313.0</ele><time>2026-04-10T15:31:42.998Z</time></trkpt><trkpt lat="43.56026734873674" lon="12.105321874077529"><ele>313.0</ele><time>2026-04-10T15:31:43.998Z</time></trkpt><trkpt lat="43.56031543017398" lon="12.105443617646472"><ele>313.0</ele><time>2026-04-10T15:31:44.999Z</time></trkpt><trkpt lat="43.56037157752894" lon="12.105576861491766"><ele>313.0</ele><time>2026-04-10T15:31:45.999Z</time></trkpt><trkpt lat="43.56043243473951" lon="12.105722077532937"><ele>312.75</ele><time>2026-04-10T15:31:46.999Z</time></trkpt><trkpt lat="43.5604857086669" lon="12.105868397363679"><ele>312.5</ele><time>2026-04-10T15:31:47.999Z</time></trkpt><trkpt lat="43.560535542693685" lon="12.106008779448901"><ele>312.25</ele><time>2026-04-10T15:31:48.999Z</time></trkpt><trkpt lat="43.560587189222126" lon="12.106144788690873"><ele>312.0</ele><time>2026-04-10T15:31:49.999Z</time></trkpt><trkpt lat="43.56063973730273" lon="12.106281544569848"><ele>312.0</ele><time>2026-04-10T15:31:50.999Z</time></trkpt><trkpt lat="43.56068895396969" lon="12.106415476111671"><ele>312.0</ele><time>2026-04-10T15:31:51.999Z</time></trkpt><trkpt lat="43.56073631852553" lon="12.106545126347978"><ele>312.0</ele><time>2026-04-10T15:31:52.999Z</time></trkpt><trkpt lat="43.56078347066784" lon="12.106671379927286"><ele>312.0</ele><time>2026-04-10T15:31:53.999Z</time></trkpt><trkpt lat="43.5608322041492" lon="12.106800283399487"><ele>312.0</ele><time>2026-04-10T15:31:54.999Z</time></trkpt><trkpt lat="43.560885586203426" lon="12.10693550211895"><ele>312.0</ele><time>2026-04-10T15:31:55.999Z</time></trkpt><trkpt lat="43.5609415489782" lon="12.107075747408533"><ele>312.0</ele><time>2026-04-10T15:31:56.999Z</time></trkpt><trkpt lat="43.56099525492477" lon="12.107216655908928"><ele>312.0</ele><time>2026-04-10T15:31:57.999Z</time></trkpt><trkpt lat="43.56104615921256" lon="12.10735456376496"><ele>312.0</ele><time>2026-04-10T15:31:58.999Z</time></trkpt><trkpt lat="43.56109761035806" lon="12.10749171179738"><ele>311.75</ele><time>2026-04-10T15:31:59.999Z</time></trkpt><trkpt lat="43.561154335198744" lon="12.107633863358796"><ele>311.5</ele><time>2026-04-10T15:32:00.999Z</time></trkpt><trkpt lat="43.561211861788856" lon="12.107781781890115"><ele>311.25</ele><time>2026-04-10T15:32:01.999Z</time></trkpt><trkpt lat="43.56126815655839" lon="12.107931973776088"><ele>311.0</ele><time>2026-04-10T15:32:02.999Z</time></trkpt><trkpt lat="43.56132348176598" lon="12.10807597866256"><ele>311.0</ele><time>2026-04-10T15:32:03.999Z</time></trkpt><trkpt lat="43.561377759157686" lon="12.108220796511429"><ele>311.0</ele><time>2026-04-10T15:32:04.999Z</time></trkpt><trkpt lat="43.56143407231813" lon="12.108369478902013"><ele>311.0</ele><time>2026-04-10T15:32:05.999Z</time></trkpt><trkpt lat="43.56149278061548" lon="12.108522183154664"><ele>311.0</ele><time>2026-04-10T15:32:06.999Z</time></trkpt><trkpt lat="43.56155267892226" lon="12.108679675175907"><ele>311.0</ele><time>2026-04-10T15:32:08Z</time></trkpt><trkpt lat="43.561609229720254" lon="12.108838271672704"><ele>311.0</ele><time>2026-04-10T15:32:09Z</time></trkpt><trkpt lat="43.561672095582274" lon="12.108998881557644"><ele>311.0</ele><time>2026-04-10T15:32:10Z</time></trkpt><trkpt lat="43.561735601800194" lon="12.109164518183723"><ele>311.0</ele><time>2026-04-10T15:32:11Z</time></trkpt><trkpt lat="43.56179674780832" lon="12.109326895435915"><ele>311.0</ele><time>2026-04-10T15:32:12Z</time></trkpt><trkpt lat="43.5618599678048" lon="12.109491100374166"><ele>311.0</ele><time>2026-04-10T15:32:13Z</time></trkpt><trkpt lat="43.56192361580814" lon="12.109659911274488"><ele>311.0</ele><time>2026-04-10T15:32:14Z</time></trkpt><trkpt lat="43.56198693521687" lon="12.10982783429288"><ele>311.0</ele><time>2026-04-10T15:32:15Z</time></trkpt><trkpt lat="43.56205032342973" lon="12.109997046388623"><ele>310.75</ele><time>2026-04-10T15:32:16Z</time></trkpt><trkpt lat="43.562114913306864" lon="12.1101684802293"><ele>310.5</ele><time>2026-04-10T15:32:17Z</time></trkpt><trkpt lat="43.562180811190764" lon="12.11034168052582"><ele>310.25</ele><time>2026-04-10T15:32:18Z</time></trkpt><trkpt lat="43.56224741624767" lon="12.11051531583063"><ele>310.0</ele><time>2026-04-10T15:32:19Z</time></trkpt><trkpt lat="43.562311767668156" lon="12.110684456563973"><ele>310.25</ele><time>2026-04-10T15:32:20Z</time></trkpt><trkpt lat="43.56237255186442" lon="12.11085081011582"><ele>310.5</ele><time>2026-04-10T15:32:21Z</time></trkpt><trkpt lat="43.56243160244255" lon="12.111010801461758"><ele>310.75</ele><time>2026-04-10T15:32:22Z</time></trkpt><trkpt lat="43.56248985216009" lon="12.111163389246316"><ele>311.0</ele><time>2026-04-10T15:32:23Z</time></trkpt><trkpt lat="43.562545360628945" lon="12.111314027531732"><ele>311.0</ele><time>2026-04-10T15:32:24Z</time></trkpt><trkpt lat="43.56260057457982" lon="12.111459687368448"><ele>311.0</ele><time>2026-04-10T15:32:25Z</time></trkpt><trkpt lat="43.56265536693598" lon="12.111601959776126"><ele>311.0</ele><time>2026-04-10T15:32:26Z</time></trkpt><trkpt lat="43.5627121633559" lon="12.111745800103904"><ele>311.0</ele><time>2026-04-10T15:32:27Z</time></trkpt><trkpt lat="43.562768950369446" lon="12.11188847228251"><ele>310.75</ele><time>2026-04-10T15:32:28Z</time></trkpt><trkpt lat="43.562822584907515" lon="12.112026950676686"><ele>310.5</ele><time>2026-04-10T15:32:29Z</time></trkpt><trkpt lat="43.56287765130693" lon="12.112170756626517"><ele>310.25</ele><time>2026-04-10T15:32:30Z</time></trkpt><trkpt lat="43.56293370451384" lon="12.112316682659243"><ele>310.0</ele><time>2026-04-10T15:32:31Z</time></trkpt><trkpt lat="43.562988816672316" lon="12.112464404423786"><ele>309.75</ele><time>2026-04-10T15:32:32Z</time></trkpt><trkpt lat="43.563042281454685" lon="12.112610308125463"><ele>309.5</ele><time>2026-04-10T15:32:33Z</time></trkpt><trkpt lat="43.56309352566882" lon="12.11275690582422"><ele>309.25</ele><time>2026-04-10T15:32:34Z</time></trkpt><trkpt lat="43.56314803577618" lon="12.11290427997322"><ele>309.0</ele><time>2026-04-10T15:32:35Z</time></trkpt><trkpt lat="43.56320476661424" lon="12.113049436444088"><ele>309.0</ele><time>2026-04-10T15:32:36Z</time></trkpt><trkpt lat="43.56326226293315" lon="12.113195944041337"><ele>309.0</ele><time>2026-04-10T15:32:37Z</time></trkpt><trkpt lat="43.563319482252574" lon="12.113339396770465"><ele>309.0</ele><time>2026-04-10T15:32:38Z</time></trkpt><trkpt lat="43.56337607608476" lon="12.113481978116464"><ele>309.0</ele><time>2026-04-10T15:32:39Z</time></trkpt><trkpt lat="43.5634301013817" lon="12.113622646820566"><ele>309.2</ele><time>2026-04-10T15:32:40Z</time></trkpt><trkpt lat="43.563482845476244" lon="12.113763199327469"><ele>309.4</ele><time>2026-04-10T15:32:41Z</time></trkpt><trkpt lat="43.56353811451028" lon="12.113904717832547"><ele>309.6</ele><time>2026-04-10T15:32:42Z</time></trkpt><trkpt lat="43.56358604476539" lon="12.114043301470257"><ele>309.8</ele><time>2026-04-10T15:32:43Z</time></trkpt><trkpt lat="43.5636322189613" lon="12.114176225139252"><ele>310.0</ele><time>2026-04-10T15:32:44Z</time></trkpt><trkpt lat="43.5636768697759" lon="12.114313678435664"><ele>310.25</ele><time>2026-04-10T15:32:45Z</time></trkpt><trkpt lat="43.563718748417855" lon="12.11445991970755"><ele>310.5</ele><time>2026-04-10T15:32:46Z</time></trkpt><trkpt lat="43.563754838411114" lon="12.114613288473187"><ele>310.75</ele><time>2026-04-10T15:32:47Z</time></trkpt><trkpt lat="43.563784866191796" lon="12.114770563198158"><ele>311.0</ele><time>2026-04-10T15:32:48Z</time></trkpt><trkpt lat="43.56380960869007" lon="12.114929848859402"><ele>311.25</ele><time>2026-04-10T15:32:49Z</time></trkpt><trkpt lat="43.56382982798735" lon="12.115087423689413"><ele>311.5</ele><time>2026-04-10T15:32:50Z</time></trkpt><trkpt lat="43.563843714373576" lon="12.115250530191105"><ele>311.75</ele><time>2026-04-10T15:32:51Z</time></trkpt><trkpt lat="43.56385090230267" lon="12.115411865745976"><ele>312.0</ele><time>2026-04-10T15:32:52Z</time></trkpt><trkpt lat="43.56385063915291" lon="12.115569518636164"><ele>312.0</ele><time>2026-04-10T15:32:53Z</time></trkpt><trkpt lat="43.56384260568374" lon="12.115725675613941"><ele>312.0</ele><time>2026-04-10T15:32:54Z</time></trkpt><trkpt lat="43.56382832922838" lon="12.115883491713317"><ele>312.0</ele><time>2026-04-10T15:32:55Z</time></trkpt><trkpt lat="43.563808946692035" lon="12.116043592191662"><ele>312.0</ele><time>2026-04-10T15:32:56Z</time></trkpt><trkpt lat="43.56378520869324" lon="12.1162069678436"><ele>311.5</ele><time>2026-04-10T15:32:57Z</time></trkpt><trkpt lat="43.56375780982177" lon="12.11636478024794"><ele>311.0</ele><time>2026-04-10T15:32:58Z</time></trkpt><trkpt lat="43.563724887198816" lon="12.116519033475797"><ele>310.5</ele><time>2026-04-10T15:32:59.001Z</time></trkpt><trkpt lat="43.56369097435937" lon="12.116669567127952"><ele>310.0</ele><time>2026-04-10T15:33:00.001Z</time></trkpt><trkpt lat="43.56365812646213" lon="12.116806602431963"><ele>310.0</ele><time>2026-04-10T15:33:01.001Z</time></trkpt><trkpt lat="43.56362913010011" lon="12.116930104790836"><ele>310.0</ele><time>2026-04-10T15:33:02.001Z</time></trkpt><trkpt lat="43.56360156052317" lon="12.117047806253133"><ele>310.0</ele><time>2026-04-10T15:33:03.001Z</time></trkpt><trkpt lat="43.563574124361715" lon="12.1171616717501"><ele>310.0</ele><time>2026-04-10T15:33:04.001Z</time></trkpt><trkpt lat="43.563544659116275" lon="12.117274570105042"><ele>310.0</ele><time>2026-04-10T15:33:05.001Z</time></trkpt><trkpt lat="43.563509001542876" lon="12.11738325706965"><ele>310.0</ele><time>2026-04-10T15:33:06.001Z</time></trkpt><trkpt lat="43.56347213443798" lon="12.117488398563022"><ele>309.8333333333333</ele><time>2026-04-10T15:33:07.001Z</time></trkpt><trkpt lat="43.56342994030239" lon="12.117584253145617"><ele>309.66666666666663</ele><time>2026-04-10T15:33:08.001Z</time></trkpt><trkpt lat="43.563386317355004" lon="12.117671738914177"><ele>309.5</ele><time>2026-04-10T15:33:09.001Z</time></trkpt><trkpt lat="43.563344079079684" lon="12.11775249166676"><ele>309.3333333333333</ele><time>2026-04-10T15:33:10.001Z</time></trkpt><trkpt lat="43.563277921140084" lon="12.117857211316972"><ele>309.1666666666667</ele><time>2026-04-10T15:33:12.001Z</time></trkpt><trkpt lat="43.56322904940137" lon="12.117922261154407"><ele>309.0</ele><time>2026-04-10T15:33:14.001Z</time></trkpt><trkpt lat="43.563183126442816" lon="12.11800698615496"><ele>309.0</ele><time>2026-04-10T15:33:26.001Z</time></trkpt><trkpt lat="43.563146509361516" lon="12.118088704785452"><ele>309.0</ele><time>2026-04-10T15:33:47.999Z</time></trkpt><trkpt lat="43.56311331283452" lon="12.118183352395151"><ele>309.0</ele><time>2026-04-10T15:33:50.999Z</time></trkpt><trkpt lat="43.56317567150206" lon="12.118388005241197"><ele>309.0</ele><time>2026-04-10T15:33:52.999Z</time></trkpt><trkpt lat="43.56323963942291" lon="12.118454352549636"><ele>309.0</ele><time>2026-04-10T15:33:53.999Z</time></trkpt><trkpt lat="43.563293716159876" lon="12.118546905735696"><ele>309.0</ele><time>2026-04-10T15:33:54.999Z</time></trkpt><trkpt lat="43.56335235699821" lon="12.118642005510589"><ele>309.0</ele><time>2026-04-10T15:33:55.999Z</time></trkpt><trkpt lat="43.563416751181585" lon="12.118746870782557"><ele>309.0</ele><time>2026-04-10T15:33:56.999Z</time></trkpt><trkpt lat="43.56348485834305" lon="12.118859301395547"><ele>309.0</ele><time>2026-04-10T15:33:57.999Z</time></trkpt><trkpt lat="43.56355579843647" lon="12.118971533263267"><ele>309.0</ele><time>2026-04-10T15:33:58.999Z</time></trkpt><trkpt lat="43.56362658138026" lon="12.119087435546348"><ele>309.0</ele><time>2026-04-10T15:33:59.999Z</time></trkpt><trkpt lat="43.563695151085405" lon="12.119198326938895"><ele>309.0</ele><time>2026-04-10T15:34:00.999Z</time></trkpt><trkpt lat="43.56376599708768" lon="12.11931120093911"><ele>309.0</ele><time>2026-04-10T15:34:01.999Z</time></trkpt><trkpt lat="43.56383906927983" lon="12.119421676168702"><ele>309.0</ele><time>2026-04-10T15:34:02.999Z</time></trkpt><trkpt lat="43.563914914059914" lon="12.119537711254704"><ele>309.0</ele><time>2026-04-10T15:34:03.999Z</time></trkpt><trkpt lat="43.56399075800155" lon="12.119653436883656"><ele>309.0</ele><time>2026-04-10T15:34:04.999Z</time></trkpt><trkpt lat="43.564066596101725" lon="12.119761226917557"><ele>309.0</ele><time>2026-04-10T15:34:06Z</time></trkpt><trkpt lat="43.564139799472976" lon="12.119866595873201"><ele>309.0</ele><time>2026-04-10T15:34:07Z</time></trkpt><trkpt lat="43.564217449003884" lon="12.119969557214437"><ele>309.0</ele><time>2026-04-10T15:34:08Z</time></trkpt><trkpt lat="43.5643022102276" lon="12.120069879057281"><ele>309.0</ele><time>2026-04-10T15:34:09Z</time></trkpt><trkpt lat="43.564392571303145" lon="12.120169348244522"><ele>309.0</ele><time>2026-04-10T15:34:10Z</time></trkpt><trkpt lat="43.56448913944959" lon="12.120266207738734"><ele>309.0</ele><time>2026-04-10T15:34:11Z</time></trkpt><trkpt lat="43.56459643119208" lon="12.12035568453429"><ele>309.0</ele><time>2026-04-10T15:34:12Z</time></trkpt><trkpt lat="43.56470230417859" lon="12.120435122646505"><ele>309.0</ele><time>2026-04-10T15:34:13Z</time></trkpt><trkpt lat="43.56481114704542" lon="12.12050127632226"><ele>309.0</ele><time>2026-04-10T15:34:14Z</time></trkpt><trkpt lat="43.56492342386021" lon="12.120566083849473"><ele>309.0</ele><time>2026-04-10T15:34:15Z</time></trkpt><trkpt lat="43.56503789105736" lon="12.120627551817558"><ele>309.0</ele><time>2026-04-10T15:34:16Z</time></trkpt><trkpt lat="43.56515107317824" lon="12.12068571013952"><ele>309.0</ele><time>2026-04-10T15:34:17Z</time></trkpt><trkpt lat="43.565260273500876" lon="12.120742266429813"><ele>309.25</ele><time>2026-04-10T15:34:18Z</time></trkpt><trkpt lat="43.565369276584704" lon="12.12079595115083"><ele>309.5</ele><time>2026-04-10T15:34:19Z</time></trkpt><trkpt lat="43.56547888607601" lon="12.120849088464302"><ele>309.75</ele><time>2026-04-10T15:34:20Z</time></trkpt><trkpt lat="43.565584930268955" lon="12.120899550598685"><ele>310.0</ele><time>2026-04-10T15:34:21Z</time></trkpt><trkpt lat="43.565693220955495" lon="12.120953574604023"><ele>310.0</ele><time>2026-04-10T15:34:22Z</time></trkpt><trkpt lat="43.5657981684846" lon="12.121007860788408"><ele>310.0</ele><time>2026-04-10T15:34:23Z</time></trkpt><trkpt lat="43.56590116089078" lon="12.121056906614042"><ele>310.0</ele><time>2026-04-10T15:34:24Z</time></trkpt><trkpt lat="43.56600388766404" lon="12.121107009906009"><ele>310.0</ele><time>2026-04-10T15:34:25Z</time></trkpt><trkpt lat="43.566103648507095" lon="12.121158294968117"><ele>310.0</ele><time>2026-04-10T15:34:26Z</time></trkpt><trkpt lat="43.566198261532506" lon="12.121209816251685"><ele>309.8</ele><time>2026-04-10T15:34:27Z</time></trkpt><trkpt lat="43.56629204824884" lon="12.121258282847974"><ele>309.6</ele><time>2026-04-10T15:34:28Z</time></trkpt><trkpt lat="43.5663829786431" lon="12.121301575398485"><ele>309.4</ele><time>2026-04-10T15:34:29Z</time></trkpt><trkpt lat="43.56647251523957" lon="12.121344743749512"><ele>309.2</ele><time>2026-04-10T15:34:30Z</time></trkpt><trkpt lat="43.56656327435758" lon="12.12139108493962"><ele>309.0</ele><time>2026-04-10T15:34:31Z</time></trkpt><trkpt lat="43.566651742147975" lon="12.12143442010354"><ele>309.0</ele><time>2026-04-10T15:34:32Z</time></trkpt><trkpt lat="43.56674506537322" lon="12.121478361212732"><ele>309.0</ele><time>2026-04-10T15:34:33Z</time></trkpt><trkpt lat="43.56683751692755" lon="12.12152728406193"><ele>309.0</ele><time>2026-04-10T15:34:34Z</time></trkpt><trkpt lat="43.56693323577493" lon="12.12158306428416"><ele>309.0</ele><time>2026-04-10T15:34:35Z</time></trkpt><trkpt lat="43.56702461595422" lon="12.12164084312183"><ele>309.0</ele><time>2026-04-10T15:34:36Z</time></trkpt><trkpt lat="43.56711203315733" lon="12.121698019778929"><ele>308.8</ele><time>2026-04-10T15:34:37Z</time></trkpt><trkpt lat="43.56719320086783" lon="12.121747096897366"><ele>308.59999999999997</ele><time>2026-04-10T15:34:38Z</time></trkpt><trkpt lat="43.567280684632145" lon="12.121803544829348"><ele>308.4</ele><time>2026-04-10T15:34:39Z</time></trkpt><trkpt lat="43.56736483726244" lon="12.121870536081124"><ele>308.2</ele><time>2026-04-10T15:34:40Z</time></trkpt><trkpt lat="43.56744138611818" lon="12.121947390195032"><ele>308.0</ele><time>2026-04-10T15:34:41Z</time></trkpt><trkpt lat="43.56750819633173" lon="12.122018496731227"><ele>308.0</ele><time>2026-04-10T15:34:42Z</time></trkpt><trkpt lat="43.567574461736456" lon="12.122082768678927"><ele>308.0</ele><time>2026-04-10T15:34:43Z</time></trkpt><trkpt lat="43.56764557539028" lon="12.122141619353433"><ele>308.0</ele><time>2026-04-10T15:34:44Z</time></trkpt><trkpt lat="43.56772707105558" lon="12.122181570580265"><ele>308.0</ele><time>2026-04-10T15:34:45Z</time></trkpt><trkpt lat="43.56780481211503" lon="12.122152296596363"><ele>308.0</ele><time>2026-04-10T15:34:46.001Z</time></trkpt><trkpt lat="43.5678748572163" lon="12.122084138213426"><ele>308.0</ele><time>2026-04-10T15:34:47.001Z</time></trkpt><trkpt lat="43.567935567832926" lon="12.121985812066596"><ele>308.75</ele><time>2026-04-10T15:34:48.001Z</time></trkpt><trkpt lat="43.56799899899697" lon="12.121870466930503"><ele>309.5</ele><time>2026-04-10T15:34:49.001Z</time></trkpt><trkpt lat="43.5680805749022" lon="12.121747002260316"><ele>310.25</ele><time>2026-04-10T15:34:50.001Z</time></trkpt><trkpt lat="43.568176580971226" lon="12.121623773817287"><ele>311.0</ele><time>2026-04-10T15:34:51.001Z</time></trkpt><trkpt lat="43.56828419395517" lon="12.121485155090312"><ele>311.0</ele><time>2026-04-10T15:34:52.001Z</time></trkpt><trkpt lat="43.56839188452956" lon="12.121338771116674"><ele>311.0</ele><time>2026-04-10T15:34:53.001Z</time></trkpt><trkpt lat="43.56849418751821" lon="12.121193267948543"><ele>311.0</ele><time>2026-04-10T15:34:54.001Z</time></trkpt><trkpt lat="43.56859559129491" lon="12.121064455679852"><ele>311.0</ele><time>2026-04-10T15:34:55.001Z</time></trkpt><trkpt lat="43.56870493202294" lon="12.120960925430131"><ele>311.25</ele><time>2026-04-10T15:34:56.001Z</time></trkpt><trkpt lat="43.56882999758389" lon="12.120902715722618"><ele>311.5</ele><time>2026-04-10T15:34:57.001Z</time></trkpt><trkpt lat="43.568963393471236" lon="12.12088592018335"><ele>311.75</ele><time>2026-04-10T15:34:58.001Z</time></trkpt><trkpt lat="43.56909785840362" lon="12.120904838429174"><ele>312.0</ele><time>2026-04-10T15:34:59.001Z</time></trkpt><trkpt lat="43.56922357357745" lon="12.120975740465303"><ele>312.0</ele><time>2026-04-10T15:35:00.001Z</time></trkpt><trkpt lat="43.56933423206395" lon="12.121074068634423"><ele>312.0</ele><time>2026-04-10T15:35:01.001Z</time></trkpt><trkpt lat="43.56942057105889" lon="12.121192447751646"><ele>312.0</ele><time>2026-04-10T15:35:02.001Z</time></trkpt><trkpt lat="43.56948556173984" lon="12.121329263527931"><ele>312.0</ele><time>2026-04-10T15:35:03.001Z</time></trkpt><trkpt lat="43.56952686685887" lon="12.121490345395687"><ele>311.75</ele><time>2026-04-10T15:35:04.001Z</time></trkpt><trkpt lat="43.56954188635294" lon="12.121659019766703"><ele>311.5</ele><time>2026-04-10T15:35:05.001Z</time></trkpt><trkpt lat="43.56952535822863" lon="12.121829568090563"><ele>311.25</ele><time>2026-04-10T15:35:06.001Z</time></trkpt><trkpt lat="43.5694834537933" lon="12.12199663926512"><ele>311.0</ele><time>2026-04-10T15:35:07.001Z</time></trkpt><trkpt lat="43.56942103655458" lon="12.122150990342108"><ele>311.0</ele><time>2026-04-10T15:35:08.001Z</time></trkpt><trkpt lat="43.56932738077929" lon="12.122280439407662"><ele>311.0</ele><time>2026-04-10T15:35:09.001Z</time></trkpt><trkpt lat="43.56921166364966" lon="12.12237997880837"><ele>311.0</ele><time>2026-04-10T15:35:10.001Z</time></trkpt><trkpt lat="43.569070224768936" lon="12.122470171418112"><ele>311.0</ele><time>2026-04-10T15:35:11.001Z</time></trkpt><trkpt lat="43.568922507347295" lon="12.122574568806467"><ele>311.0</ele><time>2026-04-10T15:35:12.001Z</time></trkpt><trkpt lat="43.5687661517072" lon="12.122695018384391"><ele>311.0</ele><time>2026-04-10T15:35:13.001Z</time></trkpt><trkpt lat="43.568594372136424" lon="12.12282761365403"><ele>311.0</ele><time>2026-04-10T15:35:14.001Z</time></trkpt><trkpt lat="43.56841212711044" lon="12.122974271311492"><ele>311.0</ele><time>2026-04-10T15:35:15.001Z</time></trkpt><trkpt lat="43.56822720177717" lon="12.12313036672873"><ele>311.0</ele><time>2026-04-10T15:35:16.001Z</time></trkpt><trkpt lat="43.56804021864339" lon="12.12329156482949"><ele>311.0</ele><time>2026-04-10T15:35:17.001Z</time></trkpt><trkpt lat="43.567851190961186" lon="12.123456632732623"><ele>310.5</ele><time>2026-04-10T15:35:18.001Z</time></trkpt><trkpt lat="43.56766293483948" lon="12.123623050962596"><ele>310.0</ele><time>2026-04-10T15:35:19.001Z</time></trkpt><trkpt lat="43.56747175054127" lon="12.123791454214304"><ele>310.0</ele><time>2026-04-10T15:35:20.001Z</time></trkpt><trkpt lat="43.56727917988733" lon="12.12397151532433"><ele>310.0</ele><time>2026-04-10T15:35:21.001Z</time></trkpt><trkpt lat="43.567086219085645" lon="12.124158290762901"><ele>309.5</ele><time>2026-04-10T15:35:22.001Z</time></trkpt><trkpt lat="43.56689308402165" lon="12.12434663064878"><ele>309.0</ele><time>2026-04-10T15:35:23.001Z</time></trkpt><trkpt lat="43.566698326085834" lon="12.124537746560485"><ele>309.0</ele><time>2026-04-10T15:35:24.001Z</time></trkpt><trkpt lat="43.5665057451009" lon="12.124733619455565"><ele>309.0</ele><time>2026-04-10T15:35:25.001Z</time></trkpt><trkpt lat="43.5663127793574" lon="12.124933317533614"><ele>307.5</ele><time>2026-04-10T15:35:26.001Z</time></trkpt><trkpt lat="43.56612073937081" lon="12.125137690189815"><ele>306.0</ele><time>2026-04-10T15:35:27.001Z</time></trkpt><trkpt lat="43.56592949184315" lon="12.125350506991198"><ele>306.0</ele><time>2026-04-10T15:35:28.001Z</time></trkpt><trkpt lat="43.565739496408284" lon="12.125569061076394"><ele>306.0</ele><time>2026-04-10T15:35:29.001Z</time></trkpt><trkpt lat="43.565547696242795" lon="12.125794191485683"><ele>308.0</ele><time>2026-04-10T15:35:30.001Z</time></trkpt><trkpt lat="43.56535814974027" lon="12.126022206982691"><ele>310.0</ele><time>2026-04-10T15:35:31.001Z</time></trkpt><trkpt lat="43.565168466801545" lon="12.126255436068785"><ele>310.0</ele><time>2026-04-10T15:35:32.001Z</time></trkpt><trkpt lat="43.564980655522895" lon="12.126496123248723"><ele>310.0</ele><time>2026-04-10T15:35:33.001Z</time></trkpt><trkpt lat="43.564793830691876" lon="12.126745811260141"><ele>309.5</ele><time>2026-04-10T15:35:34.001Z</time></trkpt><trkpt lat="43.564607349834596" lon="12.126998746238447"><ele>309.0</ele><time>2026-04-10T15:35:35.001Z</time></trkpt><trkpt lat="43.56441950927573" lon="12.127256703194734"><ele>310.5</ele><time>2026-04-10T15:35:36.001Z</time></trkpt><trkpt lat="43.56423225708599" lon="12.127521264733675"><ele>312.0</ele><time>2026-04-10T15:35:37.001Z</time></trkpt><trkpt lat="43.56404394751447" lon="12.127787377290685"><ele>312.0</ele><time>2026-04-10T15:35:38.001Z</time></trkpt><trkpt lat="43.56385377208932" lon="12.128055888203207"><ele>312.0</ele><time>2026-04-10T15:35:39.001Z</time></trkpt><trkpt lat="43.56366126698027" lon="12.128322523902026"><ele>311.0</ele><time>2026-04-10T15:35:40.001Z</time></trkpt><trkpt lat="43.56347063319113" lon="12.128586905062448"><ele>310.0</ele><time>2026-04-10T15:35:41.001Z</time></trkpt><trkpt lat="43.56328105414216" lon="12.128851442847179"><ele>309.0</ele><time>2026-04-10T15:35:42.001Z</time></trkpt><trkpt lat="43.563092488931204" lon="12.129113264076079"><ele>308.0</ele><time>2026-04-10T15:35:42.999Z</time></trkpt><trkpt lat="43.56290563197157" lon="12.129374280691216"><ele>307.5</ele><time>2026-04-10T15:35:43.999Z</time></trkpt><trkpt lat="43.562721956325355" lon="12.129633865105777"><ele>307.0</ele><time>2026-04-10T15:35:44.999Z</time></trkpt><trkpt lat="43.562541245276755" lon="12.129891859181443"><ele>307.0</ele><time>2026-04-10T15:35:45.999Z</time></trkpt><trkpt lat="43.56235613358617" lon="12.13015163479656"><ele>307.0</ele><time>2026-04-10T15:35:46.999Z</time></trkpt><trkpt lat="43.56217016363647" lon="12.130413367364733"><ele>306.5</ele><time>2026-04-10T15:35:47.999Z</time></trkpt><trkpt lat="43.5619827605293" lon="12.130675904440853"><ele>306.0</ele><time>2026-04-10T15:35:48.999Z</time></trkpt><trkpt lat="43.561794477099426" lon="12.130940154471594"><ele>307.0</ele><time>2026-04-10T15:35:49.999Z</time></trkpt><trkpt lat="43.561605592793306" lon="12.13120675696446"><ele>308.0</ele><time>2026-04-10T15:35:50.999Z</time></trkpt><trkpt lat="43.561421750280495" lon="12.131469756837078"><ele>308.0</ele><time>2026-04-10T15:35:51.999Z</time></trkpt><trkpt lat="43.56123680618018" lon="12.131734083455607"><ele>308.0</ele><time>2026-04-10T15:35:52.999Z</time></trkpt><trkpt lat="43.561048252223756" lon="12.131998987178047"><ele>307.5</ele><time>2026-04-10T15:35:53.999Z</time></trkpt><trkpt lat="43.56085470489155" lon="12.132267614489193"><ele>307.0</ele><time>2026-04-10T15:35:54.999Z</time></trkpt><trkpt lat="43.56066298646735" lon="12.132536231474838"><ele>306.0</ele><time>2026-04-10T15:35:55.999Z</time></trkpt><trkpt lat="43.56046689323722" lon="12.132808777427352"><ele>305.0</ele><time>2026-04-10T15:35:56.999Z</time></trkpt><trkpt lat="43.56027095819928" lon="12.133078494664904"><ele>306.0</ele><time>2026-04-10T15:35:57.999Z</time></trkpt><trkpt lat="43.56007459346467" lon="12.133347354317207"><ele>307.0</ele><time>2026-04-10T15:35:58.999Z</time></trkpt><trkpt lat="43.559880412171616" lon="12.133619223768594"><ele>307.0</ele><time>2026-04-10T15:35:59.999Z</time></trkpt><trkpt lat="43.559689062063384" lon="12.133888611171708"><ele>307.0</ele><time>2026-04-10T15:36:00.999Z</time></trkpt><trkpt lat="43.559499158836616" lon="12.13415455469221"><ele>307.5</ele><time>2026-04-10T15:36:01.999Z</time></trkpt><trkpt lat="43.55931042084354" lon="12.134417209861025"><ele>308.0</ele><time>2026-04-10T15:36:02.999Z</time></trkpt><trkpt lat="43.559121978968" lon="12.134676529363293"><ele>307.5</ele><time>2026-04-10T15:36:03.999Z</time></trkpt><trkpt lat="43.55893543072508" lon="12.134933394445293"><ele>307.0</ele><time>2026-04-10T15:36:04.999Z</time></trkpt><trkpt lat="43.55874890048175" lon="12.135183318304044"><ele>307.0</ele><time>2026-04-10T15:36:05.999Z</time></trkpt><trkpt lat="43.55856549619074" lon="12.135428956238023"><ele>307.0</ele><time>2026-04-10T15:36:07Z</time></trkpt><trkpt lat="43.5583857401993" lon="12.13566993618455"><ele>308.0</ele><time>2026-04-10T15:36:08Z</time></trkpt><trkpt lat="43.55820884724059" lon="12.135907606832925"><ele>309.0</ele><time>2026-04-10T15:36:09Z</time></trkpt><trkpt lat="43.558035358473774" lon="12.136140246972063"><ele>309.0</ele><time>2026-04-10T15:36:10Z</time></trkpt><trkpt lat="43.55786277172864" lon="12.1363745196247"><ele>309.0</ele><time>2026-04-10T15:36:11Z</time></trkpt><trkpt lat="43.5576959198584" lon="12.136605022107862"><ele>309.0</ele><time>2026-04-10T15:36:12Z</time></trkpt><trkpt lat="43.55752967350174" lon="12.136833878842697"><ele>309.0</ele><time>2026-04-10T15:36:13Z</time></trkpt><trkpt lat="43.55736490680237" lon="12.137059137868198"><ele>309.0</ele><time>2026-04-10T15:36:14Z</time></trkpt><trkpt lat="43.55720067828908" lon="12.137286586445198"><ele>309.0</ele><time>2026-04-10T15:36:15Z</time></trkpt><trkpt lat="43.5570410047459" lon="12.137513650242472"><ele>308.0</ele><time>2026-04-10T15:36:16Z</time></trkpt><trkpt lat="43.55688415157575" lon="12.137742159206683"><ele>307.0</ele><time>2026-04-10T15:36:17Z</time></trkpt><trkpt lat="43.556727154204815" lon="12.137965795018008"><ele>307.0</ele><time>2026-04-10T15:36:18Z</time></trkpt><trkpt lat="43.556566640198895" lon="12.13818431910277"><ele>307.0</ele><time>2026-04-10T15:36:19Z</time></trkpt><trkpt lat="43.556407200380384" lon="12.13840317649226"><ele>307.5</ele><time>2026-04-10T15:36:20Z</time></trkpt><trkpt lat="43.55624659915649" lon="12.138625241201842"><ele>308.0</ele><time>2026-04-10T15:36:21Z</time></trkpt><trkpt lat="43.55608506299827" lon="12.138848607496016"><ele>309.0</ele><time>2026-04-10T15:36:22Z</time></trkpt><trkpt lat="43.5559223637607" lon="12.1390739311101"><ele>310.0</ele><time>2026-04-10T15:36:23Z</time></trkpt><trkpt lat="43.555758604300415" lon="12.139299511770428"><ele>310.0</ele><time>2026-04-10T15:36:24Z</time></trkpt><trkpt lat="43.555597671143886" lon="12.139527070735193"><ele>310.0</ele><time>2026-04-10T15:36:25Z</time></trkpt><trkpt lat="43.55543540839601" lon="12.13975577406014"><ele>308.5</ele><time>2026-04-10T15:36:26Z</time></trkpt><trkpt lat="43.55527206840623" lon="12.13998187843409"><ele>307.0</ele><time>2026-04-10T15:36:27Z</time></trkpt><trkpt lat="43.55510908498115" lon="12.140207349910638"><ele>307.0</ele><time>2026-04-10T15:36:28Z</time></trkpt><trkpt lat="43.55494766914758" lon="12.14043221001132"><ele>307.0</ele><time>2026-04-10T15:36:29Z</time></trkpt><trkpt lat="43.55478601964289" lon="12.140658077467165"><ele>307.5</ele><time>2026-04-10T15:36:30Z</time></trkpt><trkpt lat="43.55462549818341" lon="12.14088301929975"><ele>308.0</ele><time>2026-04-10T15:36:31Z</time></trkpt><trkpt lat="43.55446528462606" lon="12.141107820524818"><ele>308.5</ele><time>2026-04-10T15:36:32Z</time></trkpt><trkpt lat="43.55430243126159" lon="12.141331804994122"><ele>309.0</ele><time>2026-04-10T15:36:33Z</time></trkpt><trkpt lat="43.55414139295358" lon="12.141553712085393"><ele>309.5</ele><time>2026-04-10T15:36:34Z</time></trkpt><trkpt lat="43.55398139995175" lon="12.14177538808218"><ele>310.0</ele><time>2026-04-10T15:36:35Z</time></trkpt><trkpt lat="43.55382085680271" lon="12.14199735334363"><ele>309.0</ele><time>2026-04-10T15:36:36Z</time></trkpt><trkpt lat="43.55366080459263" lon="12.142221472048554"><ele>308.0</ele><time>2026-04-10T15:36:37Z</time></trkpt><trkpt lat="43.55349811521933" lon="12.1424487991446"><ele>308.0</ele><time>2026-04-10T15:36:38Z</time></trkpt><trkpt lat="43.55333145393162" lon="12.142679980406706"><ele>308.0</ele><time>2026-04-10T15:36:39Z</time></trkpt><trkpt lat="43.55316144225533" lon="12.14291406744786"><ele>308.0</ele><time>2026-04-10T15:36:40.001Z</time></trkpt><trkpt lat="43.552990538364554" lon="12.14315306876431"><ele>308.0</ele><time>2026-04-10T15:36:41.001Z</time></trkpt><trkpt lat="43.55281627039648" lon="12.143392657624766"><ele>308.0</ele><time>2026-04-10T15:36:42.001Z</time></trkpt><trkpt lat="43.55264090072472" lon="12.143636401110935"><ele>308.0</ele><time>2026-04-10T15:36:43.001Z</time></trkpt><trkpt lat="43.552464304160594" lon="12.143882186668812"><ele>308.0</ele><time>2026-04-10T15:36:44.001Z</time></trkpt><trkpt lat="43.55228511501172" lon="12.14412807104927"><ele>308.0</ele><time>2026-04-10T15:36:45.001Z</time></trkpt><trkpt lat="43.55210507082796" lon="12.144375569506822"><ele>307.0</ele><time>2026-04-10T15:36:46.001Z</time></trkpt><trkpt lat="43.55192455241667" lon="12.14462580574253"><ele>306.0</ele><time>2026-04-10T15:36:47.001Z</time></trkpt><trkpt lat="43.55174407295721" lon="12.144878286653833"><ele>307.0</ele><time>2026-04-10T15:36:48.001Z</time></trkpt><trkpt lat="43.55156199787207" lon="12.145132338862254"><ele>308.0</ele><time>2026-04-10T15:36:49.001Z</time></trkpt><trkpt lat="43.55138020128678" lon="12.145388234338258"><ele>307.5</ele><time>2026-04-10T15:36:50.001Z</time></trkpt><trkpt lat="43.5511960359235" lon="12.145644552143162"><ele>307.0</ele><time>2026-04-10T15:36:51.001Z</time></trkpt><trkpt lat="43.551010646937854" lon="12.145900106573"><ele>308.5</ele><time>2026-04-10T15:36:52.001Z</time></trkpt><trkpt lat="43.55082493899274" lon="12.146159115272852"><ele>310.0</ele><time>2026-04-10T15:36:53.001Z</time></trkpt><trkpt lat="43.550638799916996" lon="12.146414872372002"><ele>308.5</ele><time>2026-04-10T15:36:54.001Z</time></trkpt><trkpt lat="43.5504526275724" lon="12.146671762774169"><ele>307.0</ele><time>2026-04-10T15:36:55.001Z</time></trkpt><trkpt lat="43.55026784576556" lon="12.14692829741891"><ele>307.0</ele><time>2026-04-10T15:36:56.001Z</time></trkpt><trkpt lat="43.55008377967129" lon="12.147184259518895"><ele>307.0</ele><time>2026-04-10T15:36:57.001Z</time></trkpt><trkpt lat="43.5498996030727" lon="12.147439441870898"><ele>307.0</ele><time>2026-04-10T15:36:58.001Z</time></trkpt><trkpt lat="43.54971645983369" lon="12.147691937794594"><ele>307.0</ele><time>2026-04-10T15:36:59.001Z</time></trkpt><trkpt lat="43.54953602816536" lon="12.147945772795877"><ele>306.5</ele><time>2026-04-10T15:37:00.001Z</time></trkpt><trkpt lat="43.54935873927143" lon="12.148197067504357"><ele>306.0</ele><time>2026-04-10T15:37:01.001Z</time></trkpt><trkpt lat="43.54918264900515" lon="12.148440047791837"><ele>307.5</ele><time>2026-04-10T15:37:02.001Z</time></trkpt><trkpt lat="43.54900487770889" lon="12.14868189755153"><ele>309.0</ele><time>2026-04-10T15:37:03.001Z</time></trkpt><trkpt lat="43.5488217595003" lon="12.148920328249979"><ele>307.5</ele><time>2026-04-10T15:37:04.001Z</time></trkpt><trkpt lat="43.548637472646874" lon="12.149157889072042"><ele>306.0</ele><time>2026-04-10T15:37:05.001Z</time></trkpt><trkpt lat="43.54844848066641" lon="12.149391123113851"><ele>306.0</ele><time>2026-04-10T15:37:06.001Z</time></trkpt><trkpt lat="43.54825666038193" lon="12.149625356212429"><ele>306.0</ele><time>2026-04-10T15:37:07.001Z</time></trkpt><trkpt lat="43.548061637221174" lon="12.14984882975466"><ele>306.0</ele><time>2026-04-10T15:37:08.001Z</time></trkpt><trkpt lat="43.54786585371982" lon="12.150071892096792"><ele>306.0</ele><time>2026-04-10T15:37:09.001Z</time></trkpt><trkpt lat="43.54766789924464" lon="12.150289922420798"><ele>306.0</ele><time>2026-04-10T15:37:10.001Z</time></trkpt><trkpt lat="43.54746898731748" lon="12.150504246795899"><ele>306.0</ele><time>2026-04-10T15:37:11.001Z</time></trkpt><trkpt lat="43.547270367712954" lon="12.150717580877677"><ele>305.0</ele><time>2026-04-10T15:37:12.001Z</time></trkpt><trkpt lat="43.54706896383582" lon="12.150928412236599"><ele>304.0</ele><time>2026-04-10T15:37:13.001Z</time></trkpt><trkpt lat="43.546867104581686" lon="12.151138203800631"><ele>304.0</ele><time>2026-04-10T15:37:14.001Z</time></trkpt><trkpt lat="43.546662437748" lon="12.151345904666757"><ele>304.0</ele><time>2026-04-10T15:37:15.001Z</time></trkpt><trkpt lat="43.54645660431684" lon="12.151548963625197"><ele>304.0</ele><time>2026-04-10T15:37:16.001Z</time></trkpt><trkpt lat="43.546248325679365" lon="12.151748661246025"><ele>304.0</ele><time>2026-04-10T15:37:17.001Z</time></trkpt><trkpt lat="43.54603810128339" lon="12.151941804412512"><ele>304.0</ele><time>2026-04-10T15:37:18.001Z</time></trkpt><trkpt lat="43.5458309273034" lon="12.152139960541115"><ele>304.0</ele><time>2026-04-10T15:37:19.001Z</time></trkpt><trkpt lat="43.54562514360705" lon="12.15234103385964"><ele>303.5</ele><time>2026-04-10T15:37:20.001Z</time></trkpt><trkpt lat="43.54541726096386" lon="12.1525398158579"><ele>303.0</ele><time>2026-04-10T15:37:21.002Z</time></trkpt><trkpt lat="43.5452105952244" lon="12.152741677107592"><ele>302.5</ele><time>2026-04-10T15:37:22.002Z</time></trkpt><trkpt lat="43.54500357920749" lon="12.152944437581088"><ele>302.0</ele><time>2026-04-10T15:37:23.002Z</time></trkpt><trkpt lat="43.54479490983421" lon="12.153142634744263"><ele>302.0</ele><time>2026-04-10T15:37:24.002Z</time></trkpt><trkpt lat="43.54458547710635" lon="12.153341528509827"><ele>302.0</ele><time>2026-04-10T15:37:25.002Z</time></trkpt><trkpt lat="43.54437612254574" lon="12.153538376374376"><ele>302.0</ele><time>2026-04-10T15:37:26.002Z</time></trkpt><trkpt lat="43.54416661332795" lon="12.153735147983463"><ele>302.0</ele><time>2026-04-10T15:37:27.002Z</time></trkpt><trkpt lat="43.54395987956827" lon="12.153934841674928"><ele>302.0</ele><time>2026-04-10T15:37:28.002Z</time></trkpt><trkpt lat="43.54375319051273" lon="12.154137012707674"><ele>302.0</ele><time>2026-04-10T15:37:29.002Z</time></trkpt><trkpt lat="43.54354681196356" lon="12.154338214363406"><ele>302.0</ele><time>2026-04-10T15:37:30.002Z</time></trkpt><trkpt lat="43.54333922768387" lon="12.154539719714915"><ele>302.0</ele><time>2026-04-10T15:37:31.002Z</time></trkpt><trkpt lat="43.54312939105445" lon="12.154738413154474"><ele>302.0</ele><time>2026-04-10T15:37:32.002Z</time></trkpt><trkpt lat="43.54292168092344" lon="12.154938174126837"><ele>302.0</ele><time>2026-04-10T15:37:33.002Z</time></trkpt><trkpt lat="43.54271402877208" lon="12.155137694548209"><ele>302.0</ele><time>2026-04-10T15:37:34.002Z</time></trkpt><trkpt lat="43.542506158078545" lon="12.15533654997713"><ele>302.0</ele><time>2026-04-10T15:37:35.002Z</time></trkpt><trkpt lat="43.5422972807713" lon="12.155532867538149"><ele>302.0</ele><time>2026-04-10T15:37:36.002Z</time></trkpt><trkpt lat="43.542088797925835" lon="12.155731124224022"><ele>302.0</ele><time>2026-04-10T15:37:37.002Z</time></trkpt><trkpt lat="43.541881808137305" lon="12.155929548474594"><ele>301.5</ele><time>2026-04-10T15:37:38.002Z</time></trkpt><trkpt lat="43.54167422140487" lon="12.156128395285961"><ele>301.0</ele><time>2026-04-10T15:37:39.002Z</time></trkpt><trkpt lat="43.54146732622191" lon="12.156327845164864"><ele>301.0</ele><time>2026-04-10T15:37:40.002Z</time></trkpt><trkpt lat="43.54125903947057" lon="12.156526816107917"><ele>301.0</ele><time>2026-04-10T15:37:41.002Z</time></trkpt><trkpt lat="43.54105201580134" lon="12.156724507440474"><ele>302.0</ele><time>2026-04-10T15:37:42.002Z</time></trkpt><trkpt lat="43.54084484356937" lon="12.156924538626555"><ele>303.0</ele><time>2026-04-10T15:37:43.002Z</time></trkpt><trkpt lat="43.540636783450495" lon="12.1571248111654"><ele>303.0</ele><time>2026-04-10T15:37:44.002Z</time></trkpt><trkpt lat="43.54042911967973" lon="12.157325144347443"><ele>303.0</ele><time>2026-04-10T15:37:45.002Z</time></trkpt><trkpt lat="43.54022122298082" lon="12.157525866650985"><ele>301.5</ele><time>2026-04-10T15:37:46.002Z</time></trkpt><trkpt lat="43.54001251200265" lon="12.157725644254274"><ele>300.0</ele><time>2026-04-10T15:37:47.002Z</time></trkpt><trkpt lat="43.53980390208876" lon="12.1579226034263"><ele>300.0</ele><time>2026-04-10T15:37:48.002Z</time></trkpt><trkpt lat="43.53959596171206" lon="12.158120864290352"><ele>300.0</ele><time>2026-04-10T15:37:49Z</time></trkpt><trkpt lat="43.53938919304852" lon="12.158320592417756"><ele>298.5</ele><time>2026-04-10T15:37:50Z</time></trkpt><trkpt lat="43.539182941286576" lon="12.158522090443018"><ele>297.0</ele><time>2026-04-10T15:37:51Z</time></trkpt><trkpt lat="43.53897572324221" lon="12.158722078843056"><ele>297.0</ele><time>2026-04-10T15:37:52Z</time></trkpt><trkpt lat="43.53876755681998" lon="12.158919242731764"><ele>297.0</ele><time>2026-04-10T15:37:53Z</time></trkpt><trkpt lat="43.53856209045886" lon="12.159120740487007"><ele>297.0</ele><time>2026-04-10T15:37:54Z</time></trkpt><trkpt lat="43.53835706854177" lon="12.159325068313548"><ele>297.0</ele><time>2026-04-10T15:37:55Z</time></trkpt><trkpt lat="43.538153028283766" lon="12.159532787690067"><ele>297.0</ele><time>2026-04-10T15:37:56Z</time></trkpt><trkpt lat="43.5379461994765" lon="12.159736990043665"><ele>297.0</ele><time>2026-04-10T15:37:57Z</time></trkpt><trkpt lat="43.53774082505598" lon="12.159939975576783"><ele>297.5</ele><time>2026-04-10T15:37:58Z</time></trkpt><trkpt lat="43.53753591682285" lon="12.160144670540749"><ele>298.0</ele><time>2026-04-10T15:37:59Z</time></trkpt><trkpt lat="43.53733099807747" lon="12.160353917475978"><ele>298.0</ele><time>2026-04-10T15:38:00Z</time></trkpt><trkpt lat="43.537129084680025" lon="12.160563273929386"><ele>298.0</ele><time>2026-04-10T15:38:01Z</time></trkpt><trkpt lat="43.53692956319624" lon="12.160773513232984"><ele>297.5</ele><time>2026-04-10T15:38:02Z</time></trkpt><trkpt lat="43.53672998390473" lon="12.160986567630133"><ele>297.0</ele><time>2026-04-10T15:38:03Z</time></trkpt><trkpt lat="43.536530484549495" lon="12.16120086486984"><ele>297.0</ele><time>2026-04-10T15:38:04Z</time></trkpt><trkpt lat="43.536330928986786" lon="12.161414424656966"><ele>297.0</ele><time>2026-04-10T15:38:05Z</time></trkpt><trkpt lat="43.536130276766805" lon="12.16162776768833"><ele>296.5</ele><time>2026-04-10T15:38:06Z</time></trkpt><trkpt lat="43.53592749296273" lon="12.161838080500116"><ele>296.0</ele><time>2026-04-10T15:38:07Z</time></trkpt><trkpt lat="43.53572452591762" lon="12.16204859492366"><ele>296.0</ele><time>2026-04-10T15:38:08Z</time></trkpt><trkpt lat="43.53552444222081" lon="12.162262173313877"><ele>296.0</ele><time>2026-04-10T15:38:09Z</time></trkpt><trkpt lat="43.53532486653618" lon="12.162475875129758"><ele>297.0</ele><time>2026-04-10T15:38:10Z</time></trkpt><trkpt lat="43.535125391521554" lon="12.16269105832369"><ele>298.0</ele><time>2026-04-10T15:38:11Z</time></trkpt><trkpt lat="43.534927416830705" lon="12.162906119012362"><ele>298.0</ele><time>2026-04-10T15:38:12Z</time></trkpt><trkpt lat="43.53472871539239" lon="12.16312139012358"><ele>298.0</ele><time>2026-04-10T15:38:13Z</time></trkpt><trkpt lat="43.53452987540419" lon="12.16333772111666"><ele>296.5</ele><time>2026-04-10T15:38:14Z</time></trkpt><trkpt lat="43.53432910840259" lon="12.163554160137698"><ele>295.0</ele><time>2026-04-10T15:38:15Z</time></trkpt><trkpt lat="43.53412890070026" lon="12.163769392749176"><ele>295.0</ele><time>2026-04-10T15:38:16Z</time></trkpt><trkpt lat="43.533928405870974" lon="12.163984156898454"><ele>295.0</ele><time>2026-04-10T15:38:17Z</time></trkpt><trkpt lat="43.53373020292928" lon="12.164196763909215"><ele>294.5</ele><time>2026-04-10T15:38:18Z</time></trkpt><trkpt lat="43.53353189657782" lon="12.164412582408431"><ele>294.0</ele><time>2026-04-10T15:38:19Z</time></trkpt><trkpt lat="43.53333330288669" lon="12.164632311613335"><ele>294.0</ele><time>2026-04-10T15:38:20Z</time></trkpt><trkpt lat="43.53313598675746" lon="12.164851577573794"><ele>294.0</ele><time>2026-04-10T15:38:21Z</time></trkpt><trkpt lat="43.53293846086155" lon="12.165069407442212"><ele>294.0</ele><time>2026-04-10T15:38:22Z</time></trkpt><trkpt lat="43.53274113562025" lon="12.16528523232625"><ele>294.0</ele><time>2026-04-10T15:38:23Z</time></trkpt><trkpt lat="43.532543177481806" lon="12.16549799243593"><ele>295.5</ele><time>2026-04-10T15:38:24Z</time></trkpt><trkpt lat="43.53234433342298" lon="12.16570950189338"><ele>297.0</ele><time>2026-04-10T15:38:25Z</time></trkpt><trkpt lat="43.53214681122441" lon="12.165923268837496"><ele>296.0</ele><time>2026-04-10T15:38:26Z</time></trkpt><trkpt lat="43.53194864206792" lon="12.166137688621228"><ele>295.0</ele><time>2026-04-10T15:38:27Z</time></trkpt><trkpt lat="43.53174884333513" lon="12.166356184048261"><ele>295.0</ele><time>2026-04-10T15:38:28Z</time></trkpt><trkpt lat="43.53155210439629" lon="12.166574159417111"><ele>295.0</ele><time>2026-04-10T15:38:29Z</time></trkpt><trkpt lat="43.53135158488906" lon="12.166790545550874"><ele>294.5</ele><time>2026-04-10T15:38:30.001Z</time></trkpt><trkpt lat="43.53115227160698" lon="12.167008068323941"><ele>294.0</ele><time>2026-04-10T15:38:31.001Z</time></trkpt><trkpt lat="43.53095370602173" lon="12.167222476928938"><ele>295.0</ele><time>2026-04-10T15:38:32.001Z</time></trkpt><trkpt lat="43.53075500645215" lon="12.167436689705484"><ele>296.0</ele><time>2026-04-10T15:38:33.001Z</time></trkpt><trkpt lat="43.53055642784038" lon="12.167651797997081"><ele>296.5</ele><time>2026-04-10T15:38:34.001Z</time></trkpt><trkpt lat="43.530356199162725" lon="12.167867202509425"><ele>297.0</ele><time>2026-04-10T15:38:35.001Z</time></trkpt><trkpt lat="43.530157493316395" lon="12.168083552729469"><ele>297.0</ele><time>2026-04-10T15:38:36.001Z</time></trkpt><trkpt lat="43.529958998464984" lon="12.168299985179754"><ele>297.0</ele><time>2026-04-10T15:38:37.001Z</time></trkpt><trkpt lat="43.52975904791669" lon="12.168515093382624"><ele>296.0</ele><time>2026-04-10T15:38:38.001Z</time></trkpt><trkpt lat="43.52955703967698" lon="12.168727661878492"><ele>295.0</ele><time>2026-04-10T15:38:39.001Z</time></trkpt><trkpt lat="43.52935568612164" lon="12.168941072289769"><ele>295.0</ele><time>2026-04-10T15:38:40.001Z</time></trkpt><trkpt lat="43.52915685706256" lon="12.169155550691213"><ele>295.0</ele><time>2026-04-10T15:38:41.001Z</time></trkpt><trkpt lat="43.52895926297277" lon="12.169371943165462"><ele>295.0</ele><time>2026-04-10T15:38:42.001Z</time></trkpt><trkpt lat="43.5287610021232" lon="12.169589235166244"><ele>295.0</ele><time>2026-04-10T15:38:43.001Z</time></trkpt><trkpt lat="43.528561666208695" lon="12.16980663924846"><ele>293.5</ele><time>2026-04-10T15:38:44.001Z</time></trkpt><trkpt lat="43.52836341744866" lon="12.170023556668303"><ele>292.0</ele><time>2026-04-10T15:38:45.001Z</time></trkpt><trkpt lat="43.52816480330774" lon="12.170239423215916"><ele>292.0</ele><time>2026-04-10T15:38:46.001Z</time></trkpt><trkpt lat="43.52796546494202" lon="12.170455615636254"><ele>292.0</ele><time>2026-04-10T15:38:47.001Z</time></trkpt><trkpt lat="43.52776362060959" lon="12.1706721705503"><ele>292.0</ele><time>2026-04-10T15:38:48.001Z</time></trkpt><trkpt lat="43.52756503118966" lon="12.170888593984348"><ele>292.0</ele><time>2026-04-10T15:38:49.001Z</time></trkpt><trkpt lat="43.527366213609056" lon="12.171103496999695"><ele>292.0</ele><time>2026-04-10T15:38:50.001Z</time></trkpt><trkpt lat="43.527167497208296" lon="12.171319967287534"><ele>292.0</ele><time>2026-04-10T15:38:51.001Z</time></trkpt><trkpt lat="43.526967939790616" lon="12.171535750609783"><ele>292.5</ele><time>2026-04-10T15:38:52.001Z</time></trkpt><trkpt lat="43.52676885863884" lon="12.171750101465111"><ele>293.0</ele><time>2026-04-10T15:38:53.001Z</time></trkpt><trkpt lat="43.52656969689057" lon="12.171966158690116"><ele>293.0</ele><time>2026-04-10T15:38:54.001Z</time></trkpt><trkpt lat="43.52637044426984" lon="12.172181059199076"><ele>293.0</ele><time>2026-04-10T15:38:55.001Z</time></trkpt><trkpt lat="43.52617046214293" lon="12.172392759395008"><ele>292.0</ele><time>2026-04-10T15:38:56.001Z</time></trkpt><trkpt lat="43.52596869781083" lon="12.172603734569197"><ele>291.0</ele><time>2026-04-10T15:38:57.001Z</time></trkpt><trkpt lat="43.52576467017428" lon="12.172812423073003"><ele>291.0</ele><time>2026-04-10T15:38:58.001Z</time></trkpt><trkpt lat="43.52556034084696" lon="12.173020573257592"><ele>291.0</ele><time>2026-04-10T15:38:59.001Z</time></trkpt><trkpt lat="43.52535487760007" lon="12.173221967257003"><ele>291.5</ele><time>2026-04-10T15:39:00.001Z</time></trkpt><trkpt lat="43.525149025628565" lon="12.17342200700267"><ele>292.0</ele><time>2026-04-10T15:39:01.001Z</time></trkpt><trkpt lat="43.52494053241531" lon="12.173620146212892"><ele>292.0</ele><time>2026-04-10T15:39:02.001Z</time></trkpt><trkpt lat="43.52473310490263" lon="12.17381854808702"><ele>292.0</ele><time>2026-04-10T15:39:03.001Z</time></trkpt><trkpt lat="43.5245241833362" lon="12.174016940533736"><ele>292.0</ele><time>2026-04-10T15:39:04.001Z</time></trkpt><trkpt lat="43.52431446603367" lon="12.174213096967861"><ele>292.0</ele><time>2026-04-10T15:39:05.001Z</time></trkpt><trkpt lat="43.52410394662416" lon="12.174407924845195"><ele>292.0</ele><time>2026-04-10T15:39:06.001Z</time></trkpt><trkpt lat="43.52389253919817" lon="12.17460325667693"><ele>292.0</ele><time>2026-04-10T15:39:07.001Z</time></trkpt><trkpt lat="43.52368326218555" lon="12.174799696039244"><ele>292.5</ele><time>2026-04-10T15:39:08.001Z</time></trkpt><trkpt lat="43.52347341007277" lon="12.174997385998886"><ele>293.0</ele><time>2026-04-10T15:39:09.001Z</time></trkpt><trkpt lat="43.52326503120751" lon="12.17519718117185"><ele>293.0</ele><time>2026-04-10T15:39:10.002Z</time></trkpt><trkpt lat="43.523055044046814" lon="12.175393294065389"><ele>293.0</ele><time>2026-04-10T15:39:11.002Z</time></trkpt><trkpt lat="43.52284483127266" lon="12.175586606601165"><ele>293.0</ele><time>2026-04-10T15:39:12.002Z</time></trkpt><trkpt lat="43.5226355794952" lon="12.175782059716083"><ele>293.0</ele><time>2026-04-10T15:39:13.002Z</time></trkpt><trkpt lat="43.522427512040096" lon="12.175980332870264"><ele>293.0</ele><time>2026-04-10T15:39:14.002Z</time></trkpt><trkpt lat="43.52221883361876" lon="12.176178322498899"><ele>293.0</ele><time>2026-04-10T15:39:15.002Z</time></trkpt><trkpt lat="43.522012199770195" lon="12.176375776588596"><ele>292.0</ele><time>2026-04-10T15:39:16.002Z</time></trkpt><trkpt lat="43.52180261540547" lon="12.176572363447852"><ele>291.0</ele><time>2026-04-10T15:39:17.002Z</time></trkpt><trkpt lat="43.52159318709839" lon="12.176768540734544"><ele>291.0</ele><time>2026-04-10T15:39:18.002Z</time></trkpt><trkpt lat="43.52138299432761" lon="12.176964474606885"><ele>291.0</ele><time>2026-04-10T15:39:19.002Z</time></trkpt><trkpt lat="43.521173383141914" lon="12.177159514893074"><ele>291.5</ele><time>2026-04-10T15:39:20.002Z</time></trkpt><trkpt lat="43.52096486110038" lon="12.177357158716068"><ele>292.0</ele><time>2026-04-10T15:39:21.002Z</time></trkpt><trkpt lat="43.52075760443904" lon="12.17755617236243"><ele>292.0</ele><time>2026-04-10T15:39:22.002Z</time></trkpt><trkpt lat="43.52054819947954" lon="12.177752490546004"><ele>292.0</ele><time>2026-04-10T15:39:23.002Z</time></trkpt><trkpt lat="43.52033893309463" lon="12.177948540131258"><ele>291.5</ele><time>2026-04-10T15:39:24.002Z</time></trkpt><trkpt lat="43.52013082503452" lon="12.17814583192067"><ele>291.0</ele><time>2026-04-10T15:39:25.002Z</time></trkpt><trkpt lat="43.51992314395918" lon="12.178343488627966"><ele>291.0</ele><time>2026-04-10T15:39:26.002Z</time></trkpt><trkpt lat="43.519715045124975" lon="12.178539883385879"><ele>291.0</ele><time>2026-04-10T15:39:27.002Z</time></trkpt><trkpt lat="43.51950648596247" lon="12.17873672840056"><ele>291.0</ele><time>2026-04-10T15:39:28.002Z</time></trkpt><trkpt lat="43.51929845530747" lon="12.178932725287197"><ele>291.0</ele><time>2026-04-10T15:39:29.002Z</time></trkpt><trkpt lat="43.51909013591165" lon="12.179132484241002"><ele>291.0</ele><time>2026-04-10T15:39:30.002Z</time></trkpt><trkpt lat="43.51888123357334" lon="12.179329845812935"><ele>291.0</ele><time>2026-04-10T15:39:31.002Z</time></trkpt><trkpt lat="43.518670521456116" lon="12.1795250066834"><ele>291.0</ele><time>2026-04-10T15:39:32.002Z</time></trkpt><trkpt lat="43.51846058018667" lon="12.179721356166889"><ele>291.0</ele><time>2026-04-10T15:39:33.002Z</time></trkpt><trkpt lat="43.51825203840553" lon="12.179917400964491"><ele>291.5</ele><time>2026-04-10T15:39:34.002Z</time></trkpt><trkpt lat="43.51804568256084" lon="12.180117255560615"><ele>292.0</ele><time>2026-04-10T15:39:35.002Z</time></trkpt><trkpt lat="43.517835067830795" lon="12.180309775763122"><ele>293.0</ele><time>2026-04-10T15:39:36.002Z</time></trkpt><trkpt lat="43.51762609523754" lon="12.180505360979023"><ele>294.0</ele><time>2026-04-10T15:39:37.002Z</time></trkpt><trkpt lat="43.517417187491354" lon="12.18070229077894"><ele>294.0</ele><time>2026-04-10T15:39:38.002Z</time></trkpt><trkpt lat="43.5172074638389" lon="12.180896531244834"><ele>294.0</ele><time>2026-04-10T15:39:39.002Z</time></trkpt><trkpt lat="43.516996953577056" lon="12.18109200687621"><ele>293.0</ele><time>2026-04-10T15:39:40.002Z</time></trkpt><trkpt lat="43.51678828108459" lon="12.181289186221267"><ele>292.0</ele><time>2026-04-10T15:39:41.002Z</time></trkpt><trkpt lat="43.51658015561679" lon="12.181485897188034"><ele>292.0</ele><time>2026-04-10T15:39:42.002Z</time></trkpt><trkpt lat="43.51636928876808" lon="12.181683826528769"><ele>292.0</ele><time>2026-04-10T15:39:43.002Z</time></trkpt><trkpt lat="43.51616026564141" lon="12.181881244666018"><ele>292.0</ele><time>2026-04-10T15:39:44.002Z</time></trkpt><trkpt lat="43.51595125244124" lon="12.1820790628697"><ele>292.0</ele><time>2026-04-10T15:39:45.002Z</time></trkpt><trkpt lat="43.515743573261595" lon="12.182273442136523"><ele>292.5</ele><time>2026-04-10T15:39:46.002Z</time></trkpt><trkpt lat="43.51553531565586" lon="12.182470642967246"><ele>293.0</ele><time>2026-04-10T15:39:47.002Z</time></trkpt><trkpt lat="43.515325361906" lon="12.182665407566542"><ele>293.0</ele><time>2026-04-10T15:39:48.002Z</time></trkpt><trkpt lat="43.51511790689491" lon="12.182864823572434"><ele>293.0</ele><time>2026-04-10T15:39:49.002Z</time></trkpt><trkpt lat="43.51490846569638" lon="12.183062148690501"><ele>294.0</ele><time>2026-04-10T15:39:50.002Z</time></trkpt><trkpt lat="43.514700015913924" lon="12.183263557887614"><ele>295.0</ele><time>2026-04-10T15:39:51.002Z</time></trkpt><trkpt lat="43.51449430395923" lon="12.183466699118746"><ele>295.0</ele><time>2026-04-10T15:39:52.003Z</time></trkpt><trkpt lat="43.514283516205865" lon="12.183663525673552"><ele>295.0</ele><time>2026-04-10T15:39:53.003Z</time></trkpt><trkpt lat="43.51407432903417" lon="12.18385965980667"><ele>295.5</ele><time>2026-04-10T15:39:54.003Z</time></trkpt><trkpt lat="43.51386728276903" lon="12.184052381994013"><ele>296.0</ele><time>2026-04-10T15:39:55Z</time></trkpt><trkpt lat="43.513658504093044" lon="12.184249512830622"><ele>296.0</ele><time>2026-04-10T15:39:56Z</time></trkpt><trkpt lat="43.51344726034448" lon="12.184444927825695"><ele>296.0</ele><time>2026-04-10T15:39:57Z</time></trkpt><trkpt lat="43.51323418153709" lon="12.184636042754228"><ele>296.0</ele><time>2026-04-10T15:39:58Z</time></trkpt><trkpt lat="43.51301864917509" lon="12.184820899800489"><ele>296.0</ele><time>2026-04-10T15:39:59Z</time></trkpt><trkpt lat="43.51279968933973" lon="12.185000766462855"><ele>295.5</ele><time>2026-04-10T15:40:00Z</time></trkpt><trkpt lat="43.51258072198411" lon="12.185180581925717"><ele>295.0</ele><time>2026-04-10T15:40:01Z</time></trkpt><trkpt lat="43.51236670942511" lon="12.185366786281184"><ele>295.0</ele><time>2026-04-10T15:40:02Z</time></trkpt><trkpt lat="43.51215566776422" lon="12.185556322348718"><ele>295.0</ele><time>2026-04-10T15:40:03Z</time></trkpt><trkpt lat="43.51194985073367" lon="12.185750754862084"><ele>295.0</ele><time>2026-04-10T15:40:04Z</time></trkpt><trkpt lat="43.511737382298314" lon="12.185933517292423"><ele>295.0</ele><time>2026-04-10T15:40:05Z</time></trkpt><trkpt lat="43.51152482862662" lon="12.186116830009741"><ele>295.0</ele><time>2026-04-10T15:40:06Z</time></trkpt><trkpt lat="43.51130993007722" lon="12.186298688549007"><ele>295.0</ele><time>2026-04-10T15:40:07Z</time></trkpt><trkpt lat="43.5110999317585" lon="12.186483380062914"><ele>293.5</ele><time>2026-04-10T15:40:08Z</time></trkpt><trkpt lat="43.510891401812174" lon="12.186662859366828"><ele>292.0</ele><time>2026-04-10T15:40:09Z</time></trkpt><trkpt lat="43.51068442812326" lon="12.186841123316798"><ele>292.0</ele><time>2026-04-10T15:40:10Z</time></trkpt><trkpt lat="43.510477409835644" lon="12.18701754886368"><ele>292.0</ele><time>2026-04-10T15:40:11Z</time></trkpt><trkpt lat="43.51027167310253" lon="12.187198360049495"><ele>294.0</ele><time>2026-04-10T15:40:12Z</time></trkpt><trkpt lat="43.51006810097883" lon="12.18738857702684"><ele>296.0</ele><time>2026-04-10T15:40:13Z</time></trkpt><trkpt lat="43.509857890914525" lon="12.187567963077708"><ele>296.0</ele><time>2026-04-10T15:40:14Z</time></trkpt><trkpt lat="43.50965086412761" lon="12.187753253462544"><ele>296.0</ele><time>2026-04-10T15:40:15Z</time></trkpt><trkpt lat="43.50944270684036" lon="12.187935318591066"><ele>295.0</ele><time>2026-04-10T15:40:16Z</time></trkpt><trkpt lat="43.50923428257122" lon="12.188115557140588"><ele>294.0</ele><time>2026-04-10T15:40:17Z</time></trkpt><trkpt lat="43.50902688374055" lon="12.188297016704066"><ele>294.0</ele><time>2026-04-10T15:40:18Z</time></trkpt><trkpt lat="43.508819074605206" lon="12.188478853518541"><ele>294.0</ele><time>2026-04-10T15:40:19Z</time></trkpt><trkpt lat="43.508612637922404" lon="12.18866128260798"><ele>294.0</ele><time>2026-04-10T15:40:20Z</time></trkpt><trkpt lat="43.50840373200092" lon="12.188840540802277"><ele>294.0</ele><time>2026-04-10T15:40:21Z</time></trkpt><trkpt lat="43.50819526065347" lon="12.18901831178254"><ele>294.0</ele><time>2026-04-10T15:40:22Z</time></trkpt><trkpt lat="43.507986090469316" lon="12.189197450204949"><ele>294.0</ele><time>2026-04-10T15:40:23Z</time></trkpt><trkpt lat="43.507778013605325" lon="12.189377981786157"><ele>294.0</ele><time>2026-04-10T15:40:24Z</time></trkpt><trkpt lat="43.50757048725926" lon="12.189558571790506"><ele>294.0</ele><time>2026-04-10T15:40:25Z</time></trkpt><trkpt lat="43.507362189308196" lon="12.189740255462112"><ele>294.0</ele><time>2026-04-10T15:40:26Z</time></trkpt><trkpt lat="43.507152710134385" lon="12.18992110535024"><ele>294.0</ele><time>2026-04-10T15:40:27Z</time></trkpt><trkpt lat="43.50694369612991" lon="12.190103448423244"><ele>294.0</ele><time>2026-04-10T15:40:28.001Z</time></trkpt><trkpt lat="43.50673509099757" lon="12.190283608837516"><ele>294.0</ele><time>2026-04-10T15:40:29.001Z</time></trkpt><trkpt lat="43.50652564506877" lon="12.190462335606416"><ele>294.0</ele><time>2026-04-10T15:40:30.001Z</time></trkpt><trkpt lat="43.50631752583259" lon="12.190644555715894"><ele>294.0</ele><time>2026-04-10T15:40:31.001Z</time></trkpt><trkpt lat="43.50610886448569" lon="12.190824162285626"><ele>295.0</ele><time>2026-04-10T15:40:32.001Z</time></trkpt><trkpt lat="43.50590029268797" lon="12.191002039689954"><ele>296.0</ele><time>2026-04-10T15:40:33.001Z</time></trkpt><trkpt lat="43.50569153962878" lon="12.191181582617041"><ele>296.0</ele><time>2026-04-10T15:40:34.001Z</time></trkpt><trkpt lat="43.505483105315726" lon="12.19136155022266"><ele>296.0</ele><time>2026-04-10T15:40:35.001Z</time></trkpt><trkpt lat="43.50527432113891" lon="12.191542196648326"><ele>295.5</ele><time>2026-04-10T15:40:36.001Z</time></trkpt><trkpt lat="43.505065297839764" lon="12.191724480053189"><ele>295.0</ele><time>2026-04-10T15:40:37.001Z</time></trkpt><trkpt lat="43.5048567461137" lon="12.191903180482612"><ele>295.0</ele><time>2026-04-10T15:40:38.001Z</time></trkpt><trkpt lat="43.50464743762314" lon="12.192081695002194"><ele>295.0</ele><time>2026-04-10T15:40:39.001Z</time></trkpt><trkpt lat="43.50443956993188" lon="12.192260231820551"><ele>294.5</ele><time>2026-04-10T15:40:40.001Z</time></trkpt><trkpt lat="43.50423110186422" lon="12.192441410774615"><ele>294.0</ele><time>2026-04-10T15:40:41.001Z</time></trkpt><trkpt lat="43.50402216840718" lon="12.19262255864817"><ele>294.0</ele><time>2026-04-10T15:40:42.001Z</time></trkpt><trkpt lat="43.50381198402015" lon="12.192803160016517"><ele>294.0</ele><time>2026-04-10T15:40:43.001Z</time></trkpt><trkpt lat="43.50360430253042" lon="12.192983882135984"><ele>294.0</ele><time>2026-04-10T15:40:44.001Z</time></trkpt><trkpt lat="43.50339259056732" lon="12.193159289408062"><ele>294.0</ele><time>2026-04-10T15:40:45.001Z</time></trkpt><trkpt lat="43.503179673894145" lon="12.193331556400707"><ele>294.0</ele><time>2026-04-10T15:40:46.001Z</time></trkpt><trkpt lat="43.50296766327681" lon="12.193505066029116"><ele>294.0</ele><time>2026-04-10T15:40:47.001Z</time></trkpt><trkpt lat="43.502759181881814" lon="12.1936850445316"><ele>293.5</ele><time>2026-04-10T15:40:48.001Z</time></trkpt><trkpt lat="43.50255056971593" lon="12.193867246279856"><ele>293.0</ele><time>2026-04-10T15:40:49.001Z</time></trkpt><trkpt lat="43.50234280764118" lon="12.19405316139935"><ele>293.5</ele><time>2026-04-10T15:40:50.001Z</time></trkpt><trkpt lat="43.50213596558155" lon="12.194241317286064"><ele>294.0</ele><time>2026-04-10T15:40:51.001Z</time></trkpt><trkpt lat="43.50193309634298" lon="12.194431793780847"><ele>294.0</ele><time>2026-04-10T15:40:52.001Z</time></trkpt><trkpt lat="43.501729771026575" lon="12.194622806313678"><ele>294.0</ele><time>2026-04-10T15:40:53.001Z</time></trkpt><trkpt lat="43.501525147529414" lon="12.194814507319373"><ele>293.5</ele><time>2026-04-10T15:40:54.001Z</time></trkpt><trkpt lat="43.501321910761405" lon="12.195008442263793"><ele>293.0</ele><time>2026-04-10T15:40:55.001Z</time></trkpt><trkpt lat="43.50112248903431" lon="12.195207554055598"><ele>292.5</ele><time>2026-04-10T15:40:56.001Z</time></trkpt><trkpt lat="43.50092616348903" lon="12.195408837129989"><ele>292.0</ele><time>2026-04-10T15:40:57.001Z</time></trkpt><trkpt lat="43.50072946657017" lon="12.19561180992957"><ele>292.0</ele><time>2026-04-10T15:40:58.001Z</time></trkpt><trkpt lat="43.50053310105619" lon="12.195817062511175"><ele>292.0</ele><time>2026-04-10T15:40:59.001Z</time></trkpt><trkpt lat="43.50033616668337" lon="12.196023215201679"><ele>292.0</ele><time>2026-04-10T15:41:00.001Z</time></trkpt><trkpt lat="43.50013960787162" lon="12.19623090013145"><ele>292.0</ele><time>2026-04-10T15:41:01.001Z</time></trkpt><trkpt lat="43.499942801885176" lon="12.196438103646878"><ele>292.0</ele><time>2026-04-10T15:41:02.001Z</time></trkpt><trkpt lat="43.49974930840485" lon="12.196644936022336"><ele>292.0</ele><time>2026-04-10T15:41:03.001Z</time></trkpt><trkpt lat="43.49955608197759" lon="12.196855178648343"><ele>291.5</ele><time>2026-04-10T15:41:04.001Z</time></trkpt><trkpt lat="43.49936572542774" lon="12.19706826196669"><ele>291.0</ele><time>2026-04-10T15:41:05.001Z</time></trkpt><trkpt lat="43.49917502294466" lon="12.197281644862779"><ele>291.0</ele><time>2026-04-10T15:41:06.001Z</time></trkpt><trkpt lat="43.498982561172824" lon="12.197492246166874"><ele>291.0</ele><time>2026-04-10T15:41:07.001Z</time></trkpt><trkpt lat="43.49878795423457" lon="12.197701675215724"><ele>290.5</ele><time>2026-04-10T15:41:08.001Z</time></trkpt><trkpt lat="43.4985952490335" lon="12.197909706163143"><ele>290.0</ele><time>2026-04-10T15:41:09.001Z</time></trkpt><trkpt lat="43.49840195522766" lon="12.198118912594337"><ele>291.5</ele><time>2026-04-10T15:41:10.001Z</time></trkpt><trkpt lat="43.49820835240522" lon="12.198328163125026"><ele>293.0</ele><time>2026-04-10T15:41:11.002Z</time></trkpt><trkpt lat="43.49801433982191" lon="12.19853744730151"><ele>292.0</ele><time>2026-04-10T15:41:12.002Z</time></trkpt><trkpt lat="43.497817871065855" lon="12.198748683486032"><ele>291.0</ele><time>2026-04-10T15:41:13.002Z</time></trkpt><trkpt lat="43.497622552831935" lon="12.198964129421594"><ele>291.0</ele><time>2026-04-10T15:41:14.002Z</time></trkpt><trkpt lat="43.497424941060345" lon="12.199182212664802"><ele>291.0</ele><time>2026-04-10T15:41:15.002Z</time></trkpt><trkpt lat="43.497226168143996" lon="12.199401690727203"><ele>290.5</ele><time>2026-04-10T15:41:16.002Z</time></trkpt><trkpt lat="43.497027467786964" lon="12.19962091666528"><ele>290.0</ele><time>2026-04-10T15:41:17.002Z</time></trkpt><trkpt lat="43.4968281778202" lon="12.199838481556446"><ele>290.0</ele><time>2026-04-10T15:41:18.002Z</time></trkpt><trkpt lat="43.49662970550234" lon="12.20005327032007"><ele>290.0</ele><time>2026-04-10T15:41:19.002Z</time></trkpt><trkpt lat="43.49642970232504" lon="12.200268363927304"><ele>290.0</ele><time>2026-04-10T15:41:20.002Z</time></trkpt><trkpt lat="43.496228160743456" lon="12.20048209280944"><ele>290.0</ele><time>2026-04-10T15:41:21.002Z</time></trkpt><trkpt lat="43.49603120532545" lon="12.200688492311537"><ele>290.0</ele><time>2026-04-10T15:41:22.002Z</time></trkpt><trkpt lat="43.49582578198618" lon="12.200896415621955"><ele>290.0</ele><time>2026-04-10T15:41:23.002Z</time></trkpt><trkpt lat="43.495622558261395" lon="12.201102957495719"><ele>290.0</ele><time>2026-04-10T15:41:24.002Z</time></trkpt><trkpt lat="43.49541587482264" lon="12.20130856261285"><ele>290.0</ele><time>2026-04-10T15:41:25.002Z</time></trkpt><trkpt lat="43.49520683278218" lon="12.201506531309445"><ele>290.0</ele><time>2026-04-10T15:41:26.002Z</time></trkpt><trkpt lat="43.494996990086904" lon="12.201703070662354"><ele>290.0</ele><time>2026-04-10T15:41:27.002Z</time></trkpt><trkpt lat="43.494789869724585" lon="12.201899028550978"><ele>289.5</ele><time>2026-04-10T15:41:28.002Z</time></trkpt><trkpt lat="43.49458115341614" lon="12.20209651862588"><ele>289.0</ele><time>2026-04-10T15:41:29.002Z</time></trkpt><trkpt lat="43.49437281638251" lon="12.202295299148147"><ele>289.5</ele><time>2026-04-10T15:41:30.002Z</time></trkpt><trkpt lat="43.49416227261967" lon="12.202492620263754"><ele>290.0</ele><time>2026-04-10T15:41:31.002Z</time></trkpt><trkpt lat="43.493953508257775" lon="12.202688747271997"><ele>289.0</ele><time>2026-04-10T15:41:32.002Z</time></trkpt><trkpt lat="43.493745108411694" lon="12.202885987016323"><ele>288.0</ele><time>2026-04-10T15:41:33.002Z</time></trkpt><trkpt lat="43.49353655799731" lon="12.203084118779724"><ele>289.0</ele><time>2026-04-10T15:41:34.002Z</time></trkpt><trkpt lat="43.4933276976401" lon="12.203279680307897"><ele>290.0</ele><time>2026-04-10T15:41:35.002Z</time></trkpt><trkpt lat="43.49311990859375" lon="12.203478403623787"><ele>289.5</ele><time>2026-04-10T15:41:36.002Z</time></trkpt><trkpt lat="43.49291002453563" lon="12.20367557488114"><ele>289.0</ele><time>2026-04-10T15:41:37.002Z</time></trkpt><trkpt lat="43.49270169398503" lon="12.203871408443744"><ele>289.5</ele><time>2026-04-10T15:41:38.002Z</time></trkpt><trkpt lat="43.49249538652" lon="12.20406895527429"><ele>290.0</ele><time>2026-04-10T15:41:39.002Z</time></trkpt><trkpt lat="43.4922887834086" lon="12.204267694456464"><ele>289.5</ele><time>2026-04-10T15:41:40.002Z</time></trkpt><trkpt lat="43.49207990070544" lon="12.20446832802744"><ele>289.0</ele><time>2026-04-10T15:41:41.002Z</time></trkpt><trkpt lat="43.49187154139351" lon="12.204664741219187"><ele>290.0</ele><time>2026-04-10T15:41:42.002Z</time></trkpt><trkpt lat="43.49166181195311" lon="12.204861335336323"><ele>291.0</ele><time>2026-04-10T15:41:43.002Z</time></trkpt><trkpt lat="43.49145105672735" lon="12.205057980556541"><ele>289.5</ele><time>2026-04-10T15:41:44.002Z</time></trkpt><trkpt lat="43.491241606286444" lon="12.205257635257928"><ele>288.0</ele><time>2026-04-10T15:41:45.002Z</time></trkpt><trkpt lat="43.491035015653914" lon="12.205457871050411"><ele>288.0</ele><time>2026-04-10T15:41:46.002Z</time></trkpt><trkpt lat="43.490827096426166" lon="12.205654884624796"><ele>288.0</ele><time>2026-04-10T15:41:47.002Z</time></trkpt><trkpt lat="43.49061913242026" lon="12.205849610963925"><ele>288.0</ele><time>2026-04-10T15:41:48.002Z</time></trkpt><trkpt lat="43.4904107895933" lon="12.20604399799063"><ele>288.0</ele><time>2026-04-10T15:41:49.002Z</time></trkpt><trkpt lat="43.490203937357606" lon="12.206243416640861"><ele>288.0</ele><time>2026-04-10T15:41:50.002Z</time></trkpt><trkpt lat="43.48999535092851" lon="12.206445347736041"><ele>288.0</ele><time>2026-04-10T15:41:51.002Z</time></trkpt><trkpt lat="43.489788577981955" lon="12.20664800521484"><ele>287.5</ele><time>2026-04-10T15:41:52.002Z</time></trkpt><trkpt lat="43.489583199303254" lon="12.20685219057286"><ele>287.0</ele><time>2026-04-10T15:41:53.002Z</time></trkpt><trkpt lat="43.48937870950587" lon="12.20705771556704"><ele>287.0</ele><time>2026-04-10T15:41:54.003Z</time></trkpt><trkpt lat="43.48917470120572" lon="12.207265933877105"><ele>287.0</ele><time>2026-04-10T15:41:55.003Z</time></trkpt><trkpt lat="43.488971939020175" lon="12.207472834493462"><ele>287.0</ele><time>2026-04-10T15:41:56.003Z</time></trkpt><trkpt lat="43.4887687165464" lon="12.207683674100993"><ele>287.0</ele><time>2026-04-10T15:41:57.003Z</time></trkpt><trkpt lat="43.48856802427529" lon="12.207896965706814"><ele>287.0</ele><time>2026-04-10T15:41:58.003Z</time></trkpt><trkpt lat="43.488369658202785" lon="12.20811502357297"><ele>287.0</ele><time>2026-04-10T15:41:59.003Z</time></trkpt><trkpt lat="43.4881728603269" lon="12.20833193604741"><ele>286.0</ele><time>2026-04-10T15:42:00.003Z</time></trkpt><trkpt lat="43.48797902319265" lon="12.208553613426403"><ele>285.0</ele><time>2026-04-10T15:42:01Z</time></trkpt><trkpt lat="43.48778323511625" lon="12.208771570588029"><ele>284.5</ele><time>2026-04-10T15:42:02Z</time></trkpt><trkpt lat="43.48758529661228" lon="12.208991675671351"><ele>284.0</ele><time>2026-04-10T15:42:03Z</time></trkpt><trkpt lat="43.48738819468424" lon="12.20921055046317"><ele>285.0</ele><time>2026-04-10T15:42:04Z</time></trkpt><trkpt lat="43.487190862834446" lon="12.209426538018901"><ele>286.0</ele><time>2026-04-10T15:42:05Z</time></trkpt><trkpt lat="43.486993557435106" lon="12.20964490007983"><ele>286.5</ele><time>2026-04-10T15:42:06Z</time></trkpt><trkpt lat="43.48679785182254" lon="12.209866550213263"><ele>287.0</ele><time>2026-04-10T15:42:07Z</time></trkpt><trkpt lat="43.48660421145351" lon="12.210089165988878"><ele>287.0</ele><time>2026-04-10T15:42:08Z</time></trkpt><trkpt lat="43.48641241058929" lon="12.21031023384261"><ele>287.0</ele><time>2026-04-10T15:42:09Z</time></trkpt><trkpt lat="43.48621785088067" lon="12.210533632256984"><ele>285.5</ele><time>2026-04-10T15:42:10Z</time></trkpt><trkpt lat="43.48602225963456" lon="12.21075732077858"><ele>284.0</ele><time>2026-04-10T15:42:11Z</time></trkpt><trkpt lat="43.485827018627695" lon="12.210979346901636"><ele>284.0</ele><time>2026-04-10T15:42:12Z</time></trkpt><trkpt lat="43.485632015442334" lon="12.21120117288382"><ele>284.0</ele><time>2026-04-10T15:42:13Z</time></trkpt><trkpt lat="43.485436090556284" lon="12.211421052533948"><ele>284.5</ele><time>2026-04-10T15:42:14Z</time></trkpt><trkpt lat="43.48524060579221" lon="12.211640866723748"><ele>285.0</ele><time>2026-04-10T15:42:15Z</time></trkpt><trkpt lat="43.485046346076004" lon="12.211861786650303"><ele>285.0</ele><time>2026-04-10T15:42:16Z</time></trkpt><trkpt lat="43.484851506965455" lon="12.212083629071865"><ele>285.0</ele><time>2026-04-10T15:42:17Z</time></trkpt><trkpt lat="43.484657036204915" lon="12.21230626103495"><ele>284.5</ele><time>2026-04-10T15:42:18Z</time></trkpt><trkpt lat="43.484462216778475" lon="12.212530670134969"><ele>284.0</ele><time>2026-04-10T15:42:19Z</time></trkpt><trkpt lat="43.48426754121505" lon="12.212752816115163"><ele>284.0</ele><time>2026-04-10T15:42:20Z</time></trkpt><trkpt lat="43.484071298764015" lon="12.212972891283199"><ele>284.0</ele><time>2026-04-10T15:42:21Z</time></trkpt><trkpt lat="43.483876014908375" lon="12.213193567084335"><ele>284.0</ele><time>2026-04-10T15:42:22Z</time></trkpt><trkpt lat="43.483680615040136" lon="12.213415013947685"><ele>284.0</ele><time>2026-04-10T15:42:23Z</time></trkpt><trkpt lat="43.48348339161456" lon="12.213636478572042"><ele>284.0</ele><time>2026-04-10T15:42:24Z</time></trkpt><trkpt lat="43.483286621541076" lon="12.213856785174357"><ele>284.0</ele><time>2026-04-10T15:42:25Z</time></trkpt><trkpt lat="43.483089046494776" lon="12.214074587445328"><ele>283.0</ele><time>2026-04-10T15:42:26Z</time></trkpt><trkpt lat="43.4828903823764" lon="12.214289385720772"><ele>282.0</ele><time>2026-04-10T15:42:27Z</time></trkpt><trkpt lat="43.48268802153948" lon="12.2144977124211"><ele>282.0</ele><time>2026-04-10T15:42:28.001Z</time></trkpt><trkpt lat="43.48248278971719" lon="12.214706018331919"><ele>282.0</ele><time>2026-04-10T15:42:29.001Z</time></trkpt><trkpt lat="43.482276111370645" lon="12.214909062072914"><ele>282.5</ele><time>2026-04-10T15:42:30.001Z</time></trkpt><trkpt lat="43.48206719079526" lon="12.215107168037463"><ele>283.0</ele><time>2026-04-10T15:42:31.001Z</time></trkpt><trkpt lat="43.481856552960664" lon="12.215299100246813"><ele>283.0</ele><time>2026-04-10T15:42:32.001Z</time></trkpt><trkpt lat="43.481643230067036" lon="12.215482568374274"><ele>283.0</ele><time>2026-04-10T15:42:33.001Z</time></trkpt><trkpt lat="43.48142733561539" lon="12.215666878972858"><ele>282.0</ele><time>2026-04-10T15:42:34.001Z</time></trkpt><trkpt lat="43.481211162224625" lon="12.215848122672778"><ele>281.0</ele><time>2026-04-10T15:42:35.001Z</time></trkpt><trkpt lat="43.48099485727454" lon="12.216030144942339"><ele>281.0</ele><time>2026-04-10T15:42:36.001Z</time></trkpt><trkpt lat="43.480777363993695" lon="12.2162130476783"><ele>281.0</ele><time>2026-04-10T15:42:37.001Z</time></trkpt><trkpt lat="43.480560916056" lon="12.216397908466211"><ele>281.5</ele><time>2026-04-10T15:42:38.001Z</time></trkpt><trkpt lat="43.48034287185369" lon="12.216580295991902"><ele>282.0</ele><time>2026-04-10T15:42:39.001Z</time></trkpt><trkpt lat="43.480126999873335" lon="12.216759361412723"><ele>282.0</ele><time>2026-04-10T15:42:40.001Z</time></trkpt><trkpt lat="43.47991107689408" lon="12.216942084959166"><ele>282.0</ele><time>2026-04-10T15:42:41.001Z</time></trkpt><trkpt lat="43.479694891014134" lon="12.217123531060706"><ele>282.0</ele><time>2026-04-10T15:42:42.001Z</time></trkpt><trkpt lat="43.479478375913125" lon="12.217304507272539"><ele>282.0</ele><time>2026-04-10T15:42:43.001Z</time></trkpt><trkpt lat="43.47925999110407" lon="12.217482938519373"><ele>282.0</ele><time>2026-04-10T15:42:44.001Z</time></trkpt><trkpt lat="43.47904492750005" lon="12.217663688151564"><ele>282.0</ele><time>2026-04-10T15:42:45.001Z</time></trkpt><trkpt lat="43.47882944455381" lon="12.217843793200979"><ele>281.5</ele><time>2026-04-10T15:42:46.001Z</time></trkpt><trkpt lat="43.47861329329955" lon="12.218028737186073"><ele>281.0</ele><time>2026-04-10T15:42:47.001Z</time></trkpt><trkpt lat="43.4783971159959" lon="12.218210066036033"><ele>281.0</ele><time>2026-04-10T15:42:48.001Z</time></trkpt><trkpt lat="43.47818230496951" lon="12.218390353282517"><ele>281.0</ele><time>2026-04-10T15:42:49.001Z</time></trkpt><trkpt lat="43.477966411817796" lon="12.218570809418816"><ele>280.0</ele><time>2026-04-10T15:42:50.001Z</time></trkpt><trkpt lat="43.47774908155975" lon="12.218751062222381"><ele>279.0</ele><time>2026-04-10T15:42:51.001Z</time></trkpt><trkpt lat="43.477531077221556" lon="12.218931409943526"><ele>279.5</ele><time>2026-04-10T15:42:52.001Z</time></trkpt><trkpt lat="43.47731470756782" lon="12.219114461684365"><ele>280.0</ele><time>2026-04-10T15:42:53.001Z</time></trkpt><trkpt lat="43.47709921427209" lon="12.219295683125992"><ele>280.0</ele><time>2026-04-10T15:42:54.001Z</time></trkpt><trkpt lat="43.47688388320751" lon="12.219478514839508"><ele>280.0</ele><time>2026-04-10T15:42:55.001Z</time></trkpt><trkpt lat="43.47666797292098" lon="12.219661018656025"><ele>280.0</ele><time>2026-04-10T15:42:56.001Z</time></trkpt><trkpt lat="43.47645301649643" lon="12.21984875530652"><ele>280.0</ele><time>2026-04-10T15:42:57.001Z</time></trkpt><trkpt lat="43.476240060243704" lon="12.220038439960858"><ele>280.5</ele><time>2026-04-10T15:42:58.001Z</time></trkpt><trkpt lat="43.47603040520132" lon="12.22022985497754"><ele>281.0</ele><time>2026-04-10T15:42:59.001Z</time></trkpt><trkpt lat="43.47581875471833" lon="12.220421998295285"><ele>281.0</ele><time>2026-04-10T15:43:00.001Z</time></trkpt><trkpt lat="43.47560647457818" lon="12.220614292759981"><ele>281.0</ele><time>2026-04-10T15:43:01.001Z</time></trkpt><trkpt lat="43.47539472489173" lon="12.220806268031618"><ele>281.5</ele><time>2026-04-10T15:43:02.001Z</time></trkpt><trkpt lat="43.47518282041588" lon="12.220997436152851"><ele>282.0</ele><time>2026-04-10T15:43:03.001Z</time></trkpt><trkpt lat="43.47497232985693" lon="12.221188180289863"><ele>282.0</ele><time>2026-04-10T15:43:04.001Z</time></trkpt><trkpt lat="43.47476175257179" lon="12.221382510792205"><ele>282.0</ele><time>2026-04-10T15:43:05.001Z</time></trkpt><trkpt lat="43.474550698897055" lon="12.221575786818896"><ele>281.0</ele><time>2026-04-10T15:43:06.001Z</time></trkpt><trkpt lat="43.474339669336324" lon="12.221767577135632"><ele>280.0</ele><time>2026-04-10T15:43:07.001Z</time></trkpt><trkpt lat="43.47412756977057" lon="12.221961548202897"><ele>280.0</ele><time>2026-04-10T15:43:08.001Z</time></trkpt><trkpt lat="43.473916558232354" lon="12.22215398680188"><ele>280.0</ele><time>2026-04-10T15:43:09.001Z</time></trkpt><trkpt lat="43.473704622171944" lon="12.222345869996056"><ele>281.0</ele><time>2026-04-10T15:43:10.001Z</time></trkpt><trkpt lat="43.47349345062282" lon="12.222536339227934"><ele>282.0</ele><time>2026-04-10T15:43:11.001Z</time></trkpt><trkpt lat="43.473283526316116" lon="12.222727807855785"><ele>282.0</ele><time>2026-04-10T15:43:12.001Z</time></trkpt><trkpt lat="43.47307304816926" lon="12.222919549401182"><ele>282.0</ele><time>2026-04-10T15:43:13.001Z</time></trkpt><trkpt lat="43.47286277147913" lon="12.22311000999436"><ele>281.5</ele><time>2026-04-10T15:43:14.001Z</time></trkpt><trkpt lat="43.47265240267604" lon="12.223301715727656"><ele>281.0</ele><time>2026-04-10T15:43:15.002Z</time></trkpt><trkpt lat="43.472442325846615" lon="12.223494665780962"><ele>281.0</ele><time>2026-04-10T15:43:16.002Z</time></trkpt><trkpt lat="43.47223172200571" lon="12.223687294361254"><ele>281.0</ele><time>2026-04-10T15:43:17.002Z</time></trkpt><trkpt lat="43.47202006062216" lon="12.223880129780534"><ele>280.5</ele><time>2026-04-10T15:43:18.002Z</time></trkpt><trkpt lat="43.471808447516196" lon="12.224070120758066"><ele>280.0</ele><time>2026-04-10T15:43:19.002Z</time></trkpt><trkpt lat="43.471595533774405" lon="12.224260615940237"><ele>280.0</ele><time>2026-04-10T15:43:20.002Z</time></trkpt><trkpt lat="43.47138152978904" lon="12.224449426646137"><ele>280.0</ele><time>2026-04-10T15:43:21.002Z</time></trkpt><trkpt lat="43.47116822790984" lon="12.224638419896136"><ele>279.5</ele><time>2026-04-10T15:43:22.002Z</time></trkpt><trkpt lat="43.47095534341286" lon="12.224827117778208"><ele>279.0</ele><time>2026-04-10T15:43:23.002Z</time></trkpt><trkpt lat="43.47074435460689" lon="12.225016519205253"><ele>279.0</ele><time>2026-04-10T15:43:24.002Z</time></trkpt><trkpt lat="43.47053143479952" lon="12.225206563106894"><ele>279.0</ele><time>2026-04-10T15:43:25.002Z</time></trkpt><trkpt lat="43.470319580435664" lon="12.225397549590332"><ele>279.5</ele><time>2026-04-10T15:43:26.002Z</time></trkpt><trkpt lat="43.4701083242945" lon="12.225586049263386"><ele>280.0</ele><time>2026-04-10T15:43:27.002Z</time></trkpt><trkpt lat="43.46989557819281" lon="12.225774768656638"><ele>280.5</ele><time>2026-04-10T15:43:28.002Z</time></trkpt><trkpt lat="43.469679739220354" lon="12.225959901196664"><ele>281.0</ele><time>2026-04-10T15:43:29.002Z</time></trkpt><trkpt lat="43.46946232905044" lon="12.226140452581491"><ele>281.5</ele><time>2026-04-10T15:43:30.002Z</time></trkpt><trkpt lat="43.469244317872885" lon="12.226315901780197"><ele>282.0</ele><time>2026-04-10T15:43:31.002Z</time></trkpt><trkpt lat="43.4690236696329" lon="12.226482609637976"><ele>282.5</ele><time>2026-04-10T15:43:32.002Z</time></trkpt><trkpt lat="43.468797044853225" lon="12.226634277354712"><ele>283.0</ele><time>2026-04-10T15:43:33.002Z</time></trkpt><trkpt lat="43.46856790746835" lon="12.226774407532774"><ele>283.5</ele><time>2026-04-10T15:43:34.002Z</time></trkpt><trkpt lat="43.46833314034424" lon="12.226906243928784"><ele>284.0</ele><time>2026-04-10T15:43:35.002Z</time></trkpt><trkpt lat="43.46809690505219" lon="12.22702665342836"><ele>282.5</ele><time>2026-04-10T15:43:36.002Z</time></trkpt><trkpt lat="43.467855513440774" lon="12.227133259434567"><ele>281.0</ele><time>2026-04-10T15:43:37.002Z</time></trkpt><trkpt lat="43.46761136582685" lon="12.227223228976484"><ele>281.0</ele><time>2026-04-10T15:43:38.002Z</time></trkpt><trkpt lat="43.4673630899628" lon="12.22729865451352"><ele>281.0</ele><time>2026-04-10T15:43:39.002Z</time></trkpt><trkpt lat="43.46711332056007" lon="12.22735812083915"><ele>282.0</ele><time>2026-04-10T15:43:40.002Z</time></trkpt><trkpt lat="43.466861308573876" lon="12.227402673312532"><ele>283.0</ele><time>2026-04-10T15:43:41.002Z</time></trkpt><trkpt lat="43.46661029234807" lon="12.227439957333997"><ele>283.0</ele><time>2026-04-10T15:43:42.002Z</time></trkpt><trkpt lat="43.4663575278009" lon="12.227467280446682"><ele>283.0</ele><time>2026-04-10T15:43:43.002Z</time></trkpt><trkpt lat="43.46610415438182" lon="12.22748467852788"><ele>283.0</ele><time>2026-04-10T15:43:44.002Z</time></trkpt><trkpt lat="43.4658505494865" lon="12.227487847181097"><ele>283.0</ele><time>2026-04-10T15:43:45.002Z</time></trkpt><trkpt lat="43.465597672475305" lon="12.227476777476772"><ele>283.0</ele><time>2026-04-10T15:43:46.002Z</time></trkpt><trkpt lat="43.46534479702116" lon="12.227453194580471"><ele>283.0</ele><time>2026-04-10T15:43:47.002Z</time></trkpt><trkpt lat="43.46509395964968" lon="12.227414514004339"><ele>283.0</ele><time>2026-04-10T15:43:48.002Z</time></trkpt><trkpt lat="43.46484297746551" lon="12.227366877218058"><ele>283.0</ele><time>2026-04-10T15:43:49.002Z</time></trkpt><trkpt lat="43.46459349075237" lon="12.227313027792018"><ele>281.5</ele><time>2026-04-10T15:43:50.002Z</time></trkpt><trkpt lat="43.464343813554464" lon="12.227253180494424"><ele>280.0</ele><time>2026-04-10T15:43:51.002Z</time></trkpt><trkpt lat="43.464095161204696" lon="12.227190854918971"><ele>280.0</ele><time>2026-04-10T15:43:52.002Z</time></trkpt><trkpt lat="43.46384774790107" lon="12.227131259273065"><ele>280.0</ele><time>2026-04-10T15:43:53.002Z</time></trkpt><trkpt lat="43.463599211271536" lon="12.227078010777896"><ele>281.5</ele><time>2026-04-10T15:43:54.002Z</time></trkpt><trkpt lat="43.463348264439354" lon="12.227027404432677"><ele>283.0</ele><time>2026-04-10T15:43:55.002Z</time></trkpt><trkpt lat="43.46309638207374" lon="12.22697756069701"><ele>288.0</ele><time>2026-04-10T15:43:56.002Z</time></trkpt><trkpt lat="43.46284545699963" lon="12.226926691169016"><ele>293.0</ele><time>2026-04-10T15:43:57.002Z</time></trkpt><trkpt lat="43.46259502699247" lon="12.226872747742224"><ele>293.0</ele><time>2026-04-10T15:43:58.002Z</time></trkpt><trkpt lat="43.46234492846709" lon="12.226818061555068"><ele>293.0</ele><time>2026-04-10T15:43:59.003Z</time></trkpt><trkpt lat="43.462094255755" lon="12.22676110638526"><ele>297.5</ele><time>2026-04-10T15:44:00.003Z</time></trkpt><trkpt lat="43.46184623533817" lon="12.226707086918088"><ele>302.0</ele><time>2026-04-10T15:44:01.003Z</time></trkpt><trkpt lat="43.46159573273741" lon="12.226652941044568"><ele>302.0</ele><time>2026-04-10T15:44:02.003Z</time></trkpt><trkpt lat="43.46134644754775" lon="12.22659917899523"><ele>302.0</ele><time>2026-04-10T15:44:03.003Z</time></trkpt><trkpt lat="43.46109775017486" lon="12.226548525193252"><ele>302.5</ele><time>2026-04-10T15:44:04.003Z</time></trkpt><trkpt lat="43.46084919998956" lon="12.22650072315489"><ele>303.0</ele><time>2026-04-10T15:44:05.003Z</time></trkpt><trkpt lat="43.46059968500495" lon="12.226457247204353"><ele>309.5</ele><time>2026-04-10T15:44:06.003Z</time></trkpt><trkpt lat="43.46034819108274" lon="12.226423737045915"><ele>316.0</ele><time>2026-04-10T15:44:07Z</time></trkpt><trkpt lat="43.460096771614474" lon="12.226406428528716"><ele>316.0</ele><time>2026-04-10T15:44:08Z</time></trkpt><trkpt lat="43.45984254954887" lon="12.226407633152778"><ele>316.0</ele><time>2026-04-10T15:44:09Z</time></trkpt><trkpt lat="43.459587725645754" lon="12.226421734927154"><ele>319.0</ele><time>2026-04-10T15:44:10Z</time></trkpt><trkpt lat="43.459334496610126" lon="12.226451252266754"><ele>322.0</ele><time>2026-04-10T15:44:11Z</time></trkpt><trkpt lat="43.45908098810548" lon="12.226488494274149"><ele>315.0</ele><time>2026-04-10T15:44:12Z</time></trkpt><trkpt lat="43.4588295578263" lon="12.22654320154922"><ele>308.0</ele><time>2026-04-10T15:44:13Z</time></trkpt><trkpt lat="43.45858245639831" lon="12.22661499286877"><ele>307.5</ele><time>2026-04-10T15:44:14Z</time></trkpt><trkpt lat="43.45833675245765" lon="12.226700936135156"><ele>307.0</ele><time>2026-04-10T15:44:15Z</time></trkpt><trkpt lat="43.45809569763832" lon="12.226806593752698"><ele>309.0</ele><time>2026-04-10T15:44:16Z</time></trkpt><trkpt lat="43.457857079302556" lon="12.226921343676981"><ele>311.0</ele><time>2026-04-10T15:44:17Z</time></trkpt><trkpt lat="43.457622522920374" lon="12.227049565395257"><ele>311.0</ele><time>2026-04-10T15:44:18Z</time></trkpt><trkpt lat="43.4573909113389" lon="12.227190416855677"><ele>311.0</ele><time>2026-04-10T15:44:19Z</time></trkpt><trkpt lat="43.45716150294628" lon="12.227344445977918"><ele>310.5</ele><time>2026-04-10T15:44:20Z</time></trkpt><trkpt lat="43.456938143179734" lon="12.227512452922054"><ele>310.0</ele><time>2026-04-10T15:44:21Z</time></trkpt><trkpt lat="43.45672231164437" lon="12.2276951506731"><ele>310.0</ele><time>2026-04-10T15:44:22Z</time></trkpt><trkpt lat="43.45651361816387" lon="12.227889088768025"><ele>310.0</ele><time>2026-04-10T15:44:23Z</time></trkpt><trkpt lat="43.45631362269714" lon="12.228096139338136"><ele>308.0</ele><time>2026-04-10T15:44:24Z</time></trkpt><trkpt lat="43.45611765237574" lon="12.228315231312196"><ele>306.0</ele><time>2026-04-10T15:44:25Z</time></trkpt><trkpt lat="43.455925004282435" lon="12.228542512400058"><ele>306.0</ele><time>2026-04-10T15:44:26Z</time></trkpt><trkpt lat="43.45573471732877" lon="12.228773419382476"><ele>306.0</ele><time>2026-04-10T15:44:27Z</time></trkpt><trkpt lat="43.45554349232477" lon="12.229004558128667"><ele>305.5</ele><time>2026-04-10T15:44:28Z</time></trkpt><trkpt lat="43.45535288874143" lon="12.22923470223716"><ele>305.0</ele><time>2026-04-10T15:44:29Z</time></trkpt><trkpt lat="43.45516384691919" lon="12.22946596036843"><ele>305.0</ele><time>2026-04-10T15:44:30Z</time></trkpt><trkpt lat="43.45497298163727" lon="12.229693330881789"><ele>305.0</ele><time>2026-04-10T15:44:31Z</time></trkpt><trkpt lat="43.4547825566836" lon="12.229922814174362"><ele>308.5</ele><time>2026-04-10T15:44:32Z</time></trkpt><trkpt lat="43.454592445607474" lon="12.2301547527278"><ele>312.0</ele><time>2026-04-10T15:44:33Z</time></trkpt><trkpt lat="43.45440443529073" lon="12.230387747249967"><ele>312.0</ele><time>2026-04-10T15:44:34.001Z</time></trkpt><trkpt lat="43.45421418165367" lon="12.230619918061224"><ele>312.0</ele><time>2026-04-10T15:44:35.001Z</time></trkpt><trkpt lat="43.45402354621216" lon="12.230846288987994"><ele>311.0</ele><time>2026-04-10T15:44:36.001Z</time></trkpt><trkpt lat="43.45383006704775" lon="12.231068557106925"><ele>310.0</ele><time>2026-04-10T15:44:37.001Z</time></trkpt><trkpt lat="43.45363699787684" lon="12.231294903198258"><ele>305.5</ele><time>2026-04-10T15:44:38.001Z</time></trkpt><trkpt lat="43.45344733126159" lon="12.231524300755492"><ele>301.0</ele><time>2026-04-10T15:44:39.001Z</time></trkpt><trkpt lat="43.45325776413852" lon="12.231752814246446"><ele>301.0</ele><time>2026-04-10T15:44:40.001Z</time></trkpt><trkpt lat="43.453065877582375" lon="12.23197788439705"><ele>301.0</ele><time>2026-04-10T15:44:41.001Z</time></trkpt><trkpt lat="43.45287382295581" lon="12.232202113468517"><ele>306.0</ele><time>2026-04-10T15:44:42.001Z</time></trkpt><trkpt lat="43.452684217715806" lon="12.232429084834452"><ele>311.0</ele><time>2026-04-10T15:44:43.001Z</time></trkpt><trkpt lat="43.452496931804305" lon="12.232660999989264"><ele>311.0</ele><time>2026-04-10T15:44:44.001Z</time></trkpt><trkpt lat="43.45230960474446" lon="12.232894108822943"><ele>311.0</ele><time>2026-04-10T15:44:45.001Z</time></trkpt><trkpt lat="43.452119838908466" lon="12.233122038340483"><ele>310.5</ele><time>2026-04-10T15:44:46.001Z</time></trkpt><trkpt lat="43.45193026228279" lon="12.23335198464787"><ele>310.0</ele><time>2026-04-10T15:44:47.001Z</time></trkpt><trkpt lat="43.45173817326722" lon="12.233579339029022"><ele>310.0</ele><time>2026-04-10T15:44:48.001Z</time></trkpt><trkpt lat="43.451544795774566" lon="12.233803923819513"><ele>310.0</ele><time>2026-04-10T15:44:49.001Z</time></trkpt><trkpt lat="43.45134935148082" lon="12.234021152967042"><ele>313.0</ele><time>2026-04-10T15:44:50.001Z</time></trkpt><trkpt lat="43.451146909195415" lon="12.234228074659665"><ele>316.0</ele><time>2026-04-10T15:44:51.001Z</time></trkpt><trkpt lat="43.45093982638942" lon="12.234420348383157"><ele>316.0</ele><time>2026-04-10T15:44:52.001Z</time></trkpt><trkpt lat="43.450724410394166" lon="12.234599157904364"><ele>316.0</ele><time>2026-04-10T15:44:53.001Z</time></trkpt><trkpt lat="43.45050394250326" lon="12.23477116965335"><ele>315.0</ele><time>2026-04-10T15:44:54.001Z</time></trkpt><trkpt lat="43.45028011504969" lon="12.23493260633607"><ele>314.0</ele><time>2026-04-10T15:44:55.001Z</time></trkpt><trkpt lat="43.45004600716437" lon="12.235077921165601"><ele>314.0</ele><time>2026-04-10T15:44:56.001Z</time></trkpt><trkpt lat="43.44980667472949" lon="12.235206574228142"><ele>314.0</ele><time>2026-04-10T15:44:57.001Z</time></trkpt><trkpt lat="43.44956987869899" lon="12.235329704058245"><ele>318.0</ele><time>2026-04-10T15:44:58.001Z</time></trkpt><trkpt lat="43.44932914051586" lon="12.235438511716588"><ele>322.0</ele><time>2026-04-10T15:44:59.001Z</time></trkpt><trkpt lat="43.44908481853321" lon="12.235535914651111"><ele>322.0</ele><time>2026-04-10T15:45:00.001Z</time></trkpt><trkpt lat="43.448839544238865" lon="12.235622770963646"><ele>322.0</ele><time>2026-04-10T15:45:01.001Z</time></trkpt><trkpt lat="43.44859217531473" lon="12.235701979635266"><ele>317.5</ele><time>2026-04-10T15:45:02.001Z</time></trkpt><trkpt lat="43.448343750578836" lon="12.235782791127946"><ele>313.0</ele><time>2026-04-10T15:45:03.001Z</time></trkpt><trkpt lat="43.44809808519287" lon="12.235866326441204"><ele>312.0</ele><time>2026-04-10T15:45:04.001Z</time></trkpt><trkpt lat="43.44785223016278" lon="12.23595074623723"><ele>311.0</ele><time>2026-04-10T15:45:05.001Z</time></trkpt><trkpt lat="43.44760493012761" lon="12.236034811206919"><ele>311.0</ele><time>2026-04-10T15:45:06.001Z</time></trkpt><trkpt lat="43.4473582666104" lon="12.236113673167669"><ele>311.0</ele><time>2026-04-10T15:45:07.001Z</time></trkpt><trkpt lat="43.44711268472431" lon="12.236192744539071"><ele>309.5</ele><time>2026-04-10T15:45:08.001Z</time></trkpt><trkpt lat="43.44686729890739" lon="12.236274687758833"><ele>308.0</ele><time>2026-04-10T15:45:09.001Z</time></trkpt><trkpt lat="43.4466230532584" lon="12.236356631836754"><ele>308.0</ele><time>2026-04-10T15:45:10.001Z</time></trkpt><trkpt lat="43.44637746434581" lon="12.23643651105981"><ele>308.0</ele><time>2026-04-10T15:45:11.001Z</time></trkpt><trkpt lat="43.44613321616717" lon="12.236517669525544"><ele>305.5</ele><time>2026-04-10T15:45:12.001Z</time></trkpt><trkpt lat="43.44588908318545" lon="12.236601059890772"><ele>303.0</ele><time>2026-04-10T15:45:13.001Z</time></trkpt><trkpt lat="43.44564520662261" lon="12.236682835990912"><ele>305.0</ele><time>2026-04-10T15:45:14.001Z</time></trkpt><trkpt lat="43.445398421807226" lon="12.236763029374375"><ele>307.0</ele><time>2026-04-10T15:45:15.001Z</time></trkpt><trkpt lat="43.44515174928875" lon="12.236842740014755"><ele>307.0</ele><time>2026-04-10T15:45:16.001Z</time></trkpt><trkpt lat="43.4449037777112" lon="12.236920428768165"><ele>307.0</ele><time>2026-04-10T15:45:17.001Z</time></trkpt><trkpt lat="43.44465381696397" lon="12.236989786667971"><ele>311.0</ele><time>2026-04-10T15:45:18.001Z</time></trkpt><trkpt lat="43.444405551234176" lon="12.23705921927224"><ele>315.0</ele><time>2026-04-10T15:45:19.001Z</time></trkpt><trkpt lat="43.44415972534826" lon="12.237141098325502"><ele>315.0</ele><time>2026-04-10T15:45:20.001Z</time></trkpt><trkpt lat="43.44391628167592" lon="12.237232053683607"><ele>315.0</ele><time>2026-04-10T15:45:21.001Z</time></trkpt><trkpt lat="43.443673945005564" lon="12.237333905225517"><ele>311.5</ele><time>2026-04-10T15:45:22.001Z</time></trkpt><trkpt lat="43.443435718362736" lon="12.237449568973512"><ele>308.0</ele><time>2026-04-10T15:45:23.001Z</time></trkpt><trkpt lat="43.44319812987214" lon="12.237574305730956"><ele>307.5</ele><time>2026-04-10T15:45:24.001Z</time></trkpt><trkpt lat="43.44296342845981" lon="12.237705195045853"><ele>307.0</ele><time>2026-04-10T15:45:25.002Z</time></trkpt><trkpt lat="43.44273051041242" lon="12.237845473764043"><ele>307.0</ele><time>2026-04-10T15:45:26.002Z</time></trkpt><trkpt lat="43.44250014891351" lon="12.237994003202186"><ele>307.0</ele><time>2026-04-10T15:45:27.002Z</time></trkpt><trkpt lat="43.442274933425104" lon="12.238156385645818"><ele>307.5</ele><time>2026-04-10T15:45:28.002Z</time></trkpt><trkpt lat="43.442051972630175" lon="12.238323233344813"><ele>308.0</ele><time>2026-04-10T15:45:29.002Z</time></trkpt><trkpt lat="43.44183119691928" lon="12.23849500165651"><ele>308.0</ele><time>2026-04-10T15:45:30.002Z</time></trkpt><trkpt lat="43.441613826153784" lon="12.23867504071623"><ele>308.0</ele><time>2026-04-10T15:45:31.002Z</time></trkpt><trkpt lat="43.44140176985662" lon="12.238865271428713"><ele>318.5</ele><time>2026-04-10T15:45:32.002Z</time></trkpt><trkpt lat="43.44119359053772" lon="12.239062206661643"><ele>329.0</ele><time>2026-04-10T15:45:33.002Z</time></trkpt><trkpt lat="43.440989187416044" lon="12.239264243675386"><ele>329.0</ele><time>2026-04-10T15:45:34.002Z</time></trkpt><trkpt lat="43.44078714277536" lon="12.239471255264347"><ele>329.0</ele><time>2026-04-10T15:45:35.002Z</time></trkpt><trkpt lat="43.44058505196252" lon="12.239684096345819"><ele>323.5</ele><time>2026-04-10T15:45:36.014Z</time></trkpt><trkpt lat="43.44038802929309" lon="12.239898301083478"><ele>318.0</ele><time>2026-04-10T15:45:37.016Z</time></trkpt><trkpt lat="43.44019491454137" lon="12.240117972190287"><ele>318.0</ele><time>2026-04-10T15:45:38.016Z</time></trkpt><trkpt lat="43.44000460595704" lon="12.240342834108786"><ele>318.0</ele><time>2026-04-10T15:45:39.016Z</time></trkpt><trkpt lat="43.43981527234029" lon="12.240569228296545"><ele>308.5</ele><time>2026-04-10T15:45:40.002Z</time></trkpt><trkpt lat="43.439614659890715" lon="12.240802668241185"><ele>299.0</ele><time>2026-04-10T15:45:41.002Z</time></trkpt><trkpt lat="43.43941889050402" lon="12.241025671382825"><ele>299.0</ele><time>2026-04-10T15:45:42.002Z</time></trkpt><trkpt lat="43.439220270691386" lon="12.241243362630417"><ele>299.0</ele><time>2026-04-10T15:45:43.002Z</time></trkpt><trkpt lat="43.439018478674065" lon="12.241457662174364"><ele>293.5</ele><time>2026-04-10T15:45:44.002Z</time></trkpt><trkpt lat="43.4388165216951" lon="12.241668473647453"><ele>288.0</ele><time>2026-04-10T15:45:45.002Z</time></trkpt><trkpt lat="43.43861312526383" lon="12.241881258749155"><ele>288.0</ele><time>2026-04-10T15:45:46.002Z</time></trkpt><trkpt lat="43.438403798800806" lon="12.242085148501138"><ele>288.0</ele><time>2026-04-10T15:45:47.002Z</time></trkpt><trkpt lat="43.4381901366135" lon="12.242276972250353"><ele>285.5</ele><time>2026-04-10T15:45:48.002Z</time></trkpt><trkpt lat="43.43797356399552" lon="12.24245592376517"><ele>283.0</ele><time>2026-04-10T15:45:49.002Z</time></trkpt><trkpt lat="43.437749737205955" lon="12.242613562589268"><ele>283.0</ele><time>2026-04-10T15:45:50.002Z</time></trkpt><trkpt lat="43.437522204369124" lon="12.242768959623902"><ele>283.0</ele><time>2026-04-10T15:45:51.002Z</time></trkpt><trkpt lat="43.43729123056951" lon="12.242911685703833"><ele>283.0</ele><time>2026-04-10T15:45:52.002Z</time></trkpt><trkpt lat="43.437055497624534" lon="12.243043822881846"><ele>283.0</ele><time>2026-04-10T15:45:53.002Z</time></trkpt><trkpt lat="43.4368182753245" lon="12.243165212641312"><ele>281.5</ele><time>2026-04-10T15:45:54.002Z</time></trkpt><trkpt lat="43.436578402092685" lon="12.24327535392729"><ele>280.0</ele><time>2026-04-10T15:45:55.002Z</time></trkpt><trkpt lat="43.436335939816914" lon="12.243373439306605"><ele>279.0</ele><time>2026-04-10T15:45:56.002Z</time></trkpt><trkpt lat="43.43609011544919" lon="12.243459172156982"><ele>278.0</ele><time>2026-04-10T15:45:57.002Z</time></trkpt><trkpt lat="43.43584145368529" lon="12.243534750397496"><ele>278.0</ele><time>2026-04-10T15:45:58.002Z</time></trkpt><trkpt lat="43.43559194818374" lon="12.243601261190765"><ele>278.0</ele><time>2026-04-10T15:45:59.002Z</time></trkpt><trkpt lat="43.43534318799909" lon="12.243660438308767"><ele>277.0</ele><time>2026-04-10T15:46:00.002Z</time></trkpt><trkpt lat="43.43509417279296" lon="12.243715759999867"><ele>276.0</ele><time>2026-04-10T15:46:01.002Z</time></trkpt><trkpt lat="43.43484546868422" lon="12.243768725655782"><ele>273.5</ele><time>2026-04-10T15:46:02.002Z</time></trkpt><trkpt lat="43.43459567825339" lon="12.243820314439956"><ele>271.0</ele><time>2026-04-10T15:46:03.002Z</time></trkpt><trkpt lat="43.43434405150607" lon="12.243867706850551"><ele>271.0</ele><time>2026-04-10T15:46:04.002Z</time></trkpt><trkpt lat="43.43409274952107" lon="12.243912267612474"><ele>271.0</ele><time>2026-04-10T15:46:05.002Z</time></trkpt><trkpt lat="43.43384145282124" lon="12.243958236944138"><ele>271.0</ele><time>2026-04-10T15:46:06.002Z</time></trkpt><trkpt lat="43.43359015477963" lon="12.244005336636139"><ele>271.0</ele><time>2026-04-10T15:46:07.002Z</time></trkpt><trkpt lat="43.43333958078698" lon="12.244051397709022"><ele>271.0</ele><time>2026-04-10T15:46:08.002Z</time></trkpt><trkpt lat="43.43308934332226" lon="12.244096054814412"><ele>271.0</ele><time>2026-04-10T15:46:09.002Z</time></trkpt><trkpt lat="43.43283992656942" lon="12.244142760035642"><ele>271.5</ele><time>2026-04-10T15:46:10.002Z</time></trkpt><trkpt lat="43.43259092309005" lon="12.244188992742512"><ele>272.0</ele><time>2026-04-10T15:46:11.003Z</time></trkpt><trkpt lat="43.43234067731499" lon="12.244235582640249"><ele>273.0</ele><time>2026-04-10T15:46:12.003Z</time></trkpt><trkpt lat="43.4320903528029" lon="12.24428198963873"><ele>274.0</ele><time>2026-04-10T15:46:13Z</time></trkpt><trkpt lat="43.431840024261106" lon="12.244330935459502"><ele>274.0</ele><time>2026-04-10T15:46:14Z</time></trkpt><trkpt lat="43.431590338864744" lon="12.244381166190289"><ele>274.0</ele><time>2026-04-10T15:46:15Z</time></trkpt><trkpt lat="43.43134068427333" lon="12.24443003604466"><ele>273.0</ele><time>2026-04-10T15:46:16Z</time></trkpt><trkpt lat="43.43109038028995" lon="12.244478988533738"><ele>272.0</ele><time>2026-04-10T15:46:17Z</time></trkpt><trkpt lat="43.43083985828876" lon="12.244526389254357"><ele>272.0</ele><time>2026-04-10T15:46:18Z</time></trkpt><trkpt lat="43.43058905483958" lon="12.244572998194032"><ele>272.0</ele><time>2026-04-10T15:46:19Z</time></trkpt><trkpt lat="43.4303390340046" lon="12.244617194618195"><ele>272.5</ele><time>2026-04-10T15:46:20Z</time></trkpt><trkpt lat="43.43008911619054" lon="12.244662375778004"><ele>273.0</ele><time>2026-04-10T15:46:21Z</time></trkpt><trkpt lat="43.42983996858702" lon="12.244708028380607"><ele>273.5</ele><time>2026-04-10T15:46:22Z</time></trkpt><trkpt lat="43.42959068103652" lon="12.244754196237054"><ele>274.0</ele><time>2026-04-10T15:46:23Z</time></trkpt><trkpt lat="43.429339572676355" lon="12.244801132062927"><ele>275.5</ele><time>2026-04-10T15:46:24Z</time></trkpt><trkpt lat="43.429088322197785" lon="12.244849418056866"><ele>277.0</ele><time>2026-04-10T15:46:25Z</time></trkpt><trkpt lat="43.428835526344706" lon="12.244897162018766"><ele>278.0</ele><time>2026-04-10T15:46:26Z</time></trkpt><trkpt lat="43.4285832210911" lon="12.244945187002445"><ele>279.0</ele><time>2026-04-10T15:46:27Z</time></trkpt><trkpt lat="43.42833076814349" lon="12.244993184869973"><ele>279.0</ele><time>2026-04-10T15:46:28Z</time></trkpt><trkpt lat="43.428079461599864" lon="12.24504021204189"><ele>279.0</ele><time>2026-04-10T15:46:29Z</time></trkpt><trkpt lat="43.427828587273936" lon="12.245089203150053"><ele>277.5</ele><time>2026-04-10T15:46:30Z</time></trkpt><trkpt lat="43.42757861674068" lon="12.245139877040605"><ele>276.0</ele><time>2026-04-10T15:46:31Z</time></trkpt><trkpt lat="43.427327357875164" lon="12.245188052539753"><ele>276.0</ele><time>2026-04-10T15:46:32Z</time></trkpt><trkpt lat="43.42707758861954" lon="12.245233920386005"><ele>276.0</ele><time>2026-04-10T15:46:33Z</time></trkpt><trkpt lat="43.42682567407427" lon="12.245281065943725"><ele>276.0</ele><time>2026-04-10T15:46:34Z</time></trkpt><trkpt lat="43.42657516142753" lon="12.245329177644265"><ele>276.0</ele><time>2026-04-10T15:46:35Z</time></trkpt><trkpt lat="43.426324662025905" lon="12.245376182305888"><ele>276.5</ele><time>2026-04-10T15:46:36Z</time></trkpt><trkpt lat="43.42607443164631" lon="12.245421878597371"><ele>277.0</ele><time>2026-04-10T15:46:37Z</time></trkpt><trkpt lat="43.42582378170491" lon="12.245468495368007"><ele>277.0</ele><time>2026-04-10T15:46:38Z</time></trkpt><trkpt lat="43.42557255494992" lon="12.24551723448354"><ele>277.0</ele><time>2026-04-10T15:46:39Z</time></trkpt><trkpt lat="43.42532075780023" lon="12.245564300686057"><ele>276.0</ele><time>2026-04-10T15:46:40Z</time></trkpt><trkpt lat="43.42506950361089" lon="12.245611146546004"><ele>275.0</ele><time>2026-04-10T15:46:41.001Z</time></trkpt><trkpt lat="43.42482014100378" lon="12.245658510905868"><ele>275.5</ele><time>2026-04-10T15:46:42.001Z</time></trkpt><trkpt lat="43.42457058431746" lon="12.24570418656428"><ele>276.0</ele><time>2026-04-10T15:46:43.001Z</time></trkpt><trkpt lat="43.424319592704585" lon="12.24575124892289"><ele>276.0</ele><time>2026-04-10T15:46:44.001Z</time></trkpt><trkpt lat="43.424068102687755" lon="12.245796018340043"><ele>276.0</ele><time>2026-04-10T15:46:45.001Z</time></trkpt><trkpt lat="43.423818407022004" lon="12.245843446106434"><ele>275.5</ele><time>2026-04-10T15:46:46.001Z</time></trkpt><trkpt lat="43.42356822581533" lon="12.245891720432025"><ele>275.0</ele><time>2026-04-10T15:46:47.001Z</time></trkpt><trkpt lat="43.423317994039834" lon="12.245940719897701"><ele>275.0</ele><time>2026-04-10T15:46:48.001Z</time></trkpt><trkpt lat="43.4230664525703" lon="12.245989501809253"><ele>275.0</ele><time>2026-04-10T15:46:49.001Z</time></trkpt><trkpt lat="43.42281415218878" lon="12.246038174638787"><ele>274.5</ele><time>2026-04-10T15:46:50.001Z</time></trkpt><trkpt lat="43.42256180638907" lon="12.24608510991591"><ele>274.0</ele><time>2026-04-10T15:46:51.001Z</time></trkpt><trkpt lat="43.42231065868315" lon="12.246132459255218"><ele>275.0</ele><time>2026-04-10T15:46:52.001Z</time></trkpt><trkpt lat="43.422060426172195" lon="12.246179214944307"><ele>276.0</ele><time>2026-04-10T15:46:53.001Z</time></trkpt><trkpt lat="43.42181040660177" lon="12.2462248484733"><ele>276.0</ele><time>2026-04-10T15:46:54.001Z</time></trkpt><trkpt lat="43.421558945609455" lon="12.246270985109206"><ele>276.0</ele><time>2026-04-10T15:46:55.001Z</time></trkpt><trkpt lat="43.42130755616359" lon="12.246319578229453"><ele>276.5</ele><time>2026-04-10T15:46:56.001Z</time></trkpt><trkpt lat="43.421057941143516" lon="12.24636975287712"><ele>277.0</ele><time>2026-04-10T15:46:57.001Z</time></trkpt><trkpt lat="43.420806354595264" lon="12.246416816664015"><ele>277.0</ele><time>2026-04-10T15:46:58.001Z</time></trkpt><trkpt lat="43.420555144963075" lon="12.246464556288156"><ele>277.0</ele><time>2026-04-10T15:46:59.001Z</time></trkpt><trkpt lat="43.42030415380618" lon="12.246511521482311"><ele>276.0</ele><time>2026-04-10T15:47:00.001Z</time></trkpt><trkpt lat="43.42005312500364" lon="12.246558231599499"><ele>275.0</ele><time>2026-04-10T15:47:01.001Z</time></trkpt><trkpt lat="43.4198021571478" lon="12.24660380996142"><ele>276.0</ele><time>2026-04-10T15:47:02.001Z</time></trkpt><trkpt lat="43.41955006260777" lon="12.246651404786443"><ele>277.0</ele><time>2026-04-10T15:47:03.001Z</time></trkpt><trkpt lat="43.41929947939853" lon="12.246697429446357"><ele>277.0</ele><time>2026-04-10T15:47:04.001Z</time></trkpt><trkpt lat="43.41904959811422" lon="12.246740728146055"><ele>277.0</ele><time>2026-04-10T15:47:05.001Z</time></trkpt><trkpt lat="43.41879883099768" lon="12.246784178362498"><ele>278.0</ele><time>2026-04-10T15:47:06.001Z</time></trkpt><trkpt lat="43.418546739316916" lon="12.246829756400798"><ele>279.0</ele><time>2026-04-10T15:47:07.001Z</time></trkpt><trkpt lat="43.418295025442966" lon="12.246878091825915"><ele>279.0</ele><time>2026-04-10T15:47:08.001Z</time></trkpt><trkpt lat="43.41804271506629" lon="12.246927392266704"><ele>279.0</ele><time>2026-04-10T15:47:09.001Z</time></trkpt><trkpt lat="43.41779145510453" lon="12.246973310193678"><ele>278.0</ele><time>2026-04-10T15:47:10.001Z</time></trkpt><trkpt lat="43.41754037486101" lon="12.247020457734878"><ele>277.0</ele><time>2026-04-10T15:47:11.001Z</time></trkpt><trkpt lat="43.417289849475964" lon="12.247067495180174"><ele>274.5</ele><time>2026-04-10T15:47:12.001Z</time></trkpt><trkpt lat="43.417038716283884" lon="12.247112574971089"><ele>272.0</ele><time>2026-04-10T15:47:13.001Z</time></trkpt><trkpt lat="43.416786265032" lon="12.247158634597486"><ele>272.0</ele><time>2026-04-10T15:47:14.001Z</time></trkpt><trkpt lat="43.416535547821475" lon="12.247208050994049"><ele>272.0</ele><time>2026-04-10T15:47:15.001Z</time></trkpt><trkpt lat="43.41628614108021" lon="12.247256681549693"><ele>272.5</ele><time>2026-04-10T15:47:16.001Z</time></trkpt><trkpt lat="43.416034228930535" lon="12.247304909658714"><ele>273.0</ele><time>2026-04-10T15:47:17.001Z</time></trkpt><trkpt lat="43.415782571301385" lon="12.247352617242463"><ele>273.0</ele><time>2026-04-10T15:47:18.001Z</time></trkpt><trkpt lat="43.415531862567164" lon="12.247401864685928"><ele>273.0</ele><time>2026-04-10T15:47:19.001Z</time></trkpt><trkpt lat="43.41528056598725" lon="12.247452615819526"><ele>272.5</ele><time>2026-04-10T15:47:20.001Z</time></trkpt><trkpt lat="43.415029719407" lon="12.247501873350576"><ele>272.0</ele><time>2026-04-10T15:47:21.001Z</time></trkpt><trkpt lat="43.41477799834664" lon="12.2475501021075"><ele>269.5</ele><time>2026-04-10T15:47:22.001Z</time></trkpt><trkpt lat="43.414527273335715" lon="12.24759764486529"><ele>267.0</ele><time>2026-04-10T15:47:23.001Z</time></trkpt><trkpt lat="43.41427673663972" lon="12.247644464815991"><ele>267.0</ele><time>2026-04-10T15:47:24.001Z</time></trkpt><trkpt lat="43.41402545536761" lon="12.247692476898955"><ele>267.0</ele><time>2026-04-10T15:47:25.001Z</time></trkpt><trkpt lat="43.413774824796796" lon="12.247742163538822"><ele>266.5</ele><time>2026-04-10T15:47:26.001Z</time></trkpt><trkpt lat="43.413523065231395" lon="12.247790398627744"><ele>266.0</ele><time>2026-04-10T15:47:27.001Z</time></trkpt><trkpt lat="43.41327073493929" lon="12.2478376015139"><ele>266.0</ele><time>2026-04-10T15:47:28.001Z</time></trkpt><trkpt lat="43.41301947083885" lon="12.247885562004434"><ele>266.0</ele><time>2026-04-10T15:47:29.002Z</time></trkpt><trkpt lat="43.4127672704164" lon="12.247933078702626"><ele>266.0</ele><time>2026-04-10T15:47:30.002Z</time></trkpt><trkpt lat="43.412516744705904" lon="12.247980608893151"><ele>266.0</ele><time>2026-04-10T15:47:31.002Z</time></trkpt><trkpt lat="43.412266227725866" lon="12.248028256424432"><ele>266.0</ele><time>2026-04-10T15:47:32.002Z</time></trkpt><trkpt lat="43.41201529756639" lon="12.248073775680165"><ele>266.0</ele><time>2026-04-10T15:47:33.002Z</time></trkpt><trkpt lat="43.41176355397755" lon="12.248117501139927"><ele>266.0</ele><time>2026-04-10T15:47:34.002Z</time></trkpt><trkpt lat="43.41151255940195" lon="12.248163468135932"><ele>266.0</ele><time>2026-04-10T15:47:35.002Z</time></trkpt><trkpt lat="43.41126310823955" lon="12.24821040298156"><ele>265.0</ele><time>2026-04-10T15:47:36.002Z</time></trkpt><trkpt lat="43.4110130276181" lon="12.248259445072367"><ele>264.0</ele><time>2026-04-10T15:47:37.002Z</time></trkpt><trkpt lat="43.41076218973753" lon="12.248309950511034"><ele>264.0</ele><time>2026-04-10T15:47:38.002Z</time></trkpt><trkpt lat="43.410512364718926" lon="12.248361789168753"><ele>264.0</ele><time>2026-04-10T15:47:39.002Z</time></trkpt><trkpt lat="43.41026180643783" lon="12.248412355557251"><ele>265.0</ele><time>2026-04-10T15:47:40.002Z</time></trkpt><trkpt lat="43.41001032002785" lon="12.248460055788627"><ele>266.0</ele><time>2026-04-10T15:47:41.002Z</time></trkpt><trkpt lat="43.40975969783716" lon="12.248507316704103"><ele>268.0</ele><time>2026-04-10T15:47:42.002Z</time></trkpt><trkpt lat="43.409509532875596" lon="12.248553680472988"><ele>270.0</ele><time>2026-04-10T15:47:43.002Z</time></trkpt><trkpt lat="43.40925980685512" lon="12.24859869738629"><ele>270.0</ele><time>2026-04-10T15:47:44.002Z</time></trkpt><trkpt lat="43.4090083756057" lon="12.248645160213286"><ele>270.0</ele><time>2026-04-10T15:47:45.002Z</time></trkpt><trkpt lat="43.40875731441535" lon="12.248691351320277"><ele>267.5</ele><time>2026-04-10T15:47:46.002Z</time></trkpt><trkpt lat="43.408505709157005" lon="12.248737464459364"><ele>265.0</ele><time>2026-04-10T15:47:47.002Z</time></trkpt><trkpt lat="43.408254373949255" lon="12.248783890689491"><ele>265.0</ele><time>2026-04-10T15:47:48.002Z</time></trkpt><trkpt lat="43.40800512413669" lon="12.248827553963938"><ele>265.0</ele><time>2026-04-10T15:47:49.002Z</time></trkpt><trkpt lat="43.407754472465136" lon="12.248866225900876"><ele>266.5</ele><time>2026-04-10T15:47:50.002Z</time></trkpt><trkpt lat="43.40750234308304" lon="12.248900568391742"><ele>268.0</ele><time>2026-04-10T15:47:51.002Z</time></trkpt><trkpt lat="43.407249566724126" lon="12.248928315754592"><ele>270.5</ele><time>2026-04-10T15:47:52.002Z</time></trkpt><trkpt lat="43.406995540572055" lon="12.248950765931149"><ele>273.0</ele><time>2026-04-10T15:47:53.002Z</time></trkpt><trkpt lat="43.406739836034255" lon="12.248968958051238"><ele>273.5</ele><time>2026-04-10T15:47:54.002Z</time></trkpt><trkpt lat="43.40648455140072" lon="12.248986079677865"><ele>274.0</ele><time>2026-04-10T15:47:55.002Z</time></trkpt><trkpt lat="43.406231306436446" lon="12.249001761883823"><ele>271.5</ele><time>2026-04-10T15:47:56.002Z</time></trkpt><trkpt lat="43.405975016071636" lon="12.249023373279297"><ele>269.0</ele><time>2026-04-10T15:47:57.002Z</time></trkpt><trkpt lat="43.405722668882945" lon="12.249044460148914"><ele>266.5</ele><time>2026-04-10T15:47:58.002Z</time></trkpt><trkpt lat="43.405471816328465" lon="12.249063599604515"><ele>264.0</ele><time>2026-04-10T15:47:59.002Z</time></trkpt><trkpt lat="43.405220434475645" lon="12.249081526495097"><ele>264.0</ele><time>2026-04-10T15:48:00.002Z</time></trkpt><trkpt lat="43.40496694417658" lon="12.249097366873698"><ele>264.0</ele><time>2026-04-10T15:48:01.002Z</time></trkpt><trkpt lat="43.404713814326435" lon="12.249111652847029"><ele>263.5</ele><time>2026-04-10T15:48:02.002Z</time></trkpt><trkpt lat="43.40446049679869" lon="12.249126159052453"><ele>263.0</ele><time>2026-04-10T15:48:03.002Z</time></trkpt><trkpt lat="43.40420790614555" lon="12.249141918538538"><ele>263.0</ele><time>2026-04-10T15:48:04.002Z</time></trkpt><trkpt lat="43.40395478750643" lon="12.249158446038608"><ele>263.0</ele><time>2026-04-10T15:48:05.002Z</time></trkpt><trkpt lat="43.40370192121875" lon="12.249176098293455"><ele>262.5</ele><time>2026-04-10T15:48:06.002Z</time></trkpt><trkpt lat="43.40345109224467" lon="12.249191094400436"><ele>262.0</ele><time>2026-04-10T15:48:07.002Z</time></trkpt><trkpt lat="43.403199233761775" lon="12.249205479430813"><ele>263.5</ele><time>2026-04-10T15:48:08.002Z</time></trkpt><trkpt lat="43.40294799480302" lon="12.249221071426861"><ele>265.0</ele><time>2026-04-10T15:48:09.002Z</time></trkpt><trkpt lat="43.402695173192456" lon="12.249236815307434"><ele>265.0</ele><time>2026-04-10T15:48:10.002Z</time></trkpt><trkpt lat="43.40244231546363" lon="12.249254007304556"><ele>265.0</ele><time>2026-04-10T15:48:11.002Z</time></trkpt><trkpt lat="43.40218932003096" lon="12.249270166848362"><ele>263.5</ele><time>2026-04-10T15:48:12.002Z</time></trkpt><trkpt lat="43.40193056549338" lon="12.249287452287213"><ele>262.0</ele><time>2026-04-10T15:48:13.002Z</time></trkpt><trkpt lat="43.401677622072754" lon="12.249302208554527"><ele>262.0</ele><time>2026-04-10T15:48:14.002Z</time></trkpt><trkpt lat="43.401425616359774" lon="12.249316820489117"><ele>262.0</ele><time>2026-04-10T15:48:15.002Z</time></trkpt><trkpt lat="43.4011738252151" lon="12.249331966211718"><ele>262.5</ele><time>2026-04-10T15:48:16.002Z</time></trkpt><trkpt lat="43.40092181580977" lon="12.249349119101883"><ele>263.0</ele><time>2026-04-10T15:48:17.003Z</time></trkpt><trkpt lat="43.40066941859129" lon="12.249365307990734"><ele>263.0</ele><time>2026-04-10T15:48:18.003Z</time></trkpt><trkpt lat="43.40041698764853" lon="12.249382657425484"><ele>263.0</ele><time>2026-04-10T15:48:19.001Z</time></trkpt><trkpt lat="43.40016472914285" lon="12.249399069354354"><ele>263.0</ele><time>2026-04-10T15:48:20.001Z</time></trkpt><trkpt lat="43.39991309121612" lon="12.24941418281651"><ele>263.0</ele><time>2026-04-10T15:48:21.001Z</time></trkpt><trkpt lat="43.39966077779801" lon="12.249430692538072"><ele>262.0</ele><time>2026-04-10T15:48:22.001Z</time></trkpt><trkpt lat="43.399407568056624" lon="12.249448580393517"><ele>261.0</ele><time>2026-04-10T15:48:23.001Z</time></trkpt><trkpt lat="43.39915356535849" lon="12.249465650345376"><ele>261.0</ele><time>2026-04-10T15:48:24.001Z</time></trkpt><trkpt lat="43.39889980714052" lon="12.249482782804478"><ele>261.0</ele><time>2026-04-10T15:48:25.001Z</time></trkpt><trkpt lat="43.39864593546161" lon="12.249500995041373"><ele>261.0</ele><time>2026-04-10T15:48:26.001Z</time></trkpt><trkpt lat="43.39839452031236" lon="12.249519740794138"><ele>261.0</ele><time>2026-04-10T15:48:27.001Z</time></trkpt><trkpt lat="43.39814156552983" lon="12.249538494035278"><ele>261.0</ele><time>2026-04-10T15:48:28.001Z</time></trkpt><trkpt lat="43.39788966123415" lon="12.249555239389357"><ele>261.0</ele><time>2026-04-10T15:48:29.001Z</time></trkpt><trkpt lat="43.39763627725552" lon="12.249571407768661"><ele>261.0</ele><time>2026-04-10T15:48:30.001Z</time></trkpt><trkpt lat="43.39738383293187" lon="12.249587734595003"><ele>261.0</ele><time>2026-04-10T15:48:31.001Z</time></trkpt><trkpt lat="43.3971303573719" lon="12.24960367455388"><ele>260.5</ele><time>2026-04-10T15:48:32.001Z</time></trkpt><trkpt lat="43.39687768347432" lon="12.249617746290193"><ele>260.0</ele><time>2026-04-10T15:48:33.001Z</time></trkpt><trkpt lat="43.39662402323631" lon="12.249632992165685"><ele>260.0</ele><time>2026-04-10T15:48:34.001Z</time></trkpt><trkpt lat="43.39637153096142" lon="12.249650090039474"><ele>260.0</ele><time>2026-04-10T15:48:35.001Z</time></trkpt><trkpt lat="43.39611881099459" lon="12.249667654618639"><ele>260.0</ele><time>2026-04-10T15:48:36.001Z</time></trkpt><trkpt lat="43.39586639296242" lon="12.249684588291435"><ele>260.0</ele><time>2026-04-10T15:48:37.001Z</time></trkpt><trkpt lat="43.39561395324998" lon="12.249702176254994"><ele>260.5</ele><time>2026-04-10T15:48:38.001Z</time></trkpt><trkpt lat="43.395361300065936" lon="12.249719371747377"><ele>261.0</ele><time>2026-04-10T15:48:39.001Z</time></trkpt><trkpt lat="43.39510782952061" lon="12.249735854912215"><ele>261.0</ele><time>2026-04-10T15:48:40.001Z</time></trkpt><trkpt lat="43.3948550843696" lon="12.249750073444822"><ele>261.0</ele><time>2026-04-10T15:48:41.001Z</time></trkpt><trkpt lat="43.394602807544146" lon="12.24976530808419"><ele>262.5</ele><time>2026-04-10T15:48:42.001Z</time></trkpt><trkpt lat="43.39434974487801" lon="12.249779350600129"><ele>264.0</ele><time>2026-04-10T15:48:43.001Z</time></trkpt><trkpt lat="43.39409658300771" lon="12.249794463860416"><ele>264.5</ele><time>2026-04-10T15:48:44.001Z</time></trkpt><trkpt lat="43.393843769069875" lon="12.249809305324392"><ele>265.0</ele><time>2026-04-10T15:48:45.001Z</time></trkpt><trkpt lat="43.39359132906502" lon="12.249823856454608"><ele>265.0</ele><time>2026-04-10T15:48:46.001Z</time></trkpt><trkpt lat="43.39333879166089" lon="12.249838342773463"><ele>265.0</ele><time>2026-04-10T15:48:47.001Z</time></trkpt><trkpt lat="43.39308650125028" lon="12.249854568996781"><ele>265.5</ele><time>2026-04-10T15:48:48.001Z</time></trkpt><trkpt lat="43.392833939116166" lon="12.24987273572194"><ele>266.0</ele><time>2026-04-10T15:48:49.001Z</time></trkpt><trkpt lat="43.392581039826325" lon="12.249890422750816"><ele>266.0</ele><time>2026-04-10T15:48:50.001Z</time></trkpt><trkpt lat="43.39232797368166" lon="12.249907533238616"><ele>266.0</ele><time>2026-04-10T15:48:51.001Z</time></trkpt><trkpt lat="43.392074759614616" lon="12.249924534369061"><ele>266.5</ele><time>2026-04-10T15:48:52.001Z</time></trkpt><trkpt lat="43.391821350621036" lon="12.249941226428064"><ele>267.0</ele><time>2026-04-10T15:48:53.001Z</time></trkpt><trkpt lat="43.391568418915156" lon="12.24995803602865"><ele>266.5</ele><time>2026-04-10T15:48:54.001Z</time></trkpt><trkpt lat="43.39131111660163" lon="12.249976006991274"><ele>266.0</ele><time>2026-04-10T15:48:55.001Z</time></trkpt><trkpt lat="43.39105844728275" lon="12.24999397224944"><ele>266.0</ele><time>2026-04-10T15:48:56.001Z</time></trkpt><trkpt lat="43.390805661639455" lon="12.250011341725655"><ele>266.0</ele><time>2026-04-10T15:48:57.001Z</time></trkpt><trkpt lat="43.39055276688342" lon="12.250027212991005"><ele>265.5</ele><time>2026-04-10T15:48:58.001Z</time></trkpt><trkpt lat="43.39030069383605" lon="12.25004244143163"><ele>265.0</ele><time>2026-04-10T15:48:59.001Z</time></trkpt><trkpt lat="43.39004810842588" lon="12.250057386827093"><ele>265.0</ele><time>2026-04-10T15:49:00.001Z</time></trkpt><trkpt lat="43.38979578315011" lon="12.250069027409562"><ele>265.0</ele><time>2026-04-10T15:49:01.001Z</time></trkpt><trkpt lat="43.38954326560154" lon="12.250081302487303"><ele>264.0</ele><time>2026-04-10T15:49:02.001Z</time></trkpt><trkpt lat="43.38929019145985" lon="12.250095817793893"><ele>263.0</ele><time>2026-04-10T15:49:03.001Z</time></trkpt><trkpt lat="43.38903657485899" lon="12.250112185881058"><ele>262.5</ele><time>2026-04-10T15:49:04.001Z</time></trkpt><trkpt lat="43.38878346996119" lon="12.250128576631715"><ele>262.0</ele><time>2026-04-10T15:49:05.001Z</time></trkpt><trkpt lat="43.388530259651795" lon="12.250145440352737"><ele>262.0</ele><time>2026-04-10T15:49:06.001Z</time></trkpt><trkpt lat="43.38827803637669" lon="12.250162070219943"><ele>262.0</ele><time>2026-04-10T15:49:07.001Z</time></trkpt><trkpt lat="43.3880259001024" lon="12.25017857501479"><ele>260.5</ele><time>2026-04-10T15:49:08.001Z</time></trkpt><trkpt lat="43.38777272207925" lon="12.250195899876564"><ele>259.0</ele><time>2026-04-10T15:49:09.001Z</time></trkpt><trkpt lat="43.38751966627749" lon="12.250215387943108"><ele>259.0</ele><time>2026-04-10T15:49:10.001Z</time></trkpt><trkpt lat="43.3872661065516" lon="12.25023371633403"><ele>259.0</ele><time>2026-04-10T15:49:11.001Z</time></trkpt><trkpt lat="43.387012963772214" lon="12.250248915908998"><ele>259.5</ele><time>2026-04-10T15:49:12.001Z</time></trkpt><trkpt lat="43.38675775927772" lon="12.250263032397493"><ele>260.0</ele><time>2026-04-10T15:49:13.001Z</time></trkpt><trkpt lat="43.38650490800543" lon="12.250277304615205"><ele>261.0</ele><time>2026-04-10T15:49:14.001Z</time></trkpt><trkpt lat="43.386252520407005" lon="12.250292753211163"><ele>262.0</ele><time>2026-04-10T15:49:15.001Z</time></trkpt><trkpt lat="43.38599962072035" lon="12.250307760531873"><ele>262.0</ele><time>2026-04-10T15:49:16.001Z</time></trkpt><trkpt lat="43.38574786733564" lon="12.250323039806771"><ele>262.0</ele><time>2026-04-10T15:49:17.001Z</time></trkpt><trkpt lat="43.38549584252934" lon="12.250341592445892"><ele>262.5</ele><time>2026-04-10T15:49:18.001Z</time></trkpt><trkpt lat="43.38524320035593" lon="12.25036259601616"><ele>263.0</ele><time>2026-04-10T15:49:19.001Z</time></trkpt><trkpt lat="43.38499081187939" lon="12.250388601001003"><ele>263.0</ele><time>2026-04-10T15:49:20.001Z</time></trkpt><trkpt lat="43.38473725471487" lon="12.250421541193738"><ele>263.0</ele><time>2026-04-10T15:49:21.001Z</time></trkpt><trkpt lat="43.38448641556462" lon="12.250462800628522"><ele>263.0</ele><time>2026-04-10T15:49:22.001Z</time></trkpt><trkpt lat="43.38423613491375" lon="12.250510704662934"><ele>263.0</ele><time>2026-04-10T15:49:23.001Z</time></trkpt><trkpt lat="43.383985515465895" lon="12.250564635067596"><ele>263.0</ele><time>2026-04-10T15:49:24.001Z</time></trkpt><trkpt lat="43.3837368450602" lon="12.250622790135278"><ele>263.0</ele><time>2026-04-10T15:49:25.001Z</time></trkpt><trkpt lat="43.38348836634565" lon="12.250687994013177"><ele>263.0</ele><time>2026-04-10T15:49:26.001Z</time></trkpt><trkpt lat="43.383240855162086" lon="12.250762633448222"><ele>263.0</ele><time>2026-04-10T15:49:27.001Z</time></trkpt><trkpt lat="43.38299328930278" lon="12.250845310393991"><ele>263.5</ele><time>2026-04-10T15:49:28.001Z</time></trkpt><trkpt lat="43.382747611926526" lon="12.25093369852291"><ele>264.0</ele><time>2026-04-10T15:49:29.001Z</time></trkpt><trkpt lat="43.38250330500961" lon="12.251026053511408"><ele>264.0</ele><time>2026-04-10T15:49:30.001Z</time></trkpt><trkpt lat="43.38226033576113" lon="12.251124195825286"><ele>264.0</ele><time>2026-04-10T15:49:31.001Z</time></trkpt><trkpt lat="43.38201843786414" lon="12.251227806713938"><ele>264.0</ele><time>2026-04-10T15:49:32.001Z</time></trkpt><trkpt lat="43.38177788518189" lon="12.251337807925784"><ele>264.0</ele><time>2026-04-10T15:49:33.001Z</time></trkpt><trkpt lat="43.381539012201806" lon="12.251453793482913"><ele>264.0</ele><time>2026-04-10T15:49:34.002Z</time></trkpt><trkpt lat="43.381301236117125" lon="12.251573538942798"><ele>264.0</ele><time>2026-04-10T15:49:35.002Z</time></trkpt><trkpt lat="43.38106506571849" lon="12.251700946762696"><ele>264.0</ele><time>2026-04-10T15:49:36.002Z</time></trkpt><trkpt lat="43.38083355272559" lon="12.251835394703877"><ele>264.0</ele><time>2026-04-10T15:49:37.002Z</time></trkpt><trkpt lat="43.38060163469712" lon="12.251978322281767"><ele>264.0</ele><time>2026-04-10T15:49:38.002Z</time></trkpt><trkpt lat="43.38037264168124" lon="12.252129567717436"><ele>264.0</ele><time>2026-04-10T15:49:39.002Z</time></trkpt><trkpt lat="43.380146971005736" lon="12.252285628436436"><ele>264.5</ele><time>2026-04-10T15:49:40.002Z</time></trkpt><trkpt lat="43.3799236448876" lon="12.25244733278571"><ele>265.0</ele><time>2026-04-10T15:49:41.002Z</time></trkpt><trkpt lat="43.379701344820035" lon="12.2526145595885"><ele>265.0</ele><time>2026-04-10T15:49:42.002Z</time></trkpt><trkpt lat="43.37948203426414" lon="12.252786938942121"><ele>265.0</ele><time>2026-04-10T15:49:43.002Z</time></trkpt><trkpt lat="43.37926407329692" lon="12.252963144605395"><ele>266.5</ele><time>2026-04-10T15:49:44.002Z</time></trkpt><trkpt lat="43.37904562439194" lon="12.253139655474998"><ele>268.0</ele><time>2026-04-10T15:49:45.002Z</time></trkpt><trkpt lat="43.378827283138406" lon="12.25331602223706"><ele>268.0</ele><time>2026-04-10T15:49:46.002Z</time></trkpt><trkpt lat="43.37860807040485" lon="12.253487134092959"><ele>268.0</ele><time>2026-04-10T15:49:47.002Z</time></trkpt><trkpt lat="43.37838693455003" lon="12.253659059724791"><ele>268.0</ele><time>2026-04-10T15:49:48.002Z</time></trkpt><trkpt lat="43.37816966459278" lon="12.253833671981086"><ele>268.0</ele><time>2026-04-10T15:49:49.002Z</time></trkpt><trkpt lat="43.37795179005276" lon="12.25400967287017"><ele>271.0</ele><time>2026-04-10T15:49:50.002Z</time></trkpt><trkpt lat="43.37773250561458" lon="12.254181720466221"><ele>274.0</ele><time>2026-04-10T15:49:51.002Z</time></trkpt><trkpt lat="43.37751243264829" lon="12.254355034017946"><ele>274.0</ele><time>2026-04-10T15:49:52.002Z</time></trkpt><trkpt lat="43.37729332455013" lon="12.254527409920241"><ele>274.0</ele><time>2026-04-10T15:49:53.002Z</time></trkpt><trkpt lat="43.377072797389815" lon="12.254702662336808"><ele>273.5</ele><time>2026-04-10T15:49:54.002Z</time></trkpt><trkpt lat="43.37685385083741" lon="12.254876769060337"><ele>273.0</ele><time>2026-04-10T15:49:55.002Z</time></trkpt><trkpt lat="43.376635163880366" lon="12.255053189035388"><ele>273.0</ele><time>2026-04-10T15:49:56.002Z</time></trkpt><trkpt lat="43.37641648798008" lon="12.255227320938209"><ele>273.0</ele><time>2026-04-10T15:49:57.002Z</time></trkpt><trkpt lat="43.376196326325605" lon="12.255398917779155"><ele>273.5</ele><time>2026-04-10T15:49:58.002Z</time></trkpt><trkpt lat="43.37597672840766" lon="12.2555681478486"><ele>274.0</ele><time>2026-04-10T15:49:59.002Z</time></trkpt><trkpt lat="43.37575538623259" lon="12.255739017921409"><ele>275.0</ele><time>2026-04-10T15:50:00.002Z</time></trkpt><trkpt lat="43.37553361556083" lon="12.255909275882296"><ele>276.0</ele><time>2026-04-10T15:50:01.002Z</time></trkpt><trkpt lat="43.37531259643878" lon="12.256076037664014"><ele>276.0</ele><time>2026-04-10T15:50:02.002Z</time></trkpt><trkpt lat="43.37509197889448" lon="12.256245576181099"><ele>276.0</ele><time>2026-04-10T15:50:03.002Z</time></trkpt><trkpt lat="43.374872317751" lon="12.256413063090145"><ele>277.0</ele><time>2026-04-10T15:50:04.002Z</time></trkpt><trkpt lat="43.37465209244901" lon="12.256582685618394"><ele>278.0</ele><time>2026-04-10T15:50:05.002Z</time></trkpt><trkpt lat="43.3744325479903" lon="12.256755120989764"><ele>278.0</ele><time>2026-04-10T15:50:06.002Z</time></trkpt><trkpt lat="43.37421266607895" lon="12.256928501033117"><ele>278.0</ele><time>2026-04-10T15:50:07.002Z</time></trkpt><trkpt lat="43.37399279779114" lon="12.257100210023545"><ele>278.0</ele><time>2026-04-10T15:50:08.002Z</time></trkpt><trkpt lat="43.373770415342435" lon="12.25727036638679"><ele>278.0</ele><time>2026-04-10T15:50:09.002Z</time></trkpt><trkpt lat="43.37355138162539" lon="12.257442498669802"><ele>277.5</ele><time>2026-04-10T15:50:10.002Z</time></trkpt><trkpt lat="43.37333133974418" lon="12.257614302780064"><ele>277.0</ele><time>2026-04-10T15:50:11.002Z</time></trkpt><trkpt lat="43.373112650607986" lon="12.257787358301268"><ele>275.5</ele><time>2026-04-10T15:50:12.002Z</time></trkpt><trkpt lat="43.37289346929743" lon="12.257962696009669"><ele>274.0</ele><time>2026-04-10T15:50:13.002Z</time></trkpt><trkpt lat="43.37267621713608" lon="12.258141459588062"><ele>274.0</ele><time>2026-04-10T15:50:14.002Z</time></trkpt><trkpt lat="43.3724578172865" lon="12.25831600493859"><ele>274.0</ele><time>2026-04-10T15:50:15.002Z</time></trkpt><trkpt lat="43.37223955553961" lon="12.258490678022934"><ele>273.0</ele><time>2026-04-10T15:50:16.002Z</time></trkpt><trkpt lat="43.37202081454592" lon="12.25866490055878"><ele>272.0</ele><time>2026-04-10T15:50:17.002Z</time></trkpt><trkpt lat="43.37180040847078" lon="12.258836856963798"><ele>271.5</ele><time>2026-04-10T15:50:18.002Z</time></trkpt><trkpt lat="43.371578884705215" lon="12.259005097181802"><ele>271.0</ele><time>2026-04-10T15:50:19.002Z</time></trkpt><trkpt lat="43.37135792155327" lon="12.259177997477027"><ele>272.0</ele><time>2026-04-10T15:50:20.002Z</time></trkpt><trkpt lat="43.37113874285131" lon="12.259350196632594"><ele>273.0</ele><time>2026-04-10T15:50:21.002Z</time></trkpt><trkpt lat="43.37091876598453" lon="12.259523181657576"><ele>273.0</ele><time>2026-04-10T15:50:22.002Z</time></trkpt><trkpt lat="43.370698221158015" lon="12.259695944243301"><ele>273.0</ele><time>2026-04-10T15:50:23.002Z</time></trkpt><trkpt lat="43.37047922351511" lon="12.259866033826984"><ele>280.0</ele><time>2026-04-10T15:50:24.002Z</time></trkpt><trkpt lat="43.370261083107636" lon="12.260037732488017"><ele>287.0</ele><time>2026-04-10T15:50:25.001Z</time></trkpt><trkpt lat="43.37004094555747" lon="12.260209102040918"><ele>287.0</ele><time>2026-04-10T15:50:26.001Z</time></trkpt><trkpt lat="43.369821251979204" lon="12.26038157060734"><ele>287.0</ele><time>2026-04-10T15:50:27.001Z</time></trkpt><trkpt lat="43.36960158977189" lon="12.260554411283108"><ele>286.0</ele><time>2026-04-10T15:50:28.001Z</time></trkpt><trkpt lat="43.36938282058722" lon="12.260728304681189"><ele>285.0</ele><time>2026-04-10T15:50:29.001Z</time></trkpt><trkpt lat="43.369167009175555" lon="12.260908748590813"><ele>285.0</ele><time>2026-04-10T15:50:30.001Z</time></trkpt><trkpt lat="43.36895286452438" lon="12.261094542193163"><ele>285.0</ele><time>2026-04-10T15:50:31.001Z</time></trkpt><trkpt lat="43.368736649677494" lon="12.261287307518815"><ele>283.5</ele><time>2026-04-10T15:50:32.001Z</time></trkpt><trkpt lat="43.368524566139904" lon="12.261478940891948"><ele>282.0</ele><time>2026-04-10T15:50:33.001Z</time></trkpt><trkpt lat="43.36831762703288" lon="12.261678879695717"><ele>282.0</ele><time>2026-04-10T15:50:34.001Z</time></trkpt><trkpt lat="43.368111752647025" lon="12.26188124003029"><ele>282.0</ele><time>2026-04-10T15:50:35.001Z</time></trkpt><trkpt lat="43.367917901392566" lon="12.262079902575065"><ele>280.6666666666667</ele><time>2026-04-10T15:50:36.001Z</time></trkpt><trkpt lat="43.367736643454926" lon="12.26227270185404"><ele>279.33333333333337</ele><time>2026-04-10T15:50:37.001Z</time></trkpt><trkpt lat="43.36756467257685" lon="12.262460577989149"><ele>278.0</ele><time>2026-04-10T15:50:38.001Z</time></trkpt><trkpt lat="43.36739258787205" lon="12.262655998424359"><ele>278.0</ele><time>2026-04-10T15:50:39.001Z</time></trkpt><trkpt lat="43.367223564701035" lon="12.262855434476473"><ele>278.0</ele><time>2026-04-10T15:50:40.001Z</time></trkpt><trkpt lat="43.36705787922305" lon="12.263062016395967"><ele>278.0</ele><time>2026-04-10T15:50:41.001Z</time></trkpt><trkpt lat="43.36689352527812" lon="12.263271656925562"><ele>278.0</ele><time>2026-04-10T15:50:42.001Z</time></trkpt><trkpt lat="43.36672993857094" lon="12.263480193137665"><ele>278.0</ele><time>2026-04-10T15:50:43.001Z</time></trkpt><trkpt lat="43.36656859654027" lon="12.263693017582506"><ele>278.0</ele><time>2026-04-10T15:50:44.001Z</time></trkpt><trkpt lat="43.36641080781274" lon="12.263908215981864"><ele>277.6666666666667</ele><time>2026-04-10T15:50:45.001Z</time></trkpt><trkpt lat="43.366258769615726" lon="12.264124189316238"><ele>277.3333333333333</ele><time>2026-04-10T15:50:46.001Z</time></trkpt><trkpt lat="43.366113400696236" lon="12.264344925610295"><ele>277.0</ele><time>2026-04-10T15:50:47.001Z</time></trkpt><trkpt lat="43.36597290914814" lon="12.264566976027725"><ele>277.66666666666663</ele><time>2026-04-10T15:50:48.001Z</time></trkpt><trkpt lat="43.36583463345255" lon="12.264788173856855"><ele>278.3333333333333</ele><time>2026-04-10T15:50:49.001Z</time></trkpt><trkpt lat="43.36569641587146" lon="12.26501132160955"><ele>279.0</ele><time>2026-04-10T15:50:50.001Z</time></trkpt><trkpt lat="43.36555951975101" lon="12.265237535708614"><ele>279.0</ele><time>2026-04-10T15:50:51.001Z</time></trkpt><trkpt lat="43.36542548001818" lon="12.265469084442879"><ele>279.0</ele><time>2026-04-10T15:50:52.001Z</time></trkpt><trkpt lat="43.36529637782316" lon="12.265703075036008"><ele>279.0</ele><time>2026-04-10T15:50:53.001Z</time></trkpt><trkpt lat="43.36517067878514" lon="12.265940099184002"><ele>279.0</ele><time>2026-04-10T15:50:54.001Z</time></trkpt><trkpt lat="43.36504952490089" lon="12.266179271637085"><ele>279.0</ele><time>2026-04-10T15:50:55.001Z</time></trkpt><trkpt lat="43.364931284631254" lon="12.266416933315513"><ele>279.0</ele><time>2026-04-10T15:50:56.001Z</time></trkpt><trkpt lat="43.364813572764945" lon="12.266660828101744"><ele>280.0</ele><time>2026-04-10T15:50:57.001Z</time></trkpt><trkpt lat="43.36469866773934" lon="12.266906174316016"><ele>281.0</ele><time>2026-04-10T15:50:58.001Z</time></trkpt><trkpt lat="43.36458492882254" lon="12.2671568807198"><ele>282.0</ele><time>2026-04-10T15:50:59.001Z</time></trkpt><trkpt lat="43.36447100154703" lon="12.26740367803624"><ele>280.6666666666667</ele><time>2026-04-10T15:51:00.001Z</time></trkpt><trkpt lat="43.364358981480656" lon="12.267648989438076"><ele>279.33333333333337</ele><time>2026-04-10T15:51:01.001Z</time></trkpt><trkpt lat="43.364244448357944" lon="12.267890405665208"><ele>278.0</ele><time>2026-04-10T15:51:02.001Z</time></trkpt><trkpt lat="43.364125501087834" lon="12.268126291768164"><ele>278.0</ele><time>2026-04-10T15:51:03.001Z</time></trkpt><trkpt lat="43.36400555999113" lon="12.268366513505775"><ele>278.0</ele><time>2026-04-10T15:51:04.001Z</time></trkpt><trkpt lat="43.36388435689697" lon="12.268611116277588"><ele>278.0</ele><time>2026-04-10T15:51:05.001Z</time></trkpt><trkpt lat="43.36376320005418" lon="12.268851777319298"><ele>278.33333333333337</ele><time>2026-04-10T15:51:06.001Z</time></trkpt><trkpt lat="43.363644293654765" lon="12.269090619996025"><ele>278.6666666666667</ele><time>2026-04-10T15:51:07.001Z</time></trkpt><trkpt lat="43.363523387058045" lon="12.269328139227492"><ele>279.0</ele><time>2026-04-10T15:51:08.001Z</time></trkpt><trkpt lat="43.363408558800195" lon="12.269557939488559"><ele>279.0</ele><time>2026-04-10T15:51:09.001Z</time></trkpt><trkpt lat="43.36329950532937" lon="12.269773906937829"><ele>279.0</ele><time>2026-04-10T15:51:10.001Z</time></trkpt><trkpt lat="43.36319335600582" lon="12.269983232294207"><ele>279.0</ele><time>2026-04-10T15:51:11.001Z</time></trkpt><trkpt lat="43.363089730133076" lon="12.270189973126728"><ele>276.6666666666667</ele><time>2026-04-10T15:51:12.001Z</time></trkpt><trkpt lat="43.362985016474646" lon="12.270394039298333"><ele>274.33333333333337</ele><time>2026-04-10T15:51:13.001Z</time></trkpt><trkpt lat="43.36288327891821" lon="12.270594153571004"><ele>272.0</ele><time>2026-04-10T15:51:14.001Z</time></trkpt><trkpt lat="43.362782431469185" lon="12.270791540308252"><ele>272.0</ele><time>2026-04-10T15:51:15.001Z</time></trkpt><trkpt lat="43.362679292876294" lon="12.270989563669655"><ele>272.0</ele><time>2026-04-10T15:51:16.001Z</time></trkpt><trkpt lat="43.36257972293595" lon="12.271182622979932"><ele>272.0</ele><time>2026-04-10T15:51:17.001Z</time></trkpt><trkpt lat="43.362489047068834" lon="12.271355360737468"><ele>270.75</ele><time>2026-04-10T15:51:18.001Z</time></trkpt><trkpt lat="43.362392650358" lon="12.271512828423214"><ele>269.5</ele><time>2026-04-10T15:51:19.001Z</time></trkpt><trkpt lat="43.362283974917155" lon="12.271650486035883"><ele>268.25</ele><time>2026-04-10T15:51:20.001Z</time></trkpt><trkpt lat="43.36216473745794" lon="12.271772797388987"><ele>267.0</ele><time>2026-04-10T15:51:21.001Z</time></trkpt><trkpt lat="43.36204110519211" lon="12.271885855257059"><ele>266.0</ele><time>2026-04-10T15:51:22.001Z</time></trkpt><trkpt lat="43.3619250598514" lon="12.271995820827152"><ele>265.0</ele><time>2026-04-10T15:51:23.001Z</time></trkpt><trkpt lat="43.361815817823576" lon="12.272099339518778"><ele>264.0</ele><time>2026-04-10T15:51:24.001Z</time></trkpt><trkpt lat="43.361604015689316" lon="12.271963854061658"><ele>264.0</ele><time>2026-04-10T15:51:25.001Z</time></trkpt><trkpt lat="43.36147527575547" lon="12.271955578805738"><ele>264.0</ele><time>2026-04-10T15:51:26.001Z</time></trkpt><trkpt lat="43.361346279518386" lon="12.271943063800821"><ele>264.0</ele><time>2026-04-10T15:51:27.001Z</time></trkpt><trkpt lat="43.36121387390422" lon="12.271932283024706"><ele>264.0</ele><time>2026-04-10T15:51:28.001Z</time></trkpt><trkpt lat="43.36107391128804" lon="12.271910328107166"><ele>262.25</ele><time>2026-04-10T15:51:29.001Z</time></trkpt><trkpt lat="43.36092978656922" lon="12.271884737820198"><ele>260.5</ele><time>2026-04-10T15:51:30.001Z</time></trkpt><trkpt lat="43.360785482804154" lon="12.271860696916779"><ele>258.75</ele><time>2026-04-10T15:51:31.001Z</time></trkpt><trkpt lat="43.360645880166665" lon="12.271839322889576"><ele>257.0</ele><time>2026-04-10T15:51:32.001Z</time></trkpt><trkpt lat="43.36050861067927" lon="12.27182498585985"><ele>256.0</ele><time>2026-04-10T15:51:33.001Z</time></trkpt><trkpt lat="43.360372575860225" lon="12.27182041192369"><ele>255.0</ele><time>2026-04-10T15:51:34.001Z</time></trkpt><trkpt lat="43.36023975281324" lon="12.271835229845303"><ele>254.0</ele><time>2026-04-10T15:51:35.001Z</time></trkpt><trkpt lat="43.36011409165301" lon="12.27188988558338"><ele>253.0</ele><time>2026-04-10T15:51:36.001Z</time></trkpt><trkpt lat="43.359996710051014" lon="12.271973652197625"><ele>253.0</ele><time>2026-04-10T15:51:37.001Z</time></trkpt><trkpt lat="43.3598975188917" lon="12.272088562468603"><ele>253.0</ele><time>2026-04-10T15:51:38.001Z</time></trkpt><trkpt lat="43.359804961377854" lon="12.27222624500267"><ele>253.0</ele><time>2026-04-10T15:51:39.001Z</time></trkpt><trkpt lat="43.35972774809275" lon="12.272387670712588"><ele>253.0</ele><time>2026-04-10T15:51:40.001Z</time></trkpt><trkpt lat="43.359668890153415" lon="12.27257700305718"><ele>252.66666666666666</ele><time>2026-04-10T15:51:41.001Z</time></trkpt><trkpt lat="43.35962021128502" lon="12.272784439293144"><ele>252.33333333333331</ele><time>2026-04-10T15:51:42.001Z</time></trkpt><trkpt lat="43.359576456827575" lon="12.272997424412818"><ele>252.0</ele><time>2026-04-10T15:51:43.001Z</time></trkpt><trkpt lat="43.35953564338907" lon="12.273209337334254"><ele>253.0</ele><time>2026-04-10T15:51:44.001Z</time></trkpt><trkpt lat="43.359488900480244" lon="12.27342224064268"><ele>254.0</ele><time>2026-04-10T15:51:45.001Z</time></trkpt><trkpt lat="43.35944076709232" lon="12.27363274110686"><ele>255.0</ele><time>2026-04-10T15:51:46.002Z</time></trkpt><trkpt lat="43.359388889940405" lon="12.273840313221072"><ele>256.3333333333333</ele><time>2026-04-10T15:51:47.002Z</time></trkpt><trkpt lat="43.359326489556416" lon="12.27403977602695"><ele>257.66666666666663</ele><time>2026-04-10T15:51:48.002Z</time></trkpt><trkpt lat="43.35924872114135" lon="12.274228551527283"><ele>259.0</ele><time>2026-04-10T15:51:49.002Z</time></trkpt><trkpt lat="43.359158579404806" lon="12.274409817193778"><ele>259.0</ele><time>2026-04-10T15:51:50.002Z</time></trkpt><trkpt lat="43.359059745883144" lon="12.274584564848693"><ele>259.0</ele><time>2026-04-10T15:51:51.002Z</time></trkpt><trkpt lat="43.358951608050276" lon="12.274753911548839"><ele>259.0</ele><time>2026-04-10T15:51:52.002Z</time></trkpt><trkpt lat="43.35883293976214" lon="12.274911339812098"><ele>260.0</ele><time>2026-04-10T15:51:53.002Z</time></trkpt><trkpt lat="43.35870881914416" lon="12.275046918621337"><ele>261.0</ele><time>2026-04-10T15:51:54.002Z</time></trkpt><trkpt lat="43.35858078959736" lon="12.275168225987704"><ele>262.0</ele><time>2026-04-10T15:51:55.002Z</time></trkpt><trkpt lat="43.358454252158715" lon="12.275292862820331"><ele>262.0</ele><time>2026-04-10T15:51:56.002Z</time></trkpt><trkpt lat="43.358331069596446" lon="12.275421307562814"><ele>262.0</ele><time>2026-04-10T15:51:57.002Z</time></trkpt><trkpt lat="43.35820842558525" lon="12.275553487828324"><ele>262.0</ele><time>2026-04-10T15:51:58.002Z</time></trkpt><trkpt lat="43.35808815095893" lon="12.275689959521074"><ele>261.3333333333333</ele><time>2026-04-10T15:51:59.002Z</time></trkpt><trkpt lat="43.35796656792756" lon="12.275831058036069"><ele>260.6666666666667</ele><time>2026-04-10T15:52:00.002Z</time></trkpt><trkpt lat="43.3578419690232" lon="12.27596789186704"><ele>260.0</ele><time>2026-04-10T15:52:01.002Z</time></trkpt><trkpt lat="43.35771165857916" lon="12.276098179888711"><ele>260.0</ele><time>2026-04-10T15:52:02.002Z</time></trkpt><trkpt lat="43.35758014995137" lon="12.276233977238265"><ele>260.0</ele><time>2026-04-10T15:52:03.002Z</time></trkpt><trkpt lat="43.35744798569244" lon="12.276374972068217"><ele>260.0</ele><time>2026-04-10T15:52:04.002Z</time></trkpt><trkpt lat="43.35731063960701" lon="12.27652181048376"><ele>259.6666666666667</ele><time>2026-04-10T15:52:05.002Z</time></trkpt><trkpt lat="43.35717313820809" lon="12.276669616188498"><ele>259.3333333333333</ele><time>2026-04-10T15:52:06.002Z</time></trkpt><trkpt lat="43.35703835030327" lon="12.276819619712077"><ele>259.0</ele><time>2026-04-10T15:52:07.002Z</time></trkpt><trkpt lat="43.356901164563766" lon="12.276966658631851"><ele>259.0</ele><time>2026-04-10T15:52:08.002Z</time></trkpt><trkpt lat="43.35676357371494" lon="12.27711389679128"><ele>259.0</ele><time>2026-04-10T15:52:09.002Z</time></trkpt><trkpt lat="43.35662412498167" lon="12.277264060628777"><ele>259.0</ele><time>2026-04-10T15:52:10.002Z</time></trkpt><trkpt lat="43.35648321497929" lon="12.277417025874652"><ele>258.0</ele><time>2026-04-10T15:52:11.002Z</time></trkpt><trkpt lat="43.356340564097245" lon="12.277569376250028"><ele>257.0</ele><time>2026-04-10T15:52:12.002Z</time></trkpt><trkpt lat="43.35619952574041" lon="12.277717580909895"><ele>256.0</ele><time>2026-04-10T15:52:13.002Z</time></trkpt><trkpt lat="43.35606055499122" lon="12.27786285142237"><ele>256.0</ele><time>2026-04-10T15:52:14.002Z</time></trkpt><trkpt lat="43.35592533737299" lon="12.27801008615969"><ele>256.0</ele><time>2026-04-10T15:52:15.002Z</time></trkpt><trkpt lat="43.35579208189657" lon="12.27815492085554"><ele>256.0</ele><time>2026-04-10T15:52:16.002Z</time></trkpt><trkpt lat="43.35566058180312" lon="12.278297847897427"><ele>256.0</ele><time>2026-04-10T15:52:17.002Z</time></trkpt><trkpt lat="43.35553373963204" lon="12.27844033002673"><ele>256.0</ele><time>2026-04-10T15:52:18.002Z</time></trkpt><trkpt lat="43.35540765510978" lon="12.278579773231076"><ele>256.0</ele><time>2026-04-10T15:52:19.002Z</time></trkpt><trkpt lat="43.35528394322573" lon="12.278713899576475"><ele>256.0</ele><time>2026-04-10T15:52:20.002Z</time></trkpt><trkpt lat="43.35515994187209" lon="12.278846518711475"><ele>256.0</ele><time>2026-04-10T15:52:21.002Z</time></trkpt><trkpt lat="43.35503290281597" lon="12.27898046168833"><ele>256.0</ele><time>2026-04-10T15:52:22.002Z</time></trkpt><trkpt lat="43.35490521068098" lon="12.279118724585672"><ele>256.0</ele><time>2026-04-10T15:52:23.002Z</time></trkpt><trkpt lat="43.35477671460096" lon="12.279258819078475"><ele>256.0</ele><time>2026-04-10T15:52:24.002Z</time></trkpt><trkpt lat="43.3546471039968" lon="12.279402724320859"><ele>256.0</ele><time>2026-04-10T15:52:25.002Z</time></trkpt><trkpt lat="43.354513505966395" lon="12.279547665715215"><ele>255.66666666666666</ele><time>2026-04-10T15:52:26.002Z</time></trkpt><trkpt lat="43.354376327374794" lon="12.279690456096947"><ele>255.33333333333331</ele><time>2026-04-10T15:52:27.002Z</time></trkpt><trkpt lat="43.35423887504744" lon="12.279835187779005"><ele>255.0</ele><time>2026-04-10T15:52:28.002Z</time></trkpt><trkpt lat="43.35410167885018" lon="12.279982904770986"><ele>255.0</ele><time>2026-04-10T15:52:29.002Z</time></trkpt><trkpt lat="43.353965688997576" lon="12.280130127263767"><ele>255.0</ele><time>2026-04-10T15:52:30.002Z</time></trkpt><trkpt lat="43.35383172312434" lon="12.280277063835845"><ele>255.0</ele><time>2026-04-10T15:52:31.001Z</time></trkpt><trkpt lat="43.3536997060434" lon="12.280421466762169"><ele>255.0</ele><time>2026-04-10T15:52:32.001Z</time></trkpt><trkpt lat="43.35356995033271" lon="12.280565432317426"><ele>255.0</ele><time>2026-04-10T15:52:33.001Z</time></trkpt><trkpt lat="43.35344137293598" lon="12.280705068581355"><ele>255.0</ele><time>2026-04-10T15:52:34.001Z</time></trkpt><trkpt lat="43.353314988093906" lon="12.280841865446991"><ele>255.0</ele><time>2026-04-10T15:52:35.001Z</time></trkpt><trkpt lat="43.35318574798054" lon="12.280981453776963"><ele>255.0</ele><time>2026-04-10T15:52:36.001Z</time></trkpt><trkpt lat="43.35305453837806" lon="12.281124930954778"><ele>255.0</ele><time>2026-04-10T15:52:37.001Z</time></trkpt><trkpt lat="43.3529228304139" lon="12.281269217630134"><ele>255.33333333333331</ele><time>2026-04-10T15:52:38.001Z</time></trkpt><trkpt lat="43.35278907689882" lon="12.281411806706945"><ele>255.66666666666666</ele><time>2026-04-10T15:52:39.001Z</time></trkpt><trkpt lat="43.352657704634076" lon="12.281550836294942"><ele>256.0</ele><time>2026-04-10T15:52:40.001Z</time></trkpt><trkpt lat="43.352527434380605" lon="12.281689290277901"><ele>256.0</ele><time>2026-04-10T15:52:41.001Z</time></trkpt><trkpt lat="43.352395880748794" lon="12.281830699906699"><ele>256.0</ele><time>2026-04-10T15:52:42.001Z</time></trkpt><trkpt lat="43.352261819947394" lon="12.281973354302998"><ele>256.0</ele><time>2026-04-10T15:52:43.001Z</time></trkpt><trkpt lat="43.352124496571285" lon="12.282120434567767"><ele>255.33333333333331</ele><time>2026-04-10T15:52:44.001Z</time></trkpt><trkpt lat="43.35198516522992" lon="12.282269397598531"><ele>254.66666666666669</ele><time>2026-04-10T15:52:45.001Z</time></trkpt><trkpt lat="43.35184682920676" lon="12.282418149823865"><ele>254.0</ele><time>2026-04-10T15:52:46.001Z</time></trkpt><trkpt lat="43.3517076522009" lon="12.282567386055836"><ele>254.0</ele><time>2026-04-10T15:52:47.001Z</time></trkpt><trkpt lat="43.351570808334145" lon="12.282718906080857"><ele>254.0</ele><time>2026-04-10T15:52:48.001Z</time></trkpt><trkpt lat="43.35143443205339" lon="12.282869543089417"><ele>254.0</ele><time>2026-04-10T15:52:49.001Z</time></trkpt><trkpt lat="43.351298077815045" lon="12.283016844733616"><ele>253.33333333333334</ele><time>2026-04-10T15:52:50.001Z</time></trkpt><trkpt lat="43.351162927630966" lon="12.283161211348066"><ele>252.66666666666669</ele><time>2026-04-10T15:52:51.001Z</time></trkpt><trkpt lat="43.35103374451269" lon="12.28330093679657"><ele>252.0</ele><time>2026-04-10T15:52:52.001Z</time></trkpt><trkpt lat="43.350901281040606" lon="12.283444345378973"><ele>252.0</ele><time>2026-04-10T15:52:53.001Z</time></trkpt><trkpt lat="43.35076512009566" lon="12.283591424868522"><ele>252.0</ele><time>2026-04-10T15:52:54.001Z</time></trkpt><trkpt lat="43.35062758930389" lon="12.283742633031459"><ele>252.0</ele><time>2026-04-10T15:52:55.001Z</time></trkpt><trkpt lat="43.35048610502274" lon="12.283897212349828"><ele>251.33333333333331</ele><time>2026-04-10T15:52:56.001Z</time></trkpt><trkpt lat="43.35034119272274" lon="12.284053441677075"><ele>250.66666666666666</ele><time>2026-04-10T15:52:57.001Z</time></trkpt><trkpt lat="43.35019273906366" lon="12.284213535861264"><ele>250.0</ele><time>2026-04-10T15:52:58.001Z</time></trkpt><trkpt lat="43.350041882561115" lon="12.284377171395853"><ele>250.0</ele><time>2026-04-10T15:52:59.001Z</time></trkpt><trkpt lat="43.349887798541815" lon="12.28454648036938"><ele>250.0</ele><time>2026-04-10T15:53:00.001Z</time></trkpt><trkpt lat="43.34973180246582" lon="12.284715159877978"><ele>250.0</ele><time>2026-04-10T15:53:01.001Z</time></trkpt><trkpt lat="43.34957486169005" lon="12.284882956417187"><ele>250.33333333333331</ele><time>2026-04-10T15:53:02.001Z</time></trkpt><trkpt lat="43.34941850946383" lon="12.285051570520173"><ele>250.66666666666669</ele><time>2026-04-10T15:53:03.001Z</time></trkpt><trkpt lat="43.34926356571197" lon="12.285220081989399"><ele>251.0</ele><time>2026-04-10T15:53:04.001Z</time></trkpt><trkpt lat="43.349107389576005" lon="12.285388751127005"><ele>251.0</ele><time>2026-04-10T15:53:05.001Z</time></trkpt><trkpt lat="43.348954151321855" lon="12.285554648514335"><ele>251.0</ele><time>2026-04-10T15:53:06.001Z</time></trkpt><trkpt lat="43.348807471703864" lon="12.285712244456013"><ele>251.0</ele><time>2026-04-10T15:53:07.001Z</time></trkpt><trkpt lat="43.3486624518959" lon="12.28586702038483"><ele>250.33333333333334</ele><time>2026-04-10T15:53:08.001Z</time></trkpt><trkpt lat="43.348518947588005" lon="12.286022025603117"><ele>249.66666666666669</ele><time>2026-04-10T15:53:09.001Z</time></trkpt><trkpt lat="43.34837296552107" lon="12.2861791238767"><ele>249.0</ele><time>2026-04-10T15:53:10.001Z</time></trkpt><trkpt lat="43.348228877459036" lon="12.286337989472385"><ele>249.33333333333331</ele><time>2026-04-10T15:53:11.001Z</time></trkpt><trkpt lat="43.34808752048169" lon="12.286493908299283"><ele>249.66666666666666</ele><time>2026-04-10T15:53:12.001Z</time></trkpt><trkpt lat="43.34794388618626" lon="12.286649470667701"><ele>250.0</ele><time>2026-04-10T15:53:13.001Z</time></trkpt><trkpt lat="43.34779869229296" lon="12.286807568333316"><ele>250.0</ele><time>2026-04-10T15:53:14.001Z</time></trkpt><trkpt lat="43.34764908632703" lon="12.286968139108836"><ele>250.0</ele><time>2026-04-10T15:53:15.001Z</time></trkpt><trkpt lat="43.34749908938066" lon="12.287127183231672"><ele>250.0</ele><time>2026-04-10T15:53:16.001Z</time></trkpt><trkpt lat="43.34734656997695" lon="12.287291113789385"><ele>251.33333333333331</ele><time>2026-04-10T15:53:17.001Z</time></trkpt><trkpt lat="43.34719691045298" lon="12.287453091057985"><ele>252.66666666666669</ele><time>2026-04-10T15:53:18.001Z</time></trkpt><trkpt lat="43.347053329149006" lon="12.287608382275494"><ele>254.0</ele><time>2026-04-10T15:53:19.001Z</time></trkpt><trkpt lat="43.346915628850255" lon="12.287760419943323"><ele>254.0</ele><time>2026-04-10T15:53:20.001Z</time></trkpt><trkpt lat="43.346782874509046" lon="12.287906842859748"><ele>254.0</ele><time>2026-04-10T15:53:21.001Z</time></trkpt><trkpt lat="43.34664717854429" lon="12.288051266366509"><ele>254.0</ele><time>2026-04-10T15:53:22.001Z</time></trkpt><trkpt lat="43.3465124668766" lon="12.288189700341043"><ele>256.0</ele><time>2026-04-10T15:53:23.001Z</time></trkpt><trkpt lat="43.346380205410014" lon="12.28833467499659"><ele>258.0</ele><time>2026-04-10T15:53:24.001Z</time></trkpt><trkpt lat="43.34625173779329" lon="12.288489835447011"><ele>260.0</ele><time>2026-04-10T15:53:25.001Z</time></trkpt><trkpt lat="43.34612856722728" lon="12.28865759044821"><ele>260.33333333333337</ele><time>2026-04-10T15:53:26.001Z</time></trkpt><trkpt lat="43.34601032446101" lon="12.288844824766386"><ele>260.6666666666667</ele><time>2026-04-10T15:53:27.001Z</time></trkpt><trkpt lat="43.345899557599644" lon="12.289045823462919"><ele>261.0</ele><time>2026-04-10T15:53:28.001Z</time></trkpt><trkpt lat="43.34579510633169" lon="12.28925955048739"><ele>261.0</ele><time>2026-04-10T15:53:29.001Z</time></trkpt><trkpt lat="43.34569975108797" lon="12.289490235365657"><ele>261.0</ele><time>2026-04-10T15:53:30.001Z</time></trkpt><trkpt lat="43.34561212228944" lon="12.289731223859166"><ele>261.0</ele><time>2026-04-10T15:53:31.001Z</time></trkpt><trkpt lat="43.34553004787482" lon="12.289971194680481"><ele>261.0</ele><time>2026-04-10T15:53:32.001Z</time></trkpt><trkpt lat="43.345447443369125" lon="12.290207860420006"><ele>261.0</ele><time>2026-04-10T15:53:33.001Z</time></trkpt><trkpt lat="43.34536300234017" lon="12.290443553294375"><ele>261.0</ele><time>2026-04-10T15:53:34.001Z</time></trkpt><trkpt lat="43.34528324809142" lon="12.290674900205286"><ele>259.6666666666667</ele><time>2026-04-10T15:53:35.001Z</time></trkpt><trkpt lat="43.34520517357136" lon="12.290896626070069"><ele>258.33333333333337</ele><time>2026-04-10T15:53:36.001Z</time></trkpt><trkpt lat="43.34513279269906" lon="12.291103344852589"><ele>257.0</ele><time>2026-04-10T15:53:37.001Z</time></trkpt><trkpt lat="43.34506013160373" lon="12.291301267649077"><ele>256.75</ele><time>2026-04-10T15:53:38.001Z</time></trkpt><trkpt lat="43.34498460648296" lon="12.29148383059888"><ele>256.5</ele><time>2026-04-10T15:53:39.001Z</time></trkpt><trkpt lat="43.344898484371775" lon="12.291645480705496"><ele>256.25</ele><time>2026-04-10T15:53:40.001Z</time></trkpt><trkpt lat="43.34478845495462" lon="12.29176043495522"><ele>256.0</ele><time>2026-04-10T15:53:41.001Z</time></trkpt><trkpt lat="43.34465546322586" lon="12.29181853912256"><ele>256.0</ele><time>2026-04-10T15:53:42.001Z</time></trkpt><trkpt lat="43.34451410722562" lon="12.291813216048306"><ele>256.0</ele><time>2026-04-10T15:53:43.001Z</time></trkpt><trkpt lat="43.34437322186625" lon="12.291831112020915"><ele>256.0</ele><time>2026-04-10T15:53:44.001Z</time></trkpt><trkpt lat="43.34422340754999" lon="12.291830628601586"><ele>256.0</ele><time>2026-04-10T15:53:45.001Z</time></trkpt><trkpt lat="43.344062838617674" lon="12.291834006323821"><ele>256.0</ele><time>2026-04-10T15:53:46.001Z</time></trkpt><trkpt lat="43.343888703846204" lon="12.291836391580706"><ele>256.0</ele><time>2026-04-10T15:53:47.001Z</time></trkpt><trkpt lat="43.34370741333846" lon="12.291836769509006"><ele>256.0</ele><time>2026-04-10T15:53:48.001Z</time></trkpt><trkpt lat="43.34351843650225" lon="12.291841901124654"><ele>255.33333333333331</ele><time>2026-04-10T15:53:49.001Z</time></trkpt><trkpt lat="43.34332292697333" lon="12.291849681468834"><ele>254.66666666666669</ele><time>2026-04-10T15:53:50.001Z</time></trkpt><trkpt lat="43.34312189025255" lon="12.291849171402701"><ele>254.0</ele><time>2026-04-10T15:53:51.001Z</time></trkpt><trkpt lat="43.34292431683415" lon="12.291846283869363"><ele>255.33333333333334</ele><time>2026-04-10T15:53:52.001Z</time></trkpt><trkpt lat="43.342736020345626" lon="12.291845914843517"><ele>256.6666666666667</ele><time>2026-04-10T15:53:53.001Z</time></trkpt><trkpt lat="43.34255587776476" lon="12.291847713351919"><ele>258.0</ele><time>2026-04-10T15:53:54.001Z</time></trkpt><trkpt lat="43.34238248240698" lon="12.291851960217482"><ele>258.0</ele><time>2026-04-10T15:53:55.001Z</time></trkpt><trkpt lat="43.34221512379105" lon="12.2918537189716"><ele>258.0</ele><time>2026-04-10T15:53:56.001Z</time></trkpt><trkpt lat="43.34205547836352" lon="12.291849757000936"><ele>258.0</ele><time>2026-04-10T15:53:57.001Z</time></trkpt><trkpt lat="43.34190893715384" lon="12.291857815049347"><ele>259.75</ele><time>2026-04-10T15:53:58.001Z</time></trkpt><trkpt lat="43.341775324649134" lon="12.291898184542907"><ele>261.5</ele><time>2026-04-10T15:53:59.001Z</time></trkpt><trkpt lat="43.34166339716822" lon="12.291990433712566"><ele>263.25</ele><time>2026-04-10T15:54:00.001Z</time></trkpt><trkpt lat="43.341576856893646" lon="12.29212777227869"><ele>265.0</ele><time>2026-04-10T15:54:01.001Z</time></trkpt><trkpt lat="43.341515599719" lon="12.29229488543274"><ele>265.0</ele><time>2026-04-10T15:54:02.001Z</time></trkpt><trkpt lat="43.34146119898863" lon="12.292477621139817"><ele>265.0</ele><time>2026-04-10T15:54:03.001Z</time></trkpt><trkpt lat="43.34140105467192" lon="12.292666026577193"><ele>265.0</ele><time>2026-04-10T15:54:04.001Z</time></trkpt><trkpt lat="43.34132881239267" lon="12.29283558120272"><ele>265.0</ele><time>2026-04-10T15:54:05.002Z</time></trkpt><trkpt lat="43.3412690442961" lon="12.293001327258768"><ele>266.5</ele><time>2026-04-10T15:54:06.002Z</time></trkpt><trkpt lat="43.34120887287488" lon="12.29316259561212"><ele>268.0</ele><time>2026-04-10T15:54:07.002Z</time></trkpt><trkpt lat="43.34115089915443" lon="12.293319338020897"><ele>269.5</ele><time>2026-04-10T15:54:08.002Z</time></trkpt><trkpt lat="43.34109983187254" lon="12.293469610652815"><ele>271.0</ele><time>2026-04-10T15:54:09.002Z</time></trkpt><trkpt lat="43.34104474257356" lon="12.293618767714541"><ele>271.0</ele><time>2026-04-10T15:54:10.002Z</time></trkpt><trkpt lat="43.34098430086527" lon="12.293771891585115"><ele>271.0</ele><time>2026-04-10T15:54:11.002Z</time></trkpt><trkpt lat="43.340915656646466" lon="12.29392302511786"><ele>271.0</ele><time>2026-04-10T15:54:12.002Z</time></trkpt><trkpt lat="43.34083256191382" lon="12.294064999905375"><ele>271.0</ele><time>2026-04-10T15:54:13.002Z</time></trkpt><trkpt lat="43.34073177646201" lon="12.294184365313164"><ele>271.25</ele><time>2026-04-10T15:54:14.002Z</time></trkpt><trkpt lat="43.34061654011551" lon="12.294290747443382"><ele>271.5</ele><time>2026-04-10T15:54:15.002Z</time></trkpt><trkpt lat="43.340486293973505" lon="12.29438625708794"><ele>271.75</ele><time>2026-04-10T15:54:16.002Z</time></trkpt><trkpt lat="43.34034718596972" lon="12.294475301855371"><ele>272.0</ele><time>2026-04-10T15:54:17.002Z</time></trkpt><trkpt lat="43.34021740196819" lon="12.294560982885503"><ele>272.0</ele><time>2026-04-10T15:54:18.002Z</time></trkpt><trkpt lat="43.340092372701285" lon="12.294645346333239"><ele>272.0</ele><time>2026-04-10T15:54:19.002Z</time></trkpt><trkpt lat="43.33996478861954" lon="12.294731904136984"><ele>272.0</ele><time>2026-04-10T15:54:20.002Z</time></trkpt><trkpt lat="43.33983569058861" lon="12.294824766475063"><ele>272.0</ele><time>2026-04-10T15:54:21.002Z</time></trkpt><trkpt lat="43.33970413242874" lon="12.294919367662835"><ele>270.75</ele><time>2026-04-10T15:54:22.002Z</time></trkpt><trkpt lat="43.33957081402816" lon="12.295011989206502"><ele>269.5</ele><time>2026-04-10T15:54:23.002Z</time></trkpt><trkpt lat="43.339438052002336" lon="12.295106360037073"><ele>268.25</ele><time>2026-04-10T15:54:24.002Z</time></trkpt><trkpt lat="43.33930815849897" lon="12.295199479224237"><ele>267.0</ele><time>2026-04-10T15:54:25.002Z</time></trkpt><trkpt lat="43.339176421678026" lon="12.295290599209265"><ele>267.0</ele><time>2026-04-10T15:54:26.002Z</time></trkpt><trkpt lat="43.33904680362553" lon="12.295384071047522"><ele>267.0</ele><time>2026-04-10T15:54:27.002Z</time></trkpt><trkpt lat="43.33891711150355" lon="12.295477137368568"><ele>267.0</ele><time>2026-04-10T15:54:28.002Z</time></trkpt><trkpt lat="43.33878191428115" lon="12.295572292849846"><ele>267.0</ele><time>2026-04-10T15:54:29.002Z</time></trkpt><trkpt lat="43.33864283779415" lon="12.295669151650282"><ele>265.6666666666667</ele><time>2026-04-10T15:54:30.002Z</time></trkpt><trkpt lat="43.338501162300034" lon="12.295768266318875"><ele>264.33333333333337</ele><time>2026-04-10T15:54:31.002Z</time></trkpt><trkpt lat="43.33836531821114" lon="12.295865618054021"><ele>263.0</ele><time>2026-04-10T15:54:32.002Z</time></trkpt><trkpt lat="43.3382292878365" lon="12.295963229754161"><ele>263.0</ele><time>2026-04-10T15:54:33.002Z</time></trkpt><trkpt lat="43.338093942536155" lon="12.296062381099075"><ele>263.0</ele><time>2026-04-10T15:54:34.002Z</time></trkpt><trkpt lat="43.33796033867606" lon="12.29616013030657"><ele>263.0</ele><time>2026-04-10T15:54:35.002Z</time></trkpt><trkpt lat="43.33782537200337" lon="12.29625415595738"><ele>262.5</ele><time>2026-04-10T15:54:36.002Z</time></trkpt><trkpt lat="43.33769575201994" lon="12.29634588052977"><ele>262.0</ele><time>2026-04-10T15:54:37Z</time></trkpt><trkpt lat="43.33756850946709" lon="12.296433537216704"><ele>261.5</ele><time>2026-04-10T15:54:38Z</time></trkpt><trkpt lat="43.33743971553472" lon="12.296524180906587"><ele>261.0</ele><time>2026-04-10T15:54:39Z</time></trkpt><trkpt lat="43.337314574193655" lon="12.296615002560996"><ele>261.0</ele><time>2026-04-10T15:54:40Z</time></trkpt><trkpt lat="43.33719326981997" lon="12.296705266752204"><ele>261.0</ele><time>2026-04-10T15:54:41Z</time></trkpt><trkpt lat="43.33707003863801" lon="12.296796443731383"><ele>261.0</ele><time>2026-04-10T15:54:42Z</time></trkpt><trkpt lat="43.33693961800801" lon="12.296887702717454"><ele>261.0</ele><time>2026-04-10T15:54:43Z</time></trkpt><trkpt lat="43.33680611341799" lon="12.29697856879714"><ele>261.0</ele><time>2026-04-10T15:54:44Z</time></trkpt><trkpt lat="43.33667258598775" lon="12.297069008627629"><ele>261.0</ele><time>2026-04-10T15:54:45Z</time></trkpt><trkpt lat="43.336537703891196" lon="12.29716149390073"><ele>261.0</ele><time>2026-04-10T15:54:46Z</time></trkpt><trkpt lat="43.33640413638754" lon="12.29725930234224"><ele>260.3333333333333</ele><time>2026-04-10T15:54:47Z</time></trkpt><trkpt lat="43.336267474155186" lon="12.297355562727205"><ele>259.66666666666663</ele><time>2026-04-10T15:54:48Z</time></trkpt><trkpt lat="43.336130172277436" lon="12.297451020057117"><ele>259.0</ele><time>2026-04-10T15:54:49Z</time></trkpt><trkpt lat="43.33599066376613" lon="12.297546639792543"><ele>259.0</ele><time>2026-04-10T15:54:50Z</time></trkpt><trkpt lat="43.33585114004151" lon="12.297645274644461"><ele>259.0</ele><time>2026-04-10T15:54:51Z</time></trkpt><trkpt lat="43.33571157803125" lon="12.297745058079935"><ele>259.0</ele><time>2026-04-10T15:54:52Z</time></trkpt><trkpt lat="43.335570502913164" lon="12.297846931355693"><ele>258.3333333333333</ele><time>2026-04-10T15:54:53Z</time></trkpt><trkpt lat="43.335430293389315" lon="12.297946562158002"><ele>257.6666666666667</ele><time>2026-04-10T15:54:54Z</time></trkpt><trkpt lat="43.33528659126444" lon="12.298045069335457"><ele>257.0</ele><time>2026-04-10T15:54:55Z</time></trkpt><trkpt lat="43.33514016236054" lon="12.298150808430728"><ele>257.0</ele><time>2026-04-10T15:54:56Z</time></trkpt><trkpt lat="43.33499417584041" lon="12.298254353663198"><ele>257.0</ele><time>2026-04-10T15:54:57Z</time></trkpt><trkpt lat="43.334847025043445" lon="12.298362512121436"><ele>257.0</ele><time>2026-04-10T15:54:58Z</time></trkpt><trkpt lat="43.334700117793375" lon="12.298466597486968"><ele>261.0</ele><time>2026-04-10T15:54:59Z</time></trkpt><trkpt lat="43.334550192717714" lon="12.298574431097467"><ele>265.0</ele><time>2026-04-10T15:55:00Z</time></trkpt><trkpt lat="43.33439943735107" lon="12.298685317058753"><ele>269.0</ele><time>2026-04-10T15:55:01Z</time></trkpt><trkpt lat="43.33424935161682" lon="12.29879206559449"><ele>269.0</ele><time>2026-04-10T15:55:02Z</time></trkpt><trkpt lat="43.3340958601391" lon="12.298898457402936"><ele>269.0</ele><time>2026-04-10T15:55:03Z</time></trkpt><trkpt lat="43.33393945400857" lon="12.299005982225355"><ele>269.0</ele><time>2026-04-10T15:55:04Z</time></trkpt><trkpt lat="43.33378140202542" lon="12.299116018511846"><ele>267.0</ele><time>2026-04-10T15:55:05Z</time></trkpt><trkpt lat="43.33362439320354" lon="12.299228861437896"><ele>265.0</ele><time>2026-04-10T15:55:06Z</time></trkpt><trkpt lat="43.333465528031915" lon="12.299342345828405"><ele>263.0</ele><time>2026-04-10T15:55:07Z</time></trkpt><trkpt lat="43.333306992737874" lon="12.299458688132534"><ele>263.0</ele><time>2026-04-10T15:55:08Z</time></trkpt><trkpt lat="43.33314618357701" lon="12.299567540618376"><ele>263.0</ele><time>2026-04-10T15:55:09Z</time></trkpt><trkpt lat="43.33298247260484" lon="12.299680660058087"><ele>263.0</ele><time>2026-04-10T15:55:10Z</time></trkpt><trkpt lat="43.33281881002652" lon="12.299798905056635"><ele>261.6666666666667</ele><time>2026-04-10T15:55:11Z</time></trkpt><trkpt lat="43.332652475942695" lon="12.299917695669636"><ele>260.3333333333333</ele><time>2026-04-10T15:55:12.001Z</time></trkpt><trkpt lat="43.33248603660638" lon="12.300034259350161"><ele>259.0</ele><time>2026-04-10T15:55:13.001Z</time></trkpt><trkpt lat="43.33232365661773" lon="12.30015146617958"><ele>260.66666666666663</ele><time>2026-04-10T15:55:14.001Z</time></trkpt><trkpt lat="43.33216552140764" lon="12.300263562862686"><ele>262.3333333333333</ele><time>2026-04-10T15:55:15.001Z</time></trkpt><trkpt lat="43.3320128804205" lon="12.300372445129105"><ele>264.0</ele><time>2026-04-10T15:55:16.001Z</time></trkpt><trkpt lat="43.3318670651584" lon="12.300475216303138"><ele>264.0</ele><time>2026-04-10T15:55:17.001Z</time></trkpt><trkpt lat="43.33172300137678" lon="12.30057201097352"><ele>264.0</ele><time>2026-04-10T15:55:18.001Z</time></trkpt><trkpt lat="43.331582279328735" lon="12.30065400953266"><ele>264.0</ele><time>2026-04-10T15:55:19.001Z</time></trkpt><trkpt lat="43.3314431095038" lon="12.300713827488222"><ele>262.3333333333333</ele><time>2026-04-10T15:55:20.001Z</time></trkpt><trkpt lat="43.331298616388686" lon="12.300745272076803"><ele>260.66666666666663</ele><time>2026-04-10T15:55:21.001Z</time></trkpt><trkpt lat="43.331145977147564" lon="12.300749128539033"><ele>259.0</ele><time>2026-04-10T15:55:22.001Z</time></trkpt><trkpt lat="43.330981757854516" lon="12.300733662539383"><ele>259.0</ele><time>2026-04-10T15:55:23.001Z</time></trkpt><trkpt lat="43.33080879150998" lon="12.30072801246713"><ele>259.0</ele><time>2026-04-10T15:55:24.001Z</time></trkpt><trkpt lat="43.330630463999384" lon="12.300716774212265"><ele>259.0</ele><time>2026-04-10T15:55:25.001Z</time></trkpt><trkpt lat="43.330445912881494" lon="12.30070060855309"><ele>258.66666666666663</ele><time>2026-04-10T15:55:26.001Z</time></trkpt><trkpt lat="43.330256139825046" lon="12.30068572164042"><ele>258.3333333333333</ele><time>2026-04-10T15:55:27.001Z</time></trkpt><trkpt lat="43.330064037405265" lon="12.300668429517724"><ele>258.0</ele><time>2026-04-10T15:55:28.001Z</time></trkpt><trkpt lat="43.32987150076693" lon="12.300650124325227"><ele>256.6666666666667</ele><time>2026-04-10T15:55:29.001Z</time></trkpt><trkpt lat="43.32967718820853" lon="12.300631230646102"><ele>255.33333333333334</ele><time>2026-04-10T15:55:30.001Z</time></trkpt><trkpt lat="43.329485375478654" lon="12.300614284716158"><ele>254.0</ele><time>2026-04-10T15:55:31.001Z</time></trkpt><trkpt lat="43.32929106715585" lon="12.300599646876245"><ele>254.0</ele><time>2026-04-10T15:55:32.001Z</time></trkpt><trkpt lat="43.32909533678344" lon="12.300584337109244"><ele>254.0</ele><time>2026-04-10T15:55:33.001Z</time></trkpt><trkpt lat="43.32889687288492" lon="12.30056826324979"><ele>254.0</ele><time>2026-04-10T15:55:34.001Z</time></trkpt><trkpt lat="43.32869820793585" lon="12.300550146072345"><ele>254.0</ele><time>2026-04-10T15:55:35.001Z</time></trkpt><trkpt lat="43.32849493814728" lon="12.300533350524347"><ele>254.0</ele><time>2026-04-10T15:55:36.001Z</time></trkpt><trkpt lat="43.3282909243434" lon="12.300518889827574"><ele>254.0</ele><time>2026-04-10T15:55:37.001Z</time></trkpt><trkpt lat="43.32808916283537" lon="12.300506981142815"><ele>253.33333333333334</ele><time>2026-04-10T15:55:38.001Z</time></trkpt><trkpt lat="43.327886964923664" lon="12.300496047685797"><ele>252.66666666666669</ele><time>2026-04-10T15:55:39.001Z</time></trkpt><trkpt lat="43.327684093945656" lon="12.300487936161527"><ele>252.0</ele><time>2026-04-10T15:55:40.001Z</time></trkpt><trkpt lat="43.32747959833437" lon="12.300475211602885"><ele>252.0</ele><time>2026-04-10T15:55:41.001Z</time></trkpt><trkpt lat="43.32727938825482" lon="12.300454910330528"><ele>252.0</ele><time>2026-04-10T15:55:42.001Z</time></trkpt><trkpt lat="43.32708120476884" lon="12.300430664898387"><ele>252.0</ele><time>2026-04-10T15:55:43.001Z</time></trkpt><trkpt lat="43.326884889134746" lon="12.300408208763617"><ele>252.0</ele><time>2026-04-10T15:55:44.001Z</time></trkpt><trkpt lat="43.32669947393768" lon="12.300389367525796"><ele>252.0</ele><time>2026-04-10T15:55:45.001Z</time></trkpt><trkpt lat="43.32652217903307" lon="12.300375868418392"><ele>252.0</ele><time>2026-04-10T15:55:46.001Z</time></trkpt><trkpt lat="43.3263496489376" lon="12.300365810541761"><ele>251.66666666666669</ele><time>2026-04-10T15:55:47.001Z</time></trkpt><trkpt lat="43.32618235131759" lon="12.300356757769023"><ele>251.33333333333334</ele><time>2026-04-10T15:55:48.001Z</time></trkpt><trkpt lat="43.32601834006647" lon="12.300341514469306"><ele>251.0</ele><time>2026-04-10T15:55:49.001Z</time></trkpt><trkpt lat="43.32585689184122" lon="12.30030962111009"><ele>251.0</ele><time>2026-04-10T15:55:50.001Z</time></trkpt><trkpt lat="43.325690663599275" lon="12.300251086791857"><ele>251.0</ele><time>2026-04-10T15:55:51.001Z</time></trkpt><trkpt lat="43.32552236138429" lon="12.300160080686009"><ele>251.0</ele><time>2026-04-10T15:55:52.001Z</time></trkpt><trkpt lat="43.325355545707744" lon="12.300052131958122"><ele>250.0</ele><time>2026-04-10T15:55:53.001Z</time></trkpt><trkpt lat="43.32518903530073" lon="12.29993266336958"><ele>249.0</ele><time>2026-04-10T15:55:54.001Z</time></trkpt><trkpt lat="43.325025371423635" lon="12.299802610752067"><ele>248.0</ele><time>2026-04-10T15:55:55.001Z</time></trkpt><trkpt lat="43.32487330628063" lon="12.299643319337777"><ele>248.0</ele><time>2026-04-10T15:55:56.001Z</time></trkpt><trkpt lat="43.324730384002926" lon="12.299486887291458"><ele>248.0</ele><time>2026-04-10T15:55:57.001Z</time></trkpt><trkpt lat="43.32460063155256" lon="12.299320320822975"><ele>248.0</ele><time>2026-04-10T15:55:58.001Z</time></trkpt><trkpt lat="43.324480103415006" lon="12.299154831397734"><ele>247.66666666666669</ele><time>2026-04-10T15:55:59.001Z</time></trkpt><trkpt lat="43.32438048579373" lon="12.298968904459871"><ele>247.33333333333331</ele><time>2026-04-10T15:56:00.001Z</time></trkpt><trkpt lat="43.32429723966549" lon="12.298775080331366"><ele>247.0</ele><time>2026-04-10T15:56:01.001Z</time></trkpt><trkpt lat="43.3242481228304" lon="12.298560541591298"><ele>247.0</ele><time>2026-04-10T15:56:02.001Z</time></trkpt><trkpt lat="43.32422395588169" lon="12.298348547171758"><ele>247.0</ele><time>2026-04-10T15:56:03.001Z</time></trkpt><trkpt lat="43.324184904925296" lon="12.298146611246082"><ele>247.0</ele><time>2026-04-10T15:56:04.001Z</time></trkpt><trkpt lat="43.3241233438804" lon="12.297965821265883"><ele>248.25</ele><time>2026-04-10T15:56:05.001Z</time></trkpt><trkpt lat="43.324026983931034" lon="12.29782212943897"><ele>249.5</ele><time>2026-04-10T15:56:06.001Z</time></trkpt><trkpt lat="43.32391191318942" lon="12.297728284232063"><ele>250.75</ele><time>2026-04-10T15:56:07.001Z</time></trkpt><trkpt lat="43.323783774968085" lon="12.297684069055379"><ele>252.0</ele><time>2026-04-10T15:56:08.001Z</time></trkpt><trkpt lat="43.3236357715275" lon="12.297671460819894"><ele>252.0</ele><time>2026-04-10T15:56:09.001Z</time></trkpt><trkpt lat="43.32347953309186" lon="12.297693274356554"><ele>252.0</ele><time>2026-04-10T15:56:10.001Z</time></trkpt><trkpt lat="43.323316422193415" lon="12.297729788040838"><ele>252.0</ele><time>2026-04-10T15:56:11.001Z</time></trkpt><trkpt lat="43.323144530953684" lon="12.297764782418216"><ele>253.66666666666669</ele><time>2026-04-10T15:56:12.001Z</time></trkpt><trkpt lat="43.32297070866782" lon="12.297794616784316"><ele>255.33333333333334</ele><time>2026-04-10T15:56:13.001Z</time></trkpt><trkpt lat="43.322800836194844" lon="12.297823605044666"><ele>257.0</ele><time>2026-04-10T15:56:14.001Z</time></trkpt><trkpt lat="43.32263317259367" lon="12.297842762615407"><ele>257.0</ele><time>2026-04-10T15:56:15.001Z</time></trkpt><trkpt lat="43.322467123853386" lon="12.297833213332288"><ele>257.0</ele><time>2026-04-10T15:56:16.001Z</time></trkpt><trkpt lat="43.322300157972506" lon="12.29781077327459"><ele>257.0</ele><time>2026-04-10T15:56:17.001Z</time></trkpt><trkpt lat="43.322132987584446" lon="12.297783477405208"><ele>255.33333333333334</ele><time>2026-04-10T15:56:18.001Z</time></trkpt><trkpt lat="43.32197143864848" lon="12.297746822613423"><ele>253.66666666666669</ele><time>2026-04-10T15:56:19.001Z</time></trkpt><trkpt lat="43.321810331546146" lon="12.297701929032653"><ele>252.0</ele><time>2026-04-10T15:56:20.001Z</time></trkpt><trkpt lat="43.32164978905587" lon="12.297662167650468"><ele>252.0</ele><time>2026-04-10T15:56:21.001Z</time></trkpt><trkpt lat="43.32149501627485" lon="12.297633254016452"><ele>252.0</ele><time>2026-04-10T15:56:22.001Z</time></trkpt><trkpt lat="43.321344967490795" lon="12.297607653452609"><ele>252.0</ele><time>2026-04-10T15:56:23.001Z</time></trkpt><trkpt lat="43.321198138639176" lon="12.297582523731329"><ele>251.75</ele><time>2026-04-10T15:56:24.001Z</time></trkpt><trkpt lat="43.32106475622864" lon="12.297559784016824"><ele>251.5</ele><time>2026-04-10T15:56:25.001Z</time></trkpt><trkpt lat="43.32095028985671" lon="12.297536619082225"><ele>251.25</ele><time>2026-04-10T15:56:26.002Z</time></trkpt><trkpt lat="43.320847495782495" lon="12.297499706470461"><ele>251.0</ele><time>2026-04-10T15:56:27.002Z</time></trkpt><trkpt lat="43.320663237548665" lon="12.297411560259924"><ele>251.0</ele><time>2026-04-10T15:56:29.002Z</time></trkpt><trkpt lat="43.320598561453245" lon="12.297263392837813"><ele>251.00000000000003</ele><time>2026-04-10T15:56:30.002Z</time></trkpt><trkpt lat="43.320555375118076" lon="12.29714661680225"><ele>251.00000000000003</ele><time>2026-04-10T15:56:31.002Z</time></trkpt><trkpt lat="43.32049563900717" lon="12.297025879526656"><ele>251.0</ele><time>2026-04-10T15:56:32.002Z</time></trkpt><trkpt lat="43.32046480461721" lon="12.29687601302222"><ele>251.0</ele><time>2026-04-10T15:56:33.002Z</time></trkpt><trkpt lat="43.32043249501209" lon="12.296711691746697"><ele>249.75</ele><time>2026-04-10T15:56:34.002Z</time></trkpt><trkpt lat="43.32040513396195" lon="12.296536689064338"><ele>248.5</ele><time>2026-04-10T15:56:35.002Z</time></trkpt><trkpt lat="43.320376562221284" lon="12.296365022232997"><ele>247.25</ele><time>2026-04-10T15:56:36.002Z</time></trkpt><trkpt lat="43.32034895803714" lon="12.296198307982667"><ele>246.0</ele><time>2026-04-10T15:56:37.002Z</time></trkpt><trkpt lat="43.32032283589693" lon="12.296035131639446"><ele>246.0</ele><time>2026-04-10T15:56:38.002Z</time></trkpt><trkpt lat="43.32029366801959" lon="12.2958792761527"><ele>246.00000000000003</ele><time>2026-04-10T15:56:39.002Z</time></trkpt><trkpt lat="43.32026507077088" lon="12.295726574640005"><ele>246.00000000000003</ele><time>2026-04-10T15:56:40.002Z</time></trkpt><trkpt lat="43.320251777112745" lon="12.295614301936588"><ele>246.0</ele><time>2026-04-10T15:56:41.002Z</time></trkpt><trkpt lat="43.32029545780941" lon="12.295477908364939"><ele>246.0</ele><time>2026-04-10T15:56:43Z</time></trkpt><trkpt lat="43.3203642379832" lon="12.295445745273337"><ele>245.75</ele><time>2026-04-10T15:56:44Z</time></trkpt><trkpt lat="43.320458351458406" lon="12.295448690505085"><ele>245.5</ele><time>2026-04-10T15:56:45Z</time></trkpt><trkpt lat="43.32057616779493" lon="12.295443295598934"><ele>245.25</ele><time>2026-04-10T15:56:46Z</time></trkpt><trkpt lat="43.320710080149254" lon="12.295418819444079"><ele>245.0</ele><time>2026-04-10T15:56:47Z</time></trkpt><trkpt lat="43.32085888705706" lon="12.29539827776826"><ele>245.75</ele><time>2026-04-10T15:56:48Z</time></trkpt><trkpt lat="43.320999500775926" lon="12.295378065812635"><ele>246.5</ele><time>2026-04-10T15:56:49Z</time></trkpt><trkpt lat="43.321139614570974" lon="12.295337283260197"><ele>247.25</ele><time>2026-04-10T15:56:50Z</time></trkpt><trkpt lat="43.3212782052039" lon="12.295265248298332"><ele>248.0</ele><time>2026-04-10T15:56:51Z</time></trkpt><trkpt lat="43.32141157794639" lon="12.295154307065896"><ele>249.5</ele><time>2026-04-10T15:56:52Z</time></trkpt><trkpt lat="43.32153762331355" lon="12.295023203539822"><ele>251.0</ele><time>2026-04-10T15:56:53Z</time></trkpt><trkpt lat="43.32165389738885" lon="12.294892434873729"><ele>252.5</ele><time>2026-04-10T15:56:54Z</time></trkpt><trkpt lat="43.32175919520417" lon="12.294763844402254"><ele>254.0</ele><time>2026-04-10T15:56:55Z</time></trkpt><trkpt lat="43.32185481669734" lon="12.294635856224755"><ele>254.0</ele><time>2026-04-10T15:56:56Z</time></trkpt><trkpt lat="43.32193407926224" lon="12.294496284246403"><ele>254.0</ele><time>2026-04-10T15:56:57Z</time></trkpt><trkpt lat="43.32198967499126" lon="12.294330750398295"><ele>254.0</ele><time>2026-04-10T15:56:58Z</time></trkpt><trkpt lat="43.32201995621182" lon="12.29413851819737"><ele>254.0</ele><time>2026-04-10T15:56:59Z</time></trkpt><trkpt lat="43.322028134754795" lon="12.293931248129024"><ele>254.33333333333334</ele><time>2026-04-10T15:57:00Z</time></trkpt><trkpt lat="43.32202162367206" lon="12.29371882232528"><ele>254.66666666666669</ele><time>2026-04-10T15:57:01Z</time></trkpt><trkpt lat="43.32200243034937" lon="12.293499161081748"><ele>255.0</ele><time>2026-04-10T15:57:02Z</time></trkpt><trkpt lat="43.32197017562691" lon="12.293279891220372"><ele>256.0</ele><time>2026-04-10T15:57:03Z</time></trkpt><trkpt lat="43.321920084646926" lon="12.293069605581886"><ele>257.0</ele><time>2026-04-10T15:57:04Z</time></trkpt><trkpt lat="43.321856381517684" lon="12.292868954755054"><ele>258.0</ele><time>2026-04-10T15:57:05Z</time></trkpt><trkpt lat="43.32178289290073" lon="12.292668162869377"><ele>258.0</ele><time>2026-04-10T15:57:06Z</time></trkpt><trkpt lat="43.321706419447565" lon="12.29246381054262"><ele>258.0</ele><time>2026-04-10T15:57:07Z</time></trkpt><trkpt lat="43.32162432873535" lon="12.292251108703997"><ele>258.0</ele><time>2026-04-10T15:57:08Z</time></trkpt><trkpt lat="43.321534579732074" lon="12.292022578036166"><ele>257.0</ele><time>2026-04-10T15:57:09Z</time></trkpt><trkpt lat="43.32143900269989" lon="12.291769319452001"><ele>256.0</ele><time>2026-04-10T15:57:10Z</time></trkpt><trkpt lat="43.32134236998048" lon="12.291507873228863"><ele>255.0</ele><time>2026-04-10T15:57:11Z</time></trkpt><trkpt lat="43.32124964267423" lon="12.29125724627637"><ele>255.0</ele><time>2026-04-10T15:57:12Z</time></trkpt><trkpt lat="43.32116055507256" lon="12.291014482213466"><ele>255.0</ele><time>2026-04-10T15:57:13Z</time></trkpt><trkpt lat="43.32107343547631" lon="12.290776433638975"><ele>255.0</ele><time>2026-04-10T15:57:14Z</time></trkpt><trkpt lat="43.32098768468999" lon="12.290540267599958"><ele>256.3333333333333</ele><time>2026-04-10T15:57:15Z</time></trkpt><trkpt lat="43.3209008313355" lon="12.290307830379302"><ele>257.66666666666663</ele><time>2026-04-10T15:57:16Z</time></trkpt><trkpt lat="43.320814665973806" lon="12.290079234357146"><ele>259.0</ele><time>2026-04-10T15:57:17Z</time></trkpt><trkpt lat="43.320729872009736" lon="12.289851043668643"><ele>258.0</ele><time>2026-04-10T15:57:18Z</time></trkpt><trkpt lat="43.320643510857195" lon="12.289622055875972"><ele>257.0</ele><time>2026-04-10T15:57:19Z</time></trkpt><trkpt lat="43.32055674052399" lon="12.289389285554668"><ele>256.0</ele><time>2026-04-10T15:57:20Z</time></trkpt><trkpt lat="43.32046755728677" lon="12.2891543487993"><ele>256.0</ele><time>2026-04-10T15:57:21Z</time></trkpt><trkpt lat="43.32037938461038" lon="12.288919866066738"><ele>256.0</ele><time>2026-04-10T15:57:22Z</time></trkpt><trkpt lat="43.32029253813265" lon="12.288685916500397"><ele>256.0</ele><time>2026-04-10T15:57:23Z</time></trkpt><trkpt lat="43.32020404693325" lon="12.288452035198139"><ele>256.0</ele><time>2026-04-10T15:57:24Z</time></trkpt><trkpt lat="43.32011258924649" lon="12.288217427061575"><ele>256.0</ele><time>2026-04-10T15:57:25Z</time></trkpt><trkpt lat="43.32002231992385" lon="12.287979564105878"><ele>256.0</ele><time>2026-04-10T15:57:26Z</time></trkpt><trkpt lat="43.31993492163754" lon="12.287735194512562"><ele>256.3333333333333</ele><time>2026-04-10T15:57:27Z</time></trkpt><trkpt lat="43.31984843067184" lon="12.287487470000821"><ele>256.6666666666667</ele><time>2026-04-10T15:57:28Z</time></trkpt><trkpt lat="43.31975747368249" lon="12.287234878489778"><ele>257.0</ele><time>2026-04-10T15:57:29Z</time></trkpt><trkpt lat="43.31966390958976" lon="12.286981201941016"><ele>255.0</ele><time>2026-04-10T15:57:30Z</time></trkpt><trkpt lat="43.3195679528026" lon="12.286728044214325"><ele>253.0</ele><time>2026-04-10T15:57:31.001Z</time></trkpt><trkpt lat="43.31947448694139" lon="12.28647857111491"><ele>251.0</ele><time>2026-04-10T15:57:32.001Z</time></trkpt><trkpt lat="43.319384855126614" lon="12.286232447378888"><ele>251.0</ele><time>2026-04-10T15:57:33.001Z</time></trkpt><trkpt lat="43.319299140227" lon="12.285983792392349"><ele>251.0</ele><time>2026-04-10T15:57:34.001Z</time></trkpt><trkpt lat="43.319223472331466" lon="12.285731358643742"><ele>251.0</ele><time>2026-04-10T15:57:35.001Z</time></trkpt><trkpt lat="43.319165214959476" lon="12.285476124380283"><ele>251.66666666666669</ele><time>2026-04-10T15:57:36.001Z</time></trkpt><trkpt lat="43.31913058940528" lon="12.285212640526028"><ele>252.33333333333331</ele><time>2026-04-10T15:57:37.001Z</time></trkpt><trkpt lat="43.3191120827813" lon="12.284940568668185"><ele>253.0</ele><time>2026-04-10T15:57:38.001Z</time></trkpt><trkpt lat="43.31910855543312" lon="12.284665742023428"><ele>253.66666666666666</ele><time>2026-04-10T15:57:39.001Z</time></trkpt><trkpt lat="43.31911683510875" lon="12.284389496193176"><ele>254.33333333333331</ele><time>2026-04-10T15:57:40.001Z</time></trkpt><trkpt lat="43.31912357194799" lon="12.284122250680566"><ele>255.0</ele><time>2026-04-10T15:57:41.001Z</time></trkpt><trkpt lat="43.31911426127009" lon="12.283861575092917"><ele>255.0</ele><time>2026-04-10T15:57:42.001Z</time></trkpt><trkpt lat="43.31907048801069" lon="12.283596984987946"><ele>255.0</ele><time>2026-04-10T15:57:43.001Z</time></trkpt><trkpt lat="43.31900788048102" lon="12.283334276837701"><ele>255.0</ele><time>2026-04-10T15:57:44.001Z</time></trkpt><trkpt lat="43.31894338247378" lon="12.283077484078895"><ele>254.0</ele><time>2026-04-10T15:57:45.001Z</time></trkpt><trkpt lat="43.31888752622408" lon="12.282837546273115"><ele>253.0</ele><time>2026-04-10T15:57:46.001Z</time></trkpt><trkpt lat="43.31883656079618" lon="12.282610269581681"><ele>252.0</ele><time>2026-04-10T15:57:47.001Z</time></trkpt><trkpt lat="43.3187896155723" lon="12.28237450556982"><ele>252.0</ele><time>2026-04-10T15:57:48.001Z</time></trkpt><trkpt lat="43.31875333652412" lon="12.282128207704963"><ele>252.0</ele><time>2026-04-10T15:57:49.001Z</time></trkpt><trkpt lat="43.31872473120252" lon="12.281874417032888"><ele>252.0</ele><time>2026-04-10T15:57:50.001Z</time></trkpt><trkpt lat="43.318698725739985" lon="12.281615855004524"><ele>252.66666666666669</ele><time>2026-04-10T15:57:51.001Z</time></trkpt><trkpt lat="43.318670507584436" lon="12.281355133822098"><ele>253.33333333333334</ele><time>2026-04-10T15:57:52.001Z</time></trkpt><trkpt lat="43.318639490291204" lon="12.281096737983628"><ele>254.0</ele><time>2026-04-10T15:57:53.001Z</time></trkpt><trkpt lat="43.318611971916475" lon="12.28084735458525"><ele>253.66666666666669</ele><time>2026-04-10T15:57:54.001Z</time></trkpt><trkpt lat="43.31858576699237" lon="12.280598946337424"><ele>253.33333333333331</ele><time>2026-04-10T15:57:55.001Z</time></trkpt><trkpt lat="43.31856116964763" lon="12.280347955350523"><ele>253.0</ele><time>2026-04-10T15:57:56.001Z</time></trkpt><trkpt lat="43.31854252620275" lon="12.28009159403015"><ele>253.0</ele><time>2026-04-10T15:57:57.001Z</time></trkpt><trkpt lat="43.31853220008741" lon="12.279825403868772"><ele>253.0</ele><time>2026-04-10T15:57:58.001Z</time></trkpt><trkpt lat="43.318530194141644" lon="12.27955536612265"><ele>253.0</ele><time>2026-04-10T15:57:59.001Z</time></trkpt><trkpt lat="43.31853532212153" lon="12.279279377687985"><ele>252.66666666666666</ele><time>2026-04-10T15:58:00.001Z</time></trkpt><trkpt lat="43.31854279782079" lon="12.279002225007188"><ele>252.33333333333331</ele><time>2026-04-10T15:58:01.001Z</time></trkpt><trkpt lat="43.31855097764819" lon="12.278724022328946"><ele>252.0</ele><time>2026-04-10T15:58:02.001Z</time></trkpt><trkpt lat="43.31855161861698" lon="12.278448707400484"><ele>253.0</ele><time>2026-04-10T15:58:03.001Z</time></trkpt><trkpt lat="43.31853774979987" lon="12.27817471897809"><ele>254.0</ele><time>2026-04-10T15:58:04.001Z</time></trkpt><trkpt lat="43.318505648214945" lon="12.277900609289274"><ele>255.0</ele><time>2026-04-10T15:58:05.001Z</time></trkpt><trkpt lat="43.31846595405035" lon="12.27762537301246"><ele>255.33333333333331</ele><time>2026-04-10T15:58:06.001Z</time></trkpt><trkpt lat="43.318425161267704" lon="12.277348817657494"><ele>255.66666666666666</ele><time>2026-04-10T15:58:07.001Z</time></trkpt><trkpt lat="43.31839000917008" lon="12.277072963008683"><ele>256.0</ele><time>2026-04-10T15:58:08.001Z</time></trkpt><trkpt lat="43.31835233538484" lon="12.276799843462403"><ele>256.66666666666663</ele><time>2026-04-10T15:58:09.001Z</time></trkpt><trkpt lat="43.31831392239513" lon="12.276529977636882"><ele>257.3333333333333</ele><time>2026-04-10T15:58:10.001Z</time></trkpt><trkpt lat="43.318280021156895" lon="12.27626636504133"><ele>258.0</ele><time>2026-04-10T15:58:11.001Z</time></trkpt><trkpt lat="43.31824837722104" lon="12.276004358823478"><ele>258.3333333333333</ele><time>2026-04-10T15:58:12.001Z</time></trkpt><trkpt lat="43.31822052776221" lon="12.2757390271326"><ele>258.66666666666663</ele><time>2026-04-10T15:58:13.001Z</time></trkpt><trkpt lat="43.31819731630512" lon="12.2754749551384"><ele>259.0</ele><time>2026-04-10T15:58:14.001Z</time></trkpt><trkpt lat="43.31817645744591" lon="12.275207432910271"><ele>259.3333333333333</ele><time>2026-04-10T15:58:15.001Z</time></trkpt><trkpt lat="43.318156493449386" lon="12.274939769859069"><ele>259.6666666666667</ele><time>2026-04-10T15:58:16.001Z</time></trkpt><trkpt lat="43.31813821041673" lon="12.274672605264156"><ele>260.0</ele><time>2026-04-10T15:58:17.001Z</time></trkpt><trkpt lat="43.31811985369486" lon="12.274404760347183"><ele>260.33333333333337</ele><time>2026-04-10T15:58:18.001Z</time></trkpt><trkpt lat="43.31810202015649" lon="12.274136308198349"><ele>260.6666666666667</ele><time>2026-04-10T15:58:19.001Z</time></trkpt><trkpt lat="43.31808646633438" lon="12.2738669973463"><ele>261.0</ele><time>2026-04-10T15:58:20.001Z</time></trkpt><trkpt lat="43.31807445058885" lon="12.273596540543215"><ele>259.6666666666667</ele><time>2026-04-10T15:58:21.001Z</time></trkpt><trkpt lat="43.318064276364396" lon="12.273320887482052"><ele>258.33333333333337</ele><time>2026-04-10T15:58:22.001Z</time></trkpt><trkpt lat="43.31805472810679" lon="12.273041709409027"><ele>257.0</ele><time>2026-04-10T15:58:23.001Z</time></trkpt><trkpt lat="43.31805077765958" lon="12.272763917639379"><ele>257.0</ele><time>2026-04-10T15:58:24.001Z</time></trkpt><trkpt lat="43.31805441803572" lon="12.272486434521838"><ele>257.0</ele><time>2026-04-10T15:58:25.001Z</time></trkpt><trkpt lat="43.31805870703441" lon="12.272211088754371"><ele>257.0</ele><time>2026-04-10T15:58:26.001Z</time></trkpt><trkpt lat="43.31805089024438" lon="12.271942444686122"><ele>258.0</ele><time>2026-04-10T15:58:27.001Z</time></trkpt><trkpt lat="43.31801937149671" lon="12.27168213230477"><ele>259.0</ele><time>2026-04-10T15:58:28.001Z</time></trkpt><trkpt lat="43.31796576910203" lon="12.271432959677384"><ele>260.0</ele><time>2026-04-10T15:58:29.001Z</time></trkpt><trkpt lat="43.31790194609543" lon="12.271189188089116"><ele>260.33333333333337</ele><time>2026-04-10T15:58:30.001Z</time></trkpt><trkpt lat="43.3178329010508" lon="12.270945909842844"><ele>260.6666666666667</ele><time>2026-04-10T15:58:31.001Z</time></trkpt><trkpt lat="43.317765706337845" lon="12.27070029017991"><ele>261.0</ele><time>2026-04-10T15:58:32.001Z</time></trkpt><trkpt lat="43.317700656104364" lon="12.270453005682958"><ele>261.0</ele><time>2026-04-10T15:58:33.001Z</time></trkpt><trkpt lat="43.317636707520506" lon="12.270204175256795"><ele>261.0</ele><time>2026-04-10T15:58:34.001Z</time></trkpt><trkpt lat="43.31757062167059" lon="12.26995259040212"><ele>261.0</ele><time>2026-04-10T15:58:35.001Z</time></trkpt><trkpt lat="43.31750549153104" lon="12.26970056882317"><ele>262.6666666666667</ele><time>2026-04-10T15:58:36.001Z</time></trkpt><trkpt lat="43.31743875585669" lon="12.269448925160512"><ele>264.33333333333337</ele><time>2026-04-10T15:58:37.001Z</time></trkpt><trkpt lat="43.317373919102344" lon="12.269200845904228"><ele>266.0</ele><time>2026-04-10T15:58:38.001Z</time></trkpt><trkpt lat="43.31731144977788" lon="12.268963766426237"><ele>265.6666666666667</ele><time>2026-04-10T15:58:39.001Z</time></trkpt><trkpt lat="43.31725455008101" lon="12.268736051838527"><ele>265.3333333333333</ele><time>2026-04-10T15:58:40.001Z</time></trkpt><trkpt lat="43.31719941622938" lon="12.268511007324754"><ele>265.0</ele><time>2026-04-10T15:58:41.001Z</time></trkpt><trkpt lat="43.31714363000797" lon="12.268289604533496"><ele>265.66666666666663</ele><time>2026-04-10T15:58:42.001Z</time></trkpt><trkpt lat="43.317089263800824" lon="12.26807359460889"><ele>266.3333333333333</ele><time>2026-04-10T15:58:43.001Z</time></trkpt><trkpt lat="43.31703547711203" lon="12.267865360890543"><ele>267.0</ele><time>2026-04-10T15:58:44.002Z</time></trkpt><trkpt lat="43.31697929127898" lon="12.26766724088075"><ele>267.0</ele><time>2026-04-10T15:58:45.002Z</time></trkpt><trkpt lat="43.31692263368814" lon="12.267470957693249"><ele>267.0</ele><time>2026-04-10T15:58:46.002Z</time></trkpt><trkpt lat="43.31685344519891" lon="12.267276119365109"><ele>267.0</ele><time>2026-04-10T15:58:47.002Z</time></trkpt><trkpt lat="43.316771988778804" lon="12.267088937063408"><ele>266.6666666666667</ele><time>2026-04-10T15:58:48.002Z</time></trkpt><trkpt lat="43.31667864018781" lon="12.266901868846325"><ele>266.33333333333337</ele><time>2026-04-10T15:58:49Z</time></trkpt><trkpt lat="43.316585113613286" lon="12.266706824050475"><ele>266.0</ele><time>2026-04-10T15:58:50Z</time></trkpt><trkpt lat="43.31649224829761" lon="12.266512554163233"><ele>265.0</ele><time>2026-04-10T15:58:51Z</time></trkpt><trkpt lat="43.31639835796359" lon="12.266318834405743"><ele>264.0</ele><time>2026-04-10T15:58:52Z</time></trkpt><trkpt lat="43.316306570738064" lon="12.26613206906106"><ele>263.0</ele><time>2026-04-10T15:58:53Z</time></trkpt><trkpt lat="43.31622021935813" lon="12.265947742299241"><ele>263.0</ele><time>2026-04-10T15:58:54Z</time></trkpt><trkpt lat="43.31613712797208" lon="12.265764280323577"><ele>263.0</ele><time>2026-04-10T15:58:55Z</time></trkpt><trkpt lat="43.31605568446031" lon="12.265588477404371"><ele>263.0</ele><time>2026-04-10T15:58:56Z</time></trkpt><trkpt lat="43.315972762471766" lon="12.265403416632337"><ele>263.0</ele><time>2026-04-10T15:58:57Z</time></trkpt><trkpt lat="43.315889240334386" lon="12.265204068187568"><ele>263.0</ele><time>2026-04-10T15:58:58Z</time></trkpt><trkpt lat="43.31581707374066" lon="12.264992960562259"><ele>263.0</ele><time>2026-04-10T15:58:59Z</time></trkpt><trkpt lat="43.31576281963646" lon="12.264755701237918"><ele>263.0</ele><time>2026-04-10T15:59:00Z</time></trkpt><trkpt lat="43.31572125214625" lon="12.264509556800204"><ele>263.0</ele><time>2026-04-10T15:59:01Z</time></trkpt><trkpt lat="43.315690746891" lon="12.264266328177905"><ele>263.0</ele><time>2026-04-10T15:59:02Z</time></trkpt><trkpt lat="43.31565789106537" lon="12.26401948156743"><ele>262.33333333333337</ele><time>2026-04-10T15:59:03Z</time></trkpt><trkpt lat="43.31562514483167" lon="12.263770022707966"><ele>261.6666666666667</ele><time>2026-04-10T15:59:04Z</time></trkpt><trkpt lat="43.31559178289042" lon="12.26352877406659"><ele>261.0</ele><time>2026-04-10T15:59:05Z</time></trkpt><trkpt lat="43.31556237523945" lon="12.263300015009474"><ele>261.3333333333333</ele><time>2026-04-10T15:59:06Z</time></trkpt><trkpt lat="43.31552987909804" lon="12.263074113728639"><ele>261.66666666666663</ele><time>2026-04-10T15:59:07Z</time></trkpt><trkpt lat="43.315476821791606" lon="12.262851052739379"><ele>262.0</ele><time>2026-04-10T15:59:08Z</time></trkpt><trkpt lat="43.31539494964232" lon="12.262631024533704"><ele>262.0</ele><time>2026-04-10T15:59:09Z</time></trkpt><trkpt lat="43.31529381008361" lon="12.26241072331037"><ele>262.0</ele><time>2026-04-10T15:59:10Z</time></trkpt><trkpt lat="43.31519505849894" lon="12.262190675765478"><ele>262.0</ele><time>2026-04-10T15:59:11Z</time></trkpt><trkpt lat="43.31510204511261" lon="12.261982386436907"><ele>263.0</ele><time>2026-04-10T15:59:12Z</time></trkpt><trkpt lat="43.31501142112009" lon="12.2617753688728"><ele>264.0</ele><time>2026-04-10T15:59:13Z</time></trkpt><trkpt lat="43.31491917944867" lon="12.26156839474346"><ele>265.0</ele><time>2026-04-10T15:59:14Z</time></trkpt><trkpt lat="43.31482952612976" lon="12.261367916882"><ele>264.66666666666663</ele><time>2026-04-10T15:59:15Z</time></trkpt><trkpt lat="43.31474385173742" lon="12.261173561224414"><ele>264.3333333333333</ele><time>2026-04-10T15:59:16Z</time></trkpt><trkpt lat="43.314661237134224" lon="12.260983205374828"><ele>264.0</ele><time>2026-04-10T15:59:17Z</time></trkpt><trkpt lat="43.31457400750009" lon="12.260805590978212"><ele>264.0</ele><time>2026-04-10T15:59:18Z</time></trkpt><trkpt lat="43.314482869044184" lon="12.26063236098467"><ele>264.0</ele><time>2026-04-10T15:59:19Z</time></trkpt><trkpt lat="43.31432921305483" lon="12.260541193419002"><ele>264.0</ele><time>2026-04-10T15:59:20Z</time></trkpt><trkpt lat="43.314167993115646" lon="12.260466471648739"><ele>264.0</ele><time>2026-04-10T15:59:21Z</time></trkpt><trkpt lat="43.314008056996215" lon="12.260415361303513"><ele>264.0</ele><time>2026-04-10T15:59:22Z</time></trkpt><trkpt lat="43.31385859041872" lon="12.260341677011231"><ele>264.0</ele><time>2026-04-10T15:59:23Z</time></trkpt><trkpt lat="43.313712335513266" lon="12.260221531646046"><ele>264.0</ele><time>2026-04-10T15:59:24Z</time></trkpt><trkpt lat="43.31357902922292" lon="12.260071491160021"><ele>264.0</ele><time>2026-04-10T15:59:25Z</time></trkpt><trkpt lat="43.31345479153183" lon="12.259913813968861"><ele>264.0</ele><time>2026-04-10T15:59:26Z</time></trkpt><trkpt lat="43.31334510454437" lon="12.259730510546042"><ele>264.0</ele><time>2026-04-10T15:59:27Z</time></trkpt><trkpt lat="43.31323573395357" lon="12.25954687065111"><ele>264.0</ele><time>2026-04-10T15:59:28Z</time></trkpt><trkpt lat="43.313137949145876" lon="12.259349768837684"><ele>264.0</ele><time>2026-04-10T15:59:29Z</time></trkpt><trkpt lat="43.31305893129163" lon="12.25915012670597"><ele>264.6666666666667</ele><time>2026-04-10T15:59:30Z</time></trkpt><trkpt lat="43.313001488845984" lon="12.258946670366191"><ele>265.33333333333337</ele><time>2026-04-10T15:59:31Z</time></trkpt><trkpt lat="43.31297163400813" lon="12.258739879394605"><ele>266.0</ele><time>2026-04-10T15:59:32Z</time></trkpt><trkpt lat="43.31295023733809" lon="12.25852188246096"><ele>266.0</ele><time>2026-04-10T15:59:33Z</time></trkpt><trkpt lat="43.312949729381195" lon="12.258314540072517"><ele>266.0</ele><time>2026-04-10T15:59:34Z</time></trkpt><trkpt lat="43.31293837948442" lon="12.25811088579225"><ele>266.0</ele><time>2026-04-10T15:59:35.001Z</time></trkpt><trkpt lat="43.31289923042404" lon="12.257907910777558"><ele>267.33333333333337</ele><time>2026-04-10T15:59:36.001Z</time></trkpt><trkpt lat="43.31282653294732" lon="12.257718655198623"><ele>268.6666666666667</ele><time>2026-04-10T15:59:37.001Z</time></trkpt><trkpt lat="43.31273654635678" lon="12.257532596185417"><ele>270.0</ele><time>2026-04-10T15:59:38.001Z</time></trkpt><trkpt lat="43.31264706177355" lon="12.257340799789949"><ele>271.3333333333333</ele><time>2026-04-10T15:59:39.001Z</time></trkpt><trkpt lat="43.31254013515722" lon="12.257163226709942"><ele>272.66666666666663</ele><time>2026-04-10T15:59:40.001Z</time></trkpt><trkpt lat="43.312413539011224" lon="12.257003730172249"><ele>274.0</ele><time>2026-04-10T15:59:41.001Z</time></trkpt><trkpt lat="43.31230157835081" lon="12.256838987641636"><ele>272.3333333333333</ele><time>2026-04-10T15:59:42.001Z</time></trkpt><trkpt lat="43.31219104677989" lon="12.256678358502516"><ele>270.6666666666667</ele><time>2026-04-10T15:59:43.001Z</time></trkpt><trkpt lat="43.312086302105804" lon="12.256519480228933"><ele>269.0</ele><time>2026-04-10T15:59:44.001Z</time></trkpt><trkpt lat="43.311999907049795" lon="12.256351612069864"><ele>269.0</ele><time>2026-04-10T15:59:45.001Z</time></trkpt><trkpt lat="43.311936962091664" lon="12.256162358233935"><ele>269.0</ele><time>2026-04-10T15:59:46.001Z</time></trkpt><trkpt lat="43.311893338322434" lon="12.255950247050427"><ele>269.0</ele><time>2026-04-10T15:59:47.001Z</time></trkpt><trkpt lat="43.31185672653251" lon="12.255722283816668"><ele>269.0</ele><time>2026-04-10T15:59:48.001Z</time></trkpt><trkpt lat="43.31182401601605" lon="12.255489924810268"><ele>269.0</ele><time>2026-04-10T15:59:49.001Z</time></trkpt><trkpt lat="43.31179078079097" lon="12.255255717784081"><ele>269.0</ele><time>2026-04-10T15:59:50.001Z</time></trkpt><trkpt lat="43.311745778906705" lon="12.255015335612278"><ele>269.0</ele><time>2026-04-10T15:59:51.001Z</time></trkpt><trkpt lat="43.311697289055346" lon="12.254773578842705"><ele>269.0</ele><time>2026-04-10T15:59:52.001Z</time></trkpt><trkpt lat="43.31164605189436" lon="12.254534394428099"><ele>269.0</ele><time>2026-04-10T15:59:53.001Z</time></trkpt><trkpt lat="43.3115937481117" lon="12.2542955561842"><ele>269.0</ele><time>2026-04-10T15:59:54.001Z</time></trkpt><trkpt lat="43.3115411517219" lon="12.254058302206422"><ele>269.0</ele><time>2026-04-10T15:59:55.001Z</time></trkpt><trkpt lat="43.31149157978331" lon="12.253819020989233"><ele>269.0</ele><time>2026-04-10T15:59:56.001Z</time></trkpt><trkpt lat="43.31144119343339" lon="12.253577006107555"><ele>269.33333333333337</ele><time>2026-04-10T15:59:57.001Z</time></trkpt><trkpt lat="43.31138466616203" lon="12.253335080424277"><ele>269.6666666666667</ele><time>2026-04-10T15:59:58.001Z</time></trkpt><trkpt lat="43.31131560803677" lon="12.253100927643397"><ele>270.0</ele><time>2026-04-10T15:59:59.001Z</time></trkpt><trkpt lat="43.311236251527234" lon="12.252875226963551"><ele>270.0</ele><time>2026-04-10T16:00:00.001Z</time></trkpt><trkpt lat="43.31114301493632" lon="12.25266142652941"><ele>270.0</ele><time>2026-04-10T16:00:01.001Z</time></trkpt><trkpt lat="43.31103293014489" lon="12.252465139632198"><ele>270.0</ele><time>2026-04-10T16:00:02.001Z</time></trkpt><trkpt lat="43.310915237579266" lon="12.252279796506926"><ele>269.3333333333333</ele><time>2026-04-10T16:00:03.001Z</time></trkpt><trkpt lat="43.31080169656206" lon="12.252089580339454"><ele>268.66666666666663</ele><time>2026-04-10T16:00:04.001Z</time></trkpt><trkpt lat="43.3106867908029" lon="12.25189498664495"><ele>268.0</ele><time>2026-04-10T16:00:05.001Z</time></trkpt><trkpt lat="43.310572006791844" lon="12.25169902747357"><ele>268.0</ele><time>2026-04-10T16:00:06.001Z</time></trkpt><trkpt lat="43.31045483676447" lon="12.251503396779643"><ele>268.0</ele><time>2026-04-10T16:00:07.001Z</time></trkpt><trkpt lat="43.310336833460184" lon="12.25130711445061"><ele>268.0</ele><time>2026-04-10T16:00:08.001Z</time></trkpt><trkpt lat="43.31022060385018" lon="12.251109444229378"><ele>269.66666666666663</ele><time>2026-04-10T16:00:09.001Z</time></trkpt><trkpt lat="43.31010506215676" lon="12.250911817228422"><ele>271.3333333333333</ele><time>2026-04-10T16:00:10.001Z</time></trkpt><trkpt lat="43.309987749547716" lon="12.25071135307695"><ele>273.0</ele><time>2026-04-10T16:00:11.001Z</time></trkpt><trkpt lat="43.30986700142924" lon="12.250505245880902"><ele>273.0</ele><time>2026-04-10T16:00:12.001Z</time></trkpt><trkpt lat="43.30974483640053" lon="12.25029583287624"><ele>273.0</ele><time>2026-04-10T16:00:13.001Z</time></trkpt><trkpt lat="43.30962107365805" lon="12.250086597596344"><ele>273.0</ele><time>2026-04-10T16:00:14.001Z</time></trkpt><trkpt lat="43.309496390612665" lon="12.249882285684484"><ele>273.3333333333333</ele><time>2026-04-10T16:00:15.001Z</time></trkpt><trkpt lat="43.309373612327974" lon="12.249680401880836"><ele>273.66666666666663</ele><time>2026-04-10T16:00:16.001Z</time></trkpt><trkpt lat="43.3092500460597" lon="12.249486700081565"><ele>274.0</ele><time>2026-04-10T16:00:17.001Z</time></trkpt><trkpt lat="43.30912476324759" lon="12.249308419112694"><ele>274.0</ele><time>2026-04-10T16:00:18.001Z</time></trkpt><trkpt lat="43.3089864191488" lon="12.249144793279417"><ele>274.0</ele><time>2026-04-10T16:00:19.001Z</time></trkpt><trkpt lat="43.30883264771751" lon="12.248999514181051"><ele>274.0</ele><time>2026-04-10T16:00:20.001Z</time></trkpt><trkpt lat="43.30866577520008" lon="12.248874270522771"><ele>274.3333333333333</ele><time>2026-04-10T16:00:21.001Z</time></trkpt><trkpt lat="43.308488790905635" lon="12.248761848049606"><ele>274.6666666666667</ele><time>2026-04-10T16:00:22.001Z</time></trkpt><trkpt lat="43.308314099237435" lon="12.248649203322799"><ele>275.0</ele><time>2026-04-10T16:00:23.001Z</time></trkpt><trkpt lat="43.30813976865181" lon="12.24853345946042"><ele>273.6666666666667</ele><time>2026-04-10T16:00:24.001Z</time></trkpt><trkpt lat="43.30796466986526" lon="12.248417430929265"><ele>272.3333333333333</ele><time>2026-04-10T16:00:25.001Z</time></trkpt><trkpt lat="43.30779157875325" lon="12.248303317582076"><ele>271.0</ele><time>2026-04-10T16:00:26.001Z</time></trkpt><trkpt lat="43.30762153766706" lon="12.248191238519693"><ele>271.0</ele><time>2026-04-10T16:00:27.001Z</time></trkpt><trkpt lat="43.3074551767484" lon="12.248075994401042"><ele>271.0</ele><time>2026-04-10T16:00:28.001Z</time></trkpt><trkpt lat="43.30729983560066" lon="12.24794634103239"><ele>271.0</ele><time>2026-04-10T16:00:29.001Z</time></trkpt><trkpt lat="43.30715945554168" lon="12.247787251868527"><ele>271.0</ele><time>2026-04-10T16:00:30.001Z</time></trkpt><trkpt lat="43.30703410859802" lon="12.24759505264577"><ele>271.0</ele><time>2026-04-10T16:00:31.001Z</time></trkpt><trkpt lat="43.30692032918902" lon="12.247383680721489"><ele>271.0</ele><time>2026-04-10T16:00:32.001Z</time></trkpt><trkpt lat="43.30680838924577" lon="12.247173484615208"><ele>272.3333333333333</ele><time>2026-04-10T16:00:33.001Z</time></trkpt><trkpt lat="43.30669970260687" lon="12.246973219781667"><ele>273.6666666666667</ele><time>2026-04-10T16:00:34.001Z</time></trkpt><trkpt lat="43.30660169839196" lon="12.246772103606757"><ele>275.0</ele><time>2026-04-10T16:00:35.001Z</time></trkpt><trkpt lat="43.306516840991954" lon="12.246577255356232"><ele>274.33333333333337</ele><time>2026-04-10T16:00:36.001Z</time></trkpt><trkpt lat="43.30644316295128" lon="12.24638658359859"><ele>273.6666666666667</ele><time>2026-04-10T16:00:37.001Z</time></trkpt><trkpt lat="43.306366191776846" lon="12.246198438981379"><ele>273.0</ele><time>2026-04-10T16:00:38.001Z</time></trkpt><trkpt lat="43.306265805329744" lon="12.246016861590451"><ele>273.0</ele><time>2026-04-10T16:00:39.001Z</time></trkpt><trkpt lat="43.30615668581042" lon="12.245829029280944"><ele>273.0</ele><time>2026-04-10T16:00:40.001Z</time></trkpt><trkpt lat="43.30604801046345" lon="12.245650769749682"><ele>273.0</ele><time>2026-04-10T16:00:41.001Z</time></trkpt><trkpt lat="43.3059369065587" lon="12.245482190710737"><ele>273.0</ele><time>2026-04-10T16:00:42.001Z</time></trkpt><trkpt lat="43.305812458859826" lon="12.24532511780542"><ele>273.0</ele><time>2026-04-10T16:00:43.001Z</time></trkpt><trkpt lat="43.305670529663296" lon="12.245187768147881"><ele>273.0</ele><time>2026-04-10T16:00:44.001Z</time></trkpt><trkpt lat="43.30550992393774" lon="12.245077582378412"><ele>273.0</ele><time>2026-04-10T16:00:45.001Z</time></trkpt><trkpt lat="43.30534172026978" lon="12.244972460527157"><ele>273.0</ele><time>2026-04-10T16:00:46.001Z</time></trkpt><trkpt lat="43.305170561415245" lon="12.244867550516409"><ele>273.0</ele><time>2026-04-10T16:00:47.001Z</time></trkpt><trkpt lat="43.304999877354355" lon="12.244760479375143"><ele>274.3333333333333</ele><time>2026-04-10T16:00:48.001Z</time></trkpt><trkpt lat="43.304833761249654" lon="12.244654305297349"><ele>275.66666666666663</ele><time>2026-04-10T16:00:49.001Z</time></trkpt><trkpt lat="43.3046782835131" lon="12.244553865431005"><ele>277.0</ele><time>2026-04-10T16:00:50.002Z</time></trkpt><trkpt lat="43.30452450630719" lon="12.24446073662776"><ele>277.0</ele><time>2026-04-10T16:00:51.002Z</time></trkpt><trkpt lat="43.30437355713692" lon="12.244372454965557"><ele>277.0</ele><time>2026-04-10T16:00:52.002Z</time></trkpt><trkpt lat="43.30422831855351" lon="12.244290960188792"><ele>277.0</ele><time>2026-04-10T16:00:53.002Z</time></trkpt><trkpt lat="43.304085514729216" lon="12.244219386176873"><ele>277.0</ele><time>2026-04-10T16:00:54.002Z</time></trkpt><trkpt lat="43.3039462313597" lon="12.244151741414994"><ele>277.0</ele><time>2026-04-10T16:00:55.001Z</time></trkpt><trkpt lat="43.30381515050865" lon="12.244080971026658"><ele>277.0</ele><time>2026-04-10T16:00:56Z</time></trkpt><trkpt lat="43.30369313831054" lon="12.243999485432603"><ele>277.0</ele><time>2026-04-10T16:00:57.001Z</time></trkpt><trkpt lat="43.303589823231064" lon="12.24388892743899"><ele>276.5</ele><time>2026-04-10T16:00:58.001Z</time></trkpt><trkpt lat="43.30351974964294" lon="12.243747133602765"><ele>276.0</ele><time>2026-04-10T16:00:59Z</time></trkpt><trkpt lat="43.30348540311659" lon="12.243588345366524"><ele>275.5</ele><time>2026-04-10T16:01:00Z</time></trkpt><trkpt lat="43.30348646077094" lon="12.243417877762393"><ele>275.0</ele><time>2026-04-10T16:01:01Z</time></trkpt><trkpt lat="43.30352405278663" lon="12.243246917979674"><ele>275.0</ele><time>2026-04-10T16:01:02Z</time></trkpt><trkpt lat="43.30358099442967" lon="12.243075504803548"><ele>275.0</ele><time>2026-04-10T16:01:03Z</time></trkpt><trkpt lat="43.30363523618466" lon="12.242910186720575"><ele>275.0</ele><time>2026-04-10T16:01:04Z</time></trkpt><trkpt lat="43.303689773604724" lon="12.24274895481008"><ele>275.0</ele><time>2026-04-10T16:01:05Z</time></trkpt><trkpt lat="43.30374214176247" lon="12.242589691722179"><ele>275.0</ele><time>2026-04-10T16:01:06Z</time></trkpt><trkpt lat="43.30379562539704" lon="12.242422124187982"><ele>275.0</ele><time>2026-04-10T16:01:07Z</time></trkpt><trkpt lat="43.30385254864204" lon="12.242264453209646"><ele>275.0</ele><time>2026-04-10T16:01:08Z</time></trkpt><trkpt lat="43.30392779743796" lon="12.242127745692677"><ele>275.0</ele><time>2026-04-10T16:01:09Z</time></trkpt><trkpt lat="43.30403229603967" lon="12.242019077428832"><ele>276.0</ele><time>2026-04-10T16:01:10Z</time></trkpt><trkpt lat="43.30415679614393" lon="12.241941782431468"><ele>277.0</ele><time>2026-04-10T16:01:11Z</time></trkpt><trkpt lat="43.30428977467442" lon="12.241877459236697"><ele>278.0</ele><time>2026-04-10T16:01:12Z</time></trkpt><trkpt lat="43.30441742619428" lon="12.241815741737577"><ele>279.0</ele><time>2026-04-10T16:01:13Z</time></trkpt><trkpt lat="43.304540713952804" lon="12.241747813540508"><ele>279.0</ele><time>2026-04-10T16:01:14Z</time></trkpt><trkpt lat="43.304660078778" lon="12.241677487185424"><ele>279.0</ele><time>2026-04-10T16:01:15Z</time></trkpt><trkpt lat="43.30477205839235" lon="12.241614331911109"><ele>279.0</ele><time>2026-04-10T16:01:16Z</time></trkpt><trkpt lat="43.30488024985964" lon="12.241555515665647"><ele>279.0</ele><time>2026-04-10T16:01:17Z</time></trkpt><trkpt lat="43.30498231073764" lon="12.24149272878168"><ele>279.4</ele><time>2026-04-10T16:01:18Z</time></trkpt><trkpt lat="43.30507262291927" lon="12.241416986040276"><ele>279.79999999999995</ele><time>2026-04-10T16:01:19Z</time></trkpt><trkpt lat="43.30515144893823" lon="12.241332322355186"><ele>280.20000000000005</ele><time>2026-04-10T16:01:20Z</time></trkpt><trkpt lat="43.30517695220012" lon="12.241174510178006"><ele>280.6</ele><time>2026-04-10T16:01:21Z</time></trkpt><trkpt lat="43.30517483621163" lon="12.241014754457943"><ele>281.0</ele><time>2026-04-10T16:01:22Z</time></trkpt><trkpt lat="43.30515030950144" lon="12.240846411565217"><ele>281.0</ele><time>2026-04-10T16:01:23Z</time></trkpt><trkpt lat="43.30512310888353" lon="12.240668252301704"><ele>281.0</ele><time>2026-04-10T16:01:24Z</time></trkpt><trkpt lat="43.30509772827466" lon="12.240487737369364"><ele>281.0</ele><time>2026-04-10T16:01:25Z</time></trkpt><trkpt lat="43.30507381018897" lon="12.240307050517176"><ele>281.0</ele><time>2026-04-10T16:01:26Z</time></trkpt><trkpt lat="43.305048335002574" lon="12.240124905168091"><ele>281.0</ele><time>2026-04-10T16:01:27Z</time></trkpt><trkpt lat="43.30502339392098" lon="12.23993854124598"><ele>281.0</ele><time>2026-04-10T16:01:28Z</time></trkpt><trkpt lat="43.30499749723288" lon="12.239745615088772"><ele>281.0</ele><time>2026-04-10T16:01:29Z</time></trkpt><trkpt lat="43.30497027794491" lon="12.239548795685062"><ele>281.0</ele><time>2026-04-10T16:01:30Z</time></trkpt><trkpt lat="43.30494232847071" lon="12.239345589314494"><ele>281.6666666666667</ele><time>2026-04-10T16:01:31Z</time></trkpt><trkpt lat="43.30491645596063" lon="12.239131448158918"><ele>282.3333333333333</ele><time>2026-04-10T16:01:32Z</time></trkpt><trkpt lat="43.30488884990618" lon="12.238910275946434"><ele>283.0</ele><time>2026-04-10T16:01:33.001Z</time></trkpt><trkpt lat="43.304860727469666" lon="12.23869476508696"><ele>283.3333333333333</ele><time>2026-04-10T16:01:34.001Z</time></trkpt><trkpt lat="43.304834102378116" lon="12.238473849360348"><ele>283.6666666666667</ele><time>2026-04-10T16:01:35.001Z</time></trkpt><trkpt lat="43.304806255650846" lon="12.238249455907443"><ele>284.0</ele><time>2026-04-10T16:01:36.001Z</time></trkpt><trkpt lat="43.30477819951131" lon="12.238021531666071"><ele>283.33333333333337</ele><time>2026-04-10T16:01:37.001Z</time></trkpt><trkpt lat="43.304749770315325" lon="12.237785244179035"><ele>282.6666666666667</ele><time>2026-04-10T16:01:38.001Z</time></trkpt><trkpt lat="43.304718981321734" lon="12.237541462836036"><ele>282.0</ele><time>2026-04-10T16:01:39.001Z</time></trkpt><trkpt lat="43.30468571681578" lon="12.237286383960997"><ele>280.6666666666667</ele><time>2026-04-10T16:01:40.001Z</time></trkpt><trkpt lat="43.304652958351404" lon="12.237024575605437"><ele>279.33333333333337</ele><time>2026-04-10T16:01:41.001Z</time></trkpt><trkpt lat="43.30462273384402" lon="12.236752221528883"><ele>278.0</ele><time>2026-04-10T16:01:42.001Z</time></trkpt><trkpt lat="43.30458603261054" lon="12.23648476332871"><ele>277.6666666666667</ele><time>2026-04-10T16:01:43.001Z</time></trkpt><trkpt lat="43.304546990970735" lon="12.23620667134759"><ele>277.3333333333333</ele><time>2026-04-10T16:01:44.001Z</time></trkpt><trkpt lat="43.304501257263155" lon="12.235902641528465"><ele>277.0</ele><time>2026-04-10T16:01:45.001Z</time></trkpt><trkpt lat="43.30447334163743" lon="12.235570789732003"><ele>277.0</ele><time>2026-04-10T16:01:46.001Z</time></trkpt><trkpt lat="43.30443180013751" lon="12.235239387753282"><ele>277.0</ele><time>2026-04-10T16:01:47.001Z</time></trkpt><trkpt lat="43.30437701300183" lon="12.234919226493346"><ele>277.0</ele><time>2026-04-10T16:01:48.001Z</time></trkpt><trkpt lat="43.3043438631452" lon="12.234598446875392"><ele>277.0</ele><time>2026-04-10T16:01:49.001Z</time></trkpt><trkpt lat="43.304307772023805" lon="12.234286186501155"><ele>277.0</ele><time>2026-04-10T16:01:50.001Z</time></trkpt><trkpt lat="43.304269950947415" lon="12.233981010977518"><ele>277.0</ele><time>2026-04-10T16:01:51.001Z</time></trkpt><trkpt lat="43.30423285574868" lon="12.233681284551638"><ele>277.0</ele><time>2026-04-10T16:01:52.001Z</time></trkpt><trkpt lat="43.304196817477944" lon="12.233387569030512"><ele>277.66666666666663</ele><time>2026-04-10T16:01:53.001Z</time></trkpt><trkpt lat="43.30416078271747" lon="12.23309846484335"><ele>278.3333333333333</ele><time>2026-04-10T16:01:54.001Z</time></trkpt><trkpt lat="43.304124261323835" lon="12.232812620974254"><ele>279.0</ele><time>2026-04-10T16:01:55.001Z</time></trkpt><trkpt lat="43.30408656644273" lon="12.232526908164918"><ele>279.6666666666667</ele><time>2026-04-10T16:01:56.001Z</time></trkpt><trkpt lat="43.30404870118219" lon="12.232241797179888"><ele>280.33333333333337</ele><time>2026-04-10T16:01:57.001Z</time></trkpt><trkpt lat="43.304011893333254" lon="12.231960824021623"><ele>281.0</ele><time>2026-04-10T16:01:58.001Z</time></trkpt><trkpt lat="43.30397791984933" lon="12.231689707185845"><ele>281.6666666666667</ele><time>2026-04-10T16:01:59.001Z</time></trkpt><trkpt lat="43.30394498591618" lon="12.231429338749505"><ele>282.3333333333333</ele><time>2026-04-10T16:02:00.001Z</time></trkpt><trkpt lat="43.30391591267492" lon="12.231183286596952"><ele>283.0</ele><time>2026-04-10T16:02:01.001Z</time></trkpt><trkpt lat="43.30388460016673" lon="12.230954891987219"><ele>281.3333333333333</ele><time>2026-04-10T16:02:02.001Z</time></trkpt><trkpt lat="43.303849561287734" lon="12.230739041849393"><ele>279.6666666666667</ele><time>2026-04-10T16:02:03.001Z</time></trkpt><trkpt lat="43.30380354095928" lon="12.230529381020874"><ele>278.0</ele><time>2026-04-10T16:02:04.001Z</time></trkpt><trkpt lat="43.3037270793458" lon="12.230322519371146"><ele>277.6666666666667</ele><time>2026-04-10T16:02:05.001Z</time></trkpt><trkpt lat="43.303614391986436" lon="12.230132256009828"><ele>277.3333333333333</ele><time>2026-04-10T16:02:06.001Z</time></trkpt><trkpt lat="43.30347659115783" lon="12.229955787566581"><ele>277.0</ele><time>2026-04-10T16:02:07.001Z</time></trkpt><trkpt lat="43.303318054458515" lon="12.229787704354997"><ele>277.0</ele><time>2026-04-10T16:02:08.001Z</time></trkpt><trkpt lat="43.30315235468557" lon="12.229611985639274"><ele>277.0</ele><time>2026-04-10T16:02:09.001Z</time></trkpt><trkpt lat="43.302986562457455" lon="12.229427721673492"><ele>277.0</ele><time>2026-04-10T16:02:10.001Z</time></trkpt><trkpt lat="43.30282531156351" lon="12.229249379132394"><ele>277.0</ele><time>2026-04-10T16:02:11.001Z</time></trkpt><trkpt lat="43.30267493754714" lon="12.229081910177136"><ele>277.0</ele><time>2026-04-10T16:02:12.001Z</time></trkpt><trkpt lat="43.302532786493934" lon="12.228922939024761"><ele>277.0</ele><time>2026-04-10T16:02:13.001Z</time></trkpt><trkpt lat="43.302395842933024" lon="12.22877015825088"><ele>277.66666666666663</ele><time>2026-04-10T16:02:14.001Z</time></trkpt><trkpt lat="43.30225926678984" lon="12.22861715723175"><ele>278.3333333333333</ele><time>2026-04-10T16:02:15.001Z</time></trkpt><trkpt lat="43.30212766229698" lon="12.228469274959581"><ele>279.0</ele><time>2026-04-10T16:02:16.001Z</time></trkpt><trkpt lat="43.30199883994473" lon="12.228327805116423"><ele>279.0</ele><time>2026-04-10T16:02:17.001Z</time></trkpt><trkpt lat="43.30186872958282" lon="12.22819575603786"><ele>279.0</ele><time>2026-04-10T16:02:18.001Z</time></trkpt><trkpt lat="43.30172758165214" lon="12.228088713280517"><ele>279.0</ele><time>2026-04-10T16:02:19.001Z</time></trkpt><trkpt lat="43.30157109956879" lon="12.228009944958139"><ele>280.6666666666667</ele><time>2026-04-10T16:02:20.001Z</time></trkpt><trkpt lat="43.301399685496676" lon="12.227945096362168"><ele>282.33333333333337</ele><time>2026-04-10T16:02:21.001Z</time></trkpt><trkpt lat="43.3012250874817" lon="12.227888421524582"><ele>284.0</ele><time>2026-04-10T16:02:22.001Z</time></trkpt><trkpt lat="43.30106297740261" lon="12.227821498042701"><ele>284.0</ele><time>2026-04-10T16:02:23.001Z</time></trkpt><trkpt lat="43.30091076660789" lon="12.227732548187115"><ele>284.0</ele><time>2026-04-10T16:02:24.001Z</time></trkpt><trkpt lat="43.30077427800626" lon="12.22761253771949"><ele>284.0</ele><time>2026-04-10T16:02:25.001Z</time></trkpt><trkpt lat="43.300660696080385" lon="12.22745352205253"><ele>280.6666666666667</ele><time>2026-04-10T16:02:26.001Z</time></trkpt><trkpt lat="43.30058220828917" lon="12.227253458746562"><ele>277.3333333333333</ele><time>2026-04-10T16:02:27.001Z</time></trkpt><trkpt lat="43.30052455189402" lon="12.227019965418116"><ele>274.0</ele><time>2026-04-10T16:02:28.001Z</time></trkpt><trkpt lat="43.300492123572624" lon="12.226762711435454"><ele>274.0</ele><time>2026-04-10T16:02:29.001Z</time></trkpt><trkpt lat="43.3004781933781" lon="12.226484619247756"><ele>274.0</ele><time>2026-04-10T16:02:30.001Z</time></trkpt><trkpt lat="43.300469890280134" lon="12.226192714635431"><ele>274.0</ele><time>2026-04-10T16:02:31.001Z</time></trkpt><trkpt lat="43.3004614460376" lon="12.225888673905136"><ele>275.0</ele><time>2026-04-10T16:02:32.001Z</time></trkpt><trkpt lat="43.30044375769212" lon="12.225586547029161"><ele>276.0</ele><time>2026-04-10T16:02:33.001Z</time></trkpt><trkpt lat="43.30042645256282" lon="12.225295005499571"><ele>277.0</ele><time>2026-04-10T16:02:34.001Z</time></trkpt><trkpt lat="43.30040996731841" lon="12.2250195390267"><ele>277.66666666666663</ele><time>2026-04-10T16:02:35.001Z</time></trkpt><trkpt lat="43.30040066103115" lon="12.224765185212334"><ele>278.3333333333333</ele><time>2026-04-10T16:02:36.001Z</time></trkpt><trkpt lat="43.30039008041294" lon="12.224528503180299"><ele>279.0</ele><time>2026-04-10T16:02:37.001Z</time></trkpt><trkpt lat="43.30037123656233" lon="12.224305211871567"><ele>279.0</ele><time>2026-04-10T16:02:38.001Z</time></trkpt><trkpt lat="43.30032883858366" lon="12.22409140577973"><ele>279.0</ele><time>2026-04-10T16:02:39.001Z</time></trkpt><trkpt lat="43.30022118642567" lon="12.223908614784152"><ele>279.0</ele><time>2026-04-10T16:02:40.001Z</time></trkpt><trkpt lat="43.30010187620766" lon="12.223743909733452"><ele>279.3333333333333</ele><time>2026-04-10T16:02:41.001Z</time></trkpt><trkpt lat="43.2999683907255" lon="12.223569316430497"><ele>279.66666666666663</ele><time>2026-04-10T16:02:42.001Z</time></trkpt><trkpt lat="43.29983054428942" lon="12.223381350237348"><ele>280.0</ele><time>2026-04-10T16:02:43.001Z</time></trkpt><trkpt lat="43.29968995952729" lon="12.223185350795621"><ele>280.3333333333333</ele><time>2026-04-10T16:02:44.001Z</time></trkpt><trkpt lat="43.29954693194656" lon="12.222986149368328"><ele>280.6666666666667</ele><time>2026-04-10T16:02:45.001Z</time></trkpt><trkpt lat="43.29940529624808" lon="12.22278711044879"><ele>281.0</ele><time>2026-04-10T16:02:46.001Z</time></trkpt><trkpt lat="43.29927532475515" lon="12.222604370390323"><ele>281.0</ele><time>2026-04-10T16:02:47.001Z</time></trkpt><trkpt lat="43.2991565400588" lon="12.222432073639224"><ele>281.0</ele><time>2026-04-10T16:02:48.001Z</time></trkpt><trkpt lat="43.29904118736459" lon="12.222271647897585"><ele>281.0</ele><time>2026-04-10T16:02:49.001Z</time></trkpt><trkpt lat="43.29893493626459" lon="12.222115723794921"><ele>281.0</ele><time>2026-04-10T16:02:50.001Z</time></trkpt><trkpt lat="43.298843998371154" lon="12.221958256200976"><ele>281.0</ele><time>2026-04-10T16:02:51.001Z</time></trkpt><trkpt lat="43.298765159878066" lon="12.221789673760997"><ele>281.0</ele><time>2026-04-10T16:02:52.001Z</time></trkpt><trkpt lat="43.29868643177061" lon="12.221598454445202"><ele>282.6666666666667</ele><time>2026-04-10T16:02:53.001Z</time></trkpt><trkpt lat="43.29860335600335" lon="12.22138976828775"><ele>284.3333333333333</ele><time>2026-04-10T16:02:54.001Z</time></trkpt><trkpt lat="43.29851567737651" lon="12.22117695752375"><ele>286.0</ele><time>2026-04-10T16:02:55.001Z</time></trkpt><trkpt lat="43.29843583023971" lon="12.220974790328592"><ele>286.0</ele><time>2026-04-10T16:02:56.001Z</time></trkpt><trkpt lat="43.29836108176194" lon="12.220775131085594"><ele>286.0</ele><time>2026-04-10T16:02:57.001Z</time></trkpt><trkpt lat="43.29828841565425" lon="12.220590125623234"><ele>286.0</ele><time>2026-04-10T16:02:58.001Z</time></trkpt><trkpt lat="43.29821216577034" lon="12.220419152672095"><ele>285.3333333333333</ele><time>2026-04-10T16:02:59.001Z</time></trkpt><trkpt lat="43.29812911135582" lon="12.22025582191691"><ele>284.6666666666667</ele><time>2026-04-10T16:03:00.002Z</time></trkpt><trkpt lat="43.29803274336642" lon="12.220100721413598"><ele>284.0</ele><time>2026-04-10T16:03:01Z</time></trkpt><trkpt lat="43.29790625313546" lon="12.219971396389317"><ele>283.0</ele><time>2026-04-10T16:03:02Z</time></trkpt><trkpt lat="43.29775918345021" lon="12.219881942055055"><ele>282.0</ele><time>2026-04-10T16:03:03Z</time></trkpt><trkpt lat="43.29760272785898" lon="12.219845111285794"><ele>281.0</ele><time>2026-04-10T16:03:04Z</time></trkpt><trkpt lat="43.297447035786995" lon="12.219857741618508"><ele>281.0</ele><time>2026-04-10T16:03:05Z</time></trkpt><trkpt lat="43.29730351426726" lon="12.219918796544977"><ele>281.0</ele><time>2026-04-10T16:03:06Z</time></trkpt><trkpt lat="43.29716107029888" lon="12.220018286489434"><ele>281.0</ele><time>2026-04-10T16:03:07Z</time></trkpt><trkpt lat="43.29701213488635" lon="12.220128601273926"><ele>282.33333333333337</ele><time>2026-04-10T16:03:08Z</time></trkpt><trkpt lat="43.296862372854434" lon="12.22023518359337"><ele>283.6666666666667</ele><time>2026-04-10T16:03:09Z</time></trkpt><trkpt lat="43.29671797390772" lon="12.22033209719719"><ele>285.0</ele><time>2026-04-10T16:03:10Z</time></trkpt><trkpt lat="43.296565484663205" lon="12.220412045349049"><ele>285.0</ele><time>2026-04-10T16:03:11Z</time></trkpt><trkpt lat="43.2963957326623" lon="12.220464930600519"><ele>285.0</ele><time>2026-04-10T16:03:12Z</time></trkpt><trkpt lat="43.29621213396325" lon="12.220490730719737"><ele>285.0</ele><time>2026-04-10T16:03:13Z</time></trkpt><trkpt lat="43.29601897569489" lon="12.220511107323324"><ele>285.0</ele><time>2026-04-10T16:03:14Z</time></trkpt><trkpt lat="43.2958180300849" lon="12.2205437250279"><ele>285.0</ele><time>2026-04-10T16:03:15Z</time></trkpt><trkpt lat="43.29563103832633" lon="12.22057611224608"><ele>285.0</ele><time>2026-04-10T16:03:16Z</time></trkpt><trkpt lat="43.29545440529302" lon="12.220605146201867"><ele>284.3333333333333</ele><time>2026-04-10T16:03:17Z</time></trkpt><trkpt lat="43.295285024279664" lon="12.220628616246758"><ele>283.66666666666663</ele><time>2026-04-10T16:03:18Z</time></trkpt><trkpt lat="43.295121752335845" lon="12.220629941066685"><ele>283.0</ele><time>2026-04-10T16:03:19Z</time></trkpt><trkpt lat="43.294972330909324" lon="12.220586877631067"><ele>283.0</ele><time>2026-04-10T16:03:20Z</time></trkpt><trkpt lat="43.294844161614556" lon="12.220495831287526"><ele>283.0</ele><time>2026-04-10T16:03:21Z</time></trkpt><trkpt lat="43.29473519841934" lon="12.220355043267128"><ele>283.0</ele><time>2026-04-10T16:03:22Z</time></trkpt><trkpt lat="43.294637312319445" lon="12.220167670309209"><ele>281.66666666666663</ele><time>2026-04-10T16:03:23Z</time></trkpt><trkpt lat="43.2945416002218" lon="12.219945842904442"><ele>280.3333333333333</ele><time>2026-04-10T16:03:24Z</time></trkpt><trkpt lat="43.2944444563135" lon="12.219701788302254"><ele>279.0</ele><time>2026-04-10T16:03:25Z</time></trkpt><trkpt lat="43.294342277147294" lon="12.219448367659451"><ele>279.0</ele><time>2026-04-10T16:03:26Z</time></trkpt><trkpt lat="43.29424617153273" lon="12.219216192597205"><ele>279.0</ele><time>2026-04-10T16:03:27Z</time></trkpt><trkpt lat="43.294155226997134" lon="12.219001367351133"><ele>279.0</ele><time>2026-04-10T16:03:28Z</time></trkpt><trkpt lat="43.29407627683475" lon="12.218793369103611"><ele>281.0</ele><time>2026-04-10T16:03:29Z</time></trkpt><trkpt lat="43.29402641726376" lon="12.218576166592934"><ele>283.0</ele><time>2026-04-10T16:03:30Z</time></trkpt><trkpt lat="43.29400651474217" lon="12.218335696136242"><ele>285.0</ele><time>2026-04-10T16:03:31Z</time></trkpt><trkpt lat="43.29399993399979" lon="12.21807566616549"><ele>286.3333333333333</ele><time>2026-04-10T16:03:32Z</time></trkpt><trkpt lat="43.29398466680374" lon="12.217800667567651"><ele>287.66666666666663</ele><time>2026-04-10T16:03:33Z</time></trkpt><trkpt lat="43.29396416219242" lon="12.217508554223249"><ele>289.0</ele><time>2026-04-10T16:03:34Z</time></trkpt><trkpt lat="43.293942718066546" lon="12.217212985360684"><ele>289.66666666666663</ele><time>2026-04-10T16:03:35Z</time></trkpt><trkpt lat="43.29393981667501" lon="12.216917085413675"><ele>290.3333333333333</ele><time>2026-04-10T16:03:36Z</time></trkpt><trkpt lat="43.29392288164314" lon="12.216623983156216"><ele>291.0</ele><time>2026-04-10T16:03:37Z</time></trkpt><trkpt lat="43.293890010695996" lon="12.216334425916672"><ele>286.6666666666667</ele><time>2026-04-10T16:03:38Z</time></trkpt><trkpt lat="43.29387266617802" lon="12.21605114023766"><ele>282.33333333333337</ele><time>2026-04-10T16:03:39Z</time></trkpt><trkpt lat="43.29386108425248" lon="12.215777277576127"><ele>278.0</ele><time>2026-04-10T16:03:40Z</time></trkpt><trkpt lat="43.29384177241365" lon="12.215500104511232"><ele>278.0</ele><time>2026-04-10T16:03:41Z</time></trkpt><trkpt lat="43.29382886889821" lon="12.215229584410164"><ele>278.0</ele><time>2026-04-10T16:03:42Z</time></trkpt><trkpt lat="43.293811779811584" lon="12.214966174999795"><ele>278.0</ele><time>2026-04-10T16:03:43Z</time></trkpt><trkpt lat="43.293798610830514" lon="12.214711740584097"><ele>278.0</ele><time>2026-04-10T16:03:44Z</time></trkpt><trkpt lat="43.29378475371519" lon="12.214462233820369"><ele>278.0</ele><time>2026-04-10T16:03:45Z</time></trkpt><trkpt lat="43.29374211600638" lon="12.2142233086255"><ele>278.0</ele><time>2026-04-10T16:03:46.001Z</time></trkpt><trkpt lat="43.29368801390473" lon="12.213982158444942"><ele>278.6666666666667</ele><time>2026-04-10T16:03:47.001Z</time></trkpt><trkpt lat="43.29360654074845" lon="12.213747159655629"><ele>279.3333333333333</ele><time>2026-04-10T16:03:48.001Z</time></trkpt><trkpt lat="43.29351576007232" lon="12.21351403202234"><ele>280.0</ele><time>2026-04-10T16:03:49.001Z</time></trkpt><trkpt lat="43.29341603680078" lon="12.213285794962028"><ele>280.0</ele><time>2026-04-10T16:03:50.001Z</time></trkpt><trkpt lat="43.29331706030584" lon="12.213053253619519"><ele>280.0</ele><time>2026-04-10T16:03:51.001Z</time></trkpt><trkpt lat="43.29322039513225" lon="12.212819319888684"><ele>280.0</ele><time>2026-04-10T16:03:52.001Z</time></trkpt><trkpt lat="43.29312348424295" lon="12.212585542941232"><ele>280.0</ele><time>2026-04-10T16:03:53.001Z</time></trkpt><trkpt lat="43.29302892132184" lon="12.212356508987869"><ele>280.0</ele><time>2026-04-10T16:03:54.001Z</time></trkpt><trkpt lat="43.292932741093225" lon="12.212130303261263"><ele>280.0</ele><time>2026-04-10T16:03:55.001Z</time></trkpt><trkpt lat="43.2928371725676" lon="12.211902435151018"><ele>280.0</ele><time>2026-04-10T16:03:56.001Z</time></trkpt><trkpt lat="43.292741465272414" lon="12.211674231138062"><ele>280.0</ele><time>2026-04-10T16:03:57.001Z</time></trkpt><trkpt lat="43.29264864973631" lon="12.211444809927553"><ele>280.0</ele><time>2026-04-10T16:03:58.001Z</time></trkpt><trkpt lat="43.292555426409464" lon="12.211219767614908"><ele>281.3333333333333</ele><time>2026-04-10T16:03:59.001Z</time></trkpt><trkpt lat="43.29246390741783" lon="12.210997038988673"><ele>282.6666666666667</ele><time>2026-04-10T16:04:00.001Z</time></trkpt><trkpt lat="43.29236692302557" lon="12.210784796107022"><ele>284.0</ele><time>2026-04-10T16:04:01.001Z</time></trkpt><trkpt lat="43.292256296565014" lon="12.210591543560408"><ele>287.33333333333337</ele><time>2026-04-10T16:04:02.001Z</time></trkpt><trkpt lat="43.29211854070055" lon="12.21044511730089"><ele>290.6666666666667</ele><time>2026-04-10T16:04:03.001Z</time></trkpt><trkpt lat="43.29195758237514" lon="12.210330018902734"><ele>294.0</ele><time>2026-04-10T16:04:04.001Z</time></trkpt><trkpt lat="43.29178417654797" lon="12.210235820330388"><ele>294.0</ele><time>2026-04-10T16:04:05.001Z</time></trkpt><trkpt lat="43.291600634859954" lon="12.210159953767052"><ele>294.0</ele><time>2026-04-10T16:04:06.001Z</time></trkpt><trkpt lat="43.29143564356871" lon="12.210077744700616"><ele>294.0</ele><time>2026-04-10T16:04:07.001Z</time></trkpt><trkpt lat="43.291274132634754" lon="12.210002702728302"><ele>292.0</ele><time>2026-04-10T16:04:08.001Z</time></trkpt><trkpt lat="43.291108829340786" lon="12.209948378973287"><ele>290.0</ele><time>2026-04-10T16:04:09.001Z</time></trkpt><trkpt lat="43.29093589287124" lon="12.209931528871115"><ele>288.0</ele><time>2026-04-10T16:04:10.001Z</time></trkpt><trkpt lat="43.29076165645563" lon="12.209950012414247"><ele>288.3333333333333</ele><time>2026-04-10T16:04:11.001Z</time></trkpt><trkpt lat="43.2905828458009" lon="12.210000250150504"><ele>288.66666666666663</ele><time>2026-04-10T16:04:12.001Z</time></trkpt><trkpt lat="43.29039959785293" lon="12.210065466896406"><ele>289.0</ele><time>2026-04-10T16:04:13.001Z</time></trkpt><trkpt lat="43.29021670370361" lon="12.21013319356662"><ele>289.0</ele><time>2026-04-10T16:04:14.001Z</time></trkpt><trkpt lat="43.290023934765344" lon="12.210182038647387"><ele>289.0</ele><time>2026-04-10T16:04:15.001Z</time></trkpt><trkpt lat="43.289827922443195" lon="12.210253686227617"><ele>289.0</ele><time>2026-04-10T16:04:16.001Z</time></trkpt><trkpt lat="43.289631737378265" lon="12.210325394968876"><ele>290.3333333333333</ele><time>2026-04-10T16:04:17.001Z</time></trkpt><trkpt lat="43.28943806090616" lon="12.210396186948481"><ele>291.6666666666667</ele><time>2026-04-10T16:04:18.001Z</time></trkpt><trkpt lat="43.2892435217974" lon="12.210467265107042"><ele>293.0</ele><time>2026-04-10T16:04:19.001Z</time></trkpt><trkpt lat="43.28905282244116" lon="12.210536927395326"><ele>291.0</ele><time>2026-04-10T16:04:20.001Z</time></trkpt><trkpt lat="43.28887354587736" lon="12.210623284793284"><ele>289.0</ele><time>2026-04-10T16:04:21.001Z</time></trkpt><trkpt lat="43.28870356035703" lon="12.210679446660627"><ele>287.0</ele><time>2026-04-10T16:04:22.001Z</time></trkpt><trkpt lat="43.28854201048316" lon="12.210736772452465"><ele>285.33333333333337</ele><time>2026-04-10T16:04:23.001Z</time></trkpt><trkpt lat="43.28838938239457" lon="12.210789223828217"><ele>283.6666666666667</ele><time>2026-04-10T16:04:24.001Z</time></trkpt><trkpt lat="43.28824350394411" lon="12.21083850552032"><ele>282.0</ele><time>2026-04-10T16:04:25.001Z</time></trkpt><trkpt lat="43.28810469584112" lon="12.210891034431372"><ele>284.0</ele><time>2026-04-10T16:04:26.001Z</time></trkpt><trkpt lat="43.28797157066341" lon="12.210950380339273"><ele>286.0</ele><time>2026-04-10T16:04:27.001Z</time></trkpt><trkpt lat="43.28784611642508" lon="12.211016225822103"><ele>288.0</ele><time>2026-04-10T16:04:28.001Z</time></trkpt><trkpt lat="43.28773677630584" lon="12.211110101228714"><ele>290.0</ele><time>2026-04-10T16:04:29.001Z</time></trkpt><trkpt lat="43.28765730343423" lon="12.211240371778036"><ele>290.0</ele><time>2026-04-10T16:04:30.001Z</time></trkpt><trkpt lat="43.28761880683426" lon="12.211387235440105"><ele>290.0</ele><time>2026-04-10T16:04:31.001Z</time></trkpt><trkpt lat="43.28761200459498" lon="12.211545613625235"><ele>290.0</ele><time>2026-04-10T16:04:32.001Z</time></trkpt><trkpt lat="43.28763475019786" lon="12.211709378680428"><ele>290.0</ele><time>2026-04-10T16:04:33.001Z</time></trkpt><trkpt lat="43.28768000451218" lon="12.21188215752382"><ele>289.75</ele><time>2026-04-10T16:04:34.001Z</time></trkpt><trkpt lat="43.28772631660121" lon="12.21204342577238"><ele>289.5</ele><time>2026-04-10T16:04:35.001Z</time></trkpt><trkpt lat="43.28775299222676" lon="12.212194524822024"><ele>289.25</ele><time>2026-04-10T16:04:36.001Z</time></trkpt><trkpt lat="43.28774608014999" lon="12.212346463579635"><ele>289.0</ele><time>2026-04-10T16:04:37.001Z</time></trkpt><trkpt lat="43.28769616979933" lon="12.21248846065162"><ele>288.25</ele><time>2026-04-10T16:04:38.001Z</time></trkpt><trkpt lat="43.287607887058186" lon="12.212595867501136"><ele>287.5</ele><time>2026-04-10T16:04:39.001Z</time></trkpt><trkpt lat="43.287501741474955" lon="12.212631338813528"><ele>286.75</ele><time>2026-04-10T16:04:40.001Z</time></trkpt><trkpt lat="43.287392238346015" lon="12.212615090288589"><ele>286.0</ele><time>2026-04-10T16:04:41.001Z</time></trkpt><trkpt lat="43.28727076616091" lon="12.212550907047753"><ele>284.3333333333333</ele><time>2026-04-10T16:04:42.001Z</time></trkpt><trkpt lat="43.28715174104061" lon="12.212431745049782"><ele>282.6666666666667</ele><time>2026-04-10T16:04:43.001Z</time></trkpt><trkpt lat="43.28704730378908" lon="12.21227680222301"><ele>281.0</ele><time>2026-04-10T16:04:44.001Z</time></trkpt><trkpt lat="43.28695434523823" lon="12.212078340948882"><ele>284.33333333333337</ele><time>2026-04-10T16:04:45.001Z</time></trkpt><trkpt lat="43.28686998150316" lon="12.211856654350678"><ele>287.6666666666667</ele><time>2026-04-10T16:04:46.001Z</time></trkpt><trkpt lat="43.2867977867645" lon="12.211638698622261"><ele>291.0</ele><time>2026-04-10T16:04:47.001Z</time></trkpt><trkpt lat="43.28673075872714" lon="12.211443729673784"><ele>294.3333333333333</ele><time>2026-04-10T16:04:48.001Z</time></trkpt><trkpt lat="43.28666154520896" lon="12.211247279890022"><ele>297.66666666666663</ele><time>2026-04-10T16:04:49.001Z</time></trkpt><trkpt lat="43.2866005887272" lon="12.211037182393511"><ele>301.0</ele><time>2026-04-10T16:04:50.001Z</time></trkpt><trkpt lat="43.28656005535472" lon="12.210811691171411"><ele>301.25</ele><time>2026-04-10T16:04:51.001Z</time></trkpt><trkpt lat="43.28653374372857" lon="12.210604717328176"><ele>301.5</ele><time>2026-04-10T16:04:52.001Z</time></trkpt><trkpt lat="43.28650837842037" lon="12.210410664386965"><ele>301.75</ele><time>2026-04-10T16:04:53.001Z</time></trkpt><trkpt lat="43.28647307221436" lon="12.21023472892395"><ele>302.0</ele><time>2026-04-10T16:04:54.001Z</time></trkpt><trkpt lat="43.28640354074439" lon="12.210093168934028"><ele>301.25</ele><time>2026-04-10T16:04:55.001Z</time></trkpt><trkpt lat="43.2863182015925" lon="12.209959132699518"><ele>300.5</ele><time>2026-04-10T16:04:56.001Z</time></trkpt><trkpt lat="43.286213832485046" lon="12.20986425588239"><ele>299.75</ele><time>2026-04-10T16:04:57.001Z</time></trkpt><trkpt lat="43.28608981020915" lon="12.209805736828843"><ele>299.0</ele><time>2026-04-10T16:04:58.001Z</time></trkpt><trkpt lat="43.285949530365784" lon="12.20979092595388"><ele>299.0</ele><time>2026-04-10T16:04:59.001Z</time></trkpt><trkpt lat="43.28581253790256" lon="12.209820124716927"><ele>299.0</ele><time>2026-04-10T16:05:00.001Z</time></trkpt><trkpt lat="43.28567968212829" lon="12.209855911211696"><ele>299.0</ele><time>2026-04-10T16:05:01.001Z</time></trkpt><trkpt lat="43.28554247250657" lon="12.209869632561334"><ele>299.0</ele><time>2026-04-10T16:05:02.001Z</time></trkpt><trkpt lat="43.285408090105314" lon="12.20983589699886"><ele>299.75</ele><time>2026-04-10T16:05:03.001Z</time></trkpt><trkpt lat="43.28528185787908" lon="12.209748982377999"><ele>300.5</ele><time>2026-04-10T16:05:04.001Z</time></trkpt><trkpt lat="43.285166843960056" lon="12.20962400334651"><ele>301.25</ele><time>2026-04-10T16:05:05.001Z</time></trkpt><trkpt lat="43.28506612396418" lon="12.209459513403226"><ele>302.0</ele><time>2026-04-10T16:05:06.001Z</time></trkpt><trkpt lat="43.284969261068156" lon="12.209288378174135"><ele>302.0</ele><time>2026-04-10T16:05:07Z</time></trkpt><trkpt lat="43.284858459315295" lon="12.209151814143075"><ele>302.0</ele><time>2026-04-10T16:05:08Z</time></trkpt><trkpt lat="43.28472771148753" lon="12.20907036283508"><ele>302.0</ele><time>2026-04-10T16:05:09Z</time></trkpt><trkpt lat="43.28458683813413" lon="12.209032674514724"><ele>302.0</ele><time>2026-04-10T16:05:10Z</time></trkpt><trkpt lat="43.28443274759299" lon="12.209017332208022"><ele>299.33333333333337</ele><time>2026-04-10T16:05:11Z</time></trkpt><trkpt lat="43.28426917008897" lon="12.209014836706706"><ele>296.6666666666667</ele><time>2026-04-10T16:05:12Z</time></trkpt><trkpt lat="43.28410157353915" lon="12.20901341692329"><ele>294.0</ele><time>2026-04-10T16:05:13Z</time></trkpt><trkpt lat="43.28394524640743" lon="12.209015898582548"><ele>294.0</ele><time>2026-04-10T16:05:14Z</time></trkpt><trkpt lat="43.283794932993004" lon="12.209013937655364"><ele>294.0</ele><time>2026-04-10T16:05:15Z</time></trkpt><trkpt lat="43.2836507249579" lon="12.209010807432776"><ele>294.0</ele><time>2026-04-10T16:05:16Z</time></trkpt><trkpt lat="43.28352909485828" lon="12.208985319183357"><ele>294.0</ele><time>2026-04-10T16:05:17Z</time></trkpt><trkpt lat="43.28341647246039" lon="12.208911782779031"><ele>294.0</ele><time>2026-04-10T16:05:18Z</time></trkpt><trkpt lat="43.28332849966804" lon="12.208776411536489"><ele>294.0</ele><time>2026-04-10T16:05:19Z</time></trkpt><trkpt lat="43.28325649883568" lon="12.208597371337449"><ele>294.0</ele><time>2026-04-10T16:05:20Z</time></trkpt><trkpt lat="43.28318894646675" lon="12.208394241101965"><ele>294.0</ele><time>2026-04-10T16:05:21Z</time></trkpt><trkpt lat="43.28311828391062" lon="12.20817467614898"><ele>290.3333333333333</ele><time>2026-04-10T16:05:22Z</time></trkpt><trkpt lat="43.28304908474527" lon="12.20794648847286"><ele>286.66666666666663</ele><time>2026-04-10T16:05:23Z</time></trkpt><trkpt lat="43.28298064369688" lon="12.20772405312432"><ele>283.0</ele><time>2026-04-10T16:05:24Z</time></trkpt><trkpt lat="43.28291314921781" lon="12.20750857350341"><ele>283.5</ele><time>2026-04-10T16:05:25Z</time></trkpt><trkpt lat="43.28285255243956" lon="12.20730767184092"><ele>284.0</ele><time>2026-04-10T16:05:26Z</time></trkpt><trkpt lat="43.28279707939599" lon="12.207123277016555"><ele>284.5</ele><time>2026-04-10T16:05:27Z</time></trkpt><trkpt lat="43.28274738227684" lon="12.206952402852185"><ele>285.0</ele><time>2026-04-10T16:05:28Z</time></trkpt><trkpt lat="43.28271153898072" lon="12.20681769538341"><ele>285.0</ele><time>2026-04-10T16:05:29Z</time></trkpt><trkpt lat="43.28268452832613" lon="12.206716500755437"><ele>285.0</ele><time>2026-04-10T16:05:30Z</time></trkpt><trkpt lat="43.282642323548316" lon="12.206597436769782"><ele>285.0</ele><time>2026-04-10T16:05:32Z</time></trkpt><trkpt lat="43.28252017828476" lon="12.206685632180974"><ele>285.0</ele><time>2026-04-10T16:05:34Z</time></trkpt><trkpt lat="43.28246217548168" lon="12.206785472686605"><ele>285.0</ele><time>2026-04-10T16:05:35Z</time></trkpt><trkpt lat="43.28241072760911" lon="12.206907226448676"><ele>285.0</ele><time>2026-04-10T16:05:36Z</time></trkpt><trkpt lat="43.28236464682001" lon="12.207050927829652"><ele>285.0</ele><time>2026-04-10T16:05:37Z</time></trkpt><trkpt lat="43.28231015343498" lon="12.20718172101671"><ele>285.0</ele><time>2026-04-10T16:05:38Z</time></trkpt><trkpt lat="43.282254266645495" lon="12.207306096551601"><ele>285.0</ele><time>2026-04-10T16:05:39Z</time></trkpt><trkpt lat="43.28219425921954" lon="12.207424081055004"><ele>285.0</ele><time>2026-04-10T16:05:40Z</time></trkpt><trkpt lat="43.28212471526408" lon="12.207531188829623"><ele>284.2</ele><time>2026-04-10T16:05:41Z</time></trkpt><trkpt lat="43.282041508907646" lon="12.207625451694069"><ele>283.4</ele><time>2026-04-10T16:05:42Z</time></trkpt><trkpt lat="43.281956353246755" lon="12.207709553760905"><ele>282.6</ele><time>2026-04-10T16:05:43Z</time></trkpt><trkpt lat="43.281873810130875" lon="12.207790802987367"><ele>281.8</ele><time>2026-04-10T16:05:44Z</time></trkpt><trkpt lat="43.28179255577772" lon="12.207873701375044"><ele>281.0</ele><time>2026-04-10T16:05:45Z</time></trkpt><trkpt lat="43.28171661014019" lon="12.207957276324578"><ele>281.0</ele><time>2026-04-10T16:05:46Z</time></trkpt><trkpt lat="43.28163221384267" lon="12.208043708553028"><ele>281.0</ele><time>2026-04-10T16:05:47Z</time></trkpt><trkpt lat="43.28153960300523" lon="12.208136611609469"><ele>281.0</ele><time>2026-04-10T16:05:48Z</time></trkpt><trkpt lat="43.28145260136896" lon="12.208258809406686"><ele>281.0</ele><time>2026-04-10T16:05:49Z</time></trkpt><trkpt lat="43.281368522797685" lon="12.208399854365208"><ele>281.25</ele><time>2026-04-10T16:05:50Z</time></trkpt><trkpt lat="43.2812939192903" lon="12.208565824877903"><ele>281.5</ele><time>2026-04-10T16:05:51Z</time></trkpt><trkpt lat="43.2812191876633" lon="12.208743718867074"><ele>281.75</ele><time>2026-04-10T16:05:52Z</time></trkpt><trkpt lat="43.28113486812841" lon="12.208921806928776"><ele>282.0</ele><time>2026-04-10T16:05:53Z</time></trkpt><trkpt lat="43.281045813565356" lon="12.209100839834521"><ele>282.0</ele><time>2026-04-10T16:05:54Z</time></trkpt><trkpt lat="43.28095623207752" lon="12.209283788824349"><ele>282.0</ele><time>2026-04-10T16:05:55Z</time></trkpt><trkpt lat="43.280869301761356" lon="12.209468505597842"><ele>282.0</ele><time>2026-04-10T16:05:56Z</time></trkpt><trkpt lat="43.280785564699755" lon="12.209656307898172"><ele>281.75</ele><time>2026-04-10T16:05:57.001Z</time></trkpt><trkpt lat="43.2807063916079" lon="12.209838459468353"><ele>281.5</ele><time>2026-04-10T16:05:58.001Z</time></trkpt><trkpt lat="43.28062946942527" lon="12.210010012506435"><ele>281.25</ele><time>2026-04-10T16:05:59.001Z</time></trkpt><trkpt lat="43.28055431302748" lon="12.210176001792329"><ele>281.0</ele><time>2026-04-10T16:06:00.001Z</time></trkpt><trkpt lat="43.28047432622535" lon="12.210345609621484"><ele>281.5</ele><time>2026-04-10T16:06:01.001Z</time></trkpt><trkpt lat="43.28039523553854" lon="12.210510993137158"><ele>282.0</ele><time>2026-04-10T16:06:02.001Z</time></trkpt><trkpt lat="43.28031857863627" lon="12.210674812694835"><ele>282.5</ele><time>2026-04-10T16:06:03.001Z</time></trkpt><trkpt lat="43.28024395730895" lon="12.210836010588471"><ele>283.0</ele><time>2026-04-10T16:06:04.001Z</time></trkpt><trkpt lat="43.28017457635565" lon="12.21098907615722"><ele>283.2</ele><time>2026-04-10T16:06:05.001Z</time></trkpt><trkpt lat="43.28011099748903" lon="12.211130507300934"><ele>283.4</ele><time>2026-04-10T16:06:06.001Z</time></trkpt><trkpt lat="43.28004074262154" lon="12.211251595421318"><ele>283.59999999999997</ele><time>2026-04-10T16:06:07.001Z</time></trkpt><trkpt lat="43.27994840637964" lon="12.211328996058128"><ele>283.8</ele><time>2026-04-10T16:06:08.001Z</time></trkpt><trkpt lat="43.27984402448109" lon="12.211337039602633"><ele>284.0</ele><time>2026-04-10T16:06:09.001Z</time></trkpt><trkpt lat="43.27974886281668" lon="12.21125024832232"><ele>285.0</ele><time>2026-04-10T16:06:10.001Z</time></trkpt><trkpt lat="43.279635143845844" lon="12.211176004241585"><ele>286.0</ele><time>2026-04-10T16:06:11.001Z</time></trkpt><trkpt lat="43.279499532968295" lon="12.211111125857125"><ele>287.0</ele><time>2026-04-10T16:06:12.001Z</time></trkpt><trkpt lat="43.279372813789095" lon="12.21102972832089"><ele>288.0</ele><time>2026-04-10T16:06:13.001Z</time></trkpt><trkpt lat="43.27924129868092" lon="12.210971544243046"><ele>288.0</ele><time>2026-04-10T16:06:14.001Z</time></trkpt><trkpt lat="43.27909180313008" lon="12.210948872288169"><ele>288.0</ele><time>2026-04-10T16:06:15.001Z</time></trkpt><trkpt lat="43.2789409008183" lon="12.21094516967812"><ele>288.0</ele><time>2026-04-10T16:06:16.001Z</time></trkpt><trkpt lat="43.27879992891619" lon="12.210936115936262"><ele>288.0</ele><time>2026-04-10T16:06:17.001Z</time></trkpt><trkpt lat="43.27866934860703" lon="12.210928022245934"><ele>287.75</ele><time>2026-04-10T16:06:18.001Z</time></trkpt><trkpt lat="43.278540356277944" lon="12.210931290588968"><ele>287.5</ele><time>2026-04-10T16:06:19.001Z</time></trkpt><trkpt lat="43.27840767151197" lon="12.210948795342132"><ele>287.25</ele><time>2026-04-10T16:06:20.001Z</time></trkpt><trkpt lat="43.27827691238217" lon="12.210966969745606"><ele>287.0</ele><time>2026-04-10T16:06:21.001Z</time></trkpt><trkpt lat="43.27813760524554" lon="12.210998047991454"><ele>286.6666666666667</ele><time>2026-04-10T16:06:22.001Z</time></trkpt><trkpt lat="43.27799119293634" lon="12.211059492515759"><ele>286.3333333333333</ele><time>2026-04-10T16:06:23.001Z</time></trkpt><trkpt lat="43.27783534993715" lon="12.211144004426233"><ele>286.0</ele><time>2026-04-10T16:06:24.001Z</time></trkpt><trkpt lat="43.27767766724624" lon="12.211229648284352"><ele>286.0</ele><time>2026-04-10T16:06:25.001Z</time></trkpt><trkpt lat="43.277529636787634" lon="12.211312570122004"><ele>286.0</ele><time>2026-04-10T16:06:26.001Z</time></trkpt><trkpt lat="43.277386286371176" lon="12.21138930732469"><ele>286.0</ele><time>2026-04-10T16:06:27.001Z</time></trkpt><trkpt lat="43.27724206338989" lon="12.211452470584987"><ele>286.66666666666663</ele><time>2026-04-10T16:06:28.001Z</time></trkpt><trkpt lat="43.27709164476149" lon="12.21146321934674"><ele>287.3333333333333</ele><time>2026-04-10T16:06:29.001Z</time></trkpt><trkpt lat="43.27694456642557" lon="12.211437542147161"><ele>288.0</ele><time>2026-04-10T16:06:30.001Z</time></trkpt><trkpt lat="43.27679662724753" lon="12.21137135628139"><ele>288.0</ele><time>2026-04-10T16:06:31.001Z</time></trkpt><trkpt lat="43.27663730697806" lon="12.211308627315839"><ele>288.0</ele><time>2026-04-10T16:06:32.001Z</time></trkpt><trkpt lat="43.27648532667715" lon="12.211214217359144"><ele>288.0</ele><time>2026-04-10T16:06:33.001Z</time></trkpt><trkpt lat="43.27633973451676" lon="12.211108690097506"><ele>290.0</ele><time>2026-04-10T16:06:34.001Z</time></trkpt><trkpt lat="43.276211590899784" lon="12.210983911824256"><ele>292.0</ele><time>2026-04-10T16:06:35.001Z</time></trkpt><trkpt lat="43.276092689726696" lon="12.210858344775465"><ele>294.0</ele><time>2026-04-10T16:06:36.001Z</time></trkpt><trkpt lat="43.27596626936285" lon="12.210765619850266"><ele>294.0</ele><time>2026-04-10T16:06:37.001Z</time></trkpt><trkpt lat="43.27583872358322" lon="12.210708705001487"><ele>294.0</ele><time>2026-04-10T16:06:38.001Z</time></trkpt><trkpt lat="43.27571683059076" lon="12.210691129605562"><ele>294.0</ele><time>2026-04-10T16:06:39.001Z</time></trkpt><trkpt lat="43.2755915148398" lon="12.210709266594002"><ele>294.0</ele><time>2026-04-10T16:06:40.001Z</time></trkpt><trkpt lat="43.27546933346962" lon="12.210749571416214"><ele>293.75</ele><time>2026-04-10T16:06:41.001Z</time></trkpt><trkpt lat="43.275355096483615" lon="12.210791278394318"><ele>293.5</ele><time>2026-04-10T16:06:42.001Z</time></trkpt><trkpt lat="43.27524339151324" lon="12.210822234366537"><ele>293.25</ele><time>2026-04-10T16:06:43.001Z</time></trkpt><trkpt lat="43.27513021033646" lon="12.210823306854953"><ele>293.0</ele><time>2026-04-10T16:06:44.001Z</time></trkpt><trkpt lat="43.27501252065814" lon="12.210793695428439"><ele>293.0</ele><time>2026-04-10T16:06:45.001Z</time></trkpt><trkpt lat="43.2748921850527" lon="12.210737294305755"><ele>293.0</ele><time>2026-04-10T16:06:46.001Z</time></trkpt><trkpt lat="43.27478478102708" lon="12.210641229375506"><ele>293.0</ele><time>2026-04-10T16:06:47.001Z</time></trkpt><trkpt lat="43.2746742855413" lon="12.210565117157497"><ele>293.0</ele><time>2026-04-10T16:06:48.001Z</time></trkpt><trkpt lat="43.27460208756998" lon="12.210432771346202"><ele>297.75</ele><time>2026-04-10T16:06:49.001Z</time></trkpt><trkpt lat="43.27452271746388" lon="12.210302179524037"><ele>302.5</ele><time>2026-04-10T16:06:50.001Z</time></trkpt><trkpt lat="43.27451376870061" lon="12.210113192005723"><ele>307.25</ele><time>2026-04-10T16:06:51.001Z</time></trkpt><trkpt lat="43.274518509958796" lon="12.209926806263601"><ele>312.0</ele><time>2026-04-10T16:06:52.001Z</time></trkpt><trkpt lat="43.27451911469194" lon="12.209726958825842"><ele>312.0</ele><time>2026-04-10T16:06:53.001Z</time></trkpt><trkpt lat="43.27454988762863" lon="12.20952302346787"><ele>312.0</ele><time>2026-04-10T16:06:54.001Z</time></trkpt><trkpt lat="43.27457261536566" lon="12.20933878317617"><ele>312.0</ele><time>2026-04-10T16:06:55.001Z</time></trkpt><trkpt lat="43.274591955481874" lon="12.209158835357734"><ele>312.0</ele><time>2026-04-10T16:06:56.001Z</time></trkpt><trkpt lat="43.274603774598354" lon="12.208985474058808"><ele>309.0</ele><time>2026-04-10T16:06:57.001Z</time></trkpt><trkpt lat="43.27459709551026" lon="12.208818813531222"><ele>306.0</ele><time>2026-04-10T16:06:58.001Z</time></trkpt><trkpt lat="43.27456540841117" lon="12.20866191744121"><ele>303.0</ele><time>2026-04-10T16:06:59.001Z</time></trkpt><trkpt lat="43.274513022930236" lon="12.208515281487488"><ele>300.0</ele><time>2026-04-10T16:07:00.001Z</time></trkpt><trkpt lat="43.27444157247074" lon="12.2083815045743"><ele>300.0</ele><time>2026-04-10T16:07:01.001Z</time></trkpt><trkpt lat="43.274356602044996" lon="12.208245247537521"><ele>300.0</ele><time>2026-04-10T16:07:02.001Z</time></trkpt><trkpt lat="43.27425963518195" lon="12.20809564031873"><ele>300.0</ele><time>2026-04-10T16:07:03.001Z</time></trkpt><trkpt lat="43.27415343836188" lon="12.207943160761522"><ele>300.0</ele><time>2026-04-10T16:07:04.001Z</time></trkpt><trkpt lat="43.27403092365593" lon="12.207793898747328"><ele>300.3333333333333</ele><time>2026-04-10T16:07:05.001Z</time></trkpt><trkpt lat="43.27389054792204" lon="12.20765393115604"><ele>300.66666666666663</ele><time>2026-04-10T16:07:06.001Z</time></trkpt><trkpt lat="43.27374875010047" lon="12.207529259418052"><ele>301.0</ele><time>2026-04-10T16:07:07.001Z</time></trkpt><trkpt lat="43.2736168791159" lon="12.207401637776234"><ele>299.0</ele><time>2026-04-10T16:07:08.001Z</time></trkpt><trkpt lat="43.27349945489603" lon="12.207273277159983"><ele>297.0</ele><time>2026-04-10T16:07:09.001Z</time></trkpt><trkpt lat="43.27338612441054" lon="12.207147971815306"><ele>295.0</ele><time>2026-04-10T16:07:10.001Z</time></trkpt><trkpt lat="43.273261198889955" lon="12.207045603474015"><ele>293.0</ele><time>2026-04-10T16:07:11.001Z</time></trkpt><trkpt lat="43.273104355747336" lon="12.207000659919874"><ele>293.0</ele><time>2026-04-10T16:07:12.001Z</time></trkpt><trkpt lat="43.27295399946823" lon="12.206947329434048"><ele>293.0</ele><time>2026-04-10T16:07:13Z</time></trkpt><trkpt lat="43.27281785049445" lon="12.206892863202672"><ele>293.0</ele><time>2026-04-10T16:07:14Z</time></trkpt><trkpt lat="43.27268420420161" lon="12.206846816615187"><ele>293.0</ele><time>2026-04-10T16:07:15Z</time></trkpt><trkpt lat="43.27253875690804" lon="12.206830123462524"><ele>293.0</ele><time>2026-04-10T16:07:16Z</time></trkpt><trkpt lat="43.272388953077375" lon="12.206840845458595"><ele>293.0</ele><time>2026-04-10T16:07:17Z</time></trkpt><trkpt lat="43.27223493867062" lon="12.206861428762261"><ele>293.0</ele><time>2026-04-10T16:07:18Z</time></trkpt><trkpt lat="43.272091574157116" lon="12.206895287913309"><ele>292.6666666666667</ele><time>2026-04-10T16:07:19Z</time></trkpt><trkpt lat="43.27195080521927" lon="12.206953102432198"><ele>292.3333333333333</ele><time>2026-04-10T16:07:20Z</time></trkpt><trkpt lat="43.27180933903199" lon="12.207040938855716"><ele>292.0</ele><time>2026-04-10T16:07:21Z</time></trkpt><trkpt lat="43.27166703206345" lon="12.207142449772302"><ele>292.0</ele><time>2026-04-10T16:07:22Z</time></trkpt><trkpt lat="43.27152731082154" lon="12.207246104540001"><ele>292.0</ele><time>2026-04-10T16:07:23Z</time></trkpt><trkpt lat="43.27138206494328" lon="12.20732108374375"><ele>292.0</ele><time>2026-04-10T16:07:24Z</time></trkpt><trkpt lat="43.27124087654542" lon="12.207403205310024"><ele>291.0</ele><time>2026-04-10T16:07:25Z</time></trkpt><trkpt lat="43.271110728389004" lon="12.20746203489243"><ele>290.0</ele><time>2026-04-10T16:07:26Z</time></trkpt><trkpt lat="43.27098205698223" lon="12.207438035480974"><ele>289.0</ele><time>2026-04-10T16:07:27Z</time></trkpt><trkpt lat="43.2708617442372" lon="12.207358428468378"><ele>288.0</ele><time>2026-04-10T16:07:28Z</time></trkpt><trkpt lat="43.27076776206386" lon="12.20721864073801"><ele>288.0</ele><time>2026-04-10T16:07:29Z</time></trkpt><trkpt lat="43.27066678373264" lon="12.20706622388131"><ele>288.0</ele><time>2026-04-10T16:07:30Z</time></trkpt><trkpt lat="43.27055651236741" lon="12.206898444171436"><ele>288.0</ele><time>2026-04-10T16:07:31Z</time></trkpt><trkpt lat="43.27044054695967" lon="12.206719518978623"><ele>288.0</ele><time>2026-04-10T16:07:32Z</time></trkpt><trkpt lat="43.270321186288015" lon="12.20653521611238"><ele>288.0</ele><time>2026-04-10T16:07:33Z</time></trkpt><trkpt lat="43.27018472428554" lon="12.206357153884595"><ele>288.0</ele><time>2026-04-10T16:07:34Z</time></trkpt><trkpt lat="43.27006106350592" lon="12.206159019586314"><ele>287.6666666666667</ele><time>2026-04-10T16:07:35Z</time></trkpt><trkpt lat="43.26993062477682" lon="12.205957665504311"><ele>287.33333333333337</ele><time>2026-04-10T16:07:36Z</time></trkpt><trkpt lat="43.269801916890756" lon="12.20575848200008"><ele>287.0</ele><time>2026-04-10T16:07:37Z</time></trkpt><trkpt lat="43.26967968801351" lon="12.205561553288454"><ele>288.33333333333337</ele><time>2026-04-10T16:07:38Z</time></trkpt><trkpt lat="43.26956571191264" lon="12.20537658122888"><ele>289.6666666666667</ele><time>2026-04-10T16:07:39Z</time></trkpt><trkpt lat="43.26945583691094" lon="12.205202352121379"><ele>291.0</ele><time>2026-04-10T16:07:40Z</time></trkpt><trkpt lat="43.26935124338285" lon="12.205035159032354"><ele>291.0</ele><time>2026-04-10T16:07:41Z</time></trkpt><trkpt lat="43.26925654873749" lon="12.20487256178339"><ele>291.0</ele><time>2026-04-10T16:07:42Z</time></trkpt><trkpt lat="43.269163161229876" lon="12.204722701180465"><ele>291.0</ele><time>2026-04-10T16:07:43Z</time></trkpt><trkpt lat="43.26906461801514" lon="12.204590015493755"><ele>291.0</ele><time>2026-04-10T16:07:44Z</time></trkpt><trkpt lat="43.26894540044629" lon="12.204493913064795"><ele>291.25</ele><time>2026-04-10T16:07:45Z</time></trkpt><trkpt lat="43.268810390654004" lon="12.204440562688173"><ele>291.5</ele><time>2026-04-10T16:07:46Z</time></trkpt><trkpt lat="43.26867051381147" lon="12.204442105978396"><ele>291.75</ele><time>2026-04-10T16:07:47Z</time></trkpt><trkpt lat="43.2685345144774" lon="12.204494679360925"><ele>292.0</ele><time>2026-04-10T16:07:48Z</time></trkpt><trkpt lat="43.26841108809473" lon="12.204582036554827"><ele>292.0</ele><time>2026-04-10T16:07:49Z</time></trkpt><trkpt lat="43.2682933712816" lon="12.204686760764895"><ele>292.0</ele><time>2026-04-10T16:07:50Z</time></trkpt><trkpt lat="43.26816505681205" lon="12.204789698562701"><ele>292.0</ele><time>2026-04-10T16:07:51Z</time></trkpt><trkpt lat="43.26802296639747" lon="12.204884796978313"><ele>292.0</ele><time>2026-04-10T16:07:52Z</time></trkpt><trkpt lat="43.267873659770366" lon="12.204976713774922"><ele>297.3333333333333</ele><time>2026-04-10T16:07:53Z</time></trkpt><trkpt lat="43.26772996971703" lon="12.205072557737912"><ele>302.6666666666667</ele><time>2026-04-10T16:07:54Z</time></trkpt><trkpt lat="43.267588658125966" lon="12.205173592235582"><ele>308.0</ele><time>2026-04-10T16:07:55Z</time></trkpt><trkpt lat="43.26744695912021" lon="12.2052718105747"><ele>308.0</ele><time>2026-04-10T16:07:56Z</time></trkpt><trkpt lat="43.267303476388214" lon="12.205364326765777"><ele>308.0</ele><time>2026-04-10T16:07:57Z</time></trkpt><trkpt lat="43.267166064600104" lon="12.205453496864232"><ele>308.0</ele><time>2026-04-10T16:07:58Z</time></trkpt><trkpt lat="43.26703280904461" lon="12.205544103314269"><ele>308.75</ele><time>2026-04-10T16:07:59Z</time></trkpt><trkpt lat="43.266903639390456" lon="12.205635084268055"><ele>309.5</ele><time>2026-04-10T16:08:00Z</time></trkpt><trkpt lat="43.266791006015424" lon="12.205731869663502"><ele>310.25</ele><time>2026-04-10T16:08:01Z</time></trkpt><trkpt lat="43.26670527613921" lon="12.205839954619748"><ele>311.0</ele><time>2026-04-10T16:08:02Z</time></trkpt><trkpt lat="43.2666233847125" lon="12.205961504917862"><ele>313.5</ele><time>2026-04-10T16:08:03Z</time></trkpt><trkpt lat="43.26653967181245" lon="12.206093031686638"><ele>316.0</ele><time>2026-04-10T16:08:04Z</time></trkpt><trkpt lat="43.26645804360652" lon="12.206229921184923"><ele>318.5</ele><time>2026-04-10T16:08:05Z</time></trkpt><trkpt lat="43.266369888332875" lon="12.206356567398089"><ele>321.0</ele><time>2026-04-10T16:08:06Z</time></trkpt><trkpt lat="43.26629041709714" lon="12.20648327653567"><ele>323.75</ele><time>2026-04-10T16:08:07Z</time></trkpt><trkpt lat="43.26620442573387" lon="12.206598126489764"><ele>326.5</ele><time>2026-04-10T16:08:08Z</time></trkpt><trkpt lat="43.266095440273055" lon="12.206688981638596"><ele>329.25</ele><time>2026-04-10T16:08:09Z</time></trkpt><trkpt lat="43.26595949676617" lon="12.206709663961012"><ele>332.0</ele><time>2026-04-10T16:08:10Z</time></trkpt><trkpt lat="43.26581426142119" lon="12.206752456380055"><ele>332.0</ele><time>2026-04-10T16:08:11Z</time></trkpt><trkpt lat="43.26567672098769" lon="12.206783828097953"><ele>332.0</ele><time>2026-04-10T16:08:12Z</time></trkpt><trkpt lat="43.265564773807114" lon="12.206847501806731"><ele>332.0</ele><time>2026-04-10T16:08:13.001Z</time></trkpt><trkpt lat="43.26546232014385" lon="12.20691857405141"><ele>332.0</ele><time>2026-04-10T16:08:14.001Z</time></trkpt><trkpt lat="43.26534946785521" lon="12.206957520824364"><ele>335.0</ele><time>2026-04-10T16:08:15.001Z</time></trkpt><trkpt lat="43.26522568623761" lon="12.206941429813213"><ele>338.0</ele><time>2026-04-10T16:08:16.001Z</time></trkpt><trkpt lat="43.26510590154749" lon="12.206877334989942"><ele>341.0</ele><time>2026-04-10T16:08:17.001Z</time></trkpt><trkpt lat="43.26498726648815" lon="12.206791088793365"><ele>344.0</ele><time>2026-04-10T16:08:18.001Z</time></trkpt><trkpt lat="43.26486029157349" lon="12.20668582616449"><ele>345.0</ele><time>2026-04-10T16:08:19.001Z</time></trkpt><trkpt lat="43.264742585246566" lon="12.206564612257072"><ele>346.0</ele><time>2026-04-10T16:08:20.001Z</time></trkpt><trkpt lat="43.26464841107723" lon="12.206445367843884"><ele>347.0</ele><time>2026-04-10T16:08:21.001Z</time></trkpt><trkpt lat="43.264567797983425" lon="12.206331168722249"><ele>348.0</ele><time>2026-04-10T16:08:22.001Z</time></trkpt><trkpt lat="43.264491537072985" lon="12.206234770048274"><ele>348.0</ele><time>2026-04-10T16:08:23.001Z</time></trkpt><trkpt lat="43.26440610138662" lon="12.206165570974623"><ele>348.0</ele><time>2026-04-10T16:08:24.001Z</time></trkpt><trkpt lat="43.2643170799787" lon="12.206145496598957"><ele>348.0</ele><time>2026-04-10T16:08:25.001Z</time></trkpt><trkpt lat="43.264232520684146" lon="12.206170149322858"><ele>348.0</ele><time>2026-04-10T16:08:26.001Z</time></trkpt><trkpt lat="43.26416726375296" lon="12.20624302946559"><ele>348.0</ele><time>2026-04-10T16:08:27.001Z</time></trkpt><trkpt lat="43.2641121125459" lon="12.206359195001511"><ele>350.0</ele><time>2026-04-10T16:08:28.001Z</time></trkpt><trkpt lat="43.26407604016693" lon="12.206506788230273"><ele>352.0</ele><time>2026-04-10T16:08:29.001Z</time></trkpt><trkpt lat="43.26402150654346" lon="12.206653224674271"><ele>354.0</ele><time>2026-04-10T16:08:30.001Z</time></trkpt><trkpt lat="43.263981518793585" lon="12.206806163585332"><ele>356.0</ele><time>2026-04-10T16:08:31.001Z</time></trkpt><trkpt lat="43.263900778813934" lon="12.206933041796088"><ele>356.0</ele><time>2026-04-10T16:08:32.001Z</time></trkpt><trkpt lat="43.26380226350943" lon="12.207043637710774"><ele>356.0</ele><time>2026-04-10T16:08:33.001Z</time></trkpt><trkpt lat="43.263695355471796" lon="12.207156277781886"><ele>356.0</ele><time>2026-04-10T16:08:34.001Z</time></trkpt><trkpt lat="43.263584713272074" lon="12.207277833018463"><ele>356.0</ele><time>2026-04-10T16:08:35.001Z</time></trkpt><trkpt lat="43.263469734517045" lon="12.207390582475421"><ele>357.25</ele><time>2026-04-10T16:08:36.001Z</time></trkpt><trkpt lat="43.26335022850366" lon="12.207500055008754"><ele>358.5</ele><time>2026-04-10T16:08:37.001Z</time></trkpt><trkpt lat="43.26324238741527" lon="12.207611007849142"><ele>359.75</ele><time>2026-04-10T16:08:38.001Z</time></trkpt><trkpt lat="43.26314521324027" lon="12.207749490064238"><ele>361.0</ele><time>2026-04-10T16:08:39.001Z</time></trkpt><trkpt lat="43.26305844329821" lon="12.207909404086408"><ele>361.0</ele><time>2026-04-10T16:08:40.001Z</time></trkpt><trkpt lat="43.262985347594636" lon="12.208091305257458"><ele>361.0</ele><time>2026-04-10T16:08:41.001Z</time></trkpt><trkpt lat="43.26290099331996" lon="12.20825343630518"><ele>361.0</ele><time>2026-04-10T16:08:42.001Z</time></trkpt><trkpt lat="43.26277421777654" lon="12.208354373322418"><ele>361.0</ele><time>2026-04-10T16:08:43.001Z</time></trkpt><trkpt lat="43.26264941896724" lon="12.208446898990424"><ele>363.75</ele><time>2026-04-10T16:08:44.001Z</time></trkpt><trkpt lat="43.26251292263772" lon="12.208481407553858"><ele>366.5</ele><time>2026-04-10T16:08:45.001Z</time></trkpt><trkpt lat="43.262381243344244" lon="12.208497458746358"><ele>369.25</ele><time>2026-04-10T16:08:46.001Z</time></trkpt><trkpt lat="43.26226614239422" lon="12.208523026153108"><ele>372.0</ele><time>2026-04-10T16:08:47.001Z</time></trkpt><trkpt lat="43.26214620857761" lon="12.20856570543479"><ele>372.0</ele><time>2026-04-10T16:08:48.001Z</time></trkpt><trkpt lat="43.26202383972371" lon="12.20864386361184"><ele>372.0</ele><time>2026-04-10T16:08:49.001Z</time></trkpt><trkpt lat="43.26190124070847" lon="12.208759600609216"><ele>372.0</ele><time>2026-04-10T16:08:50.001Z</time></trkpt><trkpt lat="43.26178011176926" lon="12.2089040825522"><ele>372.0</ele><time>2026-04-10T16:08:51.001Z</time></trkpt><trkpt lat="43.26166138009386" lon="12.209061015051935"><ele>374.25</ele><time>2026-04-10T16:08:52.001Z</time></trkpt><trkpt lat="43.2615476217706" lon="12.209215635655651"><ele>376.5</ele><time>2026-04-10T16:08:53.001Z</time></trkpt><trkpt lat="43.261449326727956" lon="12.20936279100632"><ele>378.75</ele><time>2026-04-10T16:08:54.001Z</time></trkpt><trkpt lat="43.26134701273985" lon="12.209493089648362"><ele>381.0</ele><time>2026-04-10T16:08:55.001Z</time></trkpt><trkpt lat="43.261215066852394" lon="12.20957283900701"><ele>381.0</ele><time>2026-04-10T16:08:56.001Z</time></trkpt><trkpt lat="43.26107496479513" lon="12.209650242953385"><ele>381.0</ele><time>2026-04-10T16:08:57.001Z</time></trkpt><trkpt lat="43.26093771889791" lon="12.209701591879327"><ele>381.0</ele><time>2026-04-10T16:08:58.001Z</time></trkpt><trkpt lat="43.26082239974576" lon="12.209783316805732"><ele>381.0</ele><time>2026-04-10T16:08:59.001Z</time></trkpt><trkpt lat="43.260721507660776" lon="12.209921119898349"><ele>384.33333333333337</ele><time>2026-04-10T16:09:00.001Z</time></trkpt><trkpt lat="43.260624994175366" lon="12.21008905825106"><ele>387.6666666666667</ele><time>2026-04-10T16:09:01.001Z</time></trkpt><trkpt lat="43.26053387201789" lon="12.21026388346455"><ele>391.0</ele><time>2026-04-10T16:09:02.001Z</time></trkpt><trkpt lat="43.26044850579204" lon="12.210428182988768"><ele>391.0</ele><time>2026-04-10T16:09:03.001Z</time></trkpt><trkpt lat="43.26036729267215" lon="12.210575575665395"><ele>391.0</ele><time>2026-04-10T16:09:04.001Z</time></trkpt><trkpt lat="43.260289597989235" lon="12.210709335934682"><ele>391.0</ele><time>2026-04-10T16:09:05.001Z</time></trkpt><trkpt lat="43.26019481719602" lon="12.210813955000583"><ele>391.0</ele><time>2026-04-10T16:09:06.001Z</time></trkpt><trkpt lat="43.260072767312245" lon="12.210885955739633"><ele>392.25</ele><time>2026-04-10T16:09:07.001Z</time></trkpt><trkpt lat="43.25993306097953" lon="12.21092096393055"><ele>393.5</ele><time>2026-04-10T16:09:08.001Z</time></trkpt><trkpt lat="43.25978730564982" lon="12.210936737504998"><ele>394.75</ele><time>2026-04-10T16:09:09.001Z</time></trkpt><trkpt lat="43.25964085943086" lon="12.210959097117934"><ele>396.0</ele><time>2026-04-10T16:09:10.001Z</time></trkpt><trkpt lat="43.25949142887421" lon="12.21098359208731"><ele>397.0</ele><time>2026-04-10T16:09:11.001Z</time></trkpt><trkpt lat="43.25934021340268" lon="12.210991557844476"><ele>398.0</ele><time>2026-04-10T16:09:12.001Z</time></trkpt><trkpt lat="43.25919200357293" lon="12.211024089903232"><ele>399.0</ele><time>2026-04-10T16:09:13.001Z</time></trkpt><trkpt lat="43.25905630192405" lon="12.211076589023321"><ele>400.0</ele><time>2026-04-10T16:09:14.001Z</time></trkpt><trkpt lat="43.258928645129664" lon="12.211117399583754"><ele>405.5</ele><time>2026-04-10T16:09:15.001Z</time></trkpt><trkpt lat="43.25880249187501" lon="12.211177287285675"><ele>411.0</ele><time>2026-04-10T16:09:16.001Z</time></trkpt><trkpt lat="43.2586759333315" lon="12.211257938921406"><ele>416.5</ele><time>2026-04-10T16:09:17.001Z</time></trkpt><trkpt lat="43.25854883848702" lon="12.211356612160762"><ele>422.0</ele><time>2026-04-10T16:09:18.001Z</time></trkpt><trkpt lat="43.2584238315316" lon="12.211471834091865"><ele>419.3333333333333</ele><time>2026-04-10T16:09:19Z</time></trkpt><trkpt lat="43.25830036294742" lon="12.211601313525737"><ele>416.66666666666663</ele><time>2026-04-10T16:09:20Z</time></trkpt><trkpt lat="43.25818347037897" lon="12.211738571080717"><ele>414.0</ele><time>2026-04-10T16:09:21Z</time></trkpt><trkpt lat="43.25806093453196" lon="12.211834505599509"><ele>421.0</ele><time>2026-04-10T16:09:22Z</time></trkpt><trkpt lat="43.257964528185575" lon="12.211953025269965"><ele>428.0</ele><time>2026-04-10T16:09:23Z</time></trkpt><trkpt lat="43.257872858913686" lon="12.212035982833669"><ele>435.0</ele><time>2026-04-10T16:09:24Z</time></trkpt><trkpt lat="43.257798470152025" lon="12.212133267783436"><ele>442.0</ele><time>2026-04-10T16:09:25Z</time></trkpt><trkpt lat="43.25772308050001" lon="12.212239453977501"><ele>439.5</ele><time>2026-04-10T16:09:26Z</time></trkpt><trkpt lat="43.2576894643573" lon="12.212412288868812"><ele>437.0</ele><time>2026-04-10T16:09:27Z</time></trkpt><trkpt lat="43.257695847072576" lon="12.212597407419915"><ele>434.5</ele><time>2026-04-10T16:09:28Z</time></trkpt><trkpt lat="43.25766691104883" lon="12.212773758652336"><ele>432.0</ele><time>2026-04-10T16:09:29Z</time></trkpt><trkpt lat="43.25763082667602" lon="12.212946297928415"><ele>432.0</ele><time>2026-04-10T16:09:30Z</time></trkpt><trkpt lat="43.257606693555765" lon="12.2131061007836"><ele>432.0</ele><time>2026-04-10T16:09:31Z</time></trkpt><trkpt lat="43.25756031420837" lon="12.213243155215896"><ele>432.0</ele><time>2026-04-10T16:09:32Z</time></trkpt><trkpt lat="43.257587280916596" lon="12.213411262805607"><ele>432.0</ele><time>2026-04-10T16:09:33Z</time></trkpt><trkpt lat="43.25763111533072" lon="12.213580095487231"><ele>432.5</ele><time>2026-04-10T16:09:34Z</time></trkpt><trkpt lat="43.257695292588416" lon="12.213756879089416"><ele>433.0</ele><time>2026-04-10T16:09:35Z</time></trkpt><trkpt lat="43.257739598519585" lon="12.213923753213326"><ele>433.5</ele><time>2026-04-10T16:09:36Z</time></trkpt><trkpt lat="43.25779947760519" lon="12.214058086786771"><ele>434.0</ele><time>2026-04-10T16:09:37Z</time></trkpt><trkpt lat="43.257821130094776" lon="12.214191677939812"><ele>434.16666666666663</ele><time>2026-04-10T16:09:38Z</time></trkpt><trkpt lat="43.257806810100796" lon="12.214299395723138"><ele>434.3333333333333</ele><time>2026-04-10T16:09:39Z</time></trkpt><trkpt lat="43.25775282530239" lon="12.214351173816677"><ele>434.5</ele><time>2026-04-10T16:09:40Z</time></trkpt><trkpt lat="43.257686837762705" lon="12.214354904212204"><ele>434.66666666666663</ele><time>2026-04-10T16:09:41Z</time></trkpt><trkpt lat="43.25760297882004" lon="12.21432460350331"><ele>434.8333333333333</ele><time>2026-04-10T16:09:42Z</time></trkpt><trkpt lat="43.25749414361465" lon="12.214289781796161"><ele>435.0</ele><time>2026-04-10T16:09:43Z</time></trkpt><trkpt lat="43.257363829855336" lon="12.214266282344196"><ele>441.66666666666663</ele><time>2026-04-10T16:09:44Z</time></trkpt><trkpt lat="43.25721516708398" lon="12.214244700845361"><ele>448.3333333333333</ele><time>2026-04-10T16:09:45Z</time></trkpt><trkpt lat="43.25705444641112" lon="12.214223068860731"><ele>455.0</ele><time>2026-04-10T16:09:46Z</time></trkpt><trkpt lat="43.25690036056432" lon="12.214202187798739"><ele>455.0</ele><time>2026-04-10T16:09:47Z</time></trkpt><trkpt lat="43.256758900101296" lon="12.214179613446511"><ele>455.0</ele><time>2026-04-10T16:09:48Z</time></trkpt><trkpt lat="43.256623369043496" lon="12.214151814111736"><ele>455.0</ele><time>2026-04-10T16:09:49Z</time></trkpt><trkpt lat="43.25648634395549" lon="12.21416778285933"><ele>455.0</ele><time>2026-04-10T16:09:50Z</time></trkpt><trkpt lat="43.2563417608829" lon="12.21418438232012"><ele>456.25</ele><time>2026-04-10T16:09:51Z</time></trkpt><trkpt lat="43.25620141416753" lon="12.21416944671486"><ele>457.5</ele><time>2026-04-10T16:09:52Z</time></trkpt><trkpt lat="43.256073917855524" lon="12.214149957330996"><ele>458.75</ele><time>2026-04-10T16:09:53Z</time></trkpt><trkpt lat="43.25595788728638" lon="12.214092760573491"><ele>460.0</ele><time>2026-04-10T16:09:54Z</time></trkpt><trkpt lat="43.255832012094636" lon="12.214062142443096"><ele>460.0</ele><time>2026-04-10T16:09:55Z</time></trkpt><trkpt lat="43.2556961241623" lon="12.214008122718276"><ele>460.0</ele><time>2026-04-10T16:09:56Z</time></trkpt><trkpt lat="43.25554518161695" lon="12.213994332238888"><ele>460.0</ele><time>2026-04-10T16:09:57Z</time></trkpt><trkpt lat="43.25541872130956" lon="12.213967937451528"><ele>460.0</ele><time>2026-04-10T16:09:58Z</time></trkpt><trkpt lat="43.2553069420761" lon="12.21400675867926"><ele>461.8</ele><time>2026-04-10T16:09:59Z</time></trkpt><trkpt lat="43.25520332887932" lon="12.214060701592874"><ele>463.6</ele><time>2026-04-10T16:10:00Z</time></trkpt><trkpt lat="43.255117035641" lon="12.214155008301265"><ele>465.4</ele><time>2026-04-10T16:10:01Z</time></trkpt><trkpt lat="43.25505219542194" lon="12.214272025909828"><ele>467.2</ele><time>2026-04-10T16:10:02Z</time></trkpt><trkpt lat="43.25498333912933" lon="12.214376296235727"><ele>469.0</ele><time>2026-04-10T16:10:03Z</time></trkpt><trkpt lat="43.25490073970696" lon="12.21443710326339"><ele>469.0</ele><time>2026-04-10T16:10:04Z</time></trkpt><trkpt lat="43.25479921509014" lon="12.214440379098267"><ele>469.0</ele><time>2026-04-10T16:10:05Z</time></trkpt><trkpt lat="43.25471123207764" lon="12.214363130314581"><ele>469.0</ele><time>2026-04-10T16:10:06Z</time></trkpt><trkpt lat="43.254665268960835" lon="12.21425255180885"><ele>469.0</ele><time>2026-04-10T16:10:07Z</time></trkpt><trkpt lat="43.254644151489636" lon="12.214104624312613"><ele>469.0</ele><time>2026-04-10T16:10:08Z</time></trkpt><trkpt lat="43.25462348528538" lon="12.213956792778616"><ele>473.79999999999995</ele><time>2026-04-10T16:10:09Z</time></trkpt><trkpt lat="43.25457293403288" lon="12.213853837468825"><ele>478.59999999999997</ele><time>2026-04-10T16:10:10Z</time></trkpt><trkpt lat="43.254495033087466" lon="12.213786268855573"><ele>483.4</ele><time>2026-04-10T16:10:11Z</time></trkpt><trkpt lat="43.25439227365715" lon="12.213760349952409"><ele>488.2</ele><time>2026-04-10T16:10:12Z</time></trkpt><trkpt lat="43.254274338268495" lon="12.213774975328546"><ele>493.0</ele><time>2026-04-10T16:10:13Z</time></trkpt><trkpt lat="43.254146166707805" lon="12.213823265937005"><ele>493.0</ele><time>2026-04-10T16:10:14Z</time></trkpt><trkpt lat="43.2540214734427" lon="12.213897689808368"><ele>493.0</ele><time>2026-04-10T16:10:15Z</time></trkpt><trkpt lat="43.253903059902534" lon="12.213984644699455"><ele>493.0</ele><time>2026-04-10T16:10:16Z</time></trkpt><trkpt lat="43.253770358665946" lon="12.21400911449305"><ele>493.0</ele><time>2026-04-10T16:10:17Z</time></trkpt><trkpt lat="43.25362890496202" lon="12.21403197937907"><ele>491.5</ele><time>2026-04-10T16:10:18Z</time></trkpt><trkpt lat="43.25348540511098" lon="12.214079341319284"><ele>490.0</ele><time>2026-04-10T16:10:19Z</time></trkpt><trkpt lat="43.2533401812869" lon="12.214118601618472"><ele>488.5</ele><time>2026-04-10T16:10:20Z</time></trkpt><trkpt lat="43.25320446406726" lon="12.214164581037824"><ele>487.0</ele><time>2026-04-10T16:10:21Z</time></trkpt><trkpt lat="43.25307898652991" lon="12.21420905901878"><ele>487.0</ele><time>2026-04-10T16:10:22.001Z</time></trkpt><trkpt lat="43.25295598432331" lon="12.214257430983327"><ele>487.0</ele><time>2026-04-10T16:10:23.001Z</time></trkpt><trkpt lat="43.25284042678832" lon="12.214303344726876"><ele>487.0</ele><time>2026-04-10T16:10:24.001Z</time></trkpt><trkpt lat="43.25273200053917" lon="12.21435117929796"><ele>487.0</ele><time>2026-04-10T16:10:25.001Z</time></trkpt><trkpt lat="43.25263448711827" lon="12.214398167167625"><ele>487.0</ele><time>2026-04-10T16:10:26.001Z</time></trkpt><trkpt lat="43.25254521340111" lon="12.214441628320145"><ele>487.00000000000006</ele><time>2026-04-10T16:10:27.001Z</time></trkpt><trkpt lat="43.2524540021251" lon="12.214488214463335"><ele>487.00000000000006</ele><time>2026-04-10T16:10:28.001Z</time></trkpt><trkpt lat="43.252361421987985" lon="12.214534443930205"><ele>487.0</ele><time>2026-04-10T16:10:29.001Z</time></trkpt><trkpt lat="43.25228674245921" lon="12.214590949851726"><ele>487.0</ele><time>2026-04-10T16:10:30.001Z</time></trkpt><trkpt lat="43.25223469943079" lon="12.21468658890773"><ele>486.20000000000005</ele><time>2026-04-10T16:10:31.001Z</time></trkpt><trkpt lat="43.252217556934816" lon="12.214798338886546"><ele>485.40000000000003</ele><time>2026-04-10T16:10:32.001Z</time></trkpt><trkpt lat="43.252242130428996" lon="12.214922820912074"><ele>484.59999999999997</ele><time>2026-04-10T16:10:33.001Z</time></trkpt><trkpt lat="43.252292423237634" lon="12.215071087131678"><ele>483.79999999999995</ele><time>2026-04-10T16:10:34.001Z</time></trkpt><trkpt lat="43.25232878218547" lon="12.215231058064608"><ele>483.0</ele><time>2026-04-10T16:10:35.001Z</time></trkpt><trkpt lat="43.25237066145492" lon="12.215384148142036"><ele>485.2</ele><time>2026-04-10T16:10:36.001Z</time></trkpt><trkpt lat="43.25240859369025" lon="12.21552319048937"><ele>487.4</ele><time>2026-04-10T16:10:37.001Z</time></trkpt><trkpt lat="43.252399507783984" lon="12.215661247259296"><ele>489.59999999999997</ele><time>2026-04-10T16:10:38.001Z</time></trkpt><trkpt lat="43.25236245308746" lon="12.215774034358951"><ele>491.79999999999995</ele><time>2026-04-10T16:10:39.001Z</time></trkpt><trkpt lat="43.25229869116896" lon="12.21587308576014"><ele>494.0</ele><time>2026-04-10T16:10:40.001Z</time></trkpt><trkpt lat="43.25222140203544" lon="12.215978525595556"><ele>495.5</ele><time>2026-04-10T16:10:41.001Z</time></trkpt><trkpt lat="43.25214254911925" lon="12.216094163166213"><ele>497.0</ele><time>2026-04-10T16:10:42.001Z</time></trkpt><trkpt lat="43.252053907409234" lon="12.216216380597212"><ele>498.5</ele><time>2026-04-10T16:10:43.001Z</time></trkpt><trkpt lat="43.25195345177954" lon="12.216351358126886"><ele>500.0</ele><time>2026-04-10T16:10:44.001Z</time></trkpt><trkpt lat="43.251855366406424" lon="12.21649267365666"><ele>501.0</ele><time>2026-04-10T16:10:45.001Z</time></trkpt><trkpt lat="43.25175904850107" lon="12.216629511858546"><ele>502.0</ele><time>2026-04-10T16:10:46.001Z</time></trkpt><trkpt lat="43.25167204109381" lon="12.216765024114496"><ele>503.0</ele><time>2026-04-10T16:10:47.001Z</time></trkpt><trkpt lat="43.25158944836712" lon="12.2169005196558"><ele>504.0</ele><time>2026-04-10T16:10:48.001Z</time></trkpt><trkpt lat="43.25151064364667" lon="12.217039233253175"><ele>503.25</ele><time>2026-04-10T16:10:49.001Z</time></trkpt><trkpt lat="43.25143388648775" lon="12.217187574750787"><ele>502.5</ele><time>2026-04-10T16:10:50.001Z</time></trkpt><trkpt lat="43.25136273796447" lon="12.217357458669959"><ele>501.75</ele><time>2026-04-10T16:10:51.001Z</time></trkpt><trkpt lat="43.25129485602701" lon="12.21753188127494"><ele>501.0</ele><time>2026-04-10T16:10:52.001Z</time></trkpt><trkpt lat="43.251223049502705" lon="12.217705556660189"><ele>501.0</ele><time>2026-04-10T16:10:53.001Z</time></trkpt><trkpt lat="43.251142786978235" lon="12.217876594450368"><ele>501.0</ele><time>2026-04-10T16:10:54.001Z</time></trkpt><trkpt lat="43.251059959661575" lon="12.218041576326407"><ele>501.0</ele><time>2026-04-10T16:10:55.001Z</time></trkpt><trkpt lat="43.25097610834651" lon="12.21819293030232"><ele>501.0</ele><time>2026-04-10T16:10:56.001Z</time></trkpt><trkpt lat="43.25087555530685" lon="12.218299437971812"><ele>501.8</ele><time>2026-04-10T16:10:57.001Z</time></trkpt><trkpt lat="43.25077873983943" lon="12.218368660972569"><ele>502.6</ele><time>2026-04-10T16:10:58.001Z</time></trkpt><trkpt lat="43.25068620791585" lon="12.218363738806637"><ele>503.4</ele><time>2026-04-10T16:10:59.001Z</time></trkpt><trkpt lat="43.25060885028412" lon="12.218305741144343"><ele>504.2</ele><time>2026-04-10T16:11:00.001Z</time></trkpt><trkpt lat="43.25052666280313" lon="12.218234922995011"><ele>505.0</ele><time>2026-04-10T16:11:01.001Z</time></trkpt><trkpt lat="43.25041684121099" lon="12.218194968519114"><ele>506.6</ele><time>2026-04-10T16:11:02.001Z</time></trkpt><trkpt lat="43.250307945454985" lon="12.218168558470554"><ele>508.2</ele><time>2026-04-10T16:11:03.001Z</time></trkpt><trkpt lat="43.25020422645773" lon="12.21818824893298"><ele>509.79999999999995</ele><time>2026-04-10T16:11:04.001Z</time></trkpt><trkpt lat="43.2501081750574" lon="12.21825493646909"><ele>511.4</ele><time>2026-04-10T16:11:05.001Z</time></trkpt><trkpt lat="43.25002231051941" lon="12.21835638267986"><ele>513.0</ele><time>2026-04-10T16:11:06.001Z</time></trkpt><trkpt lat="43.24994203651241" lon="12.218465051301697"><ele>513.0</ele><time>2026-04-10T16:11:07.001Z</time></trkpt><trkpt lat="43.2498487168002" lon="12.218518523311975"><ele>513.0</ele><time>2026-04-10T16:11:08.001Z</time></trkpt><trkpt lat="43.24974956039334" lon="12.21859604666234"><ele>513.0</ele><time>2026-04-10T16:11:09.001Z</time></trkpt><trkpt lat="43.24962416049487" lon="12.21865301981948"><ele>513.0</ele><time>2026-04-10T16:11:10.001Z</time></trkpt><trkpt lat="43.249483609198215" lon="12.218712940098484"><ele>513.25</ele><time>2026-04-10T16:11:11.001Z</time></trkpt><trkpt lat="43.249343175158025" lon="12.218778635488901"><ele>513.5</ele><time>2026-04-10T16:11:12.001Z</time></trkpt><trkpt lat="43.249206963304076" lon="12.218850571123784"><ele>513.75</ele><time>2026-04-10T16:11:13.001Z</time></trkpt><trkpt lat="43.249075755380545" lon="12.218930732550197"><ele>514.0</ele><time>2026-04-10T16:11:14.001Z</time></trkpt><trkpt lat="43.24894735689915" lon="12.21902336291905"><ele>516.5</ele><time>2026-04-10T16:11:15.001Z</time></trkpt><trkpt lat="43.24883287725987" lon="12.21912774992674"><ele>519.0</ele><time>2026-04-10T16:11:16.001Z</time></trkpt><trkpt lat="43.2487328919588" lon="12.219252714185691"><ele>521.5</ele><time>2026-04-10T16:11:17.001Z</time></trkpt><trkpt lat="43.24864537310624" lon="12.21938737760642"><ele>524.0</ele><time>2026-04-10T16:11:18.001Z</time></trkpt><trkpt lat="43.24856554171342" lon="12.219521989609621"><ele>524.0</ele><time>2026-04-10T16:11:19.001Z</time></trkpt><trkpt lat="43.24848798049722" lon="12.21965419559124"><ele>524.0</ele><time>2026-04-10T16:11:20.001Z</time></trkpt><trkpt lat="43.248395793740706" lon="12.219790262588706"><ele>524.0</ele><time>2026-04-10T16:11:21.001Z</time></trkpt><trkpt lat="43.248294357138484" lon="12.219920434894817"><ele>524.0</ele><time>2026-04-10T16:11:22.001Z</time></trkpt><trkpt lat="43.248191213510175" lon="12.220037027429372"><ele>524.0</ele><time>2026-04-10T16:11:23.001Z</time></trkpt><trkpt lat="43.24809918433128" lon="12.22014371712742"><ele>524.0</ele><time>2026-04-10T16:11:24.001Z</time></trkpt><trkpt lat="43.248018258364525" lon="12.220243852301888"><ele>524.0</ele><time>2026-04-10T16:11:25Z</time></trkpt><trkpt lat="43.24794561408588" lon="12.220333997007998"><ele>524.0</ele><time>2026-04-10T16:11:26Z</time></trkpt><trkpt lat="43.24788472826616" lon="12.220417144316258"><ele>524.0</ele><time>2026-04-10T16:11:27Z</time></trkpt><trkpt lat="43.24783551272198" lon="12.220489777144577"><ele>524.0</ele><time>2026-04-10T16:11:28Z</time></trkpt><trkpt lat="43.247773930338916" lon="12.220573405639815"><ele>524.0</ele><time>2026-04-10T16:11:30Z</time></trkpt><trkpt lat="43.24773076340026" lon="12.220648088066758"><ele>524.0</ele><time>2026-04-10T16:13:17.001Z</time></trkpt><trkpt lat="43.2476420462117" lon="12.220781812927376"><ele>524.0</ele><time>2026-04-10T16:13:19.001Z</time></trkpt><trkpt lat="43.247583377848805" lon="12.220860440347153"><ele>524.0</ele><time>2026-04-10T16:13:20.001Z</time></trkpt><trkpt lat="43.24750210090746" lon="12.220927717934446"><ele>526.0</ele><time>2026-04-10T16:13:21.001Z</time></trkpt><trkpt lat="43.24741537484993" lon="12.221007698925805"><ele>528.0</ele><time>2026-04-10T16:13:22.001Z</time></trkpt><trkpt lat="43.24731404766384" lon="12.221081675178292"><ele>530.0</ele><time>2026-04-10T16:13:23.001Z</time></trkpt><trkpt lat="43.24720504359547" lon="12.221142631427032"><ele>532.0</ele><time>2026-04-10T16:13:24.001Z</time></trkpt><trkpt lat="43.24709252927542" lon="12.22120287850492"><ele>532.0</ele><time>2026-04-10T16:13:25.001Z</time></trkpt><trkpt lat="43.24697333584811" lon="12.221266187238806"><ele>532.0</ele><time>2026-04-10T16:13:26.001Z</time></trkpt><trkpt lat="43.24685222486508" lon="12.221329750757784"><ele>532.0</ele><time>2026-04-10T16:13:27.001Z</time></trkpt><trkpt lat="43.246738227450294" lon="12.221416653583235"><ele>532.0</ele><time>2026-04-10T16:13:28.001Z</time></trkpt><trkpt lat="43.246625333749385" lon="12.221488101933376"><ele>532.75</ele><time>2026-04-10T16:13:29.001Z</time></trkpt><trkpt lat="43.24651173992197" lon="12.22156409557262"><ele>533.5</ele><time>2026-04-10T16:13:30.001Z</time></trkpt><trkpt lat="43.24639682563742" lon="12.221653888035835"><ele>534.25</ele><time>2026-04-10T16:13:31Z</time></trkpt><trkpt lat="43.24628356856805" lon="12.22175535153672"><ele>535.0</ele><time>2026-04-10T16:13:32Z</time></trkpt><trkpt lat="43.246169421833685" lon="12.221865800931605"><ele>538.25</ele><time>2026-04-10T16:13:33Z</time></trkpt><trkpt lat="43.24606935800649" lon="12.221975727176819"><ele>541.5</ele><time>2026-04-10T16:13:34Z</time></trkpt><trkpt lat="43.24598639097694" lon="12.222090017260118"><ele>544.75</ele><time>2026-04-10T16:13:35Z</time></trkpt><trkpt lat="43.24592771621493" lon="12.222221702374549"><ele>548.0</ele><time>2026-04-10T16:13:36Z</time></trkpt><trkpt lat="43.245888965920216" lon="12.222369679387214"><ele>549.25</ele><time>2026-04-10T16:13:37Z</time></trkpt><trkpt lat="43.2458645084991" lon="12.222539698503704"><ele>550.5</ele><time>2026-04-10T16:13:38Z</time></trkpt><trkpt lat="43.24583238761612" lon="12.222727146123503"><ele>551.75</ele><time>2026-04-10T16:13:39Z</time></trkpt><trkpt lat="43.245795763521386" lon="12.222925922893866"><ele>553.0</ele><time>2026-04-10T16:13:40Z</time></trkpt><trkpt lat="43.24575042055126" lon="12.223115100513546"><ele>551.0</ele><time>2026-04-10T16:13:41Z</time></trkpt><trkpt lat="43.24569257118108" lon="12.223292474830759"><ele>549.0</ele><time>2026-04-10T16:13:42Z</time></trkpt><trkpt lat="43.24562016293297" lon="12.223455160428086"><ele>547.0</ele><time>2026-04-10T16:13:43Z</time></trkpt><trkpt lat="43.24552048448485" lon="12.223578811583613"><ele>545.0</ele><time>2026-04-10T16:13:44Z</time></trkpt><trkpt lat="43.24541586297164" lon="12.223723771182698"><ele>555.5</ele><time>2026-04-10T16:13:45Z</time></trkpt><trkpt lat="43.245289163183585" lon="12.223850557919896"><ele>566.0</ele><time>2026-04-10T16:13:46Z</time></trkpt><trkpt lat="43.245008381972816" lon="12.224134100091357"><ele>566.0</ele><time>2026-04-10T16:13:48Z</time></trkpt><trkpt lat="43.24486482115196" lon="12.224298766620176"><ele>566.0</ele><time>2026-04-10T16:13:49Z</time></trkpt><trkpt lat="43.244724756719606" lon="12.22447652503518"><ele>566.0</ele><time>2026-04-10T16:13:50Z</time></trkpt><trkpt lat="43.24458780431353" lon="12.224641212795484"><ele>571.6666666666666</ele><time>2026-04-10T16:13:51Z</time></trkpt><trkpt lat="43.244461873086244" lon="12.224797698125684"><ele>577.3333333333334</ele><time>2026-04-10T16:13:52Z</time></trkpt><trkpt lat="43.24435090937682" lon="12.224949705403567"><ele>583.0</ele><time>2026-04-10T16:13:53Z</time></trkpt><trkpt lat="43.24426121772605" lon="12.225113176560155"><ele>583.0</ele><time>2026-04-10T16:13:54Z</time></trkpt><trkpt lat="43.24419686686496" lon="12.225291106040485"><ele>583.0</ele><time>2026-04-10T16:13:55Z</time></trkpt><trkpt lat="43.24415135145081" lon="12.225483205379357"><ele>583.0</ele><time>2026-04-10T16:13:56Z</time></trkpt><trkpt lat="43.24412282358008" lon="12.225689101792089"><ele>583.0</ele><time>2026-04-10T16:13:57Z</time></trkpt><trkpt lat="43.24410343146369" lon="12.225894213978801"><ele>580.75</ele><time>2026-04-10T16:13:58Z</time></trkpt><trkpt lat="43.24409309613602" lon="12.226083216968684"><ele>578.5</ele><time>2026-04-10T16:13:59Z</time></trkpt><trkpt lat="43.24408953329883" lon="12.226262519912817"><ele>576.25</ele><time>2026-04-10T16:14:00Z</time></trkpt><trkpt lat="43.244118410860736" lon="12.226426420289815"><ele>574.0</ele><time>2026-04-10T16:14:01Z</time></trkpt><trkpt lat="43.24418370788978" lon="12.226574386776308"><ele>573.8</ele><time>2026-04-10T16:14:02Z</time></trkpt><trkpt lat="43.24426068808973" lon="12.226699133693064"><ele>573.5999999999999</ele><time>2026-04-10T16:14:03Z</time></trkpt><trkpt lat="43.244327998926906" lon="12.226804410747652"><ele>573.4</ele><time>2026-04-10T16:14:04Z</time></trkpt><trkpt lat="43.24437599531534" lon="12.226910739566978"><ele>573.1999999999999</ele><time>2026-04-10T16:14:05Z</time></trkpt><trkpt lat="43.24439525888797" lon="12.22701468815139"><ele>573.0</ele><time>2026-04-10T16:14:06Z</time></trkpt><trkpt lat="43.24438021149778" lon="12.227125672445544"><ele>573.0</ele><time>2026-04-10T16:14:07Z</time></trkpt><trkpt lat="43.244467927763935" lon="12.22723939127003"><ele>573.0</ele><time>2026-04-10T16:14:08Z</time></trkpt><trkpt lat="43.24452126722707" lon="12.227359874655471"><ele>573.0</ele><time>2026-04-10T16:14:09Z</time></trkpt><trkpt lat="43.24458091162876" lon="12.227495167350103"><ele>573.0</ele><time>2026-04-10T16:14:10Z</time></trkpt><trkpt lat="43.2446276653206" lon="12.227630466029806"><ele>573.0</ele><time>2026-04-10T16:14:11Z</time></trkpt><trkpt lat="43.244651068406675" lon="12.227765559973603"><ele>573.0</ele><time>2026-04-10T16:14:12Z</time></trkpt><trkpt lat="43.244644234259304" lon="12.227909605246555"><ele>573.0</ele><time>2026-04-10T16:14:13Z</time></trkpt><trkpt lat="43.244604852479036" lon="12.228058276368333"><ele>573.0</ele><time>2026-04-10T16:14:14Z</time></trkpt><trkpt lat="43.24454131631411" lon="12.228205378491502"><ele>573.0</ele><time>2026-04-10T16:14:15Z</time></trkpt><trkpt lat="43.24445964365033" lon="12.228364727045468"><ele>573.0</ele><time>2026-04-10T16:14:16Z</time></trkpt><trkpt lat="43.2443722907216" lon="12.228521301798441"><ele>573.0</ele><time>2026-04-10T16:14:17Z</time></trkpt><trkpt lat="43.24429024517213" lon="12.22866034946384"><ele>573.0</ele><time>2026-04-10T16:14:18Z</time></trkpt><trkpt lat="43.24422211043008" lon="12.228795202421447"><ele>573.0</ele><time>2026-04-10T16:14:19.001Z</time></trkpt><trkpt lat="43.244185078862614" lon="12.228941057527836"><ele>574.25</ele><time>2026-04-10T16:14:20.001Z</time></trkpt><trkpt lat="43.24418857122098" lon="12.229098450807461"><ele>575.5</ele><time>2026-04-10T16:14:21.001Z</time></trkpt><trkpt lat="43.244234998759126" lon="12.229246054167117"><ele>576.75</ele><time>2026-04-10T16:14:22.001Z</time></trkpt><trkpt lat="43.244317870953864" lon="12.229375011717671"><ele>578.0</ele><time>2026-04-10T16:14:23.001Z</time></trkpt><trkpt lat="43.24442454531489" lon="12.229482127881843"><ele>578.0</ele><time>2026-04-10T16:14:24.001Z</time></trkpt><trkpt lat="43.24454008182242" lon="12.229595819005077"><ele>578.0</ele><time>2026-04-10T16:14:25.001Z</time></trkpt><trkpt lat="43.244666359682725" lon="12.229720987371797"><ele>578.0</ele><time>2026-04-10T16:14:26.001Z</time></trkpt><trkpt lat="43.24480182265152" lon="12.229853449234728"><ele>581.6666666666666</ele><time>2026-04-10T16:14:27.001Z</time></trkpt><trkpt lat="43.2449424054988" lon="12.229997069100197"><ele>585.3333333333334</ele><time>2026-04-10T16:14:28.001Z</time></trkpt><trkpt lat="43.24508230994867" lon="12.23015017535229"><ele>589.0</ele><time>2026-04-10T16:14:29.001Z</time></trkpt><trkpt lat="43.24522216007246" lon="12.230302551121753"><ele>589.0</ele><time>2026-04-10T16:14:30.001Z</time></trkpt><trkpt lat="43.245362132998196" lon="12.230450017665321"><ele>589.0</ele><time>2026-04-10T16:14:31.001Z</time></trkpt><trkpt lat="43.24550210179179" lon="12.230596187329859"><ele>589.0</ele><time>2026-04-10T16:14:32.001Z</time></trkpt><trkpt lat="43.245637535370825" lon="12.230738390107964"><ele>592.0</ele><time>2026-04-10T16:14:33.001Z</time></trkpt><trkpt lat="43.24577045338059" lon="12.230878901159395"><ele>595.0</ele><time>2026-04-10T16:14:34.001Z</time></trkpt><trkpt lat="43.24590413697783" lon="12.231019076485216"><ele>598.0</ele><time>2026-04-10T16:14:35.001Z</time></trkpt><trkpt lat="43.24602769025018" lon="12.231150880866325"><ele>598.0</ele><time>2026-04-10T16:14:36.001Z</time></trkpt><trkpt lat="43.24614409720882" lon="12.231291248548223"><ele>598.0</ele><time>2026-04-10T16:14:37.001Z</time></trkpt><trkpt lat="43.24624756284013" lon="12.231448768288384"><ele>598.0</ele><time>2026-04-10T16:14:38.001Z</time></trkpt><trkpt lat="43.24633458651338" lon="12.231632817466478"><ele>593.0</ele><time>2026-04-10T16:14:39.001Z</time></trkpt><trkpt lat="43.24639379816279" lon="12.23184498779388"><ele>588.0</ele><time>2026-04-10T16:14:40.001Z</time></trkpt><trkpt lat="43.246460826564366" lon="12.232065788935158"><ele>583.0</ele><time>2026-04-10T16:14:41.001Z</time></trkpt><trkpt lat="43.246551467968246" lon="12.232281110038205"><ele>592.6666666666667</ele><time>2026-04-10T16:14:42.001Z</time></trkpt><trkpt lat="43.246627655428384" lon="12.232501053174666"><ele>602.3333333333334</ele><time>2026-04-10T16:14:43.001Z</time></trkpt><trkpt lat="43.24670477739934" lon="12.232718094848614"><ele>612.0</ele><time>2026-04-10T16:14:44.001Z</time></trkpt><trkpt lat="43.24677651441735" lon="12.232926793239448"><ele>612.0</ele><time>2026-04-10T16:14:45.001Z</time></trkpt><trkpt lat="43.24684051944763" lon="12.233126727582606"><ele>612.0</ele><time>2026-04-10T16:14:46.001Z</time></trkpt><trkpt lat="43.24689420639013" lon="12.233326625001636"><ele>612.0</ele><time>2026-04-10T16:14:47.001Z</time></trkpt><trkpt lat="43.246933636532916" lon="12.233536501844204"><ele>610.25</ele><time>2026-04-10T16:14:48.001Z</time></trkpt><trkpt lat="43.2469543813195" lon="12.233749583270393"><ele>608.5</ele><time>2026-04-10T16:14:49.001Z</time></trkpt><trkpt lat="43.246965965790416" lon="12.23394359458177"><ele>606.75</ele><time>2026-04-10T16:14:50.001Z</time></trkpt><trkpt lat="43.24699705198262" lon="12.234123410133737"><ele>605.0</ele><time>2026-04-10T16:14:51.001Z</time></trkpt><trkpt lat="43.24706300740265" lon="12.234291111033064"><ele>603.5</ele><time>2026-04-10T16:14:52.001Z</time></trkpt><trkpt lat="43.24715603742012" lon="12.234449625821254"><ele>602.0</ele><time>2026-04-10T16:14:53.001Z</time></trkpt><trkpt lat="43.24725163312229" lon="12.234594833428375"><ele>600.5</ele><time>2026-04-10T16:14:54.001Z</time></trkpt><trkpt lat="43.247337791594916" lon="12.234723628086826"><ele>599.0</ele><time>2026-04-10T16:14:55.001Z</time></trkpt><trkpt lat="43.24743138619432" lon="12.234820845166016"><ele>603.6</ele><time>2026-04-10T16:14:56.001Z</time></trkpt><trkpt lat="43.24754144265947" lon="12.234887496877366"><ele>608.2</ele><time>2026-04-10T16:14:57.001Z</time></trkpt><trkpt lat="43.247652469045754" lon="12.234927879306476"><ele>612.8000000000001</ele><time>2026-04-10T16:14:58.001Z</time></trkpt><trkpt lat="43.247752470399604" lon="12.234971069809248"><ele>617.4</ele><time>2026-04-10T16:14:59.001Z</time></trkpt><trkpt lat="43.247821248466195" lon="12.235053682261418"><ele>622.0</ele><time>2026-04-10T16:15:00.001Z</time></trkpt><trkpt lat="43.24785473397891" lon="12.235177993719505"><ele>622.0</ele><time>2026-04-10T16:15:01.001Z</time></trkpt><trkpt lat="43.247847484575146" lon="12.235313523545887"><ele>622.0</ele><time>2026-04-10T16:15:02.001Z</time></trkpt><trkpt lat="43.247802646145054" lon="12.235445540730082"><ele>622.0</ele><time>2026-04-10T16:15:03.001Z</time></trkpt><trkpt lat="43.24773438712389" lon="12.235569470749645"><ele>622.0</ele><time>2026-04-10T16:15:04.001Z</time></trkpt><trkpt lat="43.24765813546025" lon="12.235685300210115"><ele>622.0</ele><time>2026-04-10T16:15:05.001Z</time></trkpt><trkpt lat="43.24758700453923" lon="12.23578392573205"><ele>623.0</ele><time>2026-04-10T16:15:06.001Z</time></trkpt><trkpt lat="43.247534289239034" lon="12.235886736026943"><ele>624.0</ele><time>2026-04-10T16:15:07.001Z</time></trkpt><trkpt lat="43.24750585278047" lon="12.236009524831507"><ele>625.0</ele><time>2026-04-10T16:15:08.001Z</time></trkpt><trkpt lat="43.24748884629482" lon="12.236142781522052"><ele>626.0</ele><time>2026-04-10T16:15:09.001Z</time></trkpt><trkpt lat="43.24747639748265" lon="12.23627898380313"><ele>627.0</ele><time>2026-04-10T16:15:10.001Z</time></trkpt><trkpt lat="43.24746047037106" lon="12.236407195557867"><ele>627.0</ele><time>2026-04-10T16:15:11.001Z</time></trkpt><trkpt lat="43.24744345513738" lon="12.236519405669652"><ele>627.0</ele><time>2026-04-10T16:15:12.001Z</time></trkpt><trkpt lat="43.24742830731418" lon="12.236655677833971"><ele>627.0</ele><time>2026-04-10T16:15:14.001Z</time></trkpt><trkpt lat="43.2474509349475" lon="12.236534197019829"><ele>627.0</ele><time>2026-04-10T16:15:18.001Z</time></trkpt><trkpt lat="43.24754610231903" lon="12.236441093255975"><ele>627.0</ele><time>2026-04-10T16:15:19.001Z</time></trkpt><trkpt lat="43.2475671939893" lon="12.236336787645657"><ele>627.0</ele><time>2026-04-10T16:15:20.001Z</time></trkpt><trkpt lat="43.24759860125627" lon="12.236236733056622"><ele>627.0</ele><time>2026-04-10T16:15:21.001Z</time></trkpt><trkpt lat="43.24767545692758" lon="12.236165116399794"><ele>627.0</ele><time>2026-04-10T16:15:22.001Z</time></trkpt><trkpt lat="43.24772447259435" lon="12.236066079110294"><ele>627.0</ele><time>2026-04-10T16:15:23.001Z</time></trkpt><trkpt lat="43.2477711707328" lon="12.235986165674557"><ele>627.0</ele><time>2026-04-10T16:15:24.001Z</time></trkpt><trkpt lat="43.24782136129018" lon="12.235913688985164"><ele>627.0</ele><time>2026-04-10T16:15:25.001Z</time></trkpt><trkpt lat="43.247875102461705" lon="12.235838722397819"><ele>627.0</ele><time>2026-04-10T16:15:26.001Z</time></trkpt><trkpt lat="43.247940016010375" lon="12.235774847579055"><ele>627.0</ele><time>2026-04-10T16:15:27.001Z</time></trkpt><trkpt lat="43.24799412135955" lon="12.235715255312213"><ele>627.0</ele><time>2026-04-10T16:15:28.001Z</time></trkpt><trkpt lat="43.248051618963714" lon="12.235661178746494"><ele>627.0</ele><time>2026-04-10T16:15:29.001Z</time></trkpt><trkpt lat="43.248115842533515" lon="12.235622268494089"><ele>627.0</ele><time>2026-04-10T16:15:30.001Z</time></trkpt><trkpt lat="43.24817875828334" lon="12.235610317552245"><ele>627.0</ele><time>2026-04-10T16:15:31.001Z</time></trkpt><trkpt lat="43.24828424893606" lon="12.235628742379356"><ele>630.25</ele><time>2026-04-10T16:15:33.001Z</time></trkpt><trkpt lat="43.248374323009095" lon="12.23568587539262"><ele>633.5</ele><time>2026-04-10T16:15:35.001Z</time></trkpt><trkpt lat="43.24846354222077" lon="12.23578106167804"><ele>636.75</ele><time>2026-04-10T16:15:37.001Z</time></trkpt><trkpt lat="43.24856104308584" lon="12.235884477968677"><ele>640.0</ele><time>2026-04-10T16:15:39.001Z</time></trkpt><trkpt lat="43.24866313410389" lon="12.235970275203718"><ele>640.0</ele><time>2026-04-10T16:15:41.001Z</time></trkpt><trkpt lat="43.24878363271616" lon="12.236026068636296"><ele>640.0</ele><time>2026-04-10T16:15:43Z</time></trkpt><trkpt lat="43.248895043191" lon="12.236130988728435"><ele>640.0</ele><time>2026-04-10T16:15:45Z</time></trkpt><trkpt lat="43.24894819762375" lon="12.236200332075931"><ele>640.0</ele><time>2026-04-10T16:15:46Z</time></trkpt><trkpt lat="43.24900026832365" lon="12.236276460391178"><ele>640.0</ele><time>2026-04-10T16:15:47Z</time></trkpt><trkpt lat="43.24905453166623" lon="12.23633327298291"><ele>637.0</ele><time>2026-04-10T16:15:48Z</time></trkpt><trkpt lat="43.24916736384239" lon="12.236394507187512"><ele>634.0</ele><time>2026-04-10T16:15:50Z</time></trkpt><trkpt lat="43.24928718712998" lon="12.23637304624652"><ele>631.0</ele><time>2026-04-10T16:15:52Z</time></trkpt><trkpt lat="43.24935510050225" lon="12.236344440522295"><ele>628.0</ele><time>2026-04-10T16:15:53Z</time></trkpt><trkpt lat="43.249421673384845" lon="12.2362657350645"><ele>625.0</ele><time>2026-04-10T16:15:54Z</time></trkpt><trkpt lat="43.24946882713013" lon="12.236173925192174"><ele>625.0</ele><time>2026-04-10T16:15:55Z</time></trkpt><trkpt lat="43.249525081931175" lon="12.236116602286094"><ele>625.0</ele><time>2026-04-10T16:15:56Z</time></trkpt><trkpt lat="43.24959323397366" lon="12.23606960464165"><ele>625.0</ele><time>2026-04-10T16:15:57Z</time></trkpt><trkpt lat="43.24967584806544" lon="12.236035456582972"><ele>625.0</ele><time>2026-04-10T16:15:58Z</time></trkpt><trkpt lat="43.249761471121104" lon="12.236012045884555"><ele>625.0</ele><time>2026-04-10T16:15:59Z</time></trkpt><trkpt lat="43.24984439617079" lon="12.235996105327986"><ele>625.0</ele><time>2026-04-10T16:16:00Z</time></trkpt><trkpt lat="43.24992606914522" lon="12.235988461287892"><ele>623.2857142857143</ele><time>2026-04-10T16:16:01Z</time></trkpt><trkpt lat="43.24999714257498" lon="12.235997187722635"><ele>621.5714285714286</ele><time>2026-04-10T16:16:02Z</time></trkpt><trkpt lat="43.2500704491087" lon="12.236018682021053"><ele>619.8571428571429</ele><time>2026-04-10T16:16:03Z</time></trkpt><trkpt lat="43.250138742503346" lon="12.236054631423212"><ele>618.1428571428571</ele><time>2026-04-10T16:16:04Z</time></trkpt><trkpt lat="43.25019877280164" lon="12.2361265285433"><ele>616.4285714285714</ele><time>2026-04-10T16:16:05Z</time></trkpt><trkpt lat="43.250248862984165" lon="12.236201022008082"><ele>614.7142857142858</ele><time>2026-04-10T16:16:06Z</time></trkpt><trkpt lat="43.250312539069746" lon="12.236253119004164"><ele>613.0</ele><time>2026-04-10T16:16:07Z</time></trkpt><trkpt lat="43.2503874433484" lon="12.236264460566268"><ele>613.0</ele><time>2026-04-10T16:16:08Z</time></trkpt><trkpt lat="43.25047339629239" lon="12.236247112752894"><ele>613.0</ele><time>2026-04-10T16:16:09Z</time></trkpt><trkpt lat="43.25055687938801" lon="12.236212297701785"><ele>613.0</ele><time>2026-04-10T16:16:10Z</time></trkpt><trkpt lat="43.2506270770631" lon="12.236185895127132"><ele>613.0</ele><time>2026-04-10T16:16:11Z</time></trkpt><trkpt lat="43.250738489502886" lon="12.236163746422363"><ele>613.0</ele><time>2026-04-10T16:16:13Z</time></trkpt><trkpt lat="43.2508202443489" lon="12.236106967046572"><ele>611.6</ele><time>2026-04-10T16:16:15.001Z</time></trkpt><trkpt lat="43.2509042423757" lon="12.23600809472425"><ele>610.1999999999999</ele><time>2026-04-10T16:16:17.001Z</time></trkpt><trkpt lat="43.250940005197464" lon="12.235922303512567"><ele>608.8</ele><time>2026-04-10T16:16:18.001Z</time></trkpt><trkpt lat="43.250964882573385" lon="12.235828135854469"><ele>607.4</ele><time>2026-04-10T16:16:19.001Z</time></trkpt><trkpt lat="43.25102166651396" lon="12.235662748966867"><ele>606.0</ele><time>2026-04-10T16:16:21.001Z</time></trkpt><trkpt lat="43.251082960416994" lon="12.235615627860108"><ele>603.3333333333334</ele><time>2026-04-10T16:16:22.001Z</time></trkpt><trkpt lat="43.25114061229759" lon="12.235575565046293"><ele>600.6666666666666</ele><time>2026-04-10T16:16:23.001Z</time></trkpt><trkpt lat="43.25119900969076" lon="12.235518193504038"><ele>598.0</ele><time>2026-04-10T16:16:24.001Z</time></trkpt><trkpt lat="43.25130884507679" lon="12.235562574708656"><ele>595.3333333333333</ele><time>2026-04-10T16:16:25.001Z</time></trkpt><trkpt lat="43.25138775991368" lon="12.235555608673572"><ele>592.6666666666666</ele><time>2026-04-10T16:16:26.001Z</time></trkpt><trkpt lat="43.25146764647491" lon="12.235555183452657"><ele>590.0</ele><time>2026-04-10T16:16:27.001Z</time></trkpt><trkpt lat="43.25154450194302" lon="12.235562847151627"><ele>589.6666666666666</ele><time>2026-04-10T16:16:28.001Z</time></trkpt><trkpt lat="43.251614320081494" lon="12.235571579991692"><ele>589.3333333333333</ele><time>2026-04-10T16:16:29.001Z</time></trkpt><trkpt lat="43.251677632108176" lon="12.235580277771188"><ele>589.0</ele><time>2026-04-10T16:16:30.001Z</time></trkpt><trkpt lat="43.25176669335103" lon="12.235600160942274"><ele>588.6666666666666</ele><time>2026-04-10T16:16:32.001Z</time></trkpt><trkpt lat="43.25183433115837" lon="12.23562233243217"><ele>588.3333333333334</ele><time>2026-04-10T16:16:34.001Z</time></trkpt><trkpt lat="43.25192095865959" lon="12.235629695050266"><ele>588.0</ele><time>2026-04-10T16:16:37.001Z</time></trkpt><trkpt lat="43.25190601419508" lon="12.23552962958566"><ele>588.0</ele><time>2026-04-10T16:28:37Z</time></trkpt><trkpt lat="43.25185260066318" lon="12.235479260269807"><ele>588.0</ele><time>2026-04-10T16:28:42Z</time></trkpt><trkpt lat="43.25182185685034" lon="12.235390335614136"><ele>588.0</ele><time>2026-04-10T16:29:28Z</time></trkpt><trkpt lat="43.251755762014895" lon="12.235399498487695"><ele>588.0</ele><time>2026-04-10T16:29:32Z</time></trkpt><trkpt lat="43.25182021504134" lon="12.23543548916765"><ele>588.0</ele><time>2026-04-10T16:29:38Z</time></trkpt><trkpt lat="43.25189387021701" lon="12.235422475168862"><ele>588.0</ele><time>2026-04-10T16:29:49Z</time></trkpt><trkpt lat="43.25191820784338" lon="12.235502261346873"><ele>588.0</ele><time>2026-04-10T16:29:52Z</time></trkpt><trkpt lat="43.25194640698286" lon="12.235595636308865"><ele>588.0</ele><time>2026-04-10T16:29:55Z</time></trkpt></trkseg></trk></gpx>